﻿<?xml version="1.0" encoding="UTF-8"?>
<gpx version="v1.1.5" creator="iTravel Tech Inc. - http://www.itravel-tech.com" xmlns:xsi="http://www.w3.org/2001/XMLSchema-instance" xmlns="http://www.topografix.com/GPX/1/1" xsi:schemaLocation="http://www.topografix.com/GPX/1/1 http://www.topografix.com/GPX/1/1/gpx.xsd http://www.topografix.com/GPX/gpx_overlay/0/3 http://www.topografix.com/GPX/gpx_overlay/0/3/gpx_overlay.xsd http://www.topografix.com/GPX/gpx_modified/0/1 http://www.topografix.com/GPX/gpx_modified/0/1/gpx_modified.xsd">
<trk>
<name>Holux2011/04/27_06:08</name>
<trkseg>
<trkpt lat="22.088186" lon="104.254097">
<ele>176.865356</ele>
<time>2011-04-27T03:08:01Z</time>
<desc>lat.=22.088186, lon.=104.254097, Alt.=176.865356m. Speed=0.612000m/h.</desc>
<speed>0.170000</speed>
</trkpt>
<trkpt lat="22.088142" lon="104.254051">
<ele>176.880981</ele>
<time>2011-04-27T03:08:06Z</time>
<desc>lat.=22.088142, lon.=104.254051, Alt.=176.880981m. Speed=0.540000m/h.</desc>
<speed>0.150000</speed>
</trkpt>
<trkpt lat="22.088186" lon="104.254066">
<ele>176.838013</ele>
<time>2011-04-27T03:08:11Z</time>
<desc>lat.=22.088186, lon.=104.254066, Alt.=176.838013m. Speed=0.648000m/h.</desc>
<speed>0.180000</speed>
</trkpt>
<trkpt lat="22.088305" lon="104.254082">
<ele>176.873169</ele>
<time>2011-04-27T03:08:16Z</time>
<desc>lat.=22.088305, lon.=104.254082, Alt.=176.873169m. Speed=2.232000m/h.</desc>
<speed>0.620000</speed>
</trkpt>
<trkpt lat="22.088327" lon="104.254082">
<ele>176.947388</ele>
<time>2011-04-27T03:08:21Z</time>
<desc>lat.=22.088327, lon.=104.254082, Alt.=176.947388m. Speed=1.476000m/h.</desc>
<speed>0.410000</speed>
</trkpt>
<trkpt lat="22.088409" lon="104.254105">
<ele>177.127075</ele>
<time>2011-04-27T03:08:26Z</time>
<desc>lat.=22.088409, lon.=104.254105, Alt.=177.127075m. Speed=2.268000m/h.</desc>
<speed>0.630000</speed>
</trkpt>
<trkpt lat="22.088434" lon="104.254097">
<ele>177.072388</ele>
<time>2011-04-27T03:08:31Z</time>
<desc>lat.=22.088434, lon.=104.254097, Alt.=177.072388m. Speed=1.296000m/h.</desc>
<speed>0.360000</speed>
</trkpt>
<trkpt lat="22.088423" lon="104.254105">
<ele>177.076294</ele>
<time>2011-04-27T03:08:36Z</time>
<desc>lat.=22.088423, lon.=104.254105, Alt.=177.076294m. Speed=0.864000m/h.</desc>
<speed>0.240000</speed>
</trkpt>
<trkpt lat="22.088404" lon="104.254089">
<ele>177.095825</ele>
<time>2011-04-27T03:08:41Z</time>
<desc>lat.=22.088404, lon.=104.254089, Alt.=177.095825m. Speed=0.504000m/h.</desc>
<speed>0.140000</speed>
</trkpt>
<trkpt lat="22.088408" lon="104.254089">
<ele>177.068481</ele>
<time>2011-04-27T03:08:46Z</time>
<desc>lat.=22.088408, lon.=104.254089, Alt.=177.068481m. Speed=0.792000m/h.</desc>
<speed>0.220000</speed>
</trkpt>
<trkpt lat="22.088415" lon="104.254089">
<ele>177.130981</ele>
<time>2011-04-27T03:08:51Z</time>
<desc>lat.=22.088415, lon.=104.254089, Alt.=177.130981m. Speed=1.044000m/h.</desc>
<speed>0.290000</speed>
</trkpt>
<trkpt lat="22.088408" lon="104.254089">
<ele>177.111450</ele>
<time>2011-04-27T03:08:56Z</time>
<desc>lat.=22.088408, lon.=104.254089, Alt.=177.111450m. Speed=0.684000m/h.</desc>
<speed>0.190000</speed>
</trkpt>
<trkpt lat="22.088406" lon="104.254089">
<ele>177.111450</ele>
<time>2011-04-27T03:09:01Z</time>
<desc>lat.=22.088406, lon.=104.254089, Alt.=177.111450m. Speed=0.288000m/h.</desc>
<speed>0.080000</speed>
</trkpt>
<trkpt lat="22.088406" lon="104.254097">
<ele>177.107544</ele>
<time>2011-04-27T03:09:06Z</time>
<desc>lat.=22.088406, lon.=104.254097, Alt.=177.107544m. Speed=0.432000m/h.</desc>
<speed>0.120000</speed>
</trkpt>
<trkpt lat="22.088377" lon="104.254089">
<ele>177.068481</ele>
<time>2011-04-27T03:09:11Z</time>
<desc>lat.=22.088377, lon.=104.254089, Alt.=177.068481m. Speed=1.692000m/h.</desc>
<speed>0.470000</speed>
</trkpt>
<trkpt lat="22.088284" lon="104.254066">
<ele>176.994263</ele>
<time>2011-04-27T03:09:16Z</time>
<desc>lat.=22.088284, lon.=104.254066, Alt.=176.994263m. Speed=2.376000m/h.</desc>
<speed>0.660000</speed>
</trkpt>
<trkpt lat="22.088263" lon="104.254074">
<ele>177.072388</ele>
<time>2011-04-27T03:09:21Z</time>
<desc>lat.=22.088263, lon.=104.254074, Alt.=177.072388m. Speed=1.656000m/h.</desc>
<speed>0.460000</speed>
</trkpt>
<trkpt lat="22.087618" lon="104.254036">
<ele>214.439575</ele>
<time>2011-04-27T03:09:26Z</time>
<desc>lat.=22.087618, lon.=104.254036, Alt.=214.439575m. Speed=0.720000m/h.</desc>
<speed>0.200000</speed>
</trkpt>
<trkpt lat="22.087624" lon="104.254036">
<ele>214.732544</ele>
<time>2011-04-27T03:09:31Z</time>
<desc>lat.=22.087624, lon.=104.254036, Alt.=214.732544m. Speed=0.216000m/h.</desc>
<speed>0.060000</speed>
</trkpt>
<trkpt lat="22.087626" lon="104.254028">
<ele>214.767700</ele>
<time>2011-04-27T03:09:36Z</time>
<desc>lat.=22.087626, lon.=104.254028, Alt.=214.767700m. Speed=0.756000m/h.</desc>
<speed>0.210000</speed>
</trkpt>
<trkpt lat="22.087629" lon="104.254021">
<ele>214.173950</ele>
<time>2011-04-27T03:09:41Z</time>
<desc>lat.=22.087629, lon.=104.254021, Alt.=214.173950m. Speed=1.224000m/h.</desc>
<speed>0.340000</speed>
</trkpt>
<trkpt lat="22.087654" lon="104.253990">
<ele>211.459106</ele>
<time>2011-04-27T03:09:46Z</time>
<desc>lat.=22.087654, lon.=104.253990, Alt.=211.459106m. Speed=0.684000m/h.</desc>
<speed>0.190000</speed>
</trkpt>
<trkpt lat="22.087660" lon="104.253990">
<ele>211.396606</ele>
<time>2011-04-27T03:09:51Z</time>
<desc>lat.=22.087660, lon.=104.253990, Alt.=211.396606m. Speed=0.432000m/h.</desc>
<speed>0.120000</speed>
</trkpt>
<trkpt lat="22.087666" lon="104.253990">
<ele>211.349731</ele>
<time>2011-04-27T03:09:56Z</time>
<desc>lat.=22.087666, lon.=104.253990, Alt.=211.349731m. Speed=0.468000m/h.</desc>
<speed>0.130000</speed>
</trkpt>
<trkpt lat="22.087666" lon="104.253983">
<ele>211.326294</ele>
<time>2011-04-27T03:10:01Z</time>
<desc>lat.=22.087666, lon.=104.253983, Alt.=211.326294m. Speed=0.324000m/h.</desc>
<speed>0.090000</speed>
</trkpt>
<trkpt lat="22.087662" lon="104.253983">
<ele>211.244263</ele>
<time>2011-04-27T03:10:06Z</time>
<desc>lat.=22.087662, lon.=104.253983, Alt.=211.244263m. Speed=0.756000m/h.</desc>
<speed>0.210000</speed>
</trkpt>
<trkpt lat="22.087662" lon="104.253975">
<ele>211.025513</ele>
<time>2011-04-27T03:10:11Z</time>
<desc>lat.=22.087662, lon.=104.253975, Alt.=211.025513m. Speed=0.360000m/h.</desc>
<speed>0.100000</speed>
</trkpt>
<trkpt lat="22.087683" lon="104.253967">
<ele>210.392700</ele>
<time>2011-04-27T03:10:16Z</time>
<desc>lat.=22.087683, lon.=104.253967, Alt.=210.392700m. Speed=0.432000m/h.</desc>
<speed>0.120000</speed>
</trkpt>
<trkpt lat="22.087704" lon="104.253952">
<ele>209.888794</ele>
<time>2011-04-27T03:10:21Z</time>
<desc>lat.=22.087704, lon.=104.253952, Alt.=209.888794m. Speed=0.648000m/h.</desc>
<speed>0.180000</speed>
</trkpt>
<trkpt lat="22.087696" lon="104.253960">
<ele>209.826294</ele>
<time>2011-04-27T03:10:26Z</time>
<desc>lat.=22.087696, lon.=104.253960, Alt.=209.826294m. Speed=2.232000m/h.</desc>
<speed>0.620000</speed>
</trkpt>
<trkpt lat="22.087679" lon="104.253975">
<ele>209.767700</ele>
<time>2011-04-27T03:10:31Z</time>
<desc>lat.=22.087679, lon.=104.253975, Alt.=209.767700m. Speed=1.584000m/h.</desc>
<speed>0.440000</speed>
</trkpt>
<trkpt lat="22.087673" lon="104.253975">
<ele>209.681763</ele>
<time>2011-04-27T03:10:36Z</time>
<desc>lat.=22.087673, lon.=104.253975, Alt.=209.681763m. Speed=0.576000m/h.</desc>
<speed>0.160000</speed>
</trkpt>
<trkpt lat="22.087667" lon="104.253975">
<ele>209.642700</ele>
<time>2011-04-27T03:10:41Z</time>
<desc>lat.=22.087667, lon.=104.253975, Alt.=209.642700m. Speed=0.576000m/h.</desc>
<speed>0.160000</speed>
</trkpt>
<trkpt lat="22.087652" lon="104.254005">
<ele>209.630981</ele>
<time>2011-04-27T03:10:46Z</time>
<desc>lat.=22.087652, lon.=104.254005, Alt.=209.630981m. Speed=5.148000m/h.</desc>
<speed>1.430000</speed>
</trkpt>
<trkpt lat="22.087578" lon="104.254105">
<ele>208.880981</ele>
<time>2011-04-27T03:10:51Z</time>
<desc>lat.=22.087578, lon.=104.254105, Alt.=208.880981m. Speed=12.528000m/h.</desc>
<speed>3.480000</speed>
</trkpt>
<trkpt lat="22.087545" lon="104.254219">
<ele>205.537231</ele>
<time>2011-04-27T03:10:56Z</time>
<desc>lat.=22.087545, lon.=104.254219, Alt.=205.537231m. Speed=7.128000m/h.</desc>
<speed>1.980000</speed>
</trkpt>
<trkpt lat="22.087570" lon="104.254364">
<ele>203.638794</ele>
<time>2011-04-27T03:11:01Z</time>
<desc>lat.=22.087570, lon.=104.254364, Alt.=203.638794m. Speed=10.440000m/h.</desc>
<speed>2.900000</speed>
</trkpt>
<trkpt lat="22.087696" lon="104.254417">
<ele>203.607544</ele>
<time>2011-04-27T03:11:06Z</time>
<desc>lat.=22.087696, lon.=104.254417, Alt.=203.607544m. Speed=8.856000m/h.</desc>
<speed>2.460000</speed>
</trkpt>
<trkpt lat="22.087831" lon="104.254463">
<ele>203.162231</ele>
<time>2011-04-27T03:11:11Z</time>
<desc>lat.=22.087831, lon.=104.254463, Alt.=203.162231m. Speed=7.776000m/h.</desc>
<speed>2.160000</speed>
</trkpt>
<trkpt lat="22.087963" lon="104.254471">
<ele>200.752075</ele>
<time>2011-04-27T03:11:16Z</time>
<desc>lat.=22.087963, lon.=104.254471, Alt.=200.752075m. Speed=12.852000m/h.</desc>
<speed>3.570000</speed>
</trkpt>
<trkpt lat="22.088163" lon="104.254494">
<ele>197.927856</ele>
<time>2011-04-27T03:11:21Z</time>
<desc>lat.=22.088163, lon.=104.254494, Alt.=197.927856m. Speed=12.240000m/h.</desc>
<speed>3.400000</speed>
</trkpt>
<trkpt lat="22.088322" lon="104.254509">
<ele>194.884888</ele>
<time>2011-04-27T03:11:26Z</time>
<desc>lat.=22.088322, lon.=104.254509, Alt.=194.884888m. Speed=8.028000m/h.</desc>
<speed>2.230000</speed>
</trkpt>
<trkpt lat="22.088488" lon="104.254501">
<ele>198.009888</ele>
<time>2011-04-27T03:11:31Z</time>
<desc>lat.=22.088488, lon.=104.254501, Alt.=198.009888m. Speed=13.356000m/h.</desc>
<speed>3.710000</speed>
</trkpt>
<trkpt lat="22.088667" lon="104.254501">
<ele>198.431763</ele>
<time>2011-04-27T03:11:36Z</time>
<desc>lat.=22.088667, lon.=104.254501, Alt.=198.431763m. Speed=5.508000m/h.</desc>
<speed>1.530000</speed>
</trkpt>
<trkpt lat="22.088779" lon="104.254524">
<ele>196.470825</ele>
<time>2011-04-27T03:11:41Z</time>
<desc>lat.=22.088779, lon.=104.254524, Alt.=196.470825m. Speed=8.604000m/h.</desc>
<speed>2.390000</speed>
</trkpt>
<trkpt lat="22.088917" lon="104.254539">
<ele>195.197388</ele>
<time>2011-04-27T03:11:46Z</time>
<desc>lat.=22.088917, lon.=104.254539, Alt.=195.197388m. Speed=9.972000m/h.</desc>
<speed>2.770000</speed>
</trkpt>
<trkpt lat="22.089085" lon="104.254539">
<ele>196.295044</ele>
<time>2011-04-27T03:11:51Z</time>
<desc>lat.=22.089085, lon.=104.254539, Alt.=196.295044m. Speed=10.368000m/h.</desc>
<speed>2.880000</speed>
</trkpt>
<trkpt lat="22.089252" lon="104.254532">
<ele>194.037231</ele>
<time>2011-04-27T03:11:56Z</time>
<desc>lat.=22.089252, lon.=104.254532, Alt.=194.037231m. Speed=4.104000m/h.</desc>
<speed>1.140000</speed>
</trkpt>
<trkpt lat="22.089346" lon="104.254517">
<ele>189.447388</ele>
<time>2011-04-27T03:12:01Z</time>
<desc>lat.=22.089346, lon.=104.254517, Alt.=189.447388m. Speed=4.248000m/h.</desc>
<speed>1.180000</speed>
</trkpt>
<trkpt lat="22.089413" lon="104.254440">
<ele>189.443481</ele>
<time>2011-04-27T03:12:06Z</time>
<desc>lat.=22.089413, lon.=104.254440, Alt.=189.443481m. Speed=7.200000m/h.</desc>
<speed>2.000000</speed>
</trkpt>
<trkpt lat="22.089432" lon="104.254288">
<ele>189.271606</ele>
<time>2011-04-27T03:12:11Z</time>
<desc>lat.=22.089432, lon.=104.254288, Alt.=189.271606m. Speed=9.504000m/h.</desc>
<speed>2.640000</speed>
</trkpt>
<trkpt lat="22.089508" lon="104.254120">
<ele>191.736450</ele>
<time>2011-04-27T03:12:16Z</time>
<desc>lat.=22.089508, lon.=104.254120, Alt.=191.736450m. Speed=7.056000m/h.</desc>
<speed>1.960000</speed>
</trkpt>
<trkpt lat="22.089531" lon="104.253990">
<ele>192.279419</ele>
<time>2011-04-27T03:12:21Z</time>
<desc>lat.=22.089531, lon.=104.253990, Alt.=192.279419m. Speed=8.028000m/h.</desc>
<speed>2.230000</speed>
</trkpt>
<trkpt lat="22.089537" lon="104.253868">
<ele>192.310669</ele>
<time>2011-04-27T03:12:26Z</time>
<desc>lat.=22.089537, lon.=104.253868, Alt.=192.310669m. Speed=6.156000m/h.</desc>
<speed>1.710000</speed>
</trkpt>
<trkpt lat="22.089550" lon="104.253754">
<ele>190.951294</ele>
<time>2011-04-27T03:12:31Z</time>
<desc>lat.=22.089550, lon.=104.253754, Alt.=190.951294m. Speed=5.184000m/h.</desc>
<speed>1.440000</speed>
</trkpt>
<trkpt lat="22.089571" lon="104.253639">
<ele>192.259888</ele>
<time>2011-04-27T03:12:36Z</time>
<desc>lat.=22.089571, lon.=104.253639, Alt.=192.259888m. Speed=5.004000m/h.</desc>
<speed>1.390000</speed>
</trkpt>
<trkpt lat="22.089611" lon="104.253616">
<ele>193.181763</ele>
<time>2011-04-27T03:12:41Z</time>
<desc>lat.=22.089611, lon.=104.253616, Alt.=193.181763m. Speed=2.772000m/h.</desc>
<speed>0.770000</speed>
</trkpt>
<trkpt lat="22.089607" lon="104.253609">
<ele>193.650513</ele>
<time>2011-04-27T03:12:46Z</time>
<desc>lat.=22.089607, lon.=104.253609, Alt.=193.650513m. Speed=0.252000m/h.</desc>
<speed>0.070000</speed>
</trkpt>
<trkpt lat="22.089609" lon="104.253609">
<ele>193.713013</ele>
<time>2011-04-27T03:12:51Z</time>
<desc>lat.=22.089609, lon.=104.253609, Alt.=193.713013m. Speed=1.440000m/h.</desc>
<speed>0.400000</speed>
</trkpt>
<trkpt lat="22.089621" lon="104.253624">
<ele>194.564575</ele>
<time>2011-04-27T03:12:56Z</time>
<desc>lat.=22.089621, lon.=104.253624, Alt.=194.564575m. Speed=0.504000m/h.</desc>
<speed>0.140000</speed>
</trkpt>
<trkpt lat="22.089622" lon="104.253624">
<ele>195.017700</ele>
<time>2011-04-27T03:13:01Z</time>
<desc>lat.=22.089622, lon.=104.253624, Alt.=195.017700m. Speed=0.324000m/h.</desc>
<speed>0.090000</speed>
</trkpt>
<trkpt lat="22.089613" lon="104.253632">
<ele>195.181763</ele>
<time>2011-04-27T03:13:06Z</time>
<desc>lat.=22.089613, lon.=104.253632, Alt.=195.181763m. Speed=0.108000m/h.</desc>
<speed>0.030000</speed>
</trkpt>
<trkpt lat="22.089613" lon="104.253632">
<ele>195.197388</ele>
<time>2011-04-27T03:13:11Z</time>
<desc>lat.=22.089613, lon.=104.253632, Alt.=195.197388m. Speed=0.108000m/h.</desc>
<speed>0.030000</speed>
</trkpt>
<trkpt lat="22.089613" lon="104.253632">
<ele>195.209106</ele>
<time>2011-04-27T03:13:16Z</time>
<desc>lat.=22.089613, lon.=104.253632, Alt.=195.209106m. Speed=0.252000m/h.</desc>
<speed>0.070000</speed>
</trkpt>
<trkpt lat="22.089619" lon="104.253632">
<ele>195.509888</ele>
<time>2011-04-27T03:13:21Z</time>
<desc>lat.=22.089619, lon.=104.253632, Alt.=195.509888m. Speed=0.936000m/h.</desc>
<speed>0.260000</speed>
</trkpt>
<trkpt lat="22.089626" lon="104.253632">
<ele>196.236450</ele>
<time>2011-04-27T03:13:26Z</time>
<desc>lat.=22.089626, lon.=104.253632, Alt.=196.236450m. Speed=0.180000m/h.</desc>
<speed>0.050000</speed>
</trkpt>
<trkpt lat="22.089628" lon="104.253632">
<ele>196.361450</ele>
<time>2011-04-27T03:13:31Z</time>
<desc>lat.=22.089628, lon.=104.253632, Alt.=196.361450m. Speed=0.756000m/h.</desc>
<speed>0.210000</speed>
</trkpt>
<trkpt lat="22.089632" lon="104.253632">
<ele>196.463013</ele>
<time>2011-04-27T03:13:36Z</time>
<desc>lat.=22.089632, lon.=104.253632, Alt.=196.463013m. Speed=0.144000m/h.</desc>
<speed>0.040000</speed>
</trkpt>
<trkpt lat="22.089632" lon="104.253624">
<ele>196.505981</ele>
<time>2011-04-27T03:13:41Z</time>
<desc>lat.=22.089632, lon.=104.253624, Alt.=196.505981m. Speed=0.144000m/h.</desc>
<speed>0.040000</speed>
</trkpt>
<trkpt lat="22.089634" lon="104.253624">
<ele>196.548950</ele>
<time>2011-04-27T03:13:46Z</time>
<desc>lat.=22.089634, lon.=104.253624, Alt.=196.548950m. Speed=0.108000m/h.</desc>
<speed>0.030000</speed>
</trkpt>
<trkpt lat="22.089634" lon="104.253624">
<ele>196.584106</ele>
<time>2011-04-27T03:13:51Z</time>
<desc>lat.=22.089634, lon.=104.253624, Alt.=196.584106m. Speed=0.000000m/h.</desc>
<speed>0.000000</speed>
</trkpt>
<trkpt lat="22.089634" lon="104.253624">
<ele>196.607544</ele>
<time>2011-04-27T03:13:56Z</time>
<desc>lat.=22.089634, lon.=104.253624, Alt.=196.607544m. Speed=0.036000m/h.</desc>
<speed>0.010000</speed>
</trkpt>
<trkpt lat="22.089632" lon="104.253632">
<ele>196.603638</ele>
<time>2011-04-27T03:14:01Z</time>
<desc>lat.=22.089632, lon.=104.253632, Alt.=196.603638m. Speed=0.000000m/h.</desc>
<speed>0.000000</speed>
</trkpt>
<trkpt lat="22.089632" lon="104.253632">
<ele>196.525513</ele>
<time>2011-04-27T03:14:06Z</time>
<desc>lat.=22.089632, lon.=104.253632, Alt.=196.525513m. Speed=0.036000m/h.</desc>
<speed>0.010000</speed>
</trkpt>
<trkpt lat="22.089632" lon="104.253632">
<ele>196.494263</ele>
<time>2011-04-27T03:14:11Z</time>
<desc>lat.=22.089632, lon.=104.253632, Alt.=196.494263m. Speed=0.000000m/h.</desc>
<speed>0.000000</speed>
</trkpt>
<trkpt lat="22.089632" lon="104.253632">
<ele>196.537231</ele>
<time>2011-04-27T03:14:16Z</time>
<desc>lat.=22.089632, lon.=104.253632, Alt.=196.537231m. Speed=0.072000m/h.</desc>
<speed>0.020000</speed>
</trkpt>
<trkpt lat="22.089630" lon="104.253632">
<ele>196.552856</ele>
<time>2011-04-27T03:14:21Z</time>
<desc>lat.=22.089630, lon.=104.253632, Alt.=196.552856m. Speed=0.036000m/h.</desc>
<speed>0.010000</speed>
</trkpt>
<trkpt lat="22.089630" lon="104.253632">
<ele>196.548950</ele>
<time>2011-04-27T03:14:26Z</time>
<desc>lat.=22.089630, lon.=104.253632, Alt.=196.548950m. Speed=0.072000m/h.</desc>
<speed>0.020000</speed>
</trkpt>
<trkpt lat="22.089630" lon="104.253632">
<ele>196.560669</ele>
<time>2011-04-27T03:14:31Z</time>
<desc>lat.=22.089630, lon.=104.253632, Alt.=196.560669m. Speed=0.036000m/h.</desc>
<speed>0.010000</speed>
</trkpt>
<trkpt lat="22.089630" lon="104.253632">
<ele>196.576294</ele>
<time>2011-04-27T03:14:36Z</time>
<desc>lat.=22.089630, lon.=104.253632, Alt.=196.576294m. Speed=0.036000m/h.</desc>
<speed>0.010000</speed>
</trkpt>
<trkpt lat="22.089630" lon="104.253632">
<ele>196.591919</ele>
<time>2011-04-27T03:14:41Z</time>
<desc>lat.=22.089630, lon.=104.253632, Alt.=196.591919m. Speed=0.000000m/h.</desc>
<speed>0.000000</speed>
</trkpt>
<trkpt lat="22.089630" lon="104.253632">
<ele>196.572388</ele>
<time>2011-04-27T03:14:46Z</time>
<desc>lat.=22.089630, lon.=104.253632, Alt.=196.572388m. Speed=0.036000m/h.</desc>
<speed>0.010000</speed>
</trkpt>
<trkpt lat="22.089630" lon="104.253632">
<ele>196.525513</ele>
<time>2011-04-27T03:14:51Z</time>
<desc>lat.=22.089630, lon.=104.253632, Alt.=196.525513m. Speed=0.000000m/h.</desc>
<speed>0.000000</speed>
</trkpt>
<trkpt lat="22.089630" lon="104.253632">
<ele>196.494263</ele>
<time>2011-04-27T03:14:56Z</time>
<desc>lat.=22.089630, lon.=104.253632, Alt.=196.494263m. Speed=0.036000m/h.</desc>
<speed>0.010000</speed>
</trkpt>
<trkpt lat="22.089630" lon="104.253632">
<ele>196.455200</ele>
<time>2011-04-27T03:15:01Z</time>
<desc>lat.=22.089630, lon.=104.253632, Alt.=196.455200m. Speed=0.000000m/h.</desc>
<speed>0.000000</speed>
</trkpt>
<trkpt lat="22.089628" lon="104.253632">
<ele>196.431763</ele>
<time>2011-04-27T03:15:06Z</time>
<desc>lat.=22.089628, lon.=104.253632, Alt.=196.431763m. Speed=0.036000m/h.</desc>
<speed>0.010000</speed>
</trkpt>
<trkpt lat="22.089628" lon="104.253632">
<ele>196.427856</ele>
<time>2011-04-27T03:15:11Z</time>
<desc>lat.=22.089628, lon.=104.253632, Alt.=196.427856m. Speed=0.000000m/h.</desc>
<speed>0.000000</speed>
</trkpt>
<trkpt lat="22.089628" lon="104.253632">
<ele>196.455200</ele>
<time>2011-04-27T03:15:16Z</time>
<desc>lat.=22.089628, lon.=104.253632, Alt.=196.455200m. Speed=0.036000m/h.</desc>
<speed>0.010000</speed>
</trkpt>
<trkpt lat="22.089628" lon="104.253632">
<ele>196.443481</ele>
<time>2011-04-27T03:15:21Z</time>
<desc>lat.=22.089628, lon.=104.253632, Alt.=196.443481m. Speed=0.036000m/h.</desc>
<speed>0.010000</speed>
</trkpt>
<trkpt lat="22.089628" lon="104.253632">
<ele>196.435669</ele>
<time>2011-04-27T03:15:26Z</time>
<desc>lat.=22.089628, lon.=104.253632, Alt.=196.435669m. Speed=0.000000m/h.</desc>
<speed>0.000000</speed>
</trkpt>
<trkpt lat="22.089628" lon="104.253632">
<ele>196.416138</ele>
<time>2011-04-27T03:15:31Z</time>
<desc>lat.=22.089628, lon.=104.253632, Alt.=196.416138m. Speed=0.000000m/h.</desc>
<speed>0.000000</speed>
</trkpt>
<trkpt lat="22.089626" lon="104.253632">
<ele>196.384888</ele>
<time>2011-04-27T03:15:36Z</time>
<desc>lat.=22.089626, lon.=104.253632, Alt.=196.384888m. Speed=0.000000m/h.</desc>
<speed>0.000000</speed>
</trkpt>
<trkpt lat="22.089626" lon="104.253632">
<ele>196.369263</ele>
<time>2011-04-27T03:15:41Z</time>
<desc>lat.=22.089626, lon.=104.253632, Alt.=196.369263m. Speed=0.036000m/h.</desc>
<speed>0.010000</speed>
</trkpt>
<trkpt lat="22.089626" lon="104.253632">
<ele>196.353638</ele>
<time>2011-04-27T03:15:46Z</time>
<desc>lat.=22.089626, lon.=104.253632, Alt.=196.353638m. Speed=0.000000m/h.</desc>
<speed>0.000000</speed>
</trkpt>
<trkpt lat="22.089624" lon="104.253632">
<ele>196.638794</ele>
<time>2011-04-27T03:15:51Z</time>
<desc>lat.=22.089624, lon.=104.253632, Alt.=196.638794m. Speed=0.000000m/h.</desc>
<speed>0.000000</speed>
</trkpt>
<trkpt lat="22.089613" lon="104.253654">
<ele>197.302856</ele>
<time>2011-04-27T03:15:56Z</time>
<desc>lat.=22.089613, lon.=104.253654, Alt.=197.302856m. Speed=0.072000m/h.</desc>
<speed>0.020000</speed>
</trkpt>
<trkpt lat="22.089598" lon="104.253677">
<ele>198.759888</ele>
<time>2011-04-27T03:16:01Z</time>
<desc>lat.=22.089598, lon.=104.253677, Alt.=198.759888m. Speed=0.360000m/h.</desc>
<speed>0.100000</speed>
</trkpt>
<trkpt lat="22.089586" lon="104.253700">
<ele>200.357544</ele>
<time>2011-04-27T03:16:06Z</time>
<desc>lat.=22.089586, lon.=104.253700, Alt.=200.357544m. Speed=0.036000m/h.</desc>
<speed>0.010000</speed>
</trkpt>
<trkpt lat="22.089573" lon="104.253708">
<ele>200.779419</ele>
<time>2011-04-27T03:16:11Z</time>
<desc>lat.=22.089573, lon.=104.253708, Alt.=200.779419m. Speed=0.036000m/h.</desc>
<speed>0.010000</speed>
</trkpt>
<trkpt lat="22.089560" lon="104.253723">
<ele>201.884888</ele>
<time>2011-04-27T03:16:16Z</time>
<desc>lat.=22.089560, lon.=104.253723, Alt.=201.884888m. Speed=0.036000m/h.</desc>
<speed>0.010000</speed>
</trkpt>
<trkpt lat="22.089548" lon="104.253731">
<ele>202.345825</ele>
<time>2011-04-27T03:16:21Z</time>
<desc>lat.=22.089548, lon.=104.253731, Alt.=202.345825m. Speed=0.000000m/h.</desc>
<speed>0.000000</speed>
</trkpt>
<trkpt lat="22.089567" lon="104.253716">
<ele>204.568481</ele>
<time>2011-04-27T03:16:26Z</time>
<desc>lat.=22.089567, lon.=104.253716, Alt.=204.568481m. Speed=0.072000m/h.</desc>
<speed>0.020000</speed>
</trkpt>
<trkpt lat="22.089577" lon="104.253700">
<ele>205.709106</ele>
<time>2011-04-27T03:16:31Z</time>
<desc>lat.=22.089577, lon.=104.253700, Alt.=205.709106m. Speed=0.000000m/h.</desc>
<speed>0.000000</speed>
</trkpt>
<trkpt lat="22.089577" lon="104.253693">
<ele>206.134888</ele>
<time>2011-04-27T03:16:36Z</time>
<desc>lat.=22.089577, lon.=104.253693, Alt.=206.134888m. Speed=0.036000m/h.</desc>
<speed>0.010000</speed>
</trkpt>
<trkpt lat="22.089577" lon="104.253693">
<ele>206.162231</ele>
<time>2011-04-27T03:16:41Z</time>
<desc>lat.=22.089577, lon.=104.253693, Alt.=206.162231m. Speed=0.108000m/h.</desc>
<speed>0.030000</speed>
</trkpt>
<trkpt lat="22.089579" lon="104.253693">
<ele>206.193481</ele>
<time>2011-04-27T03:16:46Z</time>
<desc>lat.=22.089579, lon.=104.253693, Alt.=206.193481m. Speed=0.036000m/h.</desc>
<speed>0.010000</speed>
</trkpt>
<trkpt lat="22.089579" lon="104.253693">
<ele>206.216919</ele>
<time>2011-04-27T03:16:51Z</time>
<desc>lat.=22.089579, lon.=104.253693, Alt.=206.216919m. Speed=0.252000m/h.</desc>
<speed>0.070000</speed>
</trkpt>
<trkpt lat="22.089579" lon="104.253693">
<ele>206.220825</ele>
<time>2011-04-27T03:16:56Z</time>
<desc>lat.=22.089579, lon.=104.253693, Alt.=206.220825m. Speed=0.072000m/h.</desc>
<speed>0.020000</speed>
</trkpt>
<trkpt lat="22.089579" lon="104.253693">
<ele>206.216919</ele>
<time>2011-04-27T03:17:01Z</time>
<desc>lat.=22.089579, lon.=104.253693, Alt.=206.216919m. Speed=0.072000m/h.</desc>
<speed>0.020000</speed>
</trkpt>
<trkpt lat="22.089581" lon="104.253693">
<ele>206.236450</ele>
<time>2011-04-27T03:17:06Z</time>
<desc>lat.=22.089581, lon.=104.253693, Alt.=206.236450m. Speed=0.108000m/h.</desc>
<speed>0.030000</speed>
</trkpt>
<trkpt lat="22.089581" lon="104.253693">
<ele>206.255981</ele>
<time>2011-04-27T03:17:11Z</time>
<desc>lat.=22.089581, lon.=104.253693, Alt.=206.255981m. Speed=0.144000m/h.</desc>
<speed>0.040000</speed>
</trkpt>
<trkpt lat="22.089581" lon="104.253693">
<ele>206.291138</ele>
<time>2011-04-27T03:17:16Z</time>
<desc>lat.=22.089581, lon.=104.253693, Alt.=206.291138m. Speed=0.000000m/h.</desc>
<speed>0.000000</speed>
</trkpt>
<trkpt lat="22.089581" lon="104.253693">
<ele>206.298950</ele>
<time>2011-04-27T03:17:21Z</time>
<desc>lat.=22.089581, lon.=104.253693, Alt.=206.298950m. Speed=0.072000m/h.</desc>
<speed>0.020000</speed>
</trkpt>
<trkpt lat="22.089581" lon="104.253693">
<ele>206.314575</ele>
<time>2011-04-27T03:17:26Z</time>
<desc>lat.=22.089581, lon.=104.253693, Alt.=206.314575m. Speed=0.036000m/h.</desc>
<speed>0.010000</speed>
</trkpt>
<trkpt lat="22.089581" lon="104.253693">
<ele>206.365356</ele>
<time>2011-04-27T03:17:31Z</time>
<desc>lat.=22.089581, lon.=104.253693, Alt.=206.365356m. Speed=0.036000m/h.</desc>
<speed>0.010000</speed>
</trkpt>
<trkpt lat="22.089581" lon="104.253693">
<ele>206.412231</ele>
<time>2011-04-27T03:17:36Z</time>
<desc>lat.=22.089581, lon.=104.253693, Alt.=206.412231m. Speed=0.072000m/h.</desc>
<speed>0.020000</speed>
</trkpt>
<trkpt lat="22.089581" lon="104.253693">
<ele>206.455200</ele>
<time>2011-04-27T03:17:41Z</time>
<desc>lat.=22.089581, lon.=104.253693, Alt.=206.455200m. Speed=0.072000m/h.</desc>
<speed>0.020000</speed>
</trkpt>
<trkpt lat="22.089581" lon="104.253693">
<ele>206.478638</ele>
<time>2011-04-27T03:17:46Z</time>
<desc>lat.=22.089581, lon.=104.253693, Alt.=206.478638m. Speed=0.072000m/h.</desc>
<speed>0.020000</speed>
</trkpt>
<trkpt lat="22.089582" lon="104.253693">
<ele>206.521606</ele>
<time>2011-04-27T03:17:51Z</time>
<desc>lat.=22.089582, lon.=104.253693, Alt.=206.521606m. Speed=0.144000m/h.</desc>
<speed>0.040000</speed>
</trkpt>
<trkpt lat="22.089582" lon="104.253693">
<ele>206.548950</ele>
<time>2011-04-27T03:17:56Z</time>
<desc>lat.=22.089582, lon.=104.253693, Alt.=206.548950m. Speed=0.144000m/h.</desc>
<speed>0.040000</speed>
</trkpt>
<trkpt lat="22.089582" lon="104.253685">
<ele>206.564575</ele>
<time>2011-04-27T03:18:01Z</time>
<desc>lat.=22.089582, lon.=104.253685, Alt.=206.564575m. Speed=0.000000m/h.</desc>
<speed>0.000000</speed>
</trkpt>
<trkpt lat="22.089582" lon="104.253693">
<ele>206.560669</ele>
<time>2011-04-27T03:18:06Z</time>
<desc>lat.=22.089582, lon.=104.253693, Alt.=206.560669m. Speed=0.036000m/h.</desc>
<speed>0.010000</speed>
</trkpt>
<trkpt lat="22.089582" lon="104.253693">
<ele>206.556763</ele>
<time>2011-04-27T03:18:11Z</time>
<desc>lat.=22.089582, lon.=104.253693, Alt.=206.556763m. Speed=0.000000m/h.</desc>
<speed>0.000000</speed>
</trkpt>
<trkpt lat="22.089582" lon="104.253685">
<ele>206.560669</ele>
<time>2011-04-27T03:18:16Z</time>
<desc>lat.=22.089582, lon.=104.253685, Alt.=206.560669m. Speed=0.036000m/h.</desc>
<speed>0.010000</speed>
</trkpt>
<trkpt lat="22.089584" lon="104.253685">
<ele>206.548950</ele>
<time>2011-04-27T03:18:21Z</time>
<desc>lat.=22.089584, lon.=104.253685, Alt.=206.548950m. Speed=0.000000m/h.</desc>
<speed>0.000000</speed>
</trkpt>
<trkpt lat="22.089584" lon="104.253685">
<ele>206.533325</ele>
<time>2011-04-27T03:18:26Z</time>
<desc>lat.=22.089584, lon.=104.253685, Alt.=206.533325m. Speed=0.036000m/h.</desc>
<speed>0.010000</speed>
</trkpt>
<trkpt lat="22.089584" lon="104.253693">
<ele>206.502075</ele>
<time>2011-04-27T03:18:31Z</time>
<desc>lat.=22.089584, lon.=104.253693, Alt.=206.502075m. Speed=0.000000m/h.</desc>
<speed>0.000000</speed>
</trkpt>
<trkpt lat="22.089584" lon="104.253693">
<ele>206.470825</ele>
<time>2011-04-27T03:18:36Z</time>
<desc>lat.=22.089584, lon.=104.253693, Alt.=206.470825m. Speed=0.000000m/h.</desc>
<speed>0.000000</speed>
</trkpt>
<trkpt lat="22.089584" lon="104.253693">
<ele>206.443481</ele>
<time>2011-04-27T03:18:41Z</time>
<desc>lat.=22.089584, lon.=104.253693, Alt.=206.443481m. Speed=0.072000m/h.</desc>
<speed>0.020000</speed>
</trkpt>
<trkpt lat="22.089584" lon="104.253685">
<ele>206.435669</ele>
<time>2011-04-27T03:18:46Z</time>
<desc>lat.=22.089584, lon.=104.253685, Alt.=206.435669m. Speed=0.108000m/h.</desc>
<speed>0.030000</speed>
</trkpt>
<trkpt lat="22.089584" lon="104.253685">
<ele>206.455200</ele>
<time>2011-04-27T03:18:51Z</time>
<desc>lat.=22.089584, lon.=104.253685, Alt.=206.455200m. Speed=0.072000m/h.</desc>
<speed>0.020000</speed>
</trkpt>
<trkpt lat="22.089586" lon="104.253685">
<ele>206.505981</ele>
<time>2011-04-27T03:18:56Z</time>
<desc>lat.=22.089586, lon.=104.253685, Alt.=206.505981m. Speed=0.108000m/h.</desc>
<speed>0.030000</speed>
</trkpt>
<trkpt lat="22.089586" lon="104.253685">
<ele>206.560669</ele>
<time>2011-04-27T03:19:01Z</time>
<desc>lat.=22.089586, lon.=104.253685, Alt.=206.560669m. Speed=0.036000m/h.</desc>
<speed>0.010000</speed>
</trkpt>
<trkpt lat="22.089586" lon="104.253685">
<ele>206.591919</ele>
<time>2011-04-27T03:19:06Z</time>
<desc>lat.=22.089586, lon.=104.253685, Alt.=206.591919m. Speed=0.036000m/h.</desc>
<speed>0.010000</speed>
</trkpt>
<trkpt lat="22.089586" lon="104.253685">
<ele>206.638794</ele>
<time>2011-04-27T03:19:11Z</time>
<desc>lat.=22.089586, lon.=104.253685, Alt.=206.638794m. Speed=0.108000m/h.</desc>
<speed>0.030000</speed>
</trkpt>
<trkpt lat="22.089588" lon="104.253685">
<ele>206.693481</ele>
<time>2011-04-27T03:19:16Z</time>
<desc>lat.=22.089588, lon.=104.253685, Alt.=206.693481m. Speed=0.036000m/h.</desc>
<speed>0.010000</speed>
</trkpt>
<trkpt lat="22.089588" lon="104.253685">
<ele>206.787231</ele>
<time>2011-04-27T03:19:21Z</time>
<desc>lat.=22.089588, lon.=104.253685, Alt.=206.787231m. Speed=0.108000m/h.</desc>
<speed>0.030000</speed>
</trkpt>
<trkpt lat="22.089590" lon="104.253685">
<ele>206.923950</ele>
<time>2011-04-27T03:19:26Z</time>
<desc>lat.=22.089590, lon.=104.253685, Alt.=206.923950m. Speed=0.072000m/h.</desc>
<speed>0.020000</speed>
</trkpt>
<trkpt lat="22.089592" lon="104.253685">
<ele>207.013794</ele>
<time>2011-04-27T03:19:31Z</time>
<desc>lat.=22.089592, lon.=104.253685, Alt.=207.013794m. Speed=0.000000m/h.</desc>
<speed>0.000000</speed>
</trkpt>
<trkpt lat="22.089592" lon="104.253685">
<ele>207.080200</ele>
<time>2011-04-27T03:19:36Z</time>
<desc>lat.=22.089592, lon.=104.253685, Alt.=207.080200m. Speed=0.108000m/h.</desc>
<speed>0.030000</speed>
</trkpt>
<trkpt lat="22.089594" lon="104.253685">
<ele>207.142700</ele>
<time>2011-04-27T03:19:41Z</time>
<desc>lat.=22.089594, lon.=104.253685, Alt.=207.142700m. Speed=0.108000m/h.</desc>
<speed>0.030000</speed>
</trkpt>
<trkpt lat="22.089594" lon="104.253685">
<ele>207.201294</ele>
<time>2011-04-27T03:19:46Z</time>
<desc>lat.=22.089594, lon.=104.253685, Alt.=207.201294m. Speed=0.072000m/h.</desc>
<speed>0.020000</speed>
</trkpt>
<trkpt lat="22.089596" lon="104.253685">
<ele>207.240356</ele>
<time>2011-04-27T03:19:51Z</time>
<desc>lat.=22.089596, lon.=104.253685, Alt.=207.240356m. Speed=0.072000m/h.</desc>
<speed>0.020000</speed>
</trkpt>
<trkpt lat="22.089596" lon="104.253685">
<ele>207.314575</ele>
<time>2011-04-27T03:19:56Z</time>
<desc>lat.=22.089596, lon.=104.253685, Alt.=207.314575m. Speed=0.072000m/h.</desc>
<speed>0.020000</speed>
</trkpt>
<trkpt lat="22.089598" lon="104.253685">
<ele>207.341919</ele>
<time>2011-04-27T03:20:01Z</time>
<desc>lat.=22.089598, lon.=104.253685, Alt.=207.341919m. Speed=0.108000m/h.</desc>
<speed>0.030000</speed>
</trkpt>
<trkpt lat="22.089598" lon="104.253685">
<ele>207.384888</ele>
<time>2011-04-27T03:20:06Z</time>
<desc>lat.=22.089598, lon.=104.253685, Alt.=207.384888m. Speed=0.000000m/h.</desc>
<speed>0.000000</speed>
</trkpt>
<trkpt lat="22.089598" lon="104.253685">
<ele>207.431763</ele>
<time>2011-04-27T03:20:11Z</time>
<desc>lat.=22.089598, lon.=104.253685, Alt.=207.431763m. Speed=0.000000m/h.</desc>
<speed>0.000000</speed>
</trkpt>
<trkpt lat="22.089598" lon="104.253685">
<ele>207.439575</ele>
<time>2011-04-27T03:20:16Z</time>
<desc>lat.=22.089598, lon.=104.253685, Alt.=207.439575m. Speed=0.036000m/h.</desc>
<speed>0.010000</speed>
</trkpt>
<trkpt lat="22.089600" lon="104.253685">
<ele>207.439575</ele>
<time>2011-04-27T03:20:21Z</time>
<desc>lat.=22.089600, lon.=104.253685, Alt.=207.439575m. Speed=0.036000m/h.</desc>
<speed>0.010000</speed>
</trkpt>
<trkpt lat="22.089600" lon="104.253685">
<ele>207.474731</ele>
<time>2011-04-27T03:20:26Z</time>
<desc>lat.=22.089600, lon.=104.253685, Alt.=207.474731m. Speed=0.000000m/h.</desc>
<speed>0.000000</speed>
</trkpt>
<trkpt lat="22.089600" lon="104.253685">
<ele>207.564575</ele>
<time>2011-04-27T03:20:31Z</time>
<desc>lat.=22.089600, lon.=104.253685, Alt.=207.564575m. Speed=0.036000m/h.</desc>
<speed>0.010000</speed>
</trkpt>
<trkpt lat="22.089600" lon="104.253685">
<ele>207.662231</ele>
<time>2011-04-27T03:20:36Z</time>
<desc>lat.=22.089600, lon.=104.253685, Alt.=207.662231m. Speed=0.000000m/h.</desc>
<speed>0.000000</speed>
</trkpt>
<trkpt lat="22.089600" lon="104.253685">
<ele>207.736450</ele>
<time>2011-04-27T03:20:41Z</time>
<desc>lat.=22.089600, lon.=104.253685, Alt.=207.736450m. Speed=0.000000m/h.</desc>
<speed>0.000000</speed>
</trkpt>
<trkpt lat="22.089600" lon="104.253685">
<ele>207.802856</ele>
<time>2011-04-27T03:20:46Z</time>
<desc>lat.=22.089600, lon.=104.253685, Alt.=207.802856m. Speed=0.000000m/h.</desc>
<speed>0.000000</speed>
</trkpt>
<trkpt lat="22.089600" lon="104.253685">
<ele>207.838013</ele>
<time>2011-04-27T03:20:51Z</time>
<desc>lat.=22.089600, lon.=104.253685, Alt.=207.838013m. Speed=0.036000m/h.</desc>
<speed>0.010000</speed>
</trkpt>
<trkpt lat="22.089600" lon="104.253685">
<ele>207.873169</ele>
<time>2011-04-27T03:20:56Z</time>
<desc>lat.=22.089600, lon.=104.253685, Alt.=207.873169m. Speed=0.036000m/h.</desc>
<speed>0.010000</speed>
</trkpt>
<trkpt lat="22.089600" lon="104.253685">
<ele>207.896606</ele>
<time>2011-04-27T03:21:01Z</time>
<desc>lat.=22.089600, lon.=104.253685, Alt.=207.896606m. Speed=0.000000m/h.</desc>
<speed>0.000000</speed>
</trkpt>
<trkpt lat="22.089600" lon="104.253685">
<ele>207.935669</ele>
<time>2011-04-27T03:21:06Z</time>
<desc>lat.=22.089600, lon.=104.253685, Alt.=207.935669m. Speed=0.036000m/h.</desc>
<speed>0.010000</speed>
</trkpt>
<trkpt lat="22.089600" lon="104.253685">
<ele>207.998169</ele>
<time>2011-04-27T03:21:11Z</time>
<desc>lat.=22.089600, lon.=104.253685, Alt.=207.998169m. Speed=0.000000m/h.</desc>
<speed>0.000000</speed>
</trkpt>
<trkpt lat="22.089600" lon="104.253685">
<ele>208.107544</ele>
<time>2011-04-27T03:21:16Z</time>
<desc>lat.=22.089600, lon.=104.253685, Alt.=208.107544m. Speed=0.000000m/h.</desc>
<speed>0.000000</speed>
</trkpt>
<trkpt lat="22.089602" lon="104.253685">
<ele>208.201294</ele>
<time>2011-04-27T03:21:21Z</time>
<desc>lat.=22.089602, lon.=104.253685, Alt.=208.201294m. Speed=0.180000m/h.</desc>
<speed>0.050000</speed>
</trkpt>
<trkpt lat="22.089602" lon="104.253685">
<ele>208.275513</ele>
<time>2011-04-27T03:21:26Z</time>
<desc>lat.=22.089602, lon.=104.253685, Alt.=208.275513m. Speed=0.108000m/h.</desc>
<speed>0.030000</speed>
</trkpt>
<trkpt lat="22.089602" lon="104.253685">
<ele>208.349731</ele>
<time>2011-04-27T03:21:31Z</time>
<desc>lat.=22.089602, lon.=104.253685, Alt.=208.349731m. Speed=0.072000m/h.</desc>
<speed>0.020000</speed>
</trkpt>
<trkpt lat="22.089602" lon="104.253685">
<ele>208.396606</ele>
<time>2011-04-27T03:21:36Z</time>
<desc>lat.=22.089602, lon.=104.253685, Alt.=208.396606m. Speed=0.036000m/h.</desc>
<speed>0.010000</speed>
</trkpt>
<trkpt lat="22.089603" lon="104.253677">
<ele>208.443481</ele>
<time>2011-04-27T03:21:41Z</time>
<desc>lat.=22.089603, lon.=104.253677, Alt.=208.443481m. Speed=0.036000m/h.</desc>
<speed>0.010000</speed>
</trkpt>
<trkpt lat="22.089603" lon="104.253677">
<ele>208.482544</ele>
<time>2011-04-27T03:21:46Z</time>
<desc>lat.=22.089603, lon.=104.253677, Alt.=208.482544m. Speed=0.000000m/h.</desc>
<speed>0.000000</speed>
</trkpt>
<trkpt lat="22.089603" lon="104.253677">
<ele>208.498169</ele>
<time>2011-04-27T03:21:51Z</time>
<desc>lat.=22.089603, lon.=104.253677, Alt.=208.498169m. Speed=0.000000m/h.</desc>
<speed>0.000000</speed>
</trkpt>
<trkpt lat="22.089603" lon="104.253677">
<ele>208.529419</ele>
<time>2011-04-27T03:21:56Z</time>
<desc>lat.=22.089603, lon.=104.253677, Alt.=208.529419m. Speed=0.036000m/h.</desc>
<speed>0.010000</speed>
</trkpt>
<trkpt lat="22.089603" lon="104.253677">
<ele>208.541138</ele>
<time>2011-04-27T03:22:01Z</time>
<desc>lat.=22.089603, lon.=104.253677, Alt.=208.541138m. Speed=0.072000m/h.</desc>
<speed>0.020000</speed>
</trkpt>
<trkpt lat="22.089603" lon="104.253677">
<ele>208.545044</ele>
<time>2011-04-27T03:22:06Z</time>
<desc>lat.=22.089603, lon.=104.253677, Alt.=208.545044m. Speed=0.072000m/h.</desc>
<speed>0.020000</speed>
</trkpt>
<trkpt lat="22.089605" lon="104.253677">
<ele>208.603638</ele>
<time>2011-04-27T03:22:11Z</time>
<desc>lat.=22.089605, lon.=104.253677, Alt.=208.603638m. Speed=0.108000m/h.</desc>
<speed>0.030000</speed>
</trkpt>
<trkpt lat="22.089605" lon="104.253677">
<ele>208.658325</ele>
<time>2011-04-27T03:22:16Z</time>
<desc>lat.=22.089605, lon.=104.253677, Alt.=208.658325m. Speed=0.180000m/h.</desc>
<speed>0.050000</speed>
</trkpt>
<trkpt lat="22.089607" lon="104.253677">
<ele>208.685669</ele>
<time>2011-04-27T03:22:21Z</time>
<desc>lat.=22.089607, lon.=104.253677, Alt.=208.685669m. Speed=0.072000m/h.</desc>
<speed>0.020000</speed>
</trkpt>
<trkpt lat="22.089607" lon="104.253677">
<ele>208.685669</ele>
<time>2011-04-27T03:22:26Z</time>
<desc>lat.=22.089607, lon.=104.253677, Alt.=208.685669m. Speed=0.108000m/h.</desc>
<speed>0.030000</speed>
</trkpt>
<trkpt lat="22.089607" lon="104.253677">
<ele>208.697388</ele>
<time>2011-04-27T03:22:31Z</time>
<desc>lat.=22.089607, lon.=104.253677, Alt.=208.697388m. Speed=0.000000m/h.</desc>
<speed>0.000000</speed>
</trkpt>
<trkpt lat="22.089607" lon="104.253677">
<ele>208.701294</ele>
<time>2011-04-27T03:22:36Z</time>
<desc>lat.=22.089607, lon.=104.253677, Alt.=208.701294m. Speed=0.036000m/h.</desc>
<speed>0.010000</speed>
</trkpt>
<trkpt lat="22.089609" lon="104.253677">
<ele>208.732544</ele>
<time>2011-04-27T03:22:41Z</time>
<desc>lat.=22.089609, lon.=104.253677, Alt.=208.732544m. Speed=0.000000m/h.</desc>
<speed>0.000000</speed>
</trkpt>
<trkpt lat="22.089609" lon="104.253677">
<ele>208.713013</ele>
<time>2011-04-27T03:22:46Z</time>
<desc>lat.=22.089609, lon.=104.253677, Alt.=208.713013m. Speed=0.000000m/h.</desc>
<speed>0.000000</speed>
</trkpt>
<trkpt lat="22.089609" lon="104.253677">
<ele>208.720825</ele>
<time>2011-04-27T03:22:51Z</time>
<desc>lat.=22.089609, lon.=104.253677, Alt.=208.720825m. Speed=0.036000m/h.</desc>
<speed>0.010000</speed>
</trkpt>
<trkpt lat="22.089609" lon="104.253677">
<ele>208.728638</ele>
<time>2011-04-27T03:22:56Z</time>
<desc>lat.=22.089609, lon.=104.253677, Alt.=208.728638m. Speed=0.000000m/h.</desc>
<speed>0.000000</speed>
</trkpt>
<trkpt lat="22.089609" lon="104.253677">
<ele>208.720825</ele>
<time>2011-04-27T03:23:01Z</time>
<desc>lat.=22.089609, lon.=104.253677, Alt.=208.720825m. Speed=0.000000m/h.</desc>
<speed>0.000000</speed>
</trkpt>
<trkpt lat="22.089609" lon="104.253677">
<ele>208.736450</ele>
<time>2011-04-27T03:23:06Z</time>
<desc>lat.=22.089609, lon.=104.253677, Alt.=208.736450m. Speed=0.108000m/h.</desc>
<speed>0.030000</speed>
</trkpt>
<trkpt lat="22.089609" lon="104.253677">
<ele>208.763794</ele>
<time>2011-04-27T03:23:11Z</time>
<desc>lat.=22.089609, lon.=104.253677, Alt.=208.763794m. Speed=0.000000m/h.</desc>
<speed>0.000000</speed>
</trkpt>
<trkpt lat="22.089609" lon="104.253677">
<ele>208.795044</ele>
<time>2011-04-27T03:23:16Z</time>
<desc>lat.=22.089609, lon.=104.253677, Alt.=208.795044m. Speed=0.108000m/h.</desc>
<speed>0.030000</speed>
</trkpt>
<trkpt lat="22.089611" lon="104.253677">
<ele>208.841919</ele>
<time>2011-04-27T03:23:21Z</time>
<desc>lat.=22.089611, lon.=104.253677, Alt.=208.841919m. Speed=0.036000m/h.</desc>
<speed>0.010000</speed>
</trkpt>
<trkpt lat="22.089611" lon="104.253677">
<ele>208.884888</ele>
<time>2011-04-27T03:23:26Z</time>
<desc>lat.=22.089611, lon.=104.253677, Alt.=208.884888m. Speed=0.108000m/h.</desc>
<speed>0.030000</speed>
</trkpt>
<trkpt lat="22.089611" lon="104.253677">
<ele>208.912231</ele>
<time>2011-04-27T03:23:31Z</time>
<desc>lat.=22.089611, lon.=104.253677, Alt.=208.912231m. Speed=0.036000m/h.</desc>
<speed>0.010000</speed>
</trkpt>
<trkpt lat="22.089611" lon="104.253677">
<ele>208.935669</ele>
<time>2011-04-27T03:23:36Z</time>
<desc>lat.=22.089611, lon.=104.253677, Alt.=208.935669m. Speed=0.000000m/h.</desc>
<speed>0.000000</speed>
</trkpt>
<trkpt lat="22.089611" lon="104.253677">
<ele>208.955200</ele>
<time>2011-04-27T03:23:41Z</time>
<desc>lat.=22.089611, lon.=104.253677, Alt.=208.955200m. Speed=0.036000m/h.</desc>
<speed>0.010000</speed>
</trkpt>
<trkpt lat="22.089611" lon="104.253677">
<ele>208.970825</ele>
<time>2011-04-27T03:23:46Z</time>
<desc>lat.=22.089611, lon.=104.253677, Alt.=208.970825m. Speed=0.000000m/h.</desc>
<speed>0.000000</speed>
</trkpt>
<trkpt lat="22.089611" lon="104.253677">
<ele>208.982544</ele>
<time>2011-04-27T03:23:51Z</time>
<desc>lat.=22.089611, lon.=104.253677, Alt.=208.982544m. Speed=0.000000m/h.</desc>
<speed>0.000000</speed>
</trkpt>
<trkpt lat="22.089611" lon="104.253677">
<ele>209.025513</ele>
<time>2011-04-27T03:23:56Z</time>
<desc>lat.=22.089611, lon.=104.253677, Alt.=209.025513m. Speed=0.000000m/h.</desc>
<speed>0.000000</speed>
</trkpt>
<trkpt lat="22.089613" lon="104.253670">
<ele>209.084106</ele>
<time>2011-04-27T03:24:01Z</time>
<desc>lat.=22.089613, lon.=104.253670, Alt.=209.084106m. Speed=0.144000m/h.</desc>
<speed>0.040000</speed>
</trkpt>
<trkpt lat="22.089613" lon="104.253670">
<ele>209.150513</ele>
<time>2011-04-27T03:24:06Z</time>
<desc>lat.=22.089613, lon.=104.253670, Alt.=209.150513m. Speed=0.072000m/h.</desc>
<speed>0.020000</speed>
</trkpt>
<trkpt lat="22.089615" lon="104.253670">
<ele>209.220825</ele>
<time>2011-04-27T03:24:11Z</time>
<desc>lat.=22.089615, lon.=104.253670, Alt.=209.220825m. Speed=0.108000m/h.</desc>
<speed>0.030000</speed>
</trkpt>
<trkpt lat="22.089615" lon="104.253670">
<ele>209.287231</ele>
<time>2011-04-27T03:24:16Z</time>
<desc>lat.=22.089615, lon.=104.253670, Alt.=209.287231m. Speed=0.108000m/h.</desc>
<speed>0.030000</speed>
</trkpt>
<trkpt lat="22.089615" lon="104.253670">
<ele>209.341919</ele>
<time>2011-04-27T03:24:21Z</time>
<desc>lat.=22.089615, lon.=104.253670, Alt.=209.341919m. Speed=0.108000m/h.</desc>
<speed>0.030000</speed>
</trkpt>
<trkpt lat="22.089615" lon="104.253670">
<ele>209.380981</ele>
<time>2011-04-27T03:24:26Z</time>
<desc>lat.=22.089615, lon.=104.253670, Alt.=209.380981m. Speed=0.072000m/h.</desc>
<speed>0.020000</speed>
</trkpt>
<trkpt lat="22.089615" lon="104.253670">
<ele>209.396606</ele>
<time>2011-04-27T03:24:31Z</time>
<desc>lat.=22.089615, lon.=104.253670, Alt.=209.396606m. Speed=0.036000m/h.</desc>
<speed>0.010000</speed>
</trkpt>
<trkpt lat="22.089615" lon="104.253670">
<ele>209.408325</ele>
<time>2011-04-27T03:24:36Z</time>
<desc>lat.=22.089615, lon.=104.253670, Alt.=209.408325m. Speed=0.000000m/h.</desc>
<speed>0.000000</speed>
</trkpt>
<trkpt lat="22.089615" lon="104.253670">
<ele>209.412231</ele>
<time>2011-04-27T03:24:41Z</time>
<desc>lat.=22.089615, lon.=104.253670, Alt.=209.412231m. Speed=0.000000m/h.</desc>
<speed>0.000000</speed>
</trkpt>
<trkpt lat="22.089615" lon="104.253670">
<ele>209.400513</ele>
<time>2011-04-27T03:24:46Z</time>
<desc>lat.=22.089615, lon.=104.253670, Alt.=209.400513m. Speed=0.072000m/h.</desc>
<speed>0.020000</speed>
</trkpt>
<trkpt lat="22.089617" lon="104.253670">
<ele>209.439575</ele>
<time>2011-04-27T03:24:51Z</time>
<desc>lat.=22.089617, lon.=104.253670, Alt.=209.439575m. Speed=0.036000m/h.</desc>
<speed>0.010000</speed>
</trkpt>
<trkpt lat="22.089617" lon="104.253670">
<ele>209.447388</ele>
<time>2011-04-27T03:24:56Z</time>
<desc>lat.=22.089617, lon.=104.253670, Alt.=209.447388m. Speed=0.072000m/h.</desc>
<speed>0.020000</speed>
</trkpt>
<trkpt lat="22.089617" lon="104.253670">
<ele>209.463013</ele>
<time>2011-04-27T03:25:01Z</time>
<desc>lat.=22.089617, lon.=104.253670, Alt.=209.463013m. Speed=0.180000m/h.</desc>
<speed>0.050000</speed>
</trkpt>
<trkpt lat="22.089617" lon="104.253670">
<ele>209.463013</ele>
<time>2011-04-27T03:25:06Z</time>
<desc>lat.=22.089617, lon.=104.253670, Alt.=209.463013m. Speed=0.036000m/h.</desc>
<speed>0.010000</speed>
</trkpt>
<trkpt lat="22.089617" lon="104.253670">
<ele>209.451294</ele>
<time>2011-04-27T03:25:11Z</time>
<desc>lat.=22.089617, lon.=104.253670, Alt.=209.451294m. Speed=0.072000m/h.</desc>
<speed>0.020000</speed>
</trkpt>
<trkpt lat="22.089617" lon="104.253670">
<ele>209.443481</ele>
<time>2011-04-27T03:25:16Z</time>
<desc>lat.=22.089617, lon.=104.253670, Alt.=209.443481m. Speed=0.072000m/h.</desc>
<speed>0.020000</speed>
</trkpt>
<trkpt lat="22.089617" lon="104.253670">
<ele>209.423950</ele>
<time>2011-04-27T03:25:21Z</time>
<desc>lat.=22.089617, lon.=104.253670, Alt.=209.423950m. Speed=0.036000m/h.</desc>
<speed>0.010000</speed>
</trkpt>
<trkpt lat="22.089617" lon="104.253670">
<ele>209.416138</ele>
<time>2011-04-27T03:25:26Z</time>
<desc>lat.=22.089617, lon.=104.253670, Alt.=209.416138m. Speed=0.000000m/h.</desc>
<speed>0.000000</speed>
</trkpt>
<trkpt lat="22.089617" lon="104.253670">
<ele>209.384888</ele>
<time>2011-04-27T03:25:31Z</time>
<desc>lat.=22.089617, lon.=104.253670, Alt.=209.384888m. Speed=0.036000m/h.</desc>
<speed>0.010000</speed>
</trkpt>
<trkpt lat="22.089617" lon="104.253670">
<ele>209.377075</ele>
<time>2011-04-27T03:25:36Z</time>
<desc>lat.=22.089617, lon.=104.253670, Alt.=209.377075m. Speed=0.000000m/h.</desc>
<speed>0.000000</speed>
</trkpt>
<trkpt lat="22.089617" lon="104.253670">
<ele>209.373169</ele>
<time>2011-04-27T03:25:41Z</time>
<desc>lat.=22.089617, lon.=104.253670, Alt.=209.373169m. Speed=0.036000m/h.</desc>
<speed>0.010000</speed>
</trkpt>
<trkpt lat="22.089617" lon="104.253670">
<ele>209.369263</ele>
<time>2011-04-27T03:25:46Z</time>
<desc>lat.=22.089617, lon.=104.253670, Alt.=209.369263m. Speed=0.000000m/h.</desc>
<speed>0.000000</speed>
</trkpt>
<trkpt lat="22.089617" lon="104.253670">
<ele>209.400513</ele>
<time>2011-04-27T03:25:51Z</time>
<desc>lat.=22.089617, lon.=104.253670, Alt.=209.400513m. Speed=0.072000m/h.</desc>
<speed>0.020000</speed>
</trkpt>
<trkpt lat="22.089617" lon="104.253670">
<ele>209.447388</ele>
<time>2011-04-27T03:25:56Z</time>
<desc>lat.=22.089617, lon.=104.253670, Alt.=209.447388m. Speed=0.072000m/h.</desc>
<speed>0.020000</speed>
</trkpt>
<trkpt lat="22.089619" lon="104.253670">
<ele>209.494263</ele>
<time>2011-04-27T03:26:01Z</time>
<desc>lat.=22.089619, lon.=104.253670, Alt.=209.494263m. Speed=0.072000m/h.</desc>
<speed>0.020000</speed>
</trkpt>
<trkpt lat="22.089619" lon="104.253670">
<ele>209.564575</ele>
<time>2011-04-27T03:26:06Z</time>
<desc>lat.=22.089619, lon.=104.253670, Alt.=209.564575m. Speed=0.036000m/h.</desc>
<speed>0.010000</speed>
</trkpt>
<trkpt lat="22.089619" lon="104.253670">
<ele>209.611450</ele>
<time>2011-04-27T03:26:11Z</time>
<desc>lat.=22.089619, lon.=104.253670, Alt.=209.611450m. Speed=0.036000m/h.</desc>
<speed>0.010000</speed>
</trkpt>
<trkpt lat="22.089619" lon="104.253670">
<ele>209.673950</ele>
<time>2011-04-27T03:26:16Z</time>
<desc>lat.=22.089619, lon.=104.253670, Alt.=209.673950m. Speed=0.036000m/h.</desc>
<speed>0.010000</speed>
</trkpt>
<trkpt lat="22.089619" lon="104.253670">
<ele>209.740356</ele>
<time>2011-04-27T03:26:21Z</time>
<desc>lat.=22.089619, lon.=104.253670, Alt.=209.740356m. Speed=0.072000m/h.</desc>
<speed>0.020000</speed>
</trkpt>
<trkpt lat="22.089617" lon="104.253670">
<ele>209.802856</ele>
<time>2011-04-27T03:26:26Z</time>
<desc>lat.=22.089617, lon.=104.253670, Alt.=209.802856m. Speed=0.036000m/h.</desc>
<speed>0.010000</speed>
</trkpt>
<trkpt lat="22.089617" lon="104.253670">
<ele>209.877075</ele>
<time>2011-04-27T03:26:31Z</time>
<desc>lat.=22.089617, lon.=104.253670, Alt.=209.877075m. Speed=0.000000m/h.</desc>
<speed>0.000000</speed>
</trkpt>
<trkpt lat="22.089617" lon="104.253670">
<ele>209.931763</ele>
<time>2011-04-27T03:26:36Z</time>
<desc>lat.=22.089617, lon.=104.253670, Alt.=209.931763m. Speed=0.072000m/h.</desc>
<speed>0.020000</speed>
</trkpt>
<trkpt lat="22.089617" lon="104.253670">
<ele>209.978638</ele>
<time>2011-04-27T03:26:41Z</time>
<desc>lat.=22.089617, lon.=104.253670, Alt.=209.978638m. Speed=0.036000m/h.</desc>
<speed>0.010000</speed>
</trkpt>
<trkpt lat="22.089617" lon="104.253670">
<ele>210.021606</ele>
<time>2011-04-27T03:26:46Z</time>
<desc>lat.=22.089617, lon.=104.253670, Alt.=210.021606m. Speed=0.000000m/h.</desc>
<speed>0.000000</speed>
</trkpt>
<trkpt lat="22.089617" lon="104.253670">
<ele>210.052856</ele>
<time>2011-04-27T03:26:51Z</time>
<desc>lat.=22.089617, lon.=104.253670, Alt.=210.052856m. Speed=0.036000m/h.</desc>
<speed>0.010000</speed>
</trkpt>
<trkpt lat="22.089619" lon="104.253670">
<ele>210.060669</ele>
<time>2011-04-27T03:26:56Z</time>
<desc>lat.=22.089619, lon.=104.253670, Alt.=210.060669m. Speed=0.000000m/h.</desc>
<speed>0.000000</speed>
</trkpt>
<trkpt lat="22.089619" lon="104.253670">
<ele>210.072388</ele>
<time>2011-04-27T03:27:01Z</time>
<desc>lat.=22.089619, lon.=104.253670, Alt.=210.072388m. Speed=0.000000m/h.</desc>
<speed>0.000000</speed>
</trkpt>
<trkpt lat="22.089619" lon="104.253670">
<ele>210.084106</ele>
<time>2011-04-27T03:27:06Z</time>
<desc>lat.=22.089619, lon.=104.253670, Alt.=210.084106m. Speed=0.072000m/h.</desc>
<speed>0.020000</speed>
</trkpt>
<trkpt lat="22.089619" lon="104.253670">
<ele>210.115356</ele>
<time>2011-04-27T03:27:11Z</time>
<desc>lat.=22.089619, lon.=104.253670, Alt.=210.115356m. Speed=0.000000m/h.</desc>
<speed>0.000000</speed>
</trkpt>
<trkpt lat="22.089619" lon="104.253670">
<ele>210.146606</ele>
<time>2011-04-27T03:27:16Z</time>
<desc>lat.=22.089619, lon.=104.253670, Alt.=210.146606m. Speed=0.000000m/h.</desc>
<speed>0.000000</speed>
</trkpt>
<trkpt lat="22.089619" lon="104.253670">
<ele>210.173950</ele>
<time>2011-04-27T03:27:21Z</time>
<desc>lat.=22.089619, lon.=104.253670, Alt.=210.173950m. Speed=0.000000m/h.</desc>
<speed>0.000000</speed>
</trkpt>
<trkpt lat="22.089619" lon="104.253670">
<ele>210.181763</ele>
<time>2011-04-27T03:27:26Z</time>
<desc>lat.=22.089619, lon.=104.253670, Alt.=210.181763m. Speed=0.036000m/h.</desc>
<speed>0.010000</speed>
</trkpt>
<trkpt lat="22.089619" lon="104.253670">
<ele>210.193481</ele>
<time>2011-04-27T03:27:31Z</time>
<desc>lat.=22.089619, lon.=104.253670, Alt.=210.193481m. Speed=0.000000m/h.</desc>
<speed>0.000000</speed>
</trkpt>
<trkpt lat="22.089619" lon="104.253670">
<ele>210.201294</ele>
<time>2011-04-27T03:27:36Z</time>
<desc>lat.=22.089619, lon.=104.253670, Alt.=210.201294m. Speed=0.036000m/h.</desc>
<speed>0.010000</speed>
</trkpt>
<trkpt lat="22.089619" lon="104.253670">
<ele>210.205200</ele>
<time>2011-04-27T03:27:41Z</time>
<desc>lat.=22.089619, lon.=104.253670, Alt.=210.205200m. Speed=0.000000m/h.</desc>
<speed>0.000000</speed>
</trkpt>
<trkpt lat="22.089619" lon="104.253670">
<ele>210.181763</ele>
<time>2011-04-27T03:27:46Z</time>
<desc>lat.=22.089619, lon.=104.253670, Alt.=210.181763m. Speed=0.036000m/h.</desc>
<speed>0.010000</speed>
</trkpt>
<trkpt lat="22.089621" lon="104.253670">
<ele>210.177856</ele>
<time>2011-04-27T03:27:51Z</time>
<desc>lat.=22.089621, lon.=104.253670, Alt.=210.177856m. Speed=0.036000m/h.</desc>
<speed>0.010000</speed>
</trkpt>
<trkpt lat="22.089621" lon="104.253670">
<ele>210.177856</ele>
<time>2011-04-27T03:27:56Z</time>
<desc>lat.=22.089621, lon.=104.253670, Alt.=210.177856m. Speed=0.000000m/h.</desc>
<speed>0.000000</speed>
</trkpt>
<trkpt lat="22.089619" lon="104.253670">
<ele>210.166138</ele>
<time>2011-04-27T03:28:01Z</time>
<desc>lat.=22.089619, lon.=104.253670, Alt.=210.166138m. Speed=0.036000m/h.</desc>
<speed>0.010000</speed>
</trkpt>
<trkpt lat="22.089619" lon="104.253670">
<ele>210.158325</ele>
<time>2011-04-27T03:28:06Z</time>
<desc>lat.=22.089619, lon.=104.253670, Alt.=210.158325m. Speed=0.108000m/h.</desc>
<speed>0.030000</speed>
</trkpt>
<trkpt lat="22.089619" lon="104.253670">
<ele>210.158325</ele>
<time>2011-04-27T03:28:11Z</time>
<desc>lat.=22.089619, lon.=104.253670, Alt.=210.158325m. Speed=0.072000m/h.</desc>
<speed>0.020000</speed>
</trkpt>
<trkpt lat="22.089619" lon="104.253670">
<ele>210.185669</ele>
<time>2011-04-27T03:28:16Z</time>
<desc>lat.=22.089619, lon.=104.253670, Alt.=210.185669m. Speed=0.144000m/h.</desc>
<speed>0.040000</speed>
</trkpt>
<trkpt lat="22.089617" lon="104.253670">
<ele>210.170044</ele>
<time>2011-04-27T03:28:21Z</time>
<desc>lat.=22.089617, lon.=104.253670, Alt.=210.170044m. Speed=0.072000m/h.</desc>
<speed>0.020000</speed>
</trkpt>
<trkpt lat="22.089617" lon="104.253670">
<ele>210.162231</ele>
<time>2011-04-27T03:28:26Z</time>
<desc>lat.=22.089617, lon.=104.253670, Alt.=210.162231m. Speed=0.036000m/h.</desc>
<speed>0.010000</speed>
</trkpt>
<trkpt lat="22.089619" lon="104.253670">
<ele>210.146606</ele>
<time>2011-04-27T03:28:31Z</time>
<desc>lat.=22.089619, lon.=104.253670, Alt.=210.146606m. Speed=0.000000m/h.</desc>
<speed>0.000000</speed>
</trkpt>
<trkpt lat="22.089617" lon="104.253670">
<ele>210.146606</ele>
<time>2011-04-27T03:28:36Z</time>
<desc>lat.=22.089617, lon.=104.253670, Alt.=210.146606m. Speed=0.000000m/h.</desc>
<speed>0.000000</speed>
</trkpt>
<trkpt lat="22.089619" lon="104.253670">
<ele>210.166138</ele>
<time>2011-04-27T03:28:41Z</time>
<desc>lat.=22.089619, lon.=104.253670, Alt.=210.166138m. Speed=0.036000m/h.</desc>
<speed>0.010000</speed>
</trkpt>
<trkpt lat="22.089619" lon="104.253670">
<ele>210.193481</ele>
<time>2011-04-27T03:28:46Z</time>
<desc>lat.=22.089619, lon.=104.253670, Alt.=210.193481m. Speed=0.036000m/h.</desc>
<speed>0.010000</speed>
</trkpt>
<trkpt lat="22.089619" lon="104.253670">
<ele>210.213013</ele>
<time>2011-04-27T03:28:51Z</time>
<desc>lat.=22.089619, lon.=104.253670, Alt.=210.213013m. Speed=0.072000m/h.</desc>
<speed>0.020000</speed>
</trkpt>
<trkpt lat="22.089619" lon="104.253670">
<ele>210.244263</ele>
<time>2011-04-27T03:28:56Z</time>
<desc>lat.=22.089619, lon.=104.253670, Alt.=210.244263m. Speed=0.000000m/h.</desc>
<speed>0.000000</speed>
</trkpt>
<trkpt lat="22.089619" lon="104.253670">
<ele>210.275513</ele>
<time>2011-04-27T03:29:01Z</time>
<desc>lat.=22.089619, lon.=104.253670, Alt.=210.275513m. Speed=0.072000m/h.</desc>
<speed>0.020000</speed>
</trkpt>
<trkpt lat="22.089619" lon="104.253670">
<ele>210.298950</ele>
<time>2011-04-27T03:29:06Z</time>
<desc>lat.=22.089619, lon.=104.253670, Alt.=210.298950m. Speed=0.036000m/h.</desc>
<speed>0.010000</speed>
</trkpt>
<trkpt lat="22.089619" lon="104.253670">
<ele>210.302856</ele>
<time>2011-04-27T03:29:11Z</time>
<desc>lat.=22.089619, lon.=104.253670, Alt.=210.302856m. Speed=0.000000m/h.</desc>
<speed>0.000000</speed>
</trkpt>
<trkpt lat="22.089619" lon="104.253670">
<ele>210.326294</ele>
<time>2011-04-27T03:29:16Z</time>
<desc>lat.=22.089619, lon.=104.253670, Alt.=210.326294m. Speed=0.036000m/h.</desc>
<speed>0.010000</speed>
</trkpt>
<trkpt lat="22.089619" lon="104.253670">
<ele>210.361450</ele>
<time>2011-04-27T03:29:21Z</time>
<desc>lat.=22.089619, lon.=104.253670, Alt.=210.361450m. Speed=0.036000m/h.</desc>
<speed>0.010000</speed>
</trkpt>
<trkpt lat="22.089619" lon="104.253670">
<ele>210.408325</ele>
<time>2011-04-27T03:29:26Z</time>
<desc>lat.=22.089619, lon.=104.253670, Alt.=210.408325m. Speed=0.000000m/h.</desc>
<speed>0.000000</speed>
</trkpt>
<trkpt lat="22.089619" lon="104.253677">
<ele>210.427856</ele>
<time>2011-04-27T03:29:31Z</time>
<desc>lat.=22.089619, lon.=104.253677, Alt.=210.427856m. Speed=0.108000m/h.</desc>
<speed>0.030000</speed>
</trkpt>
<trkpt lat="22.089619" lon="104.253677">
<ele>210.431763</ele>
<time>2011-04-27T03:29:36Z</time>
<desc>lat.=22.089619, lon.=104.253677, Alt.=210.431763m. Speed=0.072000m/h.</desc>
<speed>0.020000</speed>
</trkpt>
<trkpt lat="22.089619" lon="104.253677">
<ele>210.408325</ele>
<time>2011-04-27T03:29:41Z</time>
<desc>lat.=22.089619, lon.=104.253677, Alt.=210.408325m. Speed=0.036000m/h.</desc>
<speed>0.010000</speed>
</trkpt>
<trkpt lat="22.089619" lon="104.253677">
<ele>210.412231</ele>
<time>2011-04-27T03:29:46Z</time>
<desc>lat.=22.089619, lon.=104.253677, Alt.=210.412231m. Speed=0.000000m/h.</desc>
<speed>0.000000</speed>
</trkpt>
<trkpt lat="22.089619" lon="104.253677">
<ele>210.423950</ele>
<time>2011-04-27T03:29:51Z</time>
<desc>lat.=22.089619, lon.=104.253677, Alt.=210.423950m. Speed=0.000000m/h.</desc>
<speed>0.000000</speed>
</trkpt>
<trkpt lat="22.089619" lon="104.253677">
<ele>210.451294</ele>
<time>2011-04-27T03:29:56Z</time>
<desc>lat.=22.089619, lon.=104.253677, Alt.=210.451294m. Speed=0.036000m/h.</desc>
<speed>0.010000</speed>
</trkpt>
<trkpt lat="22.089619" lon="104.253677">
<ele>210.498169</ele>
<time>2011-04-27T03:30:01Z</time>
<desc>lat.=22.089619, lon.=104.253677, Alt.=210.498169m. Speed=0.000000m/h.</desc>
<speed>0.000000</speed>
</trkpt>
<trkpt lat="22.089619" lon="104.253677">
<ele>210.552856</ele>
<time>2011-04-27T03:30:06Z</time>
<desc>lat.=22.089619, lon.=104.253677, Alt.=210.552856m. Speed=0.000000m/h.</desc>
<speed>0.000000</speed>
</trkpt>
<trkpt lat="22.089619" lon="104.253677">
<ele>210.623169</ele>
<time>2011-04-27T03:30:11Z</time>
<desc>lat.=22.089619, lon.=104.253677, Alt.=210.623169m. Speed=0.000000m/h.</desc>
<speed>0.000000</speed>
</trkpt>
<trkpt lat="22.089621" lon="104.253677">
<ele>210.681763</ele>
<time>2011-04-27T03:30:16Z</time>
<desc>lat.=22.089621, lon.=104.253677, Alt.=210.681763m. Speed=0.000000m/h.</desc>
<speed>0.000000</speed>
</trkpt>
<trkpt lat="22.089621" lon="104.253677">
<ele>210.724731</ele>
<time>2011-04-27T03:30:21Z</time>
<desc>lat.=22.089621, lon.=104.253677, Alt.=210.724731m. Speed=0.036000m/h.</desc>
<speed>0.010000</speed>
</trkpt>
<trkpt lat="22.089621" lon="104.253677">
<ele>210.771606</ele>
<time>2011-04-27T03:30:26Z</time>
<desc>lat.=22.089621, lon.=104.253677, Alt.=210.771606m. Speed=0.072000m/h.</desc>
<speed>0.020000</speed>
</trkpt>
<trkpt lat="22.089621" lon="104.253677">
<ele>210.814575</ele>
<time>2011-04-27T03:30:31Z</time>
<desc>lat.=22.089621, lon.=104.253677, Alt.=210.814575m. Speed=0.036000m/h.</desc>
<speed>0.010000</speed>
</trkpt>
<trkpt lat="22.089621" lon="104.253677">
<ele>210.857544</ele>
<time>2011-04-27T03:30:36Z</time>
<desc>lat.=22.089621, lon.=104.253677, Alt.=210.857544m. Speed=0.000000m/h.</desc>
<speed>0.000000</speed>
</trkpt>
<trkpt lat="22.089621" lon="104.253677">
<ele>210.857544</ele>
<time>2011-04-27T03:30:41Z</time>
<desc>lat.=22.089621, lon.=104.253677, Alt.=210.857544m. Speed=0.000000m/h.</desc>
<speed>0.000000</speed>
</trkpt>
<trkpt lat="22.089621" lon="104.253677">
<ele>210.853638</ele>
<time>2011-04-27T03:30:46Z</time>
<desc>lat.=22.089621, lon.=104.253677, Alt.=210.853638m. Speed=0.000000m/h.</desc>
<speed>0.000000</speed>
</trkpt>
<trkpt lat="22.089622" lon="104.253677">
<ele>210.849731</ele>
<time>2011-04-27T03:30:51Z</time>
<desc>lat.=22.089622, lon.=104.253677, Alt.=210.849731m. Speed=0.000000m/h.</desc>
<speed>0.000000</speed>
</trkpt>
<trkpt lat="22.089622" lon="104.253677">
<ele>210.865356</ele>
<time>2011-04-27T03:30:56Z</time>
<desc>lat.=22.089622, lon.=104.253677, Alt.=210.865356m. Speed=0.000000m/h.</desc>
<speed>0.000000</speed>
</trkpt>
<trkpt lat="22.089622" lon="104.253677">
<ele>210.873169</ele>
<time>2011-04-27T03:31:01Z</time>
<desc>lat.=22.089622, lon.=104.253677, Alt.=210.873169m. Speed=0.036000m/h.</desc>
<speed>0.010000</speed>
</trkpt>
<trkpt lat="22.089622" lon="104.253677">
<ele>210.853638</ele>
<time>2011-04-27T03:31:06Z</time>
<desc>lat.=22.089622, lon.=104.253677, Alt.=210.853638m. Speed=0.036000m/h.</desc>
<speed>0.010000</speed>
</trkpt>
<trkpt lat="22.089622" lon="104.253677">
<ele>210.857544</ele>
<time>2011-04-27T03:31:11Z</time>
<desc>lat.=22.089622, lon.=104.253677, Alt.=210.857544m. Speed=0.036000m/h.</desc>
<speed>0.010000</speed>
</trkpt>
<trkpt lat="22.089622" lon="104.253677">
<ele>210.896606</ele>
<time>2011-04-27T03:31:16Z</time>
<desc>lat.=22.089622, lon.=104.253677, Alt.=210.896606m. Speed=0.000000m/h.</desc>
<speed>0.000000</speed>
</trkpt>
<trkpt lat="22.089622" lon="104.253677">
<ele>210.920044</ele>
<time>2011-04-27T03:31:21Z</time>
<desc>lat.=22.089622, lon.=104.253677, Alt.=210.920044m. Speed=0.000000m/h.</desc>
<speed>0.000000</speed>
</trkpt>
<trkpt lat="22.089622" lon="104.253677">
<ele>210.959106</ele>
<time>2011-04-27T03:31:26Z</time>
<desc>lat.=22.089622, lon.=104.253677, Alt.=210.959106m. Speed=0.036000m/h.</desc>
<speed>0.010000</speed>
</trkpt>
<trkpt lat="22.089622" lon="104.253677">
<ele>210.951294</ele>
<time>2011-04-27T03:31:31Z</time>
<desc>lat.=22.089622, lon.=104.253677, Alt.=210.951294m. Speed=0.000000m/h.</desc>
<speed>0.000000</speed>
</trkpt>
<trkpt lat="22.089622" lon="104.253677">
<ele>210.966919</ele>
<time>2011-04-27T03:31:36Z</time>
<desc>lat.=22.089622, lon.=104.253677, Alt.=210.966919m. Speed=0.000000m/h.</desc>
<speed>0.000000</speed>
</trkpt>
<trkpt lat="22.089622" lon="104.253677">
<ele>211.009888</ele>
<time>2011-04-27T03:31:41Z</time>
<desc>lat.=22.089622, lon.=104.253677, Alt.=211.009888m. Speed=0.036000m/h.</desc>
<speed>0.010000</speed>
</trkpt>
<trkpt lat="22.089622" lon="104.253677">
<ele>211.029419</ele>
<time>2011-04-27T03:31:46Z</time>
<desc>lat.=22.089622, lon.=104.253677, Alt.=211.029419m. Speed=0.036000m/h.</desc>
<speed>0.010000</speed>
</trkpt>
<trkpt lat="22.089624" lon="104.253677">
<ele>211.041138</ele>
<time>2011-04-27T03:31:51Z</time>
<desc>lat.=22.089624, lon.=104.253677, Alt.=211.041138m. Speed=0.000000m/h.</desc>
<speed>0.000000</speed>
</trkpt>
<trkpt lat="22.089624" lon="104.253677">
<ele>211.064575</ele>
<time>2011-04-27T03:31:56Z</time>
<desc>lat.=22.089624, lon.=104.253677, Alt.=211.064575m. Speed=0.036000m/h.</desc>
<speed>0.010000</speed>
</trkpt>
<trkpt lat="22.089624" lon="104.253677">
<ele>211.095825</ele>
<time>2011-04-27T03:32:01Z</time>
<desc>lat.=22.089624, lon.=104.253677, Alt.=211.095825m. Speed=0.000000m/h.</desc>
<speed>0.000000</speed>
</trkpt>
<trkpt lat="22.089624" lon="104.253677">
<ele>211.130981</ele>
<time>2011-04-27T03:32:06Z</time>
<desc>lat.=22.089624, lon.=104.253677, Alt.=211.130981m. Speed=0.036000m/h.</desc>
<speed>0.010000</speed>
</trkpt>
<trkpt lat="22.089624" lon="104.253677">
<ele>211.115356</ele>
<time>2011-04-27T03:32:11Z</time>
<desc>lat.=22.089624, lon.=104.253677, Alt.=211.115356m. Speed=0.000000m/h.</desc>
<speed>0.000000</speed>
</trkpt>
<trkpt lat="22.089624" lon="104.253677">
<ele>211.123169</ele>
<time>2011-04-27T03:32:16Z</time>
<desc>lat.=22.089624, lon.=104.253677, Alt.=211.123169m. Speed=0.036000m/h.</desc>
<speed>0.010000</speed>
</trkpt>
<trkpt lat="22.089626" lon="104.253677">
<ele>211.158325</ele>
<time>2011-04-27T03:32:21Z</time>
<desc>lat.=22.089626, lon.=104.253677, Alt.=211.158325m. Speed=0.036000m/h.</desc>
<speed>0.010000</speed>
</trkpt>
<trkpt lat="22.089626" lon="104.253677">
<ele>211.213013</ele>
<time>2011-04-27T03:32:26Z</time>
<desc>lat.=22.089626, lon.=104.253677, Alt.=211.213013m. Speed=0.036000m/h.</desc>
<speed>0.010000</speed>
</trkpt>
<trkpt lat="22.089626" lon="104.253677">
<ele>211.209106</ele>
<time>2011-04-27T03:32:31Z</time>
<desc>lat.=22.089626, lon.=104.253677, Alt.=211.209106m. Speed=0.036000m/h.</desc>
<speed>0.010000</speed>
</trkpt>
<trkpt lat="22.089626" lon="104.253677">
<ele>211.193481</ele>
<time>2011-04-27T03:32:36Z</time>
<desc>lat.=22.089626, lon.=104.253677, Alt.=211.193481m. Speed=0.000000m/h.</desc>
<speed>0.000000</speed>
</trkpt>
<trkpt lat="22.089626" lon="104.253677">
<ele>211.173950</ele>
<time>2011-04-27T03:32:41Z</time>
<desc>lat.=22.089626, lon.=104.253677, Alt.=211.173950m. Speed=0.036000m/h.</desc>
<speed>0.010000</speed>
</trkpt>
<trkpt lat="22.089626" lon="104.253677">
<ele>211.189575</ele>
<time>2011-04-27T03:32:46Z</time>
<desc>lat.=22.089626, lon.=104.253677, Alt.=211.189575m. Speed=0.036000m/h.</desc>
<speed>0.010000</speed>
</trkpt>
<trkpt lat="22.089626" lon="104.253677">
<ele>211.205200</ele>
<time>2011-04-27T03:32:51Z</time>
<desc>lat.=22.089626, lon.=104.253677, Alt.=211.205200m. Speed=0.036000m/h.</desc>
<speed>0.010000</speed>
</trkpt>
<trkpt lat="22.089626" lon="104.253677">
<ele>211.197388</ele>
<time>2011-04-27T03:32:56Z</time>
<desc>lat.=22.089626, lon.=104.253677, Alt.=211.197388m. Speed=0.036000m/h.</desc>
<speed>0.010000</speed>
</trkpt>
<trkpt lat="22.089626" lon="104.253677">
<ele>211.209106</ele>
<time>2011-04-27T03:33:01Z</time>
<desc>lat.=22.089626, lon.=104.253677, Alt.=211.209106m. Speed=0.036000m/h.</desc>
<speed>0.010000</speed>
</trkpt>
<trkpt lat="22.089628" lon="104.253677">
<ele>211.255981</ele>
<time>2011-04-27T03:33:06Z</time>
<desc>lat.=22.089628, lon.=104.253677, Alt.=211.255981m. Speed=0.036000m/h.</desc>
<speed>0.010000</speed>
</trkpt>
<trkpt lat="22.089628" lon="104.253677">
<ele>211.263794</ele>
<time>2011-04-27T03:33:11Z</time>
<desc>lat.=22.089628, lon.=104.253677, Alt.=211.263794m. Speed=0.036000m/h.</desc>
<speed>0.010000</speed>
</trkpt>
<trkpt lat="22.089628" lon="104.253677">
<ele>211.248169</ele>
<time>2011-04-27T03:33:16Z</time>
<desc>lat.=22.089628, lon.=104.253677, Alt.=211.248169m. Speed=0.036000m/h.</desc>
<speed>0.010000</speed>
</trkpt>
<trkpt lat="22.089628" lon="104.253677">
<ele>211.189575</ele>
<time>2011-04-27T03:33:21Z</time>
<desc>lat.=22.089628, lon.=104.253677, Alt.=211.189575m. Speed=0.036000m/h.</desc>
<speed>0.010000</speed>
</trkpt>
<trkpt lat="22.089628" lon="104.253677">
<ele>211.158325</ele>
<time>2011-04-27T03:33:26Z</time>
<desc>lat.=22.089628, lon.=104.253677, Alt.=211.158325m. Speed=0.036000m/h.</desc>
<speed>0.010000</speed>
</trkpt>
<trkpt lat="22.089628" lon="104.253677">
<ele>211.146606</ele>
<time>2011-04-27T03:33:31Z</time>
<desc>lat.=22.089628, lon.=104.253677, Alt.=211.146606m. Speed=0.036000m/h.</desc>
<speed>0.010000</speed>
</trkpt>
<trkpt lat="22.089628" lon="104.253677">
<ele>211.111450</ele>
<time>2011-04-27T03:33:36Z</time>
<desc>lat.=22.089628, lon.=104.253677, Alt.=211.111450m. Speed=0.000000m/h.</desc>
<speed>0.000000</speed>
</trkpt>
<trkpt lat="22.089628" lon="104.253677">
<ele>211.080200</ele>
<time>2011-04-27T03:33:41Z</time>
<desc>lat.=22.089628, lon.=104.253677, Alt.=211.080200m. Speed=0.072000m/h.</desc>
<speed>0.020000</speed>
</trkpt>
<trkpt lat="22.089630" lon="104.253677">
<ele>211.041138</ele>
<time>2011-04-27T03:33:46Z</time>
<desc>lat.=22.089630, lon.=104.253677, Alt.=211.041138m. Speed=0.036000m/h.</desc>
<speed>0.010000</speed>
</trkpt>
<trkpt lat="22.089630" lon="104.253677">
<ele>211.025513</ele>
<time>2011-04-27T03:33:51Z</time>
<desc>lat.=22.089630, lon.=104.253677, Alt.=211.025513m. Speed=0.000000m/h.</desc>
<speed>0.000000</speed>
</trkpt>
<trkpt lat="22.089630" lon="104.253677">
<ele>211.029419</ele>
<time>2011-04-27T03:33:56Z</time>
<desc>lat.=22.089630, lon.=104.253677, Alt.=211.029419m. Speed=0.036000m/h.</desc>
<speed>0.010000</speed>
</trkpt>
<trkpt lat="22.089630" lon="104.253677">
<ele>210.978638</ele>
<time>2011-04-27T03:34:01Z</time>
<desc>lat.=22.089630, lon.=104.253677, Alt.=210.978638m. Speed=0.000000m/h.</desc>
<speed>0.000000</speed>
</trkpt>
<trkpt lat="22.089630" lon="104.253677">
<ele>210.920044</ele>
<time>2011-04-27T03:34:06Z</time>
<desc>lat.=22.089630, lon.=104.253677, Alt.=210.920044m. Speed=0.036000m/h.</desc>
<speed>0.010000</speed>
</trkpt>
<trkpt lat="22.089630" lon="104.253677">
<ele>210.896606</ele>
<time>2011-04-27T03:34:11Z</time>
<desc>lat.=22.089630, lon.=104.253677, Alt.=210.896606m. Speed=0.036000m/h.</desc>
<speed>0.010000</speed>
</trkpt>
<trkpt lat="22.089630" lon="104.253677">
<ele>210.896606</ele>
<time>2011-04-27T03:34:16Z</time>
<desc>lat.=22.089630, lon.=104.253677, Alt.=210.896606m. Speed=0.072000m/h.</desc>
<speed>0.020000</speed>
</trkpt>
<trkpt lat="22.089630" lon="104.253677">
<ele>210.896606</ele>
<time>2011-04-27T03:34:21Z</time>
<desc>lat.=22.089630, lon.=104.253677, Alt.=210.896606m. Speed=0.144000m/h.</desc>
<speed>0.040000</speed>
</trkpt>
<trkpt lat="22.089630" lon="104.253677">
<ele>210.865356</ele>
<time>2011-04-27T03:34:26Z</time>
<desc>lat.=22.089630, lon.=104.253677, Alt.=210.865356m. Speed=0.000000m/h.</desc>
<speed>0.000000</speed>
</trkpt>
<trkpt lat="22.089630" lon="104.253677">
<ele>210.814575</ele>
<time>2011-04-27T03:34:31Z</time>
<desc>lat.=22.089630, lon.=104.253677, Alt.=210.814575m. Speed=0.036000m/h.</desc>
<speed>0.010000</speed>
</trkpt>
<trkpt lat="22.089630" lon="104.253677">
<ele>210.810669</ele>
<time>2011-04-27T03:34:36Z</time>
<desc>lat.=22.089630, lon.=104.253677, Alt.=210.810669m. Speed=0.036000m/h.</desc>
<speed>0.010000</speed>
</trkpt>
<trkpt lat="22.089630" lon="104.253677">
<ele>210.818481</ele>
<time>2011-04-27T03:34:41Z</time>
<desc>lat.=22.089630, lon.=104.253677, Alt.=210.818481m. Speed=0.036000m/h.</desc>
<speed>0.010000</speed>
</trkpt>
<trkpt lat="22.089630" lon="104.253677">
<ele>210.787231</ele>
<time>2011-04-27T03:34:46Z</time>
<desc>lat.=22.089630, lon.=104.253677, Alt.=210.787231m. Speed=0.072000m/h.</desc>
<speed>0.020000</speed>
</trkpt>
<trkpt lat="22.089630" lon="104.253677">
<ele>210.724731</ele>
<time>2011-04-27T03:34:51Z</time>
<desc>lat.=22.089630, lon.=104.253677, Alt.=210.724731m. Speed=0.036000m/h.</desc>
<speed>0.010000</speed>
</trkpt>
<trkpt lat="22.089630" lon="104.253677">
<ele>210.677856</ele>
<time>2011-04-27T03:34:56Z</time>
<desc>lat.=22.089630, lon.=104.253677, Alt.=210.677856m. Speed=0.000000m/h.</desc>
<speed>0.000000</speed>
</trkpt>
<trkpt lat="22.089630" lon="104.253677">
<ele>210.654419</ele>
<time>2011-04-27T03:35:01Z</time>
<desc>lat.=22.089630, lon.=104.253677, Alt.=210.654419m. Speed=0.000000m/h.</desc>
<speed>0.000000</speed>
</trkpt>
<trkpt lat="22.089630" lon="104.253677">
<ele>210.642700</ele>
<time>2011-04-27T03:35:06Z</time>
<desc>lat.=22.089630, lon.=104.253677, Alt.=210.642700m. Speed=0.000000m/h.</desc>
<speed>0.000000</speed>
</trkpt>
<trkpt lat="22.089630" lon="104.253677">
<ele>210.611450</ele>
<time>2011-04-27T03:35:11Z</time>
<desc>lat.=22.089630, lon.=104.253677, Alt.=210.611450m. Speed=0.036000m/h.</desc>
<speed>0.010000</speed>
</trkpt>
<trkpt lat="22.089630" lon="104.253677">
<ele>210.603638</ele>
<time>2011-04-27T03:35:16Z</time>
<desc>lat.=22.089630, lon.=104.253677, Alt.=210.603638m. Speed=0.036000m/h.</desc>
<speed>0.010000</speed>
</trkpt>
<trkpt lat="22.089630" lon="104.253677">
<ele>210.619263</ele>
<time>2011-04-27T03:35:21Z</time>
<desc>lat.=22.089630, lon.=104.253677, Alt.=210.619263m. Speed=0.036000m/h.</desc>
<speed>0.010000</speed>
</trkpt>
<trkpt lat="22.089630" lon="104.253677">
<ele>210.650513</ele>
<time>2011-04-27T03:35:26Z</time>
<desc>lat.=22.089630, lon.=104.253677, Alt.=210.650513m. Speed=0.000000m/h.</desc>
<speed>0.000000</speed>
</trkpt>
<trkpt lat="22.089630" lon="104.253677">
<ele>210.646606</ele>
<time>2011-04-27T03:35:31Z</time>
<desc>lat.=22.089630, lon.=104.253677, Alt.=210.646606m. Speed=0.036000m/h.</desc>
<speed>0.010000</speed>
</trkpt>
<trkpt lat="22.089630" lon="104.253677">
<ele>210.630981</ele>
<time>2011-04-27T03:35:36Z</time>
<desc>lat.=22.089630, lon.=104.253677, Alt.=210.630981m. Speed=0.036000m/h.</desc>
<speed>0.010000</speed>
</trkpt>
<trkpt lat="22.089630" lon="104.253677">
<ele>210.662231</ele>
<time>2011-04-27T03:35:41Z</time>
<desc>lat.=22.089630, lon.=104.253677, Alt.=210.662231m. Speed=0.000000m/h.</desc>
<speed>0.000000</speed>
</trkpt>
<trkpt lat="22.089630" lon="104.253677">
<ele>210.705200</ele>
<time>2011-04-27T03:35:46Z</time>
<desc>lat.=22.089630, lon.=104.253677, Alt.=210.705200m. Speed=0.036000m/h.</desc>
<speed>0.010000</speed>
</trkpt>
<trkpt lat="22.089630" lon="104.253677">
<ele>210.724731</ele>
<time>2011-04-27T03:35:51Z</time>
<desc>lat.=22.089630, lon.=104.253677, Alt.=210.724731m. Speed=0.000000m/h.</desc>
<speed>0.000000</speed>
</trkpt>
<trkpt lat="22.089632" lon="104.253677">
<ele>210.732544</ele>
<time>2011-04-27T03:35:56Z</time>
<desc>lat.=22.089632, lon.=104.253677, Alt.=210.732544m. Speed=0.036000m/h.</desc>
<speed>0.010000</speed>
</trkpt>
<trkpt lat="22.089632" lon="104.253677">
<ele>210.748169</ele>
<time>2011-04-27T03:36:01Z</time>
<desc>lat.=22.089632, lon.=104.253677, Alt.=210.748169m. Speed=0.036000m/h.</desc>
<speed>0.010000</speed>
</trkpt>
<trkpt lat="22.089632" lon="104.253677">
<ele>210.775513</ele>
<time>2011-04-27T03:36:06Z</time>
<desc>lat.=22.089632, lon.=104.253677, Alt.=210.775513m. Speed=0.036000m/h.</desc>
<speed>0.010000</speed>
</trkpt>
<trkpt lat="22.089632" lon="104.253677">
<ele>210.791138</ele>
<time>2011-04-27T03:36:11Z</time>
<desc>lat.=22.089632, lon.=104.253677, Alt.=210.791138m. Speed=0.144000m/h.</desc>
<speed>0.040000</speed>
</trkpt>
<trkpt lat="22.089634" lon="104.253677">
<ele>210.752075</ele>
<time>2011-04-27T03:36:16Z</time>
<desc>lat.=22.089634, lon.=104.253677, Alt.=210.752075m. Speed=0.072000m/h.</desc>
<speed>0.020000</speed>
</trkpt>
<trkpt lat="22.089634" lon="104.253677">
<ele>210.689575</ele>
<time>2011-04-27T03:36:21Z</time>
<desc>lat.=22.089634, lon.=104.253677, Alt.=210.689575m. Speed=0.036000m/h.</desc>
<speed>0.010000</speed>
</trkpt>
<trkpt lat="22.089636" lon="104.253677">
<ele>210.673950</ele>
<time>2011-04-27T03:36:26Z</time>
<desc>lat.=22.089636, lon.=104.253677, Alt.=210.673950m. Speed=0.000000m/h.</desc>
<speed>0.000000</speed>
</trkpt>
<trkpt lat="22.089636" lon="104.253677">
<ele>210.681763</ele>
<time>2011-04-27T03:36:31Z</time>
<desc>lat.=22.089636, lon.=104.253677, Alt.=210.681763m. Speed=0.036000m/h.</desc>
<speed>0.010000</speed>
</trkpt>
<trkpt lat="22.089636" lon="104.253677">
<ele>210.693481</ele>
<time>2011-04-27T03:36:36Z</time>
<desc>lat.=22.089636, lon.=104.253677, Alt.=210.693481m. Speed=0.036000m/h.</desc>
<speed>0.010000</speed>
</trkpt>
<trkpt lat="22.089636" lon="104.253677">
<ele>210.642700</ele>
<time>2011-04-27T03:36:41Z</time>
<desc>lat.=22.089636, lon.=104.253677, Alt.=210.642700m. Speed=0.000000m/h.</desc>
<speed>0.000000</speed>
</trkpt>
<trkpt lat="22.089636" lon="104.253677">
<ele>210.607544</ele>
<time>2011-04-27T03:36:46Z</time>
<desc>lat.=22.089636, lon.=104.253677, Alt.=210.607544m. Speed=0.000000m/h.</desc>
<speed>0.000000</speed>
</trkpt>
<trkpt lat="22.089636" lon="104.253677">
<ele>210.580200</ele>
<time>2011-04-27T03:36:51Z</time>
<desc>lat.=22.089636, lon.=104.253677, Alt.=210.580200m. Speed=0.000000m/h.</desc>
<speed>0.000000</speed>
</trkpt>
<trkpt lat="22.089636" lon="104.253677">
<ele>210.576294</ele>
<time>2011-04-27T03:36:56Z</time>
<desc>lat.=22.089636, lon.=104.253677, Alt.=210.576294m. Speed=0.036000m/h.</desc>
<speed>0.010000</speed>
</trkpt>
<trkpt lat="22.089636" lon="104.253677">
<ele>210.568481</ele>
<time>2011-04-27T03:37:01Z</time>
<desc>lat.=22.089636, lon.=104.253677, Alt.=210.568481m. Speed=0.036000m/h.</desc>
<speed>0.010000</speed>
</trkpt>
<trkpt lat="22.089636" lon="104.253677">
<ele>210.545044</ele>
<time>2011-04-27T03:37:06Z</time>
<desc>lat.=22.089636, lon.=104.253677, Alt.=210.545044m. Speed=0.000000m/h.</desc>
<speed>0.000000</speed>
</trkpt>
<trkpt lat="22.089636" lon="104.253677">
<ele>210.533325</ele>
<time>2011-04-27T03:37:11Z</time>
<desc>lat.=22.089636, lon.=104.253677, Alt.=210.533325m. Speed=0.036000m/h.</desc>
<speed>0.010000</speed>
</trkpt>
<trkpt lat="22.089636" lon="104.253677">
<ele>210.537231</ele>
<time>2011-04-27T03:37:16Z</time>
<desc>lat.=22.089636, lon.=104.253677, Alt.=210.537231m. Speed=0.036000m/h.</desc>
<speed>0.010000</speed>
</trkpt>
<trkpt lat="22.089638" lon="104.253677">
<ele>210.533325</ele>
<time>2011-04-27T03:37:21Z</time>
<desc>lat.=22.089638, lon.=104.253677, Alt.=210.533325m. Speed=0.000000m/h.</desc>
<speed>0.000000</speed>
</trkpt>
<trkpt lat="22.089638" lon="104.253677">
<ele>210.494263</ele>
<time>2011-04-27T03:37:26Z</time>
<desc>lat.=22.089638, lon.=104.253677, Alt.=210.494263m. Speed=0.108000m/h.</desc>
<speed>0.030000</speed>
</trkpt>
<trkpt lat="22.089638" lon="104.253677">
<ele>210.470825</ele>
<time>2011-04-27T03:37:31Z</time>
<desc>lat.=22.089638, lon.=104.253677, Alt.=210.470825m. Speed=0.144000m/h.</desc>
<speed>0.040000</speed>
</trkpt>
<trkpt lat="22.089638" lon="104.253670">
<ele>210.478638</ele>
<time>2011-04-27T03:37:36Z</time>
<desc>lat.=22.089638, lon.=104.253670, Alt.=210.478638m. Speed=0.144000m/h.</desc>
<speed>0.040000</speed>
</trkpt>
<trkpt lat="22.089638" lon="104.253670">
<ele>210.525513</ele>
<time>2011-04-27T03:37:41Z</time>
<desc>lat.=22.089638, lon.=104.253670, Alt.=210.525513m. Speed=0.072000m/h.</desc>
<speed>0.020000</speed>
</trkpt>
<trkpt lat="22.089640" lon="104.253670">
<ele>210.560669</ele>
<time>2011-04-27T03:37:46Z</time>
<desc>lat.=22.089640, lon.=104.253670, Alt.=210.560669m. Speed=0.000000m/h.</desc>
<speed>0.000000</speed>
</trkpt>
<trkpt lat="22.089640" lon="104.253670">
<ele>210.545044</ele>
<time>2011-04-27T03:37:51Z</time>
<desc>lat.=22.089640, lon.=104.253670, Alt.=210.545044m. Speed=0.036000m/h.</desc>
<speed>0.010000</speed>
</trkpt>
<trkpt lat="22.089640" lon="104.253670">
<ele>210.529419</ele>
<time>2011-04-27T03:37:56Z</time>
<desc>lat.=22.089640, lon.=104.253670, Alt.=210.529419m. Speed=0.000000m/h.</desc>
<speed>0.000000</speed>
</trkpt>
<trkpt lat="22.089640" lon="104.253670">
<ele>210.545044</ele>
<time>2011-04-27T03:38:01Z</time>
<desc>lat.=22.089640, lon.=104.253670, Alt.=210.545044m. Speed=0.000000m/h.</desc>
<speed>0.000000</speed>
</trkpt>
<trkpt lat="22.089640" lon="104.253670">
<ele>210.564575</ele>
<time>2011-04-27T03:38:06Z</time>
<desc>lat.=22.089640, lon.=104.253670, Alt.=210.564575m. Speed=0.000000m/h.</desc>
<speed>0.000000</speed>
</trkpt>
<trkpt lat="22.089640" lon="104.253670">
<ele>210.537231</ele>
<time>2011-04-27T03:38:11Z</time>
<desc>lat.=22.089640, lon.=104.253670, Alt.=210.537231m. Speed=0.000000m/h.</desc>
<speed>0.000000</speed>
</trkpt>
<trkpt lat="22.089642" lon="104.253670">
<ele>210.537231</ele>
<time>2011-04-27T03:38:16Z</time>
<desc>lat.=22.089642, lon.=104.253670, Alt.=210.537231m. Speed=0.108000m/h.</desc>
<speed>0.030000</speed>
</trkpt>
<trkpt lat="22.089642" lon="104.253670">
<ele>210.548950</ele>
<time>2011-04-27T03:38:21Z</time>
<desc>lat.=22.089642, lon.=104.253670, Alt.=210.548950m. Speed=0.108000m/h.</desc>
<speed>0.030000</speed>
</trkpt>
<trkpt lat="22.089642" lon="104.253670">
<ele>210.537231</ele>
<time>2011-04-27T03:38:26Z</time>
<desc>lat.=22.089642, lon.=104.253670, Alt.=210.537231m. Speed=0.072000m/h.</desc>
<speed>0.020000</speed>
</trkpt>
<trkpt lat="22.089642" lon="104.253670">
<ele>210.529419</ele>
<time>2011-04-27T03:38:31Z</time>
<desc>lat.=22.089642, lon.=104.253670, Alt.=210.529419m. Speed=0.000000m/h.</desc>
<speed>0.000000</speed>
</trkpt>
<trkpt lat="22.089642" lon="104.253670">
<ele>210.505981</ele>
<time>2011-04-27T03:38:36Z</time>
<desc>lat.=22.089642, lon.=104.253670, Alt.=210.505981m. Speed=0.072000m/h.</desc>
<speed>0.020000</speed>
</trkpt>
<trkpt lat="22.089642" lon="104.253670">
<ele>210.521606</ele>
<time>2011-04-27T03:38:41Z</time>
<desc>lat.=22.089642, lon.=104.253670, Alt.=210.521606m. Speed=0.036000m/h.</desc>
<speed>0.010000</speed>
</trkpt>
<trkpt lat="22.089642" lon="104.253670">
<ele>210.556763</ele>
<time>2011-04-27T03:38:46Z</time>
<desc>lat.=22.089642, lon.=104.253670, Alt.=210.556763m. Speed=0.000000m/h.</desc>
<speed>0.000000</speed>
</trkpt>
<trkpt lat="22.089642" lon="104.253670">
<ele>210.658325</ele>
<time>2011-04-27T03:38:51Z</time>
<desc>lat.=22.089642, lon.=104.253670, Alt.=210.658325m. Speed=0.000000m/h.</desc>
<speed>0.000000</speed>
</trkpt>
<trkpt lat="22.089643" lon="104.253670">
<ele>210.697388</ele>
<time>2011-04-27T03:38:56Z</time>
<desc>lat.=22.089643, lon.=104.253670, Alt.=210.697388m. Speed=0.000000m/h.</desc>
<speed>0.000000</speed>
</trkpt>
<trkpt lat="22.089643" lon="104.253670">
<ele>210.709106</ele>
<time>2011-04-27T03:39:01Z</time>
<desc>lat.=22.089643, lon.=104.253670, Alt.=210.709106m. Speed=0.072000m/h.</desc>
<speed>0.020000</speed>
</trkpt>
<trkpt lat="22.089643" lon="104.253670">
<ele>210.693481</ele>
<time>2011-04-27T03:39:06Z</time>
<desc>lat.=22.089643, lon.=104.253670, Alt.=210.693481m. Speed=0.000000m/h.</desc>
<speed>0.000000</speed>
</trkpt>
<trkpt lat="22.089643" lon="104.253670">
<ele>210.685669</ele>
<time>2011-04-27T03:39:11Z</time>
<desc>lat.=22.089643, lon.=104.253670, Alt.=210.685669m. Speed=0.036000m/h.</desc>
<speed>0.010000</speed>
</trkpt>
<trkpt lat="22.089643" lon="104.253670">
<ele>210.697388</ele>
<time>2011-04-27T03:39:16Z</time>
<desc>lat.=22.089643, lon.=104.253670, Alt.=210.697388m. Speed=0.000000m/h.</desc>
<speed>0.000000</speed>
</trkpt>
<trkpt lat="22.089643" lon="104.253670">
<ele>210.685669</ele>
<time>2011-04-27T03:39:21Z</time>
<desc>lat.=22.089643, lon.=104.253670, Alt.=210.685669m. Speed=0.000000m/h.</desc>
<speed>0.000000</speed>
</trkpt>
<trkpt lat="22.089643" lon="104.253670">
<ele>210.670044</ele>
<time>2011-04-27T03:39:26Z</time>
<desc>lat.=22.089643, lon.=104.253670, Alt.=210.670044m. Speed=0.036000m/h.</desc>
<speed>0.010000</speed>
</trkpt>
<trkpt lat="22.089643" lon="104.253670">
<ele>210.658325</ele>
<time>2011-04-27T03:39:31Z</time>
<desc>lat.=22.089643, lon.=104.253670, Alt.=210.658325m. Speed=0.036000m/h.</desc>
<speed>0.010000</speed>
</trkpt>
<trkpt lat="22.089643" lon="104.253670">
<ele>210.666138</ele>
<time>2011-04-27T03:39:36Z</time>
<desc>lat.=22.089643, lon.=104.253670, Alt.=210.666138m. Speed=0.000000m/h.</desc>
<speed>0.000000</speed>
</trkpt>
<trkpt lat="22.089643" lon="104.253670">
<ele>210.681763</ele>
<time>2011-04-27T03:39:41Z</time>
<desc>lat.=22.089643, lon.=104.253670, Alt.=210.681763m. Speed=0.036000m/h.</desc>
<speed>0.010000</speed>
</trkpt>
<trkpt lat="22.089643" lon="104.253670">
<ele>210.689575</ele>
<time>2011-04-27T03:39:46Z</time>
<desc>lat.=22.089643, lon.=104.253670, Alt.=210.689575m. Speed=0.036000m/h.</desc>
<speed>0.010000</speed>
</trkpt>
<trkpt lat="22.089643" lon="104.253670">
<ele>210.713013</ele>
<time>2011-04-27T03:39:51Z</time>
<desc>lat.=22.089643, lon.=104.253670, Alt.=210.713013m. Speed=0.000000m/h.</desc>
<speed>0.000000</speed>
</trkpt>
<trkpt lat="22.089645" lon="104.253670">
<ele>210.767700</ele>
<time>2011-04-27T03:39:56Z</time>
<desc>lat.=22.089645, lon.=104.253670, Alt.=210.767700m. Speed=0.036000m/h.</desc>
<speed>0.010000</speed>
</trkpt>
<trkpt lat="22.089645" lon="104.253670">
<ele>210.834106</ele>
<time>2011-04-27T03:40:01Z</time>
<desc>lat.=22.089645, lon.=104.253670, Alt.=210.834106m. Speed=0.000000m/h.</desc>
<speed>0.000000</speed>
</trkpt>
<trkpt lat="22.089645" lon="104.253670">
<ele>210.865356</ele>
<time>2011-04-27T03:40:06Z</time>
<desc>lat.=22.089645, lon.=104.253670, Alt.=210.865356m. Speed=0.036000m/h.</desc>
<speed>0.010000</speed>
</trkpt>
<trkpt lat="22.089645" lon="104.253670">
<ele>210.880981</ele>
<time>2011-04-27T03:40:11Z</time>
<desc>lat.=22.089645, lon.=104.253670, Alt.=210.880981m. Speed=0.000000m/h.</desc>
<speed>0.000000</speed>
</trkpt>
<trkpt lat="22.089645" lon="104.253670">
<ele>210.877075</ele>
<time>2011-04-27T03:40:16Z</time>
<desc>lat.=22.089645, lon.=104.253670, Alt.=210.877075m. Speed=0.000000m/h.</desc>
<speed>0.000000</speed>
</trkpt>
<trkpt lat="22.089645" lon="104.253670">
<ele>210.880981</ele>
<time>2011-04-27T03:40:21Z</time>
<desc>lat.=22.089645, lon.=104.253670, Alt.=210.880981m. Speed=0.000000m/h.</desc>
<speed>0.000000</speed>
</trkpt>
<trkpt lat="22.089645" lon="104.253670">
<ele>210.869263</ele>
<time>2011-04-27T03:40:26Z</time>
<desc>lat.=22.089645, lon.=104.253670, Alt.=210.869263m. Speed=0.000000m/h.</desc>
<speed>0.000000</speed>
</trkpt>
<trkpt lat="22.089645" lon="104.253670">
<ele>210.845825</ele>
<time>2011-04-27T03:40:31Z</time>
<desc>lat.=22.089645, lon.=104.253670, Alt.=210.845825m. Speed=0.036000m/h.</desc>
<speed>0.010000</speed>
</trkpt>
<trkpt lat="22.089647" lon="104.253670">
<ele>210.826294</ele>
<time>2011-04-27T03:40:36Z</time>
<desc>lat.=22.089647, lon.=104.253670, Alt.=210.826294m. Speed=0.036000m/h.</desc>
<speed>0.010000</speed>
</trkpt>
<trkpt lat="22.089647" lon="104.253670">
<ele>210.818481</ele>
<time>2011-04-27T03:40:41Z</time>
<desc>lat.=22.089647, lon.=104.253670, Alt.=210.818481m. Speed=0.000000m/h.</desc>
<speed>0.000000</speed>
</trkpt>
<trkpt lat="22.089647" lon="104.253670">
<ele>210.865356</ele>
<time>2011-04-27T03:40:46Z</time>
<desc>lat.=22.089647, lon.=104.253670, Alt.=210.865356m. Speed=0.000000m/h.</desc>
<speed>0.000000</speed>
</trkpt>
<trkpt lat="22.089647" lon="104.253670">
<ele>210.880981</ele>
<time>2011-04-27T03:40:51Z</time>
<desc>lat.=22.089647, lon.=104.253670, Alt.=210.880981m. Speed=0.036000m/h.</desc>
<speed>0.010000</speed>
</trkpt>
<trkpt lat="22.089647" lon="104.253670">
<ele>210.857544</ele>
<time>2011-04-27T03:40:56Z</time>
<desc>lat.=22.089647, lon.=104.253670, Alt.=210.857544m. Speed=0.000000m/h.</desc>
<speed>0.000000</speed>
</trkpt>
<trkpt lat="22.089647" lon="104.253670">
<ele>210.822388</ele>
<time>2011-04-27T03:41:01Z</time>
<desc>lat.=22.089647, lon.=104.253670, Alt.=210.822388m. Speed=0.000000m/h.</desc>
<speed>0.000000</speed>
</trkpt>
<trkpt lat="22.089647" lon="104.253670">
<ele>210.798950</ele>
<time>2011-04-27T03:41:06Z</time>
<desc>lat.=22.089647, lon.=104.253670, Alt.=210.798950m. Speed=0.036000m/h.</desc>
<speed>0.010000</speed>
</trkpt>
<trkpt lat="22.089647" lon="104.253670">
<ele>210.783325</ele>
<time>2011-04-27T03:41:11Z</time>
<desc>lat.=22.089647, lon.=104.253670, Alt.=210.783325m. Speed=0.036000m/h.</desc>
<speed>0.010000</speed>
</trkpt>
<trkpt lat="22.089647" lon="104.253670">
<ele>210.748169</ele>
<time>2011-04-27T03:41:16Z</time>
<desc>lat.=22.089647, lon.=104.253670, Alt.=210.748169m. Speed=0.000000m/h.</desc>
<speed>0.000000</speed>
</trkpt>
<trkpt lat="22.089647" lon="104.253670">
<ele>210.693481</ele>
<time>2011-04-27T03:41:21Z</time>
<desc>lat.=22.089647, lon.=104.253670, Alt.=210.693481m. Speed=0.000000m/h.</desc>
<speed>0.000000</speed>
</trkpt>
<trkpt lat="22.089647" lon="104.253670">
<ele>210.650513</ele>
<time>2011-04-27T03:41:26Z</time>
<desc>lat.=22.089647, lon.=104.253670, Alt.=210.650513m. Speed=0.000000m/h.</desc>
<speed>0.000000</speed>
</trkpt>
<trkpt lat="22.089647" lon="104.253670">
<ele>210.619263</ele>
<time>2011-04-27T03:41:31Z</time>
<desc>lat.=22.089647, lon.=104.253670, Alt.=210.619263m. Speed=0.036000m/h.</desc>
<speed>0.010000</speed>
</trkpt>
<trkpt lat="22.089647" lon="104.253670">
<ele>210.595825</ele>
<time>2011-04-27T03:41:36Z</time>
<desc>lat.=22.089647, lon.=104.253670, Alt.=210.595825m. Speed=0.000000m/h.</desc>
<speed>0.000000</speed>
</trkpt>
<trkpt lat="22.089647" lon="104.253670">
<ele>210.556763</ele>
<time>2011-04-27T03:41:41Z</time>
<desc>lat.=22.089647, lon.=104.253670, Alt.=210.556763m. Speed=0.000000m/h.</desc>
<speed>0.000000</speed>
</trkpt>
<trkpt lat="22.089647" lon="104.253670">
<ele>210.494263</ele>
<time>2011-04-27T03:41:46Z</time>
<desc>lat.=22.089647, lon.=104.253670, Alt.=210.494263m. Speed=0.000000m/h.</desc>
<speed>0.000000</speed>
</trkpt>
<trkpt lat="22.089647" lon="104.253670">
<ele>210.439575</ele>
<time>2011-04-27T03:41:51Z</time>
<desc>lat.=22.089647, lon.=104.253670, Alt.=210.439575m. Speed=0.000000m/h.</desc>
<speed>0.000000</speed>
</trkpt>
<trkpt lat="22.089647" lon="104.253670">
<ele>210.420044</ele>
<time>2011-04-27T03:41:56Z</time>
<desc>lat.=22.089647, lon.=104.253670, Alt.=210.420044m. Speed=0.000000m/h.</desc>
<speed>0.000000</speed>
</trkpt>
<trkpt lat="22.089647" lon="104.253670">
<ele>210.400513</ele>
<time>2011-04-27T03:42:01Z</time>
<desc>lat.=22.089647, lon.=104.253670, Alt.=210.400513m. Speed=0.036000m/h.</desc>
<speed>0.010000</speed>
</trkpt>
<trkpt lat="22.089647" lon="104.253670">
<ele>210.357544</ele>
<time>2011-04-27T03:42:06Z</time>
<desc>lat.=22.089647, lon.=104.253670, Alt.=210.357544m. Speed=0.000000m/h.</desc>
<speed>0.000000</speed>
</trkpt>
<trkpt lat="22.089647" lon="104.253670">
<ele>210.338013</ele>
<time>2011-04-27T03:42:11Z</time>
<desc>lat.=22.089647, lon.=104.253670, Alt.=210.338013m. Speed=0.000000m/h.</desc>
<speed>0.000000</speed>
</trkpt>
<trkpt lat="22.089647" lon="104.253670">
<ele>210.326294</ele>
<time>2011-04-27T03:42:16Z</time>
<desc>lat.=22.089647, lon.=104.253670, Alt.=210.326294m. Speed=0.036000m/h.</desc>
<speed>0.010000</speed>
</trkpt>
<trkpt lat="22.089647" lon="104.253670">
<ele>210.306763</ele>
<time>2011-04-27T03:42:21Z</time>
<desc>lat.=22.089647, lon.=104.253670, Alt.=210.306763m. Speed=0.036000m/h.</desc>
<speed>0.010000</speed>
</trkpt>
<trkpt lat="22.089647" lon="104.253670">
<ele>210.287231</ele>
<time>2011-04-27T03:42:26Z</time>
<desc>lat.=22.089647, lon.=104.253670, Alt.=210.287231m. Speed=0.036000m/h.</desc>
<speed>0.010000</speed>
</trkpt>
<trkpt lat="22.089649" lon="104.253670">
<ele>210.252075</ele>
<time>2011-04-27T03:42:31Z</time>
<desc>lat.=22.089649, lon.=104.253670, Alt.=210.252075m. Speed=0.072000m/h.</desc>
<speed>0.020000</speed>
</trkpt>
<trkpt lat="22.089649" lon="104.253670">
<ele>210.232544</ele>
<time>2011-04-27T03:42:36Z</time>
<desc>lat.=22.089649, lon.=104.253670, Alt.=210.232544m. Speed=0.036000m/h.</desc>
<speed>0.010000</speed>
</trkpt>
<trkpt lat="22.089649" lon="104.253670">
<ele>210.232544</ele>
<time>2011-04-27T03:42:41Z</time>
<desc>lat.=22.089649, lon.=104.253670, Alt.=210.232544m. Speed=0.000000m/h.</desc>
<speed>0.000000</speed>
</trkpt>
<trkpt lat="22.089649" lon="104.253670">
<ele>210.255981</ele>
<time>2011-04-27T03:42:46Z</time>
<desc>lat.=22.089649, lon.=104.253670, Alt.=210.255981m. Speed=0.000000m/h.</desc>
<speed>0.000000</speed>
</trkpt>
<trkpt lat="22.089649" lon="104.253670">
<ele>210.232544</ele>
<time>2011-04-27T03:42:51Z</time>
<desc>lat.=22.089649, lon.=104.253670, Alt.=210.232544m. Speed=0.000000m/h.</desc>
<speed>0.000000</speed>
</trkpt>
<trkpt lat="22.089649" lon="104.253670">
<ele>210.220825</ele>
<time>2011-04-27T03:42:56Z</time>
<desc>lat.=22.089649, lon.=104.253670, Alt.=210.220825m. Speed=0.036000m/h.</desc>
<speed>0.010000</speed>
</trkpt>
<trkpt lat="22.089649" lon="104.253670">
<ele>210.209106</ele>
<time>2011-04-27T03:43:01Z</time>
<desc>lat.=22.089649, lon.=104.253670, Alt.=210.209106m. Speed=0.036000m/h.</desc>
<speed>0.010000</speed>
</trkpt>
<trkpt lat="22.089649" lon="104.253670">
<ele>210.220825</ele>
<time>2011-04-27T03:43:06Z</time>
<desc>lat.=22.089649, lon.=104.253670, Alt.=210.220825m. Speed=0.036000m/h.</desc>
<speed>0.010000</speed>
</trkpt>
<trkpt lat="22.089649" lon="104.253670">
<ele>210.224731</ele>
<time>2011-04-27T03:43:11Z</time>
<desc>lat.=22.089649, lon.=104.253670, Alt.=210.224731m. Speed=0.036000m/h.</desc>
<speed>0.010000</speed>
</trkpt>
<trkpt lat="22.089649" lon="104.253670">
<ele>210.228638</ele>
<time>2011-04-27T03:43:16Z</time>
<desc>lat.=22.089649, lon.=104.253670, Alt.=210.228638m. Speed=0.036000m/h.</desc>
<speed>0.010000</speed>
</trkpt>
<trkpt lat="22.089649" lon="104.253670">
<ele>210.252075</ele>
<time>2011-04-27T03:43:21Z</time>
<desc>lat.=22.089649, lon.=104.253670, Alt.=210.252075m. Speed=0.000000m/h.</desc>
<speed>0.000000</speed>
</trkpt>
<trkpt lat="22.089649" lon="104.253670">
<ele>210.314575</ele>
<time>2011-04-27T03:43:26Z</time>
<desc>lat.=22.089649, lon.=104.253670, Alt.=210.314575m. Speed=0.036000m/h.</desc>
<speed>0.010000</speed>
</trkpt>
<trkpt lat="22.089649" lon="104.253670">
<ele>210.377075</ele>
<time>2011-04-27T03:43:31Z</time>
<desc>lat.=22.089649, lon.=104.253670, Alt.=210.377075m. Speed=0.036000m/h.</desc>
<speed>0.010000</speed>
</trkpt>
<trkpt lat="22.089649" lon="104.253670">
<ele>210.470825</ele>
<time>2011-04-27T03:43:36Z</time>
<desc>lat.=22.089649, lon.=104.253670, Alt.=210.470825m. Speed=0.036000m/h.</desc>
<speed>0.010000</speed>
</trkpt>
<trkpt lat="22.089649" lon="104.253670">
<ele>210.541138</ele>
<time>2011-04-27T03:43:41Z</time>
<desc>lat.=22.089649, lon.=104.253670, Alt.=210.541138m. Speed=0.036000m/h.</desc>
<speed>0.010000</speed>
</trkpt>
<trkpt lat="22.089649" lon="104.253670">
<ele>210.595825</ele>
<time>2011-04-27T03:43:46Z</time>
<desc>lat.=22.089649, lon.=104.253670, Alt.=210.595825m. Speed=0.000000m/h.</desc>
<speed>0.000000</speed>
</trkpt>
<trkpt lat="22.089649" lon="104.253670">
<ele>210.666138</ele>
<time>2011-04-27T03:43:51Z</time>
<desc>lat.=22.089649, lon.=104.253670, Alt.=210.666138m. Speed=0.000000m/h.</desc>
<speed>0.000000</speed>
</trkpt>
<trkpt lat="22.089649" lon="104.253670">
<ele>210.724731</ele>
<time>2011-04-27T03:43:56Z</time>
<desc>lat.=22.089649, lon.=104.253670, Alt.=210.724731m. Speed=0.036000m/h.</desc>
<speed>0.010000</speed>
</trkpt>
<trkpt lat="22.089649" lon="104.253670">
<ele>210.759888</ele>
<time>2011-04-27T03:44:01Z</time>
<desc>lat.=22.089649, lon.=104.253670, Alt.=210.759888m. Speed=0.036000m/h.</desc>
<speed>0.010000</speed>
</trkpt>
<trkpt lat="22.089649" lon="104.253662">
<ele>210.783325</ele>
<time>2011-04-27T03:44:06Z</time>
<desc>lat.=22.089649, lon.=104.253662, Alt.=210.783325m. Speed=0.036000m/h.</desc>
<speed>0.010000</speed>
</trkpt>
<trkpt lat="22.089649" lon="104.253662">
<ele>210.798950</ele>
<time>2011-04-27T03:44:11Z</time>
<desc>lat.=22.089649, lon.=104.253662, Alt.=210.798950m. Speed=0.036000m/h.</desc>
<speed>0.010000</speed>
</trkpt>
<trkpt lat="22.089649" lon="104.253662">
<ele>210.802856</ele>
<time>2011-04-27T03:44:16Z</time>
<desc>lat.=22.089649, lon.=104.253662, Alt.=210.802856m. Speed=0.036000m/h.</desc>
<speed>0.010000</speed>
</trkpt>
<trkpt lat="22.089649" lon="104.253662">
<ele>210.822388</ele>
<time>2011-04-27T03:44:21Z</time>
<desc>lat.=22.089649, lon.=104.253662, Alt.=210.822388m. Speed=0.036000m/h.</desc>
<speed>0.010000</speed>
</trkpt>
<trkpt lat="22.089649" lon="104.253662">
<ele>210.861450</ele>
<time>2011-04-27T03:44:26Z</time>
<desc>lat.=22.089649, lon.=104.253662, Alt.=210.861450m. Speed=0.036000m/h.</desc>
<speed>0.010000</speed>
</trkpt>
<trkpt lat="22.089649" lon="104.253662">
<ele>210.865356</ele>
<time>2011-04-27T03:44:31Z</time>
<desc>lat.=22.089649, lon.=104.253662, Alt.=210.865356m. Speed=0.000000m/h.</desc>
<speed>0.000000</speed>
</trkpt>
<trkpt lat="22.089649" lon="104.253662">
<ele>210.857544</ele>
<time>2011-04-27T03:44:36Z</time>
<desc>lat.=22.089649, lon.=104.253662, Alt.=210.857544m. Speed=0.036000m/h.</desc>
<speed>0.010000</speed>
</trkpt>
<trkpt lat="22.089651" lon="104.253662">
<ele>210.873169</ele>
<time>2011-04-27T03:44:41Z</time>
<desc>lat.=22.089651, lon.=104.253662, Alt.=210.873169m. Speed=0.036000m/h.</desc>
<speed>0.010000</speed>
</trkpt>
<trkpt lat="22.089651" lon="104.253662">
<ele>210.884888</ele>
<time>2011-04-27T03:44:46Z</time>
<desc>lat.=22.089651, lon.=104.253662, Alt.=210.884888m. Speed=0.000000m/h.</desc>
<speed>0.000000</speed>
</trkpt>
<trkpt lat="22.089651" lon="104.253662">
<ele>210.888794</ele>
<time>2011-04-27T03:44:51Z</time>
<desc>lat.=22.089651, lon.=104.253662, Alt.=210.888794m. Speed=0.036000m/h.</desc>
<speed>0.010000</speed>
</trkpt>
<trkpt lat="22.089651" lon="104.253662">
<ele>210.869263</ele>
<time>2011-04-27T03:44:56Z</time>
<desc>lat.=22.089651, lon.=104.253662, Alt.=210.869263m. Speed=0.036000m/h.</desc>
<speed>0.010000</speed>
</trkpt>
<trkpt lat="22.089651" lon="104.253662">
<ele>210.830200</ele>
<time>2011-04-27T03:45:01Z</time>
<desc>lat.=22.089651, lon.=104.253662, Alt.=210.830200m. Speed=0.036000m/h.</desc>
<speed>0.010000</speed>
</trkpt>
<trkpt lat="22.089651" lon="104.253662">
<ele>210.795044</ele>
<time>2011-04-27T03:45:06Z</time>
<desc>lat.=22.089651, lon.=104.253662, Alt.=210.795044m. Speed=0.000000m/h.</desc>
<speed>0.000000</speed>
</trkpt>
<trkpt lat="22.089651" lon="104.253662">
<ele>210.775513</ele>
<time>2011-04-27T03:45:11Z</time>
<desc>lat.=22.089651, lon.=104.253662, Alt.=210.775513m. Speed=0.000000m/h.</desc>
<speed>0.000000</speed>
</trkpt>
<trkpt lat="22.089651" lon="104.253662">
<ele>210.728638</ele>
<time>2011-04-27T03:45:16Z</time>
<desc>lat.=22.089651, lon.=104.253662, Alt.=210.728638m. Speed=0.036000m/h.</desc>
<speed>0.010000</speed>
</trkpt>
<trkpt lat="22.089651" lon="104.253662">
<ele>210.689575</ele>
<time>2011-04-27T03:45:21Z</time>
<desc>lat.=22.089651, lon.=104.253662, Alt.=210.689575m. Speed=0.000000m/h.</desc>
<speed>0.000000</speed>
</trkpt>
<trkpt lat="22.089651" lon="104.253662">
<ele>210.634888</ele>
<time>2011-04-27T03:45:26Z</time>
<desc>lat.=22.089651, lon.=104.253662, Alt.=210.634888m. Speed=0.036000m/h.</desc>
<speed>0.010000</speed>
</trkpt>
<trkpt lat="22.089651" lon="104.253662">
<ele>210.658325</ele>
<time>2011-04-27T03:45:31Z</time>
<desc>lat.=22.089651, lon.=104.253662, Alt.=210.658325m. Speed=0.072000m/h.</desc>
<speed>0.020000</speed>
</trkpt>
<trkpt lat="22.089649" lon="104.253662">
<ele>210.673950</ele>
<time>2011-04-27T03:45:36Z</time>
<desc>lat.=22.089649, lon.=104.253662, Alt.=210.673950m. Speed=0.036000m/h.</desc>
<speed>0.010000</speed>
</trkpt>
<trkpt lat="22.089649" lon="104.253662">
<ele>210.650513</ele>
<time>2011-04-27T03:45:41Z</time>
<desc>lat.=22.089649, lon.=104.253662, Alt.=210.650513m. Speed=0.072000m/h.</desc>
<speed>0.020000</speed>
</trkpt>
<trkpt lat="22.089649" lon="104.253662">
<ele>210.595825</ele>
<time>2011-04-27T03:45:46Z</time>
<desc>lat.=22.089649, lon.=104.253662, Alt.=210.595825m. Speed=0.036000m/h.</desc>
<speed>0.010000</speed>
</trkpt>
<trkpt lat="22.089649" lon="104.253662">
<ele>210.556763</ele>
<time>2011-04-27T03:45:51Z</time>
<desc>lat.=22.089649, lon.=104.253662, Alt.=210.556763m. Speed=0.036000m/h.</desc>
<speed>0.010000</speed>
</trkpt>
<trkpt lat="22.089649" lon="104.253662">
<ele>210.537231</ele>
<time>2011-04-27T03:45:56Z</time>
<desc>lat.=22.089649, lon.=104.253662, Alt.=210.537231m. Speed=0.000000m/h.</desc>
<speed>0.000000</speed>
</trkpt>
<trkpt lat="22.089649" lon="104.253662">
<ele>210.502075</ele>
<time>2011-04-27T03:46:01Z</time>
<desc>lat.=22.089649, lon.=104.253662, Alt.=210.502075m. Speed=0.000000m/h.</desc>
<speed>0.000000</speed>
</trkpt>
<trkpt lat="22.089649" lon="104.253662">
<ele>210.466919</ele>
<time>2011-04-27T03:46:06Z</time>
<desc>lat.=22.089649, lon.=104.253662, Alt.=210.466919m. Speed=0.036000m/h.</desc>
<speed>0.010000</speed>
</trkpt>
<trkpt lat="22.089649" lon="104.253662">
<ele>210.443481</ele>
<time>2011-04-27T03:46:11Z</time>
<desc>lat.=22.089649, lon.=104.253662, Alt.=210.443481m. Speed=0.036000m/h.</desc>
<speed>0.010000</speed>
</trkpt>
<trkpt lat="22.089649" lon="104.253662">
<ele>210.431763</ele>
<time>2011-04-27T03:46:16Z</time>
<desc>lat.=22.089649, lon.=104.253662, Alt.=210.431763m. Speed=0.036000m/h.</desc>
<speed>0.010000</speed>
</trkpt>
<trkpt lat="22.089649" lon="104.253662">
<ele>210.459106</ele>
<time>2011-04-27T03:46:21Z</time>
<desc>lat.=22.089649, lon.=104.253662, Alt.=210.459106m. Speed=0.000000m/h.</desc>
<speed>0.000000</speed>
</trkpt>
<trkpt lat="22.089649" lon="104.253662">
<ele>210.482544</ele>
<time>2011-04-27T03:46:26Z</time>
<desc>lat.=22.089649, lon.=104.253662, Alt.=210.482544m. Speed=0.000000m/h.</desc>
<speed>0.000000</speed>
</trkpt>
<trkpt lat="22.089649" lon="104.253662">
<ele>210.482544</ele>
<time>2011-04-27T03:46:31Z</time>
<desc>lat.=22.089649, lon.=104.253662, Alt.=210.482544m. Speed=0.036000m/h.</desc>
<speed>0.010000</speed>
</trkpt>
<trkpt lat="22.089649" lon="104.253662">
<ele>210.482544</ele>
<time>2011-04-27T03:46:36Z</time>
<desc>lat.=22.089649, lon.=104.253662, Alt.=210.482544m. Speed=0.072000m/h.</desc>
<speed>0.020000</speed>
</trkpt>
<trkpt lat="22.089649" lon="104.253662">
<ele>210.474731</ele>
<time>2011-04-27T03:46:41Z</time>
<desc>lat.=22.089649, lon.=104.253662, Alt.=210.474731m. Speed=0.072000m/h.</desc>
<speed>0.020000</speed>
</trkpt>
<trkpt lat="22.089649" lon="104.253662">
<ele>210.466919</ele>
<time>2011-04-27T03:46:46Z</time>
<desc>lat.=22.089649, lon.=104.253662, Alt.=210.466919m. Speed=0.072000m/h.</desc>
<speed>0.020000</speed>
</trkpt>
<trkpt lat="22.089649" lon="104.253662">
<ele>210.451294</ele>
<time>2011-04-27T03:46:51Z</time>
<desc>lat.=22.089649, lon.=104.253662, Alt.=210.451294m. Speed=0.000000m/h.</desc>
<speed>0.000000</speed>
</trkpt>
<trkpt lat="22.089649" lon="104.253662">
<ele>210.443481</ele>
<time>2011-04-27T03:46:56Z</time>
<desc>lat.=22.089649, lon.=104.253662, Alt.=210.443481m. Speed=0.000000m/h.</desc>
<speed>0.000000</speed>
</trkpt>
<trkpt lat="22.089649" lon="104.253662">
<ele>210.427856</ele>
<time>2011-04-27T03:47:01Z</time>
<desc>lat.=22.089649, lon.=104.253662, Alt.=210.427856m. Speed=0.000000m/h.</desc>
<speed>0.000000</speed>
</trkpt>
<trkpt lat="22.089649" lon="104.253662">
<ele>210.435669</ele>
<time>2011-04-27T03:47:06Z</time>
<desc>lat.=22.089649, lon.=104.253662, Alt.=210.435669m. Speed=0.000000m/h.</desc>
<speed>0.000000</speed>
</trkpt>
<trkpt lat="22.089649" lon="104.253662">
<ele>210.459106</ele>
<time>2011-04-27T03:47:11Z</time>
<desc>lat.=22.089649, lon.=104.253662, Alt.=210.459106m. Speed=0.000000m/h.</desc>
<speed>0.000000</speed>
</trkpt>
<trkpt lat="22.089649" lon="104.253662">
<ele>210.474731</ele>
<time>2011-04-27T03:47:16Z</time>
<desc>lat.=22.089649, lon.=104.253662, Alt.=210.474731m. Speed=0.000000m/h.</desc>
<speed>0.000000</speed>
</trkpt>
<trkpt lat="22.089649" lon="104.253662">
<ele>210.502075</ele>
<time>2011-04-27T03:47:21Z</time>
<desc>lat.=22.089649, lon.=104.253662, Alt.=210.502075m. Speed=0.036000m/h.</desc>
<speed>0.010000</speed>
</trkpt>
<trkpt lat="22.089649" lon="104.253662">
<ele>210.541138</ele>
<time>2011-04-27T03:47:26Z</time>
<desc>lat.=22.089649, lon.=104.253662, Alt.=210.541138m. Speed=0.072000m/h.</desc>
<speed>0.020000</speed>
</trkpt>
<trkpt lat="22.089649" lon="104.253662">
<ele>210.576294</ele>
<time>2011-04-27T03:47:31Z</time>
<desc>lat.=22.089649, lon.=104.253662, Alt.=210.576294m. Speed=0.036000m/h.</desc>
<speed>0.010000</speed>
</trkpt>
<trkpt lat="22.089649" lon="104.253662">
<ele>210.627075</ele>
<time>2011-04-27T03:47:36Z</time>
<desc>lat.=22.089649, lon.=104.253662, Alt.=210.627075m. Speed=0.036000m/h.</desc>
<speed>0.010000</speed>
</trkpt>
<trkpt lat="22.089649" lon="104.253662">
<ele>210.646606</ele>
<time>2011-04-27T03:47:41Z</time>
<desc>lat.=22.089649, lon.=104.253662, Alt.=210.646606m. Speed=0.072000m/h.</desc>
<speed>0.020000</speed>
</trkpt>
<trkpt lat="22.089649" lon="104.253662">
<ele>210.658325</ele>
<time>2011-04-27T03:47:46Z</time>
<desc>lat.=22.089649, lon.=104.253662, Alt.=210.658325m. Speed=0.036000m/h.</desc>
<speed>0.010000</speed>
</trkpt>
<trkpt lat="22.089649" lon="104.253662">
<ele>210.662231</ele>
<time>2011-04-27T03:47:51Z</time>
<desc>lat.=22.089649, lon.=104.253662, Alt.=210.662231m. Speed=0.036000m/h.</desc>
<speed>0.010000</speed>
</trkpt>
<trkpt lat="22.089649" lon="104.253662">
<ele>210.713013</ele>
<time>2011-04-27T03:47:56Z</time>
<desc>lat.=22.089649, lon.=104.253662, Alt.=210.713013m. Speed=0.072000m/h.</desc>
<speed>0.020000</speed>
</trkpt>
<trkpt lat="22.089649" lon="104.253662">
<ele>210.763794</ele>
<time>2011-04-27T03:48:01Z</time>
<desc>lat.=22.089649, lon.=104.253662, Alt.=210.763794m. Speed=0.000000m/h.</desc>
<speed>0.000000</speed>
</trkpt>
<trkpt lat="22.089649" lon="104.253662">
<ele>210.798950</ele>
<time>2011-04-27T03:48:06Z</time>
<desc>lat.=22.089649, lon.=104.253662, Alt.=210.798950m. Speed=0.000000m/h.</desc>
<speed>0.000000</speed>
</trkpt>
<trkpt lat="22.089649" lon="104.253662">
<ele>210.849731</ele>
<time>2011-04-27T03:48:11Z</time>
<desc>lat.=22.089649, lon.=104.253662, Alt.=210.849731m. Speed=0.000000m/h.</desc>
<speed>0.000000</speed>
</trkpt>
<trkpt lat="22.089649" lon="104.253662">
<ele>210.853638</ele>
<time>2011-04-27T03:48:16Z</time>
<desc>lat.=22.089649, lon.=104.253662, Alt.=210.853638m. Speed=0.000000m/h.</desc>
<speed>0.000000</speed>
</trkpt>
<trkpt lat="22.089649" lon="104.253654">
<ele>210.880981</ele>
<time>2011-04-27T03:48:21Z</time>
<desc>lat.=22.089649, lon.=104.253654, Alt.=210.880981m. Speed=0.036000m/h.</desc>
<speed>0.010000</speed>
</trkpt>
<trkpt lat="22.089649" lon="104.253654">
<ele>210.888794</ele>
<time>2011-04-27T03:48:26Z</time>
<desc>lat.=22.089649, lon.=104.253654, Alt.=210.888794m. Speed=0.000000m/h.</desc>
<speed>0.000000</speed>
</trkpt>
<trkpt lat="22.089649" lon="104.253654">
<ele>210.888794</ele>
<time>2011-04-27T03:48:31Z</time>
<desc>lat.=22.089649, lon.=104.253654, Alt.=210.888794m. Speed=0.036000m/h.</desc>
<speed>0.010000</speed>
</trkpt>
<trkpt lat="22.089649" lon="104.253654">
<ele>210.884888</ele>
<time>2011-04-27T03:48:36Z</time>
<desc>lat.=22.089649, lon.=104.253654, Alt.=210.884888m. Speed=0.000000m/h.</desc>
<speed>0.000000</speed>
</trkpt>
<trkpt lat="22.089649" lon="104.253654">
<ele>210.904419</ele>
<time>2011-04-27T03:48:41Z</time>
<desc>lat.=22.089649, lon.=104.253654, Alt.=210.904419m. Speed=0.000000m/h.</desc>
<speed>0.000000</speed>
</trkpt>
<trkpt lat="22.089649" lon="104.253654">
<ele>210.920044</ele>
<time>2011-04-27T03:48:46Z</time>
<desc>lat.=22.089649, lon.=104.253654, Alt.=210.920044m. Speed=0.000000m/h.</desc>
<speed>0.000000</speed>
</trkpt>
<trkpt lat="22.089649" lon="104.253654">
<ele>210.935669</ele>
<time>2011-04-27T03:48:51Z</time>
<desc>lat.=22.089649, lon.=104.253654, Alt.=210.935669m. Speed=0.072000m/h.</desc>
<speed>0.020000</speed>
</trkpt>
<trkpt lat="22.089649" lon="104.253654">
<ele>210.939575</ele>
<time>2011-04-27T03:48:56Z</time>
<desc>lat.=22.089649, lon.=104.253654, Alt.=210.939575m. Speed=0.000000m/h.</desc>
<speed>0.000000</speed>
</trkpt>
<trkpt lat="22.089649" lon="104.253654">
<ele>210.923950</ele>
<time>2011-04-27T03:49:01Z</time>
<desc>lat.=22.089649, lon.=104.253654, Alt.=210.923950m. Speed=0.000000m/h.</desc>
<speed>0.000000</speed>
</trkpt>
<trkpt lat="22.089649" lon="104.253654">
<ele>210.892700</ele>
<time>2011-04-27T03:49:06Z</time>
<desc>lat.=22.089649, lon.=104.253654, Alt.=210.892700m. Speed=0.000000m/h.</desc>
<speed>0.000000</speed>
</trkpt>
<trkpt lat="22.089649" lon="104.253654">
<ele>210.900513</ele>
<time>2011-04-27T03:49:11Z</time>
<desc>lat.=22.089649, lon.=104.253654, Alt.=210.900513m. Speed=0.000000m/h.</desc>
<speed>0.000000</speed>
</trkpt>
<trkpt lat="22.089649" lon="104.253654">
<ele>210.923950</ele>
<time>2011-04-27T03:49:16Z</time>
<desc>lat.=22.089649, lon.=104.253654, Alt.=210.923950m. Speed=0.000000m/h.</desc>
<speed>0.000000</speed>
</trkpt>
<trkpt lat="22.089649" lon="104.253654">
<ele>210.927856</ele>
<time>2011-04-27T03:49:21Z</time>
<desc>lat.=22.089649, lon.=104.253654, Alt.=210.927856m. Speed=0.000000m/h.</desc>
<speed>0.000000</speed>
</trkpt>
<trkpt lat="22.089649" lon="104.253654">
<ele>210.935669</ele>
<time>2011-04-27T03:49:26Z</time>
<desc>lat.=22.089649, lon.=104.253654, Alt.=210.935669m. Speed=0.036000m/h.</desc>
<speed>0.010000</speed>
</trkpt>
<trkpt lat="22.089649" lon="104.253654">
<ele>210.931763</ele>
<time>2011-04-27T03:49:31Z</time>
<desc>lat.=22.089649, lon.=104.253654, Alt.=210.931763m. Speed=0.036000m/h.</desc>
<speed>0.010000</speed>
</trkpt>
<trkpt lat="22.089647" lon="104.253654">
<ele>210.955200</ele>
<time>2011-04-27T03:49:36Z</time>
<desc>lat.=22.089647, lon.=104.253654, Alt.=210.955200m. Speed=0.036000m/h.</desc>
<speed>0.010000</speed>
</trkpt>
<trkpt lat="22.089647" lon="104.253654">
<ele>210.982544</ele>
<time>2011-04-27T03:49:41Z</time>
<desc>lat.=22.089647, lon.=104.253654, Alt.=210.982544m. Speed=0.000000m/h.</desc>
<speed>0.000000</speed>
</trkpt>
<trkpt lat="22.089647" lon="104.253654">
<ele>210.998169</ele>
<time>2011-04-27T03:49:46Z</time>
<desc>lat.=22.089647, lon.=104.253654, Alt.=210.998169m. Speed=0.000000m/h.</desc>
<speed>0.000000</speed>
</trkpt>
<trkpt lat="22.089647" lon="104.253654">
<ele>211.005981</ele>
<time>2011-04-27T03:49:51Z</time>
<desc>lat.=22.089647, lon.=104.253654, Alt.=211.005981m. Speed=0.000000m/h.</desc>
<speed>0.000000</speed>
</trkpt>
<trkpt lat="22.089647" lon="104.253654">
<ele>211.033325</ele>
<time>2011-04-27T03:49:56Z</time>
<desc>lat.=22.089647, lon.=104.253654, Alt.=211.033325m. Speed=0.036000m/h.</desc>
<speed>0.010000</speed>
</trkpt>
<trkpt lat="22.089647" lon="104.253654">
<ele>211.056763</ele>
<time>2011-04-27T03:50:01Z</time>
<desc>lat.=22.089647, lon.=104.253654, Alt.=211.056763m. Speed=0.036000m/h.</desc>
<speed>0.010000</speed>
</trkpt>
<trkpt lat="22.089647" lon="104.253654">
<ele>211.064575</ele>
<time>2011-04-27T03:50:06Z</time>
<desc>lat.=22.089647, lon.=104.253654, Alt.=211.064575m. Speed=0.036000m/h.</desc>
<speed>0.010000</speed>
</trkpt>
<trkpt lat="22.089647" lon="104.253654">
<ele>211.072388</ele>
<time>2011-04-27T03:50:11Z</time>
<desc>lat.=22.089647, lon.=104.253654, Alt.=211.072388m. Speed=0.036000m/h.</desc>
<speed>0.010000</speed>
</trkpt>
<trkpt lat="22.089647" lon="104.253654">
<ele>211.033325</ele>
<time>2011-04-27T03:50:16Z</time>
<desc>lat.=22.089647, lon.=104.253654, Alt.=211.033325m. Speed=0.000000m/h.</desc>
<speed>0.000000</speed>
</trkpt>
<trkpt lat="22.089647" lon="104.253654">
<ele>211.013794</ele>
<time>2011-04-27T03:50:21Z</time>
<desc>lat.=22.089647, lon.=104.253654, Alt.=211.013794m. Speed=0.000000m/h.</desc>
<speed>0.000000</speed>
</trkpt>
<trkpt lat="22.089647" lon="104.253654">
<ele>210.998169</ele>
<time>2011-04-27T03:50:26Z</time>
<desc>lat.=22.089647, lon.=104.253654, Alt.=210.998169m. Speed=0.036000m/h.</desc>
<speed>0.010000</speed>
</trkpt>
<trkpt lat="22.089647" lon="104.253654">
<ele>210.990356</ele>
<time>2011-04-27T03:50:31Z</time>
<desc>lat.=22.089647, lon.=104.253654, Alt.=210.990356m. Speed=0.000000m/h.</desc>
<speed>0.000000</speed>
</trkpt>
<trkpt lat="22.089647" lon="104.253654">
<ele>210.955200</ele>
<time>2011-04-27T03:50:36Z</time>
<desc>lat.=22.089647, lon.=104.253654, Alt.=210.955200m. Speed=0.036000m/h.</desc>
<speed>0.010000</speed>
</trkpt>
<trkpt lat="22.089647" lon="104.253654">
<ele>210.884888</ele>
<time>2011-04-27T03:50:41Z</time>
<desc>lat.=22.089647, lon.=104.253654, Alt.=210.884888m. Speed=0.000000m/h.</desc>
<speed>0.000000</speed>
</trkpt>
<trkpt lat="22.089647" lon="104.253654">
<ele>210.830200</ele>
<time>2011-04-27T03:50:46Z</time>
<desc>lat.=22.089647, lon.=104.253654, Alt.=210.830200m. Speed=0.000000m/h.</desc>
<speed>0.000000</speed>
</trkpt>
<trkpt lat="22.089647" lon="104.253654">
<ele>210.791138</ele>
<time>2011-04-27T03:50:51Z</time>
<desc>lat.=22.089647, lon.=104.253654, Alt.=210.791138m. Speed=0.000000m/h.</desc>
<speed>0.000000</speed>
</trkpt>
<trkpt lat="22.089647" lon="104.253654">
<ele>210.728638</ele>
<time>2011-04-27T03:50:56Z</time>
<desc>lat.=22.089647, lon.=104.253654, Alt.=210.728638m. Speed=0.000000m/h.</desc>
<speed>0.000000</speed>
</trkpt>
<trkpt lat="22.089647" lon="104.253654">
<ele>210.666138</ele>
<time>2011-04-27T03:51:01Z</time>
<desc>lat.=22.089647, lon.=104.253654, Alt.=210.666138m. Speed=0.036000m/h.</desc>
<speed>0.010000</speed>
</trkpt>
<trkpt lat="22.089645" lon="104.253654">
<ele>210.576294</ele>
<time>2011-04-27T03:51:06Z</time>
<desc>lat.=22.089645, lon.=104.253654, Alt.=210.576294m. Speed=0.036000m/h.</desc>
<speed>0.010000</speed>
</trkpt>
<trkpt lat="22.089645" lon="104.253654">
<ele>210.482544</ele>
<time>2011-04-27T03:51:11Z</time>
<desc>lat.=22.089645, lon.=104.253654, Alt.=210.482544m. Speed=0.000000m/h.</desc>
<speed>0.000000</speed>
</trkpt>
<trkpt lat="22.089645" lon="104.253654">
<ele>210.412231</ele>
<time>2011-04-27T03:51:16Z</time>
<desc>lat.=22.089645, lon.=104.253654, Alt.=210.412231m. Speed=0.036000m/h.</desc>
<speed>0.010000</speed>
</trkpt>
<trkpt lat="22.089645" lon="104.253654">
<ele>210.365356</ele>
<time>2011-04-27T03:51:21Z</time>
<desc>lat.=22.089645, lon.=104.253654, Alt.=210.365356m. Speed=0.000000m/h.</desc>
<speed>0.000000</speed>
</trkpt>
<trkpt lat="22.089645" lon="104.253654">
<ele>210.310669</ele>
<time>2011-04-27T03:51:26Z</time>
<desc>lat.=22.089645, lon.=104.253654, Alt.=210.310669m. Speed=0.036000m/h.</desc>
<speed>0.010000</speed>
</trkpt>
<trkpt lat="22.089645" lon="104.253654">
<ele>210.275513</ele>
<time>2011-04-27T03:51:31Z</time>
<desc>lat.=22.089645, lon.=104.253654, Alt.=210.275513m. Speed=0.000000m/h.</desc>
<speed>0.000000</speed>
</trkpt>
<trkpt lat="22.089645" lon="104.253654">
<ele>210.236450</ele>
<time>2011-04-27T03:51:36Z</time>
<desc>lat.=22.089645, lon.=104.253654, Alt.=210.236450m. Speed=0.000000m/h.</desc>
<speed>0.000000</speed>
</trkpt>
<trkpt lat="22.089645" lon="104.253654">
<ele>210.185669</ele>
<time>2011-04-27T03:51:41Z</time>
<desc>lat.=22.089645, lon.=104.253654, Alt.=210.185669m. Speed=0.036000m/h.</desc>
<speed>0.010000</speed>
</trkpt>
<trkpt lat="22.089645" lon="104.253654">
<ele>210.150513</ele>
<time>2011-04-27T03:51:46Z</time>
<desc>lat.=22.089645, lon.=104.253654, Alt.=210.150513m. Speed=0.000000m/h.</desc>
<speed>0.000000</speed>
</trkpt>
<trkpt lat="22.089645" lon="104.253654">
<ele>210.119263</ele>
<time>2011-04-27T03:51:51Z</time>
<desc>lat.=22.089645, lon.=104.253654, Alt.=210.119263m. Speed=0.000000m/h.</desc>
<speed>0.000000</speed>
</trkpt>
<trkpt lat="22.089645" lon="104.253654">
<ele>210.080200</ele>
<time>2011-04-27T03:51:56Z</time>
<desc>lat.=22.089645, lon.=104.253654, Alt.=210.080200m. Speed=0.036000m/h.</desc>
<speed>0.010000</speed>
</trkpt>
<trkpt lat="22.089645" lon="104.253654">
<ele>210.021606</ele>
<time>2011-04-27T03:52:01Z</time>
<desc>lat.=22.089645, lon.=104.253654, Alt.=210.021606m. Speed=0.036000m/h.</desc>
<speed>0.010000</speed>
</trkpt>
<trkpt lat="22.089645" lon="104.253654">
<ele>209.982544</ele>
<time>2011-04-27T03:52:06Z</time>
<desc>lat.=22.089645, lon.=104.253654, Alt.=209.982544m. Speed=0.036000m/h.</desc>
<speed>0.010000</speed>
</trkpt>
<trkpt lat="22.089645" lon="104.253654">
<ele>209.943481</ele>
<time>2011-04-27T03:52:11Z</time>
<desc>lat.=22.089645, lon.=104.253654, Alt.=209.943481m. Speed=0.000000m/h.</desc>
<speed>0.000000</speed>
</trkpt>
<trkpt lat="22.089645" lon="104.253654">
<ele>209.904419</ele>
<time>2011-04-27T03:52:16Z</time>
<desc>lat.=22.089645, lon.=104.253654, Alt.=209.904419m. Speed=0.000000m/h.</desc>
<speed>0.000000</speed>
</trkpt>
<trkpt lat="22.089643" lon="104.253654">
<ele>209.849731</ele>
<time>2011-04-27T03:52:21Z</time>
<desc>lat.=22.089643, lon.=104.253654, Alt.=209.849731m. Speed=0.000000m/h.</desc>
<speed>0.000000</speed>
</trkpt>
<trkpt lat="22.089643" lon="104.253654">
<ele>209.791138</ele>
<time>2011-04-27T03:52:26Z</time>
<desc>lat.=22.089643, lon.=104.253654, Alt.=209.791138m. Speed=0.000000m/h.</desc>
<speed>0.000000</speed>
</trkpt>
<trkpt lat="22.089643" lon="104.253654">
<ele>209.752075</ele>
<time>2011-04-27T03:52:31Z</time>
<desc>lat.=22.089643, lon.=104.253654, Alt.=209.752075m. Speed=0.000000m/h.</desc>
<speed>0.000000</speed>
</trkpt>
<trkpt lat="22.089643" lon="104.253654">
<ele>209.720825</ele>
<time>2011-04-27T03:52:36Z</time>
<desc>lat.=22.089643, lon.=104.253654, Alt.=209.720825m. Speed=0.000000m/h.</desc>
<speed>0.000000</speed>
</trkpt>
<trkpt lat="22.089643" lon="104.253654">
<ele>209.697388</ele>
<time>2011-04-27T03:52:41Z</time>
<desc>lat.=22.089643, lon.=104.253654, Alt.=209.697388m. Speed=0.000000m/h.</desc>
<speed>0.000000</speed>
</trkpt>
<trkpt lat="22.089643" lon="104.253654">
<ele>209.666138</ele>
<time>2011-04-27T03:52:46Z</time>
<desc>lat.=22.089643, lon.=104.253654, Alt.=209.666138m. Speed=0.000000m/h.</desc>
<speed>0.000000</speed>
</trkpt>
<trkpt lat="22.089643" lon="104.253654">
<ele>209.627075</ele>
<time>2011-04-27T03:52:51Z</time>
<desc>lat.=22.089643, lon.=104.253654, Alt.=209.627075m. Speed=0.000000m/h.</desc>
<speed>0.000000</speed>
</trkpt>
<trkpt lat="22.089643" lon="104.253654">
<ele>209.595825</ele>
<time>2011-04-27T03:52:56Z</time>
<desc>lat.=22.089643, lon.=104.253654, Alt.=209.595825m. Speed=0.000000m/h.</desc>
<speed>0.000000</speed>
</trkpt>
<trkpt lat="22.089643" lon="104.253654">
<ele>209.568481</ele>
<time>2011-04-27T03:53:01Z</time>
<desc>lat.=22.089643, lon.=104.253654, Alt.=209.568481m. Speed=0.000000m/h.</desc>
<speed>0.000000</speed>
</trkpt>
<trkpt lat="22.089642" lon="104.253654">
<ele>209.529419</ele>
<time>2011-04-27T03:53:06Z</time>
<desc>lat.=22.089642, lon.=104.253654, Alt.=209.529419m. Speed=0.000000m/h.</desc>
<speed>0.000000</speed>
</trkpt>
<trkpt lat="22.089642" lon="104.253654">
<ele>209.474731</ele>
<time>2011-04-27T03:53:11Z</time>
<desc>lat.=22.089642, lon.=104.253654, Alt.=209.474731m. Speed=0.000000m/h.</desc>
<speed>0.000000</speed>
</trkpt>
<trkpt lat="22.089642" lon="104.253654">
<ele>209.412231</ele>
<time>2011-04-27T03:53:16Z</time>
<desc>lat.=22.089642, lon.=104.253654, Alt.=209.412231m. Speed=0.000000m/h.</desc>
<speed>0.000000</speed>
</trkpt>
<trkpt lat="22.089642" lon="104.253654">
<ele>209.365356</ele>
<time>2011-04-27T03:53:21Z</time>
<desc>lat.=22.089642, lon.=104.253654, Alt.=209.365356m. Speed=0.036000m/h.</desc>
<speed>0.010000</speed>
</trkpt>
<trkpt lat="22.089642" lon="104.253654">
<ele>209.306763</ele>
<time>2011-04-27T03:53:26Z</time>
<desc>lat.=22.089642, lon.=104.253654, Alt.=209.306763m. Speed=0.000000m/h.</desc>
<speed>0.000000</speed>
</trkpt>
<trkpt lat="22.089642" lon="104.253654">
<ele>209.271606</ele>
<time>2011-04-27T03:53:31Z</time>
<desc>lat.=22.089642, lon.=104.253654, Alt.=209.271606m. Speed=0.000000m/h.</desc>
<speed>0.000000</speed>
</trkpt>
<trkpt lat="22.089642" lon="104.253654">
<ele>209.252075</ele>
<time>2011-04-27T03:53:36Z</time>
<desc>lat.=22.089642, lon.=104.253654, Alt.=209.252075m. Speed=0.000000m/h.</desc>
<speed>0.000000</speed>
</trkpt>
<trkpt lat="22.089642" lon="104.253662">
<ele>209.232544</ele>
<time>2011-04-27T03:53:41Z</time>
<desc>lat.=22.089642, lon.=104.253662, Alt.=209.232544m. Speed=0.000000m/h.</desc>
<speed>0.000000</speed>
</trkpt>
<trkpt lat="22.089642" lon="104.253662">
<ele>209.224731</ele>
<time>2011-04-27T03:53:46Z</time>
<desc>lat.=22.089642, lon.=104.253662, Alt.=209.224731m. Speed=0.000000m/h.</desc>
<speed>0.000000</speed>
</trkpt>
<trkpt lat="22.089642" lon="104.253662">
<ele>209.216919</ele>
<time>2011-04-27T03:53:51Z</time>
<desc>lat.=22.089642, lon.=104.253662, Alt.=209.216919m. Speed=0.000000m/h.</desc>
<speed>0.000000</speed>
</trkpt>
<trkpt lat="22.089642" lon="104.253662">
<ele>209.213013</ele>
<time>2011-04-27T03:53:56Z</time>
<desc>lat.=22.089642, lon.=104.253662, Alt.=209.213013m. Speed=0.000000m/h.</desc>
<speed>0.000000</speed>
</trkpt>
<trkpt lat="22.089642" lon="104.253662">
<ele>209.177856</ele>
<time>2011-04-27T03:54:01Z</time>
<desc>lat.=22.089642, lon.=104.253662, Alt.=209.177856m. Speed=0.000000m/h.</desc>
<speed>0.000000</speed>
</trkpt>
<trkpt lat="22.089642" lon="104.253662">
<ele>209.134888</ele>
<time>2011-04-27T03:54:06Z</time>
<desc>lat.=22.089642, lon.=104.253662, Alt.=209.134888m. Speed=0.000000m/h.</desc>
<speed>0.000000</speed>
</trkpt>
<trkpt lat="22.089640" lon="104.253662">
<ele>209.095825</ele>
<time>2011-04-27T03:54:11Z</time>
<desc>lat.=22.089640, lon.=104.253662, Alt.=209.095825m. Speed=0.000000m/h.</desc>
<speed>0.000000</speed>
</trkpt>
<trkpt lat="22.089640" lon="104.253662">
<ele>209.041138</ele>
<time>2011-04-27T03:54:16Z</time>
<desc>lat.=22.089640, lon.=104.253662, Alt.=209.041138m. Speed=0.000000m/h.</desc>
<speed>0.000000</speed>
</trkpt>
<trkpt lat="22.089640" lon="104.253662">
<ele>209.013794</ele>
<time>2011-04-27T03:54:21Z</time>
<desc>lat.=22.089640, lon.=104.253662, Alt.=209.013794m. Speed=0.000000m/h.</desc>
<speed>0.000000</speed>
</trkpt>
<trkpt lat="22.089640" lon="104.253662">
<ele>208.982544</ele>
<time>2011-04-27T03:54:26Z</time>
<desc>lat.=22.089640, lon.=104.253662, Alt.=208.982544m. Speed=0.000000m/h.</desc>
<speed>0.000000</speed>
</trkpt>
<trkpt lat="22.089640" lon="104.253662">
<ele>208.947388</ele>
<time>2011-04-27T03:54:31Z</time>
<desc>lat.=22.089640, lon.=104.253662, Alt.=208.947388m. Speed=0.036000m/h.</desc>
<speed>0.010000</speed>
</trkpt>
<trkpt lat="22.089640" lon="104.253662">
<ele>208.923950</ele>
<time>2011-04-27T03:54:36Z</time>
<desc>lat.=22.089640, lon.=104.253662, Alt.=208.923950m. Speed=0.036000m/h.</desc>
<speed>0.010000</speed>
</trkpt>
<trkpt lat="22.089640" lon="104.253662">
<ele>208.904419</ele>
<time>2011-04-27T03:54:41Z</time>
<desc>lat.=22.089640, lon.=104.253662, Alt.=208.904419m. Speed=0.000000m/h.</desc>
<speed>0.000000</speed>
</trkpt>
<trkpt lat="22.089640" lon="104.253662">
<ele>208.892700</ele>
<time>2011-04-27T03:54:46Z</time>
<desc>lat.=22.089640, lon.=104.253662, Alt.=208.892700m. Speed=0.000000m/h.</desc>
<speed>0.000000</speed>
</trkpt>
<trkpt lat="22.089640" lon="104.253662">
<ele>208.888794</ele>
<time>2011-04-27T03:54:51Z</time>
<desc>lat.=22.089640, lon.=104.253662, Alt.=208.888794m. Speed=0.036000m/h.</desc>
<speed>0.010000</speed>
</trkpt>
<trkpt lat="22.089640" lon="104.253662">
<ele>208.865356</ele>
<time>2011-04-27T03:54:56Z</time>
<desc>lat.=22.089640, lon.=104.253662, Alt.=208.865356m. Speed=0.000000m/h.</desc>
<speed>0.000000</speed>
</trkpt>
<trkpt lat="22.089640" lon="104.253662">
<ele>208.849731</ele>
<time>2011-04-27T03:55:01Z</time>
<desc>lat.=22.089640, lon.=104.253662, Alt.=208.849731m. Speed=0.000000m/h.</desc>
<speed>0.000000</speed>
</trkpt>
<trkpt lat="22.089640" lon="104.253662">
<ele>208.834106</ele>
<time>2011-04-27T03:55:06Z</time>
<desc>lat.=22.089640, lon.=104.253662, Alt.=208.834106m. Speed=0.036000m/h.</desc>
<speed>0.010000</speed>
</trkpt>
<trkpt lat="22.089640" lon="104.253662">
<ele>208.798950</ele>
<time>2011-04-27T03:55:11Z</time>
<desc>lat.=22.089640, lon.=104.253662, Alt.=208.798950m. Speed=0.000000m/h.</desc>
<speed>0.000000</speed>
</trkpt>
<trkpt lat="22.089638" lon="104.253662">
<ele>208.763794</ele>
<time>2011-04-27T03:55:16Z</time>
<desc>lat.=22.089638, lon.=104.253662, Alt.=208.763794m. Speed=0.036000m/h.</desc>
<speed>0.010000</speed>
</trkpt>
<trkpt lat="22.089638" lon="104.253662">
<ele>208.716919</ele>
<time>2011-04-27T03:55:21Z</time>
<desc>lat.=22.089638, lon.=104.253662, Alt.=208.716919m. Speed=0.000000m/h.</desc>
<speed>0.000000</speed>
</trkpt>
<trkpt lat="22.089638" lon="104.253662">
<ele>208.693481</ele>
<time>2011-04-27T03:55:26Z</time>
<desc>lat.=22.089638, lon.=104.253662, Alt.=208.693481m. Speed=0.036000m/h.</desc>
<speed>0.010000</speed>
</trkpt>
<trkpt lat="22.089638" lon="104.253662">
<ele>208.666138</ele>
<time>2011-04-27T03:55:31Z</time>
<desc>lat.=22.089638, lon.=104.253662, Alt.=208.666138m. Speed=0.036000m/h.</desc>
<speed>0.010000</speed>
</trkpt>
<trkpt lat="22.089638" lon="104.253662">
<ele>208.646606</ele>
<time>2011-04-27T03:55:36Z</time>
<desc>lat.=22.089638, lon.=104.253662, Alt.=208.646606m. Speed=0.036000m/h.</desc>
<speed>0.010000</speed>
</trkpt>
<trkpt lat="22.089638" lon="104.253662">
<ele>208.619263</ele>
<time>2011-04-27T03:55:41Z</time>
<desc>lat.=22.089638, lon.=104.253662, Alt.=208.619263m. Speed=0.000000m/h.</desc>
<speed>0.000000</speed>
</trkpt>
<trkpt lat="22.089638" lon="104.253662">
<ele>208.591919</ele>
<time>2011-04-27T03:55:46Z</time>
<desc>lat.=22.089638, lon.=104.253662, Alt.=208.591919m. Speed=0.000000m/h.</desc>
<speed>0.000000</speed>
</trkpt>
<trkpt lat="22.089638" lon="104.253662">
<ele>208.572388</ele>
<time>2011-04-27T03:55:51Z</time>
<desc>lat.=22.089638, lon.=104.253662, Alt.=208.572388m. Speed=0.000000m/h.</desc>
<speed>0.000000</speed>
</trkpt>
<trkpt lat="22.089638" lon="104.253662">
<ele>208.552856</ele>
<time>2011-04-27T03:55:56Z</time>
<desc>lat.=22.089638, lon.=104.253662, Alt.=208.552856m. Speed=0.036000m/h.</desc>
<speed>0.010000</speed>
</trkpt>
<trkpt lat="22.089638" lon="104.253662">
<ele>208.548950</ele>
<time>2011-04-27T03:56:01Z</time>
<desc>lat.=22.089638, lon.=104.253662, Alt.=208.548950m. Speed=0.036000m/h.</desc>
<speed>0.010000</speed>
</trkpt>
<trkpt lat="22.089638" lon="104.253662">
<ele>208.564575</ele>
<time>2011-04-27T03:56:06Z</time>
<desc>lat.=22.089638, lon.=104.253662, Alt.=208.564575m. Speed=0.036000m/h.</desc>
<speed>0.010000</speed>
</trkpt>
<trkpt lat="22.089638" lon="104.253662">
<ele>208.580200</ele>
<time>2011-04-27T03:56:11Z</time>
<desc>lat.=22.089638, lon.=104.253662, Alt.=208.580200m. Speed=0.036000m/h.</desc>
<speed>0.010000</speed>
</trkpt>
<trkpt lat="22.089638" lon="104.253662">
<ele>208.595825</ele>
<time>2011-04-27T03:56:16Z</time>
<desc>lat.=22.089638, lon.=104.253662, Alt.=208.595825m. Speed=0.000000m/h.</desc>
<speed>0.000000</speed>
</trkpt>
<trkpt lat="22.089638" lon="104.253662">
<ele>208.607544</ele>
<time>2011-04-27T03:56:21Z</time>
<desc>lat.=22.089638, lon.=104.253662, Alt.=208.607544m. Speed=0.000000m/h.</desc>
<speed>0.000000</speed>
</trkpt>
<trkpt lat="22.089638" lon="104.253662">
<ele>208.603638</ele>
<time>2011-04-27T03:56:26Z</time>
<desc>lat.=22.089638, lon.=104.253662, Alt.=208.603638m. Speed=0.000000m/h.</desc>
<speed>0.000000</speed>
</trkpt>
<trkpt lat="22.089638" lon="104.253662">
<ele>208.615356</ele>
<time>2011-04-27T03:56:31Z</time>
<desc>lat.=22.089638, lon.=104.253662, Alt.=208.615356m. Speed=0.000000m/h.</desc>
<speed>0.000000</speed>
</trkpt>
<trkpt lat="22.089638" lon="104.253662">
<ele>208.619263</ele>
<time>2011-04-27T03:56:36Z</time>
<desc>lat.=22.089638, lon.=104.253662, Alt.=208.619263m. Speed=0.000000m/h.</desc>
<speed>0.000000</speed>
</trkpt>
<trkpt lat="22.089638" lon="104.253662">
<ele>208.623169</ele>
<time>2011-04-27T03:56:41Z</time>
<desc>lat.=22.089638, lon.=104.253662, Alt.=208.623169m. Speed=0.000000m/h.</desc>
<speed>0.000000</speed>
</trkpt>
<trkpt lat="22.089638" lon="104.253662">
<ele>208.654419</ele>
<time>2011-04-27T03:56:46Z</time>
<desc>lat.=22.089638, lon.=104.253662, Alt.=208.654419m. Speed=0.036000m/h.</desc>
<speed>0.010000</speed>
</trkpt>
<trkpt lat="22.089638" lon="104.253662">
<ele>208.662231</ele>
<time>2011-04-27T03:56:51Z</time>
<desc>lat.=22.089638, lon.=104.253662, Alt.=208.662231m. Speed=0.000000m/h.</desc>
<speed>0.000000</speed>
</trkpt>
<trkpt lat="22.089638" lon="104.253662">
<ele>208.673950</ele>
<time>2011-04-27T03:56:56Z</time>
<desc>lat.=22.089638, lon.=104.253662, Alt.=208.673950m. Speed=0.000000m/h.</desc>
<speed>0.000000</speed>
</trkpt>
<trkpt lat="22.089638" lon="104.253662">
<ele>208.701294</ele>
<time>2011-04-27T03:57:01Z</time>
<desc>lat.=22.089638, lon.=104.253662, Alt.=208.701294m. Speed=0.036000m/h.</desc>
<speed>0.010000</speed>
</trkpt>
<trkpt lat="22.089636" lon="104.253662">
<ele>208.720825</ele>
<time>2011-04-27T03:57:06Z</time>
<desc>lat.=22.089636, lon.=104.253662, Alt.=208.720825m. Speed=0.000000m/h.</desc>
<speed>0.000000</speed>
</trkpt>
<trkpt lat="22.089636" lon="104.253662">
<ele>208.724731</ele>
<time>2011-04-27T03:57:11Z</time>
<desc>lat.=22.089636, lon.=104.253662, Alt.=208.724731m. Speed=0.000000m/h.</desc>
<speed>0.000000</speed>
</trkpt>
<trkpt lat="22.089636" lon="104.253662">
<ele>208.732544</ele>
<time>2011-04-27T03:57:16Z</time>
<desc>lat.=22.089636, lon.=104.253662, Alt.=208.732544m. Speed=0.000000m/h.</desc>
<speed>0.000000</speed>
</trkpt>
<trkpt lat="22.089636" lon="104.253662">
<ele>208.740356</ele>
<time>2011-04-27T03:57:21Z</time>
<desc>lat.=22.089636, lon.=104.253662, Alt.=208.740356m. Speed=0.000000m/h.</desc>
<speed>0.000000</speed>
</trkpt>
<trkpt lat="22.089636" lon="104.253662">
<ele>208.748169</ele>
<time>2011-04-27T03:57:26Z</time>
<desc>lat.=22.089636, lon.=104.253662, Alt.=208.748169m. Speed=0.000000m/h.</desc>
<speed>0.000000</speed>
</trkpt>
<trkpt lat="22.089636" lon="104.253662">
<ele>208.748169</ele>
<time>2011-04-27T03:57:31Z</time>
<desc>lat.=22.089636, lon.=104.253662, Alt.=208.748169m. Speed=0.036000m/h.</desc>
<speed>0.010000</speed>
</trkpt>
<trkpt lat="22.089636" lon="104.253662">
<ele>208.752075</ele>
<time>2011-04-27T03:57:36Z</time>
<desc>lat.=22.089636, lon.=104.253662, Alt.=208.752075m. Speed=0.000000m/h.</desc>
<speed>0.000000</speed>
</trkpt>
<trkpt lat="22.089636" lon="104.253662">
<ele>208.755981</ele>
<time>2011-04-27T03:57:41Z</time>
<desc>lat.=22.089636, lon.=104.253662, Alt.=208.755981m. Speed=0.000000m/h.</desc>
<speed>0.000000</speed>
</trkpt>
<trkpt lat="22.089636" lon="104.253662">
<ele>208.763794</ele>
<time>2011-04-27T03:57:46Z</time>
<desc>lat.=22.089636, lon.=104.253662, Alt.=208.763794m. Speed=0.000000m/h.</desc>
<speed>0.000000</speed>
</trkpt>
<trkpt lat="22.089636" lon="104.253662">
<ele>208.771606</ele>
<time>2011-04-27T03:57:51Z</time>
<desc>lat.=22.089636, lon.=104.253662, Alt.=208.771606m. Speed=0.000000m/h.</desc>
<speed>0.000000</speed>
</trkpt>
<trkpt lat="22.089636" lon="104.253662">
<ele>208.779419</ele>
<time>2011-04-27T03:57:56Z</time>
<desc>lat.=22.089636, lon.=104.253662, Alt.=208.779419m. Speed=0.036000m/h.</desc>
<speed>0.010000</speed>
</trkpt>
<trkpt lat="22.089636" lon="104.253662">
<ele>208.787231</ele>
<time>2011-04-27T03:58:01Z</time>
<desc>lat.=22.089636, lon.=104.253662, Alt.=208.787231m. Speed=0.072000m/h.</desc>
<speed>0.020000</speed>
</trkpt>
<trkpt lat="22.089636" lon="104.253662">
<ele>208.802856</ele>
<time>2011-04-27T03:58:06Z</time>
<desc>lat.=22.089636, lon.=104.253662, Alt.=208.802856m. Speed=0.036000m/h.</desc>
<speed>0.010000</speed>
</trkpt>
<trkpt lat="22.089636" lon="104.253662">
<ele>208.798950</ele>
<time>2011-04-27T03:58:11Z</time>
<desc>lat.=22.089636, lon.=104.253662, Alt.=208.798950m. Speed=0.072000m/h.</desc>
<speed>0.020000</speed>
</trkpt>
<trkpt lat="22.089636" lon="104.253662">
<ele>208.755981</ele>
<time>2011-04-27T03:58:16Z</time>
<desc>lat.=22.089636, lon.=104.253662, Alt.=208.755981m. Speed=0.000000m/h.</desc>
<speed>0.000000</speed>
</trkpt>
<trkpt lat="22.089636" lon="104.253662">
<ele>208.681763</ele>
<time>2011-04-27T03:58:21Z</time>
<desc>lat.=22.089636, lon.=104.253662, Alt.=208.681763m. Speed=0.108000m/h.</desc>
<speed>0.030000</speed>
</trkpt>
<trkpt lat="22.089636" lon="104.253662">
<ele>208.642700</ele>
<time>2011-04-27T03:58:26Z</time>
<desc>lat.=22.089636, lon.=104.253662, Alt.=208.642700m. Speed=0.000000m/h.</desc>
<speed>0.000000</speed>
</trkpt>
<trkpt lat="22.089636" lon="104.253662">
<ele>208.642700</ele>
<time>2011-04-27T03:58:31Z</time>
<desc>lat.=22.089636, lon.=104.253662, Alt.=208.642700m. Speed=0.000000m/h.</desc>
<speed>0.000000</speed>
</trkpt>
<trkpt lat="22.089636" lon="104.253662">
<ele>208.658325</ele>
<time>2011-04-27T03:58:36Z</time>
<desc>lat.=22.089636, lon.=104.253662, Alt.=208.658325m. Speed=0.000000m/h.</desc>
<speed>0.000000</speed>
</trkpt>
<trkpt lat="22.089636" lon="104.253662">
<ele>208.666138</ele>
<time>2011-04-27T03:58:41Z</time>
<desc>lat.=22.089636, lon.=104.253662, Alt.=208.666138m. Speed=0.000000m/h.</desc>
<speed>0.000000</speed>
</trkpt>
<trkpt lat="22.089636" lon="104.253662">
<ele>208.666138</ele>
<time>2011-04-27T03:58:46Z</time>
<desc>lat.=22.089636, lon.=104.253662, Alt.=208.666138m. Speed=0.036000m/h.</desc>
<speed>0.010000</speed>
</trkpt>
<trkpt lat="22.089636" lon="104.253662">
<ele>208.662231</ele>
<time>2011-04-27T03:58:51Z</time>
<desc>lat.=22.089636, lon.=104.253662, Alt.=208.662231m. Speed=0.036000m/h.</desc>
<speed>0.010000</speed>
</trkpt>
<trkpt lat="22.089636" lon="104.253662">
<ele>208.670044</ele>
<time>2011-04-27T03:58:56Z</time>
<desc>lat.=22.089636, lon.=104.253662, Alt.=208.670044m. Speed=0.000000m/h.</desc>
<speed>0.000000</speed>
</trkpt>
<trkpt lat="22.089636" lon="104.253662">
<ele>208.670044</ele>
<time>2011-04-27T03:59:01Z</time>
<desc>lat.=22.089636, lon.=104.253662, Alt.=208.670044m. Speed=0.000000m/h.</desc>
<speed>0.000000</speed>
</trkpt>
<trkpt lat="22.089636" lon="104.253662">
<ele>208.681763</ele>
<time>2011-04-27T03:59:06Z</time>
<desc>lat.=22.089636, lon.=104.253662, Alt.=208.681763m. Speed=0.036000m/h.</desc>
<speed>0.010000</speed>
</trkpt>
<trkpt lat="22.089636" lon="104.253662">
<ele>208.685669</ele>
<time>2011-04-27T03:59:11Z</time>
<desc>lat.=22.089636, lon.=104.253662, Alt.=208.685669m. Speed=0.000000m/h.</desc>
<speed>0.000000</speed>
</trkpt>
<trkpt lat="22.089636" lon="104.253662">
<ele>208.697388</ele>
<time>2011-04-27T03:59:16Z</time>
<desc>lat.=22.089636, lon.=104.253662, Alt.=208.697388m. Speed=0.000000m/h.</desc>
<speed>0.000000</speed>
</trkpt>
<trkpt lat="22.089636" lon="104.253662">
<ele>208.697388</ele>
<time>2011-04-27T03:59:21Z</time>
<desc>lat.=22.089636, lon.=104.253662, Alt.=208.697388m. Speed=0.000000m/h.</desc>
<speed>0.000000</speed>
</trkpt>
<trkpt lat="22.089636" lon="104.253662">
<ele>208.685669</ele>
<time>2011-04-27T03:59:26Z</time>
<desc>lat.=22.089636, lon.=104.253662, Alt.=208.685669m. Speed=0.036000m/h.</desc>
<speed>0.010000</speed>
</trkpt>
<trkpt lat="22.089636" lon="104.253662">
<ele>208.677856</ele>
<time>2011-04-27T03:59:31Z</time>
<desc>lat.=22.089636, lon.=104.253662, Alt.=208.677856m. Speed=0.000000m/h.</desc>
<speed>0.000000</speed>
</trkpt>
<trkpt lat="22.089636" lon="104.253662">
<ele>208.666138</ele>
<time>2011-04-27T03:59:36Z</time>
<desc>lat.=22.089636, lon.=104.253662, Alt.=208.666138m. Speed=0.000000m/h.</desc>
<speed>0.000000</speed>
</trkpt>
<trkpt lat="22.089636" lon="104.253662">
<ele>208.650513</ele>
<time>2011-04-27T03:59:41Z</time>
<desc>lat.=22.089636, lon.=104.253662, Alt.=208.650513m. Speed=0.000000m/h.</desc>
<speed>0.000000</speed>
</trkpt>
<trkpt lat="22.089636" lon="104.253662">
<ele>208.646606</ele>
<time>2011-04-27T03:59:46Z</time>
<desc>lat.=22.089636, lon.=104.253662, Alt.=208.646606m. Speed=0.000000m/h.</desc>
<speed>0.000000</speed>
</trkpt>
<trkpt lat="22.089636" lon="104.253662">
<ele>208.646606</ele>
<time>2011-04-27T03:59:51Z</time>
<desc>lat.=22.089636, lon.=104.253662, Alt.=208.646606m. Speed=0.036000m/h.</desc>
<speed>0.010000</speed>
</trkpt>
<trkpt lat="22.089636" lon="104.253662">
<ele>208.642700</ele>
<time>2011-04-27T03:59:56Z</time>
<desc>lat.=22.089636, lon.=104.253662, Alt.=208.642700m. Speed=0.000000m/h.</desc>
<speed>0.000000</speed>
</trkpt>
<trkpt lat="22.089636" lon="104.253662">
<ele>208.634888</ele>
<time>2011-04-27T04:00:01Z</time>
<desc>lat.=22.089636, lon.=104.253662, Alt.=208.634888m. Speed=0.000000m/h.</desc>
<speed>0.000000</speed>
</trkpt>
<trkpt lat="22.089636" lon="104.253662">
<ele>208.627075</ele>
<time>2011-04-27T04:00:06Z</time>
<desc>lat.=22.089636, lon.=104.253662, Alt.=208.627075m. Speed=0.000000m/h.</desc>
<speed>0.000000</speed>
</trkpt>
<trkpt lat="22.089636" lon="104.253662">
<ele>208.623169</ele>
<time>2011-04-27T04:00:11Z</time>
<desc>lat.=22.089636, lon.=104.253662, Alt.=208.623169m. Speed=0.000000m/h.</desc>
<speed>0.000000</speed>
</trkpt>
<trkpt lat="22.089636" lon="104.253662">
<ele>208.611450</ele>
<time>2011-04-27T04:00:16Z</time>
<desc>lat.=22.089636, lon.=104.253662, Alt.=208.611450m. Speed=0.036000m/h.</desc>
<speed>0.010000</speed>
</trkpt>
<trkpt lat="22.089636" lon="104.253662">
<ele>208.607544</ele>
<time>2011-04-27T04:00:21Z</time>
<desc>lat.=22.089636, lon.=104.253662, Alt.=208.607544m. Speed=0.000000m/h.</desc>
<speed>0.000000</speed>
</trkpt>
<trkpt lat="22.089636" lon="104.253662">
<ele>208.603638</ele>
<time>2011-04-27T04:00:26Z</time>
<desc>lat.=22.089636, lon.=104.253662, Alt.=208.603638m. Speed=0.036000m/h.</desc>
<speed>0.010000</speed>
</trkpt>
<trkpt lat="22.089636" lon="104.253662">
<ele>208.591919</ele>
<time>2011-04-27T04:00:31Z</time>
<desc>lat.=22.089636, lon.=104.253662, Alt.=208.591919m. Speed=0.000000m/h.</desc>
<speed>0.000000</speed>
</trkpt>
<trkpt lat="22.089636" lon="104.253662">
<ele>208.580200</ele>
<time>2011-04-27T04:00:36Z</time>
<desc>lat.=22.089636, lon.=104.253662, Alt.=208.580200m. Speed=0.000000m/h.</desc>
<speed>0.000000</speed>
</trkpt>
<trkpt lat="22.089636" lon="104.253662">
<ele>208.576294</ele>
<time>2011-04-27T04:00:41Z</time>
<desc>lat.=22.089636, lon.=104.253662, Alt.=208.576294m. Speed=0.036000m/h.</desc>
<speed>0.010000</speed>
</trkpt>
<trkpt lat="22.089636" lon="104.253662">
<ele>208.584106</ele>
<time>2011-04-27T04:00:46Z</time>
<desc>lat.=22.089636, lon.=104.253662, Alt.=208.584106m. Speed=0.000000m/h.</desc>
<speed>0.000000</speed>
</trkpt>
<trkpt lat="22.089636" lon="104.253662">
<ele>208.568481</ele>
<time>2011-04-27T04:00:51Z</time>
<desc>lat.=22.089636, lon.=104.253662, Alt.=208.568481m. Speed=0.036000m/h.</desc>
<speed>0.010000</speed>
</trkpt>
<trkpt lat="22.089636" lon="104.253662">
<ele>208.552856</ele>
<time>2011-04-27T04:00:56Z</time>
<desc>lat.=22.089636, lon.=104.253662, Alt.=208.552856m. Speed=0.000000m/h.</desc>
<speed>0.000000</speed>
</trkpt>
<trkpt lat="22.089636" lon="104.253662">
<ele>208.541138</ele>
<time>2011-04-27T04:01:01Z</time>
<desc>lat.=22.089636, lon.=104.253662, Alt.=208.541138m. Speed=0.000000m/h.</desc>
<speed>0.000000</speed>
</trkpt>
<trkpt lat="22.089636" lon="104.253662">
<ele>208.521606</ele>
<time>2011-04-27T04:01:06Z</time>
<desc>lat.=22.089636, lon.=104.253662, Alt.=208.521606m. Speed=0.036000m/h.</desc>
<speed>0.010000</speed>
</trkpt>
<trkpt lat="22.089636" lon="104.253662">
<ele>208.498169</ele>
<time>2011-04-27T04:01:11Z</time>
<desc>lat.=22.089636, lon.=104.253662, Alt.=208.498169m. Speed=0.036000m/h.</desc>
<speed>0.010000</speed>
</trkpt>
<trkpt lat="22.089636" lon="104.253662">
<ele>208.482544</ele>
<time>2011-04-27T04:01:16Z</time>
<desc>lat.=22.089636, lon.=104.253662, Alt.=208.482544m. Speed=0.000000m/h.</desc>
<speed>0.000000</speed>
</trkpt>
<trkpt lat="22.089636" lon="104.253670">
<ele>208.478638</ele>
<time>2011-04-27T04:01:21Z</time>
<desc>lat.=22.089636, lon.=104.253670, Alt.=208.478638m. Speed=0.036000m/h.</desc>
<speed>0.010000</speed>
</trkpt>
<trkpt lat="22.089636" lon="104.253670">
<ele>208.466919</ele>
<time>2011-04-27T04:01:26Z</time>
<desc>lat.=22.089636, lon.=104.253670, Alt.=208.466919m. Speed=0.036000m/h.</desc>
<speed>0.010000</speed>
</trkpt>
<trkpt lat="22.089636" lon="104.253670">
<ele>208.478638</ele>
<time>2011-04-27T04:01:31Z</time>
<desc>lat.=22.089636, lon.=104.253670, Alt.=208.478638m. Speed=0.000000m/h.</desc>
<speed>0.000000</speed>
</trkpt>
<trkpt lat="22.089636" lon="104.253670">
<ele>208.474731</ele>
<time>2011-04-27T04:01:36Z</time>
<desc>lat.=22.089636, lon.=104.253670, Alt.=208.474731m. Speed=0.000000m/h.</desc>
<speed>0.000000</speed>
</trkpt>
<trkpt lat="22.089636" lon="104.253670">
<ele>208.470825</ele>
<time>2011-04-27T04:01:41Z</time>
<desc>lat.=22.089636, lon.=104.253670, Alt.=208.470825m. Speed=0.000000m/h.</desc>
<speed>0.000000</speed>
</trkpt>
<trkpt lat="22.089636" lon="104.253670">
<ele>208.466919</ele>
<time>2011-04-27T04:01:46Z</time>
<desc>lat.=22.089636, lon.=104.253670, Alt.=208.466919m. Speed=0.000000m/h.</desc>
<speed>0.000000</speed>
</trkpt>
<trkpt lat="22.089636" lon="104.253670">
<ele>208.466919</ele>
<time>2011-04-27T04:01:51Z</time>
<desc>lat.=22.089636, lon.=104.253670, Alt.=208.466919m. Speed=0.000000m/h.</desc>
<speed>0.000000</speed>
</trkpt>
<trkpt lat="22.089636" lon="104.253670">
<ele>208.494263</ele>
<time>2011-04-27T04:01:56Z</time>
<desc>lat.=22.089636, lon.=104.253670, Alt.=208.494263m. Speed=0.000000m/h.</desc>
<speed>0.000000</speed>
</trkpt>
<trkpt lat="22.089636" lon="104.253670">
<ele>208.545044</ele>
<time>2011-04-27T04:02:01Z</time>
<desc>lat.=22.089636, lon.=104.253670, Alt.=208.545044m. Speed=0.036000m/h.</desc>
<speed>0.010000</speed>
</trkpt>
<trkpt lat="22.089634" lon="104.253670">
<ele>208.595825</ele>
<time>2011-04-27T04:02:06Z</time>
<desc>lat.=22.089634, lon.=104.253670, Alt.=208.595825m. Speed=0.036000m/h.</desc>
<speed>0.010000</speed>
</trkpt>
<trkpt lat="22.089634" lon="104.253670">
<ele>208.619263</ele>
<time>2011-04-27T04:02:11Z</time>
<desc>lat.=22.089634, lon.=104.253670, Alt.=208.619263m. Speed=0.036000m/h.</desc>
<speed>0.010000</speed>
</trkpt>
<trkpt lat="22.089634" lon="104.253670">
<ele>208.595825</ele>
<time>2011-04-27T04:02:16Z</time>
<desc>lat.=22.089634, lon.=104.253670, Alt.=208.595825m. Speed=0.000000m/h.</desc>
<speed>0.000000</speed>
</trkpt>
<trkpt lat="22.089634" lon="104.253670">
<ele>208.595825</ele>
<time>2011-04-27T04:02:21Z</time>
<desc>lat.=22.089634, lon.=104.253670, Alt.=208.595825m. Speed=0.036000m/h.</desc>
<speed>0.010000</speed>
</trkpt>
<trkpt lat="22.089634" lon="104.253670">
<ele>208.580200</ele>
<time>2011-04-27T04:02:26Z</time>
<desc>lat.=22.089634, lon.=104.253670, Alt.=208.580200m. Speed=0.036000m/h.</desc>
<speed>0.010000</speed>
</trkpt>
<trkpt lat="22.089634" lon="104.253670">
<ele>208.560669</ele>
<time>2011-04-27T04:02:31Z</time>
<desc>lat.=22.089634, lon.=104.253670, Alt.=208.560669m. Speed=0.036000m/h.</desc>
<speed>0.010000</speed>
</trkpt>
<trkpt lat="22.089634" lon="104.253670">
<ele>208.537231</ele>
<time>2011-04-27T04:02:36Z</time>
<desc>lat.=22.089634, lon.=104.253670, Alt.=208.537231m. Speed=0.036000m/h.</desc>
<speed>0.010000</speed>
</trkpt>
<trkpt lat="22.089634" lon="104.253670">
<ele>208.486450</ele>
<time>2011-04-27T04:02:41Z</time>
<desc>lat.=22.089634, lon.=104.253670, Alt.=208.486450m. Speed=0.000000m/h.</desc>
<speed>0.000000</speed>
</trkpt>
<trkpt lat="22.089634" lon="104.253670">
<ele>208.435669</ele>
<time>2011-04-27T04:02:46Z</time>
<desc>lat.=22.089634, lon.=104.253670, Alt.=208.435669m. Speed=0.000000m/h.</desc>
<speed>0.000000</speed>
</trkpt>
<trkpt lat="22.089634" lon="104.253670">
<ele>208.412231</ele>
<time>2011-04-27T04:02:51Z</time>
<desc>lat.=22.089634, lon.=104.253670, Alt.=208.412231m. Speed=0.036000m/h.</desc>
<speed>0.010000</speed>
</trkpt>
<trkpt lat="22.089634" lon="104.253670">
<ele>208.380981</ele>
<time>2011-04-27T04:02:56Z</time>
<desc>lat.=22.089634, lon.=104.253670, Alt.=208.380981m. Speed=0.036000m/h.</desc>
<speed>0.010000</speed>
</trkpt>
<trkpt lat="22.089634" lon="104.253670">
<ele>208.361450</ele>
<time>2011-04-27T04:03:01Z</time>
<desc>lat.=22.089634, lon.=104.253670, Alt.=208.361450m. Speed=0.036000m/h.</desc>
<speed>0.010000</speed>
</trkpt>
<trkpt lat="22.089634" lon="104.253670">
<ele>208.341919</ele>
<time>2011-04-27T04:03:06Z</time>
<desc>lat.=22.089634, lon.=104.253670, Alt.=208.341919m. Speed=0.036000m/h.</desc>
<speed>0.010000</speed>
</trkpt>
<trkpt lat="22.089634" lon="104.253670">
<ele>208.357544</ele>
<time>2011-04-27T04:03:11Z</time>
<desc>lat.=22.089634, lon.=104.253670, Alt.=208.357544m. Speed=0.036000m/h.</desc>
<speed>0.010000</speed>
</trkpt>
<trkpt lat="22.089634" lon="104.253670">
<ele>208.365356</ele>
<time>2011-04-27T04:03:16Z</time>
<desc>lat.=22.089634, lon.=104.253670, Alt.=208.365356m. Speed=0.036000m/h.</desc>
<speed>0.010000</speed>
</trkpt>
<trkpt lat="22.089634" lon="104.253670">
<ele>208.369263</ele>
<time>2011-04-27T04:03:21Z</time>
<desc>lat.=22.089634, lon.=104.253670, Alt.=208.369263m. Speed=0.036000m/h.</desc>
<speed>0.010000</speed>
</trkpt>
<trkpt lat="22.089634" lon="104.253670">
<ele>208.369263</ele>
<time>2011-04-27T04:03:26Z</time>
<desc>lat.=22.089634, lon.=104.253670, Alt.=208.369263m. Speed=0.036000m/h.</desc>
<speed>0.010000</speed>
</trkpt>
<trkpt lat="22.089634" lon="104.253670">
<ele>208.365356</ele>
<time>2011-04-27T04:03:31Z</time>
<desc>lat.=22.089634, lon.=104.253670, Alt.=208.365356m. Speed=0.036000m/h.</desc>
<speed>0.010000</speed>
</trkpt>
<trkpt lat="22.089634" lon="104.253670">
<ele>208.369263</ele>
<time>2011-04-27T04:03:36Z</time>
<desc>lat.=22.089634, lon.=104.253670, Alt.=208.369263m. Speed=0.000000m/h.</desc>
<speed>0.000000</speed>
</trkpt>
<trkpt lat="22.089634" lon="104.253670">
<ele>208.361450</ele>
<time>2011-04-27T04:03:41Z</time>
<desc>lat.=22.089634, lon.=104.253670, Alt.=208.361450m. Speed=0.000000m/h.</desc>
<speed>0.000000</speed>
</trkpt>
<trkpt lat="22.089634" lon="104.253670">
<ele>208.338013</ele>
<time>2011-04-27T04:03:46Z</time>
<desc>lat.=22.089634, lon.=104.253670, Alt.=208.338013m. Speed=0.000000m/h.</desc>
<speed>0.000000</speed>
</trkpt>
<trkpt lat="22.089634" lon="104.253670">
<ele>208.314575</ele>
<time>2011-04-27T04:03:51Z</time>
<desc>lat.=22.089634, lon.=104.253670, Alt.=208.314575m. Speed=0.036000m/h.</desc>
<speed>0.010000</speed>
</trkpt>
<trkpt lat="22.089634" lon="104.253670">
<ele>208.291138</ele>
<time>2011-04-27T04:03:56Z</time>
<desc>lat.=22.089634, lon.=104.253670, Alt.=208.291138m. Speed=0.000000m/h.</desc>
<speed>0.000000</speed>
</trkpt>
<trkpt lat="22.089634" lon="104.253670">
<ele>208.279419</ele>
<time>2011-04-27T04:04:01Z</time>
<desc>lat.=22.089634, lon.=104.253670, Alt.=208.279419m. Speed=0.000000m/h.</desc>
<speed>0.000000</speed>
</trkpt>
<trkpt lat="22.089634" lon="104.253670">
<ele>208.252075</ele>
<time>2011-04-27T04:04:06Z</time>
<desc>lat.=22.089634, lon.=104.253670, Alt.=208.252075m. Speed=0.000000m/h.</desc>
<speed>0.000000</speed>
</trkpt>
<trkpt lat="22.089634" lon="104.253670">
<ele>208.252075</ele>
<time>2011-04-27T04:04:11Z</time>
<desc>lat.=22.089634, lon.=104.253670, Alt.=208.252075m. Speed=0.000000m/h.</desc>
<speed>0.000000</speed>
</trkpt>
<trkpt lat="22.089634" lon="104.253670">
<ele>208.236450</ele>
<time>2011-04-27T04:04:16Z</time>
<desc>lat.=22.089634, lon.=104.253670, Alt.=208.236450m. Speed=0.036000m/h.</desc>
<speed>0.010000</speed>
</trkpt>
<trkpt lat="22.089634" lon="104.253670">
<ele>208.224731</ele>
<time>2011-04-27T04:04:21Z</time>
<desc>lat.=22.089634, lon.=104.253670, Alt.=208.224731m. Speed=0.000000m/h.</desc>
<speed>0.000000</speed>
</trkpt>
<trkpt lat="22.089634" lon="104.253670">
<ele>208.224731</ele>
<time>2011-04-27T04:04:26Z</time>
<desc>lat.=22.089634, lon.=104.253670, Alt.=208.224731m. Speed=0.000000m/h.</desc>
<speed>0.000000</speed>
</trkpt>
<trkpt lat="22.089634" lon="104.253670">
<ele>208.177856</ele>
<time>2011-04-27T04:04:31Z</time>
<desc>lat.=22.089634, lon.=104.253670, Alt.=208.177856m. Speed=0.000000m/h.</desc>
<speed>0.000000</speed>
</trkpt>
<trkpt lat="22.089634" lon="104.253670">
<ele>208.173950</ele>
<time>2011-04-27T04:04:36Z</time>
<desc>lat.=22.089634, lon.=104.253670, Alt.=208.173950m. Speed=0.072000m/h.</desc>
<speed>0.020000</speed>
</trkpt>
<trkpt lat="22.089634" lon="104.253670">
<ele>208.158325</ele>
<time>2011-04-27T04:04:41Z</time>
<desc>lat.=22.089634, lon.=104.253670, Alt.=208.158325m. Speed=0.036000m/h.</desc>
<speed>0.010000</speed>
</trkpt>
<trkpt lat="22.089634" lon="104.253670">
<ele>208.146606</ele>
<time>2011-04-27T04:04:46Z</time>
<desc>lat.=22.089634, lon.=104.253670, Alt.=208.146606m. Speed=0.000000m/h.</desc>
<speed>0.000000</speed>
</trkpt>
<trkpt lat="22.089634" lon="104.253670">
<ele>208.158325</ele>
<time>2011-04-27T04:04:51Z</time>
<desc>lat.=22.089634, lon.=104.253670, Alt.=208.158325m. Speed=0.072000m/h.</desc>
<speed>0.020000</speed>
</trkpt>
<trkpt lat="22.089634" lon="104.253670">
<ele>208.205200</ele>
<time>2011-04-27T04:04:56Z</time>
<desc>lat.=22.089634, lon.=104.253670, Alt.=208.205200m. Speed=0.000000m/h.</desc>
<speed>0.000000</speed>
</trkpt>
<trkpt lat="22.089634" lon="104.253670">
<ele>208.244263</ele>
<time>2011-04-27T04:05:01Z</time>
<desc>lat.=22.089634, lon.=104.253670, Alt.=208.244263m. Speed=0.036000m/h.</desc>
<speed>0.010000</speed>
</trkpt>
<trkpt lat="22.089634" lon="104.253670">
<ele>208.267700</ele>
<time>2011-04-27T04:05:06Z</time>
<desc>lat.=22.089634, lon.=104.253670, Alt.=208.267700m. Speed=0.216000m/h.</desc>
<speed>0.060000</speed>
</trkpt>
<trkpt lat="22.089634" lon="104.253670">
<ele>208.259888</ele>
<time>2011-04-27T04:05:11Z</time>
<desc>lat.=22.089634, lon.=104.253670, Alt.=208.259888m. Speed=0.000000m/h.</desc>
<speed>0.000000</speed>
</trkpt>
<trkpt lat="22.089634" lon="104.253670">
<ele>208.259888</ele>
<time>2011-04-27T04:05:16Z</time>
<desc>lat.=22.089634, lon.=104.253670, Alt.=208.259888m. Speed=0.036000m/h.</desc>
<speed>0.010000</speed>
</trkpt>
<trkpt lat="22.089634" lon="104.253670">
<ele>208.275513</ele>
<time>2011-04-27T04:05:21Z</time>
<desc>lat.=22.089634, lon.=104.253670, Alt.=208.275513m. Speed=0.036000m/h.</desc>
<speed>0.010000</speed>
</trkpt>
<trkpt lat="22.089634" lon="104.253670">
<ele>208.263794</ele>
<time>2011-04-27T04:05:26Z</time>
<desc>lat.=22.089634, lon.=104.253670, Alt.=208.263794m. Speed=0.000000m/h.</desc>
<speed>0.000000</speed>
</trkpt>
<trkpt lat="22.089634" lon="104.253670">
<ele>208.244263</ele>
<time>2011-04-27T04:05:31Z</time>
<desc>lat.=22.089634, lon.=104.253670, Alt.=208.244263m. Speed=0.036000m/h.</desc>
<speed>0.010000</speed>
</trkpt>
<trkpt lat="22.089632" lon="104.253670">
<ele>208.240356</ele>
<time>2011-04-27T04:05:36Z</time>
<desc>lat.=22.089632, lon.=104.253670, Alt.=208.240356m. Speed=0.000000m/h.</desc>
<speed>0.000000</speed>
</trkpt>
<trkpt lat="22.089632" lon="104.253670">
<ele>208.244263</ele>
<time>2011-04-27T04:05:41Z</time>
<desc>lat.=22.089632, lon.=104.253670, Alt.=208.244263m. Speed=0.036000m/h.</desc>
<speed>0.010000</speed>
</trkpt>
<trkpt lat="22.089632" lon="104.253670">
<ele>208.252075</ele>
<time>2011-04-27T04:05:46Z</time>
<desc>lat.=22.089632, lon.=104.253670, Alt.=208.252075m. Speed=0.000000m/h.</desc>
<speed>0.000000</speed>
</trkpt>
<trkpt lat="22.089632" lon="104.253670">
<ele>208.252075</ele>
<time>2011-04-27T04:05:51Z</time>
<desc>lat.=22.089632, lon.=104.253670, Alt.=208.252075m. Speed=0.000000m/h.</desc>
<speed>0.000000</speed>
</trkpt>
<trkpt lat="22.089632" lon="104.253670">
<ele>208.267700</ele>
<time>2011-04-27T04:05:56Z</time>
<desc>lat.=22.089632, lon.=104.253670, Alt.=208.267700m. Speed=0.072000m/h.</desc>
<speed>0.020000</speed>
</trkpt>
<trkpt lat="22.089630" lon="104.253670">
<ele>208.291138</ele>
<time>2011-04-27T04:06:01Z</time>
<desc>lat.=22.089630, lon.=104.253670, Alt.=208.291138m. Speed=0.000000m/h.</desc>
<speed>0.000000</speed>
</trkpt>
<trkpt lat="22.089630" lon="104.253670">
<ele>208.314575</ele>
<time>2011-04-27T04:06:06Z</time>
<desc>lat.=22.089630, lon.=104.253670, Alt.=208.314575m. Speed=0.036000m/h.</desc>
<speed>0.010000</speed>
</trkpt>
<trkpt lat="22.089630" lon="104.253670">
<ele>208.330200</ele>
<time>2011-04-27T04:06:11Z</time>
<desc>lat.=22.089630, lon.=104.253670, Alt.=208.330200m. Speed=0.000000m/h.</desc>
<speed>0.000000</speed>
</trkpt>
<trkpt lat="22.089630" lon="104.253670">
<ele>208.310669</ele>
<time>2011-04-27T04:06:16Z</time>
<desc>lat.=22.089630, lon.=104.253670, Alt.=208.310669m. Speed=0.036000m/h.</desc>
<speed>0.010000</speed>
</trkpt>
<trkpt lat="22.089630" lon="104.253670">
<ele>208.310669</ele>
<time>2011-04-27T04:06:21Z</time>
<desc>lat.=22.089630, lon.=104.253670, Alt.=208.310669m. Speed=0.000000m/h.</desc>
<speed>0.000000</speed>
</trkpt>
<trkpt lat="22.089630" lon="104.253670">
<ele>208.287231</ele>
<time>2011-04-27T04:06:26Z</time>
<desc>lat.=22.089630, lon.=104.253670, Alt.=208.287231m. Speed=0.000000m/h.</desc>
<speed>0.000000</speed>
</trkpt>
<trkpt lat="22.089628" lon="104.253670">
<ele>208.291138</ele>
<time>2011-04-27T04:06:31Z</time>
<desc>lat.=22.089628, lon.=104.253670, Alt.=208.291138m. Speed=0.108000m/h.</desc>
<speed>0.030000</speed>
</trkpt>
<trkpt lat="22.089628" lon="104.253670">
<ele>208.209106</ele>
<time>2011-04-27T04:06:36Z</time>
<desc>lat.=22.089628, lon.=104.253670, Alt.=208.209106m. Speed=0.036000m/h.</desc>
<speed>0.010000</speed>
</trkpt>
<trkpt lat="22.089628" lon="104.253670">
<ele>208.197388</ele>
<time>2011-04-27T04:06:41Z</time>
<desc>lat.=22.089628, lon.=104.253670, Alt.=208.197388m. Speed=0.036000m/h.</desc>
<speed>0.010000</speed>
</trkpt>
<trkpt lat="22.089628" lon="104.253670">
<ele>208.216919</ele>
<time>2011-04-27T04:06:46Z</time>
<desc>lat.=22.089628, lon.=104.253670, Alt.=208.216919m. Speed=0.000000m/h.</desc>
<speed>0.000000</speed>
</trkpt>
<trkpt lat="22.089628" lon="104.253670">
<ele>208.248169</ele>
<time>2011-04-27T04:06:51Z</time>
<desc>lat.=22.089628, lon.=104.253670, Alt.=208.248169m. Speed=0.036000m/h.</desc>
<speed>0.010000</speed>
</trkpt>
<trkpt lat="22.089628" lon="104.253670">
<ele>208.244263</ele>
<time>2011-04-27T04:06:56Z</time>
<desc>lat.=22.089628, lon.=104.253670, Alt.=208.244263m. Speed=0.000000m/h.</desc>
<speed>0.000000</speed>
</trkpt>
<trkpt lat="22.089626" lon="104.253670">
<ele>208.244263</ele>
<time>2011-04-27T04:07:01Z</time>
<desc>lat.=22.089626, lon.=104.253670, Alt.=208.244263m. Speed=0.072000m/h.</desc>
<speed>0.020000</speed>
</trkpt>
<trkpt lat="22.089626" lon="104.253670">
<ele>208.232544</ele>
<time>2011-04-27T04:07:06Z</time>
<desc>lat.=22.089626, lon.=104.253670, Alt.=208.232544m. Speed=0.036000m/h.</desc>
<speed>0.010000</speed>
</trkpt>
<trkpt lat="22.089626" lon="104.253670">
<ele>208.232544</ele>
<time>2011-04-27T04:07:11Z</time>
<desc>lat.=22.089626, lon.=104.253670, Alt.=208.232544m. Speed=0.036000m/h.</desc>
<speed>0.010000</speed>
</trkpt>
<trkpt lat="22.089626" lon="104.253670">
<ele>208.240356</ele>
<time>2011-04-27T04:07:16Z</time>
<desc>lat.=22.089626, lon.=104.253670, Alt.=208.240356m. Speed=0.000000m/h.</desc>
<speed>0.000000</speed>
</trkpt>
<trkpt lat="22.089626" lon="104.253670">
<ele>208.232544</ele>
<time>2011-04-27T04:07:21Z</time>
<desc>lat.=22.089626, lon.=104.253670, Alt.=208.232544m. Speed=0.000000m/h.</desc>
<speed>0.000000</speed>
</trkpt>
<trkpt lat="22.089626" lon="104.253670">
<ele>208.220825</ele>
<time>2011-04-27T04:07:26Z</time>
<desc>lat.=22.089626, lon.=104.253670, Alt.=208.220825m. Speed=0.000000m/h.</desc>
<speed>0.000000</speed>
</trkpt>
<trkpt lat="22.089626" lon="104.253670">
<ele>208.220825</ele>
<time>2011-04-27T04:07:31Z</time>
<desc>lat.=22.089626, lon.=104.253670, Alt.=208.220825m. Speed=0.000000m/h.</desc>
<speed>0.000000</speed>
</trkpt>
<trkpt lat="22.089626" lon="104.253670">
<ele>208.224731</ele>
<time>2011-04-27T04:07:36Z</time>
<desc>lat.=22.089626, lon.=104.253670, Alt.=208.224731m. Speed=0.036000m/h.</desc>
<speed>0.010000</speed>
</trkpt>
<trkpt lat="22.089626" lon="104.253670">
<ele>208.209106</ele>
<time>2011-04-27T04:07:41Z</time>
<desc>lat.=22.089626, lon.=104.253670, Alt.=208.209106m. Speed=0.000000m/h.</desc>
<speed>0.000000</speed>
</trkpt>
<trkpt lat="22.089626" lon="104.253670">
<ele>208.181763</ele>
<time>2011-04-27T04:07:46Z</time>
<desc>lat.=22.089626, lon.=104.253670, Alt.=208.181763m. Speed=0.000000m/h.</desc>
<speed>0.000000</speed>
</trkpt>
<trkpt lat="22.089626" lon="104.253670">
<ele>208.173950</ele>
<time>2011-04-27T04:07:51Z</time>
<desc>lat.=22.089626, lon.=104.253670, Alt.=208.173950m. Speed=0.000000m/h.</desc>
<speed>0.000000</speed>
</trkpt>
<trkpt lat="22.089624" lon="104.253670">
<ele>208.170044</ele>
<time>2011-04-27T04:07:56Z</time>
<desc>lat.=22.089624, lon.=104.253670, Alt.=208.170044m. Speed=0.036000m/h.</desc>
<speed>0.010000</speed>
</trkpt>
<trkpt lat="22.089624" lon="104.253670">
<ele>208.134888</ele>
<time>2011-04-27T04:08:01Z</time>
<desc>lat.=22.089624, lon.=104.253670, Alt.=208.134888m. Speed=0.000000m/h.</desc>
<speed>0.000000</speed>
</trkpt>
<trkpt lat="22.089624" lon="104.253670">
<ele>208.103638</ele>
<time>2011-04-27T04:08:06Z</time>
<desc>lat.=22.089624, lon.=104.253670, Alt.=208.103638m. Speed=0.036000m/h.</desc>
<speed>0.010000</speed>
</trkpt>
<trkpt lat="22.089624" lon="104.253670">
<ele>208.076294</ele>
<time>2011-04-27T04:08:11Z</time>
<desc>lat.=22.089624, lon.=104.253670, Alt.=208.076294m. Speed=0.000000m/h.</desc>
<speed>0.000000</speed>
</trkpt>
<trkpt lat="22.089624" lon="104.253670">
<ele>208.025513</ele>
<time>2011-04-27T04:08:16Z</time>
<desc>lat.=22.089624, lon.=104.253670, Alt.=208.025513m. Speed=0.036000m/h.</desc>
<speed>0.010000</speed>
</trkpt>
<trkpt lat="22.089624" lon="104.253662">
<ele>208.002075</ele>
<time>2011-04-27T04:08:21Z</time>
<desc>lat.=22.089624, lon.=104.253662, Alt.=208.002075m. Speed=0.000000m/h.</desc>
<speed>0.000000</speed>
</trkpt>
<trkpt lat="22.089624" lon="104.253662">
<ele>207.978638</ele>
<time>2011-04-27T04:08:26Z</time>
<desc>lat.=22.089624, lon.=104.253662, Alt.=207.978638m. Speed=0.036000m/h.</desc>
<speed>0.010000</speed>
</trkpt>
<trkpt lat="22.089624" lon="104.253662">
<ele>207.966919</ele>
<time>2011-04-27T04:08:31Z</time>
<desc>lat.=22.089624, lon.=104.253662, Alt.=207.966919m. Speed=0.036000m/h.</desc>
<speed>0.010000</speed>
</trkpt>
<trkpt lat="22.089624" lon="104.253662">
<ele>207.943481</ele>
<time>2011-04-27T04:08:36Z</time>
<desc>lat.=22.089624, lon.=104.253662, Alt.=207.943481m. Speed=0.000000m/h.</desc>
<speed>0.000000</speed>
</trkpt>
<trkpt lat="22.089624" lon="104.253662">
<ele>207.955200</ele>
<time>2011-04-27T04:08:41Z</time>
<desc>lat.=22.089624, lon.=104.253662, Alt.=207.955200m. Speed=0.000000m/h.</desc>
<speed>0.000000</speed>
</trkpt>
<trkpt lat="22.089624" lon="104.253662">
<ele>207.963013</ele>
<time>2011-04-27T04:08:46Z</time>
<desc>lat.=22.089624, lon.=104.253662, Alt.=207.963013m. Speed=0.000000m/h.</desc>
<speed>0.000000</speed>
</trkpt>
<trkpt lat="22.089624" lon="104.253662">
<ele>207.970825</ele>
<time>2011-04-27T04:08:51Z</time>
<desc>lat.=22.089624, lon.=104.253662, Alt.=207.970825m. Speed=0.036000m/h.</desc>
<speed>0.010000</speed>
</trkpt>
<trkpt lat="22.089624" lon="104.253662">
<ele>207.974731</ele>
<time>2011-04-27T04:08:56Z</time>
<desc>lat.=22.089624, lon.=104.253662, Alt.=207.974731m. Speed=0.036000m/h.</desc>
<speed>0.010000</speed>
</trkpt>
<trkpt lat="22.089624" lon="104.253662">
<ele>207.974731</ele>
<time>2011-04-27T04:09:01Z</time>
<desc>lat.=22.089624, lon.=104.253662, Alt.=207.974731m. Speed=0.036000m/h.</desc>
<speed>0.010000</speed>
</trkpt>
<trkpt lat="22.089624" lon="104.253662">
<ele>207.982544</ele>
<time>2011-04-27T04:09:06Z</time>
<desc>lat.=22.089624, lon.=104.253662, Alt.=207.982544m. Speed=0.000000m/h.</desc>
<speed>0.000000</speed>
</trkpt>
<trkpt lat="22.089624" lon="104.253662">
<ele>207.966919</ele>
<time>2011-04-27T04:09:11Z</time>
<desc>lat.=22.089624, lon.=104.253662, Alt.=207.966919m. Speed=0.000000m/h.</desc>
<speed>0.000000</speed>
</trkpt>
<trkpt lat="22.089624" lon="104.253662">
<ele>207.974731</ele>
<time>2011-04-27T04:09:16Z</time>
<desc>lat.=22.089624, lon.=104.253662, Alt.=207.974731m. Speed=0.000000m/h.</desc>
<speed>0.000000</speed>
</trkpt>
<trkpt lat="22.089624" lon="104.253662">
<ele>208.017700</ele>
<time>2011-04-27T04:09:21Z</time>
<desc>lat.=22.089624, lon.=104.253662, Alt.=208.017700m. Speed=0.252000m/h.</desc>
<speed>0.070000</speed>
</trkpt>
<trkpt lat="22.089622" lon="104.253662">
<ele>208.025513</ele>
<time>2011-04-27T04:09:26Z</time>
<desc>lat.=22.089622, lon.=104.253662, Alt.=208.025513m. Speed=0.108000m/h.</desc>
<speed>0.030000</speed>
</trkpt>
<trkpt lat="22.089622" lon="104.253662">
<ele>208.037231</ele>
<time>2011-04-27T04:09:31Z</time>
<desc>lat.=22.089622, lon.=104.253662, Alt.=208.037231m. Speed=0.000000m/h.</desc>
<speed>0.000000</speed>
</trkpt>
<trkpt lat="22.089622" lon="104.253662">
<ele>208.029419</ele>
<time>2011-04-27T04:09:36Z</time>
<desc>lat.=22.089622, lon.=104.253662, Alt.=208.029419m. Speed=0.756000m/h.</desc>
<speed>0.210000</speed>
</trkpt>
<trkpt lat="22.089563" lon="104.253693">
<ele>206.920044</ele>
<time>2011-04-27T04:09:41Z</time>
<desc>lat.=22.089563, lon.=104.253693, Alt.=206.920044m. Speed=7.164000m/h.</desc>
<speed>1.990000</speed>
</trkpt>
<trkpt lat="22.089525" lon="104.253815">
<ele>205.955200</ele>
<time>2011-04-27T04:09:46Z</time>
<desc>lat.=22.089525, lon.=104.253815, Alt.=205.955200m. Speed=12.024000m/h.</desc>
<speed>3.340000</speed>
</trkpt>
<trkpt lat="22.089544" lon="104.253983">
<ele>204.541138</ele>
<time>2011-04-27T04:09:51Z</time>
<desc>lat.=22.089544, lon.=104.253983, Alt.=204.541138m. Speed=14.400000m/h.</desc>
<speed>4.000000</speed>
</trkpt>
<trkpt lat="22.089539" lon="104.254204">
<ele>203.896606</ele>
<time>2011-04-27T04:09:56Z</time>
<desc>lat.=22.089539, lon.=104.254204, Alt.=203.896606m. Speed=15.876000m/h.</desc>
<speed>4.410000</speed>
</trkpt>
<trkpt lat="22.089531" lon="104.254433">
<ele>202.404419</ele>
<time>2011-04-27T04:10:01Z</time>
<desc>lat.=22.089531, lon.=104.254433, Alt.=202.404419m. Speed=18.756001m/h.</desc>
<speed>5.210000</speed>
</trkpt>
<trkpt lat="22.089520" lon="104.254707">
<ele>200.341919</ele>
<time>2011-04-27T04:10:06Z</time>
<desc>lat.=22.089520, lon.=104.254707, Alt.=200.341919m. Speed=20.916000m/h.</desc>
<speed>5.810000</speed>
</trkpt>
<trkpt lat="22.089527" lon="104.255005">
<ele>198.861450</ele>
<time>2011-04-27T04:10:11Z</time>
<desc>lat.=22.089527, lon.=104.255005, Alt.=198.861450m. Speed=21.996000m/h.</desc>
<speed>6.110000</speed>
</trkpt>
<trkpt lat="22.089531" lon="104.255302">
<ele>195.357544</ele>
<time>2011-04-27T04:10:16Z</time>
<desc>lat.=22.089531, lon.=104.255302, Alt.=195.357544m. Speed=22.104000m/h.</desc>
<speed>6.140000</speed>
</trkpt>
<trkpt lat="22.089525" lon="104.255569">
<ele>192.603638</ele>
<time>2011-04-27T04:10:21Z</time>
<desc>lat.=22.089525, lon.=104.255569, Alt.=192.603638m. Speed=19.944000m/h.</desc>
<speed>5.540000</speed>
</trkpt>
<trkpt lat="22.089520" lon="104.255791">
<ele>192.170044</ele>
<time>2011-04-27T04:10:26Z</time>
<desc>lat.=22.089520, lon.=104.255791, Alt.=192.170044m. Speed=10.656000m/h.</desc>
<speed>2.960000</speed>
</trkpt>
<trkpt lat="22.089554" lon="104.255890">
<ele>193.220825</ele>
<time>2011-04-27T04:10:31Z</time>
<desc>lat.=22.089554, lon.=104.255890, Alt.=193.220825m. Speed=5.004000m/h.</desc>
<speed>1.390000</speed>
</trkpt>
<trkpt lat="22.089573" lon="104.255959">
<ele>193.658325</ele>
<time>2011-04-27T04:10:36Z</time>
<desc>lat.=22.089573, lon.=104.255959, Alt.=193.658325m. Speed=3.240000m/h.</desc>
<speed>0.900000</speed>
</trkpt>
<trkpt lat="22.089582" lon="104.255981">
<ele>193.853638</ele>
<time>2011-04-27T04:10:41Z</time>
<desc>lat.=22.089582, lon.=104.255981, Alt.=193.853638m. Speed=0.180000m/h.</desc>
<speed>0.050000</speed>
</trkpt>
<trkpt lat="22.089584" lon="104.255981">
<ele>194.017700</ele>
<time>2011-04-27T04:10:46Z</time>
<desc>lat.=22.089584, lon.=104.255981, Alt.=194.017700m. Speed=0.936000m/h.</desc>
<speed>0.260000</speed>
</trkpt>
<trkpt lat="22.089586" lon="104.255974">
<ele>193.884888</ele>
<time>2011-04-27T04:10:51Z</time>
<desc>lat.=22.089586, lon.=104.255974, Alt.=193.884888m. Speed=0.072000m/h.</desc>
<speed>0.020000</speed>
</trkpt>
<trkpt lat="22.089586" lon="104.255974">
<ele>193.869263</ele>
<time>2011-04-27T04:10:56Z</time>
<desc>lat.=22.089586, lon.=104.255974, Alt.=193.869263m. Speed=0.036000m/h.</desc>
<speed>0.010000</speed>
</trkpt>
<trkpt lat="22.089586" lon="104.255974">
<ele>193.849731</ele>
<time>2011-04-27T04:11:01Z</time>
<desc>lat.=22.089586, lon.=104.255974, Alt.=193.849731m. Speed=0.036000m/h.</desc>
<speed>0.010000</speed>
</trkpt>
<trkpt lat="22.089586" lon="104.255974">
<ele>193.834106</ele>
<time>2011-04-27T04:11:06Z</time>
<desc>lat.=22.089586, lon.=104.255974, Alt.=193.834106m. Speed=0.000000m/h.</desc>
<speed>0.000000</speed>
</trkpt>
<trkpt lat="22.089586" lon="104.255974">
<ele>193.798950</ele>
<time>2011-04-27T04:11:11Z</time>
<desc>lat.=22.089586, lon.=104.255974, Alt.=193.798950m. Speed=0.036000m/h.</desc>
<speed>0.010000</speed>
</trkpt>
<trkpt lat="22.089586" lon="104.255974">
<ele>193.759888</ele>
<time>2011-04-27T04:11:16Z</time>
<desc>lat.=22.089586, lon.=104.255974, Alt.=193.759888m. Speed=0.072000m/h.</desc>
<speed>0.020000</speed>
</trkpt>
<trkpt lat="22.089586" lon="104.255974">
<ele>193.732544</ele>
<time>2011-04-27T04:11:21Z</time>
<desc>lat.=22.089586, lon.=104.255974, Alt.=193.732544m. Speed=0.036000m/h.</desc>
<speed>0.010000</speed>
</trkpt>
<trkpt lat="22.089586" lon="104.255974">
<ele>193.713013</ele>
<time>2011-04-27T04:11:26Z</time>
<desc>lat.=22.089586, lon.=104.255974, Alt.=193.713013m. Speed=0.144000m/h.</desc>
<speed>0.040000</speed>
</trkpt>
<trkpt lat="22.089586" lon="104.255974">
<ele>193.713013</ele>
<time>2011-04-27T04:11:31Z</time>
<desc>lat.=22.089586, lon.=104.255974, Alt.=193.713013m. Speed=0.000000m/h.</desc>
<speed>0.000000</speed>
</trkpt>
<trkpt lat="22.089586" lon="104.255974">
<ele>193.705200</ele>
<time>2011-04-27T04:11:36Z</time>
<desc>lat.=22.089586, lon.=104.255974, Alt.=193.705200m. Speed=0.000000m/h.</desc>
<speed>0.000000</speed>
</trkpt>
<trkpt lat="22.089586" lon="104.255974">
<ele>193.701294</ele>
<time>2011-04-27T04:11:41Z</time>
<desc>lat.=22.089586, lon.=104.255974, Alt.=193.701294m. Speed=0.000000m/h.</desc>
<speed>0.000000</speed>
</trkpt>
<trkpt lat="22.089586" lon="104.255974">
<ele>193.693481</ele>
<time>2011-04-27T04:11:46Z</time>
<desc>lat.=22.089586, lon.=104.255974, Alt.=193.693481m. Speed=0.000000m/h.</desc>
<speed>0.000000</speed>
</trkpt>
<trkpt lat="22.089586" lon="104.255974">
<ele>193.701294</ele>
<time>2011-04-27T04:11:51Z</time>
<desc>lat.=22.089586, lon.=104.255974, Alt.=193.701294m. Speed=0.036000m/h.</desc>
<speed>0.010000</speed>
</trkpt>
<trkpt lat="22.089586" lon="104.255974">
<ele>193.705200</ele>
<time>2011-04-27T04:11:56Z</time>
<desc>lat.=22.089586, lon.=104.255974, Alt.=193.705200m. Speed=0.000000m/h.</desc>
<speed>0.000000</speed>
</trkpt>
<trkpt lat="22.089586" lon="104.255974">
<ele>193.697388</ele>
<time>2011-04-27T04:12:01Z</time>
<desc>lat.=22.089586, lon.=104.255974, Alt.=193.697388m. Speed=0.036000m/h.</desc>
<speed>0.010000</speed>
</trkpt>
<trkpt lat="22.089584" lon="104.255974">
<ele>193.697388</ele>
<time>2011-04-27T04:12:06Z</time>
<desc>lat.=22.089584, lon.=104.255974, Alt.=193.697388m. Speed=0.000000m/h.</desc>
<speed>0.000000</speed>
</trkpt>
<trkpt lat="22.089584" lon="104.255974">
<ele>193.705200</ele>
<time>2011-04-27T04:12:11Z</time>
<desc>lat.=22.089584, lon.=104.255974, Alt.=193.705200m. Speed=0.000000m/h.</desc>
<speed>0.000000</speed>
</trkpt>
<trkpt lat="22.089584" lon="104.255974">
<ele>193.701294</ele>
<time>2011-04-27T04:12:16Z</time>
<desc>lat.=22.089584, lon.=104.255974, Alt.=193.701294m. Speed=0.000000m/h.</desc>
<speed>0.000000</speed>
</trkpt>
<trkpt lat="22.089584" lon="104.255974">
<ele>193.689575</ele>
<time>2011-04-27T04:12:21Z</time>
<desc>lat.=22.089584, lon.=104.255974, Alt.=193.689575m. Speed=0.000000m/h.</desc>
<speed>0.000000</speed>
</trkpt>
<trkpt lat="22.089584" lon="104.255974">
<ele>193.681763</ele>
<time>2011-04-27T04:12:26Z</time>
<desc>lat.=22.089584, lon.=104.255974, Alt.=193.681763m. Speed=0.036000m/h.</desc>
<speed>0.010000</speed>
</trkpt>
<trkpt lat="22.089582" lon="104.255974">
<ele>193.677856</ele>
<time>2011-04-27T04:12:31Z</time>
<desc>lat.=22.089582, lon.=104.255974, Alt.=193.677856m. Speed=0.144000m/h.</desc>
<speed>0.040000</speed>
</trkpt>
<trkpt lat="22.089582" lon="104.255981">
<ele>193.685669</ele>
<time>2011-04-27T04:12:36Z</time>
<desc>lat.=22.089582, lon.=104.255981, Alt.=193.685669m. Speed=5.256000m/h.</desc>
<speed>1.460000</speed>
</trkpt>
<trkpt lat="22.089535" lon="104.256088">
<ele>192.673950</ele>
<time>2011-04-27T04:12:41Z</time>
<desc>lat.=22.089535, lon.=104.256088, Alt.=192.673950m. Speed=11.160000m/h.</desc>
<speed>3.100000</speed>
</trkpt>
<trkpt lat="22.089523" lon="104.256294">
<ele>191.298950</ele>
<time>2011-04-27T04:12:46Z</time>
<desc>lat.=22.089523, lon.=104.256294, Alt.=191.298950m. Speed=15.408000m/h.</desc>
<speed>4.280000</speed>
</trkpt>
<trkpt lat="22.089529" lon="104.256516">
<ele>190.791138</ele>
<time>2011-04-27T04:12:51Z</time>
<desc>lat.=22.089529, lon.=104.256516, Alt.=190.791138m. Speed=14.472000m/h.</desc>
<speed>4.020000</speed>
</trkpt>
<trkpt lat="22.089510" lon="104.256714">
<ele>193.091919</ele>
<time>2011-04-27T04:12:56Z</time>
<desc>lat.=22.089510, lon.=104.256714, Alt.=193.091919m. Speed=11.340000m/h.</desc>
<speed>3.150000</speed>
</trkpt>
<trkpt lat="22.089497" lon="104.256882">
<ele>192.783325</ele>
<time>2011-04-27T04:13:01Z</time>
<desc>lat.=22.089497, lon.=104.256882, Alt.=192.783325m. Speed=10.116000m/h.</desc>
<speed>2.810000</speed>
</trkpt>
<trkpt lat="22.089479" lon="104.256935">
<ele>190.966919</ele>
<time>2011-04-27T04:13:06Z</time>
<desc>lat.=22.089479, lon.=104.256935, Alt.=190.966919m. Speed=0.288000m/h.</desc>
<speed>0.080000</speed>
</trkpt>
<trkpt lat="22.089481" lon="104.256935">
<ele>190.478638</ele>
<time>2011-04-27T04:13:11Z</time>
<desc>lat.=22.089481, lon.=104.256935, Alt.=190.478638m. Speed=0.288000m/h.</desc>
<speed>0.080000</speed>
</trkpt>
<trkpt lat="22.089489" lon="104.256958">
<ele>190.689575</ele>
<time>2011-04-27T04:13:16Z</time>
<desc>lat.=22.089489, lon.=104.256958, Alt.=190.689575m. Speed=6.228000m/h.</desc>
<speed>1.730000</speed>
</trkpt>
<trkpt lat="22.089491" lon="104.257088">
<ele>191.970825</ele>
<time>2011-04-27T04:13:21Z</time>
<desc>lat.=22.089491, lon.=104.257088, Alt.=191.970825m. Speed=9.864000m/h.</desc>
<speed>2.740000</speed>
</trkpt>
<trkpt lat="22.089474" lon="104.257210">
<ele>189.838013</ele>
<time>2011-04-27T04:13:26Z</time>
<desc>lat.=22.089474, lon.=104.257210, Alt.=189.838013m. Speed=8.856000m/h.</desc>
<speed>2.460000</speed>
</trkpt>
<trkpt lat="22.089468" lon="104.257317">
<ele>189.884888</ele>
<time>2011-04-27T04:13:31Z</time>
<desc>lat.=22.089468, lon.=104.257317, Alt.=189.884888m. Speed=5.004000m/h.</desc>
<speed>1.390000</speed>
</trkpt>
<trkpt lat="22.089478" lon="104.257362">
<ele>188.959106</ele>
<time>2011-04-27T04:13:36Z</time>
<desc>lat.=22.089478, lon.=104.257362, Alt.=188.959106m. Speed=3.420000m/h.</desc>
<speed>0.950000</speed>
</trkpt>
<trkpt lat="22.089495" lon="104.257408">
<ele>189.127075</ele>
<time>2011-04-27T04:13:41Z</time>
<desc>lat.=22.089495, lon.=104.257408, Alt.=189.127075m. Speed=1.692000m/h.</desc>
<speed>0.470000</speed>
</trkpt>
<trkpt lat="22.089495" lon="104.257408">
<ele>189.384888</ele>
<time>2011-04-27T04:13:46Z</time>
<desc>lat.=22.089495, lon.=104.257408, Alt.=189.384888m. Speed=0.072000m/h.</desc>
<speed>0.020000</speed>
</trkpt>
<trkpt lat="22.089495" lon="104.257408">
<ele>189.423950</ele>
<time>2011-04-27T04:13:51Z</time>
<desc>lat.=22.089495, lon.=104.257408, Alt.=189.423950m. Speed=0.180000m/h.</desc>
<speed>0.050000</speed>
</trkpt>
<trkpt lat="22.089493" lon="104.257408">
<ele>189.412231</ele>
<time>2011-04-27T04:13:56Z</time>
<desc>lat.=22.089493, lon.=104.257408, Alt.=189.412231m. Speed=0.036000m/h.</desc>
<speed>0.010000</speed>
</trkpt>
<trkpt lat="22.089493" lon="104.257408">
<ele>189.412231</ele>
<time>2011-04-27T04:14:01Z</time>
<desc>lat.=22.089493, lon.=104.257408, Alt.=189.412231m. Speed=0.144000m/h.</desc>
<speed>0.040000</speed>
</trkpt>
<trkpt lat="22.089493" lon="104.257408">
<ele>189.451294</ele>
<time>2011-04-27T04:14:06Z</time>
<desc>lat.=22.089493, lon.=104.257408, Alt.=189.451294m. Speed=0.108000m/h.</desc>
<speed>0.030000</speed>
</trkpt>
<trkpt lat="22.089495" lon="104.257408">
<ele>189.435669</ele>
<time>2011-04-27T04:14:11Z</time>
<desc>lat.=22.089495, lon.=104.257408, Alt.=189.435669m. Speed=0.072000m/h.</desc>
<speed>0.020000</speed>
</trkpt>
<trkpt lat="22.089495" lon="104.257408">
<ele>189.423950</ele>
<time>2011-04-27T04:14:16Z</time>
<desc>lat.=22.089495, lon.=104.257408, Alt.=189.423950m. Speed=0.180000m/h.</desc>
<speed>0.050000</speed>
</trkpt>
<trkpt lat="22.089495" lon="104.257408">
<ele>189.447388</ele>
<time>2011-04-27T04:14:21Z</time>
<desc>lat.=22.089495, lon.=104.257408, Alt.=189.447388m. Speed=0.072000m/h.</desc>
<speed>0.020000</speed>
</trkpt>
<trkpt lat="22.089495" lon="104.257408">
<ele>189.455200</ele>
<time>2011-04-27T04:14:26Z</time>
<desc>lat.=22.089495, lon.=104.257408, Alt.=189.455200m. Speed=0.000000m/h.</desc>
<speed>0.000000</speed>
</trkpt>
<trkpt lat="22.089495" lon="104.257408">
<ele>189.470825</ele>
<time>2011-04-27T04:14:31Z</time>
<desc>lat.=22.089495, lon.=104.257408, Alt.=189.470825m. Speed=0.000000m/h.</desc>
<speed>0.000000</speed>
</trkpt>
<trkpt lat="22.089495" lon="104.257408">
<ele>189.396606</ele>
<time>2011-04-27T04:14:36Z</time>
<desc>lat.=22.089495, lon.=104.257408, Alt.=189.396606m. Speed=0.000000m/h.</desc>
<speed>0.000000</speed>
</trkpt>
<trkpt lat="22.089495" lon="104.257408">
<ele>189.388794</ele>
<time>2011-04-27T04:14:41Z</time>
<desc>lat.=22.089495, lon.=104.257408, Alt.=189.388794m. Speed=0.000000m/h.</desc>
<speed>0.000000</speed>
</trkpt>
<trkpt lat="22.089493" lon="104.257408">
<ele>189.377075</ele>
<time>2011-04-27T04:14:46Z</time>
<desc>lat.=22.089493, lon.=104.257408, Alt.=189.377075m. Speed=0.000000m/h.</desc>
<speed>0.000000</speed>
</trkpt>
<trkpt lat="22.089493" lon="104.257408">
<ele>189.365356</ele>
<time>2011-04-27T04:14:51Z</time>
<desc>lat.=22.089493, lon.=104.257408, Alt.=189.365356m. Speed=0.036000m/h.</desc>
<speed>0.010000</speed>
</trkpt>
<trkpt lat="22.089493" lon="104.257408">
<ele>189.357544</ele>
<time>2011-04-27T04:14:56Z</time>
<desc>lat.=22.089493, lon.=104.257408, Alt.=189.357544m. Speed=0.000000m/h.</desc>
<speed>0.000000</speed>
</trkpt>
<trkpt lat="22.089493" lon="104.257408">
<ele>189.349731</ele>
<time>2011-04-27T04:15:01Z</time>
<desc>lat.=22.089493, lon.=104.257408, Alt.=189.349731m. Speed=0.072000m/h.</desc>
<speed>0.020000</speed>
</trkpt>
<trkpt lat="22.089487" lon="104.257408">
<ele>189.064575</ele>
<time>2011-04-27T04:15:06Z</time>
<desc>lat.=22.089487, lon.=104.257408, Alt.=189.064575m. Speed=0.072000m/h.</desc>
<speed>0.020000</speed>
</trkpt>
<trkpt lat="22.089489" lon="104.257408">
<ele>188.927856</ele>
<time>2011-04-27T04:15:11Z</time>
<desc>lat.=22.089489, lon.=104.257408, Alt.=188.927856m. Speed=0.000000m/h.</desc>
<speed>0.000000</speed>
</trkpt>
<trkpt lat="22.089489" lon="104.257408">
<ele>188.923950</ele>
<time>2011-04-27T04:15:16Z</time>
<desc>lat.=22.089489, lon.=104.257408, Alt.=188.923950m. Speed=0.000000m/h.</desc>
<speed>0.000000</speed>
</trkpt>
<trkpt lat="22.089489" lon="104.257408">
<ele>188.904419</ele>
<time>2011-04-27T04:15:21Z</time>
<desc>lat.=22.089489, lon.=104.257408, Alt.=188.904419m. Speed=0.216000m/h.</desc>
<speed>0.060000</speed>
</trkpt>
<trkpt lat="22.089487" lon="104.257408">
<ele>188.888794</ele>
<time>2011-04-27T04:15:26Z</time>
<desc>lat.=22.089487, lon.=104.257408, Alt.=188.888794m. Speed=0.072000m/h.</desc>
<speed>0.020000</speed>
</trkpt>
<trkpt lat="22.089487" lon="104.257408">
<ele>188.888794</ele>
<time>2011-04-27T04:15:31Z</time>
<desc>lat.=22.089487, lon.=104.257408, Alt.=188.888794m. Speed=0.036000m/h.</desc>
<speed>0.010000</speed>
</trkpt>
<trkpt lat="22.089487" lon="104.257408">
<ele>188.877075</ele>
<time>2011-04-27T04:15:36Z</time>
<desc>lat.=22.089487, lon.=104.257408, Alt.=188.877075m. Speed=0.036000m/h.</desc>
<speed>0.010000</speed>
</trkpt>
<trkpt lat="22.089487" lon="104.257408">
<ele>188.869263</ele>
<time>2011-04-27T04:15:41Z</time>
<desc>lat.=22.089487, lon.=104.257408, Alt.=188.869263m. Speed=0.000000m/h.</desc>
<speed>0.000000</speed>
</trkpt>
<trkpt lat="22.089487" lon="104.257408">
<ele>188.865356</ele>
<time>2011-04-27T04:15:46Z</time>
<desc>lat.=22.089487, lon.=104.257408, Alt.=188.865356m. Speed=0.000000m/h.</desc>
<speed>0.000000</speed>
</trkpt>
<trkpt lat="22.089487" lon="104.257408">
<ele>188.845825</ele>
<time>2011-04-27T04:15:51Z</time>
<desc>lat.=22.089487, lon.=104.257408, Alt.=188.845825m. Speed=0.000000m/h.</desc>
<speed>0.000000</speed>
</trkpt>
<trkpt lat="22.089487" lon="104.257408">
<ele>188.818481</ele>
<time>2011-04-27T04:15:56Z</time>
<desc>lat.=22.089487, lon.=104.257408, Alt.=188.818481m. Speed=0.000000m/h.</desc>
<speed>0.000000</speed>
</trkpt>
<trkpt lat="22.089487" lon="104.257408">
<ele>188.771606</ele>
<time>2011-04-27T04:16:01Z</time>
<desc>lat.=22.089487, lon.=104.257408, Alt.=188.771606m. Speed=0.000000m/h.</desc>
<speed>0.000000</speed>
</trkpt>
<trkpt lat="22.089487" lon="104.257408">
<ele>188.705200</ele>
<time>2011-04-27T04:16:06Z</time>
<desc>lat.=22.089487, lon.=104.257408, Alt.=188.705200m. Speed=0.324000m/h.</desc>
<speed>0.090000</speed>
</trkpt>
<trkpt lat="22.089487" lon="104.257408">
<ele>188.744263</ele>
<time>2011-04-27T04:16:11Z</time>
<desc>lat.=22.089487, lon.=104.257408, Alt.=188.744263m. Speed=0.036000m/h.</desc>
<speed>0.010000</speed>
</trkpt>
<trkpt lat="22.089487" lon="104.257408">
<ele>188.763794</ele>
<time>2011-04-27T04:16:16Z</time>
<desc>lat.=22.089487, lon.=104.257408, Alt.=188.763794m. Speed=0.000000m/h.</desc>
<speed>0.000000</speed>
</trkpt>
<trkpt lat="22.089487" lon="104.257408">
<ele>188.748169</ele>
<time>2011-04-27T04:16:21Z</time>
<desc>lat.=22.089487, lon.=104.257408, Alt.=188.748169m. Speed=0.000000m/h.</desc>
<speed>0.000000</speed>
</trkpt>
<trkpt lat="22.089487" lon="104.257408">
<ele>188.736450</ele>
<time>2011-04-27T04:16:26Z</time>
<desc>lat.=22.089487, lon.=104.257408, Alt.=188.736450m. Speed=0.000000m/h.</desc>
<speed>0.000000</speed>
</trkpt>
<trkpt lat="22.089487" lon="104.257408">
<ele>188.732544</ele>
<time>2011-04-27T04:16:31Z</time>
<desc>lat.=22.089487, lon.=104.257408, Alt.=188.732544m. Speed=0.036000m/h.</desc>
<speed>0.010000</speed>
</trkpt>
<trkpt lat="22.089487" lon="104.257408">
<ele>188.724731</ele>
<time>2011-04-27T04:16:36Z</time>
<desc>lat.=22.089487, lon.=104.257408, Alt.=188.724731m. Speed=0.000000m/h.</desc>
<speed>0.000000</speed>
</trkpt>
<trkpt lat="22.089487" lon="104.257408">
<ele>188.736450</ele>
<time>2011-04-27T04:16:41Z</time>
<desc>lat.=22.089487, lon.=104.257408, Alt.=188.736450m. Speed=0.036000m/h.</desc>
<speed>0.010000</speed>
</trkpt>
<trkpt lat="22.089487" lon="104.257408">
<ele>188.748169</ele>
<time>2011-04-27T04:16:46Z</time>
<desc>lat.=22.089487, lon.=104.257408, Alt.=188.748169m. Speed=0.000000m/h.</desc>
<speed>0.000000</speed>
</trkpt>
<trkpt lat="22.089487" lon="104.257408">
<ele>188.752075</ele>
<time>2011-04-27T04:16:51Z</time>
<desc>lat.=22.089487, lon.=104.257408, Alt.=188.752075m. Speed=0.036000m/h.</desc>
<speed>0.010000</speed>
</trkpt>
<trkpt lat="22.089487" lon="104.257408">
<ele>188.752075</ele>
<time>2011-04-27T04:16:56Z</time>
<desc>lat.=22.089487, lon.=104.257408, Alt.=188.752075m. Speed=0.036000m/h.</desc>
<speed>0.010000</speed>
</trkpt>
<trkpt lat="22.089485" lon="104.257408">
<ele>188.748169</ele>
<time>2011-04-27T04:17:01Z</time>
<desc>lat.=22.089485, lon.=104.257408, Alt.=188.748169m. Speed=0.000000m/h.</desc>
<speed>0.000000</speed>
</trkpt>
<trkpt lat="22.089485" lon="104.257408">
<ele>188.759888</ele>
<time>2011-04-27T04:17:06Z</time>
<desc>lat.=22.089485, lon.=104.257408, Alt.=188.759888m. Speed=0.036000m/h.</desc>
<speed>0.010000</speed>
</trkpt>
<trkpt lat="22.089485" lon="104.257408">
<ele>188.779419</ele>
<time>2011-04-27T04:17:11Z</time>
<desc>lat.=22.089485, lon.=104.257408, Alt.=188.779419m. Speed=0.000000m/h.</desc>
<speed>0.000000</speed>
</trkpt>
<trkpt lat="22.089485" lon="104.257408">
<ele>188.779419</ele>
<time>2011-04-27T04:17:16Z</time>
<desc>lat.=22.089485, lon.=104.257408, Alt.=188.779419m. Speed=0.252000m/h.</desc>
<speed>0.070000</speed>
</trkpt>
<trkpt lat="22.089500" lon="104.257439">
<ele>188.755981</ele>
<time>2011-04-27T04:17:21Z</time>
<desc>lat.=22.089500, lon.=104.257439, Alt.=188.755981m. Speed=4.896000m/h.</desc>
<speed>1.360000</speed>
</trkpt>
<trkpt lat="22.089552" lon="104.257500">
<ele>189.630981</ele>
<time>2011-04-27T04:17:26Z</time>
<desc>lat.=22.089552, lon.=104.257500, Alt.=189.630981m. Speed=5.760000m/h.</desc>
<speed>1.600000</speed>
</trkpt>
<trkpt lat="22.089600" lon="104.257584">
<ele>190.427856</ele>
<time>2011-04-27T04:17:31Z</time>
<desc>lat.=22.089600, lon.=104.257584, Alt.=190.427856m. Speed=6.588000m/h.</desc>
<speed>1.830000</speed>
</trkpt>
<trkpt lat="22.089661" lon="104.257690">
<ele>192.916138</ele>
<time>2011-04-27T04:17:36Z</time>
<desc>lat.=22.089661, lon.=104.257690, Alt.=192.916138m. Speed=7.416000m/h.</desc>
<speed>2.060000</speed>
</trkpt>
<trkpt lat="22.089687" lon="104.257797">
<ele>193.634888</ele>
<time>2011-04-27T04:17:41Z</time>
<desc>lat.=22.089687, lon.=104.257797, Alt.=193.634888m. Speed=7.848000m/h.</desc>
<speed>2.180000</speed>
</trkpt>
<trkpt lat="22.089733" lon="104.257874">
<ele>194.119263</ele>
<time>2011-04-27T04:17:46Z</time>
<desc>lat.=22.089733, lon.=104.257874, Alt.=194.119263m. Speed=7.020000m/h.</desc>
<speed>1.950000</speed>
</trkpt>
<trkpt lat="22.089773" lon="104.258003">
<ele>195.455200</ele>
<time>2011-04-27T04:17:51Z</time>
<desc>lat.=22.089773, lon.=104.258003, Alt.=195.455200m. Speed=7.020000m/h.</desc>
<speed>1.950000</speed>
</trkpt>
<trkpt lat="22.089800" lon="104.258125">
<ele>197.013794</ele>
<time>2011-04-27T04:17:56Z</time>
<desc>lat.=22.089800, lon.=104.258125, Alt.=197.013794m. Speed=8.064000m/h.</desc>
<speed>2.240000</speed>
</trkpt>
<trkpt lat="22.089838" lon="104.258224">
<ele>198.365356</ele>
<time>2011-04-27T04:18:01Z</time>
<desc>lat.=22.089838, lon.=104.258224, Alt.=198.365356m. Speed=6.948000m/h.</desc>
<speed>1.930000</speed>
</trkpt>
<trkpt lat="22.089882" lon="104.258339">
<ele>198.048950</ele>
<time>2011-04-27T04:18:06Z</time>
<desc>lat.=22.089882, lon.=104.258339, Alt.=198.048950m. Speed=8.100000m/h.</desc>
<speed>2.250000</speed>
</trkpt>
<trkpt lat="22.089912" lon="104.258446">
<ele>197.025513</ele>
<time>2011-04-27T04:18:11Z</time>
<desc>lat.=22.089912, lon.=104.258446, Alt.=197.025513m. Speed=7.812000m/h.</desc>
<speed>2.170000</speed>
</trkpt>
<trkpt lat="22.089954" lon="104.258545">
<ele>199.216919</ele>
<time>2011-04-27T04:18:16Z</time>
<desc>lat.=22.089954, lon.=104.258545, Alt.=199.216919m. Speed=7.488000m/h.</desc>
<speed>2.080000</speed>
</trkpt>
<trkpt lat="22.089977" lon="104.258629">
<ele>199.041138</ele>
<time>2011-04-27T04:18:21Z</time>
<desc>lat.=22.089977, lon.=104.258629, Alt.=199.041138m. Speed=8.064000m/h.</desc>
<speed>2.240000</speed>
</trkpt>
<trkpt lat="22.090012" lon="104.258736">
<ele>198.353638</ele>
<time>2011-04-27T04:18:26Z</time>
<desc>lat.=22.090012, lon.=104.258736, Alt.=198.353638m. Speed=7.092000m/h.</desc>
<speed>1.970000</speed>
</trkpt>
<trkpt lat="22.090055" lon="104.258850">
<ele>198.279419</ele>
<time>2011-04-27T04:18:31Z</time>
<desc>lat.=22.090055, lon.=104.258850, Alt.=198.279419m. Speed=7.668000m/h.</desc>
<speed>2.130000</speed>
</trkpt>
<trkpt lat="22.090099" lon="104.258942">
<ele>199.224731</ele>
<time>2011-04-27T04:18:36Z</time>
<desc>lat.=22.090099, lon.=104.258942, Alt.=199.224731m. Speed=6.480000m/h.</desc>
<speed>1.800000</speed>
</trkpt>
<trkpt lat="22.090130" lon="104.259033">
<ele>199.892700</ele>
<time>2011-04-27T04:18:41Z</time>
<desc>lat.=22.090130, lon.=104.259033, Alt.=199.892700m. Speed=7.380000m/h.</desc>
<speed>2.050000</speed>
</trkpt>
<trkpt lat="22.090162" lon="104.259155">
<ele>200.634888</ele>
<time>2011-04-27T04:18:46Z</time>
<desc>lat.=22.090162, lon.=104.259155, Alt.=200.634888m. Speed=7.848000m/h.</desc>
<speed>2.180000</speed>
</trkpt>
<trkpt lat="22.090200" lon="104.259254">
<ele>201.595825</ele>
<time>2011-04-27T04:18:51Z</time>
<desc>lat.=22.090200, lon.=104.259254, Alt.=201.595825m. Speed=8.532000m/h.</desc>
<speed>2.370000</speed>
</trkpt>
<trkpt lat="22.090237" lon="104.259361">
<ele>201.541138</ele>
<time>2011-04-27T04:18:56Z</time>
<desc>lat.=22.090237, lon.=104.259361, Alt.=201.541138m. Speed=6.660000m/h.</desc>
<speed>1.850000</speed>
</trkpt>
<trkpt lat="22.090284" lon="104.259460">
<ele>199.986450</ele>
<time>2011-04-27T04:19:01Z</time>
<desc>lat.=22.090284, lon.=104.259460, Alt.=199.986450m. Speed=7.668000m/h.</desc>
<speed>2.130000</speed>
</trkpt>
<trkpt lat="22.090336" lon="104.259575">
<ele>200.240356</ele>
<time>2011-04-27T04:19:06Z</time>
<desc>lat.=22.090336, lon.=104.259575, Alt.=200.240356m. Speed=9.000000m/h.</desc>
<speed>2.500000</speed>
</trkpt>
<trkpt lat="22.090370" lon="104.259689">
<ele>201.564575</ele>
<time>2011-04-27T04:19:11Z</time>
<desc>lat.=22.090370, lon.=104.259689, Alt.=201.564575m. Speed=8.892000m/h.</desc>
<speed>2.470000</speed>
</trkpt>
<trkpt lat="22.090405" lon="104.259781">
<ele>201.451294</ele>
<time>2011-04-27T04:19:16Z</time>
<desc>lat.=22.090405, lon.=104.259781, Alt.=201.451294m. Speed=7.632000m/h.</desc>
<speed>2.120000</speed>
</trkpt>
<trkpt lat="22.090437" lon="104.259880">
<ele>200.853638</ele>
<time>2011-04-27T04:19:21Z</time>
<desc>lat.=22.090437, lon.=104.259880, Alt.=200.853638m. Speed=8.316000m/h.</desc>
<speed>2.310000</speed>
</trkpt>
<trkpt lat="22.090475" lon="104.259979">
<ele>200.416138</ele>
<time>2011-04-27T04:19:26Z</time>
<desc>lat.=22.090475, lon.=104.259979, Alt.=200.416138m. Speed=9.144000m/h.</desc>
<speed>2.540000</speed>
</trkpt>
<trkpt lat="22.090506" lon="104.260109">
<ele>203.291138</ele>
<time>2011-04-27T04:19:31Z</time>
<desc>lat.=22.090506, lon.=104.260109, Alt.=203.291138m. Speed=8.964000m/h.</desc>
<speed>2.490000</speed>
</trkpt>
<trkpt lat="22.090544" lon="104.260223">
<ele>206.490356</ele>
<time>2011-04-27T04:19:36Z</time>
<desc>lat.=22.090544, lon.=104.260223, Alt.=206.490356m. Speed=9.072000m/h.</desc>
<speed>2.520000</speed>
</trkpt>
<trkpt lat="22.090590" lon="104.260345">
<ele>206.295044</ele>
<time>2011-04-27T04:19:41Z</time>
<desc>lat.=22.090590, lon.=104.260345, Alt.=206.295044m. Speed=10.368000m/h.</desc>
<speed>2.880000</speed>
</trkpt>
<trkpt lat="22.090641" lon="104.260475">
<ele>207.318481</ele>
<time>2011-04-27T04:19:46Z</time>
<desc>lat.=22.090641, lon.=104.260475, Alt.=207.318481m. Speed=10.260000m/h.</desc>
<speed>2.850000</speed>
</trkpt>
<trkpt lat="22.090704" lon="104.260605">
<ele>207.521606</ele>
<time>2011-04-27T04:19:51Z</time>
<desc>lat.=22.090704, lon.=104.260605, Alt.=207.521606m. Speed=9.936000m/h.</desc>
<speed>2.760000</speed>
</trkpt>
<trkpt lat="22.090776" lon="104.260704">
<ele>209.048950</ele>
<time>2011-04-27T04:19:56Z</time>
<desc>lat.=22.090776, lon.=104.260704, Alt.=209.048950m. Speed=6.804000m/h.</desc>
<speed>1.890000</speed>
</trkpt>
<trkpt lat="22.090849" lon="104.260803">
<ele>208.302856</ele>
<time>2011-04-27T04:20:01Z</time>
<desc>lat.=22.090849, lon.=104.260803, Alt.=208.302856m. Speed=10.080000m/h.</desc>
<speed>2.800000</speed>
</trkpt>
<trkpt lat="22.090927" lon="104.260887">
<ele>209.302856</ele>
<time>2011-04-27T04:20:06Z</time>
<desc>lat.=22.090927, lon.=104.260887, Alt.=209.302856m. Speed=6.804000m/h.</desc>
<speed>1.890000</speed>
</trkpt>
<trkpt lat="22.091003" lon="104.260956">
<ele>210.533325</ele>
<time>2011-04-27T04:20:11Z</time>
<desc>lat.=22.091003, lon.=104.260956, Alt.=210.533325m. Speed=8.172000m/h.</desc>
<speed>2.270000</speed>
</trkpt>
<trkpt lat="22.091072" lon="104.261032">
<ele>210.974731</ele>
<time>2011-04-27T04:20:16Z</time>
<desc>lat.=22.091072, lon.=104.261032, Alt.=210.974731m. Speed=5.472000m/h.</desc>
<speed>1.520000</speed>
</trkpt>
<trkpt lat="22.091120" lon="104.261086">
<ele>210.705200</ele>
<time>2011-04-27T04:20:21Z</time>
<desc>lat.=22.091120, lon.=104.261086, Alt.=210.705200m. Speed=6.372000m/h.</desc>
<speed>1.770000</speed>
</trkpt>
<trkpt lat="22.091179" lon="104.261131">
<ele>209.130981</ele>
<time>2011-04-27T04:20:26Z</time>
<desc>lat.=22.091179, lon.=104.261131, Alt.=209.130981m. Speed=5.328000m/h.</desc>
<speed>1.480000</speed>
</trkpt>
<trkpt lat="22.091223" lon="104.261192">
<ele>209.216919</ele>
<time>2011-04-27T04:20:31Z</time>
<desc>lat.=22.091223, lon.=104.261192, Alt.=209.216919m. Speed=4.752000m/h.</desc>
<speed>1.320000</speed>
</trkpt>
<trkpt lat="22.091270" lon="104.261230">
<ele>209.834106</ele>
<time>2011-04-27T04:20:36Z</time>
<desc>lat.=22.091270, lon.=104.261230, Alt.=209.834106m. Speed=4.212000m/h.</desc>
<speed>1.170000</speed>
</trkpt>
<trkpt lat="22.091328" lon="104.261276">
<ele>209.998169</ele>
<time>2011-04-27T04:20:41Z</time>
<desc>lat.=22.091328, lon.=104.261276, Alt.=209.998169m. Speed=4.572000m/h.</desc>
<speed>1.270000</speed>
</trkpt>
<trkpt lat="22.091383" lon="104.261330">
<ele>210.755981</ele>
<time>2011-04-27T04:20:46Z</time>
<desc>lat.=22.091383, lon.=104.261330, Alt.=210.755981m. Speed=5.760000m/h.</desc>
<speed>1.600000</speed>
</trkpt>
<trkpt lat="22.091427" lon="104.261375">
<ele>210.263794</ele>
<time>2011-04-27T04:20:51Z</time>
<desc>lat.=22.091427, lon.=104.261375, Alt.=210.263794m. Speed=5.004000m/h.</desc>
<speed>1.390000</speed>
</trkpt>
<trkpt lat="22.091486" lon="104.261406">
<ele>208.810669</ele>
<time>2011-04-27T04:20:56Z</time>
<desc>lat.=22.091486, lon.=104.261406, Alt.=208.810669m. Speed=4.392000m/h.</desc>
<speed>1.220000</speed>
</trkpt>
<trkpt lat="22.091539" lon="104.261436">
<ele>209.779419</ele>
<time>2011-04-27T04:21:01Z</time>
<desc>lat.=22.091539, lon.=104.261436, Alt.=209.779419m. Speed=4.644000m/h.</desc>
<speed>1.290000</speed>
</trkpt>
<trkpt lat="22.091608" lon="104.261452">
<ele>210.130981</ele>
<time>2011-04-27T04:21:06Z</time>
<desc>lat.=22.091608, lon.=104.261452, Alt.=210.130981m. Speed=5.040000m/h.</desc>
<speed>1.400000</speed>
</trkpt>
<trkpt lat="22.091671" lon="104.261467">
<ele>209.502075</ele>
<time>2011-04-27T04:21:11Z</time>
<desc>lat.=22.091671, lon.=104.261467, Alt.=209.502075m. Speed=4.752000m/h.</desc>
<speed>1.320000</speed>
</trkpt>
<trkpt lat="22.091738" lon="104.261467">
<ele>208.888794</ele>
<time>2011-04-27T04:21:16Z</time>
<desc>lat.=22.091738, lon.=104.261467, Alt.=208.888794m. Speed=4.824000m/h.</desc>
<speed>1.340000</speed>
</trkpt>
<trkpt lat="22.091810" lon="104.261467">
<ele>208.505981</ele>
<time>2011-04-27T04:21:21Z</time>
<desc>lat.=22.091810, lon.=104.261467, Alt.=208.505981m. Speed=4.824000m/h.</desc>
<speed>1.340000</speed>
</trkpt>
<trkpt lat="22.091879" lon="104.261475">
<ele>210.072388</ele>
<time>2011-04-27T04:21:26Z</time>
<desc>lat.=22.091879, lon.=104.261475, Alt.=210.072388m. Speed=5.544000m/h.</desc>
<speed>1.540000</speed>
</trkpt>
<trkpt lat="22.091955" lon="104.261482">
<ele>210.439575</ele>
<time>2011-04-27T04:21:31Z</time>
<desc>lat.=22.091955, lon.=104.261482, Alt.=210.439575m. Speed=6.840000m/h.</desc>
<speed>1.900000</speed>
</trkpt>
<trkpt lat="22.092041" lon="104.261490">
<ele>210.517700</ele>
<time>2011-04-27T04:21:36Z</time>
<desc>lat.=22.092041, lon.=104.261490, Alt.=210.517700m. Speed=7.380000m/h.</desc>
<speed>2.050000</speed>
</trkpt>
<trkpt lat="22.092133" lon="104.261520">
<ele>210.689575</ele>
<time>2011-04-27T04:21:41Z</time>
<desc>lat.=22.092133, lon.=104.261520, Alt.=210.689575m. Speed=7.884000m/h.</desc>
<speed>2.190000</speed>
</trkpt>
<trkpt lat="22.092226" lon="104.261551">
<ele>211.275513</ele>
<time>2011-04-27T04:21:46Z</time>
<desc>lat.=22.092226, lon.=104.261551, Alt.=211.275513m. Speed=7.992000m/h.</desc>
<speed>2.220000</speed>
</trkpt>
<trkpt lat="22.092314" lon="104.261581">
<ele>210.752075</ele>
<time>2011-04-27T04:21:51Z</time>
<desc>lat.=22.092314, lon.=104.261581, Alt.=210.752075m. Speed=7.992000m/h.</desc>
<speed>2.220000</speed>
</trkpt>
<trkpt lat="22.092402" lon="104.261620">
<ele>210.857544</ele>
<time>2011-04-27T04:21:56Z</time>
<desc>lat.=22.092402, lon.=104.261620, Alt.=210.857544m. Speed=7.020000m/h.</desc>
<speed>1.950000</speed>
</trkpt>
<trkpt lat="22.092495" lon="104.261650">
<ele>211.478638</ele>
<time>2011-04-27T04:22:01Z</time>
<desc>lat.=22.092495, lon.=104.261650, Alt.=211.478638m. Speed=7.560000m/h.</desc>
<speed>2.100000</speed>
</trkpt>
<trkpt lat="22.092592" lon="104.261696">
<ele>211.494263</ele>
<time>2011-04-27T04:22:06Z</time>
<desc>lat.=22.092592, lon.=104.261696, Alt.=211.494263m. Speed=8.172000m/h.</desc>
<speed>2.270000</speed>
</trkpt>
<trkpt lat="22.092697" lon="104.261734">
<ele>210.998169</ele>
<time>2011-04-27T04:22:11Z</time>
<desc>lat.=22.092697, lon.=104.261734, Alt.=210.998169m. Speed=9.396000m/h.</desc>
<speed>2.610000</speed>
</trkpt>
<trkpt lat="22.092823" lon="104.261772">
<ele>209.752075</ele>
<time>2011-04-27T04:22:16Z</time>
<desc>lat.=22.092823, lon.=104.261772, Alt.=209.752075m. Speed=11.844000m/h.</desc>
<speed>3.290000</speed>
</trkpt>
<trkpt lat="22.092985" lon="104.261879">
<ele>207.861450</ele>
<time>2011-04-27T04:22:21Z</time>
<desc>lat.=22.092985, lon.=104.261879, Alt.=207.861450m. Speed=16.992001m/h.</desc>
<speed>4.720000</speed>
</trkpt>
<trkpt lat="22.093145" lon="104.262054">
<ele>208.654419</ele>
<time>2011-04-27T04:22:26Z</time>
<desc>lat.=22.093145, lon.=104.262054, Alt.=208.654419m. Speed=17.568001m/h.</desc>
<speed>4.880000</speed>
</trkpt>
<trkpt lat="22.093266" lon="104.262199">
<ele>208.939575</ele>
<time>2011-04-27T04:22:31Z</time>
<desc>lat.=22.093266, lon.=104.262199, Alt.=208.939575m. Speed=9.648000m/h.</desc>
<speed>2.680000</speed>
</trkpt>
<trkpt lat="22.093306" lon="104.262260">
<ele>209.150513</ele>
<time>2011-04-27T04:22:36Z</time>
<desc>lat.=22.093306, lon.=104.262260, Alt.=209.150513m. Speed=2.160000m/h.</desc>
<speed>0.600000</speed>
</trkpt>
<trkpt lat="22.093306" lon="104.262268">
<ele>209.166138</ele>
<time>2011-04-27T04:22:41Z</time>
<desc>lat.=22.093306, lon.=104.262268, Alt.=209.166138m. Speed=0.252000m/h.</desc>
<speed>0.070000</speed>
</trkpt>
<trkpt lat="22.093304" lon="104.262268">
<ele>209.056763</ele>
<time>2011-04-27T04:22:46Z</time>
<desc>lat.=22.093304, lon.=104.262268, Alt.=209.056763m. Speed=0.216000m/h.</desc>
<speed>0.060000</speed>
</trkpt>
<trkpt lat="22.093304" lon="104.262268">
<ele>209.045044</ele>
<time>2011-04-27T04:22:51Z</time>
<desc>lat.=22.093304, lon.=104.262268, Alt.=209.045044m. Speed=0.036000m/h.</desc>
<speed>0.010000</speed>
</trkpt>
<trkpt lat="22.093304" lon="104.262268">
<ele>209.064575</ele>
<time>2011-04-27T04:22:56Z</time>
<desc>lat.=22.093304, lon.=104.262268, Alt.=209.064575m. Speed=0.288000m/h.</desc>
<speed>0.080000</speed>
</trkpt>
<trkpt lat="22.093311" lon="104.262268">
<ele>209.095825</ele>
<time>2011-04-27T04:23:01Z</time>
<desc>lat.=22.093311, lon.=104.262268, Alt.=209.095825m. Speed=0.360000m/h.</desc>
<speed>0.100000</speed>
</trkpt>
<trkpt lat="22.093313" lon="104.262268">
<ele>209.099731</ele>
<time>2011-04-27T04:23:06Z</time>
<desc>lat.=22.093313, lon.=104.262268, Alt.=209.099731m. Speed=0.792000m/h.</desc>
<speed>0.220000</speed>
</trkpt>
<trkpt lat="22.093315" lon="104.262268">
<ele>209.080200</ele>
<time>2011-04-27T04:23:11Z</time>
<desc>lat.=22.093315, lon.=104.262268, Alt.=209.080200m. Speed=0.252000m/h.</desc>
<speed>0.070000</speed>
</trkpt>
<trkpt lat="22.093317" lon="104.262268">
<ele>209.009888</ele>
<time>2011-04-27T04:23:16Z</time>
<desc>lat.=22.093317, lon.=104.262268, Alt.=209.009888m. Speed=0.252000m/h.</desc>
<speed>0.070000</speed>
</trkpt>
<trkpt lat="22.093319" lon="104.262268">
<ele>209.025513</ele>
<time>2011-04-27T04:23:21Z</time>
<desc>lat.=22.093319, lon.=104.262268, Alt.=209.025513m. Speed=0.036000m/h.</desc>
<speed>0.010000</speed>
</trkpt>
<trkpt lat="22.093319" lon="104.262268">
<ele>209.041138</ele>
<time>2011-04-27T04:23:26Z</time>
<desc>lat.=22.093319, lon.=104.262268, Alt.=209.041138m. Speed=0.036000m/h.</desc>
<speed>0.010000</speed>
</trkpt>
<trkpt lat="22.093319" lon="104.262268">
<ele>209.048950</ele>
<time>2011-04-27T04:23:31Z</time>
<desc>lat.=22.093319, lon.=104.262268, Alt.=209.048950m. Speed=0.000000m/h.</desc>
<speed>0.000000</speed>
</trkpt>
<trkpt lat="22.093319" lon="104.262268">
<ele>209.064575</ele>
<time>2011-04-27T04:23:36Z</time>
<desc>lat.=22.093319, lon.=104.262268, Alt.=209.064575m. Speed=0.000000m/h.</desc>
<speed>0.000000</speed>
</trkpt>
<trkpt lat="22.093319" lon="104.262268">
<ele>209.099731</ele>
<time>2011-04-27T04:23:41Z</time>
<desc>lat.=22.093319, lon.=104.262268, Alt.=209.099731m. Speed=0.036000m/h.</desc>
<speed>0.010000</speed>
</trkpt>
<trkpt lat="22.093319" lon="104.262268">
<ele>209.177856</ele>
<time>2011-04-27T04:23:46Z</time>
<desc>lat.=22.093319, lon.=104.262268, Alt.=209.177856m. Speed=0.000000m/h.</desc>
<speed>0.000000</speed>
</trkpt>
<trkpt lat="22.093319" lon="104.262268">
<ele>209.271606</ele>
<time>2011-04-27T04:23:51Z</time>
<desc>lat.=22.093319, lon.=104.262268, Alt.=209.271606m. Speed=0.000000m/h.</desc>
<speed>0.000000</speed>
</trkpt>
<trkpt lat="22.093319" lon="104.262268">
<ele>209.365356</ele>
<time>2011-04-27T04:23:56Z</time>
<desc>lat.=22.093319, lon.=104.262268, Alt.=209.365356m. Speed=0.288000m/h.</desc>
<speed>0.080000</speed>
</trkpt>
<trkpt lat="22.093328" lon="104.262276">
<ele>209.338013</ele>
<time>2011-04-27T04:24:01Z</time>
<desc>lat.=22.093328, lon.=104.262276, Alt.=209.338013m. Speed=7.704000m/h.</desc>
<speed>2.140000</speed>
</trkpt>
<trkpt lat="22.093468" lon="104.262337">
<ele>209.990356</ele>
<time>2011-04-27T04:24:06Z</time>
<desc>lat.=22.093468, lon.=104.262337, Alt.=209.990356m. Speed=13.356000m/h.</desc>
<speed>3.710000</speed>
</trkpt>
<trkpt lat="22.093651" lon="104.262360">
<ele>209.005981</ele>
<time>2011-04-27T04:24:11Z</time>
<desc>lat.=22.093651, lon.=104.262360, Alt.=209.005981m. Speed=14.256000m/h.</desc>
<speed>3.960000</speed>
</trkpt>
<trkpt lat="22.093821" lon="104.262375">
<ele>210.552856</ele>
<time>2011-04-27T04:24:16Z</time>
<desc>lat.=22.093821, lon.=104.262375, Alt.=210.552856m. Speed=11.808000m/h.</desc>
<speed>3.280000</speed>
</trkpt>
<trkpt lat="22.094002" lon="104.262390">
<ele>209.041138</ele>
<time>2011-04-27T04:24:21Z</time>
<desc>lat.=22.094002, lon.=104.262390, Alt.=209.041138m. Speed=13.320000m/h.</desc>
<speed>3.700000</speed>
</trkpt>
<trkpt lat="22.094158" lon="104.262383">
<ele>213.005981</ele>
<time>2011-04-27T04:24:26Z</time>
<desc>lat.=22.094158, lon.=104.262383, Alt.=213.005981m. Speed=9.144000m/h.</desc>
<speed>2.540000</speed>
</trkpt>
<trkpt lat="22.094284" lon="104.262344">
<ele>216.423950</ele>
<time>2011-04-27T04:24:31Z</time>
<desc>lat.=22.094284, lon.=104.262344, Alt.=216.423950m. Speed=10.188000m/h.</desc>
<speed>2.830000</speed>
</trkpt>
<trkpt lat="22.094412" lon="104.262276">
<ele>214.513794</ele>
<time>2011-04-27T04:24:36Z</time>
<desc>lat.=22.094412, lon.=104.262276, Alt.=214.513794m. Speed=8.928000m/h.</desc>
<speed>2.480000</speed>
</trkpt>
<trkpt lat="22.094530" lon="104.262222">
<ele>214.974731</ele>
<time>2011-04-27T04:24:41Z</time>
<desc>lat.=22.094530, lon.=104.262222, Alt.=214.974731m. Speed=8.028000m/h.</desc>
<speed>2.230000</speed>
</trkpt>
<trkpt lat="22.094631" lon="104.262184">
<ele>217.615356</ele>
<time>2011-04-27T04:24:46Z</time>
<desc>lat.=22.094631, lon.=104.262184, Alt.=217.615356m. Speed=7.020000m/h.</desc>
<speed>1.950000</speed>
</trkpt>
<trkpt lat="22.094719" lon="104.262138">
<ele>219.439575</ele>
<time>2011-04-27T04:24:51Z</time>
<desc>lat.=22.094719, lon.=104.262138, Alt.=219.439575m. Speed=7.920000m/h.</desc>
<speed>2.200000</speed>
</trkpt>
<trkpt lat="22.094803" lon="104.262047">
<ele>220.111450</ele>
<time>2011-04-27T04:24:56Z</time>
<desc>lat.=22.094803, lon.=104.262047, Alt.=220.111450m. Speed=9.144000m/h.</desc>
<speed>2.540000</speed>
</trkpt>
<trkpt lat="22.094873" lon="104.261940">
<ele>220.716919</ele>
<time>2011-04-27T04:25:01Z</time>
<desc>lat.=22.094873, lon.=104.261940, Alt.=220.716919m. Speed=9.792000m/h.</desc>
<speed>2.720000</speed>
</trkpt>
<trkpt lat="22.094929" lon="104.261833">
<ele>222.877075</ele>
<time>2011-04-27T04:25:06Z</time>
<desc>lat.=22.094929, lon.=104.261833, Alt.=222.877075m. Speed=9.720000m/h.</desc>
<speed>2.700000</speed>
</trkpt>
<trkpt lat="22.094961" lon="104.261719">
<ele>226.978638</ele>
<time>2011-04-27T04:25:11Z</time>
<desc>lat.=22.094961, lon.=104.261719, Alt.=226.978638m. Speed=8.280000m/h.</desc>
<speed>2.300000</speed>
</trkpt>
<trkpt lat="22.095013" lon="104.261574">
<ele>228.576294</ele>
<time>2011-04-27T04:25:16Z</time>
<desc>lat.=22.095013, lon.=104.261574, Alt.=228.576294m. Speed=11.448000m/h.</desc>
<speed>3.180000</speed>
</trkpt>
<trkpt lat="22.095049" lon="104.261444">
<ele>227.869263</ele>
<time>2011-04-27T04:25:21Z</time>
<desc>lat.=22.095049, lon.=104.261444, Alt.=227.869263m. Speed=9.108000m/h.</desc>
<speed>2.530000</speed>
</trkpt>
<trkpt lat="22.095104" lon="104.261330">
<ele>225.627075</ele>
<time>2011-04-27T04:25:26Z</time>
<desc>lat.=22.095104, lon.=104.261330, Alt.=225.627075m. Speed=8.820000m/h.</desc>
<speed>2.450000</speed>
</trkpt>
<trkpt lat="22.095158" lon="104.261246">
<ele>224.435669</ele>
<time>2011-04-27T04:25:31Z</time>
<desc>lat.=22.095158, lon.=104.261246, Alt.=224.435669m. Speed=4.464000m/h.</desc>
<speed>1.240000</speed>
</trkpt>
<trkpt lat="22.095221" lon="104.261192">
<ele>223.638794</ele>
<time>2011-04-27T04:25:36Z</time>
<desc>lat.=22.095221, lon.=104.261192, Alt.=223.638794m. Speed=6.156000m/h.</desc>
<speed>1.710000</speed>
</trkpt>
<trkpt lat="22.095284" lon="104.261139">
<ele>223.884888</ele>
<time>2011-04-27T04:25:41Z</time>
<desc>lat.=22.095284, lon.=104.261139, Alt.=223.884888m. Speed=6.228000m/h.</desc>
<speed>1.730000</speed>
</trkpt>
<trkpt lat="22.095356" lon="104.261086">
<ele>223.154419</ele>
<time>2011-04-27T04:25:46Z</time>
<desc>lat.=22.095356, lon.=104.261086, Alt.=223.154419m. Speed=4.752000m/h.</desc>
<speed>1.320000</speed>
</trkpt>
<trkpt lat="22.095419" lon="104.261047">
<ele>223.099731</ele>
<time>2011-04-27T04:25:51Z</time>
<desc>lat.=22.095419, lon.=104.261047, Alt.=223.099731m. Speed=5.868000m/h.</desc>
<speed>1.630000</speed>
</trkpt>
<trkpt lat="22.095470" lon="104.261002">
<ele>226.150513</ele>
<time>2011-04-27T04:25:56Z</time>
<desc>lat.=22.095470, lon.=104.261002, Alt.=226.150513m. Speed=5.940000m/h.</desc>
<speed>1.650000</speed>
</trkpt>
<trkpt lat="22.095533" lon="104.260956">
<ele>226.779419</ele>
<time>2011-04-27T04:26:01Z</time>
<desc>lat.=22.095533, lon.=104.260956, Alt.=226.779419m. Speed=5.184000m/h.</desc>
<speed>1.440000</speed>
</trkpt>
<trkpt lat="22.095587" lon="104.260918">
<ele>227.009888</ele>
<time>2011-04-27T04:26:06Z</time>
<desc>lat.=22.095587, lon.=104.260918, Alt.=227.009888m. Speed=5.436000m/h.</desc>
<speed>1.510000</speed>
</trkpt>
<trkpt lat="22.095654" lon="104.260864">
<ele>225.673950</ele>
<time>2011-04-27T04:26:11Z</time>
<desc>lat.=22.095654, lon.=104.260864, Alt.=225.673950m. Speed=5.436000m/h.</desc>
<speed>1.510000</speed>
</trkpt>
<trkpt lat="22.095699" lon="104.260818">
<ele>225.923950</ele>
<time>2011-04-27T04:26:16Z</time>
<desc>lat.=22.095699, lon.=104.260818, Alt.=225.923950m. Speed=5.040000m/h.</desc>
<speed>1.400000</speed>
</trkpt>
<trkpt lat="22.095757" lon="104.260773">
<ele>226.146606</ele>
<time>2011-04-27T04:26:21Z</time>
<desc>lat.=22.095757, lon.=104.260773, Alt.=226.146606m. Speed=4.212000m/h.</desc>
<speed>1.170000</speed>
</trkpt>
<trkpt lat="22.095804" lon="104.260727">
<ele>226.369263</ele>
<time>2011-04-27T04:26:26Z</time>
<desc>lat.=22.095804, lon.=104.260727, Alt.=226.369263m. Speed=4.032000m/h.</desc>
<speed>1.120000</speed>
</trkpt>
<trkpt lat="22.095852" lon="104.260681">
<ele>227.291138</ele>
<time>2011-04-27T04:26:31Z</time>
<desc>lat.=22.095852, lon.=104.260681, Alt.=227.291138m. Speed=6.012000m/h.</desc>
<speed>1.670000</speed>
</trkpt>
<trkpt lat="22.095915" lon="104.260658">
<ele>232.826294</ele>
<time>2011-04-27T04:26:36Z</time>
<desc>lat.=22.095915, lon.=104.260658, Alt.=232.826294m. Speed=5.148000m/h.</desc>
<speed>1.430000</speed>
</trkpt>
<trkpt lat="22.095961" lon="104.260620">
<ele>235.884888</ele>
<time>2011-04-27T04:26:41Z</time>
<desc>lat.=22.095961, lon.=104.260620, Alt.=235.884888m. Speed=4.032000m/h.</desc>
<speed>1.120000</speed>
</trkpt>
<trkpt lat="22.096010" lon="104.260567">
<ele>237.990356</ele>
<time>2011-04-27T04:26:46Z</time>
<desc>lat.=22.096010, lon.=104.260567, Alt.=237.990356m. Speed=5.364000m/h.</desc>
<speed>1.490000</speed>
</trkpt>
<trkpt lat="22.096058" lon="104.260521">
<ele>240.080200</ele>
<time>2011-04-27T04:26:51Z</time>
<desc>lat.=22.096058, lon.=104.260521, Alt.=240.080200m. Speed=6.156000m/h.</desc>
<speed>1.710000</speed>
</trkpt>
<trkpt lat="22.096106" lon="104.260490">
<ele>241.896606</ele>
<time>2011-04-27T04:26:56Z</time>
<desc>lat.=22.096106, lon.=104.260490, Alt.=241.896606m. Speed=5.292000m/h.</desc>
<speed>1.470000</speed>
</trkpt>
<trkpt lat="22.096153" lon="104.260452">
<ele>241.974731</ele>
<time>2011-04-27T04:27:01Z</time>
<desc>lat.=22.096153, lon.=104.260452, Alt.=241.974731m. Speed=4.608000m/h.</desc>
<speed>1.280000</speed>
</trkpt>
<trkpt lat="22.096216" lon="104.260406">
<ele>242.783325</ele>
<time>2011-04-27T04:27:06Z</time>
<desc>lat.=22.096216, lon.=104.260406, Alt.=242.783325m. Speed=3.708000m/h.</desc>
<speed>1.030000</speed>
</trkpt>
<trkpt lat="22.096266" lon="104.260353">
<ele>242.388794</ele>
<time>2011-04-27T04:27:11Z</time>
<desc>lat.=22.096266, lon.=104.260353, Alt.=242.388794m. Speed=4.248000m/h.</desc>
<speed>1.180000</speed>
</trkpt>
<trkpt lat="22.096315" lon="104.260292">
<ele>241.443481</ele>
<time>2011-04-27T04:27:16Z</time>
<desc>lat.=22.096315, lon.=104.260292, Alt.=241.443481m. Speed=3.780000m/h.</desc>
<speed>1.050000</speed>
</trkpt>
<trkpt lat="22.096365" lon="104.260231">
<ele>240.588013</ele>
<time>2011-04-27T04:27:21Z</time>
<desc>lat.=22.096365, lon.=104.260231, Alt.=240.588013m. Speed=4.788000m/h.</desc>
<speed>1.330000</speed>
</trkpt>
<trkpt lat="22.096422" lon="104.260193">
<ele>239.353638</ele>
<time>2011-04-27T04:27:26Z</time>
<desc>lat.=22.096422, lon.=104.260193, Alt.=239.353638m. Speed=4.176000m/h.</desc>
<speed>1.160000</speed>
</trkpt>
<trkpt lat="22.096470" lon="104.260155">
<ele>239.306763</ele>
<time>2011-04-27T04:27:31Z</time>
<desc>lat.=22.096470, lon.=104.260155, Alt.=239.306763m. Speed=3.888000m/h.</desc>
<speed>1.080000</speed>
</trkpt>
<trkpt lat="22.096504" lon="104.260124">
<ele>238.904419</ele>
<time>2011-04-27T04:27:36Z</time>
<desc>lat.=22.096504, lon.=104.260124, Alt.=238.904419m. Speed=2.592000m/h.</desc>
<speed>0.720000</speed>
</trkpt>
<trkpt lat="22.096561" lon="104.260094">
<ele>239.021606</ele>
<time>2011-04-27T04:27:41Z</time>
<desc>lat.=22.096561, lon.=104.260094, Alt.=239.021606m. Speed=4.860000m/h.</desc>
<speed>1.350000</speed>
</trkpt>
<trkpt lat="22.096615" lon="104.260071">
<ele>239.213013</ele>
<time>2011-04-27T04:27:46Z</time>
<desc>lat.=22.096615, lon.=104.260071, Alt.=239.213013m. Speed=4.428000m/h.</desc>
<speed>1.230000</speed>
</trkpt>
<trkpt lat="22.096670" lon="104.260048">
<ele>238.798950</ele>
<time>2011-04-27T04:27:51Z</time>
<desc>lat.=22.096670, lon.=104.260048, Alt.=238.798950m. Speed=5.364000m/h.</desc>
<speed>1.490000</speed>
</trkpt>
<trkpt lat="22.096737" lon="104.260040">
<ele>238.869263</ele>
<time>2011-04-27T04:27:56Z</time>
<desc>lat.=22.096737, lon.=104.260040, Alt.=238.869263m. Speed=3.888000m/h.</desc>
<speed>1.080000</speed>
</trkpt>
<trkpt lat="22.096790" lon="104.260040">
<ele>238.244263</ele>
<time>2011-04-27T04:28:01Z</time>
<desc>lat.=22.096790, lon.=104.260040, Alt.=238.244263m. Speed=3.852000m/h.</desc>
<speed>1.070000</speed>
</trkpt>
<trkpt lat="22.096842" lon="104.260002">
<ele>238.853638</ele>
<time>2011-04-27T04:28:06Z</time>
<desc>lat.=22.096842, lon.=104.260002, Alt.=238.853638m. Speed=3.060000m/h.</desc>
<speed>0.850000</speed>
</trkpt>
<trkpt lat="22.096903" lon="104.259987">
<ele>233.732544</ele>
<time>2011-04-27T04:28:11Z</time>
<desc>lat.=22.096903, lon.=104.259987, Alt.=233.732544m. Speed=4.824000m/h.</desc>
<speed>1.340000</speed>
</trkpt>
<trkpt lat="22.096964" lon="104.260002">
<ele>234.533325</ele>
<time>2011-04-27T04:28:16Z</time>
<desc>lat.=22.096964, lon.=104.260002, Alt.=234.533325m. Speed=4.464000m/h.</desc>
<speed>1.240000</speed>
</trkpt>
<trkpt lat="22.097025" lon="104.259995">
<ele>235.877075</ele>
<time>2011-04-27T04:28:21Z</time>
<desc>lat.=22.097025, lon.=104.259995, Alt.=235.877075m. Speed=4.032000m/h.</desc>
<speed>1.120000</speed>
</trkpt>
<trkpt lat="22.097078" lon="104.259979">
<ele>239.650513</ele>
<time>2011-04-27T04:28:26Z</time>
<desc>lat.=22.097078, lon.=104.259979, Alt.=239.650513m. Speed=4.572000m/h.</desc>
<speed>1.270000</speed>
</trkpt>
<trkpt lat="22.097134" lon="104.259972">
<ele>242.857544</ele>
<time>2011-04-27T04:28:31Z</time>
<desc>lat.=22.097134, lon.=104.259972, Alt.=242.857544m. Speed=4.320000m/h.</desc>
<speed>1.200000</speed>
</trkpt>
<trkpt lat="22.097189" lon="104.259964">
<ele>245.982544</ele>
<time>2011-04-27T04:28:36Z</time>
<desc>lat.=22.097189, lon.=104.259964, Alt.=245.982544m. Speed=5.292000m/h.</desc>
<speed>1.470000</speed>
</trkpt>
<trkpt lat="22.097239" lon="104.259949">
<ele>246.443481</ele>
<time>2011-04-27T04:28:41Z</time>
<desc>lat.=22.097239, lon.=104.259949, Alt.=246.443481m. Speed=3.996000m/h.</desc>
<speed>1.110000</speed>
</trkpt>
<trkpt lat="22.097292" lon="104.259949">
<ele>248.634888</ele>
<time>2011-04-27T04:28:46Z</time>
<desc>lat.=22.097292, lon.=104.259949, Alt.=248.634888m. Speed=4.356000m/h.</desc>
<speed>1.210000</speed>
</trkpt>
<trkpt lat="22.097343" lon="104.259941">
<ele>250.107544</ele>
<time>2011-04-27T04:28:51Z</time>
<desc>lat.=22.097343, lon.=104.259941, Alt.=250.107544m. Speed=4.824000m/h.</desc>
<speed>1.340000</speed>
</trkpt>
<trkpt lat="22.097389" lon="104.259926">
<ele>248.923950</ele>
<time>2011-04-27T04:28:56Z</time>
<desc>lat.=22.097389, lon.=104.259926, Alt.=248.923950m. Speed=2.376000m/h.</desc>
<speed>0.660000</speed>
</trkpt>
<trkpt lat="22.097429" lon="104.259911">
<ele>248.818481</ele>
<time>2011-04-27T04:29:01Z</time>
<desc>lat.=22.097429, lon.=104.259911, Alt.=248.818481m. Speed=4.032000m/h.</desc>
<speed>1.120000</speed>
</trkpt>
<trkpt lat="22.097473" lon="104.259911">
<ele>250.423950</ele>
<time>2011-04-27T04:29:06Z</time>
<desc>lat.=22.097473, lon.=104.259911, Alt.=250.423950m. Speed=2.520000m/h.</desc>
<speed>0.700000</speed>
</trkpt>
<trkpt lat="22.097536" lon="104.259903">
<ele>248.818481</ele>
<time>2011-04-27T04:29:11Z</time>
<desc>lat.=22.097536, lon.=104.259903, Alt.=248.818481m. Speed=4.176000m/h.</desc>
<speed>1.160000</speed>
</trkpt>
<trkpt lat="22.097580" lon="104.259880">
<ele>248.205200</ele>
<time>2011-04-27T04:29:16Z</time>
<desc>lat.=22.097580, lon.=104.259880, Alt.=248.205200m. Speed=5.004000m/h.</desc>
<speed>1.390000</speed>
</trkpt>
<trkpt lat="22.097643" lon="104.259865">
<ele>246.568481</ele>
<time>2011-04-27T04:29:21Z</time>
<desc>lat.=22.097643, lon.=104.259865, Alt.=246.568481m. Speed=5.148000m/h.</desc>
<speed>1.430000</speed>
</trkpt>
<trkpt lat="22.097706" lon="104.259842">
<ele>246.166138</ele>
<time>2011-04-27T04:29:26Z</time>
<desc>lat.=22.097706, lon.=104.259842, Alt.=246.166138m. Speed=4.500000m/h.</desc>
<speed>1.250000</speed>
</trkpt>
<trkpt lat="22.097775" lon="104.259819">
<ele>246.455200</ele>
<time>2011-04-27T04:29:31Z</time>
<desc>lat.=22.097775, lon.=104.259819, Alt.=246.455200m. Speed=3.780000m/h.</desc>
<speed>1.050000</speed>
</trkpt>
<trkpt lat="22.097828" lon="104.259804">
<ele>248.099731</ele>
<time>2011-04-27T04:29:36Z</time>
<desc>lat.=22.097828, lon.=104.259804, Alt.=248.099731m. Speed=4.644000m/h.</desc>
<speed>1.290000</speed>
</trkpt>
<trkpt lat="22.097881" lon="104.259796">
<ele>249.095825</ele>
<time>2011-04-27T04:29:41Z</time>
<desc>lat.=22.097881, lon.=104.259796, Alt.=249.095825m. Speed=4.680000m/h.</desc>
<speed>1.300000</speed>
</trkpt>
<trkpt lat="22.097927" lon="104.259766">
<ele>250.443481</ele>
<time>2011-04-27T04:29:46Z</time>
<desc>lat.=22.097927, lon.=104.259766, Alt.=250.443481m. Speed=4.284000m/h.</desc>
<speed>1.190000</speed>
</trkpt>
<trkpt lat="22.097969" lon="104.259743">
<ele>251.064575</ele>
<time>2011-04-27T04:29:51Z</time>
<desc>lat.=22.097969, lon.=104.259743, Alt.=251.064575m. Speed=2.448000m/h.</desc>
<speed>0.680000</speed>
</trkpt>
<trkpt lat="22.098022" lon="104.259743">
<ele>250.931763</ele>
<time>2011-04-27T04:29:56Z</time>
<desc>lat.=22.098022, lon.=104.259743, Alt.=250.931763m. Speed=4.860000m/h.</desc>
<speed>1.350000</speed>
</trkpt>
<trkpt lat="22.098066" lon="104.259705">
<ele>251.041138</ele>
<time>2011-04-27T04:30:01Z</time>
<desc>lat.=22.098066, lon.=104.259705, Alt.=251.041138m. Speed=4.212000m/h.</desc>
<speed>1.170000</speed>
</trkpt>
<trkpt lat="22.098122" lon="104.259682">
<ele>250.752075</ele>
<time>2011-04-27T04:30:06Z</time>
<desc>lat.=22.098122, lon.=104.259682, Alt.=250.752075m. Speed=4.356000m/h.</desc>
<speed>1.210000</speed>
</trkpt>
<trkpt lat="22.098166" lon="104.259659">
<ele>251.841919</ele>
<time>2011-04-27T04:30:11Z</time>
<desc>lat.=22.098166, lon.=104.259659, Alt.=251.841919m. Speed=4.356000m/h.</desc>
<speed>1.210000</speed>
</trkpt>
<trkpt lat="22.098221" lon="104.259644">
<ele>251.857544</ele>
<time>2011-04-27T04:30:16Z</time>
<desc>lat.=22.098221, lon.=104.259644, Alt.=251.857544m. Speed=4.320000m/h.</desc>
<speed>1.200000</speed>
</trkpt>
<trkpt lat="22.098272" lon="104.259605">
<ele>251.861450</ele>
<time>2011-04-27T04:30:21Z</time>
<desc>lat.=22.098272, lon.=104.259605, Alt.=251.861450m. Speed=4.068000m/h.</desc>
<speed>1.130000</speed>
</trkpt>
<trkpt lat="22.098322" lon="104.259583">
<ele>253.490356</ele>
<time>2011-04-27T04:30:26Z</time>
<desc>lat.=22.098322, lon.=104.259583, Alt.=253.490356m. Speed=4.248000m/h.</desc>
<speed>1.180000</speed>
</trkpt>
<trkpt lat="22.098375" lon="104.259544">
<ele>252.392700</ele>
<time>2011-04-27T04:30:31Z</time>
<desc>lat.=22.098375, lon.=104.259544, Alt.=252.392700m. Speed=3.276000m/h.</desc>
<speed>0.910000</speed>
</trkpt>
<trkpt lat="22.098436" lon="104.259514">
<ele>253.084106</ele>
<time>2011-04-27T04:30:36Z</time>
<desc>lat.=22.098436, lon.=104.259514, Alt.=253.084106m. Speed=4.176000m/h.</desc>
<speed>1.160000</speed>
</trkpt>
<trkpt lat="22.098484" lon="104.259483">
<ele>253.599731</ele>
<time>2011-04-27T04:30:41Z</time>
<desc>lat.=22.098484, lon.=104.259483, Alt.=253.599731m. Speed=4.032000m/h.</desc>
<speed>1.120000</speed>
</trkpt>
<trkpt lat="22.098530" lon="104.259468">
<ele>254.154419</ele>
<time>2011-04-27T04:30:46Z</time>
<desc>lat.=22.098530, lon.=104.259468, Alt.=254.154419m. Speed=4.428000m/h.</desc>
<speed>1.230000</speed>
</trkpt>
<trkpt lat="22.098579" lon="104.259430">
<ele>255.177856</ele>
<time>2011-04-27T04:30:51Z</time>
<desc>lat.=22.098579, lon.=104.259430, Alt.=255.177856m. Speed=4.284000m/h.</desc>
<speed>1.190000</speed>
</trkpt>
<trkpt lat="22.098623" lon="104.259415">
<ele>256.410400</ele>
<time>2011-04-27T04:30:56Z</time>
<desc>lat.=22.098623, lon.=104.259415, Alt.=256.410400m. Speed=3.672000m/h.</desc>
<speed>1.020000</speed>
</trkpt>
<trkpt lat="22.098679" lon="104.259392">
<ele>257.394775</ele>
<time>2011-04-27T04:31:01Z</time>
<desc>lat.=22.098679, lon.=104.259392, Alt.=257.394775m. Speed=2.448000m/h.</desc>
<speed>0.680000</speed>
</trkpt>
<trkpt lat="22.098715" lon="104.259369">
<ele>258.386963</ele>
<time>2011-04-27T04:31:06Z</time>
<desc>lat.=22.098715, lon.=104.259369, Alt.=258.386963m. Speed=3.780000m/h.</desc>
<speed>1.050000</speed>
</trkpt>
<trkpt lat="22.098778" lon="104.259338">
<ele>259.785400</ele>
<time>2011-04-27T04:31:11Z</time>
<desc>lat.=22.098778, lon.=104.259338, Alt.=259.785400m. Speed=6.336000m/h.</desc>
<speed>1.760000</speed>
</trkpt>
<trkpt lat="22.098822" lon="104.259331">
<ele>261.293213</ele>
<time>2011-04-27T04:31:16Z</time>
<desc>lat.=22.098822, lon.=104.259331, Alt.=261.293213m. Speed=4.032000m/h.</desc>
<speed>1.120000</speed>
</trkpt>
<trkpt lat="22.098866" lon="104.259315">
<ele>263.316650</ele>
<time>2011-04-27T04:31:21Z</time>
<desc>lat.=22.098866, lon.=104.259315, Alt.=263.316650m. Speed=4.068000m/h.</desc>
<speed>1.130000</speed>
</trkpt>
<trkpt lat="22.098919" lon="104.259293">
<ele>266.926025</ele>
<time>2011-04-27T04:31:26Z</time>
<desc>lat.=22.098919, lon.=104.259293, Alt.=266.926025m. Speed=4.320000m/h.</desc>
<speed>1.200000</speed>
</trkpt>
<trkpt lat="22.098965" lon="104.259285">
<ele>269.496338</ele>
<time>2011-04-27T04:31:31Z</time>
<desc>lat.=22.098965, lon.=104.259285, Alt.=269.496338m. Speed=3.384000m/h.</desc>
<speed>0.940000</speed>
</trkpt>
<trkpt lat="22.099003" lon="104.259270">
<ele>272.574463</ele>
<time>2011-04-27T04:31:36Z</time>
<desc>lat.=22.099003, lon.=104.259270, Alt.=272.574463m. Speed=2.484000m/h.</desc>
<speed>0.690000</speed>
</trkpt>
<trkpt lat="22.099052" lon="104.259232">
<ele>273.621338</ele>
<time>2011-04-27T04:31:41Z</time>
<desc>lat.=22.099052, lon.=104.259232, Alt.=273.621338m. Speed=4.392000m/h.</desc>
<speed>1.220000</speed>
</trkpt>
<trkpt lat="22.099106" lon="104.259201">
<ele>276.613525</ele>
<time>2011-04-27T04:31:46Z</time>
<desc>lat.=22.099106, lon.=104.259201, Alt.=276.613525m. Speed=3.420000m/h.</desc>
<speed>0.950000</speed>
</trkpt>
<trkpt lat="22.099140" lon="104.259186">
<ele>279.222900</ele>
<time>2011-04-27T04:31:51Z</time>
<desc>lat.=22.099140, lon.=104.259186, Alt.=279.222900m. Speed=3.456000m/h.</desc>
<speed>0.960000</speed>
</trkpt>
<trkpt lat="22.099188" lon="104.259163">
<ele>279.402588</ele>
<time>2011-04-27T04:31:56Z</time>
<desc>lat.=22.099188, lon.=104.259163, Alt.=279.402588m. Speed=3.852000m/h.</desc>
<speed>1.070000</speed>
</trkpt>
<trkpt lat="22.099253" lon="104.259117">
<ele>280.941650</ele>
<time>2011-04-27T04:32:01Z</time>
<desc>lat.=22.099253, lon.=104.259117, Alt.=280.941650m. Speed=4.284000m/h.</desc>
<speed>1.190000</speed>
</trkpt>
<trkpt lat="22.099314" lon="104.259087">
<ele>280.910400</ele>
<time>2011-04-27T04:32:06Z</time>
<desc>lat.=22.099314, lon.=104.259087, Alt.=280.910400m. Speed=4.392000m/h.</desc>
<speed>1.220000</speed>
</trkpt>
<trkpt lat="22.099348" lon="104.259071">
<ele>281.379150</ele>
<time>2011-04-27T04:32:11Z</time>
<desc>lat.=22.099348, lon.=104.259071, Alt.=281.379150m. Speed=3.528000m/h.</desc>
<speed>0.980000</speed>
</trkpt>
<trkpt lat="22.099407" lon="104.259048">
<ele>282.847900</ele>
<time>2011-04-27T04:32:16Z</time>
<desc>lat.=22.099407, lon.=104.259048, Alt.=282.847900m. Speed=4.392000m/h.</desc>
<speed>1.220000</speed>
</trkpt>
<trkpt lat="22.099464" lon="104.259041">
<ele>283.801025</ele>
<time>2011-04-27T04:32:21Z</time>
<desc>lat.=22.099464, lon.=104.259041, Alt.=283.801025m. Speed=4.644000m/h.</desc>
<speed>1.290000</speed>
</trkpt>
<trkpt lat="22.099518" lon="104.259010">
<ele>283.066650</ele>
<time>2011-04-27T04:32:26Z</time>
<desc>lat.=22.099518, lon.=104.259010, Alt.=283.066650m. Speed=4.248000m/h.</desc>
<speed>1.180000</speed>
</trkpt>
<trkpt lat="22.099573" lon="104.258987">
<ele>283.035400</ele>
<time>2011-04-27T04:32:31Z</time>
<desc>lat.=22.099573, lon.=104.258987, Alt.=283.035400m. Speed=3.204000m/h.</desc>
<speed>0.890000</speed>
</trkpt>
<trkpt lat="22.099611" lon="104.258957">
<ele>283.551025</ele>
<time>2011-04-27T04:32:36Z</time>
<desc>lat.=22.099611, lon.=104.258957, Alt.=283.551025m. Speed=0.576000m/h.</desc>
<speed>0.160000</speed>
</trkpt>
<trkpt lat="22.099651" lon="104.258926">
<ele>281.504150</ele>
<time>2011-04-27T04:32:41Z</time>
<desc>lat.=22.099651, lon.=104.258926, Alt.=281.504150m. Speed=4.824000m/h.</desc>
<speed>1.340000</speed>
</trkpt>
<trkpt lat="22.099710" lon="104.258896">
<ele>281.152588</ele>
<time>2011-04-27T04:32:46Z</time>
<desc>lat.=22.099710, lon.=104.258896, Alt.=281.152588m. Speed=5.400000m/h.</desc>
<speed>1.500000</speed>
</trkpt>
<trkpt lat="22.099758" lon="104.258858">
<ele>280.808838</ele>
<time>2011-04-27T04:32:51Z</time>
<desc>lat.=22.099758, lon.=104.258858, Alt.=280.808838m. Speed=4.428000m/h.</desc>
<speed>1.230000</speed>
</trkpt>
<trkpt lat="22.099806" lon="104.258827">
<ele>278.785400</ele>
<time>2011-04-27T04:32:56Z</time>
<desc>lat.=22.099806, lon.=104.258827, Alt.=278.785400m. Speed=4.104000m/h.</desc>
<speed>1.140000</speed>
</trkpt>
<trkpt lat="22.099861" lon="104.258797">
<ele>278.457275</ele>
<time>2011-04-27T04:33:01Z</time>
<desc>lat.=22.099861, lon.=104.258797, Alt.=278.457275m. Speed=3.456000m/h.</desc>
<speed>0.960000</speed>
</trkpt>
<trkpt lat="22.099918" lon="104.258759">
<ele>280.449463</ele>
<time>2011-04-27T04:33:06Z</time>
<desc>lat.=22.099918, lon.=104.258759, Alt.=280.449463m. Speed=4.608000m/h.</desc>
<speed>1.280000</speed>
</trkpt>
<trkpt lat="22.099972" lon="104.258728">
<ele>281.777588</ele>
<time>2011-04-27T04:33:11Z</time>
<desc>lat.=22.099972, lon.=104.258728, Alt.=281.777588m. Speed=4.356000m/h.</desc>
<speed>1.210000</speed>
</trkpt>
<trkpt lat="22.100019" lon="104.258698">
<ele>283.090088</ele>
<time>2011-04-27T04:33:16Z</time>
<desc>lat.=22.100019, lon.=104.258698, Alt.=283.090088m. Speed=3.960000m/h.</desc>
<speed>1.100000</speed>
</trkpt>
<trkpt lat="22.100056" lon="104.258675">
<ele>284.019775</ele>
<time>2011-04-27T04:33:21Z</time>
<desc>lat.=22.100056, lon.=104.258675, Alt.=284.019775m. Speed=4.032000m/h.</desc>
<speed>1.120000</speed>
</trkpt>
<trkpt lat="22.100103" lon="104.258644">
<ele>283.652588</ele>
<time>2011-04-27T04:33:26Z</time>
<desc>lat.=22.100103, lon.=104.258644, Alt.=283.652588m. Speed=3.888000m/h.</desc>
<speed>1.080000</speed>
</trkpt>
<trkpt lat="22.100166" lon="104.258606">
<ele>284.035400</ele>
<time>2011-04-27T04:33:31Z</time>
<desc>lat.=22.100166, lon.=104.258606, Alt.=284.035400m. Speed=5.112000m/h.</desc>
<speed>1.420000</speed>
</trkpt>
<trkpt lat="22.100246" lon="104.258575">
<ele>283.590088</ele>
<time>2011-04-27T04:33:36Z</time>
<desc>lat.=22.100246, lon.=104.258575, Alt.=283.590088m. Speed=5.508000m/h.</desc>
<speed>1.530000</speed>
</trkpt>
<trkpt lat="22.100307" lon="104.258568">
<ele>283.230713</ele>
<time>2011-04-27T04:33:41Z</time>
<desc>lat.=22.100307, lon.=104.258568, Alt.=283.230713m. Speed=4.320000m/h.</desc>
<speed>1.200000</speed>
</trkpt>
<trkpt lat="22.100395" lon="104.258591">
<ele>282.965088</ele>
<time>2011-04-27T04:33:46Z</time>
<desc>lat.=22.100395, lon.=104.258591, Alt.=282.965088m. Speed=4.788000m/h.</desc>
<speed>1.330000</speed>
</trkpt>
<trkpt lat="22.100460" lon="104.258667">
<ele>282.418213</ele>
<time>2011-04-27T04:33:51Z</time>
<desc>lat.=22.100460, lon.=104.258667, Alt.=282.418213m. Speed=7.020000m/h.</desc>
<speed>1.950000</speed>
</trkpt>
<trkpt lat="22.100506" lon="104.258759">
<ele>283.269775</ele>
<time>2011-04-27T04:33:56Z</time>
<desc>lat.=22.100506, lon.=104.258759, Alt.=283.269775m. Speed=6.624000m/h.</desc>
<speed>1.840000</speed>
</trkpt>
<trkpt lat="22.100502" lon="104.258827">
<ele>283.433838</ele>
<time>2011-04-27T04:34:01Z</time>
<desc>lat.=22.100502, lon.=104.258827, Alt.=283.433838m. Speed=4.608000m/h.</desc>
<speed>1.280000</speed>
</trkpt>
<trkpt lat="22.100483" lon="104.258873">
<ele>285.996338</ele>
<time>2011-04-27T04:34:06Z</time>
<desc>lat.=22.100483, lon.=104.258873, Alt.=285.996338m. Speed=4.572000m/h.</desc>
<speed>1.270000</speed>
</trkpt>
<trkpt lat="22.100431" lon="104.258942">
<ele>287.504150</ele>
<time>2011-04-27T04:34:11Z</time>
<desc>lat.=22.100431, lon.=104.258942, Alt.=287.504150m. Speed=7.380000m/h.</desc>
<speed>2.050000</speed>
</trkpt>
<trkpt lat="22.100372" lon="104.259003">
<ele>290.152588</ele>
<time>2011-04-27T04:34:16Z</time>
<desc>lat.=22.100372, lon.=104.259003, Alt.=290.152588m. Speed=4.680000m/h.</desc>
<speed>1.300000</speed>
</trkpt>
<trkpt lat="22.100319" lon="104.259056">
<ele>292.996338</ele>
<time>2011-04-27T04:34:21Z</time>
<desc>lat.=22.100319, lon.=104.259056, Alt.=292.996338m. Speed=7.416000m/h.</desc>
<speed>2.060000</speed>
</trkpt>
<trkpt lat="22.100246" lon="104.259132">
<ele>295.480713</ele>
<time>2011-04-27T04:34:26Z</time>
<desc>lat.=22.100246, lon.=104.259132, Alt.=295.480713m. Speed=5.508000m/h.</desc>
<speed>1.530000</speed>
</trkpt>
<trkpt lat="22.100185" lon="104.259201">
<ele>297.660400</ele>
<time>2011-04-27T04:34:31Z</time>
<desc>lat.=22.100185, lon.=104.259201, Alt.=297.660400m. Speed=4.428000m/h.</desc>
<speed>1.230000</speed>
</trkpt>
<trkpt lat="22.100153" lon="104.259239">
<ele>300.754150</ele>
<time>2011-04-27T04:34:36Z</time>
<desc>lat.=22.100153, lon.=104.259239, Alt.=300.754150m. Speed=7.128000m/h.</desc>
<speed>1.980000</speed>
</trkpt>
<trkpt lat="22.100101" lon="104.259293">
<ele>300.707275</ele>
<time>2011-04-27T04:34:41Z</time>
<desc>lat.=22.100101, lon.=104.259293, Alt.=300.707275m. Speed=5.184000m/h.</desc>
<speed>1.440000</speed>
</trkpt>
<trkpt lat="22.100071" lon="104.259331">
<ele>300.691650</ele>
<time>2011-04-27T04:34:46Z</time>
<desc>lat.=22.100071, lon.=104.259331, Alt.=300.691650m. Speed=4.860000m/h.</desc>
<speed>1.350000</speed>
</trkpt>
<trkpt lat="22.100021" lon="104.259369">
<ele>300.847900</ele>
<time>2011-04-27T04:34:51Z</time>
<desc>lat.=22.100021, lon.=104.259369, Alt.=300.847900m. Speed=4.824000m/h.</desc>
<speed>1.340000</speed>
</trkpt>
<trkpt lat="22.099972" lon="104.259422">
<ele>301.847900</ele>
<time>2011-04-27T04:34:56Z</time>
<desc>lat.=22.099972, lon.=104.259422, Alt.=301.847900m. Speed=6.048000m/h.</desc>
<speed>1.680000</speed>
</trkpt>
<trkpt lat="22.099922" lon="104.259460">
<ele>303.465088</ele>
<time>2011-04-27T04:35:01Z</time>
<desc>lat.=22.099922, lon.=104.259460, Alt.=303.465088m. Speed=2.016000m/h.</desc>
<speed>0.560000</speed>
</trkpt>
<trkpt lat="22.099861" lon="104.259491">
<ele>305.176025</ele>
<time>2011-04-27T04:35:06Z</time>
<desc>lat.=22.099861, lon.=104.259491, Alt.=305.176025m. Speed=5.904000m/h.</desc>
<speed>1.640000</speed>
</trkpt>
<trkpt lat="22.099766" lon="104.259544">
<ele>306.269775</ele>
<time>2011-04-27T04:35:11Z</time>
<desc>lat.=22.099766, lon.=104.259544, Alt.=306.269775m. Speed=9.612000m/h.</desc>
<speed>2.670000</speed>
</trkpt>
<trkpt lat="22.099670" lon="104.259621">
<ele>306.441650</ele>
<time>2011-04-27T04:35:16Z</time>
<desc>lat.=22.099670, lon.=104.259621, Alt.=306.441650m. Speed=9.108000m/h.</desc>
<speed>2.530000</speed>
</trkpt>
<trkpt lat="22.099552" lon="104.259697">
<ele>307.152588</ele>
<time>2011-04-27T04:35:21Z</time>
<desc>lat.=22.099552, lon.=104.259697, Alt.=307.152588m. Speed=9.360000m/h.</desc>
<speed>2.600000</speed>
</trkpt>
<trkpt lat="22.099453" lon="104.259750">
<ele>307.801025</ele>
<time>2011-04-27T04:35:26Z</time>
<desc>lat.=22.099453, lon.=104.259750, Alt.=307.801025m. Speed=7.452000m/h.</desc>
<speed>2.070000</speed>
</trkpt>
<trkpt lat="22.099352" lon="104.259827">
<ele>308.894775</ele>
<time>2011-04-27T04:35:31Z</time>
<desc>lat.=22.099352, lon.=104.259827, Alt.=308.894775m. Speed=9.504000m/h.</desc>
<speed>2.640000</speed>
</trkpt>
<trkpt lat="22.099249" lon="104.259926">
<ele>310.004150</ele>
<time>2011-04-27T04:35:36Z</time>
<desc>lat.=22.099249, lon.=104.259926, Alt.=310.004150m. Speed=11.520000m/h.</desc>
<speed>3.200000</speed>
</trkpt>
<trkpt lat="22.099154" lon="104.260048">
<ele>307.519775</ele>
<time>2011-04-27T04:35:41Z</time>
<desc>lat.=22.099154, lon.=104.260048, Alt.=307.519775m. Speed=10.440000m/h.</desc>
<speed>2.900000</speed>
</trkpt>
<trkpt lat="22.099075" lon="104.260178">
<ele>299.027588</ele>
<time>2011-04-27T04:35:46Z</time>
<desc>lat.=22.099075, lon.=104.260178, Alt.=299.027588m. Speed=11.844000m/h.</desc>
<speed>3.290000</speed>
</trkpt>
<trkpt lat="22.099041" lon="104.260323">
<ele>295.449463</ele>
<time>2011-04-27T04:35:51Z</time>
<desc>lat.=22.099041, lon.=104.260323, Alt.=295.449463m. Speed=10.728000m/h.</desc>
<speed>2.980000</speed>
</trkpt>
<trkpt lat="22.099066" lon="104.260475">
<ele>297.066650</ele>
<time>2011-04-27T04:35:56Z</time>
<desc>lat.=22.099066, lon.=104.260475, Alt.=297.066650m. Speed=10.836000m/h.</desc>
<speed>3.010000</speed>
</trkpt>
<trkpt lat="22.099121" lon="104.260590">
<ele>294.988525</ele>
<time>2011-04-27T04:36:01Z</time>
<desc>lat.=22.099121, lon.=104.260590, Alt.=294.988525m. Speed=7.200000m/h.</desc>
<speed>2.000000</speed>
</trkpt>
<trkpt lat="22.099194" lon="104.260658">
<ele>294.019775</ele>
<time>2011-04-27T04:36:06Z</time>
<desc>lat.=22.099194, lon.=104.260658, Alt.=294.019775m. Speed=6.948000m/h.</desc>
<speed>1.930000</speed>
</trkpt>
<trkpt lat="22.099262" lon="104.260712">
<ele>293.629150</ele>
<time>2011-04-27T04:36:11Z</time>
<desc>lat.=22.099262, lon.=104.260712, Alt.=293.629150m. Speed=6.300000m/h.</desc>
<speed>1.750000</speed>
</trkpt>
<trkpt lat="22.099335" lon="104.260727">
<ele>293.910400</ele>
<time>2011-04-27T04:36:16Z</time>
<desc>lat.=22.099335, lon.=104.260727, Alt.=293.910400m. Speed=5.184000m/h.</desc>
<speed>1.440000</speed>
</trkpt>
<trkpt lat="22.099411" lon="104.260765">
<ele>293.207275</ele>
<time>2011-04-27T04:36:21Z</time>
<desc>lat.=22.099411, lon.=104.260765, Alt.=293.207275m. Speed=6.336000m/h.</desc>
<speed>1.760000</speed>
</trkpt>
<trkpt lat="22.099493" lon="104.260803">
<ele>292.340088</ele>
<time>2011-04-27T04:36:26Z</time>
<desc>lat.=22.099493, lon.=104.260803, Alt.=292.340088m. Speed=6.048000m/h.</desc>
<speed>1.680000</speed>
</trkpt>
<trkpt lat="22.099562" lon="104.260841">
<ele>292.082275</ele>
<time>2011-04-27T04:36:31Z</time>
<desc>lat.=22.099562, lon.=104.260841, Alt.=292.082275m. Speed=5.940000m/h.</desc>
<speed>1.650000</speed>
</trkpt>
<trkpt lat="22.099628" lon="104.260872">
<ele>291.394775</ele>
<time>2011-04-27T04:36:36Z</time>
<desc>lat.=22.099628, lon.=104.260872, Alt.=291.394775m. Speed=5.868000m/h.</desc>
<speed>1.630000</speed>
</trkpt>
<trkpt lat="22.099682" lon="104.260887">
<ele>291.293213</ele>
<time>2011-04-27T04:36:41Z</time>
<desc>lat.=22.099682, lon.=104.260887, Alt.=291.293213m. Speed=4.392000m/h.</desc>
<speed>1.220000</speed>
</trkpt>
<trkpt lat="22.099745" lon="104.260918">
<ele>290.402588</ele>
<time>2011-04-27T04:36:46Z</time>
<desc>lat.=22.099745, lon.=104.260918, Alt.=290.402588m. Speed=4.176000m/h.</desc>
<speed>1.160000</speed>
</trkpt>
<trkpt lat="22.099800" lon="104.260956">
<ele>289.863525</ele>
<time>2011-04-27T04:36:51Z</time>
<desc>lat.=22.099800, lon.=104.260956, Alt.=289.863525m. Speed=5.400000m/h.</desc>
<speed>1.500000</speed>
</trkpt>
<trkpt lat="22.099861" lon="104.260994">
<ele>289.636963</ele>
<time>2011-04-27T04:36:56Z</time>
<desc>lat.=22.099861, lon.=104.260994, Alt.=289.636963m. Speed=4.716000m/h.</desc>
<speed>1.310000</speed>
</trkpt>
<trkpt lat="22.099924" lon="104.261002">
<ele>289.340088</ele>
<time>2011-04-27T04:37:01Z</time>
<desc>lat.=22.099924, lon.=104.261002, Alt.=289.340088m. Speed=5.436000m/h.</desc>
<speed>1.510000</speed>
</trkpt>
<trkpt lat="22.099976" lon="104.261032">
<ele>288.426025</ele>
<time>2011-04-27T04:37:06Z</time>
<desc>lat.=22.099976, lon.=104.261032, Alt.=288.426025m. Speed=4.608000m/h.</desc>
<speed>1.280000</speed>
</trkpt>
<trkpt lat="22.100037" lon="104.261047">
<ele>287.683838</ele>
<time>2011-04-27T04:37:11Z</time>
<desc>lat.=22.100037, lon.=104.261047, Alt.=287.683838m. Speed=4.716000m/h.</desc>
<speed>1.310000</speed>
</trkpt>
<trkpt lat="22.100069" lon="104.261055">
<ele>288.949463</ele>
<time>2011-04-27T04:37:16Z</time>
<desc>lat.=22.100069, lon.=104.261055, Alt.=288.949463m. Speed=0.576000m/h.</desc>
<speed>0.160000</speed>
</trkpt>
<trkpt lat="22.100075" lon="104.261055">
<ele>289.113525</ele>
<time>2011-04-27T04:37:21Z</time>
<desc>lat.=22.100075, lon.=104.261055, Alt.=289.113525m. Speed=0.144000m/h.</desc>
<speed>0.040000</speed>
</trkpt>
<trkpt lat="22.100079" lon="104.261055">
<ele>288.996338</ele>
<time>2011-04-27T04:37:26Z</time>
<desc>lat.=22.100079, lon.=104.261055, Alt.=288.996338m. Speed=0.072000m/h.</desc>
<speed>0.020000</speed>
</trkpt>
<trkpt lat="22.100079" lon="104.261055">
<ele>288.933838</ele>
<time>2011-04-27T04:37:31Z</time>
<desc>lat.=22.100079, lon.=104.261055, Alt.=288.933838m. Speed=0.036000m/h.</desc>
<speed>0.010000</speed>
</trkpt>
<trkpt lat="22.100080" lon="104.261055">
<ele>288.910400</ele>
<time>2011-04-27T04:37:36Z</time>
<desc>lat.=22.100080, lon.=104.261055, Alt.=288.910400m. Speed=0.216000m/h.</desc>
<speed>0.060000</speed>
</trkpt>
<trkpt lat="22.100080" lon="104.261055">
<ele>288.902588</ele>
<time>2011-04-27T04:37:41Z</time>
<desc>lat.=22.100080, lon.=104.261055, Alt.=288.902588m. Speed=0.000000m/h.</desc>
<speed>0.000000</speed>
</trkpt>
<trkpt lat="22.100082" lon="104.261047">
<ele>288.910400</ele>
<time>2011-04-27T04:37:46Z</time>
<desc>lat.=22.100082, lon.=104.261047, Alt.=288.910400m. Speed=0.000000m/h.</desc>
<speed>0.000000</speed>
</trkpt>
<trkpt lat="22.100082" lon="104.261047">
<ele>288.894775</ele>
<time>2011-04-27T04:37:51Z</time>
<desc>lat.=22.100082, lon.=104.261047, Alt.=288.894775m. Speed=0.144000m/h.</desc>
<speed>0.040000</speed>
</trkpt>
<trkpt lat="22.100082" lon="104.261047">
<ele>288.894775</ele>
<time>2011-04-27T04:37:56Z</time>
<desc>lat.=22.100082, lon.=104.261047, Alt.=288.894775m. Speed=0.108000m/h.</desc>
<speed>0.030000</speed>
</trkpt>
<trkpt lat="22.100080" lon="104.261047">
<ele>288.910400</ele>
<time>2011-04-27T04:38:01Z</time>
<desc>lat.=22.100080, lon.=104.261047, Alt.=288.910400m. Speed=0.144000m/h.</desc>
<speed>0.040000</speed>
</trkpt>
<trkpt lat="22.100084" lon="104.261040">
<ele>289.004150</ele>
<time>2011-04-27T04:38:06Z</time>
<desc>lat.=22.100084, lon.=104.261040, Alt.=289.004150m. Speed=0.396000m/h.</desc>
<speed>0.110000</speed>
</trkpt>
<trkpt lat="22.100086" lon="104.261040">
<ele>289.074463</ele>
<time>2011-04-27T04:38:11Z</time>
<desc>lat.=22.100086, lon.=104.261040, Alt.=289.074463m. Speed=0.144000m/h.</desc>
<speed>0.040000</speed>
</trkpt>
<trkpt lat="22.100088" lon="104.261040">
<ele>289.121338</ele>
<time>2011-04-27T04:38:16Z</time>
<desc>lat.=22.100088, lon.=104.261040, Alt.=289.121338m. Speed=0.144000m/h.</desc>
<speed>0.040000</speed>
</trkpt>
<trkpt lat="22.100115" lon="104.261040">
<ele>289.207275</ele>
<time>2011-04-27T04:38:21Z</time>
<desc>lat.=22.100115, lon.=104.261040, Alt.=289.207275m. Speed=4.068000m/h.</desc>
<speed>1.130000</speed>
</trkpt>
<trkpt lat="22.100187" lon="104.261040">
<ele>289.215088</ele>
<time>2011-04-27T04:38:26Z</time>
<desc>lat.=22.100187, lon.=104.261040, Alt.=289.215088m. Speed=6.444000m/h.</desc>
<speed>1.790000</speed>
</trkpt>
<trkpt lat="22.100264" lon="104.261047">
<ele>290.363525</ele>
<time>2011-04-27T04:38:31Z</time>
<desc>lat.=22.100264, lon.=104.261047, Alt.=290.363525m. Speed=5.328000m/h.</desc>
<speed>1.480000</speed>
</trkpt>
<trkpt lat="22.100353" lon="104.261047">
<ele>290.433838</ele>
<time>2011-04-27T04:38:36Z</time>
<desc>lat.=22.100353, lon.=104.261047, Alt.=290.433838m. Speed=4.752000m/h.</desc>
<speed>1.320000</speed>
</trkpt>
<trkpt lat="22.100441" lon="104.261032">
<ele>289.871338</ele>
<time>2011-04-27T04:38:41Z</time>
<desc>lat.=22.100441, lon.=104.261032, Alt.=289.871338m. Speed=5.544000m/h.</desc>
<speed>1.540000</speed>
</trkpt>
<trkpt lat="22.100500" lon="104.261009">
<ele>290.402588</ele>
<time>2011-04-27T04:38:46Z</time>
<desc>lat.=22.100500, lon.=104.261009, Alt.=290.402588m. Speed=6.120000m/h.</desc>
<speed>1.700000</speed>
</trkpt>
<trkpt lat="22.100574" lon="104.261002">
<ele>289.926025</ele>
<time>2011-04-27T04:38:51Z</time>
<desc>lat.=22.100574, lon.=104.261002, Alt.=289.926025m. Speed=5.184000m/h.</desc>
<speed>1.440000</speed>
</trkpt>
<trkpt lat="22.100637" lon="104.261009">
<ele>292.230713</ele>
<time>2011-04-27T04:38:56Z</time>
<desc>lat.=22.100637, lon.=104.261009, Alt.=292.230713m. Speed=5.004000m/h.</desc>
<speed>1.390000</speed>
</trkpt>
<trkpt lat="22.100706" lon="104.261024">
<ele>292.871338</ele>
<time>2011-04-27T04:39:01Z</time>
<desc>lat.=22.100706, lon.=104.261024, Alt.=292.871338m. Speed=4.140000m/h.</desc>
<speed>1.150000</speed>
</trkpt>
<trkpt lat="22.100773" lon="104.261009">
<ele>292.840088</ele>
<time>2011-04-27T04:39:06Z</time>
<desc>lat.=22.100773, lon.=104.261009, Alt.=292.840088m. Speed=4.356000m/h.</desc>
<speed>1.210000</speed>
</trkpt>
<trkpt lat="22.100838" lon="104.261009">
<ele>293.949463</ele>
<time>2011-04-27T04:39:11Z</time>
<desc>lat.=22.100838, lon.=104.261009, Alt.=293.949463m. Speed=4.716000m/h.</desc>
<speed>1.310000</speed>
</trkpt>
<trkpt lat="22.100908" lon="104.261024">
<ele>295.051025</ele>
<time>2011-04-27T04:39:16Z</time>
<desc>lat.=22.100908, lon.=104.261024, Alt.=295.051025m. Speed=3.528000m/h.</desc>
<speed>0.980000</speed>
</trkpt>
<trkpt lat="22.100973" lon="104.261024">
<ele>295.293213</ele>
<time>2011-04-27T04:39:21Z</time>
<desc>lat.=22.100973, lon.=104.261024, Alt.=295.293213m. Speed=4.608000m/h.</desc>
<speed>1.280000</speed>
</trkpt>
<trkpt lat="22.101015" lon="104.261024">
<ele>295.551025</ele>
<time>2011-04-27T04:39:26Z</time>
<desc>lat.=22.101015, lon.=104.261024, Alt.=295.551025m. Speed=4.752000m/h.</desc>
<speed>1.320000</speed>
</trkpt>
<trkpt lat="22.101067" lon="104.261032">
<ele>295.910400</ele>
<time>2011-04-27T04:39:31Z</time>
<desc>lat.=22.101067, lon.=104.261032, Alt.=295.910400m. Speed=3.312000m/h.</desc>
<speed>0.920000</speed>
</trkpt>
<trkpt lat="22.101131" lon="104.261040">
<ele>297.097900</ele>
<time>2011-04-27T04:39:36Z</time>
<desc>lat.=22.101131, lon.=104.261040, Alt.=297.097900m. Speed=5.184000m/h.</desc>
<speed>1.440000</speed>
</trkpt>
<trkpt lat="22.101181" lon="104.261047">
<ele>298.754150</ele>
<time>2011-04-27T04:39:41Z</time>
<desc>lat.=22.101181, lon.=104.261047, Alt.=298.754150m. Speed=3.708000m/h.</desc>
<speed>1.030000</speed>
</trkpt>
<trkpt lat="22.101238" lon="104.261055">
<ele>299.847900</ele>
<time>2011-04-27T04:39:46Z</time>
<desc>lat.=22.101238, lon.=104.261055, Alt.=299.847900m. Speed=3.960000m/h.</desc>
<speed>1.100000</speed>
</trkpt>
<trkpt lat="22.101288" lon="104.261055">
<ele>301.793213</ele>
<time>2011-04-27T04:39:51Z</time>
<desc>lat.=22.101288, lon.=104.261055, Alt.=301.793213m. Speed=4.068000m/h.</desc>
<speed>1.130000</speed>
</trkpt>
<trkpt lat="22.101345" lon="104.261055">
<ele>302.535400</ele>
<time>2011-04-27T04:39:56Z</time>
<desc>lat.=22.101345, lon.=104.261055, Alt.=302.535400m. Speed=3.024000m/h.</desc>
<speed>0.840000</speed>
</trkpt>
<trkpt lat="22.101395" lon="104.261070">
<ele>305.472900</ele>
<time>2011-04-27T04:40:01Z</time>
<desc>lat.=22.101395, lon.=104.261070, Alt.=305.472900m. Speed=3.996000m/h.</desc>
<speed>1.110000</speed>
</trkpt>
<trkpt lat="22.101442" lon="104.261078">
<ele>307.113525</ele>
<time>2011-04-27T04:40:06Z</time>
<desc>lat.=22.101442, lon.=104.261078, Alt.=307.113525m. Speed=0.360000m/h.</desc>
<speed>0.100000</speed>
</trkpt>
<trkpt lat="22.101484" lon="104.261078">
<ele>308.371338</ele>
<time>2011-04-27T04:40:11Z</time>
<desc>lat.=22.101484, lon.=104.261078, Alt.=308.371338m. Speed=3.924000m/h.</desc>
<speed>1.090000</speed>
</trkpt>
<trkpt lat="22.101538" lon="104.261070">
<ele>308.715088</ele>
<time>2011-04-27T04:40:16Z</time>
<desc>lat.=22.101538, lon.=104.261070, Alt.=308.715088m. Speed=3.348000m/h.</desc>
<speed>0.930000</speed>
</trkpt>
<trkpt lat="22.101583" lon="104.261078">
<ele>308.972900</ele>
<time>2011-04-27T04:40:21Z</time>
<desc>lat.=22.101583, lon.=104.261078, Alt.=308.972900m. Speed=3.636000m/h.</desc>
<speed>1.010000</speed>
</trkpt>
<trkpt lat="22.101633" lon="104.261055">
<ele>309.668213</ele>
<time>2011-04-27T04:40:26Z</time>
<desc>lat.=22.101633, lon.=104.261055, Alt.=309.668213m. Speed=2.520000m/h.</desc>
<speed>0.700000</speed>
</trkpt>
<trkpt lat="22.101683" lon="104.261017">
<ele>312.183838</ele>
<time>2011-04-27T04:40:31Z</time>
<desc>lat.=22.101683, lon.=104.261017, Alt.=312.183838m. Speed=2.412000m/h.</desc>
<speed>0.670000</speed>
</trkpt>
<trkpt lat="22.101734" lon="104.260979">
<ele>311.941650</ele>
<time>2011-04-27T04:40:36Z</time>
<desc>lat.=22.101734, lon.=104.260979, Alt.=311.941650m. Speed=4.680000m/h.</desc>
<speed>1.300000</speed>
</trkpt>
<trkpt lat="22.101774" lon="104.260910">
<ele>312.136963</ele>
<time>2011-04-27T04:40:41Z</time>
<desc>lat.=22.101774, lon.=104.260910, Alt.=312.136963m. Speed=5.076000m/h.</desc>
<speed>1.410000</speed>
</trkpt>
<trkpt lat="22.101820" lon="104.260857">
<ele>312.285400</ele>
<time>2011-04-27T04:40:46Z</time>
<desc>lat.=22.101820, lon.=104.260857, Alt.=312.285400m. Speed=4.752000m/h.</desc>
<speed>1.320000</speed>
</trkpt>
<trkpt lat="22.101856" lon="104.260803">
<ele>313.871338</ele>
<time>2011-04-27T04:40:51Z</time>
<desc>lat.=22.101856, lon.=104.260803, Alt.=313.871338m. Speed=3.456000m/h.</desc>
<speed>0.960000</speed>
</trkpt>
<trkpt lat="22.101879" lon="104.260765">
<ele>314.801025</ele>
<time>2011-04-27T04:40:56Z</time>
<desc>lat.=22.101879, lon.=104.260765, Alt.=314.801025m. Speed=4.464000m/h.</desc>
<speed>1.240000</speed>
</trkpt>
<trkpt lat="22.101927" lon="104.260712">
<ele>316.004150</ele>
<time>2011-04-27T04:41:01Z</time>
<desc>lat.=22.101927, lon.=104.260712, Alt.=316.004150m. Speed=4.248000m/h.</desc>
<speed>1.180000</speed>
</trkpt>
<trkpt lat="22.101971" lon="104.260658">
<ele>315.965088</ele>
<time>2011-04-27T04:41:06Z</time>
<desc>lat.=22.101971, lon.=104.260658, Alt.=315.965088m. Speed=4.788000m/h.</desc>
<speed>1.330000</speed>
</trkpt>
<trkpt lat="22.102026" lon="104.260635">
<ele>316.660400</ele>
<time>2011-04-27T04:41:11Z</time>
<desc>lat.=22.102026, lon.=104.260635, Alt.=316.660400m. Speed=5.256000m/h.</desc>
<speed>1.460000</speed>
</trkpt>
<trkpt lat="22.102089" lon="104.260628">
<ele>318.738525</ele>
<time>2011-04-27T04:41:16Z</time>
<desc>lat.=22.102089, lon.=104.260628, Alt.=318.738525m. Speed=3.996000m/h.</desc>
<speed>1.110000</speed>
</trkpt>
<trkpt lat="22.102150" lon="104.260651">
<ele>319.808838</ele>
<time>2011-04-27T04:41:21Z</time>
<desc>lat.=22.102150, lon.=104.260651, Alt.=319.808838m. Speed=4.284000m/h.</desc>
<speed>1.190000</speed>
</trkpt>
<trkpt lat="22.102194" lon="104.260666">
<ele>321.019775</ele>
<time>2011-04-27T04:41:26Z</time>
<desc>lat.=22.102194, lon.=104.260666, Alt.=321.019775m. Speed=4.104000m/h.</desc>
<speed>1.140000</speed>
</trkpt>
<trkpt lat="22.102240" lon="104.260689">
<ele>321.855713</ele>
<time>2011-04-27T04:41:31Z</time>
<desc>lat.=22.102240, lon.=104.260689, Alt.=321.855713m. Speed=3.636000m/h.</desc>
<speed>1.010000</speed>
</trkpt>
<trkpt lat="22.102287" lon="104.260712">
<ele>323.761963</ele>
<time>2011-04-27T04:41:36Z</time>
<desc>lat.=22.102287, lon.=104.260712, Alt.=323.761963m. Speed=4.536000m/h.</desc>
<speed>1.260000</speed>
</trkpt>
<trkpt lat="22.102320" lon="104.260765">
<ele>323.488525</ele>
<time>2011-04-27T04:41:41Z</time>
<desc>lat.=22.102320, lon.=104.260765, Alt.=323.488525m. Speed=4.572000m/h.</desc>
<speed>1.270000</speed>
</trkpt>
<trkpt lat="22.102358" lon="104.260780">
<ele>323.496338</ele>
<time>2011-04-27T04:41:46Z</time>
<desc>lat.=22.102358, lon.=104.260780, Alt.=323.496338m. Speed=4.788000m/h.</desc>
<speed>1.330000</speed>
</trkpt>
<trkpt lat="22.102394" lon="104.260811">
<ele>324.371338</ele>
<time>2011-04-27T04:41:51Z</time>
<desc>lat.=22.102394, lon.=104.260811, Alt.=324.371338m. Speed=4.860000m/h.</desc>
<speed>1.350000</speed>
</trkpt>
<trkpt lat="22.102440" lon="104.260864">
<ele>324.847900</ele>
<time>2011-04-27T04:41:56Z</time>
<desc>lat.=22.102440, lon.=104.260864, Alt.=324.847900m. Speed=4.536000m/h.</desc>
<speed>1.260000</speed>
</trkpt>
<trkpt lat="22.102501" lon="104.260895">
<ele>324.988525</ele>
<time>2011-04-27T04:42:01Z</time>
<desc>lat.=22.102501, lon.=104.260895, Alt.=324.988525m. Speed=5.292000m/h.</desc>
<speed>1.470000</speed>
</trkpt>
<trkpt lat="22.102560" lon="104.260895">
<ele>325.136963</ele>
<time>2011-04-27T04:42:06Z</time>
<desc>lat.=22.102560, lon.=104.260895, Alt.=325.136963m. Speed=5.544000m/h.</desc>
<speed>1.540000</speed>
</trkpt>
<trkpt lat="22.102615" lon="104.260887">
<ele>325.957275</ele>
<time>2011-04-27T04:42:11Z</time>
<desc>lat.=22.102615, lon.=104.260887, Alt.=325.957275m. Speed=3.312000m/h.</desc>
<speed>0.920000</speed>
</trkpt>
<trkpt lat="22.102669" lon="104.260872">
<ele>326.121338</ele>
<time>2011-04-27T04:42:16Z</time>
<desc>lat.=22.102669, lon.=104.260872, Alt.=326.121338m. Speed=3.492000m/h.</desc>
<speed>0.970000</speed>
</trkpt>
<trkpt lat="22.102715" lon="104.260849">
<ele>326.301025</ele>
<time>2011-04-27T04:42:21Z</time>
<desc>lat.=22.102715, lon.=104.260849, Alt.=326.301025m. Speed=3.708000m/h.</desc>
<speed>1.030000</speed>
</trkpt>
<trkpt lat="22.102764" lon="104.260803">
<ele>326.988525</ele>
<time>2011-04-27T04:42:26Z</time>
<desc>lat.=22.102764, lon.=104.260803, Alt.=326.988525m. Speed=5.328000m/h.</desc>
<speed>1.480000</speed>
</trkpt>
<trkpt lat="22.102810" lon="104.260765">
<ele>325.980713</ele>
<time>2011-04-27T04:42:31Z</time>
<desc>lat.=22.102810, lon.=104.260765, Alt.=325.980713m. Speed=3.780000m/h.</desc>
<speed>1.050000</speed>
</trkpt>
<trkpt lat="22.102858" lon="104.260735">
<ele>326.574463</ele>
<time>2011-04-27T04:42:36Z</time>
<desc>lat.=22.102858, lon.=104.260735, Alt.=326.574463m. Speed=4.968000m/h.</desc>
<speed>1.380000</speed>
</trkpt>
<trkpt lat="22.102907" lon="104.260712">
<ele>327.949463</ele>
<time>2011-04-27T04:42:41Z</time>
<desc>lat.=22.102907, lon.=104.260712, Alt.=327.949463m. Speed=5.148000m/h.</desc>
<speed>1.430000</speed>
</trkpt>
<trkpt lat="22.102959" lon="104.260674">
<ele>327.254150</ele>
<time>2011-04-27T04:42:46Z</time>
<desc>lat.=22.102959, lon.=104.260674, Alt.=327.254150m. Speed=3.420000m/h.</desc>
<speed>0.950000</speed>
</trkpt>
<trkpt lat="22.102999" lon="104.260635">
<ele>327.894775</ele>
<time>2011-04-27T04:42:51Z</time>
<desc>lat.=22.102999, lon.=104.260635, Alt.=327.894775m. Speed=2.916000m/h.</desc>
<speed>0.810000</speed>
</trkpt>
<trkpt lat="22.103058" lon="104.260620">
<ele>328.207275</ele>
<time>2011-04-27T04:42:56Z</time>
<desc>lat.=22.103058, lon.=104.260620, Alt.=328.207275m. Speed=4.608000m/h.</desc>
<speed>1.280000</speed>
</trkpt>
<trkpt lat="22.103123" lon="104.260628">
<ele>328.590088</ele>
<time>2011-04-27T04:43:01Z</time>
<desc>lat.=22.103123, lon.=104.260628, Alt.=328.590088m. Speed=5.184000m/h.</desc>
<speed>1.440000</speed>
</trkpt>
<trkpt lat="22.103180" lon="104.260643">
<ele>328.543213</ele>
<time>2011-04-27T04:43:06Z</time>
<desc>lat.=22.103180, lon.=104.260643, Alt.=328.543213m. Speed=4.248000m/h.</desc>
<speed>1.180000</speed>
</trkpt>
<trkpt lat="22.103228" lon="104.260681">
<ele>327.340088</ele>
<time>2011-04-27T04:43:11Z</time>
<desc>lat.=22.103228, lon.=104.260681, Alt.=327.340088m. Speed=3.168000m/h.</desc>
<speed>0.880000</speed>
</trkpt>
<trkpt lat="22.103275" lon="104.260704">
<ele>326.590088</ele>
<time>2011-04-27T04:43:16Z</time>
<desc>lat.=22.103275, lon.=104.260704, Alt.=326.590088m. Speed=4.716000m/h.</desc>
<speed>1.310000</speed>
</trkpt>
<trkpt lat="22.103315" lon="104.260727">
<ele>326.105713</ele>
<time>2011-04-27T04:43:21Z</time>
<desc>lat.=22.103315, lon.=104.260727, Alt.=326.105713m. Speed=3.780000m/h.</desc>
<speed>1.050000</speed>
</trkpt>
<trkpt lat="22.103355" lon="104.260773">
<ele>325.144775</ele>
<time>2011-04-27T04:43:26Z</time>
<desc>lat.=22.103355, lon.=104.260773, Alt.=325.144775m. Speed=4.644000m/h.</desc>
<speed>1.290000</speed>
</trkpt>
<trkpt lat="22.103401" lon="104.260818">
<ele>323.988525</ele>
<time>2011-04-27T04:43:31Z</time>
<desc>lat.=22.103401, lon.=104.260818, Alt.=323.988525m. Speed=4.932000m/h.</desc>
<speed>1.370000</speed>
</trkpt>
<trkpt lat="22.103458" lon="104.260864">
<ele>323.332275</ele>
<time>2011-04-27T04:43:36Z</time>
<desc>lat.=22.103458, lon.=104.260864, Alt.=323.332275m. Speed=5.364000m/h.</desc>
<speed>1.490000</speed>
</trkpt>
<trkpt lat="22.103510" lon="104.260902">
<ele>323.097900</ele>
<time>2011-04-27T04:43:41Z</time>
<desc>lat.=22.103510, lon.=104.260902, Alt.=323.097900m. Speed=3.672000m/h.</desc>
<speed>1.020000</speed>
</trkpt>
<trkpt lat="22.103573" lon="104.260925">
<ele>322.754150</ele>
<time>2011-04-27T04:43:46Z</time>
<desc>lat.=22.103573, lon.=104.260925, Alt.=322.754150m. Speed=5.436000m/h.</desc>
<speed>1.510000</speed>
</trkpt>
<trkpt lat="22.103638" lon="104.260956">
<ele>322.418213</ele>
<time>2011-04-27T04:43:51Z</time>
<desc>lat.=22.103638, lon.=104.260956, Alt.=322.418213m. Speed=6.192000m/h.</desc>
<speed>1.720000</speed>
</trkpt>
<trkpt lat="22.103697" lon="104.260979">
<ele>323.316650</ele>
<time>2011-04-27T04:43:56Z</time>
<desc>lat.=22.103697, lon.=104.260979, Alt.=323.316650m. Speed=5.328000m/h.</desc>
<speed>1.480000</speed>
</trkpt>
<trkpt lat="22.103758" lon="104.260994">
<ele>324.676025</ele>
<time>2011-04-27T04:44:01Z</time>
<desc>lat.=22.103758, lon.=104.260994, Alt.=324.676025m. Speed=5.220000m/h.</desc>
<speed>1.450000</speed>
</trkpt>
<trkpt lat="22.103823" lon="104.260986">
<ele>323.222900</ele>
<time>2011-04-27T04:44:06Z</time>
<desc>lat.=22.103823, lon.=104.260986, Alt.=323.222900m. Speed=4.788000m/h.</desc>
<speed>1.330000</speed>
</trkpt>
<trkpt lat="22.103888" lon="104.260986">
<ele>321.410400</ele>
<time>2011-04-27T04:44:11Z</time>
<desc>lat.=22.103888, lon.=104.260986, Alt.=321.410400m. Speed=5.040000m/h.</desc>
<speed>1.400000</speed>
</trkpt>
<trkpt lat="22.103956" lon="104.260986">
<ele>322.465088</ele>
<time>2011-04-27T04:44:16Z</time>
<desc>lat.=22.103956, lon.=104.260986, Alt.=322.465088m. Speed=5.004000m/h.</desc>
<speed>1.390000</speed>
</trkpt>
<trkpt lat="22.104019" lon="104.260986">
<ele>322.277588</ele>
<time>2011-04-27T04:44:21Z</time>
<desc>lat.=22.104019, lon.=104.260986, Alt.=322.277588m. Speed=4.968000m/h.</desc>
<speed>1.380000</speed>
</trkpt>
<trkpt lat="22.104073" lon="104.260971">
<ele>322.691650</ele>
<time>2011-04-27T04:44:26Z</time>
<desc>lat.=22.104073, lon.=104.260971, Alt.=322.691650m. Speed=4.032000m/h.</desc>
<speed>1.120000</speed>
</trkpt>
<trkpt lat="22.104124" lon="104.260971">
<ele>322.738525</ele>
<time>2011-04-27T04:44:31Z</time>
<desc>lat.=22.104124, lon.=104.260971, Alt.=322.738525m. Speed=4.716000m/h.</desc>
<speed>1.310000</speed>
</trkpt>
<trkpt lat="22.104177" lon="104.260971">
<ele>322.636963</ele>
<time>2011-04-27T04:44:36Z</time>
<desc>lat.=22.104177, lon.=104.260971, Alt.=322.636963m. Speed=3.600000m/h.</desc>
<speed>1.000000</speed>
</trkpt>
<trkpt lat="22.104233" lon="104.260971">
<ele>324.426025</ele>
<time>2011-04-27T04:44:41Z</time>
<desc>lat.=22.104233, lon.=104.260971, Alt.=324.426025m. Speed=4.428000m/h.</desc>
<speed>1.230000</speed>
</trkpt>
<trkpt lat="22.104282" lon="104.260963">
<ele>326.152588</ele>
<time>2011-04-27T04:44:46Z</time>
<desc>lat.=22.104282, lon.=104.260963, Alt.=326.152588m. Speed=2.844000m/h.</desc>
<speed>0.790000</speed>
</trkpt>
<trkpt lat="22.104374" lon="104.260979">
<ele>328.441650</ele>
<time>2011-04-27T04:44:51Z</time>
<desc>lat.=22.104374, lon.=104.260979, Alt.=328.441650m. Speed=3.384000m/h.</desc>
<speed>0.940000</speed>
</trkpt>
<trkpt lat="22.104431" lon="104.260986">
<ele>330.457275</ele>
<time>2011-04-27T04:44:56Z</time>
<desc>lat.=22.104431, lon.=104.260986, Alt.=330.457275m. Speed=4.320000m/h.</desc>
<speed>1.200000</speed>
</trkpt>
<trkpt lat="22.104507" lon="104.260971">
<ele>334.301025</ele>
<time>2011-04-27T04:45:01Z</time>
<desc>lat.=22.104507, lon.=104.260971, Alt.=334.301025m. Speed=5.364000m/h.</desc>
<speed>1.490000</speed>
</trkpt>
<trkpt lat="22.104559" lon="104.260963">
<ele>339.574463</ele>
<time>2011-04-27T04:45:06Z</time>
<desc>lat.=22.104559, lon.=104.260963, Alt.=339.574463m. Speed=5.220000m/h.</desc>
<speed>1.450000</speed>
</trkpt>
<trkpt lat="22.104597" lon="104.260948">
<ele>342.879150</ele>
<time>2011-04-27T04:45:11Z</time>
<desc>lat.=22.104597, lon.=104.260948, Alt.=342.879150m. Speed=0.252000m/h.</desc>
<speed>0.070000</speed>
</trkpt>
<trkpt lat="22.104628" lon="104.260902">
<ele>342.379150</ele>
<time>2011-04-27T04:45:16Z</time>
<desc>lat.=22.104628, lon.=104.260902, Alt.=342.379150m. Speed=1.188000m/h.</desc>
<speed>0.330000</speed>
</trkpt>
<trkpt lat="22.104628" lon="104.260902">
<ele>343.480713</ele>
<time>2011-04-27T04:45:21Z</time>
<desc>lat.=22.104628, lon.=104.260902, Alt.=343.480713m. Speed=0.828000m/h.</desc>
<speed>0.230000</speed>
</trkpt>
<trkpt lat="22.104630" lon="104.260895">
<ele>344.691650</ele>
<time>2011-04-27T04:45:26Z</time>
<desc>lat.=22.104630, lon.=104.260895, Alt.=344.691650m. Speed=0.252000m/h.</desc>
<speed>0.070000</speed>
</trkpt>
<trkpt lat="22.104626" lon="104.260887">
<ele>347.777588</ele>
<time>2011-04-27T04:45:31Z</time>
<desc>lat.=22.104626, lon.=104.260887, Alt.=347.777588m. Speed=0.036000m/h.</desc>
<speed>0.010000</speed>
</trkpt>
<trkpt lat="22.104626" lon="104.260864">
<ele>350.269775</ele>
<time>2011-04-27T04:45:36Z</time>
<desc>lat.=22.104626, lon.=104.260864, Alt.=350.269775m. Speed=0.144000m/h.</desc>
<speed>0.040000</speed>
</trkpt>
<trkpt lat="22.104624" lon="104.260864">
<ele>351.761963</ele>
<time>2011-04-27T04:45:41Z</time>
<desc>lat.=22.104624, lon.=104.260864, Alt.=351.761963m. Speed=0.108000m/h.</desc>
<speed>0.030000</speed>
</trkpt>
<trkpt lat="22.104620" lon="104.260864">
<ele>352.605713</ele>
<time>2011-04-27T04:45:46Z</time>
<desc>lat.=22.104620, lon.=104.260864, Alt.=352.605713m. Speed=0.036000m/h.</desc>
<speed>0.010000</speed>
</trkpt>
<trkpt lat="22.104622" lon="104.260864">
<ele>353.386963</ele>
<time>2011-04-27T04:45:51Z</time>
<desc>lat.=22.104622, lon.=104.260864, Alt.=353.386963m. Speed=0.108000m/h.</desc>
<speed>0.030000</speed>
</trkpt>
<trkpt lat="22.104614" lon="104.260857">
<ele>355.676025</ele>
<time>2011-04-27T04:45:56Z</time>
<desc>lat.=22.104614, lon.=104.260857, Alt.=355.676025m. Speed=0.000000m/h.</desc>
<speed>0.000000</speed>
</trkpt>
<trkpt lat="22.104597" lon="104.260841">
<ele>357.293213</ele>
<time>2011-04-27T04:46:01Z</time>
<desc>lat.=22.104597, lon.=104.260841, Alt.=357.293213m. Speed=0.144000m/h.</desc>
<speed>0.040000</speed>
</trkpt>
<trkpt lat="22.104593" lon="104.260841">
<ele>358.597900</ele>
<time>2011-04-27T04:46:06Z</time>
<desc>lat.=22.104593, lon.=104.260841, Alt.=358.597900m. Speed=0.036000m/h.</desc>
<speed>0.010000</speed>
</trkpt>
<trkpt lat="22.104593" lon="104.260841">
<ele>358.636963</ele>
<time>2011-04-27T04:46:11Z</time>
<desc>lat.=22.104593, lon.=104.260841, Alt.=358.636963m. Speed=0.000000m/h.</desc>
<speed>0.000000</speed>
</trkpt>
<trkpt lat="22.104591" lon="104.260841">
<ele>358.683838</ele>
<time>2011-04-27T04:46:16Z</time>
<desc>lat.=22.104591, lon.=104.260841, Alt.=358.683838m. Speed=0.180000m/h.</desc>
<speed>0.050000</speed>
</trkpt>
<trkpt lat="22.104589" lon="104.260841">
<ele>358.730713</ele>
<time>2011-04-27T04:46:21Z</time>
<desc>lat.=22.104589, lon.=104.260841, Alt.=358.730713m. Speed=0.216000m/h.</desc>
<speed>0.060000</speed>
</trkpt>
<trkpt lat="22.104586" lon="104.260841">
<ele>358.801025</ele>
<time>2011-04-27T04:46:26Z</time>
<desc>lat.=22.104586, lon.=104.260841, Alt.=358.801025m. Speed=0.144000m/h.</desc>
<speed>0.040000</speed>
</trkpt>
<trkpt lat="22.104584" lon="104.260841">
<ele>358.871338</ele>
<time>2011-04-27T04:46:31Z</time>
<desc>lat.=22.104584, lon.=104.260841, Alt.=358.871338m. Speed=0.216000m/h.</desc>
<speed>0.060000</speed>
</trkpt>
<trkpt lat="22.104582" lon="104.260841">
<ele>358.949463</ele>
<time>2011-04-27T04:46:36Z</time>
<desc>lat.=22.104582, lon.=104.260841, Alt.=358.949463m. Speed=0.288000m/h.</desc>
<speed>0.080000</speed>
</trkpt>
<trkpt lat="22.104580" lon="104.260841">
<ele>359.019775</ele>
<time>2011-04-27T04:46:41Z</time>
<desc>lat.=22.104580, lon.=104.260841, Alt.=359.019775m. Speed=0.252000m/h.</desc>
<speed>0.070000</speed>
</trkpt>
<trkpt lat="22.104578" lon="104.260849">
<ele>359.097900</ele>
<time>2011-04-27T04:46:46Z</time>
<desc>lat.=22.104578, lon.=104.260849, Alt.=359.097900m. Speed=0.576000m/h.</desc>
<speed>0.160000</speed>
</trkpt>
<trkpt lat="22.104576" lon="104.260857">
<ele>359.191650</ele>
<time>2011-04-27T04:46:51Z</time>
<desc>lat.=22.104576, lon.=104.260857, Alt.=359.191650m. Speed=0.756000m/h.</desc>
<speed>0.210000</speed>
</trkpt>
<trkpt lat="22.104574" lon="104.260864">
<ele>359.301025</ele>
<time>2011-04-27T04:46:56Z</time>
<desc>lat.=22.104574, lon.=104.260864, Alt.=359.301025m. Speed=0.108000m/h.</desc>
<speed>0.030000</speed>
</trkpt>
<trkpt lat="22.104574" lon="104.260864">
<ele>359.418213</ele>
<time>2011-04-27T04:47:01Z</time>
<desc>lat.=22.104574, lon.=104.260864, Alt.=359.418213m. Speed=0.144000m/h.</desc>
<speed>0.040000</speed>
</trkpt>
<trkpt lat="22.104576" lon="104.260864">
<ele>359.543213</ele>
<time>2011-04-27T04:47:06Z</time>
<desc>lat.=22.104576, lon.=104.260864, Alt.=359.543213m. Speed=0.072000m/h.</desc>
<speed>0.020000</speed>
</trkpt>
<trkpt lat="22.104576" lon="104.260864">
<ele>359.691650</ele>
<time>2011-04-27T04:47:11Z</time>
<desc>lat.=22.104576, lon.=104.260864, Alt.=359.691650m. Speed=0.108000m/h.</desc>
<speed>0.030000</speed>
</trkpt>
<trkpt lat="22.104576" lon="104.260857">
<ele>359.824463</ele>
<time>2011-04-27T04:47:16Z</time>
<desc>lat.=22.104576, lon.=104.260857, Alt.=359.824463m. Speed=0.396000m/h.</desc>
<speed>0.110000</speed>
</trkpt>
<trkpt lat="22.104578" lon="104.260857">
<ele>359.949463</ele>
<time>2011-04-27T04:47:21Z</time>
<desc>lat.=22.104578, lon.=104.260857, Alt.=359.949463m. Speed=0.180000m/h.</desc>
<speed>0.050000</speed>
</trkpt>
<trkpt lat="22.104584" lon="104.260849">
<ele>360.152588</ele>
<time>2011-04-27T04:47:26Z</time>
<desc>lat.=22.104584, lon.=104.260849, Alt.=360.152588m. Speed=1.440000m/h.</desc>
<speed>0.400000</speed>
</trkpt>
<trkpt lat="22.104662" lon="104.260818">
<ele>362.097900</ele>
<time>2011-04-27T04:47:31Z</time>
<desc>lat.=22.104662, lon.=104.260818, Alt.=362.097900m. Speed=8.928000m/h.</desc>
<speed>2.480000</speed>
</trkpt>
<trkpt lat="22.104792" lon="104.260742">
<ele>362.332275</ele>
<time>2011-04-27T04:47:36Z</time>
<desc>lat.=22.104792, lon.=104.260742, Alt.=362.332275m. Speed=13.068000m/h.</desc>
<speed>3.630000</speed>
</trkpt>
<trkpt lat="22.104931" lon="104.260704">
<ele>361.761963</ele>
<time>2011-04-27T04:47:41Z</time>
<desc>lat.=22.104931, lon.=104.260704, Alt.=361.761963m. Speed=5.508000m/h.</desc>
<speed>1.530000</speed>
</trkpt>
<trkpt lat="22.105103" lon="104.260674">
<ele>363.238525</ele>
<time>2011-04-27T04:47:46Z</time>
<desc>lat.=22.105103, lon.=104.260674, Alt.=363.238525m. Speed=8.676000m/h.</desc>
<speed>2.410000</speed>
</trkpt>
<trkpt lat="22.105228" lon="104.260681">
<ele>359.066650</ele>
<time>2011-04-27T04:47:51Z</time>
<desc>lat.=22.105228, lon.=104.260681, Alt.=359.066650m. Speed=6.444000m/h.</desc>
<speed>1.790000</speed>
</trkpt>
<trkpt lat="22.105358" lon="104.260696">
<ele>356.730713</ele>
<time>2011-04-27T04:47:56Z</time>
<desc>lat.=22.105358, lon.=104.260696, Alt.=356.730713m. Speed=8.280000m/h.</desc>
<speed>2.300000</speed>
</trkpt>
<trkpt lat="22.105579" lon="104.260719">
<ele>348.636963</ele>
<time>2011-04-27T04:48:01Z</time>
<desc>lat.=22.105579, lon.=104.260719, Alt.=348.636963m. Speed=19.836000m/h.</desc>
<speed>5.510000</speed>
</trkpt>
<trkpt lat="22.105864" lon="104.260643">
<ele>350.191650</ele>
<time>2011-04-27T04:48:06Z</time>
<desc>lat.=22.105864, lon.=104.260643, Alt.=350.191650m. Speed=27.827999m/h.</desc>
<speed>7.730000</speed>
</trkpt>
<trkpt lat="22.106173" lon="104.260376">
<ele>345.910400</ele>
<time>2011-04-27T04:48:11Z</time>
<desc>lat.=22.106173, lon.=104.260376, Alt.=345.910400m. Speed=29.844000m/h.</desc>
<speed>8.290000</speed>
</trkpt>
<trkpt lat="22.106501" lon="104.260178">
<ele>342.207275</ele>
<time>2011-04-27T04:48:16Z</time>
<desc>lat.=22.106501, lon.=104.260178, Alt.=342.207275m. Speed=27.972000m/h.</desc>
<speed>7.770000</speed>
</trkpt>
<trkpt lat="22.106825" lon="104.260040">
<ele>339.176025</ele>
<time>2011-04-27T04:48:21Z</time>
<desc>lat.=22.106825, lon.=104.260040, Alt.=339.176025m. Speed=24.587999m/h.</desc>
<speed>6.830000</speed>
</trkpt>
<trkpt lat="22.107067" lon="104.259842">
<ele>336.902588</ele>
<time>2011-04-27T04:48:26Z</time>
<desc>lat.=22.107067, lon.=104.259842, Alt.=336.902588m. Speed=23.760000m/h.</desc>
<speed>6.600000</speed>
</trkpt>
<trkpt lat="22.107189" lon="104.259567">
<ele>334.207275</ele>
<time>2011-04-27T04:48:31Z</time>
<desc>lat.=22.107189, lon.=104.259567, Alt.=334.207275m. Speed=22.896000m/h.</desc>
<speed>6.360000</speed>
</trkpt>
<trkpt lat="22.107388" lon="104.259346">
<ele>330.394775</ele>
<time>2011-04-27T04:48:36Z</time>
<desc>lat.=22.107388, lon.=104.259346, Alt.=330.394775m. Speed=24.516001m/h.</desc>
<speed>6.810000</speed>
</trkpt>
<trkpt lat="22.107714" lon="104.259247">
<ele>328.441650</ele>
<time>2011-04-27T04:48:41Z</time>
<desc>lat.=22.107714, lon.=104.259247, Alt.=328.441650m. Speed=28.368000m/h.</desc>
<speed>7.880000</speed>
</trkpt>
<trkpt lat="22.108084" lon="104.259117">
<ele>326.644775</ele>
<time>2011-04-27T04:48:46Z</time>
<desc>lat.=22.108084, lon.=104.259117, Alt.=326.644775m. Speed=29.988001m/h.</desc>
<speed>8.330000</speed>
</trkpt>
<trkpt lat="22.108486" lon="104.259186">
<ele>322.222900</ele>
<time>2011-04-27T04:48:51Z</time>
<desc>lat.=22.108486, lon.=104.259186, Alt.=322.222900m. Speed=30.563999m/h.</desc>
<speed>8.490000</speed>
</trkpt>
<trkpt lat="22.108833" lon="104.259499">
<ele>318.824463</ele>
<time>2011-04-27T04:48:56Z</time>
<desc>lat.=22.108833, lon.=104.259499, Alt.=318.824463m. Speed=36.612000m/h.</desc>
<speed>10.170000</speed>
</trkpt>
<trkpt lat="22.109221" lon="104.259804">
<ele>315.777588</ele>
<time>2011-04-27T04:49:01Z</time>
<desc>lat.=22.109221, lon.=104.259804, Alt.=315.777588m. Speed=38.088001m/h.</desc>
<speed>10.580000</speed>
</trkpt>
<trkpt lat="22.109705" lon="104.259911">
<ele>314.457275</ele>
<time>2011-04-27T04:49:06Z</time>
<desc>lat.=22.109705, lon.=104.259911, Alt.=314.457275m. Speed=38.124001m/h.</desc>
<speed>10.590000</speed>
</trkpt>
<trkpt lat="22.110146" lon="104.259773">
<ele>313.910400</ele>
<time>2011-04-27T04:49:11Z</time>
<desc>lat.=22.110146, lon.=104.259773, Alt.=313.910400m. Speed=37.368000m/h.</desc>
<speed>10.380000</speed>
</trkpt>
<trkpt lat="22.110609" lon="104.259651">
<ele>310.347900</ele>
<time>2011-04-27T04:49:16Z</time>
<desc>lat.=22.110609, lon.=104.259651, Alt.=310.347900m. Speed=37.368000m/h.</desc>
<speed>10.380000</speed>
</trkpt>
<trkpt lat="22.111076" lon="104.259827">
<ele>308.996338</ele>
<time>2011-04-27T04:49:21Z</time>
<desc>lat.=22.111076, lon.=104.259827, Alt.=308.996338m. Speed=43.596001m/h.</desc>
<speed>12.110000</speed>
</trkpt>
<trkpt lat="22.111616" lon="104.259987">
<ele>304.191650</ele>
<time>2011-04-27T04:49:26Z</time>
<desc>lat.=22.111616, lon.=104.259987, Alt.=304.191650m. Speed=44.604000m/h.</desc>
<speed>12.390000</speed>
</trkpt>
<trkpt lat="22.112165" lon="104.260040">
<ele>300.910400</ele>
<time>2011-04-27T04:49:31Z</time>
<desc>lat.=22.112165, lon.=104.260040, Alt.=300.910400m. Speed=43.056000m/h.</desc>
<speed>11.960000</speed>
</trkpt>
<trkpt lat="22.112679" lon="104.259964">
<ele>298.871338</ele>
<time>2011-04-27T04:49:36Z</time>
<desc>lat.=22.112679, lon.=104.259964, Alt.=298.871338m. Speed=42.588001m/h.</desc>
<speed>11.830000</speed>
</trkpt>
<trkpt lat="22.113165" lon="104.259773">
<ele>295.441650</ele>
<time>2011-04-27T04:49:41Z</time>
<desc>lat.=22.113165, lon.=104.259773, Alt.=295.441650m. Speed=41.040001m/h.</desc>
<speed>11.400000</speed>
</trkpt>
<trkpt lat="22.113607" lon="104.259544">
<ele>293.246338</ele>
<time>2011-04-27T04:49:46Z</time>
<desc>lat.=22.113607, lon.=104.259544, Alt.=293.246338m. Speed=37.043999m/h.</desc>
<speed>10.290000</speed>
</trkpt>
<trkpt lat="22.113958" lon="104.259621">
<ele>290.402588</ele>
<time>2011-04-27T04:49:51Z</time>
<desc>lat.=22.113958, lon.=104.259621, Alt.=290.402588m. Speed=29.483999m/h.</desc>
<speed>8.190000</speed>
</trkpt>
<trkpt lat="22.114122" lon="104.259995">
<ele>287.316650</ele>
<time>2011-04-27T04:49:56Z</time>
<desc>lat.=22.114122, lon.=104.259995, Alt.=287.316650m. Speed=35.748001m/h.</desc>
<speed>9.930000</speed>
</trkpt>
<trkpt lat="22.114077" lon="104.260544">
<ele>285.519775</ele>
<time>2011-04-27T04:50:01Z</time>
<desc>lat.=22.114077, lon.=104.260544, Alt.=285.519775m. Speed=40.824001m/h.</desc>
<speed>11.340000</speed>
</trkpt>
<trkpt lat="22.113937" lon="104.261032">
<ele>282.207275</ele>
<time>2011-04-27T04:50:06Z</time>
<desc>lat.=22.113937, lon.=104.261032, Alt.=282.207275m. Speed=36.251999m/h.</desc>
<speed>10.070000</speed>
</trkpt>
<trkpt lat="22.114021" lon="104.261536">
<ele>278.926025</ele>
<time>2011-04-27T04:50:11Z</time>
<desc>lat.=22.114021, lon.=104.261536, Alt.=278.926025m. Speed=38.051998m/h.</desc>
<speed>10.569999</speed>
</trkpt>
<trkpt lat="22.114189" lon="104.262001">
<ele>276.426025</ele>
<time>2011-04-27T04:50:16Z</time>
<desc>lat.=22.114189, lon.=104.262001, Alt.=276.426025m. Speed=36.467999m/h.</desc>
<speed>10.130000</speed>
</trkpt>
<trkpt lat="22.114359" lon="104.262474">
<ele>274.035400</ele>
<time>2011-04-27T04:50:21Z</time>
<desc>lat.=22.114359, lon.=104.262474, Alt.=274.035400m. Speed=35.495998m/h.</desc>
<speed>9.860000</speed>
</trkpt>
<trkpt lat="22.114580" lon="104.262749">
<ele>272.496338</ele>
<time>2011-04-27T04:50:26Z</time>
<desc>lat.=22.114580, lon.=104.262749, Alt.=272.496338m. Speed=16.416000m/h.</desc>
<speed>4.560000</speed>
</trkpt>
<trkpt lat="22.114670" lon="104.262802">
<ele>271.660400</ele>
<time>2011-04-27T04:50:31Z</time>
<desc>lat.=22.114670, lon.=104.262802, Alt.=271.660400m. Speed=3.204000m/h.</desc>
<speed>0.890000</speed>
</trkpt>
<trkpt lat="22.114677" lon="104.262802">
<ele>271.769775</ele>
<time>2011-04-27T04:50:36Z</time>
<desc>lat.=22.114677, lon.=104.262802, Alt.=271.769775m. Speed=0.108000m/h.</desc>
<speed>0.030000</speed>
</trkpt>
<trkpt lat="22.114677" lon="104.262802">
<ele>271.480713</ele>
<time>2011-04-27T04:50:41Z</time>
<desc>lat.=22.114677, lon.=104.262802, Alt.=271.480713m. Speed=0.036000m/h.</desc>
<speed>0.010000</speed>
</trkpt>
<trkpt lat="22.114677" lon="104.262802">
<ele>271.293213</ele>
<time>2011-04-27T04:50:46Z</time>
<desc>lat.=22.114677, lon.=104.262802, Alt.=271.293213m. Speed=1.404000m/h.</desc>
<speed>0.390000</speed>
</trkpt>
<trkpt lat="22.114676" lon="104.262802">
<ele>271.097900</ele>
<time>2011-04-27T04:50:51Z</time>
<desc>lat.=22.114676, lon.=104.262802, Alt.=271.097900m. Speed=0.000000m/h.</desc>
<speed>0.000000</speed>
</trkpt>
<trkpt lat="22.114676" lon="104.262802">
<ele>271.043213</ele>
<time>2011-04-27T04:50:56Z</time>
<desc>lat.=22.114676, lon.=104.262802, Alt.=271.043213m. Speed=0.072000m/h.</desc>
<speed>0.020000</speed>
</trkpt>
<trkpt lat="22.114676" lon="104.262802">
<ele>271.011963</ele>
<time>2011-04-27T04:51:01Z</time>
<desc>lat.=22.114676, lon.=104.262802, Alt.=271.011963m. Speed=0.036000m/h.</desc>
<speed>0.010000</speed>
</trkpt>
<trkpt lat="22.114676" lon="104.262802">
<ele>270.988525</ele>
<time>2011-04-27T04:51:06Z</time>
<desc>lat.=22.114676, lon.=104.262802, Alt.=270.988525m. Speed=0.288000m/h.</desc>
<speed>0.080000</speed>
</trkpt>
<trkpt lat="22.114676" lon="104.262802">
<ele>271.035400</ele>
<time>2011-04-27T04:51:11Z</time>
<desc>lat.=22.114676, lon.=104.262802, Alt.=271.035400m. Speed=0.288000m/h.</desc>
<speed>0.080000</speed>
</trkpt>
<trkpt lat="22.114676" lon="104.262802">
<ele>271.097900</ele>
<time>2011-04-27T04:51:16Z</time>
<desc>lat.=22.114676, lon.=104.262802, Alt.=271.097900m. Speed=0.036000m/h.</desc>
<speed>0.010000</speed>
</trkpt>
<trkpt lat="22.114676" lon="104.262802">
<ele>271.129150</ele>
<time>2011-04-27T04:51:21Z</time>
<desc>lat.=22.114676, lon.=104.262802, Alt.=271.129150m. Speed=0.108000m/h.</desc>
<speed>0.030000</speed>
</trkpt>
<trkpt lat="22.114676" lon="104.262810">
<ele>271.129150</ele>
<time>2011-04-27T04:51:26Z</time>
<desc>lat.=22.114676, lon.=104.262810, Alt.=271.129150m. Speed=0.072000m/h.</desc>
<speed>0.020000</speed>
</trkpt>
<trkpt lat="22.114674" lon="104.262810">
<ele>271.058838</ele>
<time>2011-04-27T04:51:31Z</time>
<desc>lat.=22.114674, lon.=104.262810, Alt.=271.058838m. Speed=0.144000m/h.</desc>
<speed>0.040000</speed>
</trkpt>
<trkpt lat="22.114742" lon="104.262848">
<ele>269.660400</ele>
<time>2011-04-27T04:51:36Z</time>
<desc>lat.=22.114742, lon.=104.262848, Alt.=269.660400m. Speed=12.780000m/h.</desc>
<speed>3.550000</speed>
</trkpt>
<trkpt lat="22.114935" lon="104.263000">
<ele>267.082275</ele>
<time>2011-04-27T04:51:41Z</time>
<desc>lat.=22.114935, lon.=104.263000, Alt.=267.082275m. Speed=21.708000m/h.</desc>
<speed>6.030000</speed>
</trkpt>
<trkpt lat="22.115143" lon="104.263206">
<ele>264.691650</ele>
<time>2011-04-27T04:51:46Z</time>
<desc>lat.=22.115143, lon.=104.263206, Alt.=264.691650m. Speed=19.224001m/h.</desc>
<speed>5.340000</speed>
</trkpt>
<trkpt lat="22.115311" lon="104.263412">
<ele>263.183838</ele>
<time>2011-04-27T04:51:51Z</time>
<desc>lat.=22.115311, lon.=104.263412, Alt.=263.183838m. Speed=16.271999m/h.</desc>
<speed>4.520000</speed>
</trkpt>
<trkpt lat="22.115402" lon="104.263550">
<ele>261.918213</ele>
<time>2011-04-27T04:51:56Z</time>
<desc>lat.=22.115402, lon.=104.263550, Alt.=261.918213m. Speed=4.032000m/h.</desc>
<speed>1.120000</speed>
</trkpt>
<trkpt lat="22.115410" lon="104.263565">
<ele>261.379150</ele>
<time>2011-04-27T04:52:01Z</time>
<desc>lat.=22.115410, lon.=104.263565, Alt.=261.379150m. Speed=0.144000m/h.</desc>
<speed>0.040000</speed>
</trkpt>
<trkpt lat="22.115414" lon="104.263565">
<ele>260.949463</ele>
<time>2011-04-27T04:52:06Z</time>
<desc>lat.=22.115414, lon.=104.263565, Alt.=260.949463m. Speed=0.360000m/h.</desc>
<speed>0.100000</speed>
</trkpt>
<trkpt lat="22.115414" lon="104.263565">
<ele>260.754150</ele>
<time>2011-04-27T04:52:11Z</time>
<desc>lat.=22.115414, lon.=104.263565, Alt.=260.754150m. Speed=0.180000m/h.</desc>
<speed>0.050000</speed>
</trkpt>
<trkpt lat="22.115416" lon="104.263565">
<ele>260.660400</ele>
<time>2011-04-27T04:52:16Z</time>
<desc>lat.=22.115416, lon.=104.263565, Alt.=260.660400m. Speed=1.008000m/h.</desc>
<speed>0.280000</speed>
</trkpt>
<trkpt lat="22.115480" lon="104.263603">
<ele>260.199463</ele>
<time>2011-04-27T04:52:21Z</time>
<desc>lat.=22.115480, lon.=104.263603, Alt.=260.199463m. Speed=12.852000m/h.</desc>
<speed>3.570000</speed>
</trkpt>
<trkpt lat="22.115625" lon="104.263687">
<ele>258.457275</ele>
<time>2011-04-27T04:52:26Z</time>
<desc>lat.=22.115625, lon.=104.263687, Alt.=258.457275m. Speed=6.300000m/h.</desc>
<speed>1.750000</speed>
</trkpt>
<trkpt lat="22.115671" lon="104.263748">
<ele>257.090088</ele>
<time>2011-04-27T04:52:31Z</time>
<desc>lat.=22.115671, lon.=104.263748, Alt.=257.090088m. Speed=1.584000m/h.</desc>
<speed>0.440000</speed>
</trkpt>
<trkpt lat="22.115673" lon="104.263748">
<ele>256.418213</ele>
<time>2011-04-27T04:52:36Z</time>
<desc>lat.=22.115673, lon.=104.263748, Alt.=256.418213m. Speed=0.072000m/h.</desc>
<speed>0.020000</speed>
</trkpt>
<trkpt lat="22.115671" lon="104.263748">
<ele>256.426025</ele>
<time>2011-04-27T04:52:41Z</time>
<desc>lat.=22.115671, lon.=104.263748, Alt.=256.426025m. Speed=0.000000m/h.</desc>
<speed>0.000000</speed>
</trkpt>
<trkpt lat="22.115673" lon="104.263748">
<ele>256.433838</ele>
<time>2011-04-27T04:52:46Z</time>
<desc>lat.=22.115673, lon.=104.263748, Alt.=256.433838m. Speed=0.000000m/h.</desc>
<speed>0.000000</speed>
</trkpt>
<trkpt lat="22.115673" lon="104.263748">
<ele>256.449463</ele>
<time>2011-04-27T04:52:51Z</time>
<desc>lat.=22.115673, lon.=104.263748, Alt.=256.449463m. Speed=0.000000m/h.</desc>
<speed>0.000000</speed>
</trkpt>
<trkpt lat="22.115673" lon="104.263748">
<ele>256.472900</ele>
<time>2011-04-27T04:52:56Z</time>
<desc>lat.=22.115673, lon.=104.263748, Alt.=256.472900m. Speed=0.108000m/h.</desc>
<speed>0.030000</speed>
</trkpt>
<trkpt lat="22.115673" lon="104.263748">
<ele>256.449463</ele>
<time>2011-04-27T04:53:01Z</time>
<desc>lat.=22.115673, lon.=104.263748, Alt.=256.449463m. Speed=0.000000m/h.</desc>
<speed>0.000000</speed>
</trkpt>
<trkpt lat="22.115673" lon="104.263748">
<ele>256.441650</ele>
<time>2011-04-27T04:53:06Z</time>
<desc>lat.=22.115673, lon.=104.263748, Alt.=256.441650m. Speed=0.108000m/h.</desc>
<speed>0.030000</speed>
</trkpt>
<trkpt lat="22.115675" lon="104.263748">
<ele>256.363525</ele>
<time>2011-04-27T04:53:11Z</time>
<desc>lat.=22.115675, lon.=104.263748, Alt.=256.363525m. Speed=0.540000m/h.</desc>
<speed>0.150000</speed>
</trkpt>
<trkpt lat="22.115677" lon="104.263748">
<ele>256.176025</ele>
<time>2011-04-27T04:53:16Z</time>
<desc>lat.=22.115677, lon.=104.263748, Alt.=256.176025m. Speed=0.072000m/h.</desc>
<speed>0.020000</speed>
</trkpt>
<trkpt lat="22.115677" lon="104.263748">
<ele>256.207275</ele>
<time>2011-04-27T04:53:21Z</time>
<desc>lat.=22.115677, lon.=104.263748, Alt.=256.207275m. Speed=0.072000m/h.</desc>
<speed>0.020000</speed>
</trkpt>
<trkpt lat="22.115677" lon="104.263748">
<ele>256.433838</ele>
<time>2011-04-27T04:53:26Z</time>
<desc>lat.=22.115677, lon.=104.263748, Alt.=256.433838m. Speed=0.144000m/h.</desc>
<speed>0.040000</speed>
</trkpt>
<trkpt lat="22.115677" lon="104.263748">
<ele>256.426025</ele>
<time>2011-04-27T04:53:31Z</time>
<desc>lat.=22.115677, lon.=104.263748, Alt.=256.426025m. Speed=0.072000m/h.</desc>
<speed>0.020000</speed>
</trkpt>
<trkpt lat="22.115677" lon="104.263756">
<ele>256.410400</ele>
<time>2011-04-27T04:53:36Z</time>
<desc>lat.=22.115677, lon.=104.263756, Alt.=256.410400m. Speed=0.216000m/h.</desc>
<speed>0.060000</speed>
</trkpt>
<trkpt lat="22.115675" lon="104.263756">
<ele>256.402588</ele>
<time>2011-04-27T04:53:41Z</time>
<desc>lat.=22.115675, lon.=104.263756, Alt.=256.402588m. Speed=0.324000m/h.</desc>
<speed>0.090000</speed>
</trkpt>
<trkpt lat="22.115686" lon="104.263756">
<ele>256.340088</ele>
<time>2011-04-27T04:53:46Z</time>
<desc>lat.=22.115686, lon.=104.263756, Alt.=256.340088m. Speed=5.544000m/h.</desc>
<speed>1.540000</speed>
</trkpt>
<trkpt lat="22.115776" lon="104.263756">
<ele>255.865356</ele>
<time>2011-04-27T04:53:51Z</time>
<desc>lat.=22.115776, lon.=104.263756, Alt.=255.865356m. Speed=6.588000m/h.</desc>
<speed>1.830000</speed>
</trkpt>
<trkpt lat="22.115936" lon="104.263832">
<ele>254.630981</ele>
<time>2011-04-27T04:53:56Z</time>
<desc>lat.=22.115936, lon.=104.263832, Alt.=254.630981m. Speed=18.719999m/h.</desc>
<speed>5.200000</speed>
</trkpt>
<trkpt lat="22.116127" lon="104.263985">
<ele>252.771606</ele>
<time>2011-04-27T04:54:01Z</time>
<desc>lat.=22.116127, lon.=104.263985, Alt.=252.771606m. Speed=18.504000m/h.</desc>
<speed>5.140000</speed>
</trkpt>
<trkpt lat="22.116110" lon="104.264175">
<ele>250.810669</ele>
<time>2011-04-27T04:54:06Z</time>
<desc>lat.=22.116110, lon.=104.264175, Alt.=250.810669m. Speed=16.920000m/h.</desc>
<speed>4.700000</speed>
</trkpt>
<trkpt lat="22.116001" lon="104.264351">
<ele>249.498169</ele>
<time>2011-04-27T04:54:11Z</time>
<desc>lat.=22.116001, lon.=104.264351, Alt.=249.498169m. Speed=12.456000m/h.</desc>
<speed>3.460000</speed>
</trkpt>
<trkpt lat="22.115938" lon="104.264488">
<ele>248.681763</ele>
<time>2011-04-27T04:54:16Z</time>
<desc>lat.=22.115938, lon.=104.264488, Alt.=248.681763m. Speed=9.504000m/h.</desc>
<speed>2.640000</speed>
</trkpt>
<trkpt lat="22.115902" lon="104.264664">
<ele>247.478638</ele>
<time>2011-04-27T04:54:21Z</time>
<desc>lat.=22.115902, lon.=104.264664, Alt.=247.478638m. Speed=15.408000m/h.</desc>
<speed>4.280000</speed>
</trkpt>
<trkpt lat="22.115892" lon="104.264839">
<ele>246.943481</ele>
<time>2011-04-27T04:54:26Z</time>
<desc>lat.=22.115892, lon.=104.264839, Alt.=246.943481m. Speed=9.108000m/h.</desc>
<speed>2.530000</speed>
</trkpt>
<trkpt lat="22.115879" lon="104.264908">
<ele>246.302856</ele>
<time>2011-04-27T04:54:31Z</time>
<desc>lat.=22.115879, lon.=104.264908, Alt.=246.302856m. Speed=5.220000m/h.</desc>
<speed>1.450000</speed>
</trkpt>
<trkpt lat="22.115894" lon="104.265022">
<ele>245.611450</ele>
<time>2011-04-27T04:54:36Z</time>
<desc>lat.=22.115894, lon.=104.265022, Alt.=245.611450m. Speed=11.592000m/h.</desc>
<speed>3.220000</speed>
</trkpt>
<trkpt lat="22.115961" lon="104.265205">
<ele>244.994263</ele>
<time>2011-04-27T04:54:41Z</time>
<desc>lat.=22.115961, lon.=104.265205, Alt.=244.994263m. Speed=15.696000m/h.</desc>
<speed>4.360000</speed>
</trkpt>
<trkpt lat="22.116140" lon="104.265419">
<ele>242.388794</ele>
<time>2011-04-27T04:54:46Z</time>
<desc>lat.=22.116140, lon.=104.265419, Alt.=242.388794m. Speed=16.091999m/h.</desc>
<speed>4.470000</speed>
</trkpt>
<trkpt lat="22.116287" lon="104.265617">
<ele>241.529419</ele>
<time>2011-04-27T04:54:51Z</time>
<desc>lat.=22.116287, lon.=104.265617, Alt.=241.529419m. Speed=20.520000m/h.</desc>
<speed>5.700000</speed>
</trkpt>
<trkpt lat="22.116501" lon="104.265800">
<ele>239.759888</ele>
<time>2011-04-27T04:54:56Z</time>
<desc>lat.=22.116501, lon.=104.265800, Alt.=239.759888m. Speed=15.480000m/h.</desc>
<speed>4.300000</speed>
</trkpt>
<trkpt lat="22.116652" lon="104.265854">
<ele>237.884888</ele>
<time>2011-04-27T04:55:01Z</time>
<desc>lat.=22.116652, lon.=104.265854, Alt.=237.884888m. Speed=6.480000m/h.</desc>
<speed>1.800000</speed>
</trkpt>
<trkpt lat="22.116737" lon="104.265884">
<ele>236.377075</ele>
<time>2011-04-27T04:55:06Z</time>
<desc>lat.=22.116737, lon.=104.265884, Alt.=236.377075m. Speed=7.308000m/h.</desc>
<speed>2.030000</speed>
</trkpt>
<trkpt lat="22.116833" lon="104.265923">
<ele>236.232544</ele>
<time>2011-04-27T04:55:11Z</time>
<desc>lat.=22.116833, lon.=104.265923, Alt.=236.232544m. Speed=6.804000m/h.</desc>
<speed>1.890000</speed>
</trkpt>
<trkpt lat="22.116917" lon="104.265938">
<ele>233.916138</ele>
<time>2011-04-27T04:55:16Z</time>
<desc>lat.=22.116917, lon.=104.265938, Alt.=233.916138m. Speed=6.732000m/h.</desc>
<speed>1.870000</speed>
</trkpt>
<trkpt lat="22.116997" lon="104.265976">
<ele>235.236450</ele>
<time>2011-04-27T04:55:21Z</time>
<desc>lat.=22.116997, lon.=104.265976, Alt.=235.236450m. Speed=8.100000m/h.</desc>
<speed>2.250000</speed>
</trkpt>
<trkpt lat="22.117104" lon="104.266029">
<ele>234.244263</ele>
<time>2011-04-27T04:55:26Z</time>
<desc>lat.=22.117104, lon.=104.266029, Alt.=234.244263m. Speed=8.892000m/h.</desc>
<speed>2.470000</speed>
</trkpt>
<trkpt lat="22.117178" lon="104.266113">
<ele>233.318481</ele>
<time>2011-04-27T04:55:31Z</time>
<desc>lat.=22.117178, lon.=104.266113, Alt.=233.318481m. Speed=6.912000m/h.</desc>
<speed>1.920000</speed>
</trkpt>
<trkpt lat="22.117191" lon="104.266144">
<ele>233.111450</ele>
<time>2011-04-27T04:55:36Z</time>
<desc>lat.=22.117191, lon.=104.266144, Alt.=233.111450m. Speed=0.252000m/h.</desc>
<speed>0.070000</speed>
</trkpt>
<trkpt lat="22.117191" lon="104.266144">
<ele>233.224731</ele>
<time>2011-04-27T04:55:41Z</time>
<desc>lat.=22.117191, lon.=104.266144, Alt.=233.224731m. Speed=0.468000m/h.</desc>
<speed>0.130000</speed>
</trkpt>
<trkpt lat="22.117191" lon="104.266144">
<ele>232.720825</ele>
<time>2011-04-27T04:55:46Z</time>
<desc>lat.=22.117191, lon.=104.266144, Alt.=232.720825m. Speed=0.000000m/h.</desc>
<speed>0.000000</speed>
</trkpt>
<trkpt lat="22.117191" lon="104.266144">
<ele>232.670044</ele>
<time>2011-04-27T04:55:51Z</time>
<desc>lat.=22.117191, lon.=104.266144, Alt.=232.670044m. Speed=0.036000m/h.</desc>
<speed>0.010000</speed>
</trkpt>
<trkpt lat="22.117191" lon="104.266144">
<ele>232.670044</ele>
<time>2011-04-27T04:55:56Z</time>
<desc>lat.=22.117191, lon.=104.266144, Alt.=232.670044m. Speed=0.000000m/h.</desc>
<speed>0.000000</speed>
</trkpt>
<trkpt lat="22.117191" lon="104.266144">
<ele>232.623169</ele>
<time>2011-04-27T04:56:01Z</time>
<desc>lat.=22.117191, lon.=104.266144, Alt.=232.623169m. Speed=0.036000m/h.</desc>
<speed>0.010000</speed>
</trkpt>
<trkpt lat="22.117191" lon="104.266144">
<ele>232.560669</ele>
<time>2011-04-27T04:56:06Z</time>
<desc>lat.=22.117191, lon.=104.266144, Alt.=232.560669m. Speed=0.036000m/h.</desc>
<speed>0.010000</speed>
</trkpt>
<trkpt lat="22.117191" lon="104.266144">
<ele>232.521606</ele>
<time>2011-04-27T04:56:11Z</time>
<desc>lat.=22.117191, lon.=104.266144, Alt.=232.521606m. Speed=0.000000m/h.</desc>
<speed>0.000000</speed>
</trkpt>
<trkpt lat="22.117191" lon="104.266144">
<ele>232.505981</ele>
<time>2011-04-27T04:56:16Z</time>
<desc>lat.=22.117191, lon.=104.266144, Alt.=232.505981m. Speed=0.000000m/h.</desc>
<speed>0.000000</speed>
</trkpt>
<trkpt lat="22.117191" lon="104.266144">
<ele>232.490356</ele>
<time>2011-04-27T04:56:21Z</time>
<desc>lat.=22.117191, lon.=104.266144, Alt.=232.490356m. Speed=0.036000m/h.</desc>
<speed>0.010000</speed>
</trkpt>
<trkpt lat="22.117191" lon="104.266144">
<ele>232.478638</ele>
<time>2011-04-27T04:56:26Z</time>
<desc>lat.=22.117191, lon.=104.266144, Alt.=232.478638m. Speed=0.000000m/h.</desc>
<speed>0.000000</speed>
</trkpt>
<trkpt lat="22.117191" lon="104.266144">
<ele>232.459106</ele>
<time>2011-04-27T04:56:31Z</time>
<desc>lat.=22.117191, lon.=104.266144, Alt.=232.459106m. Speed=0.108000m/h.</desc>
<speed>0.030000</speed>
</trkpt>
<trkpt lat="22.117191" lon="104.266144">
<ele>232.447388</ele>
<time>2011-04-27T04:56:36Z</time>
<desc>lat.=22.117191, lon.=104.266144, Alt.=232.447388m. Speed=0.000000m/h.</desc>
<speed>0.000000</speed>
</trkpt>
<trkpt lat="22.117189" lon="104.266144">
<ele>232.427856</ele>
<time>2011-04-27T04:56:41Z</time>
<desc>lat.=22.117189, lon.=104.266144, Alt.=232.427856m. Speed=0.000000m/h.</desc>
<speed>0.000000</speed>
</trkpt>
<trkpt lat="22.117189" lon="104.266144">
<ele>232.420044</ele>
<time>2011-04-27T04:56:46Z</time>
<desc>lat.=22.117189, lon.=104.266144, Alt.=232.420044m. Speed=0.036000m/h.</desc>
<speed>0.010000</speed>
</trkpt>
<trkpt lat="22.117189" lon="104.266144">
<ele>232.416138</ele>
<time>2011-04-27T04:56:51Z</time>
<desc>lat.=22.117189, lon.=104.266144, Alt.=232.416138m. Speed=0.000000m/h.</desc>
<speed>0.000000</speed>
</trkpt>
<trkpt lat="22.117189" lon="104.266144">
<ele>232.396606</ele>
<time>2011-04-27T04:56:56Z</time>
<desc>lat.=22.117189, lon.=104.266144, Alt.=232.396606m. Speed=0.000000m/h.</desc>
<speed>0.000000</speed>
</trkpt>
<trkpt lat="22.117189" lon="104.266144">
<ele>232.369263</ele>
<time>2011-04-27T04:57:01Z</time>
<desc>lat.=22.117189, lon.=104.266144, Alt.=232.369263m. Speed=0.000000m/h.</desc>
<speed>0.000000</speed>
</trkpt>
<trkpt lat="22.117189" lon="104.266144">
<ele>232.341919</ele>
<time>2011-04-27T04:57:06Z</time>
<desc>lat.=22.117189, lon.=104.266144, Alt.=232.341919m. Speed=0.000000m/h.</desc>
<speed>0.000000</speed>
</trkpt>
<trkpt lat="22.117189" lon="104.266144">
<ele>232.318481</ele>
<time>2011-04-27T04:57:11Z</time>
<desc>lat.=22.117189, lon.=104.266144, Alt.=232.318481m. Speed=0.000000m/h.</desc>
<speed>0.000000</speed>
</trkpt>
<trkpt lat="22.117189" lon="104.266144">
<ele>232.291138</ele>
<time>2011-04-27T04:57:16Z</time>
<desc>lat.=22.117189, lon.=104.266144, Alt.=232.291138m. Speed=0.000000m/h.</desc>
<speed>0.000000</speed>
</trkpt>
<trkpt lat="22.117189" lon="104.266144">
<ele>232.267700</ele>
<time>2011-04-27T04:57:21Z</time>
<desc>lat.=22.117189, lon.=104.266144, Alt.=232.267700m. Speed=0.000000m/h.</desc>
<speed>0.000000</speed>
</trkpt>
<trkpt lat="22.117189" lon="104.266144">
<ele>232.244263</ele>
<time>2011-04-27T04:57:26Z</time>
<desc>lat.=22.117189, lon.=104.266144, Alt.=232.244263m. Speed=0.180000m/h.</desc>
<speed>0.050000</speed>
</trkpt>
<trkpt lat="22.117203" lon="104.266151">
<ele>232.045044</ele>
<time>2011-04-27T04:57:31Z</time>
<desc>lat.=22.117203, lon.=104.266151, Alt.=232.045044m. Speed=5.436000m/h.</desc>
<speed>1.510000</speed>
</trkpt>
<trkpt lat="22.117279" lon="104.266243">
<ele>231.244263</ele>
<time>2011-04-27T04:57:36Z</time>
<desc>lat.=22.117279, lon.=104.266243, Alt.=231.244263m. Speed=11.772000m/h.</desc>
<speed>3.270000</speed>
</trkpt>
<trkpt lat="22.117384" lon="104.266388">
<ele>230.443481</ele>
<time>2011-04-27T04:57:41Z</time>
<desc>lat.=22.117384, lon.=104.266388, Alt.=230.443481m. Speed=16.236000m/h.</desc>
<speed>4.510000</speed>
</trkpt>
<trkpt lat="22.117548" lon="104.266571">
<ele>228.998169</ele>
<time>2011-04-27T04:57:46Z</time>
<desc>lat.=22.117548, lon.=104.266571, Alt.=228.998169m. Speed=20.736000m/h.</desc>
<speed>5.760000</speed>
</trkpt>
<trkpt lat="22.117792" lon="104.266754">
<ele>227.252075</ele>
<time>2011-04-27T04:57:51Z</time>
<desc>lat.=22.117792, lon.=104.266754, Alt.=227.252075m. Speed=24.336000m/h.</desc>
<speed>6.760000</speed>
</trkpt>
<trkpt lat="22.118076" lon="104.266930">
<ele>225.013794</ele>
<time>2011-04-27T04:57:56Z</time>
<desc>lat.=22.118076, lon.=104.266930, Alt.=225.013794m. Speed=26.712000m/h.</desc>
<speed>7.420000</speed>
</trkpt>
<trkpt lat="22.118231" lon="104.267227">
<ele>224.880981</ele>
<time>2011-04-27T04:58:01Z</time>
<desc>lat.=22.118231, lon.=104.267227, Alt.=224.880981m. Speed=24.191999m/h.</desc>
<speed>6.720000</speed>
</trkpt>
<trkpt lat="22.118258" lon="104.267532">
<ele>224.853638</ele>
<time>2011-04-27T04:58:06Z</time>
<desc>lat.=22.118258, lon.=104.267532, Alt.=224.853638m. Speed=22.139999m/h.</desc>
<speed>6.150000</speed>
</trkpt>
<trkpt lat="22.118284" lon="104.267830">
<ele>224.248169</ele>
<time>2011-04-27T04:58:11Z</time>
<desc>lat.=22.118284, lon.=104.267830, Alt.=224.248169m. Speed=21.780001m/h.</desc>
<speed>6.050000</speed>
</trkpt>
<trkpt lat="22.118383" lon="104.268082">
<ele>223.810669</ele>
<time>2011-04-27T04:58:16Z</time>
<desc>lat.=22.118383, lon.=104.268082, Alt.=223.810669m. Speed=20.520000m/h.</desc>
<speed>5.700000</speed>
</trkpt>
<trkpt lat="22.118626" lon="104.268173">
<ele>222.209106</ele>
<time>2011-04-27T04:58:21Z</time>
<desc>lat.=22.118626, lon.=104.268173, Alt.=222.209106m. Speed=20.375999m/h.</desc>
<speed>5.660000</speed>
</trkpt>
<trkpt lat="22.118906" lon="104.268196">
<ele>219.963013</ele>
<time>2011-04-27T04:58:26Z</time>
<desc>lat.=22.118906, lon.=104.268196, Alt.=219.963013m. Speed=24.084000m/h.</desc>
<speed>6.690000</speed>
</trkpt>
<trkpt lat="22.119173" lon="104.268364">
<ele>219.740356</ele>
<time>2011-04-27T04:58:31Z</time>
<desc>lat.=22.119173, lon.=104.268364, Alt.=219.740356m. Speed=27.540001m/h.</desc>
<speed>7.650000</speed>
</trkpt>
<trkpt lat="22.119375" lon="104.268707">
<ele>216.994263</ele>
<time>2011-04-27T04:58:36Z</time>
<desc>lat.=22.119375, lon.=104.268707, Alt.=216.994263m. Speed=32.832001m/h.</desc>
<speed>9.120000</speed>
</trkpt>
<trkpt lat="22.119608" lon="104.269150">
<ele>212.209106</ele>
<time>2011-04-27T04:58:41Z</time>
<desc>lat.=22.119608, lon.=104.269150, Alt.=212.209106m. Speed=41.436001m/h.</desc>
<speed>11.510000</speed>
</trkpt>
<trkpt lat="22.119867" lon="104.269569">
<ele>207.291138</ele>
<time>2011-04-27T04:58:46Z</time>
<desc>lat.=22.119867, lon.=104.269569, Alt.=207.291138m. Speed=35.891998m/h.</desc>
<speed>9.970000</speed>
</trkpt>
<trkpt lat="22.120335" lon="104.269753">
<ele>201.287231</ele>
<time>2011-04-27T04:58:51Z</time>
<desc>lat.=22.120335, lon.=104.269753, Alt.=201.287231m. Speed=36.972000m/h.</desc>
<speed>10.270000</speed>
</trkpt>
<trkpt lat="22.120790" lon="104.269608">
<ele>197.041138</ele>
<time>2011-04-27T04:58:56Z</time>
<desc>lat.=22.120790, lon.=104.269608, Alt.=197.041138m. Speed=34.956001m/h.</desc>
<speed>9.710000</speed>
</trkpt>
<trkpt lat="22.121120" lon="104.269455">
<ele>194.017700</ele>
<time>2011-04-27T04:59:01Z</time>
<desc>lat.=22.121120, lon.=104.269455, Alt.=194.017700m. Speed=21.059999m/h.</desc>
<speed>5.850000</speed>
</trkpt>
<trkpt lat="22.121334" lon="104.269318">
<ele>192.123169</ele>
<time>2011-04-27T04:59:06Z</time>
<desc>lat.=22.121334, lon.=104.269318, Alt.=192.123169m. Speed=21.240000m/h.</desc>
<speed>5.900000</speed>
</trkpt>
<trkpt lat="22.121498" lon="104.269073">
<ele>190.244263</ele>
<time>2011-04-27T04:59:11Z</time>
<desc>lat.=22.121498, lon.=104.269073, Alt.=190.244263m. Speed=24.480000m/h.</desc>
<speed>6.800000</speed>
</trkpt>
<trkpt lat="22.121698" lon="104.268822">
<ele>188.588013</ele>
<time>2011-04-27T04:59:16Z</time>
<desc>lat.=22.121698, lon.=104.268822, Alt.=188.588013m. Speed=22.608000m/h.</desc>
<speed>6.280000</speed>
</trkpt>
<trkpt lat="22.121918" lon="104.268700">
<ele>187.025513</ele>
<time>2011-04-27T04:59:21Z</time>
<desc>lat.=22.121918, lon.=104.268700, Alt.=187.025513m. Speed=18.756001m/h.</desc>
<speed>5.210000</speed>
</trkpt>
<trkpt lat="22.122171" lon="104.268677">
<ele>184.892700</ele>
<time>2011-04-27T04:59:26Z</time>
<desc>lat.=22.122171, lon.=104.268677, Alt.=184.892700m. Speed=18.504000m/h.</desc>
<speed>5.140000</speed>
</trkpt>
<trkpt lat="22.122259" lon="104.268860">
<ele>185.435669</ele>
<time>2011-04-27T04:59:31Z</time>
<desc>lat.=22.122259, lon.=104.268860, Alt.=185.435669m. Speed=15.192000m/h.</desc>
<speed>4.220000</speed>
</trkpt>
<trkpt lat="22.122168" lon="104.269096">
<ele>185.599731</ele>
<time>2011-04-27T04:59:36Z</time>
<desc>lat.=22.122168, lon.=104.269096, Alt.=185.599731m. Speed=19.584000m/h.</desc>
<speed>5.440000</speed>
</trkpt>
<trkpt lat="22.122049" lon="104.269386">
<ele>185.076294</ele>
<time>2011-04-27T04:59:41Z</time>
<desc>lat.=22.122049, lon.=104.269386, Alt.=185.076294m. Speed=26.747999m/h.</desc>
<speed>7.430000</speed>
</trkpt>
<trkpt lat="22.122089" lon="104.269745">
<ele>179.994263</ele>
<time>2011-04-27T04:59:46Z</time>
<desc>lat.=22.122089, lon.=104.269745, Alt.=179.994263m. Speed=25.308001m/h.</desc>
<speed>7.030000</speed>
</trkpt>
<trkpt lat="22.122211" lon="104.270027">
<ele>177.400513</ele>
<time>2011-04-27T04:59:51Z</time>
<desc>lat.=22.122211, lon.=104.270027, Alt.=177.400513m. Speed=21.275999m/h.</desc>
<speed>5.910000</speed>
</trkpt>
<trkpt lat="22.122417" lon="104.270119">
<ele>175.127075</ele>
<time>2011-04-27T04:59:56Z</time>
<desc>lat.=22.122417, lon.=104.270119, Alt.=175.127075m. Speed=13.968000m/h.</desc>
<speed>3.880000</speed>
</trkpt>
<trkpt lat="22.122616" lon="104.270073">
<ele>172.611450</ele>
<time>2011-04-27T05:00:01Z</time>
<desc>lat.=22.122616, lon.=104.270073, Alt.=172.611450m. Speed=18.576000m/h.</desc>
<speed>5.160000</speed>
</trkpt>
<trkpt lat="22.122858" lon="104.269958">
<ele>169.994263</ele>
<time>2011-04-27T05:00:06Z</time>
<desc>lat.=22.122858, lon.=104.269958, Alt.=169.994263m. Speed=21.636000m/h.</desc>
<speed>6.010000</speed>
</trkpt>
<trkpt lat="22.123131" lon="104.269913">
<ele>168.228638</ele>
<time>2011-04-27T05:00:11Z</time>
<desc>lat.=22.123131, lon.=104.269913, Alt.=168.228638m. Speed=22.931999m/h.</desc>
<speed>6.370000</speed>
</trkpt>
<trkpt lat="22.123327" lon="104.270126">
<ele>167.638794</ele>
<time>2011-04-27T05:00:16Z</time>
<desc>lat.=22.123327, lon.=104.270126, Alt.=167.638794m. Speed=17.496000m/h.</desc>
<speed>4.860000</speed>
</trkpt>
<trkpt lat="22.123318" lon="104.270309">
<ele>167.552856</ele>
<time>2011-04-27T05:00:21Z</time>
<desc>lat.=22.123318, lon.=104.270309, Alt.=167.552856m. Speed=9.972000m/h.</desc>
<speed>2.770000</speed>
</trkpt>
<trkpt lat="22.123270" lon="104.270432">
<ele>167.463013</ele>
<time>2011-04-27T05:00:26Z</time>
<desc>lat.=22.123270, lon.=104.270432, Alt.=167.463013m. Speed=10.440000m/h.</desc>
<speed>2.900000</speed>
</trkpt>
<trkpt lat="22.123211" lon="104.270569">
<ele>167.689575</ele>
<time>2011-04-27T05:00:31Z</time>
<desc>lat.=22.123211, lon.=104.270569, Alt.=167.689575m. Speed=11.124000m/h.</desc>
<speed>3.090000</speed>
</trkpt>
<trkpt lat="22.123148" lon="104.270660">
<ele>167.568481</ele>
<time>2011-04-27T05:00:36Z</time>
<desc>lat.=22.123148, lon.=104.270660, Alt.=167.568481m. Speed=4.608000m/h.</desc>
<speed>1.280000</speed>
</trkpt>
<trkpt lat="22.123144" lon="104.270668">
<ele>167.533325</ele>
<time>2011-04-27T05:00:41Z</time>
<desc>lat.=22.123144, lon.=104.270668, Alt.=167.533325m. Speed=0.576000m/h.</desc>
<speed>0.160000</speed>
</trkpt>
<trkpt lat="22.123144" lon="104.270668">
<ele>167.630981</ele>
<time>2011-04-27T05:00:46Z</time>
<desc>lat.=22.123144, lon.=104.270668, Alt.=167.630981m. Speed=0.036000m/h.</desc>
<speed>0.010000</speed>
</trkpt>
<trkpt lat="22.123144" lon="104.270668">
<ele>167.701294</ele>
<time>2011-04-27T05:00:51Z</time>
<desc>lat.=22.123144, lon.=104.270668, Alt.=167.701294m. Speed=0.072000m/h.</desc>
<speed>0.020000</speed>
</trkpt>
<trkpt lat="22.123146" lon="104.270676">
<ele>167.716919</ele>
<time>2011-04-27T05:00:56Z</time>
<desc>lat.=22.123146, lon.=104.270676, Alt.=167.716919m. Speed=2.772000m/h.</desc>
<speed>0.770000</speed>
</trkpt>
<trkpt lat="22.123131" lon="104.270767">
<ele>167.572388</ele>
<time>2011-04-27T05:01:01Z</time>
<desc>lat.=22.123131, lon.=104.270767, Alt.=167.572388m. Speed=10.260000m/h.</desc>
<speed>2.850000</speed>
</trkpt>
<trkpt lat="22.123066" lon="104.270882">
<ele>167.170044</ele>
<time>2011-04-27T05:01:06Z</time>
<desc>lat.=22.123066, lon.=104.270882, Alt.=167.170044m. Speed=9.324000m/h.</desc>
<speed>2.590000</speed>
</trkpt>
<trkpt lat="22.122992" lon="104.271004">
<ele>166.838013</ele>
<time>2011-04-27T05:01:11Z</time>
<desc>lat.=22.122992, lon.=104.271004, Alt.=166.838013m. Speed=10.764000m/h.</desc>
<speed>2.990000</speed>
</trkpt>
<trkpt lat="22.122904" lon="104.271149">
<ele>166.377075</ele>
<time>2011-04-27T05:01:16Z</time>
<desc>lat.=22.122904, lon.=104.271149, Alt.=166.377075m. Speed=13.932000m/h.</desc>
<speed>3.870000</speed>
</trkpt>
<trkpt lat="22.122816" lon="104.271324">
<ele>165.447388</ele>
<time>2011-04-27T05:01:21Z</time>
<desc>lat.=22.122816, lon.=104.271324, Alt.=165.447388m. Speed=15.804000m/h.</desc>
<speed>4.390000</speed>
</trkpt>
<trkpt lat="22.122715" lon="104.271538">
<ele>163.982544</ele>
<time>2011-04-27T05:01:26Z</time>
<desc>lat.=22.122715, lon.=104.271538, Alt.=163.982544m. Speed=13.428000m/h.</desc>
<speed>3.730000</speed>
</trkpt>
<trkpt lat="22.122669" lon="104.271652">
<ele>163.220825</ele>
<time>2011-04-27T05:01:31Z</time>
<desc>lat.=22.122669, lon.=104.271652, Alt.=163.220825m. Speed=5.616000m/h.</desc>
<speed>1.560000</speed>
</trkpt>
<trkpt lat="22.122639" lon="104.271713">
<ele>161.892700</ele>
<time>2011-04-27T05:01:36Z</time>
<desc>lat.=22.122639, lon.=104.271713, Alt.=161.892700m. Speed=6.840000m/h.</desc>
<speed>1.900000</speed>
</trkpt>
<trkpt lat="22.122587" lon="104.271797">
<ele>160.798950</ele>
<time>2011-04-27T05:01:41Z</time>
<desc>lat.=22.122587, lon.=104.271797, Alt.=160.798950m. Speed=9.036000m/h.</desc>
<speed>2.510000</speed>
</trkpt>
<trkpt lat="22.122522" lon="104.271919">
<ele>158.170044</ele>
<time>2011-04-27T05:01:46Z</time>
<desc>lat.=22.122522, lon.=104.271919, Alt.=158.170044m. Speed=12.096000m/h.</desc>
<speed>3.360000</speed>
</trkpt>
<trkpt lat="22.122431" lon="104.272057">
<ele>157.736450</ele>
<time>2011-04-27T05:01:51Z</time>
<desc>lat.=22.122431, lon.=104.272057, Alt.=157.736450m. Speed=13.716000m/h.</desc>
<speed>3.810000</speed>
</trkpt>
<trkpt lat="22.122311" lon="104.272156">
<ele>157.591919</ele>
<time>2011-04-27T05:01:56Z</time>
<desc>lat.=22.122311, lon.=104.272156, Alt.=157.591919m. Speed=10.188000m/h.</desc>
<speed>2.830000</speed>
</trkpt>
<trkpt lat="22.122274" lon="104.272163">
<ele>157.662231</ele>
<time>2011-04-27T05:02:01Z</time>
<desc>lat.=22.122274, lon.=104.272163, Alt.=157.662231m. Speed=0.108000m/h.</desc>
<speed>0.030000</speed>
</trkpt>
<trkpt lat="22.122255" lon="104.272163">
<ele>157.685669</ele>
<time>2011-04-27T05:02:06Z</time>
<desc>lat.=22.122255, lon.=104.272163, Alt.=157.685669m. Speed=3.420000m/h.</desc>
<speed>0.950000</speed>
</trkpt>
<trkpt lat="22.122250" lon="104.272156">
<ele>157.943481</ele>
<time>2011-04-27T05:02:11Z</time>
<desc>lat.=22.122250, lon.=104.272156, Alt.=157.943481m. Speed=0.144000m/h.</desc>
<speed>0.040000</speed>
</trkpt>
<trkpt lat="22.122253" lon="104.272156">
<ele>157.877075</ele>
<time>2011-04-27T05:02:16Z</time>
<desc>lat.=22.122253, lon.=104.272156, Alt.=157.877075m. Speed=0.000000m/h.</desc>
<speed>0.000000</speed>
</trkpt>
<trkpt lat="22.122252" lon="104.272156">
<ele>157.955200</ele>
<time>2011-04-27T05:02:21Z</time>
<desc>lat.=22.122252, lon.=104.272156, Alt.=157.955200m. Speed=1.584000m/h.</desc>
<speed>0.440000</speed>
</trkpt>
<trkpt lat="22.122189" lon="104.272202">
<ele>157.767700</ele>
<time>2011-04-27T05:02:26Z</time>
<desc>lat.=22.122189, lon.=104.272202, Alt.=157.767700m. Speed=7.920000m/h.</desc>
<speed>2.200000</speed>
</trkpt>
<trkpt lat="22.122068" lon="104.272255">
<ele>157.533325</ele>
<time>2011-04-27T05:02:31Z</time>
<desc>lat.=22.122068, lon.=104.272255, Alt.=157.533325m. Speed=10.908000m/h.</desc>
<speed>3.030000</speed>
</trkpt>
<trkpt lat="22.121958" lon="104.272301">
<ele>157.298950</ele>
<time>2011-04-27T05:02:36Z</time>
<desc>lat.=22.121958, lon.=104.272301, Alt.=157.298950m. Speed=2.952000m/h.</desc>
<speed>0.820000</speed>
</trkpt>
<trkpt lat="22.121897" lon="104.272324">
<ele>156.916138</ele>
<time>2011-04-27T05:02:41Z</time>
<desc>lat.=22.121897, lon.=104.272324, Alt.=156.916138m. Speed=1.008000m/h.</desc>
<speed>0.280000</speed>
</trkpt>
<trkpt lat="22.121830" lon="104.272377">
<ele>157.912231</ele>
<time>2011-04-27T05:02:46Z</time>
<desc>lat.=22.121830, lon.=104.272377, Alt.=157.912231m. Speed=7.272000m/h.</desc>
<speed>2.020000</speed>
</trkpt>
<trkpt lat="22.121746" lon="104.272453">
<ele>158.088013</ele>
<time>2011-04-27T05:02:51Z</time>
<desc>lat.=22.121746, lon.=104.272453, Alt.=158.088013m. Speed=6.804000m/h.</desc>
<speed>1.890000</speed>
</trkpt>
<trkpt lat="22.121660" lon="104.272552">
<ele>157.752075</ele>
<time>2011-04-27T05:02:56Z</time>
<desc>lat.=22.121660, lon.=104.272552, Alt.=157.752075m. Speed=10.260000m/h.</desc>
<speed>2.850000</speed>
</trkpt>
<trkpt lat="22.121611" lon="104.272720">
<ele>157.170044</ele>
<time>2011-04-27T05:03:01Z</time>
<desc>lat.=22.121611, lon.=104.272720, Alt.=157.170044m. Speed=14.580000m/h.</desc>
<speed>4.050000</speed>
</trkpt>
<trkpt lat="22.121643" lon="104.272934">
<ele>157.822388</ele>
<time>2011-04-27T05:03:06Z</time>
<desc>lat.=22.121643, lon.=104.272934, Alt.=157.822388m. Speed=18.216000m/h.</desc>
<speed>5.060000</speed>
</trkpt>
<trkpt lat="22.121807" lon="104.273125">
<ele>155.955200</ele>
<time>2011-04-27T05:03:11Z</time>
<desc>lat.=22.121807, lon.=104.273125, Alt.=155.955200m. Speed=19.332001m/h.</desc>
<speed>5.370000</speed>
</trkpt>
<trkpt lat="22.121992" lon="104.273285">
<ele>150.595825</ele>
<time>2011-04-27T05:03:16Z</time>
<desc>lat.=22.121992, lon.=104.273285, Alt.=150.595825m. Speed=16.667999m/h.</desc>
<speed>4.630000</speed>
</trkpt>
<trkpt lat="22.122173" lon="104.273476">
<ele>148.177856</ele>
<time>2011-04-27T05:03:21Z</time>
<desc>lat.=22.122173, lon.=104.273476, Alt.=148.177856m. Speed=25.344000m/h.</desc>
<speed>7.040000</speed>
</trkpt>
<trkpt lat="22.122446" lon="104.273743">
<ele>146.060669</ele>
<time>2011-04-27T05:03:26Z</time>
<desc>lat.=22.122446, lon.=104.273743, Alt.=146.060669m. Speed=32.472000m/h.</desc>
<speed>9.020000</speed>
</trkpt>
<trkpt lat="22.122765" lon="104.274071">
<ele>142.627075</ele>
<time>2011-04-27T05:03:31Z</time>
<desc>lat.=22.122765, lon.=104.274071, Alt.=142.627075m. Speed=34.020000m/h.</desc>
<speed>9.450000</speed>
</trkpt>
<trkpt lat="22.123060" lon="104.274361">
<ele>139.361450</ele>
<time>2011-04-27T05:03:36Z</time>
<desc>lat.=22.123060, lon.=104.274361, Alt.=139.361450m. Speed=27.756001m/h.</desc>
<speed>7.710000</speed>
</trkpt>
<trkpt lat="22.123337" lon="104.274498">
<ele>135.681763</ele>
<time>2011-04-27T05:03:41Z</time>
<desc>lat.=22.123337, lon.=104.274498, Alt.=135.681763m. Speed=24.156000m/h.</desc>
<speed>6.710000</speed>
</trkpt>
<trkpt lat="22.123590" lon="104.274277">
<ele>132.216919</ele>
<time>2011-04-27T05:03:46Z</time>
<desc>lat.=22.123590, lon.=104.274277, Alt.=132.216919m. Speed=25.308001m/h.</desc>
<speed>7.030000</speed>
</trkpt>
<trkpt lat="22.123745" lon="104.274033">
<ele>129.142700</ele>
<time>2011-04-27T05:03:51Z</time>
<desc>lat.=22.123745, lon.=104.274033, Alt.=129.142700m. Speed=13.572000m/h.</desc>
<speed>3.770000</speed>
</trkpt>
<trkpt lat="22.123857" lon="104.273964">
<ele>127.555725</ele>
<time>2011-04-27T05:03:56Z</time>
<desc>lat.=22.123857, lon.=104.273964, Alt.=127.555725m. Speed=11.340000m/h.</desc>
<speed>3.150000</speed>
</trkpt>
<trkpt lat="22.124056" lon="104.273979">
<ele>124.721741</ele>
<time>2011-04-27T05:04:01Z</time>
<desc>lat.=22.124056, lon.=104.273979, Alt.=124.721741m. Speed=20.268000m/h.</desc>
<speed>5.630000</speed>
</trkpt>
<trkpt lat="22.124304" lon="104.274193">
<ele>121.803772</ele>
<time>2011-04-27T05:04:06Z</time>
<desc>lat.=22.124304, lon.=104.274193, Alt.=121.803772m. Speed=29.087999m/h.</desc>
<speed>8.080000</speed>
</trkpt>
<trkpt lat="22.124624" lon="104.274384">
<ele>118.674866</ele>
<time>2011-04-27T05:04:11Z</time>
<desc>lat.=22.124624, lon.=104.274384, Alt.=118.674866m. Speed=29.124001m/h.</desc>
<speed>8.090000</speed>
</trkpt>
<trkpt lat="22.124947" lon="104.274384">
<ele>115.930725</ele>
<time>2011-04-27T05:04:16Z</time>
<desc>lat.=22.124947, lon.=104.274384, Alt.=115.930725m. Speed=22.968000m/h.</desc>
<speed>6.380000</speed>
</trkpt>
<trkpt lat="22.125193" lon="104.274353">
<ele>114.145569</ele>
<time>2011-04-27T05:04:21Z</time>
<desc>lat.=22.125193, lon.=104.274353, Alt.=114.145569m. Speed=13.464000m/h.</desc>
<speed>3.740000</speed>
</trkpt>
<trkpt lat="22.125303" lon="104.274361">
<ele>113.495178</ele>
<time>2011-04-27T05:04:26Z</time>
<desc>lat.=22.125303, lon.=104.274361, Alt.=113.495178m. Speed=6.768000m/h.</desc>
<speed>1.880000</speed>
</trkpt>
<trkpt lat="22.125347" lon="104.274376">
<ele>112.893616</ele>
<time>2011-04-27T05:04:31Z</time>
<desc>lat.=22.125347, lon.=104.274376, Alt.=112.893616m. Speed=3.816000m/h.</desc>
<speed>1.060000</speed>
</trkpt>
<trkpt lat="22.125359" lon="104.274376">
<ele>112.686584</ele>
<time>2011-04-27T05:04:36Z</time>
<desc>lat.=22.125359, lon.=104.274376, Alt.=112.686584m. Speed=0.396000m/h.</desc>
<speed>0.110000</speed>
</trkpt>
<trkpt lat="22.125359" lon="104.274376">
<ele>112.567444</ele>
<time>2011-04-27T05:04:41Z</time>
<desc>lat.=22.125359, lon.=104.274376, Alt.=112.567444m. Speed=0.648000m/h.</desc>
<speed>0.180000</speed>
</trkpt>
<trkpt lat="22.125360" lon="104.274384">
<ele>112.542053</ele>
<time>2011-04-27T05:04:46Z</time>
<desc>lat.=22.125360, lon.=104.274384, Alt.=112.542053m. Speed=0.792000m/h.</desc>
<speed>0.220000</speed>
</trkpt>
<trkpt lat="22.125362" lon="104.274399">
<ele>112.547913</ele>
<time>2011-04-27T05:04:51Z</time>
<desc>lat.=22.125362, lon.=104.274399, Alt.=112.547913m. Speed=1.188000m/h.</desc>
<speed>0.330000</speed>
</trkpt>
<trkpt lat="22.125355" lon="104.274429">
<ele>111.803772</ele>
<time>2011-04-27T05:04:56Z</time>
<desc>lat.=22.125355, lon.=104.274429, Alt.=111.803772m. Speed=1.440000m/h.</desc>
<speed>0.400000</speed>
</trkpt>
<trkpt lat="22.125349" lon="104.274437">
<ele>111.479553</ele>
<time>2011-04-27T05:05:01Z</time>
<desc>lat.=22.125349, lon.=104.274437, Alt.=111.479553m. Speed=0.108000m/h.</desc>
<speed>0.030000</speed>
</trkpt>
<trkpt lat="22.125349" lon="104.274437">
<ele>111.376038</ele>
<time>2011-04-27T05:05:06Z</time>
<desc>lat.=22.125349, lon.=104.274437, Alt.=111.376038m. Speed=0.072000m/h.</desc>
<speed>0.020000</speed>
</trkpt>
<trkpt lat="22.125349" lon="104.274437">
<ele>111.350647</ele>
<time>2011-04-27T05:05:11Z</time>
<desc>lat.=22.125349, lon.=104.274437, Alt.=111.350647m. Speed=0.072000m/h.</desc>
<speed>0.020000</speed>
</trkpt>
<trkpt lat="22.125347" lon="104.274437">
<ele>111.317444</ele>
<time>2011-04-27T05:05:16Z</time>
<desc>lat.=22.125347, lon.=104.274437, Alt.=111.317444m. Speed=0.072000m/h.</desc>
<speed>0.020000</speed>
</trkpt>
<trkpt lat="22.125347" lon="104.274437">
<ele>111.323303</ele>
<time>2011-04-27T05:05:21Z</time>
<desc>lat.=22.125347, lon.=104.274437, Alt.=111.323303m. Speed=0.072000m/h.</desc>
<speed>0.020000</speed>
</trkpt>
<trkpt lat="22.125345" lon="104.274437">
<ele>111.372131</ele>
<time>2011-04-27T05:05:26Z</time>
<desc>lat.=22.125345, lon.=104.274437, Alt.=111.372131m. Speed=0.252000m/h.</desc>
<speed>0.070000</speed>
</trkpt>
<trkpt lat="22.125347" lon="104.274437">
<ele>111.395569</ele>
<time>2011-04-27T05:05:31Z</time>
<desc>lat.=22.125347, lon.=104.274437, Alt.=111.395569m. Speed=0.252000m/h.</desc>
<speed>0.070000</speed>
</trkpt>
<trkpt lat="22.125349" lon="104.274437">
<ele>111.391663</ele>
<time>2011-04-27T05:05:36Z</time>
<desc>lat.=22.125349, lon.=104.274437, Alt.=111.391663m. Speed=0.072000m/h.</desc>
<speed>0.020000</speed>
</trkpt>
<trkpt lat="22.125345" lon="104.274437">
<ele>111.383850</ele>
<time>2011-04-27T05:05:41Z</time>
<desc>lat.=22.125345, lon.=104.274437, Alt.=111.383850m. Speed=0.540000m/h.</desc>
<speed>0.150000</speed>
</trkpt>
<trkpt lat="22.125343" lon="104.274437">
<ele>111.444397</ele>
<time>2011-04-27T05:05:46Z</time>
<desc>lat.=22.125343, lon.=104.274437, Alt.=111.444397m. Speed=0.144000m/h.</desc>
<speed>0.040000</speed>
</trkpt>
<trkpt lat="22.125343" lon="104.274437">
<ele>111.493225</ele>
<time>2011-04-27T05:05:51Z</time>
<desc>lat.=22.125343, lon.=104.274437, Alt.=111.493225m. Speed=0.180000m/h.</desc>
<speed>0.050000</speed>
</trkpt>
<trkpt lat="22.125341" lon="104.274437">
<ele>111.536194</ele>
<time>2011-04-27T05:05:56Z</time>
<desc>lat.=22.125341, lon.=104.274437, Alt.=111.536194m. Speed=0.036000m/h.</desc>
<speed>0.010000</speed>
</trkpt>
<trkpt lat="22.125341" lon="104.274437">
<ele>111.545959</ele>
<time>2011-04-27T05:06:01Z</time>
<desc>lat.=22.125341, lon.=104.274437, Alt.=111.545959m. Speed=0.036000m/h.</desc>
<speed>0.010000</speed>
</trkpt>
<trkpt lat="22.125341" lon="104.274437">
<ele>111.516663</ele>
<time>2011-04-27T05:06:06Z</time>
<desc>lat.=22.125341, lon.=104.274437, Alt.=111.516663m. Speed=0.000000m/h.</desc>
<speed>0.000000</speed>
</trkpt>
<trkpt lat="22.125341" lon="104.274437">
<ele>111.424866</ele>
<time>2011-04-27T05:06:11Z</time>
<desc>lat.=22.125341, lon.=104.274437, Alt.=111.424866m. Speed=0.000000m/h.</desc>
<speed>0.000000</speed>
</trkpt>
<trkpt lat="22.125341" lon="104.274437">
<ele>111.409241</ele>
<time>2011-04-27T05:06:16Z</time>
<desc>lat.=22.125341, lon.=104.274437, Alt.=111.409241m. Speed=0.000000m/h.</desc>
<speed>0.000000</speed>
</trkpt>
<trkpt lat="22.125341" lon="104.274437">
<ele>111.401428</ele>
<time>2011-04-27T05:06:21Z</time>
<desc>lat.=22.125341, lon.=104.274437, Alt.=111.401428m. Speed=0.072000m/h.</desc>
<speed>0.020000</speed>
</trkpt>
<trkpt lat="22.125343" lon="104.274437">
<ele>111.376038</ele>
<time>2011-04-27T05:06:26Z</time>
<desc>lat.=22.125343, lon.=104.274437, Alt.=111.376038m. Speed=0.000000m/h.</desc>
<speed>0.000000</speed>
</trkpt>
<trkpt lat="22.125343" lon="104.274437">
<ele>111.336975</ele>
<time>2011-04-27T05:06:31Z</time>
<desc>lat.=22.125343, lon.=104.274437, Alt.=111.336975m. Speed=0.036000m/h.</desc>
<speed>0.010000</speed>
</trkpt>
<trkpt lat="22.125343" lon="104.274437">
<ele>111.286194</ele>
<time>2011-04-27T05:06:36Z</time>
<desc>lat.=22.125343, lon.=104.274437, Alt.=111.286194m. Speed=0.000000m/h.</desc>
<speed>0.000000</speed>
</trkpt>
<trkpt lat="22.125343" lon="104.274437">
<ele>111.211975</ele>
<time>2011-04-27T05:06:41Z</time>
<desc>lat.=22.125343, lon.=104.274437, Alt.=111.211975m. Speed=0.000000m/h.</desc>
<speed>0.000000</speed>
</trkpt>
<trkpt lat="22.125343" lon="104.274437">
<ele>111.143616</ele>
<time>2011-04-27T05:06:46Z</time>
<desc>lat.=22.125343, lon.=104.274437, Alt.=111.143616m. Speed=0.000000m/h.</desc>
<speed>0.000000</speed>
</trkpt>
<trkpt lat="22.125343" lon="104.274437">
<ele>111.088928</ele>
<time>2011-04-27T05:06:51Z</time>
<desc>lat.=22.125343, lon.=104.274437, Alt.=111.088928m. Speed=0.036000m/h.</desc>
<speed>0.010000</speed>
</trkpt>
<trkpt lat="22.125341" lon="104.274437">
<ele>111.044006</ele>
<time>2011-04-27T05:06:56Z</time>
<desc>lat.=22.125341, lon.=104.274437, Alt.=111.044006m. Speed=0.000000m/h.</desc>
<speed>0.000000</speed>
</trkpt>
<trkpt lat="22.125340" lon="104.274437">
<ele>110.999084</ele>
<time>2011-04-27T05:07:01Z</time>
<desc>lat.=22.125340, lon.=104.274437, Alt.=110.999084m. Speed=0.180000m/h.</desc>
<speed>0.050000</speed>
</trkpt>
<trkpt lat="22.125338" lon="104.274429">
<ele>110.948303</ele>
<time>2011-04-27T05:07:06Z</time>
<desc>lat.=22.125338, lon.=104.274429, Alt.=110.948303m. Speed=0.288000m/h.</desc>
<speed>0.080000</speed>
</trkpt>
<trkpt lat="22.125336" lon="104.274429">
<ele>110.901428</ele>
<time>2011-04-27T05:07:11Z</time>
<desc>lat.=22.125336, lon.=104.274429, Alt.=110.901428m. Speed=0.000000m/h.</desc>
<speed>0.000000</speed>
</trkpt>
<trkpt lat="22.125336" lon="104.274429">
<ele>110.842834</ele>
<time>2011-04-27T05:07:16Z</time>
<desc>lat.=22.125336, lon.=104.274429, Alt.=110.842834m. Speed=0.036000m/h.</desc>
<speed>0.010000</speed>
</trkpt>
<trkpt lat="22.125336" lon="104.274429">
<ele>110.774475</ele>
<time>2011-04-27T05:07:21Z</time>
<desc>lat.=22.125336, lon.=104.274429, Alt.=110.774475m. Speed=0.072000m/h.</desc>
<speed>0.020000</speed>
</trkpt>
<trkpt lat="22.125338" lon="104.274429">
<ele>110.711975</ele>
<time>2011-04-27T05:07:26Z</time>
<desc>lat.=22.125338, lon.=104.274429, Alt.=110.711975m. Speed=0.036000m/h.</desc>
<speed>0.010000</speed>
</trkpt>
<trkpt lat="22.125338" lon="104.274429">
<ele>110.661194</ele>
<time>2011-04-27T05:07:31Z</time>
<desc>lat.=22.125338, lon.=104.274429, Alt.=110.661194m. Speed=0.072000m/h.</desc>
<speed>0.020000</speed>
</trkpt>
<trkpt lat="22.125338" lon="104.274429">
<ele>110.610413</ele>
<time>2011-04-27T05:07:36Z</time>
<desc>lat.=22.125338, lon.=104.274429, Alt.=110.610413m. Speed=0.072000m/h.</desc>
<speed>0.020000</speed>
</trkpt>
<trkpt lat="22.125336" lon="104.274429">
<ele>110.559631</ele>
<time>2011-04-27T05:07:41Z</time>
<desc>lat.=22.125336, lon.=104.274429, Alt.=110.559631m. Speed=0.072000m/h.</desc>
<speed>0.020000</speed>
</trkpt>
<trkpt lat="22.125336" lon="104.274429">
<ele>110.506897</ele>
<time>2011-04-27T05:07:46Z</time>
<desc>lat.=22.125336, lon.=104.274429, Alt.=110.506897m. Speed=0.108000m/h.</desc>
<speed>0.030000</speed>
</trkpt>
<trkpt lat="22.125334" lon="104.274429">
<ele>110.454163</ele>
<time>2011-04-27T05:07:51Z</time>
<desc>lat.=22.125334, lon.=104.274429, Alt.=110.454163m. Speed=0.000000m/h.</desc>
<speed>0.000000</speed>
</trkpt>
<trkpt lat="22.125334" lon="104.274429">
<ele>110.399475</ele>
<time>2011-04-27T05:07:56Z</time>
<desc>lat.=22.125334, lon.=104.274429, Alt.=110.399475m. Speed=0.000000m/h.</desc>
<speed>0.000000</speed>
</trkpt>
<trkpt lat="22.125336" lon="104.274429">
<ele>110.346741</ele>
<time>2011-04-27T05:08:01Z</time>
<desc>lat.=22.125336, lon.=104.274429, Alt.=110.346741m. Speed=0.108000m/h.</desc>
<speed>0.030000</speed>
</trkpt>
<trkpt lat="22.125338" lon="104.274429">
<ele>110.294006</ele>
<time>2011-04-27T05:08:06Z</time>
<desc>lat.=22.125338, lon.=104.274429, Alt.=110.294006m. Speed=0.216000m/h.</desc>
<speed>0.060000</speed>
</trkpt>
<trkpt lat="22.125340" lon="104.274429">
<ele>110.241272</ele>
<time>2011-04-27T05:08:11Z</time>
<desc>lat.=22.125340, lon.=104.274429, Alt.=110.241272m. Speed=0.144000m/h.</desc>
<speed>0.040000</speed>
</trkpt>
<trkpt lat="22.125340" lon="104.274437">
<ele>110.194397</ele>
<time>2011-04-27T05:08:16Z</time>
<desc>lat.=22.125340, lon.=104.274437, Alt.=110.194397m. Speed=0.036000m/h.</desc>
<speed>0.010000</speed>
</trkpt>
<trkpt lat="22.125340" lon="104.274437">
<ele>110.141663</ele>
<time>2011-04-27T05:08:21Z</time>
<desc>lat.=22.125340, lon.=104.274437, Alt.=110.141663m. Speed=0.000000m/h.</desc>
<speed>0.000000</speed>
</trkpt>
<trkpt lat="22.125340" lon="104.274429">
<ele>110.071350</ele>
<time>2011-04-27T05:08:26Z</time>
<desc>lat.=22.125340, lon.=104.274429, Alt.=110.071350m. Speed=0.036000m/h.</desc>
<speed>0.010000</speed>
</trkpt>
<trkpt lat="22.125340" lon="104.274429">
<ele>110.047913</ele>
<time>2011-04-27T05:08:31Z</time>
<desc>lat.=22.125340, lon.=104.274429, Alt.=110.047913m. Speed=0.036000m/h.</desc>
<speed>0.010000</speed>
</trkpt>
<trkpt lat="22.125340" lon="104.274429">
<ele>110.038147</ele>
<time>2011-04-27T05:08:36Z</time>
<desc>lat.=22.125340, lon.=104.274429, Alt.=110.038147m. Speed=0.000000m/h.</desc>
<speed>0.000000</speed>
</trkpt>
<trkpt lat="22.125338" lon="104.274429">
<ele>110.038147</ele>
<time>2011-04-27T05:08:41Z</time>
<desc>lat.=22.125338, lon.=104.274429, Alt.=110.038147m. Speed=0.000000m/h.</desc>
<speed>0.000000</speed>
</trkpt>
<trkpt lat="22.125338" lon="104.274429">
<ele>110.032288</ele>
<time>2011-04-27T05:08:46Z</time>
<desc>lat.=22.125338, lon.=104.274429, Alt.=110.032288m. Speed=0.036000m/h.</desc>
<speed>0.010000</speed>
</trkpt>
<trkpt lat="22.125338" lon="104.274429">
<ele>110.014709</ele>
<time>2011-04-27T05:08:51Z</time>
<desc>lat.=22.125338, lon.=104.274429, Alt.=110.014709m. Speed=0.000000m/h.</desc>
<speed>0.000000</speed>
</trkpt>
<trkpt lat="22.125338" lon="104.274429">
<ele>109.999084</ele>
<time>2011-04-27T05:08:56Z</time>
<desc>lat.=22.125338, lon.=104.274429, Alt.=109.999084m. Speed=0.036000m/h.</desc>
<speed>0.010000</speed>
</trkpt>
<trkpt lat="22.125338" lon="104.274429">
<ele>109.987366</ele>
<time>2011-04-27T05:09:01Z</time>
<desc>lat.=22.125338, lon.=104.274429, Alt.=109.987366m. Speed=0.000000m/h.</desc>
<speed>0.000000</speed>
</trkpt>
<trkpt lat="22.125338" lon="104.274429">
<ele>109.967834</ele>
<time>2011-04-27T05:09:06Z</time>
<desc>lat.=22.125338, lon.=104.274429, Alt.=109.967834m. Speed=0.036000m/h.</desc>
<speed>0.010000</speed>
</trkpt>
<trkpt lat="22.125336" lon="104.274429">
<ele>109.960022</ele>
<time>2011-04-27T05:09:11Z</time>
<desc>lat.=22.125336, lon.=104.274429, Alt.=109.960022m. Speed=0.000000m/h.</desc>
<speed>0.000000</speed>
</trkpt>
<trkpt lat="22.125336" lon="104.274429">
<ele>109.956116</ele>
<time>2011-04-27T05:09:16Z</time>
<desc>lat.=22.125336, lon.=104.274429, Alt.=109.956116m. Speed=0.000000m/h.</desc>
<speed>0.000000</speed>
</trkpt>
<trkpt lat="22.125336" lon="104.274429">
<ele>109.954163</ele>
<time>2011-04-27T05:09:21Z</time>
<desc>lat.=22.125336, lon.=104.274429, Alt.=109.954163m. Speed=0.036000m/h.</desc>
<speed>0.010000</speed>
</trkpt>
<trkpt lat="22.125336" lon="104.274429">
<ele>109.950256</ele>
<time>2011-04-27T05:09:26Z</time>
<desc>lat.=22.125336, lon.=104.274429, Alt.=109.950256m. Speed=0.000000m/h.</desc>
<speed>0.000000</speed>
</trkpt>
<trkpt lat="22.125336" lon="104.274429">
<ele>109.954163</ele>
<time>2011-04-27T05:09:31Z</time>
<desc>lat.=22.125336, lon.=104.274429, Alt.=109.954163m. Speed=0.036000m/h.</desc>
<speed>0.010000</speed>
</trkpt>
<trkpt lat="22.125336" lon="104.274429">
<ele>109.987366</ele>
<time>2011-04-27T05:09:36Z</time>
<desc>lat.=22.125336, lon.=104.274429, Alt.=109.987366m. Speed=0.000000m/h.</desc>
<speed>0.000000</speed>
</trkpt>
<trkpt lat="22.125336" lon="104.274429">
<ele>110.032288</ele>
<time>2011-04-27T05:09:41Z</time>
<desc>lat.=22.125336, lon.=104.274429, Alt.=110.032288m. Speed=0.000000m/h.</desc>
<speed>0.000000</speed>
</trkpt>
<trkpt lat="22.125334" lon="104.274429">
<ele>110.057678</ele>
<time>2011-04-27T05:09:46Z</time>
<desc>lat.=22.125334, lon.=104.274429, Alt.=110.057678m. Speed=0.000000m/h.</desc>
<speed>0.000000</speed>
</trkpt>
<trkpt lat="22.125334" lon="104.274429">
<ele>110.073303</ele>
<time>2011-04-27T05:09:51Z</time>
<desc>lat.=22.125334, lon.=104.274429, Alt.=110.073303m. Speed=0.000000m/h.</desc>
<speed>0.000000</speed>
</trkpt>
<trkpt lat="22.125334" lon="104.274429">
<ele>110.106506</ele>
<time>2011-04-27T05:09:56Z</time>
<desc>lat.=22.125334, lon.=104.274429, Alt.=110.106506m. Speed=0.036000m/h.</desc>
<speed>0.010000</speed>
</trkpt>
<trkpt lat="22.125334" lon="104.274429">
<ele>110.126038</ele>
<time>2011-04-27T05:10:01Z</time>
<desc>lat.=22.125334, lon.=104.274429, Alt.=110.126038m. Speed=0.036000m/h.</desc>
<speed>0.010000</speed>
</trkpt>
<trkpt lat="22.125332" lon="104.274429">
<ele>110.116272</ele>
<time>2011-04-27T05:10:06Z</time>
<desc>lat.=22.125332, lon.=104.274429, Alt.=110.116272m. Speed=0.540000m/h.</desc>
<speed>0.150000</speed>
</trkpt>
<trkpt lat="22.125345" lon="104.274429">
<ele>109.840881</ele>
<time>2011-04-27T05:10:11Z</time>
<desc>lat.=22.125345, lon.=104.274429, Alt.=109.840881m. Speed=1.440000m/h.</desc>
<speed>0.400000</speed>
</trkpt>
<trkpt lat="22.125389" lon="104.274406">
<ele>108.692444</ele>
<time>2011-04-27T05:10:16Z</time>
<desc>lat.=22.125389, lon.=104.274406, Alt.=108.692444m. Speed=2.664000m/h.</desc>
<speed>0.740000</speed>
</trkpt>
<trkpt lat="22.125418" lon="104.274406">
<ele>107.536194</ele>
<time>2011-04-27T05:10:21Z</time>
<desc>lat.=22.125418, lon.=104.274406, Alt.=107.536194m. Speed=0.000000m/h.</desc>
<speed>0.000000</speed>
</trkpt>
<trkpt lat="22.125422" lon="104.274414">
<ele>107.188538</ele>
<time>2011-04-27T05:10:26Z</time>
<desc>lat.=22.125422, lon.=104.274414, Alt.=107.188538m. Speed=0.108000m/h.</desc>
<speed>0.030000</speed>
</trkpt>
<trkpt lat="22.125475" lon="104.274422">
<ele>106.993225</ele>
<time>2011-04-27T05:10:31Z</time>
<desc>lat.=22.125475, lon.=104.274422, Alt.=106.993225m. Speed=6.804000m/h.</desc>
<speed>1.890000</speed>
</trkpt>
<trkpt lat="22.125618" lon="104.274460">
<ele>106.002991</ele>
<time>2011-04-27T05:10:36Z</time>
<desc>lat.=22.125618, lon.=104.274460, Alt.=106.002991m. Speed=12.312000m/h.</desc>
<speed>3.420000</speed>
</trkpt>
<trkpt lat="22.125776" lon="104.274544">
<ele>105.079163</ele>
<time>2011-04-27T05:10:41Z</time>
<desc>lat.=22.125776, lon.=104.274544, Alt.=105.079163m. Speed=11.916000m/h.</desc>
<speed>3.310000</speed>
</trkpt>
<trkpt lat="22.125893" lon="104.274643">
<ele>105.749084</ele>
<time>2011-04-27T05:10:46Z</time>
<desc>lat.=22.125893, lon.=104.274643, Alt.=105.749084m. Speed=11.556000m/h.</desc>
<speed>3.210000</speed>
</trkpt>
<trkpt lat="22.126030" lon="104.274773">
<ele>105.567444</ele>
<time>2011-04-27T05:10:51Z</time>
<desc>lat.=22.126030, lon.=104.274773, Alt.=105.567444m. Speed=16.416000m/h.</desc>
<speed>4.560000</speed>
</trkpt>
<trkpt lat="22.126221" lon="104.274925">
<ele>104.485413</ele>
<time>2011-04-27T05:10:56Z</time>
<desc>lat.=22.126221, lon.=104.274925, Alt.=104.485413m. Speed=17.459999m/h.</desc>
<speed>4.850000</speed>
</trkpt>
<trkpt lat="22.126379" lon="104.275093">
<ele>103.542053</ele>
<time>2011-04-27T05:11:01Z</time>
<desc>lat.=22.126379, lon.=104.275093, Alt.=103.542053m. Speed=17.820000m/h.</desc>
<speed>4.950000</speed>
</trkpt>
<trkpt lat="22.126541" lon="104.275307">
<ele>101.829163</ele>
<time>2011-04-27T05:11:06Z</time>
<desc>lat.=22.126541, lon.=104.275307, Alt.=101.829163m. Speed=19.115999m/h.</desc>
<speed>5.310000</speed>
</trkpt>
<trkpt lat="22.126694" lon="104.275505">
<ele>99.045959</ele>
<time>2011-04-27T05:11:11Z</time>
<desc>lat.=22.126694, lon.=104.275505, Alt.=99.045959m. Speed=18.719999m/h.</desc>
<speed>5.200000</speed>
</trkpt>
<trkpt lat="22.126820" lon="104.275719">
<ele>97.653381</ele>
<time>2011-04-27T05:11:16Z</time>
<desc>lat.=22.126820, lon.=104.275719, Alt.=97.653381m. Speed=17.532000m/h.</desc>
<speed>4.870000</speed>
</trkpt>
<trkpt lat="22.126904" lon="104.275902">
<ele>97.633850</ele>
<time>2011-04-27T05:11:21Z</time>
<desc>lat.=22.126904, lon.=104.275902, Alt.=97.633850m. Speed=12.780000m/h.</desc>
<speed>3.550000</speed>
</trkpt>
<trkpt lat="22.126987" lon="104.276093">
<ele>96.044006</ele>
<time>2011-04-27T05:11:26Z</time>
<desc>lat.=22.126987, lon.=104.276093, Alt.=96.044006m. Speed=15.948000m/h.</desc>
<speed>4.430000</speed>
</trkpt>
<trkpt lat="22.127075" lon="104.276260">
<ele>96.174866</ele>
<time>2011-04-27T05:11:31Z</time>
<desc>lat.=22.127075, lon.=104.276260, Alt.=96.174866m. Speed=13.392000m/h.</desc>
<speed>3.720000</speed>
</trkpt>
<trkpt lat="22.127140" lon="104.276405">
<ele>96.680725</ele>
<time>2011-04-27T05:11:36Z</time>
<desc>lat.=22.127140, lon.=104.276405, Alt.=96.680725m. Speed=11.412000m/h.</desc>
<speed>3.170000</speed>
</trkpt>
<trkpt lat="22.127201" lon="104.276566">
<ele>97.284241</ele>
<time>2011-04-27T05:11:41Z</time>
<desc>lat.=22.127201, lon.=104.276566, Alt.=97.284241m. Speed=13.032000m/h.</desc>
<speed>3.620000</speed>
</trkpt>
<trkpt lat="22.127270" lon="104.276741">
<ele>97.020569</ele>
<time>2011-04-27T05:11:46Z</time>
<desc>lat.=22.127270, lon.=104.276741, Alt.=97.020569m. Speed=12.024000m/h.</desc>
<speed>3.340000</speed>
</trkpt>
<trkpt lat="22.127317" lon="104.276848">
<ele>98.016663</ele>
<time>2011-04-27T05:11:51Z</time>
<desc>lat.=22.127317, lon.=104.276848, Alt.=98.016663m. Speed=8.316000m/h.</desc>
<speed>2.310000</speed>
</trkpt>
<trkpt lat="22.127394" lon="104.276939">
<ele>99.110413</ele>
<time>2011-04-27T05:11:56Z</time>
<desc>lat.=22.127394, lon.=104.276939, Alt.=99.110413m. Speed=7.992000m/h.</desc>
<speed>2.220000</speed>
</trkpt>
<trkpt lat="22.127499" lon="104.276962">
<ele>99.928772</ele>
<time>2011-04-27T05:12:01Z</time>
<desc>lat.=22.127499, lon.=104.276962, Alt.=99.928772m. Speed=9.756000m/h.</desc>
<speed>2.710000</speed>
</trkpt>
<trkpt lat="22.127638" lon="104.276993">
<ele>100.215881</ele>
<time>2011-04-27T05:12:06Z</time>
<desc>lat.=22.127638, lon.=104.276993, Alt.=100.215881m. Speed=11.664000m/h.</desc>
<speed>3.240000</speed>
</trkpt>
<trkpt lat="22.127815" lon="104.277008">
<ele>99.565491</ele>
<time>2011-04-27T05:12:11Z</time>
<desc>lat.=22.127815, lon.=104.277008, Alt.=99.565491m. Speed=14.256000m/h.</desc>
<speed>3.960000</speed>
</trkpt>
<trkpt lat="22.128004" lon="104.277031">
<ele>99.297913</ele>
<time>2011-04-27T05:12:16Z</time>
<desc>lat.=22.128004, lon.=104.277031, Alt.=99.297913m. Speed=15.732000m/h.</desc>
<speed>4.370000</speed>
</trkpt>
<trkpt lat="22.128199" lon="104.277061">
<ele>98.516663</ele>
<time>2011-04-27T05:12:21Z</time>
<desc>lat.=22.128199, lon.=104.277061, Alt.=98.516663m. Speed=14.436000m/h.</desc>
<speed>4.010000</speed>
</trkpt>
<trkpt lat="22.128380" lon="104.277077">
<ele>97.745178</ele>
<time>2011-04-27T05:12:26Z</time>
<desc>lat.=22.128380, lon.=104.277077, Alt.=97.745178m. Speed=12.636000m/h.</desc>
<speed>3.510000</speed>
</trkpt>
<trkpt lat="22.128508" lon="104.277122">
<ele>97.864319</ele>
<time>2011-04-27T05:12:31Z</time>
<desc>lat.=22.128508, lon.=104.277122, Alt.=97.864319m. Speed=9.252000m/h.</desc>
<speed>2.570000</speed>
</trkpt>
<trkpt lat="22.128599" lon="104.277176">
<ele>97.069397</ele>
<time>2011-04-27T05:12:36Z</time>
<desc>lat.=22.128599, lon.=104.277176, Alt.=97.069397m. Speed=9.864000m/h.</desc>
<speed>2.740000</speed>
</trkpt>
<trkpt lat="22.128695" lon="104.277298">
<ele>96.870178</ele>
<time>2011-04-27T05:12:41Z</time>
<desc>lat.=22.128695, lon.=104.277298, Alt.=96.870178m. Speed=10.584000m/h.</desc>
<speed>2.940000</speed>
</trkpt>
<trkpt lat="22.128736" lon="104.277420">
<ele>96.772522</ele>
<time>2011-04-27T05:12:46Z</time>
<desc>lat.=22.128736, lon.=104.277420, Alt.=96.772522m. Speed=4.068000m/h.</desc>
<speed>1.130000</speed>
</trkpt>
<trkpt lat="22.128759" lon="104.277412">
<ele>96.823303</ele>
<time>2011-04-27T05:12:51Z</time>
<desc>lat.=22.128759, lon.=104.277412, Alt.=96.823303m. Speed=0.180000m/h.</desc>
<speed>0.050000</speed>
</trkpt>
<trkpt lat="22.128763" lon="104.277420">
<ele>96.743225</ele>
<time>2011-04-27T05:12:56Z</time>
<desc>lat.=22.128763, lon.=104.277420, Alt.=96.743225m. Speed=0.072000m/h.</desc>
<speed>0.020000</speed>
</trkpt>
<trkpt lat="22.128761" lon="104.277412">
<ele>96.708069</ele>
<time>2011-04-27T05:13:01Z</time>
<desc>lat.=22.128761, lon.=104.277412, Alt.=96.708069m. Speed=0.072000m/h.</desc>
<speed>0.020000</speed>
</trkpt>
<trkpt lat="22.128761" lon="104.277412">
<ele>96.715881</ele>
<time>2011-04-27T05:13:06Z</time>
<desc>lat.=22.128761, lon.=104.277412, Alt.=96.715881m. Speed=0.072000m/h.</desc>
<speed>0.020000</speed>
</trkpt>
<trkpt lat="22.128761" lon="104.277412">
<ele>96.731506</ele>
<time>2011-04-27T05:13:11Z</time>
<desc>lat.=22.128761, lon.=104.277412, Alt.=96.731506m. Speed=0.072000m/h.</desc>
<speed>0.020000</speed>
</trkpt>
<trkpt lat="22.128761" lon="104.277412">
<ele>96.764709</ele>
<time>2011-04-27T05:13:16Z</time>
<desc>lat.=22.128761, lon.=104.277412, Alt.=96.764709m. Speed=0.108000m/h.</desc>
<speed>0.030000</speed>
</trkpt>
<trkpt lat="22.128761" lon="104.277412">
<ele>96.690491</ele>
<time>2011-04-27T05:13:21Z</time>
<desc>lat.=22.128761, lon.=104.277412, Alt.=96.690491m. Speed=0.144000m/h.</desc>
<speed>0.040000</speed>
</trkpt>
<trkpt lat="22.128761" lon="104.277412">
<ele>96.708069</ele>
<time>2011-04-27T05:13:26Z</time>
<desc>lat.=22.128761, lon.=104.277412, Alt.=96.708069m. Speed=0.432000m/h.</desc>
<speed>0.120000</speed>
</trkpt>
<trkpt lat="22.128775" lon="104.277466">
<ele>96.639709</ele>
<time>2011-04-27T05:13:31Z</time>
<desc>lat.=22.128775, lon.=104.277466, Alt.=96.639709m. Speed=8.280000m/h.</desc>
<speed>2.300000</speed>
</trkpt>
<trkpt lat="22.128841" lon="104.277641">
<ele>93.788147</ele>
<time>2011-04-27T05:13:36Z</time>
<desc>lat.=22.128841, lon.=104.277641, Alt.=93.788147m. Speed=13.608000m/h.</desc>
<speed>3.780000</speed>
</trkpt>
<trkpt lat="22.128860" lon="104.277870">
<ele>92.354553</ele>
<time>2011-04-27T05:13:41Z</time>
<desc>lat.=22.128860, lon.=104.277870, Alt.=92.354553m. Speed=14.976000m/h.</desc>
<speed>4.160000</speed>
</trkpt>
<trkpt lat="22.128849" lon="104.278099">
<ele>93.012756</ele>
<time>2011-04-27T05:13:46Z</time>
<desc>lat.=22.128849, lon.=104.278099, Alt.=93.012756m. Speed=15.696000m/h.</desc>
<speed>4.360000</speed>
</trkpt>
<trkpt lat="22.128830" lon="104.278297">
<ele>94.264709</ele>
<time>2011-04-27T05:13:51Z</time>
<desc>lat.=22.128830, lon.=104.278297, Alt.=94.264709m. Speed=13.824000m/h.</desc>
<speed>3.840000</speed>
</trkpt>
<trkpt lat="22.128860" lon="104.278496">
<ele>95.485413</ele>
<time>2011-04-27T05:13:56Z</time>
<desc>lat.=22.128860, lon.=104.278496, Alt.=95.485413m. Speed=16.020000m/h.</desc>
<speed>4.450000</speed>
</trkpt>
<trkpt lat="22.128988" lon="104.278664">
<ele>95.485413</ele>
<time>2011-04-27T05:14:01Z</time>
<desc>lat.=22.128988, lon.=104.278664, Alt.=95.485413m. Speed=13.284000m/h.</desc>
<speed>3.690000</speed>
</trkpt>
<trkpt lat="22.129122" lon="104.278809">
<ele>97.106506</ele>
<time>2011-04-27T05:14:06Z</time>
<desc>lat.=22.129122, lon.=104.278809, Alt.=97.106506m. Speed=14.400000m/h.</desc>
<speed>4.000000</speed>
</trkpt>
<trkpt lat="22.129274" lon="104.278870">
<ele>98.514709</ele>
<time>2011-04-27T05:14:11Z</time>
<desc>lat.=22.129274, lon.=104.278870, Alt.=98.514709m. Speed=14.076000m/h.</desc>
<speed>3.910000</speed>
</trkpt>
<trkpt lat="22.129452" lon="104.278999">
<ele>99.612366</ele>
<time>2011-04-27T05:14:16Z</time>
<desc>lat.=22.129452, lon.=104.278999, Alt.=99.612366m. Speed=14.004000m/h.</desc>
<speed>3.890000</speed>
</trkpt>
<trkpt lat="22.129599" lon="104.279144">
<ele>100.383850</ele>
<time>2011-04-27T05:14:21Z</time>
<desc>lat.=22.129599, lon.=104.279144, Alt.=100.383850m. Speed=13.032000m/h.</desc>
<speed>3.620000</speed>
</trkpt>
<trkpt lat="22.129795" lon="104.279327">
<ele>101.481506</ele>
<time>2011-04-27T05:14:26Z</time>
<desc>lat.=22.129795, lon.=104.279327, Alt.=101.481506m. Speed=16.271999m/h.</desc>
<speed>4.520000</speed>
</trkpt>
<trkpt lat="22.129934" lon="104.279488">
<ele>101.989319</ele>
<time>2011-04-27T05:14:31Z</time>
<desc>lat.=22.129934, lon.=104.279488, Alt.=101.989319m. Speed=14.616000m/h.</desc>
<speed>4.060000</speed>
</trkpt>
<trkpt lat="22.130014" lon="104.279617">
<ele>101.155334</ele>
<time>2011-04-27T05:14:36Z</time>
<desc>lat.=22.130014, lon.=104.279617, Alt.=101.155334m. Speed=12.456000m/h.</desc>
<speed>3.460000</speed>
</trkpt>
<trkpt lat="22.130110" lon="104.279755">
<ele>102.040100</ele>
<time>2011-04-27T05:14:41Z</time>
<desc>lat.=22.130110, lon.=104.279755, Alt.=102.040100m. Speed=9.324000m/h.</desc>
<speed>2.590000</speed>
</trkpt>
<trkpt lat="22.130192" lon="104.279900">
<ele>101.657288</ele>
<time>2011-04-27T05:14:46Z</time>
<desc>lat.=22.130192, lon.=104.279900, Alt.=101.657288m. Speed=12.312000m/h.</desc>
<speed>3.420000</speed>
</trkpt>
<trkpt lat="22.130264" lon="104.280052">
<ele>101.960022</ele>
<time>2011-04-27T05:14:51Z</time>
<desc>lat.=22.130264, lon.=104.280052, Alt.=101.960022m. Speed=10.584000m/h.</desc>
<speed>2.940000</speed>
</trkpt>
<trkpt lat="22.130341" lon="104.280197">
<ele>101.461975</ele>
<time>2011-04-27T05:14:56Z</time>
<desc>lat.=22.130341, lon.=104.280197, Alt.=101.461975m. Speed=13.212000m/h.</desc>
<speed>3.670000</speed>
</trkpt>
<trkpt lat="22.130421" lon="104.280350">
<ele>102.225647</ele>
<time>2011-04-27T05:15:01Z</time>
<desc>lat.=22.130421, lon.=104.280350, Alt.=102.225647m. Speed=11.736000m/h.</desc>
<speed>3.260000</speed>
</trkpt>
<trkpt lat="22.130482" lon="104.280457">
<ele>102.497131</ele>
<time>2011-04-27T05:15:06Z</time>
<desc>lat.=22.130482, lon.=104.280457, Alt.=102.497131m. Speed=7.524000m/h.</desc>
<speed>2.090000</speed>
</trkpt>
<trkpt lat="22.130497" lon="104.280518">
<ele>102.454163</ele>
<time>2011-04-27T05:15:11Z</time>
<desc>lat.=22.130497, lon.=104.280518, Alt.=102.454163m. Speed=4.464000m/h.</desc>
<speed>1.240000</speed>
</trkpt>
<trkpt lat="22.130548" lon="104.280609">
<ele>105.506897</ele>
<time>2011-04-27T05:15:16Z</time>
<desc>lat.=22.130548, lon.=104.280609, Alt.=105.506897m. Speed=6.480000m/h.</desc>
<speed>1.800000</speed>
</trkpt>
<trkpt lat="22.130548" lon="104.280655">
<ele>108.127991</ele>
<time>2011-04-27T05:15:21Z</time>
<desc>lat.=22.130548, lon.=104.280655, Alt.=108.127991m. Speed=4.032000m/h.</desc>
<speed>1.120000</speed>
</trkpt>
<trkpt lat="22.130583" lon="104.280716">
<ele>109.975647</ele>
<time>2011-04-27T05:15:26Z</time>
<desc>lat.=22.130583, lon.=104.280716, Alt.=109.975647m. Speed=4.572000m/h.</desc>
<speed>1.270000</speed>
</trkpt>
<trkpt lat="22.130602" lon="104.280777">
<ele>110.178772</ele>
<time>2011-04-27T05:15:31Z</time>
<desc>lat.=22.130602, lon.=104.280777, Alt.=110.178772m. Speed=3.852000m/h.</desc>
<speed>1.070000</speed>
</trkpt>
<trkpt lat="22.130611" lon="104.280807">
<ele>110.397522</ele>
<time>2011-04-27T05:15:36Z</time>
<desc>lat.=22.130611, lon.=104.280807, Alt.=110.397522m. Speed=0.864000m/h.</desc>
<speed>0.240000</speed>
</trkpt>
<trkpt lat="22.130615" lon="104.280815">
<ele>110.672913</ele>
<time>2011-04-27T05:15:41Z</time>
<desc>lat.=22.130615, lon.=104.280815, Alt.=110.672913m. Speed=0.288000m/h.</desc>
<speed>0.080000</speed>
</trkpt>
<trkpt lat="22.130617" lon="104.280815">
<ele>110.752991</ele>
<time>2011-04-27T05:15:46Z</time>
<desc>lat.=22.130617, lon.=104.280815, Alt.=110.752991m. Speed=2.988000m/h.</desc>
<speed>0.830000</speed>
</trkpt>
<trkpt lat="22.130665" lon="104.280876">
<ele>110.667053</ele>
<time>2011-04-27T05:15:51Z</time>
<desc>lat.=22.130665, lon.=104.280876, Alt.=110.667053m. Speed=6.660000m/h.</desc>
<speed>1.850000</speed>
</trkpt>
<trkpt lat="22.130716" lon="104.280975">
<ele>111.094788</ele>
<time>2011-04-27T05:15:56Z</time>
<desc>lat.=22.130716, lon.=104.280975, Alt.=111.094788m. Speed=8.568000m/h.</desc>
<speed>2.380000</speed>
</trkpt>
<trkpt lat="22.130758" lon="104.281067">
<ele>111.258850</ele>
<time>2011-04-27T05:16:01Z</time>
<desc>lat.=22.130758, lon.=104.281067, Alt.=111.258850m. Speed=5.688000m/h.</desc>
<speed>1.580000</speed>
</trkpt>
<trkpt lat="22.130816" lon="104.281158">
<ele>111.040100</ele>
<time>2011-04-27T05:16:06Z</time>
<desc>lat.=22.130816, lon.=104.281158, Alt.=111.040100m. Speed=8.244000m/h.</desc>
<speed>2.290000</speed>
</trkpt>
<trkpt lat="22.130859" lon="104.281258">
<ele>109.616272</ele>
<time>2011-04-27T05:16:11Z</time>
<desc>lat.=22.130859, lon.=104.281258, Alt.=109.616272m. Speed=8.316000m/h.</desc>
<speed>2.310000</speed>
</trkpt>
<trkpt lat="22.130888" lon="104.281342">
<ele>109.034241</ele>
<time>2011-04-27T05:16:16Z</time>
<desc>lat.=22.130888, lon.=104.281342, Alt.=109.034241m. Speed=6.228000m/h.</desc>
<speed>1.730000</speed>
</trkpt>
<trkpt lat="22.130924" lon="104.281441">
<ele>108.710022</ele>
<time>2011-04-27T05:16:21Z</time>
<desc>lat.=22.130924, lon.=104.281441, Alt.=108.710022m. Speed=7.092000m/h.</desc>
<speed>1.970000</speed>
</trkpt>
<trkpt lat="22.130941" lon="104.281517">
<ele>109.170959</ele>
<time>2011-04-27T05:16:26Z</time>
<desc>lat.=22.130941, lon.=104.281517, Alt.=109.170959m. Speed=5.868000m/h.</desc>
<speed>1.630000</speed>
</trkpt>
<trkpt lat="22.130957" lon="104.281586">
<ele>108.118225</ele>
<time>2011-04-27T05:16:31Z</time>
<desc>lat.=22.130957, lon.=104.281586, Alt.=108.118225m. Speed=5.400000m/h.</desc>
<speed>1.500000</speed>
</trkpt>
<trkpt lat="22.130985" lon="104.281677">
<ele>108.577209</ele>
<time>2011-04-27T05:16:36Z</time>
<desc>lat.=22.130985, lon.=104.281677, Alt.=108.577209m. Speed=8.316000m/h.</desc>
<speed>2.310000</speed>
</trkpt>
<trkpt lat="22.130997" lon="104.281761">
<ele>108.061584</ele>
<time>2011-04-27T05:16:41Z</time>
<desc>lat.=22.130997, lon.=104.281761, Alt.=108.061584m. Speed=5.364000m/h.</desc>
<speed>1.490000</speed>
</trkpt>
<trkpt lat="22.131023" lon="104.281853">
<ele>108.485413</ele>
<time>2011-04-27T05:16:46Z</time>
<desc>lat.=22.131023, lon.=104.281853, Alt.=108.485413m. Speed=6.984000m/h.</desc>
<speed>1.940000</speed>
</trkpt>
<trkpt lat="22.131044" lon="104.281937">
<ele>110.276428</ele>
<time>2011-04-27T05:16:51Z</time>
<desc>lat.=22.131044, lon.=104.281937, Alt.=110.276428m. Speed=4.212000m/h.</desc>
<speed>1.170000</speed>
</trkpt>
<trkpt lat="22.131069" lon="104.282005">
<ele>109.903381</ele>
<time>2011-04-27T05:16:56Z</time>
<desc>lat.=22.131069, lon.=104.282005, Alt.=109.903381m. Speed=1.080000m/h.</desc>
<speed>0.300000</speed>
</trkpt>
<trkpt lat="22.131063" lon="104.281990">
<ele>109.983459</ele>
<time>2011-04-27T05:17:01Z</time>
<desc>lat.=22.131063, lon.=104.281990, Alt.=109.983459m. Speed=0.000000m/h.</desc>
<speed>0.000000</speed>
</trkpt>
<trkpt lat="22.131069" lon="104.281998">
<ele>109.956116</ele>
<time>2011-04-27T05:17:06Z</time>
<desc>lat.=22.131069, lon.=104.281998, Alt.=109.956116m. Speed=0.792000m/h.</desc>
<speed>0.220000</speed>
</trkpt>
<trkpt lat="22.131073" lon="104.282005">
<ele>109.956116</ele>
<time>2011-04-27T05:17:11Z</time>
<desc>lat.=22.131073, lon.=104.282005, Alt.=109.956116m. Speed=0.504000m/h.</desc>
<speed>0.140000</speed>
</trkpt>
<trkpt lat="22.131073" lon="104.282013">
<ele>109.954163</ele>
<time>2011-04-27T05:17:16Z</time>
<desc>lat.=22.131073, lon.=104.282013, Alt.=109.954163m. Speed=0.432000m/h.</desc>
<speed>0.120000</speed>
</trkpt>
<trkpt lat="22.131067" lon="104.282013">
<ele>109.985413</ele>
<time>2011-04-27T05:17:21Z</time>
<desc>lat.=22.131067, lon.=104.282013, Alt.=109.985413m. Speed=0.792000m/h.</desc>
<speed>0.220000</speed>
</trkpt>
<trkpt lat="22.131060" lon="104.282021">
<ele>109.981506</ele>
<time>2011-04-27T05:17:26Z</time>
<desc>lat.=22.131060, lon.=104.282021, Alt.=109.981506m. Speed=1.008000m/h.</desc>
<speed>0.280000</speed>
</trkpt>
<trkpt lat="22.131050" lon="104.282028">
<ele>109.973694</ele>
<time>2011-04-27T05:17:31Z</time>
<desc>lat.=22.131050, lon.=104.282028, Alt.=109.973694m. Speed=0.612000m/h.</desc>
<speed>0.170000</speed>
</trkpt>
<trkpt lat="22.131044" lon="104.282036">
<ele>109.965881</ele>
<time>2011-04-27T05:17:36Z</time>
<desc>lat.=22.131044, lon.=104.282036, Alt.=109.965881m. Speed=0.720000m/h.</desc>
<speed>0.200000</speed>
</trkpt>
<trkpt lat="22.131037" lon="104.282043">
<ele>109.960022</ele>
<time>2011-04-27T05:17:41Z</time>
<desc>lat.=22.131037, lon.=104.282043, Alt.=109.960022m. Speed=0.936000m/h.</desc>
<speed>0.260000</speed>
</trkpt>
<trkpt lat="22.131027" lon="104.282043">
<ele>109.954163</ele>
<time>2011-04-27T05:17:46Z</time>
<desc>lat.=22.131027, lon.=104.282043, Alt.=109.954163m. Speed=0.576000m/h.</desc>
<speed>0.160000</speed>
</trkpt>
<trkpt lat="22.131025" lon="104.282051">
<ele>109.971741</ele>
<time>2011-04-27T05:17:51Z</time>
<desc>lat.=22.131025, lon.=104.282051, Alt.=109.971741m. Speed=0.720000m/h.</desc>
<speed>0.200000</speed>
</trkpt>
<trkpt lat="22.131035" lon="104.282051">
<ele>109.963928</ele>
<time>2011-04-27T05:17:56Z</time>
<desc>lat.=22.131035, lon.=104.282051, Alt.=109.963928m. Speed=0.180000m/h.</desc>
<speed>0.050000</speed>
</trkpt>
<trkpt lat="22.131035" lon="104.282059">
<ele>109.922913</ele>
<time>2011-04-27T05:18:01Z</time>
<desc>lat.=22.131035, lon.=104.282059, Alt.=109.922913m. Speed=0.144000m/h.</desc>
<speed>0.040000</speed>
</trkpt>
<trkpt lat="22.131031" lon="104.282059">
<ele>109.877991</ele>
<time>2011-04-27T05:18:06Z</time>
<desc>lat.=22.131031, lon.=104.282059, Alt.=109.877991m. Speed=0.216000m/h.</desc>
<speed>0.060000</speed>
</trkpt>
<trkpt lat="22.131037" lon="104.282066">
<ele>109.868225</ele>
<time>2011-04-27T05:18:11Z</time>
<desc>lat.=22.131037, lon.=104.282066, Alt.=109.868225m. Speed=0.900000m/h.</desc>
<speed>0.250000</speed>
</trkpt>
<trkpt lat="22.131050" lon="104.282082">
<ele>109.545959</ele>
<time>2011-04-27T05:18:16Z</time>
<desc>lat.=22.131050, lon.=104.282082, Alt.=109.545959m. Speed=1.116000m/h.</desc>
<speed>0.310000</speed>
</trkpt>
<trkpt lat="22.131058" lon="104.282089">
<ele>109.100647</ele>
<time>2011-04-27T05:18:21Z</time>
<desc>lat.=22.131058, lon.=104.282089, Alt.=109.100647m. Speed=0.288000m/h.</desc>
<speed>0.080000</speed>
</trkpt>
<trkpt lat="22.131060" lon="104.282089">
<ele>109.086975</ele>
<time>2011-04-27T05:18:26Z</time>
<desc>lat.=22.131060, lon.=104.282089, Alt.=109.086975m. Speed=0.468000m/h.</desc>
<speed>0.130000</speed>
</trkpt>
<trkpt lat="22.131058" lon="104.282089">
<ele>109.018616</ele>
<time>2011-04-27T05:18:31Z</time>
<desc>lat.=22.131058, lon.=104.282089, Alt.=109.018616m. Speed=0.072000m/h.</desc>
<speed>0.020000</speed>
</trkpt>
<trkpt lat="22.131058" lon="104.282089">
<ele>109.012756</ele>
<time>2011-04-27T05:18:36Z</time>
<desc>lat.=22.131058, lon.=104.282089, Alt.=109.012756m. Speed=0.036000m/h.</desc>
<speed>0.010000</speed>
</trkpt>
<trkpt lat="22.131056" lon="104.282089">
<ele>108.995178</ele>
<time>2011-04-27T05:18:41Z</time>
<desc>lat.=22.131056, lon.=104.282089, Alt.=108.995178m. Speed=0.144000m/h.</desc>
<speed>0.040000</speed>
</trkpt>
<trkpt lat="22.131060" lon="104.282089">
<ele>108.911194</ele>
<time>2011-04-27T05:18:46Z</time>
<desc>lat.=22.131060, lon.=104.282089, Alt.=108.911194m. Speed=0.000000m/h.</desc>
<speed>0.000000</speed>
</trkpt>
<trkpt lat="22.131058" lon="104.282082">
<ele>108.858459</ele>
<time>2011-04-27T05:18:51Z</time>
<desc>lat.=22.131058, lon.=104.282082, Alt.=108.858459m. Speed=0.252000m/h.</desc>
<speed>0.070000</speed>
</trkpt>
<trkpt lat="22.131058" lon="104.282082">
<ele>108.836975</ele>
<time>2011-04-27T05:18:56Z</time>
<desc>lat.=22.131058, lon.=104.282082, Alt.=108.836975m. Speed=0.072000m/h.</desc>
<speed>0.020000</speed>
</trkpt>
<trkpt lat="22.131056" lon="104.282082">
<ele>108.835022</ele>
<time>2011-04-27T05:19:01Z</time>
<desc>lat.=22.131056, lon.=104.282082, Alt.=108.835022m. Speed=0.072000m/h.</desc>
<speed>0.020000</speed>
</trkpt>
<trkpt lat="22.131063" lon="104.282082">
<ele>109.045959</ele>
<time>2011-04-27T05:19:06Z</time>
<desc>lat.=22.131063, lon.=104.282082, Alt.=109.045959m. Speed=0.936000m/h.</desc>
<speed>0.260000</speed>
</trkpt>
<trkpt lat="22.131062" lon="104.282074">
<ele>109.444397</ele>
<time>2011-04-27T05:19:11Z</time>
<desc>lat.=22.131062, lon.=104.282074, Alt.=109.444397m. Speed=0.288000m/h.</desc>
<speed>0.080000</speed>
</trkpt>
<trkpt lat="22.131062" lon="104.282074">
<ele>109.432678</ele>
<time>2011-04-27T05:19:16Z</time>
<desc>lat.=22.131062, lon.=104.282074, Alt.=109.432678m. Speed=0.180000m/h.</desc>
<speed>0.050000</speed>
</trkpt>
<trkpt lat="22.131065" lon="104.282066">
<ele>109.442444</ele>
<time>2011-04-27T05:19:21Z</time>
<desc>lat.=22.131065, lon.=104.282066, Alt.=109.442444m. Speed=0.432000m/h.</desc>
<speed>0.120000</speed>
</trkpt>
<trkpt lat="22.131067" lon="104.282066">
<ele>109.448303</ele>
<time>2011-04-27T05:19:26Z</time>
<desc>lat.=22.131067, lon.=104.282066, Alt.=109.448303m. Speed=0.144000m/h.</desc>
<speed>0.040000</speed>
</trkpt>
<trkpt lat="22.131067" lon="104.282066">
<ele>109.454163</ele>
<time>2011-04-27T05:19:31Z</time>
<desc>lat.=22.131067, lon.=104.282066, Alt.=109.454163m. Speed=0.324000m/h.</desc>
<speed>0.090000</speed>
</trkpt>
<trkpt lat="22.131062" lon="104.282074">
<ele>109.428772</ele>
<time>2011-04-27T05:19:36Z</time>
<desc>lat.=22.131062, lon.=104.282074, Alt.=109.428772m. Speed=0.108000m/h.</desc>
<speed>0.030000</speed>
</trkpt>
<trkpt lat="22.131062" lon="104.282074">
<ele>109.405334</ele>
<time>2011-04-27T05:19:41Z</time>
<desc>lat.=22.131062, lon.=104.282074, Alt.=109.405334m. Speed=0.252000m/h.</desc>
<speed>0.070000</speed>
</trkpt>
<trkpt lat="22.131065" lon="104.282074">
<ele>109.393616</ele>
<time>2011-04-27T05:19:46Z</time>
<desc>lat.=22.131065, lon.=104.282074, Alt.=109.393616m. Speed=0.432000m/h.</desc>
<speed>0.120000</speed>
</trkpt>
<trkpt lat="22.131065" lon="104.282074">
<ele>109.395569</ele>
<time>2011-04-27T05:19:51Z</time>
<desc>lat.=22.131065, lon.=104.282074, Alt.=109.395569m. Speed=0.180000m/h.</desc>
<speed>0.050000</speed>
</trkpt>
<trkpt lat="22.131063" lon="104.282074">
<ele>109.397522</ele>
<time>2011-04-27T05:19:56Z</time>
<desc>lat.=22.131063, lon.=104.282074, Alt.=109.397522m. Speed=0.252000m/h.</desc>
<speed>0.070000</speed>
</trkpt>
<trkpt lat="22.131063" lon="104.282074">
<ele>109.383850</ele>
<time>2011-04-27T05:20:01Z</time>
<desc>lat.=22.131063, lon.=104.282074, Alt.=109.383850m. Speed=0.144000m/h.</desc>
<speed>0.040000</speed>
</trkpt>
<trkpt lat="22.131063" lon="104.282074">
<ele>109.356506</ele>
<time>2011-04-27T05:20:06Z</time>
<desc>lat.=22.131063, lon.=104.282074, Alt.=109.356506m. Speed=0.540000m/h.</desc>
<speed>0.150000</speed>
</trkpt>
<trkpt lat="22.131069" lon="104.282074">
<ele>109.336975</ele>
<time>2011-04-27T05:20:11Z</time>
<desc>lat.=22.131069, lon.=104.282074, Alt.=109.336975m. Speed=0.648000m/h.</desc>
<speed>0.180000</speed>
</trkpt>
<trkpt lat="22.131075" lon="104.282074">
<ele>109.372131</ele>
<time>2011-04-27T05:20:16Z</time>
<desc>lat.=22.131075, lon.=104.282074, Alt.=109.372131m. Speed=0.288000m/h.</desc>
<speed>0.080000</speed>
</trkpt>
<trkpt lat="22.131071" lon="104.282074">
<ele>109.364319</ele>
<time>2011-04-27T05:20:21Z</time>
<desc>lat.=22.131071, lon.=104.282074, Alt.=109.364319m. Speed=0.360000m/h.</desc>
<speed>0.100000</speed>
</trkpt>
<trkpt lat="22.131073" lon="104.282074">
<ele>109.379944</ele>
<time>2011-04-27T05:20:26Z</time>
<desc>lat.=22.131073, lon.=104.282074, Alt.=109.379944m. Speed=0.324000m/h.</desc>
<speed>0.090000</speed>
</trkpt>
<trkpt lat="22.131075" lon="104.282074">
<ele>109.331116</ele>
<time>2011-04-27T05:20:31Z</time>
<desc>lat.=22.131075, lon.=104.282074, Alt.=109.331116m. Speed=0.360000m/h.</desc>
<speed>0.100000</speed>
</trkpt>
<trkpt lat="22.131075" lon="104.282074">
<ele>109.292053</ele>
<time>2011-04-27T05:20:36Z</time>
<desc>lat.=22.131075, lon.=104.282074, Alt.=109.292053m. Speed=0.396000m/h.</desc>
<speed>0.110000</speed>
</trkpt>
<trkpt lat="22.131075" lon="104.282074">
<ele>109.239319</ele>
<time>2011-04-27T05:20:41Z</time>
<desc>lat.=22.131075, lon.=104.282074, Alt.=109.239319m. Speed=0.180000m/h.</desc>
<speed>0.050000</speed>
</trkpt>
<trkpt lat="22.131075" lon="104.282066">
<ele>109.196350</ele>
<time>2011-04-27T05:20:46Z</time>
<desc>lat.=22.131075, lon.=104.282066, Alt.=109.196350m. Speed=0.144000m/h.</desc>
<speed>0.040000</speed>
</trkpt>
<trkpt lat="22.131071" lon="104.282074">
<ele>109.165100</ele>
<time>2011-04-27T05:20:51Z</time>
<desc>lat.=22.131071, lon.=104.282074, Alt.=109.165100m. Speed=0.180000m/h.</desc>
<speed>0.050000</speed>
</trkpt>
<trkpt lat="22.131071" lon="104.282051">
<ele>109.165100</ele>
<time>2011-04-27T05:20:56Z</time>
<desc>lat.=22.131071, lon.=104.282051, Alt.=109.165100m. Speed=0.684000m/h.</desc>
<speed>0.190000</speed>
</trkpt>
<trkpt lat="22.131083" lon="104.282059">
<ele>109.092834</ele>
<time>2011-04-27T05:21:01Z</time>
<desc>lat.=22.131083, lon.=104.282059, Alt.=109.092834m. Speed=0.864000m/h.</desc>
<speed>0.240000</speed>
</trkpt>
<trkpt lat="22.131090" lon="104.282059">
<ele>109.127991</ele>
<time>2011-04-27T05:21:06Z</time>
<desc>lat.=22.131090, lon.=104.282059, Alt.=109.127991m. Speed=0.540000m/h.</desc>
<speed>0.150000</speed>
</trkpt>
<trkpt lat="22.131092" lon="104.282059">
<ele>109.155334</ele>
<time>2011-04-27T05:21:11Z</time>
<desc>lat.=22.131092, lon.=104.282059, Alt.=109.155334m. Speed=0.288000m/h.</desc>
<speed>0.080000</speed>
</trkpt>
<trkpt lat="22.131081" lon="104.282059">
<ele>109.094788</ele>
<time>2011-04-27T05:21:16Z</time>
<desc>lat.=22.131081, lon.=104.282059, Alt.=109.094788m. Speed=0.360000m/h.</desc>
<speed>0.100000</speed>
</trkpt>
<trkpt lat="22.131088" lon="104.282066">
<ele>109.356506</ele>
<time>2011-04-27T05:21:21Z</time>
<desc>lat.=22.131088, lon.=104.282066, Alt.=109.356506m. Speed=0.396000m/h.</desc>
<speed>0.110000</speed>
</trkpt>
<trkpt lat="22.131092" lon="104.282074">
<ele>109.295959</ele>
<time>2011-04-27T05:21:26Z</time>
<desc>lat.=22.131092, lon.=104.282074, Alt.=109.295959m. Speed=0.612000m/h.</desc>
<speed>0.170000</speed>
</trkpt>
<trkpt lat="22.131100" lon="104.282082">
<ele>109.305725</ele>
<time>2011-04-27T05:21:31Z</time>
<desc>lat.=22.131100, lon.=104.282082, Alt.=109.305725m. Speed=1.116000m/h.</desc>
<speed>0.310000</speed>
</trkpt>
<trkpt lat="22.131104" lon="104.282089">
<ele>109.251038</ele>
<time>2011-04-27T05:21:36Z</time>
<desc>lat.=22.131104, lon.=104.282089, Alt.=109.251038m. Speed=0.000000m/h.</desc>
<speed>0.000000</speed>
</trkpt>
<trkpt lat="22.131104" lon="104.282089">
<ele>109.235413</ele>
<time>2011-04-27T05:21:41Z</time>
<desc>lat.=22.131104, lon.=104.282089, Alt.=109.235413m. Speed=0.144000m/h.</desc>
<speed>0.040000</speed>
</trkpt>
<trkpt lat="22.131105" lon="104.282089">
<ele>109.311584</ele>
<time>2011-04-27T05:21:46Z</time>
<desc>lat.=22.131105, lon.=104.282089, Alt.=109.311584m. Speed=0.180000m/h.</desc>
<speed>0.050000</speed>
</trkpt>
<trkpt lat="22.131105" lon="104.282089">
<ele>109.356506</ele>
<time>2011-04-27T05:21:51Z</time>
<desc>lat.=22.131105, lon.=104.282089, Alt.=109.356506m. Speed=0.036000m/h.</desc>
<speed>0.010000</speed>
</trkpt>
<trkpt lat="22.131105" lon="104.282089">
<ele>109.346741</ele>
<time>2011-04-27T05:21:56Z</time>
<desc>lat.=22.131105, lon.=104.282089, Alt.=109.346741m. Speed=0.072000m/h.</desc>
<speed>0.020000</speed>
</trkpt>
<trkpt lat="22.131105" lon="104.282089">
<ele>109.348694</ele>
<time>2011-04-27T05:22:01Z</time>
<desc>lat.=22.131105, lon.=104.282089, Alt.=109.348694m. Speed=0.216000m/h.</desc>
<speed>0.060000</speed>
</trkpt>
<trkpt lat="22.131102" lon="104.282104">
<ele>109.323303</ele>
<time>2011-04-27T05:22:06Z</time>
<desc>lat.=22.131102, lon.=104.282104, Alt.=109.323303m. Speed=2.016000m/h.</desc>
<speed>0.560000</speed>
</trkpt>
<trkpt lat="22.131163" lon="104.282135">
<ele>110.030334</ele>
<time>2011-04-27T05:22:11Z</time>
<desc>lat.=22.131163, lon.=104.282135, Alt.=110.030334m. Speed=3.204000m/h.</desc>
<speed>0.890000</speed>
</trkpt>
<trkpt lat="22.131226" lon="104.282211">
<ele>110.799866</ele>
<time>2011-04-27T05:22:16Z</time>
<desc>lat.=22.131226, lon.=104.282211, Alt.=110.799866m. Speed=6.012000m/h.</desc>
<speed>1.670000</speed>
</trkpt>
<trkpt lat="22.131302" lon="104.282295">
<ele>111.626038</ele>
<time>2011-04-27T05:22:21Z</time>
<desc>lat.=22.131302, lon.=104.282295, Alt.=111.626038m. Speed=8.676000m/h.</desc>
<speed>2.410000</speed>
</trkpt>
<trkpt lat="22.131359" lon="104.282356">
<ele>111.627991</ele>
<time>2011-04-27T05:22:26Z</time>
<desc>lat.=22.131359, lon.=104.282356, Alt.=111.627991m. Speed=6.984000m/h.</desc>
<speed>1.940000</speed>
</trkpt>
<trkpt lat="22.131433" lon="104.282433">
<ele>111.948303</ele>
<time>2011-04-27T05:22:31Z</time>
<desc>lat.=22.131433, lon.=104.282433, Alt.=111.948303m. Speed=8.640000m/h.</desc>
<speed>2.400000</speed>
</trkpt>
<trkpt lat="22.131510" lon="104.282516">
<ele>112.198303</ele>
<time>2011-04-27T05:22:36Z</time>
<desc>lat.=22.131510, lon.=104.282516, Alt.=112.198303m. Speed=5.688000m/h.</desc>
<speed>1.580000</speed>
</trkpt>
<trkpt lat="22.131578" lon="104.282585">
<ele>112.126038</ele>
<time>2011-04-27T05:22:41Z</time>
<desc>lat.=22.131578, lon.=104.282585, Alt.=112.126038m. Speed=8.064000m/h.</desc>
<speed>2.240000</speed>
</trkpt>
<trkpt lat="22.131643" lon="104.282661">
<ele>111.969788</ele>
<time>2011-04-27T05:22:46Z</time>
<desc>lat.=22.131643, lon.=104.282661, Alt.=111.969788m. Speed=9.108000m/h.</desc>
<speed>2.530000</speed>
</trkpt>
<trkpt lat="22.131735" lon="104.282761">
<ele>111.567444</ele>
<time>2011-04-27T05:22:51Z</time>
<desc>lat.=22.131735, lon.=104.282761, Alt.=111.567444m. Speed=9.468000m/h.</desc>
<speed>2.630000</speed>
</trkpt>
<trkpt lat="22.131807" lon="104.282845">
<ele>110.967834</ele>
<time>2011-04-27T05:22:56Z</time>
<desc>lat.=22.131807, lon.=104.282845, Alt.=110.967834m. Speed=7.848000m/h.</desc>
<speed>2.180000</speed>
</trkpt>
<trkpt lat="22.131886" lon="104.282928">
<ele>110.114319</ele>
<time>2011-04-27T05:23:01Z</time>
<desc>lat.=22.131886, lon.=104.282928, Alt.=110.114319m. Speed=9.792000m/h.</desc>
<speed>2.720000</speed>
</trkpt>
<trkpt lat="22.131969" lon="104.283028">
<ele>109.172913</ele>
<time>2011-04-27T05:23:06Z</time>
<desc>lat.=22.131969, lon.=104.283028, Alt.=109.172913m. Speed=10.728000m/h.</desc>
<speed>2.980000</speed>
</trkpt>
<trkpt lat="22.132067" lon="104.283150">
<ele>108.227600</ele>
<time>2011-04-27T05:23:11Z</time>
<desc>lat.=22.132067, lon.=104.283150, Alt.=108.227600m. Speed=7.308000m/h.</desc>
<speed>2.030000</speed>
</trkpt>
<trkpt lat="22.132113" lon="104.283211">
<ele>107.475647</ele>
<time>2011-04-27T05:23:16Z</time>
<desc>lat.=22.132113, lon.=104.283211, Alt.=107.475647m. Speed=1.512000m/h.</desc>
<speed>0.420000</speed>
</trkpt>
<trkpt lat="22.132162" lon="104.283264">
<ele>107.180725</ele>
<time>2011-04-27T05:23:21Z</time>
<desc>lat.=22.132162, lon.=104.283264, Alt.=107.180725m. Speed=1.980000m/h.</desc>
<speed>0.550000</speed>
</trkpt>
<trkpt lat="22.132206" lon="104.283310">
<ele>107.581116</ele>
<time>2011-04-27T05:23:26Z</time>
<desc>lat.=22.132206, lon.=104.283310, Alt.=107.581116m. Speed=3.960000m/h.</desc>
<speed>1.100000</speed>
</trkpt>
<trkpt lat="22.132263" lon="104.283348">
<ele>108.225647</ele>
<time>2011-04-27T05:23:31Z</time>
<desc>lat.=22.132263, lon.=104.283348, Alt.=108.225647m. Speed=3.708000m/h.</desc>
<speed>1.030000</speed>
</trkpt>
<trkpt lat="22.132303" lon="104.283379">
<ele>109.284241</ele>
<time>2011-04-27T05:23:36Z</time>
<desc>lat.=22.132303, lon.=104.283379, Alt.=109.284241m. Speed=4.464000m/h.</desc>
<speed>1.240000</speed>
</trkpt>
<trkpt lat="22.132318" lon="104.283409">
<ele>110.452209</ele>
<time>2011-04-27T05:23:41Z</time>
<desc>lat.=22.132318, lon.=104.283409, Alt.=110.452209m. Speed=1.908000m/h.</desc>
<speed>0.530000</speed>
</trkpt>
<trkpt lat="22.132357" lon="104.283463">
<ele>111.782288</ele>
<time>2011-04-27T05:23:46Z</time>
<desc>lat.=22.132357, lon.=104.283463, Alt.=111.782288m. Speed=2.052000m/h.</desc>
<speed>0.570000</speed>
</trkpt>
<trkpt lat="22.132378" lon="104.283501">
<ele>113.131897</ele>
<time>2011-04-27T05:23:51Z</time>
<desc>lat.=22.132378, lon.=104.283501, Alt.=113.131897m. Speed=2.340000m/h.</desc>
<speed>0.650000</speed>
</trkpt>
<trkpt lat="22.132423" lon="104.283569">
<ele>114.188538</ele>
<time>2011-04-27T05:23:56Z</time>
<desc>lat.=22.132423, lon.=104.283569, Alt.=114.188538m. Speed=4.680000m/h.</desc>
<speed>1.300000</speed>
</trkpt>
<trkpt lat="22.132444" lon="104.283600">
<ele>115.458069</ele>
<time>2011-04-27T05:24:01Z</time>
<desc>lat.=22.132444, lon.=104.283600, Alt.=115.458069m. Speed=1.152000m/h.</desc>
<speed>0.320000</speed>
</trkpt>
<trkpt lat="22.132473" lon="104.283661">
<ele>117.016663</ele>
<time>2011-04-27T05:24:06Z</time>
<desc>lat.=22.132473, lon.=104.283661, Alt.=117.016663m. Speed=1.620000m/h.</desc>
<speed>0.450000</speed>
</trkpt>
<trkpt lat="22.132519" lon="104.283752">
<ele>118.247131</ele>
<time>2011-04-27T05:24:11Z</time>
<desc>lat.=22.132519, lon.=104.283752, Alt.=118.247131m. Speed=7.020000m/h.</desc>
<speed>1.950000</speed>
</trkpt>
<trkpt lat="22.132502" lon="104.283836">
<ele>117.803772</ele>
<time>2011-04-27T05:24:16Z</time>
<desc>lat.=22.132502, lon.=104.283836, Alt.=117.803772m. Speed=6.840000m/h.</desc>
<speed>1.900000</speed>
</trkpt>
<trkpt lat="22.132500" lon="104.283890">
<ele>116.661194</ele>
<time>2011-04-27T05:24:21Z</time>
<desc>lat.=22.132500, lon.=104.283890, Alt.=116.661194m. Speed=2.592000m/h.</desc>
<speed>0.720000</speed>
</trkpt>
<trkpt lat="22.132502" lon="104.283928">
<ele>116.477600</ele>
<time>2011-04-27T05:24:26Z</time>
<desc>lat.=22.132502, lon.=104.283928, Alt.=116.477600m. Speed=1.800000m/h.</desc>
<speed>0.500000</speed>
</trkpt>
<trkpt lat="22.132494" lon="104.283989">
<ele>114.391663</ele>
<time>2011-04-27T05:24:31Z</time>
<desc>lat.=22.132494, lon.=104.283989, Alt.=114.391663m. Speed=6.948000m/h.</desc>
<speed>1.930000</speed>
</trkpt>
<trkpt lat="22.132479" lon="104.284065">
<ele>113.321350</ele>
<time>2011-04-27T05:24:36Z</time>
<desc>lat.=22.132479, lon.=104.284065, Alt.=113.321350m. Speed=6.660000m/h.</desc>
<speed>1.850000</speed>
</trkpt>
<trkpt lat="22.132492" lon="104.284164">
<ele>111.864319</ele>
<time>2011-04-27T05:24:41Z</time>
<desc>lat.=22.132492, lon.=104.284164, Alt.=111.864319m. Speed=8.064000m/h.</desc>
<speed>2.240000</speed>
</trkpt>
<trkpt lat="22.132507" lon="104.284256">
<ele>111.178772</ele>
<time>2011-04-27T05:24:46Z</time>
<desc>lat.=22.132507, lon.=104.284256, Alt.=111.178772m. Speed=5.652000m/h.</desc>
<speed>1.570000</speed>
</trkpt>
<trkpt lat="22.132507" lon="104.284332">
<ele>111.116272</ele>
<time>2011-04-27T05:24:51Z</time>
<desc>lat.=22.132507, lon.=104.284332, Alt.=111.116272m. Speed=5.580000m/h.</desc>
<speed>1.550000</speed>
</trkpt>
<trkpt lat="22.132523" lon="104.284401">
<ele>113.085022</ele>
<time>2011-04-27T05:24:56Z</time>
<desc>lat.=22.132523, lon.=104.284401, Alt.=113.085022m. Speed=2.592000m/h.</desc>
<speed>0.720000</speed>
</trkpt>
<trkpt lat="22.132549" lon="104.284470">
<ele>114.292053</ele>
<time>2011-04-27T05:25:01Z</time>
<desc>lat.=22.132549, lon.=104.284470, Alt.=114.292053m. Speed=5.256000m/h.</desc>
<speed>1.460000</speed>
</trkpt>
<trkpt lat="22.132578" lon="104.284546">
<ele>115.237366</ele>
<time>2011-04-27T05:25:06Z</time>
<desc>lat.=22.132578, lon.=104.284546, Alt.=115.237366m. Speed=5.940000m/h.</desc>
<speed>1.650000</speed>
</trkpt>
<trkpt lat="22.132624" lon="104.284637">
<ele>115.061584</ele>
<time>2011-04-27T05:25:11Z</time>
<desc>lat.=22.132624, lon.=104.284637, Alt.=115.061584m. Speed=8.028000m/h.</desc>
<speed>2.230000</speed>
</trkpt>
<trkpt lat="22.132675" lon="104.284714">
<ele>115.913147</ele>
<time>2011-04-27T05:25:16Z</time>
<desc>lat.=22.132675, lon.=104.284714, Alt.=115.913147m. Speed=8.208000m/h.</desc>
<speed>2.280000</speed>
</trkpt>
<trkpt lat="22.132736" lon="104.284813">
<ele>115.946350</ele>
<time>2011-04-27T05:25:21Z</time>
<desc>lat.=22.132736, lon.=104.284813, Alt.=115.946350m. Speed=7.956000m/h.</desc>
<speed>2.210000</speed>
</trkpt>
<trkpt lat="22.132782" lon="104.284904">
<ele>117.077209</ele>
<time>2011-04-27T05:25:26Z</time>
<desc>lat.=22.132782, lon.=104.284904, Alt.=117.077209m. Speed=6.300000m/h.</desc>
<speed>1.750000</speed>
</trkpt>
<trkpt lat="22.132856" lon="104.284981">
<ele>117.256897</ele>
<time>2011-04-27T05:25:31Z</time>
<desc>lat.=22.132856, lon.=104.284981, Alt.=117.256897m. Speed=10.008000m/h.</desc>
<speed>2.780000</speed>
</trkpt>
<trkpt lat="22.132917" lon="104.285057">
<ele>117.362366</ele>
<time>2011-04-27T05:25:36Z</time>
<desc>lat.=22.132917, lon.=104.285057, Alt.=117.362366m. Speed=7.344000m/h.</desc>
<speed>2.040000</speed>
</trkpt>
<trkpt lat="22.132975" lon="104.285110">
<ele>117.624084</ele>
<time>2011-04-27T05:25:41Z</time>
<desc>lat.=22.132975, lon.=104.285110, Alt.=117.624084m. Speed=7.452000m/h.</desc>
<speed>2.070000</speed>
</trkpt>
<trkpt lat="22.133028" lon="104.285149">
<ele>117.612366</ele>
<time>2011-04-27T05:25:46Z</time>
<desc>lat.=22.133028, lon.=104.285149, Alt.=117.612366m. Speed=4.608000m/h.</desc>
<speed>1.280000</speed>
</trkpt>
<trkpt lat="22.133076" lon="104.285202">
<ele>117.993225</ele>
<time>2011-04-27T05:25:51Z</time>
<desc>lat.=22.133076, lon.=104.285202, Alt.=117.993225m. Speed=5.292000m/h.</desc>
<speed>1.470000</speed>
</trkpt>
<trkpt lat="22.133135" lon="104.285255">
<ele>117.469788</ele>
<time>2011-04-27T05:25:56Z</time>
<desc>lat.=22.133135, lon.=104.285255, Alt.=117.469788m. Speed=5.472000m/h.</desc>
<speed>1.520000</speed>
</trkpt>
<trkpt lat="22.133209" lon="104.285324">
<ele>117.573303</ele>
<time>2011-04-27T05:26:01Z</time>
<desc>lat.=22.133209, lon.=104.285324, Alt.=117.573303m. Speed=5.796000m/h.</desc>
<speed>1.610000</speed>
</trkpt>
<trkpt lat="22.133266" lon="104.285408">
<ele>117.303772</ele>
<time>2011-04-27T05:26:06Z</time>
<desc>lat.=22.133266, lon.=104.285408, Alt.=117.303772m. Speed=6.516000m/h.</desc>
<speed>1.810000</speed>
</trkpt>
<trkpt lat="22.133362" lon="104.285484">
<ele>117.167053</ele>
<time>2011-04-27T05:26:11Z</time>
<desc>lat.=22.133362, lon.=104.285484, Alt.=117.167053m. Speed=8.496000m/h.</desc>
<speed>2.360000</speed>
</trkpt>
<trkpt lat="22.133453" lon="104.285553">
<ele>116.458069</ele>
<time>2011-04-27T05:26:16Z</time>
<desc>lat.=22.133453, lon.=104.285553, Alt.=116.458069m. Speed=11.124000m/h.</desc>
<speed>3.090000</speed>
</trkpt>
<trkpt lat="22.133602" lon="104.285645">
<ele>115.430725</ele>
<time>2011-04-27T05:26:21Z</time>
<desc>lat.=22.133602, lon.=104.285645, Alt.=115.430725m. Speed=16.164000m/h.</desc>
<speed>4.490000</speed>
</trkpt>
<trkpt lat="22.133778" lon="104.285744">
<ele>112.016663</ele>
<time>2011-04-27T05:26:26Z</time>
<desc>lat.=22.133778, lon.=104.285744, Alt.=112.016663m. Speed=17.172001m/h.</desc>
<speed>4.770000</speed>
</trkpt>
<trkpt lat="22.133976" lon="104.285904">
<ele>108.354553</ele>
<time>2011-04-27T05:26:31Z</time>
<desc>lat.=22.133976, lon.=104.285904, Alt.=108.354553m. Speed=19.224001m/h.</desc>
<speed>5.340000</speed>
</trkpt>
<trkpt lat="22.134117" lon="104.286095">
<ele>105.356506</ele>
<time>2011-04-27T05:26:36Z</time>
<desc>lat.=22.134117, lon.=104.286095, Alt.=105.356506m. Speed=18.072001m/h.</desc>
<speed>5.020000</speed>
</trkpt>
<trkpt lat="22.134205" lon="104.286339">
<ele>102.237366</ele>
<time>2011-04-27T05:26:41Z</time>
<desc>lat.=22.134205, lon.=104.286339, Alt.=102.237366m. Speed=19.872000m/h.</desc>
<speed>5.520000</speed>
</trkpt>
<trkpt lat="22.134199" lon="104.286644">
<ele>100.131897</ele>
<time>2011-04-27T05:26:46Z</time>
<desc>lat.=22.134199, lon.=104.286644, Alt.=100.131897m. Speed=22.104000m/h.</desc>
<speed>6.140000</speed>
</trkpt>
<trkpt lat="22.134071" lon="104.286926">
<ele>99.544006</ele>
<time>2011-04-27T05:26:51Z</time>
<desc>lat.=22.134071, lon.=104.286926, Alt.=99.544006m. Speed=22.716000m/h.</desc>
<speed>6.310000</speed>
</trkpt>
<trkpt lat="22.133871" lon="104.287140">
<ele>99.438538</ele>
<time>2011-04-27T05:26:56Z</time>
<desc>lat.=22.133871, lon.=104.287140, Alt.=99.438538m. Speed=22.427999m/h.</desc>
<speed>6.230000</speed>
</trkpt>
<trkpt lat="22.133677" lon="104.287338">
<ele>101.182678</ele>
<time>2011-04-27T05:27:01Z</time>
<desc>lat.=22.133677, lon.=104.287338, Alt.=101.182678m. Speed=19.799999m/h.</desc>
<speed>5.500000</speed>
</trkpt>
<trkpt lat="22.133535" lon="104.287498">
<ele>103.169006</ele>
<time>2011-04-27T05:27:06Z</time>
<desc>lat.=22.133535, lon.=104.287498, Alt.=103.169006m. Speed=12.312000m/h.</desc>
<speed>3.420000</speed>
</trkpt>
<trkpt lat="22.133467" lon="104.287605">
<ele>102.733459</ele>
<time>2011-04-27T05:27:11Z</time>
<desc>lat.=22.133467, lon.=104.287605, Alt.=102.733459m. Speed=7.308000m/h.</desc>
<speed>2.030000</speed>
</trkpt>
<trkpt lat="22.133429" lon="104.287689">
<ele>103.577209</ele>
<time>2011-04-27T05:27:16Z</time>
<desc>lat.=22.133429, lon.=104.287689, Alt.=103.577209m. Speed=6.192000m/h.</desc>
<speed>1.720000</speed>
</trkpt>
<trkpt lat="22.133352" lon="104.287758">
<ele>102.215881</ele>
<time>2011-04-27T05:27:21Z</time>
<desc>lat.=22.133352, lon.=104.287758, Alt.=102.215881m. Speed=7.164000m/h.</desc>
<speed>1.990000</speed>
</trkpt>
<trkpt lat="22.133301" lon="104.287849">
<ele>100.745178</ele>
<time>2011-04-27T05:27:26Z</time>
<desc>lat.=22.133301, lon.=104.287849, Alt.=100.745178m. Speed=7.056000m/h.</desc>
<speed>1.960000</speed>
</trkpt>
<trkpt lat="22.133261" lon="104.287926">
<ele>101.297913</ele>
<time>2011-04-27T05:27:31Z</time>
<desc>lat.=22.133261, lon.=104.287926, Alt.=101.297913m. Speed=5.112000m/h.</desc>
<speed>1.420000</speed>
</trkpt>
<trkpt lat="22.133209" lon="104.288017">
<ele>101.954163</ele>
<time>2011-04-27T05:27:36Z</time>
<desc>lat.=22.133209, lon.=104.288017, Alt.=101.954163m. Speed=7.236000m/h.</desc>
<speed>2.010000</speed>
</trkpt>
<trkpt lat="22.133146" lon="104.288086">
<ele>101.887756</ele>
<time>2011-04-27T05:27:41Z</time>
<desc>lat.=22.133146, lon.=104.288086, Alt.=101.887756m. Speed=5.688000m/h.</desc>
<speed>1.580000</speed>
</trkpt>
<trkpt lat="22.133093" lon="104.288132">
<ele>102.284241</ele>
<time>2011-04-27T05:27:46Z</time>
<desc>lat.=22.133093, lon.=104.288132, Alt.=102.284241m. Speed=4.644000m/h.</desc>
<speed>1.290000</speed>
</trkpt>
<trkpt lat="22.133045" lon="104.288177">
<ele>100.799866</ele>
<time>2011-04-27T05:27:51Z</time>
<desc>lat.=22.133045, lon.=104.288177, Alt.=100.799866m. Speed=6.552000m/h.</desc>
<speed>1.820000</speed>
</trkpt>
<trkpt lat="22.132992" lon="104.288246">
<ele>100.758850</ele>
<time>2011-04-27T05:27:56Z</time>
<desc>lat.=22.132992, lon.=104.288246, Alt.=100.758850m. Speed=3.708000m/h.</desc>
<speed>1.030000</speed>
</trkpt>
<trkpt lat="22.132915" lon="104.288315">
<ele>100.497131</ele>
<time>2011-04-27T05:28:01Z</time>
<desc>lat.=22.132915, lon.=104.288315, Alt.=100.497131m. Speed=5.688000m/h.</desc>
<speed>1.580000</speed>
</trkpt>
<trkpt lat="22.132862" lon="104.288361">
<ele>100.704163</ele>
<time>2011-04-27T05:28:06Z</time>
<desc>lat.=22.132862, lon.=104.288361, Alt.=100.704163m. Speed=6.192000m/h.</desc>
<speed>1.720000</speed>
</trkpt>
<trkpt lat="22.132832" lon="104.288422">
<ele>100.419006</ele>
<time>2011-04-27T05:28:11Z</time>
<desc>lat.=22.132832, lon.=104.288422, Alt.=100.419006m. Speed=7.776000m/h.</desc>
<speed>2.160000</speed>
</trkpt>
<trkpt lat="22.132780" lon="104.288521">
<ele>102.389709</ele>
<time>2011-04-27T05:28:16Z</time>
<desc>lat.=22.132780, lon.=104.288521, Alt.=102.389709m. Speed=8.388000m/h.</desc>
<speed>2.330000</speed>
</trkpt>
<trkpt lat="22.132746" lon="104.288612">
<ele>103.633850</ele>
<time>2011-04-27T05:28:21Z</time>
<desc>lat.=22.132746, lon.=104.288612, Alt.=103.633850m. Speed=8.712000m/h.</desc>
<speed>2.420000</speed>
</trkpt>
<trkpt lat="22.132729" lon="104.288750">
<ele>106.534241</ele>
<time>2011-04-27T05:28:26Z</time>
<desc>lat.=22.132729, lon.=104.288750, Alt.=106.534241m. Speed=10.368000m/h.</desc>
<speed>2.880000</speed>
</trkpt>
<trkpt lat="22.132736" lon="104.288895">
<ele>107.835022</ele>
<time>2011-04-27T05:28:31Z</time>
<desc>lat.=22.132736, lon.=104.288895, Alt.=107.835022m. Speed=11.880000m/h.</desc>
<speed>3.300000</speed>
</trkpt>
<trkpt lat="22.132751" lon="104.289055">
<ele>108.559631</ele>
<time>2011-04-27T05:28:36Z</time>
<desc>lat.=22.132751, lon.=104.289055, Alt.=108.559631m. Speed=11.772000m/h.</desc>
<speed>3.270000</speed>
</trkpt>
<trkpt lat="22.132761" lon="104.289223">
<ele>110.467834</ele>
<time>2011-04-27T05:28:41Z</time>
<desc>lat.=22.132761, lon.=104.289223, Alt.=110.467834m. Speed=13.968000m/h.</desc>
<speed>3.880000</speed>
</trkpt>
<trkpt lat="22.132742" lon="104.289391">
<ele>111.608459</ele>
<time>2011-04-27T05:28:46Z</time>
<desc>lat.=22.132742, lon.=104.289391, Alt.=111.608459m. Speed=12.960000m/h.</desc>
<speed>3.600000</speed>
</trkpt>
<trkpt lat="22.132729" lon="104.289558">
<ele>114.487366</ele>
<time>2011-04-27T05:28:51Z</time>
<desc>lat.=22.132729, lon.=104.289558, Alt.=114.487366m. Speed=11.556000m/h.</desc>
<speed>3.210000</speed>
</trkpt>
<trkpt lat="22.132692" lon="104.289726">
<ele>115.770569</ele>
<time>2011-04-27T05:28:56Z</time>
<desc>lat.=22.132692, lon.=104.289726, Alt.=115.770569m. Speed=11.268000m/h.</desc>
<speed>3.130000</speed>
</trkpt>
<trkpt lat="22.132629" lon="104.289856">
<ele>115.649475</ele>
<time>2011-04-27T05:29:01Z</time>
<desc>lat.=22.132629, lon.=104.289856, Alt.=115.649475m. Speed=9.972000m/h.</desc>
<speed>2.770000</speed>
</trkpt>
<trkpt lat="22.132582" lon="104.289986">
<ele>117.325256</ele>
<time>2011-04-27T05:29:06Z</time>
<desc>lat.=22.132582, lon.=104.289986, Alt.=117.325256m. Speed=9.648000m/h.</desc>
<speed>2.680000</speed>
</trkpt>
<trkpt lat="22.132521" lon="104.290131">
<ele>119.717834</ele>
<time>2011-04-27T05:29:11Z</time>
<desc>lat.=22.132521, lon.=104.290131, Alt.=119.717834m. Speed=10.944000m/h.</desc>
<speed>3.040000</speed>
</trkpt>
<trkpt lat="22.132462" lon="104.290268">
<ele>121.571350</ele>
<time>2011-04-27T05:29:16Z</time>
<desc>lat.=22.132462, lon.=104.290268, Alt.=121.571350m. Speed=11.196000m/h.</desc>
<speed>3.110000</speed>
</trkpt>
<trkpt lat="22.132397" lon="104.290421">
<ele>123.161194</ele>
<time>2011-04-27T05:29:21Z</time>
<desc>lat.=22.132397, lon.=104.290421, Alt.=123.161194m. Speed=13.248000m/h.</desc>
<speed>3.680000</speed>
</trkpt>
<trkpt lat="22.132381" lon="104.290550">
<ele>124.036194</ele>
<time>2011-04-27T05:29:26Z</time>
<desc>lat.=22.132381, lon.=104.290550, Alt.=124.036194m. Speed=6.336000m/h.</desc>
<speed>1.760000</speed>
</trkpt>
<trkpt lat="22.132458" lon="104.290657">
<ele>118.151428</ele>
<time>2011-04-27T05:29:31Z</time>
<desc>lat.=22.132458, lon.=104.290657, Alt.=118.151428m. Speed=9.324000m/h.</desc>
<speed>2.590000</speed>
</trkpt>
<trkpt lat="22.132547" lon="104.290771">
<ele>113.967834</ele>
<time>2011-04-27T05:29:36Z</time>
<desc>lat.=22.132547, lon.=104.290771, Alt.=113.967834m. Speed=7.884000m/h.</desc>
<speed>2.190000</speed>
</trkpt>
<trkpt lat="22.132648" lon="104.290871">
<ele>111.963928</ele>
<time>2011-04-27T05:29:41Z</time>
<desc>lat.=22.132648, lon.=104.290871, Alt.=111.963928m. Speed=10.656000m/h.</desc>
<speed>2.960000</speed>
</trkpt>
<trkpt lat="22.132692" lon="104.290993">
<ele>111.165100</ele>
<time>2011-04-27T05:29:46Z</time>
<desc>lat.=22.132692, lon.=104.290993, Alt.=111.165100m. Speed=9.360000m/h.</desc>
<speed>2.600000</speed>
</trkpt>
<trkpt lat="22.132696" lon="104.291122">
<ele>111.051819</ele>
<time>2011-04-27T05:29:51Z</time>
<desc>lat.=22.132696, lon.=104.291122, Alt.=111.051819m. Speed=7.992000m/h.</desc>
<speed>2.220000</speed>
</trkpt>
<trkpt lat="22.132687" lon="104.291229">
<ele>110.922913</ele>
<time>2011-04-27T05:29:56Z</time>
<desc>lat.=22.132687, lon.=104.291229, Alt.=110.922913m. Speed=7.092000m/h.</desc>
<speed>1.970000</speed>
</trkpt>
<trkpt lat="22.132656" lon="104.291351">
<ele>111.598694</ele>
<time>2011-04-27T05:30:01Z</time>
<desc>lat.=22.132656, lon.=104.291351, Alt.=111.598694m. Speed=5.832000m/h.</desc>
<speed>1.620000</speed>
</trkpt>
<trkpt lat="22.132631" lon="104.291458">
<ele>112.006897</ele>
<time>2011-04-27T05:30:06Z</time>
<desc>lat.=22.132631, lon.=104.291458, Alt.=112.006897m. Speed=6.480000m/h.</desc>
<speed>1.800000</speed>
</trkpt>
<trkpt lat="22.132629" lon="104.291534">
<ele>112.456116</ele>
<time>2011-04-27T05:30:11Z</time>
<desc>lat.=22.132629, lon.=104.291534, Alt.=112.456116m. Speed=6.084000m/h.</desc>
<speed>1.690000</speed>
</trkpt>
<trkpt lat="22.132616" lon="104.291626">
<ele>111.008850</ele>
<time>2011-04-27T05:30:16Z</time>
<desc>lat.=22.132616, lon.=104.291626, Alt.=111.008850m. Speed=8.856000m/h.</desc>
<speed>2.460000</speed>
</trkpt>
<trkpt lat="22.132627" lon="104.291725">
<ele>109.536194</ele>
<time>2011-04-27T05:30:21Z</time>
<desc>lat.=22.132627, lon.=104.291725, Alt.=109.536194m. Speed=4.824000m/h.</desc>
<speed>1.340000</speed>
</trkpt>
<trkpt lat="22.132635" lon="104.291801">
<ele>109.151428</ele>
<time>2011-04-27T05:30:26Z</time>
<desc>lat.=22.132635, lon.=104.291801, Alt.=109.151428m. Speed=7.056000m/h.</desc>
<speed>1.960000</speed>
</trkpt>
<trkpt lat="22.132666" lon="104.291924">
<ele>109.012756</ele>
<time>2011-04-27T05:30:31Z</time>
<desc>lat.=22.132666, lon.=104.291924, Alt.=109.012756m. Speed=9.468000m/h.</desc>
<speed>2.630000</speed>
</trkpt>
<trkpt lat="22.132727" lon="104.292030">
<ele>109.997131</ele>
<time>2011-04-27T05:30:36Z</time>
<desc>lat.=22.132727, lon.=104.292030, Alt.=109.997131m. Speed=10.404000m/h.</desc>
<speed>2.890000</speed>
</trkpt>
<trkpt lat="22.132797" lon="104.292183">
<ele>111.704163</ele>
<time>2011-04-27T05:30:41Z</time>
<desc>lat.=22.132797, lon.=104.292183, Alt.=111.704163m. Speed=11.268000m/h.</desc>
<speed>3.130000</speed>
</trkpt>
<trkpt lat="22.132839" lon="104.292336">
<ele>113.700256</ele>
<time>2011-04-27T05:30:46Z</time>
<desc>lat.=22.132839, lon.=104.292336, Alt.=113.700256m. Speed=12.708000m/h.</desc>
<speed>3.530000</speed>
</trkpt>
<trkpt lat="22.132927" lon="104.292503">
<ele>114.264709</ele>
<time>2011-04-27T05:30:51Z</time>
<desc>lat.=22.132927, lon.=104.292503, Alt.=114.264709m. Speed=13.968000m/h.</desc>
<speed>3.880000</speed>
</trkpt>
<trkpt lat="22.132965" lon="104.292725">
<ele>114.594788</ele>
<time>2011-04-27T05:30:56Z</time>
<desc>lat.=22.132965, lon.=104.292725, Alt.=114.594788m. Speed=17.172001m/h.</desc>
<speed>4.770000</speed>
</trkpt>
<trkpt lat="22.132963" lon="104.292992">
<ele>115.600647</ele>
<time>2011-04-27T05:31:01Z</time>
<desc>lat.=22.132963, lon.=104.292992, Alt.=115.600647m. Speed=19.007999m/h.</desc>
<speed>5.280000</speed>
</trkpt>
<trkpt lat="22.133013" lon="104.293289">
<ele>115.430725</ele>
<time>2011-04-27T05:31:06Z</time>
<desc>lat.=22.133013, lon.=104.293289, Alt.=115.430725m. Speed=22.139999m/h.</desc>
<speed>6.150000</speed>
</trkpt>
<trkpt lat="22.133062" lon="104.293594">
<ele>113.932678</ele>
<time>2011-04-27T05:31:11Z</time>
<desc>lat.=22.133062, lon.=104.293594, Alt.=113.932678m. Speed=22.427999m/h.</desc>
<speed>6.230000</speed>
</trkpt>
<trkpt lat="22.133022" lon="104.293808">
<ele>114.393616</ele>
<time>2011-04-27T05:31:16Z</time>
<desc>lat.=22.133022, lon.=104.293808, Alt.=114.393616m. Speed=10.188000m/h.</desc>
<speed>2.830000</speed>
</trkpt>
<trkpt lat="22.133028" lon="104.293907">
<ele>110.040100</ele>
<time>2011-04-27T05:31:21Z</time>
<desc>lat.=22.133028, lon.=104.293907, Alt.=110.040100m. Speed=4.176000m/h.</desc>
<speed>1.160000</speed>
</trkpt>
<trkpt lat="22.133020" lon="104.293999">
<ele>109.641663</ele>
<time>2011-04-27T05:31:26Z</time>
<desc>lat.=22.133020, lon.=104.293999, Alt.=109.641663m. Speed=5.508000m/h.</desc>
<speed>1.530000</speed>
</trkpt>
<trkpt lat="22.133003" lon="104.294075">
<ele>108.985413</ele>
<time>2011-04-27T05:31:31Z</time>
<desc>lat.=22.133003, lon.=104.294075, Alt.=108.985413m. Speed=5.184000m/h.</desc>
<speed>1.440000</speed>
</trkpt>
<trkpt lat="22.133011" lon="104.294151">
<ele>109.069397</ele>
<time>2011-04-27T05:31:36Z</time>
<desc>lat.=22.133011, lon.=104.294151, Alt.=109.069397m. Speed=5.256000m/h.</desc>
<speed>1.460000</speed>
</trkpt>
<trkpt lat="22.133005" lon="104.294189">
<ele>109.922913</ele>
<time>2011-04-27T05:31:41Z</time>
<desc>lat.=22.133005, lon.=104.294189, Alt.=109.922913m. Speed=3.204000m/h.</desc>
<speed>0.890000</speed>
</trkpt>
<trkpt lat="22.133007" lon="104.294258">
<ele>110.909241</ele>
<time>2011-04-27T05:31:46Z</time>
<desc>lat.=22.133007, lon.=104.294258, Alt.=110.909241m. Speed=3.852000m/h.</desc>
<speed>1.070000</speed>
</trkpt>
<trkpt lat="22.133007" lon="104.294327">
<ele>111.979553</ele>
<time>2011-04-27T05:31:51Z</time>
<desc>lat.=22.133007, lon.=104.294327, Alt.=111.979553m. Speed=6.156000m/h.</desc>
<speed>1.710000</speed>
</trkpt>
<trkpt lat="22.133018" lon="104.294388">
<ele>113.014709</ele>
<time>2011-04-27T05:31:56Z</time>
<desc>lat.=22.133018, lon.=104.294388, Alt.=113.014709m. Speed=5.400000m/h.</desc>
<speed>1.500000</speed>
</trkpt>
<trkpt lat="22.133026" lon="104.294456">
<ele>113.118225</ele>
<time>2011-04-27T05:32:01Z</time>
<desc>lat.=22.133026, lon.=104.294456, Alt.=113.118225m. Speed=3.528000m/h.</desc>
<speed>0.980000</speed>
</trkpt>
<trkpt lat="22.133038" lon="104.294510">
<ele>113.870178</ele>
<time>2011-04-27T05:32:06Z</time>
<desc>lat.=22.133038, lon.=104.294510, Alt.=113.870178m. Speed=4.212000m/h.</desc>
<speed>1.170000</speed>
</trkpt>
<trkpt lat="22.133064" lon="104.294586">
<ele>114.963928</ele>
<time>2011-04-27T05:32:11Z</time>
<desc>lat.=22.133064, lon.=104.294586, Alt.=114.963928m. Speed=4.968000m/h.</desc>
<speed>1.380000</speed>
</trkpt>
<trkpt lat="22.133089" lon="104.294662">
<ele>115.928772</ele>
<time>2011-04-27T05:32:16Z</time>
<desc>lat.=22.133089, lon.=104.294662, Alt.=115.928772m. Speed=5.508000m/h.</desc>
<speed>1.530000</speed>
</trkpt>
<trkpt lat="22.133120" lon="104.294708">
<ele>117.100647</ele>
<time>2011-04-27T05:32:21Z</time>
<desc>lat.=22.133120, lon.=104.294708, Alt.=117.100647m. Speed=3.924000m/h.</desc>
<speed>1.090000</speed>
</trkpt>
<trkpt lat="22.133160" lon="104.294792">
<ele>118.086975</ele>
<time>2011-04-27T05:32:26Z</time>
<desc>lat.=22.133160, lon.=104.294792, Alt.=118.086975m. Speed=5.652000m/h.</desc>
<speed>1.570000</speed>
</trkpt>
<trkpt lat="22.133184" lon="104.294846">
<ele>118.540100</ele>
<time>2011-04-27T05:32:31Z</time>
<desc>lat.=22.133184, lon.=104.294846, Alt.=118.540100m. Speed=4.860000m/h.</desc>
<speed>1.350000</speed>
</trkpt>
<trkpt lat="22.133221" lon="104.294922">
<ele>119.249084</ele>
<time>2011-04-27T05:32:36Z</time>
<desc>lat.=22.133221, lon.=104.294922, Alt.=119.249084m. Speed=5.040000m/h.</desc>
<speed>1.400000</speed>
</trkpt>
<trkpt lat="22.133217" lon="104.294983">
<ele>121.413147</ele>
<time>2011-04-27T05:32:41Z</time>
<desc>lat.=22.133217, lon.=104.294983, Alt.=121.413147m. Speed=5.580000m/h.</desc>
<speed>1.550000</speed>
</trkpt>
<trkpt lat="22.133232" lon="104.295044">
<ele>123.842834</ele>
<time>2011-04-27T05:32:46Z</time>
<desc>lat.=22.133232, lon.=104.295044, Alt.=123.842834m. Speed=4.140000m/h.</desc>
<speed>1.150000</speed>
</trkpt>
<trkpt lat="22.133226" lon="104.295097">
<ele>124.669006</ele>
<time>2011-04-27T05:32:51Z</time>
<desc>lat.=22.133226, lon.=104.295097, Alt.=124.669006m. Speed=4.608000m/h.</desc>
<speed>1.280000</speed>
</trkpt>
<trkpt lat="22.133238" lon="104.295135">
<ele>126.137756</ele>
<time>2011-04-27T05:32:56Z</time>
<desc>lat.=22.133238, lon.=104.295135, Alt.=126.137756m. Speed=3.348000m/h.</desc>
<speed>0.930000</speed>
</trkpt>
<trkpt lat="22.133257" lon="104.295219">
<ele>127.358459</ele>
<time>2011-04-27T05:33:01Z</time>
<desc>lat.=22.133257, lon.=104.295219, Alt.=127.358459m. Speed=4.032000m/h.</desc>
<speed>1.120000</speed>
</trkpt>
<trkpt lat="22.133240" lon="104.295288">
<ele>128.654419</ele>
<time>2011-04-27T05:33:06Z</time>
<desc>lat.=22.133240, lon.=104.295288, Alt.=128.654419m. Speed=4.464000m/h.</desc>
<speed>1.240000</speed>
</trkpt>
<trkpt lat="22.133245" lon="104.295364">
<ele>129.767700</ele>
<time>2011-04-27T05:33:11Z</time>
<desc>lat.=22.133245, lon.=104.295364, Alt.=129.767700m. Speed=4.464000m/h.</desc>
<speed>1.240000</speed>
</trkpt>
<trkpt lat="22.133247" lon="104.295403">
<ele>130.853638</ele>
<time>2011-04-27T05:33:16Z</time>
<desc>lat.=22.133247, lon.=104.295403, Alt.=130.853638m. Speed=3.060000m/h.</desc>
<speed>0.850000</speed>
</trkpt>
<trkpt lat="22.133295" lon="104.295486">
<ele>131.252075</ele>
<time>2011-04-27T05:33:21Z</time>
<desc>lat.=22.133295, lon.=104.295486, Alt.=131.252075m. Speed=5.904000m/h.</desc>
<speed>1.640000</speed>
</trkpt>
<trkpt lat="22.133329" lon="104.295563">
<ele>132.466919</ele>
<time>2011-04-27T05:33:26Z</time>
<desc>lat.=22.133329, lon.=104.295563, Alt.=132.466919m. Speed=7.992000m/h.</desc>
<speed>2.220000</speed>
</trkpt>
<trkpt lat="22.133341" lon="104.295593">
<ele>132.689575</ele>
<time>2011-04-27T05:33:31Z</time>
<desc>lat.=22.133341, lon.=104.295593, Alt.=132.689575m. Speed=3.708000m/h.</desc>
<speed>1.030000</speed>
</trkpt>
<trkpt lat="22.133364" lon="104.295639">
<ele>131.259888</ele>
<time>2011-04-27T05:33:36Z</time>
<desc>lat.=22.133364, lon.=104.295639, Alt.=131.259888m. Speed=4.860000m/h.</desc>
<speed>1.350000</speed>
</trkpt>
<trkpt lat="22.133385" lon="104.295670">
<ele>128.392700</ele>
<time>2011-04-27T05:33:41Z</time>
<desc>lat.=22.133385, lon.=104.295670, Alt.=128.392700m. Speed=4.104000m/h.</desc>
<speed>1.140000</speed>
</trkpt>
<trkpt lat="22.133413" lon="104.295708">
<ele>127.553772</ele>
<time>2011-04-27T05:33:46Z</time>
<desc>lat.=22.133413, lon.=104.295708, Alt.=127.553772m. Speed=1.008000m/h.</desc>
<speed>0.280000</speed>
</trkpt>
<trkpt lat="22.133408" lon="104.295700">
<ele>126.752991</ele>
<time>2011-04-27T05:33:51Z</time>
<desc>lat.=22.133408, lon.=104.295700, Alt.=126.752991m. Speed=0.756000m/h.</desc>
<speed>0.210000</speed>
</trkpt>
<trkpt lat="22.133406" lon="104.295715">
<ele>126.700256</ele>
<time>2011-04-27T05:33:56Z</time>
<desc>lat.=22.133406, lon.=104.295715, Alt.=126.700256m. Speed=1.764000m/h.</desc>
<speed>0.490000</speed>
</trkpt>
<trkpt lat="22.133417" lon="104.295715">
<ele>125.379944</ele>
<time>2011-04-27T05:34:01Z</time>
<desc>lat.=22.133417, lon.=104.295715, Alt.=125.379944m. Speed=0.324000m/h.</desc>
<speed>0.090000</speed>
</trkpt>
<trkpt lat="22.133417" lon="104.295715">
<ele>125.329163</ele>
<time>2011-04-27T05:34:06Z</time>
<desc>lat.=22.133417, lon.=104.295715, Alt.=125.329163m. Speed=0.036000m/h.</desc>
<speed>0.010000</speed>
</trkpt>
<trkpt lat="22.133417" lon="104.295715">
<ele>125.319397</ele>
<time>2011-04-27T05:34:11Z</time>
<desc>lat.=22.133417, lon.=104.295715, Alt.=125.319397m. Speed=0.252000m/h.</desc>
<speed>0.070000</speed>
</trkpt>
<trkpt lat="22.133417" lon="104.295715">
<ele>125.303772</ele>
<time>2011-04-27T05:34:16Z</time>
<desc>lat.=22.133417, lon.=104.295715, Alt.=125.303772m. Speed=0.108000m/h.</desc>
<speed>0.030000</speed>
</trkpt>
<trkpt lat="22.133419" lon="104.295715">
<ele>125.288147</ele>
<time>2011-04-27T05:34:21Z</time>
<desc>lat.=22.133419, lon.=104.295715, Alt.=125.288147m. Speed=0.036000m/h.</desc>
<speed>0.010000</speed>
</trkpt>
<trkpt lat="22.133427" lon="104.295723">
<ele>125.110413</ele>
<time>2011-04-27T05:34:26Z</time>
<desc>lat.=22.133427, lon.=104.295723, Alt.=125.110413m. Speed=1.656000m/h.</desc>
<speed>0.460000</speed>
</trkpt>
<trkpt lat="22.133472" lon="104.295746">
<ele>124.813538</ele>
<time>2011-04-27T05:34:31Z</time>
<desc>lat.=22.133472, lon.=104.295746, Alt.=124.813538m. Speed=4.536000m/h.</desc>
<speed>1.260000</speed>
</trkpt>
<trkpt lat="22.133512" lon="104.295792">
<ele>124.073303</ele>
<time>2011-04-27T05:34:36Z</time>
<desc>lat.=22.133512, lon.=104.295792, Alt.=124.073303m. Speed=3.816000m/h.</desc>
<speed>1.060000</speed>
</trkpt>
<trkpt lat="22.133545" lon="104.295845">
<ele>124.862366</ele>
<time>2011-04-27T05:34:41Z</time>
<desc>lat.=22.133545, lon.=104.295845, Alt.=124.862366m. Speed=3.744000m/h.</desc>
<speed>1.040000</speed>
</trkpt>
<trkpt lat="22.133564" lon="104.295914">
<ele>126.145569</ele>
<time>2011-04-27T05:34:46Z</time>
<desc>lat.=22.133564, lon.=104.295914, Alt.=126.145569m. Speed=3.600000m/h.</desc>
<speed>1.000000</speed>
</trkpt>
<trkpt lat="22.133572" lon="104.295975">
<ele>127.372131</ele>
<time>2011-04-27T05:34:51Z</time>
<desc>lat.=22.133572, lon.=104.295975, Alt.=127.372131m. Speed=3.744000m/h.</desc>
<speed>1.040000</speed>
</trkpt>
<trkpt lat="22.133556" lon="104.296013">
<ele>128.990356</ele>
<time>2011-04-27T05:34:56Z</time>
<desc>lat.=22.133556, lon.=104.296013, Alt.=128.990356m. Speed=5.472000m/h.</desc>
<speed>1.520000</speed>
</trkpt>
<trkpt lat="22.133532" lon="104.296104">
<ele>129.662231</ele>
<time>2011-04-27T05:35:01Z</time>
<desc>lat.=22.133532, lon.=104.296104, Alt.=129.662231m. Speed=4.572000m/h.</desc>
<speed>1.270000</speed>
</trkpt>
<trkpt lat="22.133514" lon="104.296165">
<ele>131.377075</ele>
<time>2011-04-27T05:35:06Z</time>
<desc>lat.=22.133514, lon.=104.296165, Alt.=131.377075m. Speed=6.300000m/h.</desc>
<speed>1.750000</speed>
</trkpt>
<trkpt lat="22.133499" lon="104.296196">
<ele>132.123169</ele>
<time>2011-04-27T05:35:11Z</time>
<desc>lat.=22.133499, lon.=104.296196, Alt.=132.123169m. Speed=3.204000m/h.</desc>
<speed>0.890000</speed>
</trkpt>
<trkpt lat="22.133495" lon="104.296249">
<ele>133.306763</ele>
<time>2011-04-27T05:35:16Z</time>
<desc>lat.=22.133495, lon.=104.296249, Alt.=133.306763m. Speed=5.508000m/h.</desc>
<speed>1.530000</speed>
</trkpt>
<trkpt lat="22.133459" lon="104.296288">
<ele>134.634888</ele>
<time>2011-04-27T05:35:21Z</time>
<desc>lat.=22.133459, lon.=104.296288, Alt.=134.634888m. Speed=4.104000m/h.</desc>
<speed>1.140000</speed>
</trkpt>
<trkpt lat="22.133436" lon="104.296394">
<ele>135.728638</ele>
<time>2011-04-27T05:35:26Z</time>
<desc>lat.=22.133436, lon.=104.296394, Alt.=135.728638m. Speed=5.004000m/h.</desc>
<speed>1.390000</speed>
</trkpt>
<trkpt lat="22.133421" lon="104.296463">
<ele>137.146606</ele>
<time>2011-04-27T05:35:31Z</time>
<desc>lat.=22.133421, lon.=104.296463, Alt.=137.146606m. Speed=4.104000m/h.</desc>
<speed>1.140000</speed>
</trkpt>
<trkpt lat="22.133427" lon="104.296532">
<ele>138.931763</ele>
<time>2011-04-27T05:35:36Z</time>
<desc>lat.=22.133427, lon.=104.296532, Alt.=138.931763m. Speed=4.680000m/h.</desc>
<speed>1.300000</speed>
</trkpt>
<trkpt lat="22.133400" lon="104.296631">
<ele>139.896606</ele>
<time>2011-04-27T05:35:41Z</time>
<desc>lat.=22.133400, lon.=104.296631, Alt.=139.896606m. Speed=4.644000m/h.</desc>
<speed>1.290000</speed>
</trkpt>
<trkpt lat="22.133429" lon="104.296684">
<ele>139.970825</ele>
<time>2011-04-27T05:35:46Z</time>
<desc>lat.=22.133429, lon.=104.296684, Alt.=139.970825m. Speed=3.924000m/h.</desc>
<speed>1.090000</speed>
</trkpt>
<trkpt lat="22.133467" lon="104.296738">
<ele>140.658325</ele>
<time>2011-04-27T05:35:51Z</time>
<desc>lat.=22.133467, lon.=104.296738, Alt.=140.658325m. Speed=4.644000m/h.</desc>
<speed>1.290000</speed>
</trkpt>
<trkpt lat="22.133499" lon="104.296776">
<ele>141.599731</ele>
<time>2011-04-27T05:35:56Z</time>
<desc>lat.=22.133499, lon.=104.296776, Alt.=141.599731m. Speed=5.040000m/h.</desc>
<speed>1.400000</speed>
</trkpt>
<trkpt lat="22.133545" lon="104.296822">
<ele>141.970825</ele>
<time>2011-04-27T05:36:01Z</time>
<desc>lat.=22.133545, lon.=104.296822, Alt.=141.970825m. Speed=5.256000m/h.</desc>
<speed>1.460000</speed>
</trkpt>
<trkpt lat="22.133602" lon="104.296883">
<ele>140.955200</ele>
<time>2011-04-27T05:36:06Z</time>
<desc>lat.=22.133602, lon.=104.296883, Alt.=140.955200m. Speed=5.436000m/h.</desc>
<speed>1.510000</speed>
</trkpt>
<trkpt lat="22.133657" lon="104.296928">
<ele>141.134888</ele>
<time>2011-04-27T05:36:11Z</time>
<desc>lat.=22.133657, lon.=104.296928, Alt.=141.134888m. Speed=5.364000m/h.</desc>
<speed>1.490000</speed>
</trkpt>
<trkpt lat="22.133694" lon="104.296982">
<ele>141.619263</ele>
<time>2011-04-27T05:36:16Z</time>
<desc>lat.=22.133694, lon.=104.296982, Alt.=141.619263m. Speed=5.688000m/h.</desc>
<speed>1.580000</speed>
</trkpt>
<trkpt lat="22.133749" lon="104.297028">
<ele>141.287231</ele>
<time>2011-04-27T05:36:21Z</time>
<desc>lat.=22.133749, lon.=104.297028, Alt.=141.287231m. Speed=3.456000m/h.</desc>
<speed>0.960000</speed>
</trkpt>
<trkpt lat="22.133793" lon="104.297058">
<ele>141.095825</ele>
<time>2011-04-27T05:36:26Z</time>
<desc>lat.=22.133793, lon.=104.297058, Alt.=141.095825m. Speed=4.824000m/h.</desc>
<speed>1.340000</speed>
</trkpt>
<trkpt lat="22.133827" lon="104.297112">
<ele>140.548950</ele>
<time>2011-04-27T05:36:31Z</time>
<desc>lat.=22.133827, lon.=104.297112, Alt.=140.548950m. Speed=4.788000m/h.</desc>
<speed>1.330000</speed>
</trkpt>
<trkpt lat="22.133863" lon="104.297157">
<ele>140.873169</ele>
<time>2011-04-27T05:36:36Z</time>
<desc>lat.=22.133863, lon.=104.297157, Alt.=140.873169m. Speed=5.148000m/h.</desc>
<speed>1.430000</speed>
</trkpt>
<trkpt lat="22.133911" lon="104.297195">
<ele>139.357544</ele>
<time>2011-04-27T05:36:41Z</time>
<desc>lat.=22.133911, lon.=104.297195, Alt.=139.357544m. Speed=4.896000m/h.</desc>
<speed>1.360000</speed>
</trkpt>
<trkpt lat="22.133963" lon="104.297234">
<ele>139.802856</ele>
<time>2011-04-27T05:36:46Z</time>
<desc>lat.=22.133963, lon.=104.297234, Alt.=139.802856m. Speed=4.752000m/h.</desc>
<speed>1.320000</speed>
</trkpt>
<trkpt lat="22.134007" lon="104.297295">
<ele>139.056763</ele>
<time>2011-04-27T05:36:51Z</time>
<desc>lat.=22.134007, lon.=104.297295, Alt.=139.056763m. Speed=4.716000m/h.</desc>
<speed>1.310000</speed>
</trkpt>
<trkpt lat="22.134060" lon="104.297340">
<ele>138.802856</ele>
<time>2011-04-27T05:36:56Z</time>
<desc>lat.=22.134060, lon.=104.297340, Alt.=138.802856m. Speed=6.084000m/h.</desc>
<speed>1.690000</speed>
</trkpt>
<trkpt lat="22.134108" lon="104.297394">
<ele>139.127075</ele>
<time>2011-04-27T05:37:01Z</time>
<desc>lat.=22.134108, lon.=104.297394, Alt.=139.127075m. Speed=5.148000m/h.</desc>
<speed>1.430000</speed>
</trkpt>
<trkpt lat="22.134151" lon="104.297440">
<ele>139.181763</ele>
<time>2011-04-27T05:37:06Z</time>
<desc>lat.=22.134151, lon.=104.297440, Alt.=139.181763m. Speed=5.004000m/h.</desc>
<speed>1.390000</speed>
</trkpt>
<trkpt lat="22.134184" lon="104.297493">
<ele>138.595825</ele>
<time>2011-04-27T05:37:11Z</time>
<desc>lat.=22.134184, lon.=104.297493, Alt.=138.595825m. Speed=6.264000m/h.</desc>
<speed>1.740000</speed>
</trkpt>
<trkpt lat="22.134226" lon="104.297539">
<ele>138.908325</ele>
<time>2011-04-27T05:37:16Z</time>
<desc>lat.=22.134226, lon.=104.297539, Alt.=138.908325m. Speed=5.508000m/h.</desc>
<speed>1.530000</speed>
</trkpt>
<trkpt lat="22.134272" lon="104.297607">
<ele>140.259888</ele>
<time>2011-04-27T05:37:21Z</time>
<desc>lat.=22.134272, lon.=104.297607, Alt.=140.259888m. Speed=6.552000m/h.</desc>
<speed>1.820000</speed>
</trkpt>
<trkpt lat="22.134283" lon="104.297691">
<ele>141.838013</ele>
<time>2011-04-27T05:37:26Z</time>
<desc>lat.=22.134283, lon.=104.297691, Alt.=141.838013m. Speed=4.968000m/h.</desc>
<speed>1.380000</speed>
</trkpt>
<trkpt lat="22.134277" lon="104.297775">
<ele>143.427856</ele>
<time>2011-04-27T05:37:31Z</time>
<desc>lat.=22.134277, lon.=104.297775, Alt.=143.427856m. Speed=5.148000m/h.</desc>
<speed>1.430000</speed>
</trkpt>
<trkpt lat="22.134268" lon="104.297836">
<ele>145.166138</ele>
<time>2011-04-27T05:37:36Z</time>
<desc>lat.=22.134268, lon.=104.297836, Alt.=145.166138m. Speed=5.184000m/h.</desc>
<speed>1.440000</speed>
</trkpt>
<trkpt lat="22.134245" lon="104.297913">
<ele>146.416138</ele>
<time>2011-04-27T05:37:41Z</time>
<desc>lat.=22.134245, lon.=104.297913, Alt.=146.416138m. Speed=4.176000m/h.</desc>
<speed>1.160000</speed>
</trkpt>
<trkpt lat="22.134218" lon="104.297958">
<ele>148.150513</ele>
<time>2011-04-27T05:37:46Z</time>
<desc>lat.=22.134218, lon.=104.297958, Alt.=148.150513m. Speed=3.816000m/h.</desc>
<speed>1.060000</speed>
</trkpt>
<trkpt lat="22.134199" lon="104.298004">
<ele>149.783325</ele>
<time>2011-04-27T05:37:51Z</time>
<desc>lat.=22.134199, lon.=104.298004, Alt.=149.783325m. Speed=4.968000m/h.</desc>
<speed>1.380000</speed>
</trkpt>
<trkpt lat="22.134176" lon="104.298058">
<ele>151.486450</ele>
<time>2011-04-27T05:37:56Z</time>
<desc>lat.=22.134176, lon.=104.298058, Alt.=151.486450m. Speed=5.688000m/h.</desc>
<speed>1.580000</speed>
</trkpt>
<trkpt lat="22.134193" lon="104.298157">
<ele>152.830200</ele>
<time>2011-04-27T05:38:01Z</time>
<desc>lat.=22.134193, lon.=104.298157, Alt.=152.830200m. Speed=5.328000m/h.</desc>
<speed>1.480000</speed>
</trkpt>
<trkpt lat="22.134207" lon="104.298233">
<ele>154.720825</ele>
<time>2011-04-27T05:38:06Z</time>
<desc>lat.=22.134207, lon.=104.298233, Alt.=154.720825m. Speed=5.436000m/h.</desc>
<speed>1.510000</speed>
</trkpt>
<trkpt lat="22.134214" lon="104.298294">
<ele>156.951294</ele>
<time>2011-04-27T05:38:11Z</time>
<desc>lat.=22.134214, lon.=104.298294, Alt.=156.951294m. Speed=5.184000m/h.</desc>
<speed>1.440000</speed>
</trkpt>
<trkpt lat="22.134230" lon="104.298363">
<ele>158.853638</ele>
<time>2011-04-27T05:38:16Z</time>
<desc>lat.=22.134230, lon.=104.298363, Alt.=158.853638m. Speed=6.624000m/h.</desc>
<speed>1.840000</speed>
</trkpt>
<trkpt lat="22.134245" lon="104.298416">
<ele>160.873169</ele>
<time>2011-04-27T05:38:21Z</time>
<desc>lat.=22.134245, lon.=104.298416, Alt.=160.873169m. Speed=4.716000m/h.</desc>
<speed>1.310000</speed>
</trkpt>
<trkpt lat="22.134245" lon="104.298470">
<ele>163.505981</ele>
<time>2011-04-27T05:38:26Z</time>
<desc>lat.=22.134245, lon.=104.298470, Alt.=163.505981m. Speed=3.960000m/h.</desc>
<speed>1.100000</speed>
</trkpt>
<trkpt lat="22.134243" lon="104.298531">
<ele>165.068481</ele>
<time>2011-04-27T05:38:31Z</time>
<desc>lat.=22.134243, lon.=104.298531, Alt.=165.068481m. Speed=2.736000m/h.</desc>
<speed>0.760000</speed>
</trkpt>
<trkpt lat="22.134251" lon="104.298531">
<ele>165.783325</ele>
<time>2011-04-27T05:38:36Z</time>
<desc>lat.=22.134251, lon.=104.298531, Alt.=165.783325m. Speed=0.360000m/h.</desc>
<speed>0.100000</speed>
</trkpt>
<trkpt lat="22.134249" lon="104.298538">
<ele>166.830200</ele>
<time>2011-04-27T05:38:41Z</time>
<desc>lat.=22.134249, lon.=104.298538, Alt.=166.830200m. Speed=0.396000m/h.</desc>
<speed>0.110000</speed>
</trkpt>
<trkpt lat="22.134245" lon="104.298538">
<ele>167.584106</ele>
<time>2011-04-27T05:38:46Z</time>
<desc>lat.=22.134245, lon.=104.298538, Alt.=167.584106m. Speed=0.144000m/h.</desc>
<speed>0.040000</speed>
</trkpt>
<trkpt lat="22.134243" lon="104.298538">
<ele>168.255981</ele>
<time>2011-04-27T05:38:51Z</time>
<desc>lat.=22.134243, lon.=104.298538, Alt.=168.255981m. Speed=0.180000m/h.</desc>
<speed>0.050000</speed>
</trkpt>
<trkpt lat="22.134241" lon="104.298538">
<ele>168.920044</ele>
<time>2011-04-27T05:38:56Z</time>
<desc>lat.=22.134241, lon.=104.298538, Alt.=168.920044m. Speed=0.252000m/h.</desc>
<speed>0.070000</speed>
</trkpt>
<trkpt lat="22.134233" lon="104.298538">
<ele>169.595825</ele>
<time>2011-04-27T05:39:01Z</time>
<desc>lat.=22.134233, lon.=104.298538, Alt.=169.595825m. Speed=0.684000m/h.</desc>
<speed>0.190000</speed>
</trkpt>
<trkpt lat="22.134224" lon="104.298538">
<ele>170.240356</ele>
<time>2011-04-27T05:39:06Z</time>
<desc>lat.=22.134224, lon.=104.298538, Alt.=170.240356m. Speed=0.828000m/h.</desc>
<speed>0.230000</speed>
</trkpt>
<trkpt lat="22.134212" lon="104.298546">
<ele>170.759888</ele>
<time>2011-04-27T05:39:11Z</time>
<desc>lat.=22.134212, lon.=104.298546, Alt.=170.759888m. Speed=1.584000m/h.</desc>
<speed>0.440000</speed>
</trkpt>
<trkpt lat="22.134264" lon="104.298576">
<ele>171.513794</ele>
<time>2011-04-27T05:39:16Z</time>
<desc>lat.=22.134264, lon.=104.298576, Alt.=171.513794m. Speed=2.088000m/h.</desc>
<speed>0.580000</speed>
</trkpt>
<trkpt lat="22.134293" lon="104.298630">
<ele>171.021606</ele>
<time>2011-04-27T05:39:21Z</time>
<desc>lat.=22.134293, lon.=104.298630, Alt.=171.021606m. Speed=2.808000m/h.</desc>
<speed>0.780000</speed>
</trkpt>
<trkpt lat="22.134293" lon="104.298691">
<ele>171.474731</ele>
<time>2011-04-27T05:39:26Z</time>
<desc>lat.=22.134293, lon.=104.298691, Alt.=171.474731m. Speed=3.996000m/h.</desc>
<speed>1.110000</speed>
</trkpt>
<trkpt lat="22.134300" lon="104.298744">
<ele>171.994263</ele>
<time>2011-04-27T05:39:31Z</time>
<desc>lat.=22.134300, lon.=104.298744, Alt.=171.994263m. Speed=3.384000m/h.</desc>
<speed>0.940000</speed>
</trkpt>
<trkpt lat="22.134247" lon="104.298782">
<ele>171.041138</ele>
<time>2011-04-27T05:39:36Z</time>
<desc>lat.=22.134247, lon.=104.298782, Alt.=171.041138m. Speed=3.456000m/h.</desc>
<speed>0.960000</speed>
</trkpt>
<trkpt lat="22.134235" lon="104.298843">
<ele>171.755981</ele>
<time>2011-04-27T05:39:41Z</time>
<desc>lat.=22.134235, lon.=104.298843, Alt.=171.755981m. Speed=4.464000m/h.</desc>
<speed>1.240000</speed>
</trkpt>
<trkpt lat="22.134230" lon="104.298897">
<ele>172.330200</ele>
<time>2011-04-27T05:39:46Z</time>
<desc>lat.=22.134230, lon.=104.298897, Alt.=172.330200m. Speed=4.464000m/h.</desc>
<speed>1.240000</speed>
</trkpt>
<trkpt lat="22.134232" lon="104.298950">
<ele>173.146606</ele>
<time>2011-04-27T05:39:51Z</time>
<desc>lat.=22.134232, lon.=104.298950, Alt.=173.146606m. Speed=4.464000m/h.</desc>
<speed>1.240000</speed>
</trkpt>
<trkpt lat="22.134195" lon="104.299011">
<ele>173.701294</ele>
<time>2011-04-27T05:39:56Z</time>
<desc>lat.=22.134195, lon.=104.299011, Alt.=173.701294m. Speed=4.896000m/h.</desc>
<speed>1.360000</speed>
</trkpt>
<trkpt lat="22.134167" lon="104.299088">
<ele>174.552856</ele>
<time>2011-04-27T05:40:01Z</time>
<desc>lat.=22.134167, lon.=104.299088, Alt.=174.552856m. Speed=5.292000m/h.</desc>
<speed>1.470000</speed>
</trkpt>
<trkpt lat="22.134157" lon="104.299210">
<ele>175.123169</ele>
<time>2011-04-27T05:40:06Z</time>
<desc>lat.=22.134157, lon.=104.299210, Alt.=175.123169m. Speed=3.708000m/h.</desc>
<speed>1.030000</speed>
</trkpt>
<trkpt lat="22.134129" lon="104.299240">
<ele>176.134888</ele>
<time>2011-04-27T05:40:11Z</time>
<desc>lat.=22.134129, lon.=104.299240, Alt.=176.134888m. Speed=4.284000m/h.</desc>
<speed>1.190000</speed>
</trkpt>
<trkpt lat="22.134108" lon="104.299286">
<ele>177.650513</ele>
<time>2011-04-27T05:40:16Z</time>
<desc>lat.=22.134108, lon.=104.299286, Alt.=177.650513m. Speed=4.284000m/h.</desc>
<speed>1.190000</speed>
</trkpt>
<trkpt lat="22.134079" lon="104.299332">
<ele>179.548950</ele>
<time>2011-04-27T05:40:21Z</time>
<desc>lat.=22.134079, lon.=104.299332, Alt.=179.548950m. Speed=4.212000m/h.</desc>
<speed>1.170000</speed>
</trkpt>
<trkpt lat="22.134026" lon="104.299370">
<ele>181.529419</ele>
<time>2011-04-27T05:40:26Z</time>
<desc>lat.=22.134026, lon.=104.299370, Alt.=181.529419m. Speed=4.860000m/h.</desc>
<speed>1.350000</speed>
</trkpt>
<trkpt lat="22.133999" lon="104.299431">
<ele>183.326294</ele>
<time>2011-04-27T05:40:31Z</time>
<desc>lat.=22.133999, lon.=104.299431, Alt.=183.326294m. Speed=4.500000m/h.</desc>
<speed>1.250000</speed>
</trkpt>
<trkpt lat="22.133961" lon="104.299492">
<ele>185.103638</ele>
<time>2011-04-27T05:40:36Z</time>
<desc>lat.=22.133961, lon.=104.299492, Alt.=185.103638m. Speed=4.644000m/h.</desc>
<speed>1.290000</speed>
</trkpt>
<trkpt lat="22.133896" lon="104.299561">
<ele>186.416138</ele>
<time>2011-04-27T05:40:41Z</time>
<desc>lat.=22.133896, lon.=104.299561, Alt.=186.416138m. Speed=5.364000m/h.</desc>
<speed>1.490000</speed>
</trkpt>
<trkpt lat="22.133869" lon="104.299637">
<ele>188.142700</ele>
<time>2011-04-27T05:40:46Z</time>
<desc>lat.=22.133869, lon.=104.299637, Alt.=188.142700m. Speed=5.148000m/h.</desc>
<speed>1.430000</speed>
</trkpt>
<trkpt lat="22.133930" lon="104.299721">
<ele>188.716919</ele>
<time>2011-04-27T05:40:51Z</time>
<desc>lat.=22.133930, lon.=104.299721, Alt.=188.716919m. Speed=5.508000m/h.</desc>
<speed>1.530000</speed>
</trkpt>
<trkpt lat="22.133972" lon="104.299812">
<ele>189.435669</ele>
<time>2011-04-27T05:40:56Z</time>
<desc>lat.=22.133972, lon.=104.299812, Alt.=189.435669m. Speed=5.868000m/h.</desc>
<speed>1.630000</speed>
</trkpt>
<trkpt lat="22.134008" lon="104.299889">
<ele>190.588013</ele>
<time>2011-04-27T05:41:01Z</time>
<desc>lat.=22.134008, lon.=104.299889, Alt.=190.588013m. Speed=5.580000m/h.</desc>
<speed>1.550000</speed>
</trkpt>
<trkpt lat="22.134052" lon="104.299934">
<ele>191.845825</ele>
<time>2011-04-27T05:41:06Z</time>
<desc>lat.=22.134052, lon.=104.299934, Alt.=191.845825m. Speed=4.644000m/h.</desc>
<speed>1.290000</speed>
</trkpt>
<trkpt lat="22.134142" lon="104.300026">
<ele>191.841919</ele>
<time>2011-04-27T05:41:11Z</time>
<desc>lat.=22.134142, lon.=104.300026, Alt.=191.841919m. Speed=6.732000m/h.</desc>
<speed>1.870000</speed>
</trkpt>
<trkpt lat="22.134222" lon="104.300087">
<ele>191.037231</ele>
<time>2011-04-27T05:41:16Z</time>
<desc>lat.=22.134222, lon.=104.300087, Alt.=191.037231m. Speed=6.840000m/h.</desc>
<speed>1.900000</speed>
</trkpt>
<trkpt lat="22.134310" lon="104.300140">
<ele>191.611450</ele>
<time>2011-04-27T05:41:21Z</time>
<desc>lat.=22.134310, lon.=104.300140, Alt.=191.611450m. Speed=7.668000m/h.</desc>
<speed>2.130000</speed>
</trkpt>
<trkpt lat="22.134392" lon="104.300186">
<ele>192.412231</ele>
<time>2011-04-27T05:41:26Z</time>
<desc>lat.=22.134392, lon.=104.300186, Alt.=192.412231m. Speed=6.336000m/h.</desc>
<speed>1.760000</speed>
</trkpt>
<trkpt lat="22.134470" lon="104.300217">
<ele>193.162231</ele>
<time>2011-04-27T05:41:31Z</time>
<desc>lat.=22.134470, lon.=104.300217, Alt.=193.162231m. Speed=6.084000m/h.</desc>
<speed>1.690000</speed>
</trkpt>
<trkpt lat="22.134556" lon="104.300262">
<ele>193.982544</ele>
<time>2011-04-27T05:41:36Z</time>
<desc>lat.=22.134556, lon.=104.300262, Alt.=193.982544m. Speed=7.704000m/h.</desc>
<speed>2.140000</speed>
</trkpt>
<trkpt lat="22.134628" lon="104.300308">
<ele>194.650513</ele>
<time>2011-04-27T05:41:41Z</time>
<desc>lat.=22.134628, lon.=104.300308, Alt.=194.650513m. Speed=6.372000m/h.</desc>
<speed>1.770000</speed>
</trkpt>
<trkpt lat="22.134710" lon="104.300346">
<ele>195.396606</ele>
<time>2011-04-27T05:41:46Z</time>
<desc>lat.=22.134710, lon.=104.300346, Alt.=195.396606m. Speed=4.320000m/h.</desc>
<speed>1.200000</speed>
</trkpt>
<trkpt lat="22.134741" lon="104.300377">
<ele>196.193481</ele>
<time>2011-04-27T05:41:51Z</time>
<desc>lat.=22.134741, lon.=104.300377, Alt.=196.193481m. Speed=0.576000m/h.</desc>
<speed>0.160000</speed>
</trkpt>
<trkpt lat="22.134747" lon="104.300392">
<ele>196.213013</ele>
<time>2011-04-27T05:41:56Z</time>
<desc>lat.=22.134747, lon.=104.300392, Alt.=196.213013m. Speed=0.504000m/h.</desc>
<speed>0.140000</speed>
</trkpt>
<trkpt lat="22.134748" lon="104.300392">
<ele>196.716919</ele>
<time>2011-04-27T05:42:01Z</time>
<desc>lat.=22.134748, lon.=104.300392, Alt.=196.716919m. Speed=0.180000m/h.</desc>
<speed>0.050000</speed>
</trkpt>
<trkpt lat="22.134750" lon="104.300392">
<ele>197.224731</ele>
<time>2011-04-27T05:42:06Z</time>
<desc>lat.=22.134750, lon.=104.300392, Alt.=197.224731m. Speed=0.288000m/h.</desc>
<speed>0.080000</speed>
</trkpt>
<trkpt lat="22.134754" lon="104.300392">
<ele>197.724731</ele>
<time>2011-04-27T05:42:11Z</time>
<desc>lat.=22.134754, lon.=104.300392, Alt.=197.724731m. Speed=0.288000m/h.</desc>
<speed>0.080000</speed>
</trkpt>
<trkpt lat="22.134756" lon="104.300400">
<ele>198.232544</ele>
<time>2011-04-27T05:42:16Z</time>
<desc>lat.=22.134756, lon.=104.300400, Alt.=198.232544m. Speed=0.180000m/h.</desc>
<speed>0.050000</speed>
</trkpt>
<trkpt lat="22.134758" lon="104.300392">
<ele>198.748169</ele>
<time>2011-04-27T05:42:21Z</time>
<desc>lat.=22.134758, lon.=104.300392, Alt.=198.748169m. Speed=0.288000m/h.</desc>
<speed>0.080000</speed>
</trkpt>
<trkpt lat="22.134762" lon="104.300392">
<ele>199.255981</ele>
<time>2011-04-27T05:42:26Z</time>
<desc>lat.=22.134762, lon.=104.300392, Alt.=199.255981m. Speed=0.252000m/h.</desc>
<speed>0.070000</speed>
</trkpt>
<trkpt lat="22.134764" lon="104.300392">
<ele>199.767700</ele>
<time>2011-04-27T05:42:31Z</time>
<desc>lat.=22.134764, lon.=104.300392, Alt.=199.767700m. Speed=0.360000m/h.</desc>
<speed>0.100000</speed>
</trkpt>
<trkpt lat="22.134768" lon="104.300392">
<ele>200.267700</ele>
<time>2011-04-27T05:42:36Z</time>
<desc>lat.=22.134768, lon.=104.300392, Alt.=200.267700m. Speed=0.180000m/h.</desc>
<speed>0.050000</speed>
</trkpt>
<trkpt lat="22.134769" lon="104.300385">
<ele>200.775513</ele>
<time>2011-04-27T05:42:41Z</time>
<desc>lat.=22.134769, lon.=104.300385, Alt.=200.775513m. Speed=0.324000m/h.</desc>
<speed>0.090000</speed>
</trkpt>
<trkpt lat="22.134771" lon="104.300385">
<ele>201.279419</ele>
<time>2011-04-27T05:42:46Z</time>
<desc>lat.=22.134771, lon.=104.300385, Alt.=201.279419m. Speed=0.108000m/h.</desc>
<speed>0.030000</speed>
</trkpt>
<trkpt lat="22.134773" lon="104.300385">
<ele>201.783325</ele>
<time>2011-04-27T05:42:51Z</time>
<desc>lat.=22.134773, lon.=104.300385, Alt.=201.783325m. Speed=0.216000m/h.</desc>
<speed>0.060000</speed>
</trkpt>
<trkpt lat="22.134777" lon="104.300385">
<ele>202.295044</ele>
<time>2011-04-27T05:42:56Z</time>
<desc>lat.=22.134777, lon.=104.300385, Alt.=202.295044m. Speed=0.216000m/h.</desc>
<speed>0.060000</speed>
</trkpt>
<trkpt lat="22.134779" lon="104.300385">
<ele>202.787231</ele>
<time>2011-04-27T05:43:01Z</time>
<desc>lat.=22.134779, lon.=104.300385, Alt.=202.787231m. Speed=0.180000m/h.</desc>
<speed>0.050000</speed>
</trkpt>
<trkpt lat="22.134781" lon="104.300385">
<ele>203.279419</ele>
<time>2011-04-27T05:43:06Z</time>
<desc>lat.=22.134781, lon.=104.300385, Alt.=203.279419m. Speed=0.000000m/h.</desc>
<speed>0.000000</speed>
</trkpt>
<trkpt lat="22.134783" lon="104.300385">
<ele>203.775513</ele>
<time>2011-04-27T05:43:11Z</time>
<desc>lat.=22.134783, lon.=104.300385, Alt.=203.775513m. Speed=0.216000m/h.</desc>
<speed>0.060000</speed>
</trkpt>
<trkpt lat="22.134787" lon="104.300385">
<ele>204.263794</ele>
<time>2011-04-27T05:43:16Z</time>
<desc>lat.=22.134787, lon.=104.300385, Alt.=204.263794m. Speed=1.296000m/h.</desc>
<speed>0.360000</speed>
</trkpt>
<trkpt lat="22.134850" lon="104.300385">
<ele>202.927856</ele>
<time>2011-04-27T05:43:21Z</time>
<desc>lat.=22.134850, lon.=104.300385, Alt.=202.927856m. Speed=7.740000m/h.</desc>
<speed>2.150000</speed>
</trkpt>
<trkpt lat="22.134928" lon="104.300377">
<ele>200.498169</ele>
<time>2011-04-27T05:43:26Z</time>
<desc>lat.=22.134928, lon.=104.300377, Alt.=200.498169m. Speed=5.220000m/h.</desc>
<speed>1.450000</speed>
</trkpt>
<trkpt lat="22.135008" lon="104.300354">
<ele>200.119263</ele>
<time>2011-04-27T05:43:31Z</time>
<desc>lat.=22.135008, lon.=104.300354, Alt.=200.119263m. Speed=6.408000m/h.</desc>
<speed>1.780000</speed>
</trkpt>
<trkpt lat="22.135080" lon="104.300323">
<ele>199.482544</ele>
<time>2011-04-27T05:43:36Z</time>
<desc>lat.=22.135080, lon.=104.300323, Alt.=199.482544m. Speed=4.356000m/h.</desc>
<speed>1.210000</speed>
</trkpt>
<trkpt lat="22.135162" lon="104.300285">
<ele>198.568481</ele>
<time>2011-04-27T05:43:41Z</time>
<desc>lat.=22.135162, lon.=104.300285, Alt.=198.568481m. Speed=6.300000m/h.</desc>
<speed>1.750000</speed>
</trkpt>
<trkpt lat="22.135241" lon="104.300270">
<ele>198.279419</ele>
<time>2011-04-27T05:43:46Z</time>
<desc>lat.=22.135241, lon.=104.300270, Alt.=198.279419m. Speed=3.816000m/h.</desc>
<speed>1.060000</speed>
</trkpt>
<trkpt lat="22.135302" lon="104.300217">
<ele>198.443481</ele>
<time>2011-04-27T05:43:51Z</time>
<desc>lat.=22.135302, lon.=104.300217, Alt.=198.443481m. Speed=6.552000m/h.</desc>
<speed>1.820000</speed>
</trkpt>
<trkpt lat="22.135317" lon="104.300209">
<ele>199.029419</ele>
<time>2011-04-27T05:43:56Z</time>
<desc>lat.=22.135317, lon.=104.300209, Alt.=199.029419m. Speed=4.392000m/h.</desc>
<speed>1.220000</speed>
</trkpt>
<trkpt lat="22.135366" lon="104.300247">
<ele>198.529419</ele>
<time>2011-04-27T05:44:01Z</time>
<desc>lat.=22.135366, lon.=104.300247, Alt.=198.529419m. Speed=4.860000m/h.</desc>
<speed>1.350000</speed>
</trkpt>
<trkpt lat="22.135416" lon="104.300270">
<ele>196.662231</ele>
<time>2011-04-27T05:44:06Z</time>
<desc>lat.=22.135416, lon.=104.300270, Alt.=196.662231m. Speed=5.904000m/h.</desc>
<speed>1.640000</speed>
</trkpt>
<trkpt lat="22.135454" lon="104.300316">
<ele>195.537231</ele>
<time>2011-04-27T05:44:11Z</time>
<desc>lat.=22.135454, lon.=104.300316, Alt.=195.537231m. Speed=4.320000m/h.</desc>
<speed>1.200000</speed>
</trkpt>
<trkpt lat="22.135506" lon="104.300339">
<ele>194.123169</ele>
<time>2011-04-27T05:44:16Z</time>
<desc>lat.=22.135506, lon.=104.300339, Alt.=194.123169m. Speed=3.564000m/h.</desc>
<speed>0.990000</speed>
</trkpt>
<trkpt lat="22.135542" lon="104.300392">
<ele>193.306763</ele>
<time>2011-04-27T05:44:21Z</time>
<desc>lat.=22.135542, lon.=104.300392, Alt.=193.306763m. Speed=3.852000m/h.</desc>
<speed>1.070000</speed>
</trkpt>
<trkpt lat="22.135595" lon="104.300438">
<ele>192.478638</ele>
<time>2011-04-27T05:44:26Z</time>
<desc>lat.=22.135595, lon.=104.300438, Alt.=192.478638m. Speed=6.480000m/h.</desc>
<speed>1.800000</speed>
</trkpt>
<trkpt lat="22.135641" lon="104.300507">
<ele>192.330200</ele>
<time>2011-04-27T05:44:31Z</time>
<desc>lat.=22.135641, lon.=104.300507, Alt.=192.330200m. Speed=5.796000m/h.</desc>
<speed>1.610000</speed>
</trkpt>
<trkpt lat="22.135704" lon="104.300552">
<ele>192.134888</ele>
<time>2011-04-27T05:44:36Z</time>
<desc>lat.=22.135704, lon.=104.300552, Alt.=192.134888m. Speed=5.508000m/h.</desc>
<speed>1.530000</speed>
</trkpt>
<trkpt lat="22.135754" lon="104.300591">
<ele>191.869263</ele>
<time>2011-04-27T05:44:41Z</time>
<desc>lat.=22.135754, lon.=104.300591, Alt.=191.869263m. Speed=5.112000m/h.</desc>
<speed>1.420000</speed>
</trkpt>
<trkpt lat="22.135777" lon="104.300636">
<ele>192.322388</ele>
<time>2011-04-27T05:44:46Z</time>
<desc>lat.=22.135777, lon.=104.300636, Alt.=192.322388m. Speed=5.364000m/h.</desc>
<speed>1.490000</speed>
</trkpt>
<trkpt lat="22.135843" lon="104.300667">
<ele>191.904419</ele>
<time>2011-04-27T05:44:51Z</time>
<desc>lat.=22.135843, lon.=104.300667, Alt.=191.904419m. Speed=4.572000m/h.</desc>
<speed>1.270000</speed>
</trkpt>
<trkpt lat="22.135889" lon="104.300728">
<ele>192.810669</ele>
<time>2011-04-27T05:44:56Z</time>
<desc>lat.=22.135889, lon.=104.300728, Alt.=192.810669m. Speed=6.840000m/h.</desc>
<speed>1.900000</speed>
</trkpt>
<trkpt lat="22.135973" lon="104.300751">
<ele>191.767700</ele>
<time>2011-04-27T05:45:01Z</time>
<desc>lat.=22.135973, lon.=104.300751, Alt.=191.767700m. Speed=5.688000m/h.</desc>
<speed>1.580000</speed>
</trkpt>
<trkpt lat="22.136091" lon="104.300735">
<ele>193.728638</ele>
<time>2011-04-27T05:45:06Z</time>
<desc>lat.=22.136091, lon.=104.300735, Alt.=193.728638m. Speed=8.928000m/h.</desc>
<speed>2.480000</speed>
</trkpt>
<trkpt lat="22.136209" lon="104.300720">
<ele>194.279419</ele>
<time>2011-04-27T05:45:11Z</time>
<desc>lat.=22.136209, lon.=104.300720, Alt.=194.279419m. Speed=8.928000m/h.</desc>
<speed>2.480000</speed>
</trkpt>
<trkpt lat="22.136316" lon="104.300713">
<ele>194.572388</ele>
<time>2011-04-27T05:45:16Z</time>
<desc>lat.=22.136316, lon.=104.300713, Alt.=194.572388m. Speed=6.840000m/h.</desc>
<speed>1.900000</speed>
</trkpt>
<trkpt lat="22.136402" lon="104.300728">
<ele>194.545044</ele>
<time>2011-04-27T05:45:21Z</time>
<desc>lat.=22.136402, lon.=104.300728, Alt.=194.545044m. Speed=5.940000m/h.</desc>
<speed>1.650000</speed>
</trkpt>
<trkpt lat="22.136471" lon="104.300774">
<ele>193.783325</ele>
<time>2011-04-27T05:45:26Z</time>
<desc>lat.=22.136471, lon.=104.300774, Alt.=193.783325m. Speed=7.164000m/h.</desc>
<speed>1.990000</speed>
</trkpt>
<trkpt lat="22.136517" lon="104.300842">
<ele>193.197388</ele>
<time>2011-04-27T05:45:31Z</time>
<desc>lat.=22.136517, lon.=104.300842, Alt.=193.197388m. Speed=5.796000m/h.</desc>
<speed>1.610000</speed>
</trkpt>
<trkpt lat="22.136559" lon="104.300911">
<ele>193.068481</ele>
<time>2011-04-27T05:45:36Z</time>
<desc>lat.=22.136559, lon.=104.300911, Alt.=193.068481m. Speed=6.084000m/h.</desc>
<speed>1.690000</speed>
</trkpt>
<trkpt lat="22.136595" lon="104.300957">
<ele>193.236450</ele>
<time>2011-04-27T05:45:41Z</time>
<desc>lat.=22.136595, lon.=104.300957, Alt.=193.236450m. Speed=2.880000m/h.</desc>
<speed>0.800000</speed>
</trkpt>
<trkpt lat="22.136642" lon="104.301010">
<ele>192.818481</ele>
<time>2011-04-27T05:45:46Z</time>
<desc>lat.=22.136642, lon.=104.301010, Alt.=192.818481m. Speed=5.616000m/h.</desc>
<speed>1.560000</speed>
</trkpt>
<trkpt lat="22.136677" lon="104.301064">
<ele>193.232544</ele>
<time>2011-04-27T05:45:51Z</time>
<desc>lat.=22.136677, lon.=104.301064, Alt.=193.232544m. Speed=6.048000m/h.</desc>
<speed>1.680000</speed>
</trkpt>
<trkpt lat="22.136738" lon="104.301109">
<ele>193.244263</ele>
<time>2011-04-27T05:45:56Z</time>
<desc>lat.=22.136738, lon.=104.301109, Alt.=193.244263m. Speed=6.876000m/h.</desc>
<speed>1.910000</speed>
</trkpt>
<trkpt lat="22.136818" lon="104.301147">
<ele>192.826294</ele>
<time>2011-04-27T05:46:01Z</time>
<desc>lat.=22.136818, lon.=104.301147, Alt.=192.826294m. Speed=6.516000m/h.</desc>
<speed>1.810000</speed>
</trkpt>
<trkpt lat="22.136898" lon="104.301147">
<ele>192.576294</ele>
<time>2011-04-27T05:46:06Z</time>
<desc>lat.=22.136898, lon.=104.301147, Alt.=192.576294m. Speed=6.660000m/h.</desc>
<speed>1.850000</speed>
</trkpt>
<trkpt lat="22.136963" lon="104.301186">
<ele>192.021606</ele>
<time>2011-04-27T05:46:11Z</time>
<desc>lat.=22.136963, lon.=104.301186, Alt.=192.021606m. Speed=5.724000m/h.</desc>
<speed>1.590000</speed>
</trkpt>
<trkpt lat="22.137026" lon="104.301224">
<ele>191.322388</ele>
<time>2011-04-27T05:46:16Z</time>
<desc>lat.=22.137026, lon.=104.301224, Alt.=191.322388m. Speed=5.328000m/h.</desc>
<speed>1.480000</speed>
</trkpt>
<trkpt lat="22.137089" lon="104.301262">
<ele>190.853638</ele>
<time>2011-04-27T05:46:21Z</time>
<desc>lat.=22.137089, lon.=104.301262, Alt.=190.853638m. Speed=6.048000m/h.</desc>
<speed>1.680000</speed>
</trkpt>
<trkpt lat="22.137159" lon="104.301300">
<ele>190.791138</ele>
<time>2011-04-27T05:46:26Z</time>
<desc>lat.=22.137159, lon.=104.301300, Alt.=190.791138m. Speed=8.532000m/h.</desc>
<speed>2.370000</speed>
</trkpt>
<trkpt lat="22.137236" lon="104.301346">
<ele>191.084106</ele>
<time>2011-04-27T05:46:31Z</time>
<desc>lat.=22.137236, lon.=104.301346, Alt.=191.084106m. Speed=4.824000m/h.</desc>
<speed>1.340000</speed>
</trkpt>
<trkpt lat="22.137302" lon="104.301399">
<ele>192.193481</ele>
<time>2011-04-27T05:46:36Z</time>
<desc>lat.=22.137302, lon.=104.301399, Alt.=192.193481m. Speed=6.984000m/h.</desc>
<speed>1.940000</speed>
</trkpt>
<trkpt lat="22.137377" lon="104.301399">
<ele>192.150513</ele>
<time>2011-04-27T05:46:41Z</time>
<desc>lat.=22.137377, lon.=104.301399, Alt.=192.150513m. Speed=6.156000m/h.</desc>
<speed>1.710000</speed>
</trkpt>
<trkpt lat="22.137451" lon="104.301384">
<ele>193.451294</ele>
<time>2011-04-27T05:46:46Z</time>
<desc>lat.=22.137451, lon.=104.301384, Alt.=193.451294m. Speed=6.084000m/h.</desc>
<speed>1.690000</speed>
</trkpt>
<trkpt lat="22.137514" lon="104.301361">
<ele>194.380981</ele>
<time>2011-04-27T05:46:51Z</time>
<desc>lat.=22.137514, lon.=104.301361, Alt.=194.380981m. Speed=6.588000m/h.</desc>
<speed>1.830000</speed>
</trkpt>
<trkpt lat="22.137606" lon="104.301331">
<ele>194.638794</ele>
<time>2011-04-27T05:46:56Z</time>
<desc>lat.=22.137606, lon.=104.301331, Alt.=194.638794m. Speed=5.256000m/h.</desc>
<speed>1.460000</speed>
</trkpt>
<trkpt lat="22.137634" lon="104.301323">
<ele>195.904419</ele>
<time>2011-04-27T05:47:01Z</time>
<desc>lat.=22.137634, lon.=104.301323, Alt.=195.904419m. Speed=2.124000m/h.</desc>
<speed>0.590000</speed>
</trkpt>
<trkpt lat="22.137751" lon="104.301285">
<ele>196.939575</ele>
<time>2011-04-27T05:47:06Z</time>
<desc>lat.=22.137751, lon.=104.301285, Alt.=196.939575m. Speed=6.480000m/h.</desc>
<speed>1.800000</speed>
</trkpt>
<trkpt lat="22.137821" lon="104.301254">
<ele>197.345825</ele>
<time>2011-04-27T05:47:11Z</time>
<desc>lat.=22.137821, lon.=104.301254, Alt.=197.345825m. Speed=6.336000m/h.</desc>
<speed>1.760000</speed>
</trkpt>
<trkpt lat="22.137892" lon="104.301270">
<ele>198.466919</ele>
<time>2011-04-27T05:47:16Z</time>
<desc>lat.=22.137892, lon.=104.301270, Alt.=198.466919m. Speed=4.428000m/h.</desc>
<speed>1.230000</speed>
</trkpt>
<trkpt lat="22.137934" lon="104.301285">
<ele>197.865356</ele>
<time>2011-04-27T05:47:21Z</time>
<desc>lat.=22.137934, lon.=104.301285, Alt.=197.865356m. Speed=4.788000m/h.</desc>
<speed>1.330000</speed>
</trkpt>
<trkpt lat="22.137974" lon="104.301323">
<ele>196.880981</ele>
<time>2011-04-27T05:47:26Z</time>
<desc>lat.=22.137974, lon.=104.301323, Alt.=196.880981m. Speed=4.644000m/h.</desc>
<speed>1.290000</speed>
</trkpt>
<trkpt lat="22.138014" lon="104.301353">
<ele>197.994263</ele>
<time>2011-04-27T05:47:31Z</time>
<desc>lat.=22.138014, lon.=104.301353, Alt.=197.994263m. Speed=2.124000m/h.</desc>
<speed>0.590000</speed>
</trkpt>
<trkpt lat="22.138042" lon="104.301414">
<ele>198.103638</ele>
<time>2011-04-27T05:47:36Z</time>
<desc>lat.=22.138042, lon.=104.301414, Alt.=198.103638m. Speed=7.920000m/h.</desc>
<speed>2.200000</speed>
</trkpt>
<trkpt lat="22.138105" lon="104.301453">
<ele>198.576294</ele>
<time>2011-04-27T05:47:41Z</time>
<desc>lat.=22.138105, lon.=104.301453, Alt.=198.576294m. Speed=4.680000m/h.</desc>
<speed>1.300000</speed>
</trkpt>
<trkpt lat="22.138153" lon="104.301483">
<ele>199.068481</ele>
<time>2011-04-27T05:47:46Z</time>
<desc>lat.=22.138153, lon.=104.301483, Alt.=199.068481m. Speed=6.156000m/h.</desc>
<speed>1.710000</speed>
</trkpt>
<trkpt lat="22.138208" lon="104.301506">
<ele>199.111450</ele>
<time>2011-04-27T05:47:51Z</time>
<desc>lat.=22.138208, lon.=104.301506, Alt.=199.111450m. Speed=5.724000m/h.</desc>
<speed>1.590000</speed>
</trkpt>
<trkpt lat="22.138239" lon="104.301559">
<ele>199.298950</ele>
<time>2011-04-27T05:47:56Z</time>
<desc>lat.=22.138239, lon.=104.301559, Alt.=199.298950m. Speed=3.492000m/h.</desc>
<speed>0.970000</speed>
</trkpt>
<trkpt lat="22.138271" lon="104.301575">
<ele>199.736450</ele>
<time>2011-04-27T05:48:01Z</time>
<desc>lat.=22.138271, lon.=104.301575, Alt.=199.736450m. Speed=2.556000m/h.</desc>
<speed>0.710000</speed>
</trkpt>
<trkpt lat="22.138309" lon="104.301598">
<ele>200.302856</ele>
<time>2011-04-27T05:48:06Z</time>
<desc>lat.=22.138309, lon.=104.301598, Alt.=200.302856m. Speed=3.636000m/h.</desc>
<speed>1.010000</speed>
</trkpt>
<trkpt lat="22.138327" lon="104.301643">
<ele>200.755981</ele>
<time>2011-04-27T05:48:11Z</time>
<desc>lat.=22.138327, lon.=104.301643, Alt.=200.755981m. Speed=1.512000m/h.</desc>
<speed>0.420000</speed>
</trkpt>
<trkpt lat="22.138330" lon="104.301651">
<ele>201.775513</ele>
<time>2011-04-27T05:48:16Z</time>
<desc>lat.=22.138330, lon.=104.301651, Alt.=201.775513m. Speed=0.000000m/h.</desc>
<speed>0.000000</speed>
</trkpt>
<trkpt lat="22.138336" lon="104.301659">
<ele>202.318481</ele>
<time>2011-04-27T05:48:21Z</time>
<desc>lat.=22.138336, lon.=104.301659, Alt.=202.318481m. Speed=0.720000m/h.</desc>
<speed>0.200000</speed>
</trkpt>
<trkpt lat="22.138336" lon="104.301659">
<ele>202.838013</ele>
<time>2011-04-27T05:48:26Z</time>
<desc>lat.=22.138336, lon.=104.301659, Alt.=202.838013m. Speed=0.180000m/h.</desc>
<speed>0.050000</speed>
</trkpt>
<trkpt lat="22.138338" lon="104.301659">
<ele>203.115356</ele>
<time>2011-04-27T05:48:31Z</time>
<desc>lat.=22.138338, lon.=104.301659, Alt.=203.115356m. Speed=0.000000m/h.</desc>
<speed>0.000000</speed>
</trkpt>
<trkpt lat="22.138338" lon="104.301659">
<ele>203.158325</ele>
<time>2011-04-27T05:48:36Z</time>
<desc>lat.=22.138338, lon.=104.301659, Alt.=203.158325m. Speed=0.108000m/h.</desc>
<speed>0.030000</speed>
</trkpt>
<trkpt lat="22.138338" lon="104.301659">
<ele>203.181763</ele>
<time>2011-04-27T05:48:41Z</time>
<desc>lat.=22.138338, lon.=104.301659, Alt.=203.181763m. Speed=0.360000m/h.</desc>
<speed>0.100000</speed>
</trkpt>
<trkpt lat="22.138346" lon="104.301674">
<ele>203.271606</ele>
<time>2011-04-27T05:48:46Z</time>
<desc>lat.=22.138346, lon.=104.301674, Alt.=203.271606m. Speed=2.052000m/h.</desc>
<speed>0.570000</speed>
</trkpt>
<trkpt lat="22.138393" lon="104.301735">
<ele>204.076294</ele>
<time>2011-04-27T05:48:51Z</time>
<desc>lat.=22.138393, lon.=104.301735, Alt.=204.076294m. Speed=7.920000m/h.</desc>
<speed>2.200000</speed>
</trkpt>
<trkpt lat="22.138418" lon="104.301819">
<ele>205.556763</ele>
<time>2011-04-27T05:48:56Z</time>
<desc>lat.=22.138418, lon.=104.301819, Alt.=205.556763m. Speed=5.652000m/h.</desc>
<speed>1.570000</speed>
</trkpt>
<trkpt lat="22.138422" lon="104.301880">
<ele>205.830200</ele>
<time>2011-04-27T05:49:01Z</time>
<desc>lat.=22.138422, lon.=104.301880, Alt.=205.830200m. Speed=5.472000m/h.</desc>
<speed>1.520000</speed>
</trkpt>
<trkpt lat="22.138420" lon="104.301971">
<ele>206.951294</ele>
<time>2011-04-27T05:49:06Z</time>
<desc>lat.=22.138420, lon.=104.301971, Alt.=206.951294m. Speed=3.384000m/h.</desc>
<speed>0.940000</speed>
</trkpt>
<trkpt lat="22.138390" lon="104.302025">
<ele>207.814575</ele>
<time>2011-04-27T05:49:11Z</time>
<desc>lat.=22.138390, lon.=104.302025, Alt.=207.814575m. Speed=5.292000m/h.</desc>
<speed>1.470000</speed>
</trkpt>
<trkpt lat="22.138363" lon="104.302055">
<ele>208.123169</ele>
<time>2011-04-27T05:49:16Z</time>
<desc>lat.=22.138363, lon.=104.302055, Alt.=208.123169m. Speed=1.116000m/h.</desc>
<speed>0.310000</speed>
</trkpt>
<trkpt lat="22.138355" lon="104.302071">
<ele>208.365356</ele>
<time>2011-04-27T05:49:21Z</time>
<desc>lat.=22.138355, lon.=104.302071, Alt.=208.365356m. Speed=0.288000m/h.</desc>
<speed>0.080000</speed>
</trkpt>
<trkpt lat="22.138357" lon="104.302078">
<ele>208.306763</ele>
<time>2011-04-27T05:49:26Z</time>
<desc>lat.=22.138357, lon.=104.302078, Alt.=208.306763m. Speed=0.432000m/h.</desc>
<speed>0.120000</speed>
</trkpt>
<trkpt lat="22.138357" lon="104.302078">
<ele>208.314575</ele>
<time>2011-04-27T05:49:31Z</time>
<desc>lat.=22.138357, lon.=104.302078, Alt.=208.314575m. Speed=0.576000m/h.</desc>
<speed>0.160000</speed>
</trkpt>
<trkpt lat="22.138361" lon="104.302078">
<ele>208.330200</ele>
<time>2011-04-27T05:49:36Z</time>
<desc>lat.=22.138361, lon.=104.302078, Alt.=208.330200m. Speed=0.144000m/h.</desc>
<speed>0.040000</speed>
</trkpt>
<trkpt lat="22.138361" lon="104.302078">
<ele>208.322388</ele>
<time>2011-04-27T05:49:41Z</time>
<desc>lat.=22.138361, lon.=104.302078, Alt.=208.322388m. Speed=0.000000m/h.</desc>
<speed>0.000000</speed>
</trkpt>
<trkpt lat="22.138361" lon="104.302078">
<ele>208.349731</ele>
<time>2011-04-27T05:49:46Z</time>
<desc>lat.=22.138361, lon.=104.302078, Alt.=208.349731m. Speed=0.036000m/h.</desc>
<speed>0.010000</speed>
</trkpt>
<trkpt lat="22.138357" lon="104.302078">
<ele>208.396606</ele>
<time>2011-04-27T05:49:51Z</time>
<desc>lat.=22.138357, lon.=104.302078, Alt.=208.396606m. Speed=0.324000m/h.</desc>
<speed>0.090000</speed>
</trkpt>
<trkpt lat="22.138350" lon="104.302086">
<ele>208.310669</ele>
<time>2011-04-27T05:49:56Z</time>
<desc>lat.=22.138350, lon.=104.302086, Alt.=208.310669m. Speed=3.528000m/h.</desc>
<speed>0.980000</speed>
</trkpt>
<trkpt lat="22.138315" lon="104.302101">
<ele>208.154419</ele>
<time>2011-04-27T05:50:01Z</time>
<desc>lat.=22.138315, lon.=104.302101, Alt.=208.154419m. Speed=2.700000m/h.</desc>
<speed>0.750000</speed>
</trkpt>
<trkpt lat="22.138260" lon="104.302170">
<ele>208.677856</ele>
<time>2011-04-27T05:50:06Z</time>
<desc>lat.=22.138260, lon.=104.302170, Alt.=208.677856m. Speed=6.912000m/h.</desc>
<speed>1.920000</speed>
</trkpt>
<trkpt lat="22.138218" lon="104.302231">
<ele>209.158325</ele>
<time>2011-04-27T05:50:11Z</time>
<desc>lat.=22.138218, lon.=104.302231, Alt.=209.158325m. Speed=5.940000m/h.</desc>
<speed>1.650000</speed>
</trkpt>
<trkpt lat="22.138186" lon="104.302292">
<ele>209.810669</ele>
<time>2011-04-27T05:50:16Z</time>
<desc>lat.=22.138186, lon.=104.302292, Alt.=209.810669m. Speed=4.356000m/h.</desc>
<speed>1.210000</speed>
</trkpt>
<trkpt lat="22.138166" lon="104.302330">
<ele>211.380981</ele>
<time>2011-04-27T05:50:21Z</time>
<desc>lat.=22.138166, lon.=104.302330, Alt.=211.380981m. Speed=6.372000m/h.</desc>
<speed>1.770000</speed>
</trkpt>
<trkpt lat="22.138180" lon="104.302414">
<ele>211.716919</ele>
<time>2011-04-27T05:50:26Z</time>
<desc>lat.=22.138180, lon.=104.302414, Alt.=211.716919m. Speed=4.968000m/h.</desc>
<speed>1.380000</speed>
</trkpt>
<trkpt lat="22.138189" lon="104.302460">
<ele>212.838013</ele>
<time>2011-04-27T05:50:31Z</time>
<desc>lat.=22.138189, lon.=104.302460, Alt.=212.838013m. Speed=2.088000m/h.</desc>
<speed>0.580000</speed>
</trkpt>
<trkpt lat="22.138222" lon="104.302498">
<ele>213.470825</ele>
<time>2011-04-27T05:50:36Z</time>
<desc>lat.=22.138222, lon.=104.302498, Alt.=213.470825m. Speed=4.032000m/h.</desc>
<speed>1.120000</speed>
</trkpt>
<trkpt lat="22.138281" lon="104.302536">
<ele>214.138794</ele>
<time>2011-04-27T05:50:41Z</time>
<desc>lat.=22.138281, lon.=104.302536, Alt.=214.138794m. Speed=4.356000m/h.</desc>
<speed>1.210000</speed>
</trkpt>
<trkpt lat="22.138325" lon="104.302597">
<ele>214.935669</ele>
<time>2011-04-27T05:50:46Z</time>
<desc>lat.=22.138325, lon.=104.302597, Alt.=214.935669m. Speed=4.536000m/h.</desc>
<speed>1.260000</speed>
</trkpt>
<trkpt lat="22.138372" lon="104.302628">
<ele>215.724731</ele>
<time>2011-04-27T05:50:51Z</time>
<desc>lat.=22.138372, lon.=104.302628, Alt.=215.724731m. Speed=4.536000m/h.</desc>
<speed>1.260000</speed>
</trkpt>
<trkpt lat="22.138426" lon="104.302681">
<ele>216.127075</ele>
<time>2011-04-27T05:50:56Z</time>
<desc>lat.=22.138426, lon.=104.302681, Alt.=216.127075m. Speed=4.284000m/h.</desc>
<speed>1.190000</speed>
</trkpt>
<trkpt lat="22.138483" lon="104.302742">
<ele>217.326294</ele>
<time>2011-04-27T05:51:01Z</time>
<desc>lat.=22.138483, lon.=104.302742, Alt.=217.326294m. Speed=4.572000m/h.</desc>
<speed>1.270000</speed>
</trkpt>
<trkpt lat="22.138523" lon="104.302788">
<ele>217.123169</ele>
<time>2011-04-27T05:51:06Z</time>
<desc>lat.=22.138523, lon.=104.302788, Alt.=217.123169m. Speed=4.968000m/h.</desc>
<speed>1.380000</speed>
</trkpt>
<trkpt lat="22.138554" lon="104.302834">
<ele>216.896606</ele>
<time>2011-04-27T05:51:11Z</time>
<desc>lat.=22.138554, lon.=104.302834, Alt.=216.896606m. Speed=3.204000m/h.</desc>
<speed>0.890000</speed>
</trkpt>
<trkpt lat="22.138580" lon="104.302887">
<ele>217.341919</ele>
<time>2011-04-27T05:51:16Z</time>
<desc>lat.=22.138580, lon.=104.302887, Alt.=217.341919m. Speed=4.140000m/h.</desc>
<speed>1.150000</speed>
</trkpt>
<trkpt lat="22.138622" lon="104.302940">
<ele>215.990356</ele>
<time>2011-04-27T05:51:21Z</time>
<desc>lat.=22.138622, lon.=104.302940, Alt.=215.990356m. Speed=4.932000m/h.</desc>
<speed>1.370000</speed>
</trkpt>
<trkpt lat="22.138668" lon="104.303001">
<ele>215.232544</ele>
<time>2011-04-27T05:51:26Z</time>
<desc>lat.=22.138668, lon.=104.303001, Alt.=215.232544m. Speed=5.652000m/h.</desc>
<speed>1.570000</speed>
</trkpt>
<trkpt lat="22.138702" lon="104.303070">
<ele>215.771606</ele>
<time>2011-04-27T05:51:31Z</time>
<desc>lat.=22.138702, lon.=104.303070, Alt.=215.771606m. Speed=5.760000m/h.</desc>
<speed>1.600000</speed>
</trkpt>
<trkpt lat="22.138727" lon="104.303123">
<ele>217.338013</ele>
<time>2011-04-27T05:51:36Z</time>
<desc>lat.=22.138727, lon.=104.303123, Alt.=217.338013m. Speed=5.472000m/h.</desc>
<speed>1.520000</speed>
</trkpt>
<trkpt lat="22.138775" lon="104.303177">
<ele>217.209106</ele>
<time>2011-04-27T05:51:41Z</time>
<desc>lat.=22.138775, lon.=104.303177, Alt.=217.209106m. Speed=4.896000m/h.</desc>
<speed>1.360000</speed>
</trkpt>
<trkpt lat="22.138830" lon="104.303223">
<ele>217.857544</ele>
<time>2011-04-27T05:51:46Z</time>
<desc>lat.=22.138830, lon.=104.303223, Alt.=217.857544m. Speed=4.968000m/h.</desc>
<speed>1.380000</speed>
</trkpt>
<trkpt lat="22.138876" lon="104.303253">
<ele>218.998169</ele>
<time>2011-04-27T05:51:51Z</time>
<desc>lat.=22.138876, lon.=104.303253, Alt.=218.998169m. Speed=2.772000m/h.</desc>
<speed>0.770000</speed>
</trkpt>
<trkpt lat="22.138922" lon="104.303268">
<ele>220.279419</ele>
<time>2011-04-27T05:51:56Z</time>
<desc>lat.=22.138922, lon.=104.303268, Alt.=220.279419m. Speed=4.428000m/h.</desc>
<speed>1.230000</speed>
</trkpt>
<trkpt lat="22.138975" lon="104.303284">
<ele>221.732544</ele>
<time>2011-04-27T05:52:01Z</time>
<desc>lat.=22.138975, lon.=104.303284, Alt.=221.732544m. Speed=4.860000m/h.</desc>
<speed>1.350000</speed>
</trkpt>
<trkpt lat="22.139042" lon="104.303307">
<ele>222.701294</ele>
<time>2011-04-27T05:52:06Z</time>
<desc>lat.=22.139042, lon.=104.303307, Alt.=222.701294m. Speed=4.572000m/h.</desc>
<speed>1.270000</speed>
</trkpt>
<trkpt lat="22.139105" lon="104.303322">
<ele>224.080200</ele>
<time>2011-04-27T05:52:11Z</time>
<desc>lat.=22.139105, lon.=104.303322, Alt.=224.080200m. Speed=4.608000m/h.</desc>
<speed>1.280000</speed>
</trkpt>
<trkpt lat="22.139162" lon="104.303337">
<ele>225.623169</ele>
<time>2011-04-27T05:52:16Z</time>
<desc>lat.=22.139162, lon.=104.303337, Alt.=225.623169m. Speed=3.744000m/h.</desc>
<speed>1.040000</speed>
</trkpt>
<trkpt lat="22.139219" lon="104.303352">
<ele>226.466919</ele>
<time>2011-04-27T05:52:21Z</time>
<desc>lat.=22.139219, lon.=104.303352, Alt.=226.466919m. Speed=4.608000m/h.</desc>
<speed>1.280000</speed>
</trkpt>
<trkpt lat="22.139299" lon="104.303375">
<ele>225.463013</ele>
<time>2011-04-27T05:52:26Z</time>
<desc>lat.=22.139299, lon.=104.303375, Alt.=225.463013m. Speed=4.500000m/h.</desc>
<speed>1.250000</speed>
</trkpt>
<trkpt lat="22.139357" lon="104.303398">
<ele>224.818481</ele>
<time>2011-04-27T05:52:31Z</time>
<desc>lat.=22.139357, lon.=104.303398, Alt.=224.818481m. Speed=6.048000m/h.</desc>
<speed>1.680000</speed>
</trkpt>
<trkpt lat="22.139414" lon="104.303421">
<ele>224.045044</ele>
<time>2011-04-27T05:52:36Z</time>
<desc>lat.=22.139414, lon.=104.303421, Alt.=224.045044m. Speed=3.708000m/h.</desc>
<speed>1.030000</speed>
</trkpt>
<trkpt lat="22.139462" lon="104.303452">
<ele>224.482544</ele>
<time>2011-04-27T05:52:41Z</time>
<desc>lat.=22.139462, lon.=104.303452, Alt.=224.482544m. Speed=4.500000m/h.</desc>
<speed>1.250000</speed>
</trkpt>
<trkpt lat="22.139517" lon="104.303467">
<ele>224.334106</ele>
<time>2011-04-27T05:52:46Z</time>
<desc>lat.=22.139517, lon.=104.303467, Alt.=224.334106m. Speed=4.896000m/h.</desc>
<speed>1.360000</speed>
</trkpt>
<trkpt lat="22.139580" lon="104.303490">
<ele>225.185669</ele>
<time>2011-04-27T05:52:51Z</time>
<desc>lat.=22.139580, lon.=104.303490, Alt.=225.185669m. Speed=5.400000m/h.</desc>
<speed>1.500000</speed>
</trkpt>
<trkpt lat="22.139631" lon="104.303520">
<ele>225.502075</ele>
<time>2011-04-27T05:52:56Z</time>
<desc>lat.=22.139631, lon.=104.303520, Alt.=225.502075m. Speed=4.176000m/h.</desc>
<speed>1.160000</speed>
</trkpt>
<trkpt lat="22.139713" lon="104.303543">
<ele>226.966919</ele>
<time>2011-04-27T05:53:01Z</time>
<desc>lat.=22.139713, lon.=104.303543, Alt.=226.966919m. Speed=5.364000m/h.</desc>
<speed>1.490000</speed>
</trkpt>
<trkpt lat="22.139771" lon="104.303574">
<ele>228.064575</ele>
<time>2011-04-27T05:53:06Z</time>
<desc>lat.=22.139771, lon.=104.303574, Alt.=228.064575m. Speed=4.824000m/h.</desc>
<speed>1.340000</speed>
</trkpt>
<trkpt lat="22.139835" lon="104.303604">
<ele>228.306763</ele>
<time>2011-04-27T05:53:11Z</time>
<desc>lat.=22.139835, lon.=104.303604, Alt.=228.306763m. Speed=6.120000m/h.</desc>
<speed>1.700000</speed>
</trkpt>
<trkpt lat="22.139889" lon="104.303650">
<ele>229.088013</ele>
<time>2011-04-27T05:53:16Z</time>
<desc>lat.=22.139889, lon.=104.303650, Alt.=229.088013m. Speed=4.320000m/h.</desc>
<speed>1.200000</speed>
</trkpt>
<trkpt lat="22.139950" lon="104.303696">
<ele>229.896606</ele>
<time>2011-04-27T05:53:21Z</time>
<desc>lat.=22.139950, lon.=104.303696, Alt.=229.896606m. Speed=5.112000m/h.</desc>
<speed>1.420000</speed>
</trkpt>
<trkpt lat="22.139996" lon="104.303757">
<ele>230.845825</ele>
<time>2011-04-27T05:53:26Z</time>
<desc>lat.=22.139996, lon.=104.303757, Alt.=230.845825m. Speed=5.472000m/h.</desc>
<speed>1.520000</speed>
</trkpt>
<trkpt lat="22.140041" lon="104.303810">
<ele>232.302856</ele>
<time>2011-04-27T05:53:31Z</time>
<desc>lat.=22.140041, lon.=104.303810, Alt.=232.302856m. Speed=4.716000m/h.</desc>
<speed>1.310000</speed>
</trkpt>
<trkpt lat="22.140087" lon="104.303856">
<ele>233.861450</ele>
<time>2011-04-27T05:53:36Z</time>
<desc>lat.=22.140087, lon.=104.303856, Alt.=233.861450m. Speed=5.076000m/h.</desc>
<speed>1.410000</speed>
</trkpt>
<trkpt lat="22.140127" lon="104.303932">
<ele>235.771606</ele>
<time>2011-04-27T05:53:41Z</time>
<desc>lat.=22.140127, lon.=104.303932, Alt.=235.771606m. Speed=5.292000m/h.</desc>
<speed>1.470000</speed>
</trkpt>
<trkpt lat="22.140150" lon="104.304001">
<ele>237.216919</ele>
<time>2011-04-27T05:53:46Z</time>
<desc>lat.=22.140150, lon.=104.304001, Alt.=237.216919m. Speed=5.184000m/h.</desc>
<speed>1.440000</speed>
</trkpt>
<trkpt lat="22.140154" lon="104.304070">
<ele>239.025513</ele>
<time>2011-04-27T05:53:51Z</time>
<desc>lat.=22.140154, lon.=104.304070, Alt.=239.025513m. Speed=4.716000m/h.</desc>
<speed>1.310000</speed>
</trkpt>
<trkpt lat="22.140135" lon="104.304115">
<ele>240.654419</ele>
<time>2011-04-27T05:53:56Z</time>
<desc>lat.=22.140135, lon.=104.304115, Alt.=240.654419m. Speed=4.896000m/h.</desc>
<speed>1.360000</speed>
</trkpt>
<trkpt lat="22.140114" lon="104.304169">
<ele>241.951294</ele>
<time>2011-04-27T05:54:01Z</time>
<desc>lat.=22.140114, lon.=104.304169, Alt.=241.951294m. Speed=1.224000m/h.</desc>
<speed>0.340000</speed>
</trkpt>
<trkpt lat="22.140102" lon="104.304192">
<ele>243.322388</ele>
<time>2011-04-27T05:54:06Z</time>
<desc>lat.=22.140102, lon.=104.304192, Alt.=243.322388m. Speed=0.504000m/h.</desc>
<speed>0.140000</speed>
</trkpt>
<trkpt lat="22.140093" lon="104.304192">
<ele>244.306763</ele>
<time>2011-04-27T05:54:11Z</time>
<desc>lat.=22.140093, lon.=104.304192, Alt.=244.306763m. Speed=0.684000m/h.</desc>
<speed>0.190000</speed>
</trkpt>
<trkpt lat="22.140083" lon="104.304192">
<ele>245.091919</ele>
<time>2011-04-27T05:54:16Z</time>
<desc>lat.=22.140083, lon.=104.304192, Alt.=245.091919m. Speed=0.900000m/h.</desc>
<speed>0.250000</speed>
</trkpt>
<trkpt lat="22.140072" lon="104.304192">
<ele>245.830200</ele>
<time>2011-04-27T05:54:21Z</time>
<desc>lat.=22.140072, lon.=104.304192, Alt.=245.830200m. Speed=0.864000m/h.</desc>
<speed>0.240000</speed>
</trkpt>
<trkpt lat="22.140062" lon="104.304199">
<ele>246.463013</ele>
<time>2011-04-27T05:54:26Z</time>
<desc>lat.=22.140062, lon.=104.304199, Alt.=246.463013m. Speed=0.648000m/h.</desc>
<speed>0.180000</speed>
</trkpt>
<trkpt lat="22.140055" lon="104.304199">
<ele>247.060669</ele>
<time>2011-04-27T05:54:31Z</time>
<desc>lat.=22.140055, lon.=104.304199, Alt.=247.060669m. Speed=0.432000m/h.</desc>
<speed>0.120000</speed>
</trkpt>
<trkpt lat="22.140051" lon="104.304199">
<ele>247.630981</ele>
<time>2011-04-27T05:54:36Z</time>
<desc>lat.=22.140051, lon.=104.304199, Alt.=247.630981m. Speed=0.216000m/h.</desc>
<speed>0.060000</speed>
</trkpt>
<trkpt lat="22.140051" lon="104.304199">
<ele>248.197388</ele>
<time>2011-04-27T05:54:41Z</time>
<desc>lat.=22.140051, lon.=104.304199, Alt.=248.197388m. Speed=0.072000m/h.</desc>
<speed>0.020000</speed>
</trkpt>
<trkpt lat="22.140051" lon="104.304199">
<ele>248.748169</ele>
<time>2011-04-27T05:54:46Z</time>
<desc>lat.=22.140051, lon.=104.304199, Alt.=248.748169m. Speed=0.036000m/h.</desc>
<speed>0.010000</speed>
</trkpt>
<trkpt lat="22.140053" lon="104.304199">
<ele>249.326294</ele>
<time>2011-04-27T05:54:51Z</time>
<desc>lat.=22.140053, lon.=104.304199, Alt.=249.326294m. Speed=0.036000m/h.</desc>
<speed>0.010000</speed>
</trkpt>
<trkpt lat="22.140053" lon="104.304199">
<ele>249.916138</ele>
<time>2011-04-27T05:54:56Z</time>
<desc>lat.=22.140053, lon.=104.304199, Alt.=249.916138m. Speed=0.036000m/h.</desc>
<speed>0.010000</speed>
</trkpt>
<trkpt lat="22.140053" lon="104.304199">
<ele>250.505981</ele>
<time>2011-04-27T05:55:01Z</time>
<desc>lat.=22.140053, lon.=104.304199, Alt.=250.505981m. Speed=0.072000m/h.</desc>
<speed>0.020000</speed>
</trkpt>
<trkpt lat="22.140055" lon="104.304199">
<ele>251.123169</ele>
<time>2011-04-27T05:55:06Z</time>
<desc>lat.=22.140055, lon.=104.304199, Alt.=251.123169m. Speed=0.036000m/h.</desc>
<speed>0.010000</speed>
</trkpt>
<trkpt lat="22.140055" lon="104.304199">
<ele>251.720825</ele>
<time>2011-04-27T05:55:11Z</time>
<desc>lat.=22.140055, lon.=104.304199, Alt.=251.720825m. Speed=0.072000m/h.</desc>
<speed>0.020000</speed>
</trkpt>
<trkpt lat="22.140055" lon="104.304199">
<ele>252.314575</ele>
<time>2011-04-27T05:55:16Z</time>
<desc>lat.=22.140055, lon.=104.304199, Alt.=252.314575m. Speed=0.000000m/h.</desc>
<speed>0.000000</speed>
</trkpt>
<trkpt lat="22.140055" lon="104.304199">
<ele>252.904419</ele>
<time>2011-04-27T05:55:21Z</time>
<desc>lat.=22.140055, lon.=104.304199, Alt.=252.904419m. Speed=0.036000m/h.</desc>
<speed>0.010000</speed>
</trkpt>
<trkpt lat="22.140057" lon="104.304199">
<ele>253.490356</ele>
<time>2011-04-27T05:55:26Z</time>
<desc>lat.=22.140057, lon.=104.304199, Alt.=253.490356m. Speed=0.144000m/h.</desc>
<speed>0.040000</speed>
</trkpt>
<trkpt lat="22.140057" lon="104.304199">
<ele>254.072388</ele>
<time>2011-04-27T05:55:31Z</time>
<desc>lat.=22.140057, lon.=104.304199, Alt.=254.072388m. Speed=0.072000m/h.</desc>
<speed>0.020000</speed>
</trkpt>
<trkpt lat="22.140057" lon="104.304199">
<ele>254.658325</ele>
<time>2011-04-27T05:55:36Z</time>
<desc>lat.=22.140057, lon.=104.304199, Alt.=254.658325m. Speed=0.036000m/h.</desc>
<speed>0.010000</speed>
</trkpt>
<trkpt lat="22.140057" lon="104.304199">
<ele>255.224731</ele>
<time>2011-04-27T05:55:41Z</time>
<desc>lat.=22.140057, lon.=104.304199, Alt.=255.224731m. Speed=0.036000m/h.</desc>
<speed>0.010000</speed>
</trkpt>
<trkpt lat="22.140057" lon="104.304199">
<ele>255.787231</ele>
<time>2011-04-27T05:55:46Z</time>
<desc>lat.=22.140057, lon.=104.304199, Alt.=255.787231m. Speed=0.036000m/h.</desc>
<speed>0.010000</speed>
</trkpt>
<trkpt lat="22.140057" lon="104.304199">
<ele>256.347900</ele>
<time>2011-04-27T05:55:51Z</time>
<desc>lat.=22.140057, lon.=104.304199, Alt.=256.347900m. Speed=0.000000m/h.</desc>
<speed>0.000000</speed>
</trkpt>
<trkpt lat="22.140059" lon="104.304207">
<ele>256.918213</ele>
<time>2011-04-27T05:55:56Z</time>
<desc>lat.=22.140059, lon.=104.304207, Alt.=256.918213m. Speed=0.000000m/h.</desc>
<speed>0.000000</speed>
</trkpt>
<trkpt lat="22.140059" lon="104.304207">
<ele>257.496338</ele>
<time>2011-04-27T05:56:01Z</time>
<desc>lat.=22.140059, lon.=104.304207, Alt.=257.496338m. Speed=0.072000m/h.</desc>
<speed>0.020000</speed>
</trkpt>
<trkpt lat="22.140059" lon="104.304207">
<ele>258.074463</ele>
<time>2011-04-27T05:56:06Z</time>
<desc>lat.=22.140059, lon.=104.304207, Alt.=258.074463m. Speed=0.036000m/h.</desc>
<speed>0.010000</speed>
</trkpt>
<trkpt lat="22.140060" lon="104.304207">
<ele>258.644775</ele>
<time>2011-04-27T05:56:11Z</time>
<desc>lat.=22.140060, lon.=104.304207, Alt.=258.644775m. Speed=0.036000m/h.</desc>
<speed>0.010000</speed>
</trkpt>
<trkpt lat="22.140060" lon="104.304207">
<ele>259.207275</ele>
<time>2011-04-27T05:56:16Z</time>
<desc>lat.=22.140060, lon.=104.304207, Alt.=259.207275m. Speed=0.036000m/h.</desc>
<speed>0.010000</speed>
</trkpt>
<trkpt lat="22.140060" lon="104.304207">
<ele>259.793213</ele>
<time>2011-04-27T05:56:21Z</time>
<desc>lat.=22.140060, lon.=104.304207, Alt.=259.793213m. Speed=0.036000m/h.</desc>
<speed>0.010000</speed>
</trkpt>
<trkpt lat="22.140060" lon="104.304207">
<ele>260.379150</ele>
<time>2011-04-27T05:56:26Z</time>
<desc>lat.=22.140060, lon.=104.304207, Alt.=260.379150m. Speed=0.072000m/h.</desc>
<speed>0.020000</speed>
</trkpt>
<trkpt lat="22.140062" lon="104.304207">
<ele>260.949463</ele>
<time>2011-04-27T05:56:31Z</time>
<desc>lat.=22.140062, lon.=104.304207, Alt.=260.949463m. Speed=0.000000m/h.</desc>
<speed>0.000000</speed>
</trkpt>
<trkpt lat="22.140062" lon="104.304207">
<ele>261.496338</ele>
<time>2011-04-27T05:56:36Z</time>
<desc>lat.=22.140062, lon.=104.304207, Alt.=261.496338m. Speed=0.000000m/h.</desc>
<speed>0.000000</speed>
</trkpt>
<trkpt lat="22.140062" lon="104.304207">
<ele>261.996338</ele>
<time>2011-04-27T05:56:41Z</time>
<desc>lat.=22.140062, lon.=104.304207, Alt.=261.996338m. Speed=0.000000m/h.</desc>
<speed>0.000000</speed>
</trkpt>
<trkpt lat="22.140062" lon="104.304207">
<ele>262.418213</ele>
<time>2011-04-27T05:56:46Z</time>
<desc>lat.=22.140062, lon.=104.304207, Alt.=262.418213m. Speed=0.000000m/h.</desc>
<speed>0.000000</speed>
</trkpt>
<trkpt lat="22.140064" lon="104.304207">
<ele>262.808838</ele>
<time>2011-04-27T05:56:51Z</time>
<desc>lat.=22.140064, lon.=104.304207, Alt.=262.808838m. Speed=0.072000m/h.</desc>
<speed>0.020000</speed>
</trkpt>
<trkpt lat="22.140064" lon="104.304207">
<ele>263.176025</ele>
<time>2011-04-27T05:56:56Z</time>
<desc>lat.=22.140064, lon.=104.304207, Alt.=263.176025m. Speed=0.108000m/h.</desc>
<speed>0.030000</speed>
</trkpt>
<trkpt lat="22.140064" lon="104.304207">
<ele>263.535400</ele>
<time>2011-04-27T05:57:01Z</time>
<desc>lat.=22.140064, lon.=104.304207, Alt.=263.535400m. Speed=0.144000m/h.</desc>
<speed>0.040000</speed>
</trkpt>
<trkpt lat="22.140066" lon="104.304199">
<ele>263.879150</ele>
<time>2011-04-27T05:57:06Z</time>
<desc>lat.=22.140066, lon.=104.304199, Alt.=263.879150m. Speed=0.144000m/h.</desc>
<speed>0.040000</speed>
</trkpt>
<trkpt lat="22.140066" lon="104.304199">
<ele>264.191650</ele>
<time>2011-04-27T05:57:11Z</time>
<desc>lat.=22.140066, lon.=104.304199, Alt.=264.191650m. Speed=0.288000m/h.</desc>
<speed>0.080000</speed>
</trkpt>
<trkpt lat="22.140064" lon="104.304207">
<ele>264.488525</ele>
<time>2011-04-27T05:57:16Z</time>
<desc>lat.=22.140064, lon.=104.304207, Alt.=264.488525m. Speed=0.324000m/h.</desc>
<speed>0.090000</speed>
</trkpt>
<trkpt lat="22.140060" lon="104.304207">
<ele>264.769775</ele>
<time>2011-04-27T05:57:21Z</time>
<desc>lat.=22.140060, lon.=104.304207, Alt.=264.769775m. Speed=0.432000m/h.</desc>
<speed>0.120000</speed>
</trkpt>
<trkpt lat="22.140057" lon="104.304214">
<ele>265.051025</ele>
<time>2011-04-27T05:57:26Z</time>
<desc>lat.=22.140057, lon.=104.304214, Alt.=265.051025m. Speed=0.540000m/h.</desc>
<speed>0.150000</speed>
</trkpt>
<trkpt lat="22.140051" lon="104.304222">
<ele>265.308838</ele>
<time>2011-04-27T05:57:31Z</time>
<desc>lat.=22.140051, lon.=104.304222, Alt.=265.308838m. Speed=0.468000m/h.</desc>
<speed>0.130000</speed>
</trkpt>
<trkpt lat="22.140049" lon="104.304222">
<ele>265.558838</ele>
<time>2011-04-27T05:57:36Z</time>
<desc>lat.=22.140049, lon.=104.304222, Alt.=265.558838m. Speed=0.216000m/h.</desc>
<speed>0.060000</speed>
</trkpt>
<trkpt lat="22.140047" lon="104.304214">
<ele>265.777588</ele>
<time>2011-04-27T05:57:41Z</time>
<desc>lat.=22.140047, lon.=104.304214, Alt.=265.777588m. Speed=0.288000m/h.</desc>
<speed>0.080000</speed>
</trkpt>
<trkpt lat="22.140045" lon="104.304214">
<ele>265.980713</ele>
<time>2011-04-27T05:57:46Z</time>
<desc>lat.=22.140045, lon.=104.304214, Alt.=265.980713m. Speed=0.072000m/h.</desc>
<speed>0.020000</speed>
</trkpt>
<trkpt lat="22.140045" lon="104.304214">
<ele>266.105713</ele>
<time>2011-04-27T05:57:51Z</time>
<desc>lat.=22.140045, lon.=104.304214, Alt.=266.105713m. Speed=0.036000m/h.</desc>
<speed>0.010000</speed>
</trkpt>
<trkpt lat="22.140045" lon="104.304214">
<ele>266.082275</ele>
<time>2011-04-27T05:57:56Z</time>
<desc>lat.=22.140045, lon.=104.304214, Alt.=266.082275m. Speed=0.036000m/h.</desc>
<speed>0.010000</speed>
</trkpt>
<trkpt lat="22.140045" lon="104.304214">
<ele>266.074463</ele>
<time>2011-04-27T05:58:01Z</time>
<desc>lat.=22.140045, lon.=104.304214, Alt.=266.074463m. Speed=0.000000m/h.</desc>
<speed>0.000000</speed>
</trkpt>
<trkpt lat="22.140047" lon="104.304214">
<ele>266.074463</ele>
<time>2011-04-27T05:58:06Z</time>
<desc>lat.=22.140047, lon.=104.304214, Alt.=266.074463m. Speed=0.108000m/h.</desc>
<speed>0.030000</speed>
</trkpt>
<trkpt lat="22.140047" lon="104.304214">
<ele>266.074463</ele>
<time>2011-04-27T05:58:11Z</time>
<desc>lat.=22.140047, lon.=104.304214, Alt.=266.074463m. Speed=0.000000m/h.</desc>
<speed>0.000000</speed>
</trkpt>
<trkpt lat="22.140047" lon="104.304214">
<ele>266.082275</ele>
<time>2011-04-27T05:58:16Z</time>
<desc>lat.=22.140047, lon.=104.304214, Alt.=266.082275m. Speed=0.000000m/h.</desc>
<speed>0.000000</speed>
</trkpt>
<trkpt lat="22.140049" lon="104.304214">
<ele>266.090088</ele>
<time>2011-04-27T05:58:21Z</time>
<desc>lat.=22.140049, lon.=104.304214, Alt.=266.090088m. Speed=0.000000m/h.</desc>
<speed>0.000000</speed>
</trkpt>
<trkpt lat="22.140049" lon="104.304214">
<ele>266.097900</ele>
<time>2011-04-27T05:58:26Z</time>
<desc>lat.=22.140049, lon.=104.304214, Alt.=266.097900m. Speed=0.000000m/h.</desc>
<speed>0.000000</speed>
</trkpt>
<trkpt lat="22.140049" lon="104.304214">
<ele>266.074463</ele>
<time>2011-04-27T05:58:31Z</time>
<desc>lat.=22.140049, lon.=104.304214, Alt.=266.074463m. Speed=0.000000m/h.</desc>
<speed>0.000000</speed>
</trkpt>
<trkpt lat="22.140049" lon="104.304214">
<ele>266.074463</ele>
<time>2011-04-27T05:58:36Z</time>
<desc>lat.=22.140049, lon.=104.304214, Alt.=266.074463m. Speed=0.000000m/h.</desc>
<speed>0.000000</speed>
</trkpt>
<trkpt lat="22.140049" lon="104.304214">
<ele>266.066650</ele>
<time>2011-04-27T05:58:41Z</time>
<desc>lat.=22.140049, lon.=104.304214, Alt.=266.066650m. Speed=0.036000m/h.</desc>
<speed>0.010000</speed>
</trkpt>
<trkpt lat="22.140049" lon="104.304214">
<ele>266.066650</ele>
<time>2011-04-27T05:58:46Z</time>
<desc>lat.=22.140049, lon.=104.304214, Alt.=266.066650m. Speed=0.036000m/h.</desc>
<speed>0.010000</speed>
</trkpt>
<trkpt lat="22.140049" lon="104.304214">
<ele>266.066650</ele>
<time>2011-04-27T05:58:51Z</time>
<desc>lat.=22.140049, lon.=104.304214, Alt.=266.066650m. Speed=0.000000m/h.</desc>
<speed>0.000000</speed>
</trkpt>
<trkpt lat="22.140049" lon="104.304214">
<ele>266.082275</ele>
<time>2011-04-27T05:58:56Z</time>
<desc>lat.=22.140049, lon.=104.304214, Alt.=266.082275m. Speed=0.036000m/h.</desc>
<speed>0.010000</speed>
</trkpt>
<trkpt lat="22.140049" lon="104.304214">
<ele>266.066650</ele>
<time>2011-04-27T05:59:01Z</time>
<desc>lat.=22.140049, lon.=104.304214, Alt.=266.066650m. Speed=0.000000m/h.</desc>
<speed>0.000000</speed>
</trkpt>
<trkpt lat="22.140049" lon="104.304214">
<ele>266.051025</ele>
<time>2011-04-27T05:59:06Z</time>
<desc>lat.=22.140049, lon.=104.304214, Alt.=266.051025m. Speed=0.036000m/h.</desc>
<speed>0.010000</speed>
</trkpt>
<trkpt lat="22.140049" lon="104.304214">
<ele>266.019775</ele>
<time>2011-04-27T05:59:11Z</time>
<desc>lat.=22.140049, lon.=104.304214, Alt.=266.019775m. Speed=0.000000m/h.</desc>
<speed>0.000000</speed>
</trkpt>
<trkpt lat="22.140049" lon="104.304214">
<ele>266.004150</ele>
<time>2011-04-27T05:59:16Z</time>
<desc>lat.=22.140049, lon.=104.304214, Alt.=266.004150m. Speed=0.000000m/h.</desc>
<speed>0.000000</speed>
</trkpt>
<trkpt lat="22.140051" lon="104.304214">
<ele>265.996338</ele>
<time>2011-04-27T05:59:21Z</time>
<desc>lat.=22.140051, lon.=104.304214, Alt.=265.996338m. Speed=0.000000m/h.</desc>
<speed>0.000000</speed>
</trkpt>
<trkpt lat="22.140051" lon="104.304214">
<ele>265.980713</ele>
<time>2011-04-27T05:59:26Z</time>
<desc>lat.=22.140051, lon.=104.304214, Alt.=265.980713m. Speed=0.000000m/h.</desc>
<speed>0.000000</speed>
</trkpt>
<trkpt lat="22.140051" lon="104.304214">
<ele>265.965088</ele>
<time>2011-04-27T05:59:31Z</time>
<desc>lat.=22.140051, lon.=104.304214, Alt.=265.965088m. Speed=0.000000m/h.</desc>
<speed>0.000000</speed>
</trkpt>
<trkpt lat="22.140051" lon="104.304214">
<ele>265.949463</ele>
<time>2011-04-27T05:59:36Z</time>
<desc>lat.=22.140051, lon.=104.304214, Alt.=265.949463m. Speed=0.000000m/h.</desc>
<speed>0.000000</speed>
</trkpt>
<trkpt lat="22.140051" lon="104.304214">
<ele>265.933838</ele>
<time>2011-04-27T05:59:41Z</time>
<desc>lat.=22.140051, lon.=104.304214, Alt.=265.933838m. Speed=0.000000m/h.</desc>
<speed>0.000000</speed>
</trkpt>
<trkpt lat="22.140051" lon="104.304214">
<ele>265.933838</ele>
<time>2011-04-27T05:59:46Z</time>
<desc>lat.=22.140051, lon.=104.304214, Alt.=265.933838m. Speed=0.000000m/h.</desc>
<speed>0.000000</speed>
</trkpt>
<trkpt lat="22.140051" lon="104.304214">
<ele>265.926025</ele>
<time>2011-04-27T05:59:51Z</time>
<desc>lat.=22.140051, lon.=104.304214, Alt.=265.926025m. Speed=0.000000m/h.</desc>
<speed>0.000000</speed>
</trkpt>
<trkpt lat="22.140051" lon="104.304214">
<ele>265.910400</ele>
<time>2011-04-27T05:59:56Z</time>
<desc>lat.=22.140051, lon.=104.304214, Alt.=265.910400m. Speed=0.000000m/h.</desc>
<speed>0.000000</speed>
</trkpt>
<trkpt lat="22.140051" lon="104.304214">
<ele>265.894775</ele>
<time>2011-04-27T06:00:01Z</time>
<desc>lat.=22.140051, lon.=104.304214, Alt.=265.894775m. Speed=0.000000m/h.</desc>
<speed>0.000000</speed>
</trkpt>
<trkpt lat="22.140051" lon="104.304214">
<ele>265.879150</ele>
<time>2011-04-27T06:00:06Z</time>
<desc>lat.=22.140051, lon.=104.304214, Alt.=265.879150m. Speed=0.000000m/h.</desc>
<speed>0.000000</speed>
</trkpt>
<trkpt lat="22.140051" lon="104.304214">
<ele>265.847900</ele>
<time>2011-04-27T06:00:11Z</time>
<desc>lat.=22.140051, lon.=104.304214, Alt.=265.847900m. Speed=0.036000m/h.</desc>
<speed>0.010000</speed>
</trkpt>
<trkpt lat="22.140051" lon="104.304214">
<ele>265.816650</ele>
<time>2011-04-27T06:00:16Z</time>
<desc>lat.=22.140051, lon.=104.304214, Alt.=265.816650m. Speed=0.000000m/h.</desc>
<speed>0.000000</speed>
</trkpt>
<trkpt lat="22.140051" lon="104.304214">
<ele>265.777588</ele>
<time>2011-04-27T06:00:21Z</time>
<desc>lat.=22.140051, lon.=104.304214, Alt.=265.777588m. Speed=0.000000m/h.</desc>
<speed>0.000000</speed>
</trkpt>
<trkpt lat="22.140051" lon="104.304214">
<ele>265.746338</ele>
<time>2011-04-27T06:00:26Z</time>
<desc>lat.=22.140051, lon.=104.304214, Alt.=265.746338m. Speed=0.000000m/h.</desc>
<speed>0.000000</speed>
</trkpt>
<trkpt lat="22.140051" lon="104.304214">
<ele>265.699463</ele>
<time>2011-04-27T06:00:31Z</time>
<desc>lat.=22.140051, lon.=104.304214, Alt.=265.699463m. Speed=0.036000m/h.</desc>
<speed>0.010000</speed>
</trkpt>
<trkpt lat="22.140051" lon="104.304214">
<ele>265.668213</ele>
<time>2011-04-27T06:00:36Z</time>
<desc>lat.=22.140051, lon.=104.304214, Alt.=265.668213m. Speed=0.000000m/h.</desc>
<speed>0.000000</speed>
</trkpt>
<trkpt lat="22.140051" lon="104.304214">
<ele>265.613525</ele>
<time>2011-04-27T06:00:41Z</time>
<desc>lat.=22.140051, lon.=104.304214, Alt.=265.613525m. Speed=0.000000m/h.</desc>
<speed>0.000000</speed>
</trkpt>
<trkpt lat="22.140051" lon="104.304214">
<ele>265.566650</ele>
<time>2011-04-27T06:00:46Z</time>
<desc>lat.=22.140051, lon.=104.304214, Alt.=265.566650m. Speed=0.000000m/h.</desc>
<speed>0.000000</speed>
</trkpt>
<trkpt lat="22.140051" lon="104.304214">
<ele>265.535400</ele>
<time>2011-04-27T06:00:51Z</time>
<desc>lat.=22.140051, lon.=104.304214, Alt.=265.535400m. Speed=0.000000m/h.</desc>
<speed>0.000000</speed>
</trkpt>
<trkpt lat="22.140051" lon="104.304214">
<ele>265.480713</ele>
<time>2011-04-27T06:00:56Z</time>
<desc>lat.=22.140051, lon.=104.304214, Alt.=265.480713m. Speed=0.000000m/h.</desc>
<speed>0.000000</speed>
</trkpt>
<trkpt lat="22.140051" lon="104.304214">
<ele>265.433838</ele>
<time>2011-04-27T06:01:01Z</time>
<desc>lat.=22.140051, lon.=104.304214, Alt.=265.433838m. Speed=0.000000m/h.</desc>
<speed>0.000000</speed>
</trkpt>
<trkpt lat="22.140051" lon="104.304214">
<ele>265.340088</ele>
<time>2011-04-27T06:01:06Z</time>
<desc>lat.=22.140051, lon.=104.304214, Alt.=265.340088m. Speed=0.036000m/h.</desc>
<speed>0.010000</speed>
</trkpt>
<trkpt lat="22.140049" lon="104.304214">
<ele>265.191650</ele>
<time>2011-04-27T06:01:11Z</time>
<desc>lat.=22.140049, lon.=104.304214, Alt.=265.191650m. Speed=0.000000m/h.</desc>
<speed>0.000000</speed>
</trkpt>
<trkpt lat="22.140049" lon="104.304214">
<ele>264.972900</ele>
<time>2011-04-27T06:01:16Z</time>
<desc>lat.=22.140049, lon.=104.304214, Alt.=264.972900m. Speed=0.036000m/h.</desc>
<speed>0.010000</speed>
</trkpt>
<trkpt lat="22.140049" lon="104.304214">
<ele>264.715088</ele>
<time>2011-04-27T06:01:21Z</time>
<desc>lat.=22.140049, lon.=104.304214, Alt.=264.715088m. Speed=0.000000m/h.</desc>
<speed>0.000000</speed>
</trkpt>
<trkpt lat="22.140051" lon="104.304214">
<ele>264.426025</ele>
<time>2011-04-27T06:01:26Z</time>
<desc>lat.=22.140051, lon.=104.304214, Alt.=264.426025m. Speed=0.036000m/h.</desc>
<speed>0.010000</speed>
</trkpt>
<trkpt lat="22.140051" lon="104.304214">
<ele>264.144775</ele>
<time>2011-04-27T06:01:31Z</time>
<desc>lat.=22.140051, lon.=104.304214, Alt.=264.144775m. Speed=0.000000m/h.</desc>
<speed>0.000000</speed>
</trkpt>
<trkpt lat="22.140051" lon="104.304214">
<ele>264.074463</ele>
<time>2011-04-27T06:01:36Z</time>
<desc>lat.=22.140051, lon.=104.304214, Alt.=264.074463m. Speed=0.000000m/h.</desc>
<speed>0.000000</speed>
</trkpt>
<trkpt lat="22.140051" lon="104.304214">
<ele>264.129150</ele>
<time>2011-04-27T06:01:41Z</time>
<desc>lat.=22.140051, lon.=104.304214, Alt.=264.129150m. Speed=0.000000m/h.</desc>
<speed>0.000000</speed>
</trkpt>
<trkpt lat="22.140051" lon="104.304214">
<ele>264.324463</ele>
<time>2011-04-27T06:01:46Z</time>
<desc>lat.=22.140051, lon.=104.304214, Alt.=264.324463m. Speed=0.036000m/h.</desc>
<speed>0.010000</speed>
</trkpt>
<trkpt lat="22.140051" lon="104.304214">
<ele>264.613525</ele>
<time>2011-04-27T06:01:51Z</time>
<desc>lat.=22.140051, lon.=104.304214, Alt.=264.613525m. Speed=0.036000m/h.</desc>
<speed>0.010000</speed>
</trkpt>
<trkpt lat="22.140051" lon="104.304214">
<ele>264.933838</ele>
<time>2011-04-27T06:01:56Z</time>
<desc>lat.=22.140051, lon.=104.304214, Alt.=264.933838m. Speed=0.144000m/h.</desc>
<speed>0.040000</speed>
</trkpt>
<trkpt lat="22.140047" lon="104.304214">
<ele>265.176025</ele>
<time>2011-04-27T06:02:01Z</time>
<desc>lat.=22.140047, lon.=104.304214, Alt.=265.176025m. Speed=0.288000m/h.</desc>
<speed>0.080000</speed>
</trkpt>
<trkpt lat="22.140047" lon="104.304214">
<ele>265.379150</ele>
<time>2011-04-27T06:02:06Z</time>
<desc>lat.=22.140047, lon.=104.304214, Alt.=265.379150m. Speed=0.000000m/h.</desc>
<speed>0.000000</speed>
</trkpt>
<trkpt lat="22.140047" lon="104.304214">
<ele>265.504150</ele>
<time>2011-04-27T06:02:11Z</time>
<desc>lat.=22.140047, lon.=104.304214, Alt.=265.504150m. Speed=0.036000m/h.</desc>
<speed>0.010000</speed>
</trkpt>
<trkpt lat="22.140045" lon="104.304214">
<ele>265.558838</ele>
<time>2011-04-27T06:02:16Z</time>
<desc>lat.=22.140045, lon.=104.304214, Alt.=265.558838m. Speed=0.144000m/h.</desc>
<speed>0.040000</speed>
</trkpt>
<trkpt lat="22.140041" lon="104.304214">
<ele>265.511963</ele>
<time>2011-04-27T06:02:21Z</time>
<desc>lat.=22.140041, lon.=104.304214, Alt.=265.511963m. Speed=0.360000m/h.</desc>
<speed>0.100000</speed>
</trkpt>
<trkpt lat="22.140038" lon="104.304214">
<ele>265.418213</ele>
<time>2011-04-27T06:02:26Z</time>
<desc>lat.=22.140038, lon.=104.304214, Alt.=265.418213m. Speed=0.324000m/h.</desc>
<speed>0.090000</speed>
</trkpt>
<trkpt lat="22.140034" lon="104.304214">
<ele>265.324463</ele>
<time>2011-04-27T06:02:31Z</time>
<desc>lat.=22.140034, lon.=104.304214, Alt.=265.324463m. Speed=0.180000m/h.</desc>
<speed>0.050000</speed>
</trkpt>
<trkpt lat="22.140032" lon="104.304214">
<ele>265.230713</ele>
<time>2011-04-27T06:02:36Z</time>
<desc>lat.=22.140032, lon.=104.304214, Alt.=265.230713m. Speed=0.180000m/h.</desc>
<speed>0.050000</speed>
</trkpt>
<trkpt lat="22.140028" lon="104.304214">
<ele>265.152588</ele>
<time>2011-04-27T06:02:41Z</time>
<desc>lat.=22.140028, lon.=104.304214, Alt.=265.152588m. Speed=0.180000m/h.</desc>
<speed>0.050000</speed>
</trkpt>
<trkpt lat="22.140024" lon="104.304214">
<ele>265.035400</ele>
<time>2011-04-27T06:02:46Z</time>
<desc>lat.=22.140024, lon.=104.304214, Alt.=265.035400m. Speed=0.288000m/h.</desc>
<speed>0.080000</speed>
</trkpt>
<trkpt lat="22.140022" lon="104.304214">
<ele>264.808838</ele>
<time>2011-04-27T06:02:51Z</time>
<desc>lat.=22.140022, lon.=104.304214, Alt.=264.808838m. Speed=0.108000m/h.</desc>
<speed>0.030000</speed>
</trkpt>
<trkpt lat="22.140020" lon="104.304214">
<ele>264.465088</ele>
<time>2011-04-27T06:02:56Z</time>
<desc>lat.=22.140020, lon.=104.304214, Alt.=264.465088m. Speed=0.036000m/h.</desc>
<speed>0.010000</speed>
</trkpt>
<trkpt lat="22.140022" lon="104.304214">
<ele>264.347900</ele>
<time>2011-04-27T06:03:01Z</time>
<desc>lat.=22.140022, lon.=104.304214, Alt.=264.347900m. Speed=0.036000m/h.</desc>
<speed>0.010000</speed>
</trkpt>
<trkpt lat="22.140022" lon="104.304214">
<ele>264.316650</ele>
<time>2011-04-27T06:03:06Z</time>
<desc>lat.=22.140022, lon.=104.304214, Alt.=264.316650m. Speed=0.144000m/h.</desc>
<speed>0.040000</speed>
</trkpt>
<trkpt lat="22.140024" lon="104.304214">
<ele>264.238525</ele>
<time>2011-04-27T06:03:11Z</time>
<desc>lat.=22.140024, lon.=104.304214, Alt.=264.238525m. Speed=0.036000m/h.</desc>
<speed>0.010000</speed>
</trkpt>
<trkpt lat="22.140022" lon="104.304214">
<ele>264.261963</ele>
<time>2011-04-27T06:03:16Z</time>
<desc>lat.=22.140022, lon.=104.304214, Alt.=264.261963m. Speed=0.000000m/h.</desc>
<speed>0.000000</speed>
</trkpt>
<trkpt lat="22.140022" lon="104.304214">
<ele>264.207275</ele>
<time>2011-04-27T06:03:21Z</time>
<desc>lat.=22.140022, lon.=104.304214, Alt.=264.207275m. Speed=0.000000m/h.</desc>
<speed>0.000000</speed>
</trkpt>
<trkpt lat="22.140022" lon="104.304214">
<ele>264.129150</ele>
<time>2011-04-27T06:03:26Z</time>
<desc>lat.=22.140022, lon.=104.304214, Alt.=264.129150m. Speed=0.036000m/h.</desc>
<speed>0.010000</speed>
</trkpt>
<trkpt lat="22.140022" lon="104.304214">
<ele>264.113525</ele>
<time>2011-04-27T06:03:31Z</time>
<desc>lat.=22.140022, lon.=104.304214, Alt.=264.113525m. Speed=0.036000m/h.</desc>
<speed>0.010000</speed>
</trkpt>
<trkpt lat="22.140022" lon="104.304214">
<ele>264.090088</ele>
<time>2011-04-27T06:03:36Z</time>
<desc>lat.=22.140022, lon.=104.304214, Alt.=264.090088m. Speed=0.072000m/h.</desc>
<speed>0.020000</speed>
</trkpt>
<trkpt lat="22.140022" lon="104.304214">
<ele>264.074463</ele>
<time>2011-04-27T06:03:41Z</time>
<desc>lat.=22.140022, lon.=104.304214, Alt.=264.074463m. Speed=0.072000m/h.</desc>
<speed>0.020000</speed>
</trkpt>
<trkpt lat="22.140022" lon="104.304214">
<ele>264.011963</ele>
<time>2011-04-27T06:03:46Z</time>
<desc>lat.=22.140022, lon.=104.304214, Alt.=264.011963m. Speed=0.000000m/h.</desc>
<speed>0.000000</speed>
</trkpt>
<trkpt lat="22.140022" lon="104.304214">
<ele>263.918213</ele>
<time>2011-04-27T06:03:51Z</time>
<desc>lat.=22.140022, lon.=104.304214, Alt.=263.918213m. Speed=0.108000m/h.</desc>
<speed>0.030000</speed>
</trkpt>
<trkpt lat="22.140020" lon="104.304214">
<ele>263.707275</ele>
<time>2011-04-27T06:03:56Z</time>
<desc>lat.=22.140020, lon.=104.304214, Alt.=263.707275m. Speed=0.036000m/h.</desc>
<speed>0.010000</speed>
</trkpt>
<trkpt lat="22.140024" lon="104.304214">
<ele>263.238525</ele>
<time>2011-04-27T06:04:01Z</time>
<desc>lat.=22.140024, lon.=104.304214, Alt.=263.238525m. Speed=0.504000m/h.</desc>
<speed>0.140000</speed>
</trkpt>
<trkpt lat="22.140032" lon="104.304214">
<ele>262.433838</ele>
<time>2011-04-27T06:04:06Z</time>
<desc>lat.=22.140032, lon.=104.304214, Alt.=262.433838m. Speed=0.072000m/h.</desc>
<speed>0.020000</speed>
</trkpt>
<trkpt lat="22.140034" lon="104.304214">
<ele>261.543213</ele>
<time>2011-04-27T06:04:11Z</time>
<desc>lat.=22.140034, lon.=104.304214, Alt.=261.543213m. Speed=0.036000m/h.</desc>
<speed>0.010000</speed>
</trkpt>
<trkpt lat="22.140034" lon="104.304214">
<ele>260.715088</ele>
<time>2011-04-27T06:04:16Z</time>
<desc>lat.=22.140034, lon.=104.304214, Alt.=260.715088m. Speed=0.108000m/h.</desc>
<speed>0.030000</speed>
</trkpt>
<trkpt lat="22.140036" lon="104.304214">
<ele>259.933838</ele>
<time>2011-04-27T06:04:21Z</time>
<desc>lat.=22.140036, lon.=104.304214, Alt.=259.933838m. Speed=0.180000m/h.</desc>
<speed>0.050000</speed>
</trkpt>
<trkpt lat="22.140038" lon="104.304214">
<ele>259.199463</ele>
<time>2011-04-27T06:04:26Z</time>
<desc>lat.=22.140038, lon.=104.304214, Alt.=259.199463m. Speed=0.180000m/h.</desc>
<speed>0.050000</speed>
</trkpt>
<trkpt lat="22.140041" lon="104.304214">
<ele>258.551025</ele>
<time>2011-04-27T06:04:31Z</time>
<desc>lat.=22.140041, lon.=104.304214, Alt.=258.551025m. Speed=0.396000m/h.</desc>
<speed>0.110000</speed>
</trkpt>
<trkpt lat="22.140047" lon="104.304207">
<ele>258.019775</ele>
<time>2011-04-27T06:04:36Z</time>
<desc>lat.=22.140047, lon.=104.304207, Alt.=258.019775m. Speed=0.288000m/h.</desc>
<speed>0.080000</speed>
</trkpt>
<trkpt lat="22.140045" lon="104.304207">
<ele>257.715088</ele>
<time>2011-04-27T06:04:41Z</time>
<desc>lat.=22.140045, lon.=104.304207, Alt.=257.715088m. Speed=0.072000m/h.</desc>
<speed>0.020000</speed>
</trkpt>
<trkpt lat="22.140045" lon="104.304207">
<ele>257.558838</ele>
<time>2011-04-27T06:04:46Z</time>
<desc>lat.=22.140045, lon.=104.304207, Alt.=257.558838m. Speed=0.000000m/h.</desc>
<speed>0.000000</speed>
</trkpt>
<trkpt lat="22.140045" lon="104.304207">
<ele>257.332275</ele>
<time>2011-04-27T06:04:51Z</time>
<desc>lat.=22.140045, lon.=104.304207, Alt.=257.332275m. Speed=0.072000m/h.</desc>
<speed>0.020000</speed>
</trkpt>
<trkpt lat="22.140047" lon="104.304207">
<ele>257.074463</ele>
<time>2011-04-27T06:04:56Z</time>
<desc>lat.=22.140047, lon.=104.304207, Alt.=257.074463m. Speed=0.144000m/h.</desc>
<speed>0.040000</speed>
</trkpt>
<trkpt lat="22.140049" lon="104.304207">
<ele>256.824463</ele>
<time>2011-04-27T06:05:01Z</time>
<desc>lat.=22.140049, lon.=104.304207, Alt.=256.824463m. Speed=0.144000m/h.</desc>
<speed>0.040000</speed>
</trkpt>
<trkpt lat="22.140053" lon="104.304207">
<ele>256.629150</ele>
<time>2011-04-27T06:05:06Z</time>
<desc>lat.=22.140053, lon.=104.304207, Alt.=256.629150m. Speed=0.288000m/h.</desc>
<speed>0.080000</speed>
</trkpt>
<trkpt lat="22.140057" lon="104.304207">
<ele>256.426025</ele>
<time>2011-04-27T06:05:11Z</time>
<desc>lat.=22.140057, lon.=104.304207, Alt.=256.426025m. Speed=0.288000m/h.</desc>
<speed>0.080000</speed>
</trkpt>
<trkpt lat="22.140062" lon="104.304207">
<ele>256.308838</ele>
<time>2011-04-27T06:05:16Z</time>
<desc>lat.=22.140062, lon.=104.304207, Alt.=256.308838m. Speed=0.576000m/h.</desc>
<speed>0.160000</speed>
</trkpt>
<trkpt lat="22.140068" lon="104.304207">
<ele>256.136963</ele>
<time>2011-04-27T06:05:21Z</time>
<desc>lat.=22.140068, lon.=104.304207, Alt.=256.136963m. Speed=0.252000m/h.</desc>
<speed>0.070000</speed>
</trkpt>
<trkpt lat="22.140072" lon="104.304207">
<ele>255.795044</ele>
<time>2011-04-27T06:05:26Z</time>
<desc>lat.=22.140072, lon.=104.304207, Alt.=255.795044m. Speed=0.252000m/h.</desc>
<speed>0.070000</speed>
</trkpt>
<trkpt lat="22.140074" lon="104.304207">
<ele>255.248169</ele>
<time>2011-04-27T06:05:31Z</time>
<desc>lat.=22.140074, lon.=104.304207, Alt.=255.248169m. Speed=0.000000m/h.</desc>
<speed>0.000000</speed>
</trkpt>
<trkpt lat="22.140072" lon="104.304207">
<ele>254.599731</ele>
<time>2011-04-27T06:05:36Z</time>
<desc>lat.=22.140072, lon.=104.304207, Alt.=254.599731m. Speed=0.252000m/h.</desc>
<speed>0.070000</speed>
</trkpt>
<trkpt lat="22.140066" lon="104.304207">
<ele>253.880981</ele>
<time>2011-04-27T06:05:41Z</time>
<desc>lat.=22.140066, lon.=104.304207, Alt.=253.880981m. Speed=0.468000m/h.</desc>
<speed>0.130000</speed>
</trkpt>
<trkpt lat="22.140060" lon="104.304207">
<ele>253.095825</ele>
<time>2011-04-27T06:05:46Z</time>
<desc>lat.=22.140060, lon.=104.304207, Alt.=253.095825m. Speed=0.432000m/h.</desc>
<speed>0.120000</speed>
</trkpt>
<trkpt lat="22.140055" lon="104.304207">
<ele>252.287231</ele>
<time>2011-04-27T06:05:51Z</time>
<desc>lat.=22.140055, lon.=104.304207, Alt.=252.287231m. Speed=0.396000m/h.</desc>
<speed>0.110000</speed>
</trkpt>
<trkpt lat="22.140049" lon="104.304207">
<ele>251.545044</ele>
<time>2011-04-27T06:05:56Z</time>
<desc>lat.=22.140049, lon.=104.304207, Alt.=251.545044m. Speed=0.432000m/h.</desc>
<speed>0.120000</speed>
</trkpt>
<trkpt lat="22.140043" lon="104.304207">
<ele>250.966919</ele>
<time>2011-04-27T06:06:01Z</time>
<desc>lat.=22.140043, lon.=104.304207, Alt.=250.966919m. Speed=0.396000m/h.</desc>
<speed>0.110000</speed>
</trkpt>
<trkpt lat="22.140038" lon="104.304207">
<ele>250.416138</ele>
<time>2011-04-27T06:06:06Z</time>
<desc>lat.=22.140038, lon.=104.304207, Alt.=250.416138m. Speed=0.324000m/h.</desc>
<speed>0.090000</speed>
</trkpt>
<trkpt lat="22.140034" lon="104.304207">
<ele>249.931763</ele>
<time>2011-04-27T06:06:11Z</time>
<desc>lat.=22.140034, lon.=104.304207, Alt.=249.931763m. Speed=0.396000m/h.</desc>
<speed>0.110000</speed>
</trkpt>
<trkpt lat="22.140028" lon="104.304207">
<ele>249.494263</ele>
<time>2011-04-27T06:06:16Z</time>
<desc>lat.=22.140028, lon.=104.304207, Alt.=249.494263m. Speed=0.360000m/h.</desc>
<speed>0.100000</speed>
</trkpt>
<trkpt lat="22.140024" lon="104.304207">
<ele>249.064575</ele>
<time>2011-04-27T06:06:21Z</time>
<desc>lat.=22.140024, lon.=104.304207, Alt.=249.064575m. Speed=0.000000m/h.</desc>
<speed>0.000000</speed>
</trkpt>
<trkpt lat="22.140026" lon="104.304207">
<ele>248.634888</ele>
<time>2011-04-27T06:06:26Z</time>
<desc>lat.=22.140026, lon.=104.304207, Alt.=248.634888m. Speed=0.180000m/h.</desc>
<speed>0.050000</speed>
</trkpt>
<trkpt lat="22.140032" lon="104.304207">
<ele>248.205200</ele>
<time>2011-04-27T06:06:31Z</time>
<desc>lat.=22.140032, lon.=104.304207, Alt.=248.205200m. Speed=0.504000m/h.</desc>
<speed>0.140000</speed>
</trkpt>
<trkpt lat="22.140039" lon="104.304207">
<ele>247.802856</ele>
<time>2011-04-27T06:06:36Z</time>
<desc>lat.=22.140039, lon.=104.304207, Alt.=247.802856m. Speed=0.612000m/h.</desc>
<speed>0.170000</speed>
</trkpt>
<trkpt lat="22.140047" lon="104.304199">
<ele>247.416138</ele>
<time>2011-04-27T06:06:41Z</time>
<desc>lat.=22.140047, lon.=104.304199, Alt.=247.416138m. Speed=0.648000m/h.</desc>
<speed>0.180000</speed>
</trkpt>
<trkpt lat="22.140057" lon="104.304199">
<ele>247.033325</ele>
<time>2011-04-27T06:06:46Z</time>
<desc>lat.=22.140057, lon.=104.304199, Alt.=247.033325m. Speed=0.972000m/h.</desc>
<speed>0.270000</speed>
</trkpt>
<trkpt lat="22.140131" lon="104.304192">
<ele>247.771606</ele>
<time>2011-04-27T06:06:51Z</time>
<desc>lat.=22.140131, lon.=104.304192, Alt.=247.771606m. Speed=1.620000m/h.</desc>
<speed>0.450000</speed>
</trkpt>
<trkpt lat="22.140123" lon="104.304192">
<ele>248.392700</ele>
<time>2011-04-27T06:06:56Z</time>
<desc>lat.=22.140123, lon.=104.304192, Alt.=248.392700m. Speed=0.972000m/h.</desc>
<speed>0.270000</speed>
</trkpt>
<trkpt lat="22.140123" lon="104.304184">
<ele>248.248169</ele>
<time>2011-04-27T06:07:01Z</time>
<desc>lat.=22.140123, lon.=104.304184, Alt.=248.248169m. Speed=0.612000m/h.</desc>
<speed>0.170000</speed>
</trkpt>
<trkpt lat="22.140133" lon="104.304184">
<ele>247.853638</ele>
<time>2011-04-27T06:07:06Z</time>
<desc>lat.=22.140133, lon.=104.304184, Alt.=247.853638m. Speed=0.684000m/h.</desc>
<speed>0.190000</speed>
</trkpt>
<trkpt lat="22.140139" lon="104.304184">
<ele>247.447388</ele>
<time>2011-04-27T06:07:11Z</time>
<desc>lat.=22.140139, lon.=104.304184, Alt.=247.447388m. Speed=0.180000m/h.</desc>
<speed>0.050000</speed>
</trkpt>
<trkpt lat="22.140139" lon="104.304184">
<ele>247.045044</ele>
<time>2011-04-27T06:07:16Z</time>
<desc>lat.=22.140139, lon.=104.304184, Alt.=247.045044m. Speed=0.288000m/h.</desc>
<speed>0.080000</speed>
</trkpt>
<trkpt lat="22.140131" lon="104.304184">
<ele>246.638794</ele>
<time>2011-04-27T06:07:21Z</time>
<desc>lat.=22.140131, lon.=104.304184, Alt.=246.638794m. Speed=0.720000m/h.</desc>
<speed>0.200000</speed>
</trkpt>
<trkpt lat="22.140121" lon="104.304184">
<ele>246.255981</ele>
<time>2011-04-27T06:07:26Z</time>
<desc>lat.=22.140121, lon.=104.304184, Alt.=246.255981m. Speed=0.540000m/h.</desc>
<speed>0.150000</speed>
</trkpt>
<trkpt lat="22.140114" lon="104.304184">
<ele>245.880981</ele>
<time>2011-04-27T06:07:31Z</time>
<desc>lat.=22.140114, lon.=104.304184, Alt.=245.880981m. Speed=0.144000m/h.</desc>
<speed>0.040000</speed>
</trkpt>
<trkpt lat="22.140114" lon="104.304184">
<ele>245.502075</ele>
<time>2011-04-27T06:07:36Z</time>
<desc>lat.=22.140114, lon.=104.304184, Alt.=245.502075m. Speed=0.108000m/h.</desc>
<speed>0.030000</speed>
</trkpt>
<trkpt lat="22.140114" lon="104.304184">
<ele>245.130981</ele>
<time>2011-04-27T06:07:41Z</time>
<desc>lat.=22.140114, lon.=104.304184, Alt.=245.130981m. Speed=0.036000m/h.</desc>
<speed>0.010000</speed>
</trkpt>
<trkpt lat="22.140116" lon="104.304184">
<ele>244.752075</ele>
<time>2011-04-27T06:07:46Z</time>
<desc>lat.=22.140116, lon.=104.304184, Alt.=244.752075m. Speed=0.108000m/h.</desc>
<speed>0.030000</speed>
</trkpt>
<trkpt lat="22.140118" lon="104.304184">
<ele>244.388794</ele>
<time>2011-04-27T06:07:51Z</time>
<desc>lat.=22.140118, lon.=104.304184, Alt.=244.388794m. Speed=0.324000m/h.</desc>
<speed>0.090000</speed>
</trkpt>
<trkpt lat="22.140121" lon="104.304184">
<ele>244.017700</ele>
<time>2011-04-27T06:07:56Z</time>
<desc>lat.=22.140121, lon.=104.304184, Alt.=244.017700m. Speed=0.216000m/h.</desc>
<speed>0.060000</speed>
</trkpt>
<trkpt lat="22.140125" lon="104.304184">
<ele>243.630981</ele>
<time>2011-04-27T06:08:01Z</time>
<desc>lat.=22.140125, lon.=104.304184, Alt.=243.630981m. Speed=0.324000m/h.</desc>
<speed>0.090000</speed>
</trkpt>
<trkpt lat="22.140129" lon="104.304184">
<ele>243.252075</ele>
<time>2011-04-27T06:08:06Z</time>
<desc>lat.=22.140129, lon.=104.304184, Alt.=243.252075m. Speed=0.288000m/h.</desc>
<speed>0.080000</speed>
</trkpt>
<trkpt lat="22.140131" lon="104.304184">
<ele>242.865356</ele>
<time>2011-04-27T06:08:11Z</time>
<desc>lat.=22.140131, lon.=104.304184, Alt.=242.865356m. Speed=0.108000m/h.</desc>
<speed>0.030000</speed>
</trkpt>
<trkpt lat="22.140135" lon="104.304184">
<ele>242.482544</ele>
<time>2011-04-27T06:08:16Z</time>
<desc>lat.=22.140135, lon.=104.304184, Alt.=242.482544m. Speed=0.468000m/h.</desc>
<speed>0.130000</speed>
</trkpt>
<trkpt lat="22.140141" lon="104.304176">
<ele>242.091919</ele>
<time>2011-04-27T06:08:21Z</time>
<desc>lat.=22.140141, lon.=104.304176, Alt.=242.091919m. Speed=0.468000m/h.</desc>
<speed>0.130000</speed>
</trkpt>
<trkpt lat="22.140146" lon="104.304176">
<ele>241.693481</ele>
<time>2011-04-27T06:08:26Z</time>
<desc>lat.=22.140146, lon.=104.304176, Alt.=241.693481m. Speed=0.360000m/h.</desc>
<speed>0.100000</speed>
</trkpt>
<trkpt lat="22.140150" lon="104.304176">
<ele>241.295044</ele>
<time>2011-04-27T06:08:31Z</time>
<desc>lat.=22.140150, lon.=104.304176, Alt.=241.295044m. Speed=0.360000m/h.</desc>
<speed>0.100000</speed>
</trkpt>
<trkpt lat="22.140154" lon="104.304176">
<ele>240.896606</ele>
<time>2011-04-27T06:08:36Z</time>
<desc>lat.=22.140154, lon.=104.304176, Alt.=240.896606m. Speed=0.252000m/h.</desc>
<speed>0.070000</speed>
</trkpt>
<trkpt lat="22.140160" lon="104.304176">
<ele>240.517700</ele>
<time>2011-04-27T06:08:41Z</time>
<desc>lat.=22.140160, lon.=104.304176, Alt.=240.517700m. Speed=0.360000m/h.</desc>
<speed>0.100000</speed>
</trkpt>
<trkpt lat="22.140165" lon="104.304176">
<ele>240.130981</ele>
<time>2011-04-27T06:08:46Z</time>
<desc>lat.=22.140165, lon.=104.304176, Alt.=240.130981m. Speed=0.504000m/h.</desc>
<speed>0.140000</speed>
</trkpt>
<trkpt lat="22.140169" lon="104.304176">
<ele>239.740356</ele>
<time>2011-04-27T06:08:51Z</time>
<desc>lat.=22.140169, lon.=104.304176, Alt.=239.740356m. Speed=0.036000m/h.</desc>
<speed>0.010000</speed>
</trkpt>
<trkpt lat="22.140165" lon="104.304176">
<ele>239.334106</ele>
<time>2011-04-27T06:08:56Z</time>
<desc>lat.=22.140165, lon.=104.304176, Alt.=239.334106m. Speed=0.288000m/h.</desc>
<speed>0.080000</speed>
</trkpt>
<trkpt lat="22.140162" lon="104.304176">
<ele>238.935669</ele>
<time>2011-04-27T06:09:01Z</time>
<desc>lat.=22.140162, lon.=104.304176, Alt.=238.935669m. Speed=0.360000m/h.</desc>
<speed>0.100000</speed>
</trkpt>
<trkpt lat="22.140158" lon="104.304176">
<ele>238.537231</ele>
<time>2011-04-27T06:09:06Z</time>
<desc>lat.=22.140158, lon.=104.304176, Alt.=238.537231m. Speed=0.180000m/h.</desc>
<speed>0.050000</speed>
</trkpt>
<trkpt lat="22.140156" lon="104.304176">
<ele>238.146606</ele>
<time>2011-04-27T06:09:11Z</time>
<desc>lat.=22.140156, lon.=104.304176, Alt.=238.146606m. Speed=0.144000m/h.</desc>
<speed>0.040000</speed>
</trkpt>
<trkpt lat="22.140152" lon="104.304176">
<ele>237.755981</ele>
<time>2011-04-27T06:09:16Z</time>
<desc>lat.=22.140152, lon.=104.304176, Alt.=237.755981m. Speed=0.432000m/h.</desc>
<speed>0.120000</speed>
</trkpt>
<trkpt lat="22.140142" lon="104.304176">
<ele>237.365356</ele>
<time>2011-04-27T06:09:21Z</time>
<desc>lat.=22.140142, lon.=104.304176, Alt.=237.365356m. Speed=0.972000m/h.</desc>
<speed>0.270000</speed>
</trkpt>
<trkpt lat="22.140112" lon="104.304176">
<ele>236.798950</ele>
<time>2011-04-27T06:09:26Z</time>
<desc>lat.=22.140112, lon.=104.304176, Alt.=236.798950m. Speed=1.224000m/h.</desc>
<speed>0.340000</speed>
</trkpt>
<trkpt lat="22.140091" lon="104.304176">
<ele>236.197388</ele>
<time>2011-04-27T06:09:31Z</time>
<desc>lat.=22.140091, lon.=104.304176, Alt.=236.197388m. Speed=0.792000m/h.</desc>
<speed>0.220000</speed>
</trkpt>
<trkpt lat="22.140095" lon="104.304184">
<ele>235.767700</ele>
<time>2011-04-27T06:09:36Z</time>
<desc>lat.=22.140095, lon.=104.304184, Alt.=235.767700m. Speed=0.000000m/h.</desc>
<speed>0.000000</speed>
</trkpt>
<trkpt lat="22.140095" lon="104.304184">
<ele>235.384888</ele>
<time>2011-04-27T06:09:41Z</time>
<desc>lat.=22.140095, lon.=104.304184, Alt.=235.384888m. Speed=0.036000m/h.</desc>
<speed>0.010000</speed>
</trkpt>
<trkpt lat="22.140095" lon="104.304184">
<ele>234.998169</ele>
<time>2011-04-27T06:09:46Z</time>
<desc>lat.=22.140095, lon.=104.304184, Alt.=234.998169m. Speed=0.000000m/h.</desc>
<speed>0.000000</speed>
</trkpt>
<trkpt lat="22.140095" lon="104.304184">
<ele>234.638794</ele>
<time>2011-04-27T06:09:51Z</time>
<desc>lat.=22.140095, lon.=104.304184, Alt.=234.638794m. Speed=0.036000m/h.</desc>
<speed>0.010000</speed>
</trkpt>
<trkpt lat="22.140095" lon="104.304184">
<ele>234.291138</ele>
<time>2011-04-27T06:09:56Z</time>
<desc>lat.=22.140095, lon.=104.304184, Alt.=234.291138m. Speed=0.036000m/h.</desc>
<speed>0.010000</speed>
</trkpt>
<trkpt lat="22.140097" lon="104.304184">
<ele>233.955200</ele>
<time>2011-04-27T06:10:01Z</time>
<desc>lat.=22.140097, lon.=104.304184, Alt.=233.955200m. Speed=0.216000m/h.</desc>
<speed>0.060000</speed>
</trkpt>
<trkpt lat="22.140104" lon="104.304176">
<ele>233.638794</ele>
<time>2011-04-27T06:10:06Z</time>
<desc>lat.=22.140104, lon.=104.304176, Alt.=233.638794m. Speed=0.108000m/h.</desc>
<speed>0.030000</speed>
</trkpt>
<trkpt lat="22.140104" lon="104.304176">
<ele>233.357544</ele>
<time>2011-04-27T06:10:11Z</time>
<desc>lat.=22.140104, lon.=104.304176, Alt.=233.357544m. Speed=0.036000m/h.</desc>
<speed>0.010000</speed>
</trkpt>
<trkpt lat="22.140104" lon="104.304176">
<ele>233.072388</ele>
<time>2011-04-27T06:10:16Z</time>
<desc>lat.=22.140104, lon.=104.304176, Alt.=233.072388m. Speed=0.036000m/h.</desc>
<speed>0.010000</speed>
</trkpt>
<trkpt lat="22.140104" lon="104.304176">
<ele>232.787231</ele>
<time>2011-04-27T06:10:21Z</time>
<desc>lat.=22.140104, lon.=104.304176, Alt.=232.787231m. Speed=0.072000m/h.</desc>
<speed>0.020000</speed>
</trkpt>
<trkpt lat="22.140104" lon="104.304176">
<ele>232.529419</ele>
<time>2011-04-27T06:10:26Z</time>
<desc>lat.=22.140104, lon.=104.304176, Alt.=232.529419m. Speed=0.000000m/h.</desc>
<speed>0.000000</speed>
</trkpt>
<trkpt lat="22.140104" lon="104.304176">
<ele>232.298950</ele>
<time>2011-04-27T06:10:31Z</time>
<desc>lat.=22.140104, lon.=104.304176, Alt.=232.298950m. Speed=0.036000m/h.</desc>
<speed>0.010000</speed>
</trkpt>
<trkpt lat="22.140104" lon="104.304176">
<ele>232.095825</ele>
<time>2011-04-27T06:10:36Z</time>
<desc>lat.=22.140104, lon.=104.304176, Alt.=232.095825m. Speed=0.000000m/h.</desc>
<speed>0.000000</speed>
</trkpt>
<trkpt lat="22.140104" lon="104.304176">
<ele>231.892700</ele>
<time>2011-04-27T06:10:41Z</time>
<desc>lat.=22.140104, lon.=104.304176, Alt.=231.892700m. Speed=0.108000m/h.</desc>
<speed>0.030000</speed>
</trkpt>
<trkpt lat="22.140108" lon="104.304176">
<ele>231.681763</ele>
<time>2011-04-27T06:10:46Z</time>
<desc>lat.=22.140108, lon.=104.304176, Alt.=231.681763m. Speed=0.036000m/h.</desc>
<speed>0.010000</speed>
</trkpt>
<trkpt lat="22.140108" lon="104.304176">
<ele>231.498169</ele>
<time>2011-04-27T06:10:51Z</time>
<desc>lat.=22.140108, lon.=104.304176, Alt.=231.498169m. Speed=0.072000m/h.</desc>
<speed>0.020000</speed>
</trkpt>
<trkpt lat="22.140110" lon="104.304176">
<ele>231.310669</ele>
<time>2011-04-27T06:10:56Z</time>
<desc>lat.=22.140110, lon.=104.304176, Alt.=231.310669m. Speed=0.252000m/h.</desc>
<speed>0.070000</speed>
</trkpt>
<trkpt lat="22.140112" lon="104.304176">
<ele>231.138794</ele>
<time>2011-04-27T06:11:01Z</time>
<desc>lat.=22.140112, lon.=104.304176, Alt.=231.138794m. Speed=0.000000m/h.</desc>
<speed>0.000000</speed>
</trkpt>
<trkpt lat="22.140112" lon="104.304176">
<ele>230.998169</ele>
<time>2011-04-27T06:11:06Z</time>
<desc>lat.=22.140112, lon.=104.304176, Alt.=230.998169m. Speed=0.072000m/h.</desc>
<speed>0.020000</speed>
</trkpt>
<trkpt lat="22.140114" lon="104.304176">
<ele>230.865356</ele>
<time>2011-04-27T06:11:11Z</time>
<desc>lat.=22.140114, lon.=104.304176, Alt.=230.865356m. Speed=0.036000m/h.</desc>
<speed>0.010000</speed>
</trkpt>
<trkpt lat="22.140116" lon="104.304176">
<ele>230.724731</ele>
<time>2011-04-27T06:11:16Z</time>
<desc>lat.=22.140116, lon.=104.304176, Alt.=230.724731m. Speed=0.036000m/h.</desc>
<speed>0.010000</speed>
</trkpt>
<trkpt lat="22.140116" lon="104.304176">
<ele>230.607544</ele>
<time>2011-04-27T06:11:21Z</time>
<desc>lat.=22.140116, lon.=104.304176, Alt.=230.607544m. Speed=0.000000m/h.</desc>
<speed>0.000000</speed>
</trkpt>
<trkpt lat="22.140118" lon="104.304176">
<ele>230.502075</ele>
<time>2011-04-27T06:11:26Z</time>
<desc>lat.=22.140118, lon.=104.304176, Alt.=230.502075m. Speed=0.000000m/h.</desc>
<speed>0.000000</speed>
</trkpt>
<trkpt lat="22.140116" lon="104.304176">
<ele>230.380981</ele>
<time>2011-04-27T06:11:31Z</time>
<desc>lat.=22.140116, lon.=104.304176, Alt.=230.380981m. Speed=0.036000m/h.</desc>
<speed>0.010000</speed>
</trkpt>
<trkpt lat="22.140118" lon="104.304176">
<ele>230.248169</ele>
<time>2011-04-27T06:11:36Z</time>
<desc>lat.=22.140118, lon.=104.304176, Alt.=230.248169m. Speed=0.036000m/h.</desc>
<speed>0.010000</speed>
</trkpt>
<trkpt lat="22.140118" lon="104.304176">
<ele>230.103638</ele>
<time>2011-04-27T06:11:41Z</time>
<desc>lat.=22.140118, lon.=104.304176, Alt.=230.103638m. Speed=0.072000m/h.</desc>
<speed>0.020000</speed>
</trkpt>
<trkpt lat="22.140118" lon="104.304176">
<ele>229.963013</ele>
<time>2011-04-27T06:11:46Z</time>
<desc>lat.=22.140118, lon.=104.304176, Alt.=229.963013m. Speed=0.036000m/h.</desc>
<speed>0.010000</speed>
</trkpt>
<trkpt lat="22.140116" lon="104.304176">
<ele>229.830200</ele>
<time>2011-04-27T06:11:51Z</time>
<desc>lat.=22.140116, lon.=104.304176, Alt.=229.830200m. Speed=0.036000m/h.</desc>
<speed>0.010000</speed>
</trkpt>
<trkpt lat="22.140118" lon="104.304176">
<ele>229.709106</ele>
<time>2011-04-27T06:11:56Z</time>
<desc>lat.=22.140118, lon.=104.304176, Alt.=229.709106m. Speed=0.072000m/h.</desc>
<speed>0.020000</speed>
</trkpt>
<trkpt lat="22.140118" lon="104.304176">
<ele>229.591919</ele>
<time>2011-04-27T06:12:01Z</time>
<desc>lat.=22.140118, lon.=104.304176, Alt.=229.591919m. Speed=0.072000m/h.</desc>
<speed>0.020000</speed>
</trkpt>
<trkpt lat="22.140120" lon="104.304176">
<ele>229.490356</ele>
<time>2011-04-27T06:12:06Z</time>
<desc>lat.=22.140120, lon.=104.304176, Alt.=229.490356m. Speed=0.072000m/h.</desc>
<speed>0.020000</speed>
</trkpt>
<trkpt lat="22.140120" lon="104.304176">
<ele>229.384888</ele>
<time>2011-04-27T06:12:11Z</time>
<desc>lat.=22.140120, lon.=104.304176, Alt.=229.384888m. Speed=0.036000m/h.</desc>
<speed>0.010000</speed>
</trkpt>
<trkpt lat="22.140120" lon="104.304176">
<ele>229.283325</ele>
<time>2011-04-27T06:12:16Z</time>
<desc>lat.=22.140120, lon.=104.304176, Alt.=229.283325m. Speed=0.072000m/h.</desc>
<speed>0.020000</speed>
</trkpt>
<trkpt lat="22.140121" lon="104.304176">
<ele>229.173950</ele>
<time>2011-04-27T06:12:21Z</time>
<desc>lat.=22.140121, lon.=104.304176, Alt.=229.173950m. Speed=0.036000m/h.</desc>
<speed>0.010000</speed>
</trkpt>
<trkpt lat="22.140121" lon="104.304176">
<ele>229.084106</ele>
<time>2011-04-27T06:12:26Z</time>
<desc>lat.=22.140121, lon.=104.304176, Alt.=229.084106m. Speed=0.000000m/h.</desc>
<speed>0.000000</speed>
</trkpt>
<trkpt lat="22.140121" lon="104.304176">
<ele>229.099731</ele>
<time>2011-04-27T06:12:31Z</time>
<desc>lat.=22.140121, lon.=104.304176, Alt.=229.099731m. Speed=0.000000m/h.</desc>
<speed>0.000000</speed>
</trkpt>
<trkpt lat="22.140121" lon="104.304176">
<ele>229.115356</ele>
<time>2011-04-27T06:12:36Z</time>
<desc>lat.=22.140121, lon.=104.304176, Alt.=229.115356m. Speed=0.000000m/h.</desc>
<speed>0.000000</speed>
</trkpt>
<trkpt lat="22.140121" lon="104.304176">
<ele>229.134888</ele>
<time>2011-04-27T06:12:41Z</time>
<desc>lat.=22.140121, lon.=104.304176, Alt.=229.134888m. Speed=0.000000m/h.</desc>
<speed>0.000000</speed>
</trkpt>
<trkpt lat="22.140121" lon="104.304176">
<ele>229.158325</ele>
<time>2011-04-27T06:12:46Z</time>
<desc>lat.=22.140121, lon.=104.304176, Alt.=229.158325m. Speed=0.036000m/h.</desc>
<speed>0.010000</speed>
</trkpt>
<trkpt lat="22.140121" lon="104.304176">
<ele>229.181763</ele>
<time>2011-04-27T06:12:51Z</time>
<desc>lat.=22.140121, lon.=104.304176, Alt.=229.181763m. Speed=0.000000m/h.</desc>
<speed>0.000000</speed>
</trkpt>
<trkpt lat="22.140121" lon="104.304176">
<ele>229.220825</ele>
<time>2011-04-27T06:12:56Z</time>
<desc>lat.=22.140121, lon.=104.304176, Alt.=229.220825m. Speed=0.000000m/h.</desc>
<speed>0.000000</speed>
</trkpt>
<trkpt lat="22.140120" lon="104.304176">
<ele>229.263794</ele>
<time>2011-04-27T06:13:01Z</time>
<desc>lat.=22.140120, lon.=104.304176, Alt.=229.263794m. Speed=0.000000m/h.</desc>
<speed>0.000000</speed>
</trkpt>
<trkpt lat="22.140120" lon="104.304176">
<ele>229.306763</ele>
<time>2011-04-27T06:13:06Z</time>
<desc>lat.=22.140120, lon.=104.304176, Alt.=229.306763m. Speed=0.072000m/h.</desc>
<speed>0.020000</speed>
</trkpt>
<trkpt lat="22.140120" lon="104.304176">
<ele>229.341919</ele>
<time>2011-04-27T06:13:11Z</time>
<desc>lat.=22.140120, lon.=104.304176, Alt.=229.341919m. Speed=0.072000m/h.</desc>
<speed>0.020000</speed>
</trkpt>
<trkpt lat="22.140120" lon="104.304176">
<ele>229.369263</ele>
<time>2011-04-27T06:13:16Z</time>
<desc>lat.=22.140120, lon.=104.304176, Alt.=229.369263m. Speed=0.000000m/h.</desc>
<speed>0.000000</speed>
</trkpt>
<trkpt lat="22.140120" lon="104.304176">
<ele>229.392700</ele>
<time>2011-04-27T06:13:21Z</time>
<desc>lat.=22.140120, lon.=104.304176, Alt.=229.392700m. Speed=0.036000m/h.</desc>
<speed>0.010000</speed>
</trkpt>
<trkpt lat="22.140120" lon="104.304176">
<ele>229.420044</ele>
<time>2011-04-27T06:13:26Z</time>
<desc>lat.=22.140120, lon.=104.304176, Alt.=229.420044m. Speed=0.036000m/h.</desc>
<speed>0.010000</speed>
</trkpt>
<trkpt lat="22.140120" lon="104.304176">
<ele>229.447388</ele>
<time>2011-04-27T06:13:31Z</time>
<desc>lat.=22.140120, lon.=104.304176, Alt.=229.447388m. Speed=0.036000m/h.</desc>
<speed>0.010000</speed>
</trkpt>
<trkpt lat="22.140121" lon="104.304176">
<ele>229.470825</ele>
<time>2011-04-27T06:13:36Z</time>
<desc>lat.=22.140121, lon.=104.304176, Alt.=229.470825m. Speed=0.108000m/h.</desc>
<speed>0.030000</speed>
</trkpt>
<trkpt lat="22.140121" lon="104.304176">
<ele>229.513794</ele>
<time>2011-04-27T06:13:41Z</time>
<desc>lat.=22.140121, lon.=104.304176, Alt.=229.513794m. Speed=0.036000m/h.</desc>
<speed>0.010000</speed>
</trkpt>
<trkpt lat="22.140121" lon="104.304176">
<ele>229.584106</ele>
<time>2011-04-27T06:13:46Z</time>
<desc>lat.=22.140121, lon.=104.304176, Alt.=229.584106m. Speed=0.000000m/h.</desc>
<speed>0.000000</speed>
</trkpt>
<trkpt lat="22.140121" lon="104.304176">
<ele>229.677856</ele>
<time>2011-04-27T06:13:51Z</time>
<desc>lat.=22.140121, lon.=104.304176, Alt.=229.677856m. Speed=0.000000m/h.</desc>
<speed>0.000000</speed>
</trkpt>
<trkpt lat="22.140123" lon="104.304176">
<ele>229.818481</ele>
<time>2011-04-27T06:13:56Z</time>
<desc>lat.=22.140123, lon.=104.304176, Alt.=229.818481m. Speed=0.000000m/h.</desc>
<speed>0.000000</speed>
</trkpt>
<trkpt lat="22.140123" lon="104.304176">
<ele>229.951294</ele>
<time>2011-04-27T06:14:01Z</time>
<desc>lat.=22.140123, lon.=104.304176, Alt.=229.951294m. Speed=0.000000m/h.</desc>
<speed>0.000000</speed>
</trkpt>
<trkpt lat="22.140123" lon="104.304176">
<ele>230.021606</ele>
<time>2011-04-27T06:14:06Z</time>
<desc>lat.=22.140123, lon.=104.304176, Alt.=230.021606m. Speed=0.036000m/h.</desc>
<speed>0.010000</speed>
</trkpt>
<trkpt lat="22.140123" lon="104.304176">
<ele>230.068481</ele>
<time>2011-04-27T06:14:11Z</time>
<desc>lat.=22.140123, lon.=104.304176, Alt.=230.068481m. Speed=0.000000m/h.</desc>
<speed>0.000000</speed>
</trkpt>
<trkpt lat="22.140123" lon="104.304176">
<ele>230.103638</ele>
<time>2011-04-27T06:14:16Z</time>
<desc>lat.=22.140123, lon.=104.304176, Alt.=230.103638m. Speed=0.000000m/h.</desc>
<speed>0.000000</speed>
</trkpt>
<trkpt lat="22.140123" lon="104.304176">
<ele>230.115356</ele>
<time>2011-04-27T06:14:21Z</time>
<desc>lat.=22.140123, lon.=104.304176, Alt.=230.115356m. Speed=0.000000m/h.</desc>
<speed>0.000000</speed>
</trkpt>
<trkpt lat="22.140123" lon="104.304176">
<ele>230.111450</ele>
<time>2011-04-27T06:14:26Z</time>
<desc>lat.=22.140123, lon.=104.304176, Alt.=230.111450m. Speed=0.000000m/h.</desc>
<speed>0.000000</speed>
</trkpt>
<trkpt lat="22.140123" lon="104.304176">
<ele>230.099731</ele>
<time>2011-04-27T06:14:31Z</time>
<desc>lat.=22.140123, lon.=104.304176, Alt.=230.099731m. Speed=0.000000m/h.</desc>
<speed>0.000000</speed>
</trkpt>
<trkpt lat="22.140123" lon="104.304176">
<ele>230.084106</ele>
<time>2011-04-27T06:14:36Z</time>
<desc>lat.=22.140123, lon.=104.304176, Alt.=230.084106m. Speed=0.000000m/h.</desc>
<speed>0.000000</speed>
</trkpt>
<trkpt lat="22.140123" lon="104.304176">
<ele>230.064575</ele>
<time>2011-04-27T06:14:41Z</time>
<desc>lat.=22.140123, lon.=104.304176, Alt.=230.064575m. Speed=0.000000m/h.</desc>
<speed>0.000000</speed>
</trkpt>
<trkpt lat="22.140123" lon="104.304176">
<ele>230.068481</ele>
<time>2011-04-27T06:14:46Z</time>
<desc>lat.=22.140123, lon.=104.304176, Alt.=230.068481m. Speed=0.000000m/h.</desc>
<speed>0.000000</speed>
</trkpt>
<trkpt lat="22.140123" lon="104.304176">
<ele>230.076294</ele>
<time>2011-04-27T06:14:51Z</time>
<desc>lat.=22.140123, lon.=104.304176, Alt.=230.076294m. Speed=0.000000m/h.</desc>
<speed>0.000000</speed>
</trkpt>
<trkpt lat="22.140123" lon="104.304176">
<ele>230.091919</ele>
<time>2011-04-27T06:14:56Z</time>
<desc>lat.=22.140123, lon.=104.304176, Alt.=230.091919m. Speed=0.000000m/h.</desc>
<speed>0.000000</speed>
</trkpt>
<trkpt lat="22.140123" lon="104.304176">
<ele>230.095825</ele>
<time>2011-04-27T06:15:01Z</time>
<desc>lat.=22.140123, lon.=104.304176, Alt.=230.095825m. Speed=0.000000m/h.</desc>
<speed>0.000000</speed>
</trkpt>
<trkpt lat="22.140123" lon="104.304176">
<ele>230.091919</ele>
<time>2011-04-27T06:15:06Z</time>
<desc>lat.=22.140123, lon.=104.304176, Alt.=230.091919m. Speed=0.000000m/h.</desc>
<speed>0.000000</speed>
</trkpt>
<trkpt lat="22.140123" lon="104.304176">
<ele>230.084106</ele>
<time>2011-04-27T06:15:11Z</time>
<desc>lat.=22.140123, lon.=104.304176, Alt.=230.084106m. Speed=0.000000m/h.</desc>
<speed>0.000000</speed>
</trkpt>
<trkpt lat="22.140123" lon="104.304176">
<ele>230.080200</ele>
<time>2011-04-27T06:15:16Z</time>
<desc>lat.=22.140123, lon.=104.304176, Alt.=230.080200m. Speed=0.000000m/h.</desc>
<speed>0.000000</speed>
</trkpt>
<trkpt lat="22.140123" lon="104.304176">
<ele>230.072388</ele>
<time>2011-04-27T06:15:21Z</time>
<desc>lat.=22.140123, lon.=104.304176, Alt.=230.072388m. Speed=0.000000m/h.</desc>
<speed>0.000000</speed>
</trkpt>
<trkpt lat="22.140123" lon="104.304176">
<ele>230.060669</ele>
<time>2011-04-27T06:15:26Z</time>
<desc>lat.=22.140123, lon.=104.304176, Alt.=230.060669m. Speed=0.000000m/h.</desc>
<speed>0.000000</speed>
</trkpt>
<trkpt lat="22.140123" lon="104.304176">
<ele>230.052856</ele>
<time>2011-04-27T06:15:31Z</time>
<desc>lat.=22.140123, lon.=104.304176, Alt.=230.052856m. Speed=0.000000m/h.</desc>
<speed>0.000000</speed>
</trkpt>
<trkpt lat="22.140123" lon="104.304176">
<ele>230.048950</ele>
<time>2011-04-27T06:15:36Z</time>
<desc>lat.=22.140123, lon.=104.304176, Alt.=230.048950m. Speed=0.000000m/h.</desc>
<speed>0.000000</speed>
</trkpt>
<trkpt lat="22.140123" lon="104.304176">
<ele>230.064575</ele>
<time>2011-04-27T06:15:41Z</time>
<desc>lat.=22.140123, lon.=104.304176, Alt.=230.064575m. Speed=0.000000m/h.</desc>
<speed>0.000000</speed>
</trkpt>
<trkpt lat="22.140123" lon="104.304176">
<ele>230.076294</ele>
<time>2011-04-27T06:15:46Z</time>
<desc>lat.=22.140123, lon.=104.304176, Alt.=230.076294m. Speed=0.036000m/h.</desc>
<speed>0.010000</speed>
</trkpt>
<trkpt lat="22.140123" lon="104.304176">
<ele>230.080200</ele>
<time>2011-04-27T06:15:51Z</time>
<desc>lat.=22.140123, lon.=104.304176, Alt.=230.080200m. Speed=0.036000m/h.</desc>
<speed>0.010000</speed>
</trkpt>
<trkpt lat="22.140123" lon="104.304176">
<ele>230.080200</ele>
<time>2011-04-27T06:15:56Z</time>
<desc>lat.=22.140123, lon.=104.304176, Alt.=230.080200m. Speed=0.000000m/h.</desc>
<speed>0.000000</speed>
</trkpt>
<trkpt lat="22.140123" lon="104.304176">
<ele>230.084106</ele>
<time>2011-04-27T06:16:01Z</time>
<desc>lat.=22.140123, lon.=104.304176, Alt.=230.084106m. Speed=0.000000m/h.</desc>
<speed>0.000000</speed>
</trkpt>
<trkpt lat="22.140125" lon="104.304176">
<ele>230.084106</ele>
<time>2011-04-27T06:16:06Z</time>
<desc>lat.=22.140125, lon.=104.304176, Alt.=230.084106m. Speed=0.000000m/h.</desc>
<speed>0.000000</speed>
</trkpt>
<trkpt lat="22.140125" lon="104.304176">
<ele>230.072388</ele>
<time>2011-04-27T06:16:11Z</time>
<desc>lat.=22.140125, lon.=104.304176, Alt.=230.072388m. Speed=0.000000m/h.</desc>
<speed>0.000000</speed>
</trkpt>
<trkpt lat="22.140125" lon="104.304176">
<ele>230.076294</ele>
<time>2011-04-27T06:16:16Z</time>
<desc>lat.=22.140125, lon.=104.304176, Alt.=230.076294m. Speed=0.000000m/h.</desc>
<speed>0.000000</speed>
</trkpt>
<trkpt lat="22.140125" lon="104.304176">
<ele>230.088013</ele>
<time>2011-04-27T06:16:21Z</time>
<desc>lat.=22.140125, lon.=104.304176, Alt.=230.088013m. Speed=0.000000m/h.</desc>
<speed>0.000000</speed>
</trkpt>
<trkpt lat="22.140125" lon="104.304176">
<ele>230.111450</ele>
<time>2011-04-27T06:16:26Z</time>
<desc>lat.=22.140125, lon.=104.304176, Alt.=230.111450m. Speed=0.036000m/h.</desc>
<speed>0.010000</speed>
</trkpt>
<trkpt lat="22.140125" lon="104.304176">
<ele>230.115356</ele>
<time>2011-04-27T06:16:31Z</time>
<desc>lat.=22.140125, lon.=104.304176, Alt.=230.115356m. Speed=0.000000m/h.</desc>
<speed>0.000000</speed>
</trkpt>
<trkpt lat="22.140125" lon="104.304176">
<ele>230.119263</ele>
<time>2011-04-27T06:16:36Z</time>
<desc>lat.=22.140125, lon.=104.304176, Alt.=230.119263m. Speed=0.000000m/h.</desc>
<speed>0.000000</speed>
</trkpt>
<trkpt lat="22.140125" lon="104.304176">
<ele>230.111450</ele>
<time>2011-04-27T06:16:41Z</time>
<desc>lat.=22.140125, lon.=104.304176, Alt.=230.111450m. Speed=0.000000m/h.</desc>
<speed>0.000000</speed>
</trkpt>
<trkpt lat="22.140125" lon="104.304176">
<ele>230.119263</ele>
<time>2011-04-27T06:16:46Z</time>
<desc>lat.=22.140125, lon.=104.304176, Alt.=230.119263m. Speed=0.036000m/h.</desc>
<speed>0.010000</speed>
</trkpt>
<trkpt lat="22.140125" lon="104.304176">
<ele>230.111450</ele>
<time>2011-04-27T06:16:51Z</time>
<desc>lat.=22.140125, lon.=104.304176, Alt.=230.111450m. Speed=0.000000m/h.</desc>
<speed>0.000000</speed>
</trkpt>
<trkpt lat="22.140125" lon="104.304176">
<ele>230.107544</ele>
<time>2011-04-27T06:16:56Z</time>
<desc>lat.=22.140125, lon.=104.304176, Alt.=230.107544m. Speed=0.000000m/h.</desc>
<speed>0.000000</speed>
</trkpt>
<trkpt lat="22.140125" lon="104.304176">
<ele>230.115356</ele>
<time>2011-04-27T06:17:01Z</time>
<desc>lat.=22.140125, lon.=104.304176, Alt.=230.115356m. Speed=0.000000m/h.</desc>
<speed>0.000000</speed>
</trkpt>
<trkpt lat="22.140125" lon="104.304176">
<ele>230.115356</ele>
<time>2011-04-27T06:17:06Z</time>
<desc>lat.=22.140125, lon.=104.304176, Alt.=230.115356m. Speed=0.036000m/h.</desc>
<speed>0.010000</speed>
</trkpt>
<trkpt lat="22.140125" lon="104.304176">
<ele>230.107544</ele>
<time>2011-04-27T06:17:11Z</time>
<desc>lat.=22.140125, lon.=104.304176, Alt.=230.107544m. Speed=0.000000m/h.</desc>
<speed>0.000000</speed>
</trkpt>
<trkpt lat="22.140125" lon="104.304176">
<ele>230.091919</ele>
<time>2011-04-27T06:17:16Z</time>
<desc>lat.=22.140125, lon.=104.304176, Alt.=230.091919m. Speed=0.000000m/h.</desc>
<speed>0.000000</speed>
</trkpt>
<trkpt lat="22.140125" lon="104.304176">
<ele>230.072388</ele>
<time>2011-04-27T06:17:21Z</time>
<desc>lat.=22.140125, lon.=104.304176, Alt.=230.072388m. Speed=0.000000m/h.</desc>
<speed>0.000000</speed>
</trkpt>
<trkpt lat="22.140125" lon="104.304176">
<ele>230.052856</ele>
<time>2011-04-27T06:17:26Z</time>
<desc>lat.=22.140125, lon.=104.304176, Alt.=230.052856m. Speed=0.036000m/h.</desc>
<speed>0.010000</speed>
</trkpt>
<trkpt lat="22.140125" lon="104.304176">
<ele>230.048950</ele>
<time>2011-04-27T06:17:31Z</time>
<desc>lat.=22.140125, lon.=104.304176, Alt.=230.048950m. Speed=0.000000m/h.</desc>
<speed>0.000000</speed>
</trkpt>
<trkpt lat="22.140125" lon="104.304176">
<ele>230.045044</ele>
<time>2011-04-27T06:17:36Z</time>
<desc>lat.=22.140125, lon.=104.304176, Alt.=230.045044m. Speed=0.000000m/h.</desc>
<speed>0.000000</speed>
</trkpt>
<trkpt lat="22.140125" lon="104.304176">
<ele>230.033325</ele>
<time>2011-04-27T06:17:41Z</time>
<desc>lat.=22.140125, lon.=104.304176, Alt.=230.033325m. Speed=0.036000m/h.</desc>
<speed>0.010000</speed>
</trkpt>
<trkpt lat="22.140125" lon="104.304176">
<ele>230.029419</ele>
<time>2011-04-27T06:17:46Z</time>
<desc>lat.=22.140125, lon.=104.304176, Alt.=230.029419m. Speed=0.072000m/h.</desc>
<speed>0.020000</speed>
</trkpt>
<trkpt lat="22.140125" lon="104.304176">
<ele>230.009888</ele>
<time>2011-04-27T06:17:51Z</time>
<desc>lat.=22.140125, lon.=104.304176, Alt.=230.009888m. Speed=0.000000m/h.</desc>
<speed>0.000000</speed>
</trkpt>
<trkpt lat="22.140125" lon="104.304176">
<ele>230.002075</ele>
<time>2011-04-27T06:17:56Z</time>
<desc>lat.=22.140125, lon.=104.304176, Alt.=230.002075m. Speed=0.000000m/h.</desc>
<speed>0.000000</speed>
</trkpt>
<trkpt lat="22.140125" lon="104.304176">
<ele>229.994263</ele>
<time>2011-04-27T06:18:01Z</time>
<desc>lat.=22.140125, lon.=104.304176, Alt.=229.994263m. Speed=0.000000m/h.</desc>
<speed>0.000000</speed>
</trkpt>
<trkpt lat="22.140125" lon="104.304176">
<ele>229.982544</ele>
<time>2011-04-27T06:18:06Z</time>
<desc>lat.=22.140125, lon.=104.304176, Alt.=229.982544m. Speed=0.036000m/h.</desc>
<speed>0.010000</speed>
</trkpt>
<trkpt lat="22.140125" lon="104.304176">
<ele>229.963013</ele>
<time>2011-04-27T06:18:11Z</time>
<desc>lat.=22.140125, lon.=104.304176, Alt.=229.963013m. Speed=0.036000m/h.</desc>
<speed>0.010000</speed>
</trkpt>
<trkpt lat="22.140125" lon="104.304176">
<ele>229.927856</ele>
<time>2011-04-27T06:18:16Z</time>
<desc>lat.=22.140125, lon.=104.304176, Alt.=229.927856m. Speed=0.036000m/h.</desc>
<speed>0.010000</speed>
</trkpt>
<trkpt lat="22.140127" lon="104.304176">
<ele>229.900513</ele>
<time>2011-04-27T06:18:21Z</time>
<desc>lat.=22.140127, lon.=104.304176, Alt.=229.900513m. Speed=0.000000m/h.</desc>
<speed>0.000000</speed>
</trkpt>
<trkpt lat="22.140127" lon="104.304176">
<ele>229.853638</ele>
<time>2011-04-27T06:18:26Z</time>
<desc>lat.=22.140127, lon.=104.304176, Alt.=229.853638m. Speed=0.072000m/h.</desc>
<speed>0.020000</speed>
</trkpt>
<trkpt lat="22.140127" lon="104.304176">
<ele>229.787231</ele>
<time>2011-04-27T06:18:31Z</time>
<desc>lat.=22.140127, lon.=104.304176, Alt.=229.787231m. Speed=0.000000m/h.</desc>
<speed>0.000000</speed>
</trkpt>
<trkpt lat="22.140127" lon="104.304176">
<ele>229.681763</ele>
<time>2011-04-27T06:18:36Z</time>
<desc>lat.=22.140127, lon.=104.304176, Alt.=229.681763m. Speed=0.000000m/h.</desc>
<speed>0.000000</speed>
</trkpt>
<trkpt lat="22.140127" lon="104.304176">
<ele>229.591919</ele>
<time>2011-04-27T06:18:41Z</time>
<desc>lat.=22.140127, lon.=104.304176, Alt.=229.591919m. Speed=0.000000m/h.</desc>
<speed>0.000000</speed>
</trkpt>
<trkpt lat="22.140127" lon="104.304176">
<ele>229.533325</ele>
<time>2011-04-27T06:18:46Z</time>
<desc>lat.=22.140127, lon.=104.304176, Alt.=229.533325m. Speed=0.000000m/h.</desc>
<speed>0.000000</speed>
</trkpt>
<trkpt lat="22.140127" lon="104.304176">
<ele>229.494263</ele>
<time>2011-04-27T06:18:51Z</time>
<desc>lat.=22.140127, lon.=104.304176, Alt.=229.494263m. Speed=0.000000m/h.</desc>
<speed>0.000000</speed>
</trkpt>
<trkpt lat="22.140127" lon="104.304176">
<ele>229.443481</ele>
<time>2011-04-27T06:18:56Z</time>
<desc>lat.=22.140127, lon.=104.304176, Alt.=229.443481m. Speed=0.036000m/h.</desc>
<speed>0.010000</speed>
</trkpt>
<trkpt lat="22.140127" lon="104.304176">
<ele>229.447388</ele>
<time>2011-04-27T06:19:01Z</time>
<desc>lat.=22.140127, lon.=104.304176, Alt.=229.447388m. Speed=0.000000m/h.</desc>
<speed>0.000000</speed>
</trkpt>
<trkpt lat="22.140127" lon="104.304176">
<ele>229.463013</ele>
<time>2011-04-27T06:19:06Z</time>
<desc>lat.=22.140127, lon.=104.304176, Alt.=229.463013m. Speed=0.000000m/h.</desc>
<speed>0.000000</speed>
</trkpt>
<trkpt lat="22.140127" lon="104.304176">
<ele>229.498169</ele>
<time>2011-04-27T06:19:11Z</time>
<desc>lat.=22.140127, lon.=104.304176, Alt.=229.498169m. Speed=0.000000m/h.</desc>
<speed>0.000000</speed>
</trkpt>
<trkpt lat="22.140127" lon="104.304176">
<ele>229.521606</ele>
<time>2011-04-27T06:19:16Z</time>
<desc>lat.=22.140127, lon.=104.304176, Alt.=229.521606m. Speed=0.000000m/h.</desc>
<speed>0.000000</speed>
</trkpt>
<trkpt lat="22.140127" lon="104.304176">
<ele>229.537231</ele>
<time>2011-04-27T06:19:21Z</time>
<desc>lat.=22.140127, lon.=104.304176, Alt.=229.537231m. Speed=0.288000m/h.</desc>
<speed>0.080000</speed>
</trkpt>
<trkpt lat="22.140127" lon="104.304176">
<ele>229.466919</ele>
<time>2011-04-27T06:19:26Z</time>
<desc>lat.=22.140127, lon.=104.304176, Alt.=229.466919m. Speed=0.108000m/h.</desc>
<speed>0.030000</speed>
</trkpt>
<trkpt lat="22.140125" lon="104.304176">
<ele>229.459106</ele>
<time>2011-04-27T06:19:31Z</time>
<desc>lat.=22.140125, lon.=104.304176, Alt.=229.459106m. Speed=0.288000m/h.</desc>
<speed>0.080000</speed>
</trkpt>
<trkpt lat="22.140123" lon="104.304176">
<ele>229.470825</ele>
<time>2011-04-27T06:19:36Z</time>
<desc>lat.=22.140123, lon.=104.304176, Alt.=229.470825m. Speed=0.144000m/h.</desc>
<speed>0.040000</speed>
</trkpt>
<trkpt lat="22.140123" lon="104.304176">
<ele>229.502075</ele>
<time>2011-04-27T06:19:41Z</time>
<desc>lat.=22.140123, lon.=104.304176, Alt.=229.502075m. Speed=0.180000m/h.</desc>
<speed>0.050000</speed>
</trkpt>
<trkpt lat="22.140125" lon="104.304176">
<ele>229.541138</ele>
<time>2011-04-27T06:19:46Z</time>
<desc>lat.=22.140125, lon.=104.304176, Alt.=229.541138m. Speed=0.612000m/h.</desc>
<speed>0.170000</speed>
</trkpt>
<trkpt lat="22.140131" lon="104.304176">
<ele>229.619263</ele>
<time>2011-04-27T06:19:51Z</time>
<desc>lat.=22.140131, lon.=104.304176, Alt.=229.619263m. Speed=0.036000m/h.</desc>
<speed>0.010000</speed>
</trkpt>
<trkpt lat="22.140131" lon="104.304176">
<ele>229.693481</ele>
<time>2011-04-27T06:19:56Z</time>
<desc>lat.=22.140131, lon.=104.304176, Alt.=229.693481m. Speed=0.072000m/h.</desc>
<speed>0.020000</speed>
</trkpt>
<trkpt lat="22.140129" lon="104.304176">
<ele>229.677856</ele>
<time>2011-04-27T06:20:01Z</time>
<desc>lat.=22.140129, lon.=104.304176, Alt.=229.677856m. Speed=0.180000m/h.</desc>
<speed>0.050000</speed>
</trkpt>
<trkpt lat="22.140125" lon="104.304176">
<ele>229.658325</ele>
<time>2011-04-27T06:20:06Z</time>
<desc>lat.=22.140125, lon.=104.304176, Alt.=229.658325m. Speed=0.108000m/h.</desc>
<speed>0.030000</speed>
</trkpt>
<trkpt lat="22.140125" lon="104.304176">
<ele>229.732544</ele>
<time>2011-04-27T06:20:11Z</time>
<desc>lat.=22.140125, lon.=104.304176, Alt.=229.732544m. Speed=0.036000m/h.</desc>
<speed>0.010000</speed>
</trkpt>
<trkpt lat="22.140125" lon="104.304176">
<ele>229.701294</ele>
<time>2011-04-27T06:20:16Z</time>
<desc>lat.=22.140125, lon.=104.304176, Alt.=229.701294m. Speed=0.072000m/h.</desc>
<speed>0.020000</speed>
</trkpt>
<trkpt lat="22.140125" lon="104.304176">
<ele>229.670044</ele>
<time>2011-04-27T06:20:21Z</time>
<desc>lat.=22.140125, lon.=104.304176, Alt.=229.670044m. Speed=0.036000m/h.</desc>
<speed>0.010000</speed>
</trkpt>
<trkpt lat="22.140125" lon="104.304176">
<ele>229.673950</ele>
<time>2011-04-27T06:20:26Z</time>
<desc>lat.=22.140125, lon.=104.304176, Alt.=229.673950m. Speed=0.000000m/h.</desc>
<speed>0.000000</speed>
</trkpt>
<trkpt lat="22.140125" lon="104.304176">
<ele>229.654419</ele>
<time>2011-04-27T06:20:31Z</time>
<desc>lat.=22.140125, lon.=104.304176, Alt.=229.654419m. Speed=0.000000m/h.</desc>
<speed>0.000000</speed>
</trkpt>
<trkpt lat="22.140125" lon="104.304176">
<ele>229.627075</ele>
<time>2011-04-27T06:20:36Z</time>
<desc>lat.=22.140125, lon.=104.304176, Alt.=229.627075m. Speed=0.000000m/h.</desc>
<speed>0.000000</speed>
</trkpt>
<trkpt lat="22.140125" lon="104.304176">
<ele>229.580200</ele>
<time>2011-04-27T06:20:41Z</time>
<desc>lat.=22.140125, lon.=104.304176, Alt.=229.580200m. Speed=0.000000m/h.</desc>
<speed>0.000000</speed>
</trkpt>
<trkpt lat="22.140125" lon="104.304176">
<ele>229.595825</ele>
<time>2011-04-27T06:20:46Z</time>
<desc>lat.=22.140125, lon.=104.304176, Alt.=229.595825m. Speed=0.000000m/h.</desc>
<speed>0.000000</speed>
</trkpt>
<trkpt lat="22.140125" lon="104.304176">
<ele>229.576294</ele>
<time>2011-04-27T06:20:51Z</time>
<desc>lat.=22.140125, lon.=104.304176, Alt.=229.576294m. Speed=0.036000m/h.</desc>
<speed>0.010000</speed>
</trkpt>
<trkpt lat="22.140125" lon="104.304176">
<ele>229.478638</ele>
<time>2011-04-27T06:20:56Z</time>
<desc>lat.=22.140125, lon.=104.304176, Alt.=229.478638m. Speed=0.036000m/h.</desc>
<speed>0.010000</speed>
</trkpt>
<trkpt lat="22.140127" lon="104.304176">
<ele>229.423950</ele>
<time>2011-04-27T06:21:01Z</time>
<desc>lat.=22.140127, lon.=104.304176, Alt.=229.423950m. Speed=0.000000m/h.</desc>
<speed>0.000000</speed>
</trkpt>
<trkpt lat="22.140127" lon="104.304176">
<ele>229.361450</ele>
<time>2011-04-27T06:21:06Z</time>
<desc>lat.=22.140127, lon.=104.304176, Alt.=229.361450m. Speed=0.072000m/h.</desc>
<speed>0.020000</speed>
</trkpt>
<trkpt lat="22.140127" lon="104.304176">
<ele>229.357544</ele>
<time>2011-04-27T06:21:11Z</time>
<desc>lat.=22.140127, lon.=104.304176, Alt.=229.357544m. Speed=0.000000m/h.</desc>
<speed>0.000000</speed>
</trkpt>
<trkpt lat="22.140127" lon="104.304176">
<ele>229.345825</ele>
<time>2011-04-27T06:21:16Z</time>
<desc>lat.=22.140127, lon.=104.304176, Alt.=229.345825m. Speed=0.036000m/h.</desc>
<speed>0.010000</speed>
</trkpt>
<trkpt lat="22.140127" lon="104.304176">
<ele>229.349731</ele>
<time>2011-04-27T06:21:21Z</time>
<desc>lat.=22.140127, lon.=104.304176, Alt.=229.349731m. Speed=0.036000m/h.</desc>
<speed>0.010000</speed>
</trkpt>
<trkpt lat="22.140127" lon="104.304176">
<ele>229.353638</ele>
<time>2011-04-27T06:21:26Z</time>
<desc>lat.=22.140127, lon.=104.304176, Alt.=229.353638m. Speed=0.000000m/h.</desc>
<speed>0.000000</speed>
</trkpt>
<trkpt lat="22.140127" lon="104.304176">
<ele>229.334106</ele>
<time>2011-04-27T06:21:31Z</time>
<desc>lat.=22.140127, lon.=104.304176, Alt.=229.334106m. Speed=0.036000m/h.</desc>
<speed>0.010000</speed>
</trkpt>
<trkpt lat="22.140127" lon="104.304184">
<ele>229.361450</ele>
<time>2011-04-27T06:21:36Z</time>
<desc>lat.=22.140127, lon.=104.304184, Alt.=229.361450m. Speed=0.072000m/h.</desc>
<speed>0.020000</speed>
</trkpt>
<trkpt lat="22.140127" lon="104.304184">
<ele>229.314575</ele>
<time>2011-04-27T06:21:41Z</time>
<desc>lat.=22.140127, lon.=104.304184, Alt.=229.314575m. Speed=0.000000m/h.</desc>
<speed>0.000000</speed>
</trkpt>
<trkpt lat="22.140127" lon="104.304184">
<ele>229.318481</ele>
<time>2011-04-27T06:21:46Z</time>
<desc>lat.=22.140127, lon.=104.304184, Alt.=229.318481m. Speed=0.000000m/h.</desc>
<speed>0.000000</speed>
</trkpt>
<trkpt lat="22.140129" lon="104.304184">
<ele>229.291138</ele>
<time>2011-04-27T06:21:51Z</time>
<desc>lat.=22.140129, lon.=104.304184, Alt.=229.291138m. Speed=0.036000m/h.</desc>
<speed>0.010000</speed>
</trkpt>
<trkpt lat="22.140129" lon="104.304184">
<ele>229.291138</ele>
<time>2011-04-27T06:21:56Z</time>
<desc>lat.=22.140129, lon.=104.304184, Alt.=229.291138m. Speed=0.000000m/h.</desc>
<speed>0.000000</speed>
</trkpt>
<trkpt lat="22.140129" lon="104.304184">
<ele>229.220825</ele>
<time>2011-04-27T06:22:01Z</time>
<desc>lat.=22.140129, lon.=104.304184, Alt.=229.220825m. Speed=0.000000m/h.</desc>
<speed>0.000000</speed>
</trkpt>
<trkpt lat="22.140129" lon="104.304176">
<ele>229.201294</ele>
<time>2011-04-27T06:22:06Z</time>
<desc>lat.=22.140129, lon.=104.304176, Alt.=229.201294m. Speed=0.000000m/h.</desc>
<speed>0.000000</speed>
</trkpt>
<trkpt lat="22.140129" lon="104.304176">
<ele>229.119263</ele>
<time>2011-04-27T06:22:11Z</time>
<desc>lat.=22.140129, lon.=104.304176, Alt.=229.119263m. Speed=0.036000m/h.</desc>
<speed>0.010000</speed>
</trkpt>
<trkpt lat="22.140129" lon="104.304176">
<ele>229.068481</ele>
<time>2011-04-27T06:22:16Z</time>
<desc>lat.=22.140129, lon.=104.304176, Alt.=229.068481m. Speed=0.036000m/h.</desc>
<speed>0.010000</speed>
</trkpt>
<trkpt lat="22.140129" lon="104.304176">
<ele>229.002075</ele>
<time>2011-04-27T06:22:21Z</time>
<desc>lat.=22.140129, lon.=104.304176, Alt.=229.002075m. Speed=0.000000m/h.</desc>
<speed>0.000000</speed>
</trkpt>
<trkpt lat="22.140131" lon="104.304176">
<ele>228.974731</ele>
<time>2011-04-27T06:22:26Z</time>
<desc>lat.=22.140131, lon.=104.304176, Alt.=228.974731m. Speed=0.000000m/h.</desc>
<speed>0.000000</speed>
</trkpt>
<trkpt lat="22.140131" lon="104.304176">
<ele>228.822388</ele>
<time>2011-04-27T06:22:31Z</time>
<desc>lat.=22.140131, lon.=104.304176, Alt.=228.822388m. Speed=0.036000m/h.</desc>
<speed>0.010000</speed>
</trkpt>
<trkpt lat="22.140131" lon="104.304176">
<ele>228.822388</ele>
<time>2011-04-27T06:22:36Z</time>
<desc>lat.=22.140131, lon.=104.304176, Alt.=228.822388m. Speed=0.036000m/h.</desc>
<speed>0.010000</speed>
</trkpt>
<trkpt lat="22.140131" lon="104.304176">
<ele>228.798950</ele>
<time>2011-04-27T06:22:41Z</time>
<desc>lat.=22.140131, lon.=104.304176, Alt.=228.798950m. Speed=0.036000m/h.</desc>
<speed>0.010000</speed>
</trkpt>
<trkpt lat="22.140131" lon="104.304176">
<ele>228.810669</ele>
<time>2011-04-27T06:22:46Z</time>
<desc>lat.=22.140131, lon.=104.304176, Alt.=228.810669m. Speed=0.000000m/h.</desc>
<speed>0.000000</speed>
</trkpt>
<trkpt lat="22.140131" lon="104.304176">
<ele>228.877075</ele>
<time>2011-04-27T06:22:51Z</time>
<desc>lat.=22.140131, lon.=104.304176, Alt.=228.877075m. Speed=0.000000m/h.</desc>
<speed>0.000000</speed>
</trkpt>
<trkpt lat="22.140131" lon="104.304176">
<ele>228.966919</ele>
<time>2011-04-27T06:22:56Z</time>
<desc>lat.=22.140131, lon.=104.304176, Alt.=228.966919m. Speed=0.000000m/h.</desc>
<speed>0.000000</speed>
</trkpt>
<trkpt lat="22.140133" lon="104.304176">
<ele>229.021606</ele>
<time>2011-04-27T06:23:01Z</time>
<desc>lat.=22.140133, lon.=104.304176, Alt.=229.021606m. Speed=0.036000m/h.</desc>
<speed>0.010000</speed>
</trkpt>
<trkpt lat="22.140133" lon="104.304176">
<ele>229.080200</ele>
<time>2011-04-27T06:23:06Z</time>
<desc>lat.=22.140133, lon.=104.304176, Alt.=229.080200m. Speed=0.000000m/h.</desc>
<speed>0.000000</speed>
</trkpt>
<trkpt lat="22.140133" lon="104.304176">
<ele>229.115356</ele>
<time>2011-04-27T06:23:11Z</time>
<desc>lat.=22.140133, lon.=104.304176, Alt.=229.115356m. Speed=0.036000m/h.</desc>
<speed>0.010000</speed>
</trkpt>
<trkpt lat="22.140133" lon="104.304176">
<ele>229.134888</ele>
<time>2011-04-27T06:23:16Z</time>
<desc>lat.=22.140133, lon.=104.304176, Alt.=229.134888m. Speed=0.000000m/h.</desc>
<speed>0.000000</speed>
</trkpt>
<trkpt lat="22.140133" lon="104.304176">
<ele>229.170044</ele>
<time>2011-04-27T06:23:21Z</time>
<desc>lat.=22.140133, lon.=104.304176, Alt.=229.170044m. Speed=0.036000m/h.</desc>
<speed>0.010000</speed>
</trkpt>
<trkpt lat="22.140133" lon="104.304176">
<ele>229.213013</ele>
<time>2011-04-27T06:23:26Z</time>
<desc>lat.=22.140133, lon.=104.304176, Alt.=229.213013m. Speed=0.000000m/h.</desc>
<speed>0.000000</speed>
</trkpt>
<trkpt lat="22.140133" lon="104.304176">
<ele>229.248169</ele>
<time>2011-04-27T06:23:31Z</time>
<desc>lat.=22.140133, lon.=104.304176, Alt.=229.248169m. Speed=0.000000m/h.</desc>
<speed>0.000000</speed>
</trkpt>
<trkpt lat="22.140133" lon="104.304176">
<ele>229.267700</ele>
<time>2011-04-27T06:23:36Z</time>
<desc>lat.=22.140133, lon.=104.304176, Alt.=229.267700m. Speed=0.036000m/h.</desc>
<speed>0.010000</speed>
</trkpt>
<trkpt lat="22.140135" lon="104.304176">
<ele>229.302856</ele>
<time>2011-04-27T06:23:41Z</time>
<desc>lat.=22.140135, lon.=104.304176, Alt.=229.302856m. Speed=0.000000m/h.</desc>
<speed>0.000000</speed>
</trkpt>
<trkpt lat="22.140135" lon="104.304176">
<ele>229.373169</ele>
<time>2011-04-27T06:23:46Z</time>
<desc>lat.=22.140135, lon.=104.304176, Alt.=229.373169m. Speed=0.036000m/h.</desc>
<speed>0.010000</speed>
</trkpt>
<trkpt lat="22.140135" lon="104.304176">
<ele>229.463013</ele>
<time>2011-04-27T06:23:51Z</time>
<desc>lat.=22.140135, lon.=104.304176, Alt.=229.463013m. Speed=0.000000m/h.</desc>
<speed>0.000000</speed>
</trkpt>
<trkpt lat="22.140135" lon="104.304176">
<ele>229.556763</ele>
<time>2011-04-27T06:23:56Z</time>
<desc>lat.=22.140135, lon.=104.304176, Alt.=229.556763m. Speed=0.036000m/h.</desc>
<speed>0.010000</speed>
</trkpt>
<trkpt lat="22.140135" lon="104.304176">
<ele>229.630981</ele>
<time>2011-04-27T06:24:01Z</time>
<desc>lat.=22.140135, lon.=104.304176, Alt.=229.630981m. Speed=0.144000m/h.</desc>
<speed>0.040000</speed>
</trkpt>
<trkpt lat="22.140137" lon="104.304184">
<ele>229.705200</ele>
<time>2011-04-27T06:24:06Z</time>
<desc>lat.=22.140137, lon.=104.304184, Alt.=229.705200m. Speed=0.108000m/h.</desc>
<speed>0.030000</speed>
</trkpt>
<trkpt lat="22.140137" lon="104.304184">
<ele>229.771606</ele>
<time>2011-04-27T06:24:11Z</time>
<desc>lat.=22.140137, lon.=104.304184, Alt.=229.771606m. Speed=0.036000m/h.</desc>
<speed>0.010000</speed>
</trkpt>
<trkpt lat="22.140137" lon="104.304184">
<ele>229.834106</ele>
<time>2011-04-27T06:24:16Z</time>
<desc>lat.=22.140137, lon.=104.304184, Alt.=229.834106m. Speed=0.072000m/h.</desc>
<speed>0.020000</speed>
</trkpt>
<trkpt lat="22.140137" lon="104.304184">
<ele>229.908325</ele>
<time>2011-04-27T06:24:21Z</time>
<desc>lat.=22.140137, lon.=104.304184, Alt.=229.908325m. Speed=0.504000m/h.</desc>
<speed>0.140000</speed>
</trkpt>
<trkpt lat="22.140135" lon="104.304192">
<ele>229.974731</ele>
<time>2011-04-27T06:24:26Z</time>
<desc>lat.=22.140135, lon.=104.304192, Alt.=229.974731m. Speed=0.504000m/h.</desc>
<speed>0.140000</speed>
</trkpt>
<trkpt lat="22.140135" lon="104.304199">
<ele>230.048950</ele>
<time>2011-04-27T06:24:31Z</time>
<desc>lat.=22.140135, lon.=104.304199, Alt.=230.048950m. Speed=0.180000m/h.</desc>
<speed>0.050000</speed>
</trkpt>
<trkpt lat="22.140131" lon="104.304192">
<ele>230.127075</ele>
<time>2011-04-27T06:24:36Z</time>
<desc>lat.=22.140131, lon.=104.304192, Alt.=230.127075m. Speed=0.216000m/h.</desc>
<speed>0.060000</speed>
</trkpt>
<trkpt lat="22.140131" lon="104.304192">
<ele>230.220825</ele>
<time>2011-04-27T06:24:41Z</time>
<desc>lat.=22.140131, lon.=104.304192, Alt.=230.220825m. Speed=0.036000m/h.</desc>
<speed>0.010000</speed>
</trkpt>
<trkpt lat="22.140131" lon="104.304192">
<ele>230.334106</ele>
<time>2011-04-27T06:24:46Z</time>
<desc>lat.=22.140131, lon.=104.304192, Alt.=230.334106m. Speed=0.072000m/h.</desc>
<speed>0.020000</speed>
</trkpt>
<trkpt lat="22.140129" lon="104.304192">
<ele>230.439575</ele>
<time>2011-04-27T06:24:51Z</time>
<desc>lat.=22.140129, lon.=104.304192, Alt.=230.439575m. Speed=0.288000m/h.</desc>
<speed>0.080000</speed>
</trkpt>
<trkpt lat="22.140123" lon="104.304199">
<ele>230.572388</ele>
<time>2011-04-27T06:24:56Z</time>
<desc>lat.=22.140123, lon.=104.304199, Alt.=230.572388m. Speed=0.900000m/h.</desc>
<speed>0.250000</speed>
</trkpt>
<trkpt lat="22.140118" lon="104.304222">
<ele>230.966919</ele>
<time>2011-04-27T06:25:01Z</time>
<desc>lat.=22.140118, lon.=104.304222, Alt.=230.966919m. Speed=1.440000m/h.</desc>
<speed>0.400000</speed>
</trkpt>
<trkpt lat="22.140091" lon="104.304276">
<ele>231.326294</ele>
<time>2011-04-27T06:25:06Z</time>
<desc>lat.=22.140091, lon.=104.304276, Alt.=231.326294m. Speed=4.140000m/h.</desc>
<speed>1.150000</speed>
</trkpt>
<trkpt lat="22.140055" lon="104.304352">
<ele>231.451294</ele>
<time>2011-04-27T06:25:11Z</time>
<desc>lat.=22.140055, lon.=104.304352, Alt.=231.451294m. Speed=5.220000m/h.</desc>
<speed>1.450000</speed>
</trkpt>
<trkpt lat="22.139997" lon="104.304497">
<ele>232.205200</ele>
<time>2011-04-27T06:25:16Z</time>
<desc>lat.=22.139997, lon.=104.304497, Alt.=232.205200m. Speed=4.320000m/h.</desc>
<speed>1.200000</speed>
</trkpt>
<trkpt lat="22.139956" lon="104.304619">
<ele>232.556763</ele>
<time>2011-04-27T06:25:21Z</time>
<desc>lat.=22.139956, lon.=104.304619, Alt.=232.556763m. Speed=4.824000m/h.</desc>
<speed>1.340000</speed>
</trkpt>
<trkpt lat="22.139894" lon="104.304680">
<ele>232.482544</ele>
<time>2011-04-27T06:25:26Z</time>
<desc>lat.=22.139894, lon.=104.304680, Alt.=232.482544m. Speed=5.976000m/h.</desc>
<speed>1.660000</speed>
</trkpt>
<trkpt lat="22.139830" lon="104.304771">
<ele>233.060669</ele>
<time>2011-04-27T06:25:31Z</time>
<desc>lat.=22.139830, lon.=104.304771, Alt.=233.060669m. Speed=6.480000m/h.</desc>
<speed>1.800000</speed>
</trkpt>
<trkpt lat="22.139786" lon="104.304825">
<ele>233.713013</ele>
<time>2011-04-27T06:25:36Z</time>
<desc>lat.=22.139786, lon.=104.304825, Alt.=233.713013m. Speed=5.904000m/h.</desc>
<speed>1.640000</speed>
</trkpt>
<trkpt lat="22.139748" lon="104.304855">
<ele>235.244263</ele>
<time>2011-04-27T06:25:41Z</time>
<desc>lat.=22.139748, lon.=104.304855, Alt.=235.244263m. Speed=4.140000m/h.</desc>
<speed>1.150000</speed>
</trkpt>
<trkpt lat="22.139713" lon="104.304901">
<ele>236.517700</ele>
<time>2011-04-27T06:25:46Z</time>
<desc>lat.=22.139713, lon.=104.304901, Alt.=236.517700m. Speed=5.472000m/h.</desc>
<speed>1.520000</speed>
</trkpt>
<trkpt lat="22.139650" lon="104.304939">
<ele>238.486450</ele>
<time>2011-04-27T06:25:51Z</time>
<desc>lat.=22.139650, lon.=104.304939, Alt.=238.486450m. Speed=6.156000m/h.</desc>
<speed>1.710000</speed>
</trkpt>
<trkpt lat="22.139582" lon="104.304955">
<ele>240.994263</ele>
<time>2011-04-27T06:25:56Z</time>
<desc>lat.=22.139582, lon.=104.304955, Alt.=240.994263m. Speed=4.284000m/h.</desc>
<speed>1.190000</speed>
</trkpt>
<trkpt lat="22.139507" lon="104.304970">
<ele>242.865356</ele>
<time>2011-04-27T06:26:01Z</time>
<desc>lat.=22.139507, lon.=104.304970, Alt.=242.865356m. Speed=4.752000m/h.</desc>
<speed>1.320000</speed>
</trkpt>
<trkpt lat="22.139442" lon="104.304993">
<ele>245.127075</ele>
<time>2011-04-27T06:26:06Z</time>
<desc>lat.=22.139442, lon.=104.304993, Alt.=245.127075m. Speed=6.732000m/h.</desc>
<speed>1.870000</speed>
</trkpt>
<trkpt lat="22.139378" lon="104.305046">
<ele>246.806763</ele>
<time>2011-04-27T06:26:11Z</time>
<desc>lat.=22.139378, lon.=104.305046, Alt.=246.806763m. Speed=6.480000m/h.</desc>
<speed>1.800000</speed>
</trkpt>
<trkpt lat="22.139322" lon="104.305115">
<ele>248.802856</ele>
<time>2011-04-27T06:26:16Z</time>
<desc>lat.=22.139322, lon.=104.305115, Alt.=248.802856m. Speed=5.652000m/h.</desc>
<speed>1.570000</speed>
</trkpt>
<trkpt lat="22.139294" lon="104.305206">
<ele>251.427856</ele>
<time>2011-04-27T06:26:21Z</time>
<desc>lat.=22.139294, lon.=104.305206, Alt.=251.427856m. Speed=5.112000m/h.</desc>
<speed>1.420000</speed>
</trkpt>
<trkpt lat="22.139292" lon="104.305305">
<ele>253.173950</ele>
<time>2011-04-27T06:26:26Z</time>
<desc>lat.=22.139292, lon.=104.305305, Alt.=253.173950m. Speed=6.012000m/h.</desc>
<speed>1.670000</speed>
</trkpt>
<trkpt lat="22.139311" lon="104.305397">
<ele>255.439575</ele>
<time>2011-04-27T06:26:31Z</time>
<desc>lat.=22.139311, lon.=104.305397, Alt.=255.439575m. Speed=5.256000m/h.</desc>
<speed>1.460000</speed>
</trkpt>
<trkpt lat="22.139330" lon="104.305458">
<ele>257.472900</ele>
<time>2011-04-27T06:26:36Z</time>
<desc>lat.=22.139330, lon.=104.305458, Alt.=257.472900m. Speed=5.004000m/h.</desc>
<speed>1.390000</speed>
</trkpt>
<trkpt lat="22.139347" lon="104.305519">
<ele>259.949463</ele>
<time>2011-04-27T06:26:41Z</time>
<desc>lat.=22.139347, lon.=104.305519, Alt.=259.949463m. Speed=3.960000m/h.</desc>
<speed>1.100000</speed>
</trkpt>
<trkpt lat="22.139372" lon="104.305595">
<ele>262.676025</ele>
<time>2011-04-27T06:26:46Z</time>
<desc>lat.=22.139372, lon.=104.305595, Alt.=262.676025m. Speed=5.616000m/h.</desc>
<speed>1.560000</speed>
</trkpt>
<trkpt lat="22.139381" lon="104.305672">
<ele>264.707275</ele>
<time>2011-04-27T06:26:51Z</time>
<desc>lat.=22.139381, lon.=104.305672, Alt.=264.707275m. Speed=3.672000m/h.</desc>
<speed>1.020000</speed>
</trkpt>
<trkpt lat="22.139395" lon="104.305740">
<ele>266.644775</ele>
<time>2011-04-27T06:26:56Z</time>
<desc>lat.=22.139395, lon.=104.305740, Alt.=266.644775m. Speed=4.500000m/h.</desc>
<speed>1.250000</speed>
</trkpt>
<trkpt lat="22.139389" lon="104.305817">
<ele>268.832275</ele>
<time>2011-04-27T06:27:01Z</time>
<desc>lat.=22.139389, lon.=104.305817, Alt.=268.832275m. Speed=5.976000m/h.</desc>
<speed>1.660000</speed>
</trkpt>
<trkpt lat="22.139414" lon="104.305878">
<ele>270.918213</ele>
<time>2011-04-27T06:27:06Z</time>
<desc>lat.=22.139414, lon.=104.305878, Alt.=270.918213m. Speed=4.392000m/h.</desc>
<speed>1.220000</speed>
</trkpt>
<trkpt lat="22.139410" lon="104.305939">
<ele>273.472900</ele>
<time>2011-04-27T06:27:11Z</time>
<desc>lat.=22.139410, lon.=104.305939, Alt.=273.472900m. Speed=4.716000m/h.</desc>
<speed>1.310000</speed>
</trkpt>
<trkpt lat="22.139404" lon="104.306023">
<ele>276.066650</ele>
<time>2011-04-27T06:27:16Z</time>
<desc>lat.=22.139404, lon.=104.306023, Alt.=276.066650m. Speed=5.904000m/h.</desc>
<speed>1.640000</speed>
</trkpt>
<trkpt lat="22.139399" lon="104.306099">
<ele>278.347900</ele>
<time>2011-04-27T06:27:21Z</time>
<desc>lat.=22.139399, lon.=104.306099, Alt.=278.347900m. Speed=2.232000m/h.</desc>
<speed>0.620000</speed>
</trkpt>
<trkpt lat="22.139395" lon="104.306160">
<ele>280.293213</ele>
<time>2011-04-27T06:27:26Z</time>
<desc>lat.=22.139395, lon.=104.306160, Alt.=280.293213m. Speed=3.600000m/h.</desc>
<speed>1.000000</speed>
</trkpt>
<trkpt lat="22.139393" lon="104.306236">
<ele>282.082275</ele>
<time>2011-04-27T06:27:31Z</time>
<desc>lat.=22.139393, lon.=104.306236, Alt.=282.082275m. Speed=6.840000m/h.</desc>
<speed>1.900000</speed>
</trkpt>
<trkpt lat="22.139397" lon="104.306297">
<ele>283.597900</ele>
<time>2011-04-27T06:27:36Z</time>
<desc>lat.=22.139397, lon.=104.306297, Alt.=283.597900m. Speed=2.844000m/h.</desc>
<speed>0.790000</speed>
</trkpt>
<trkpt lat="22.139395" lon="104.306351">
<ele>285.269775</ele>
<time>2011-04-27T06:27:41Z</time>
<desc>lat.=22.139395, lon.=104.306351, Alt.=285.269775m. Speed=4.140000m/h.</desc>
<speed>1.150000</speed>
</trkpt>
<trkpt lat="22.139393" lon="104.306404">
<ele>286.191650</ele>
<time>2011-04-27T06:27:46Z</time>
<desc>lat.=22.139393, lon.=104.306404, Alt.=286.191650m. Speed=4.140000m/h.</desc>
<speed>1.150000</speed>
</trkpt>
<trkpt lat="22.139368" lon="104.306465">
<ele>287.363525</ele>
<time>2011-04-27T06:27:51Z</time>
<desc>lat.=22.139368, lon.=104.306465, Alt.=287.363525m. Speed=4.500000m/h.</desc>
<speed>1.250000</speed>
</trkpt>
<trkpt lat="22.139355" lon="104.306534">
<ele>288.074463</ele>
<time>2011-04-27T06:27:56Z</time>
<desc>lat.=22.139355, lon.=104.306534, Alt.=288.074463m. Speed=5.184000m/h.</desc>
<speed>1.440000</speed>
</trkpt>
<trkpt lat="22.139334" lon="104.306610">
<ele>289.410400</ele>
<time>2011-04-27T06:28:01Z</time>
<desc>lat.=22.139334, lon.=104.306610, Alt.=289.410400m. Speed=7.200000m/h.</desc>
<speed>2.000000</speed>
</trkpt>
<trkpt lat="22.139305" lon="104.306679">
<ele>290.886963</ele>
<time>2011-04-27T06:28:06Z</time>
<desc>lat.=22.139305, lon.=104.306679, Alt.=290.886963m. Speed=5.580000m/h.</desc>
<speed>1.550000</speed>
</trkpt>
<trkpt lat="22.139292" lon="104.306778">
<ele>292.472900</ele>
<time>2011-04-27T06:28:11Z</time>
<desc>lat.=22.139292, lon.=104.306778, Alt.=292.472900m. Speed=6.084000m/h.</desc>
<speed>1.690000</speed>
</trkpt>
<trkpt lat="22.139282" lon="104.306854">
<ele>294.144775</ele>
<time>2011-04-27T06:28:16Z</time>
<desc>lat.=22.139282, lon.=104.306854, Alt.=294.144775m. Speed=6.948000m/h.</desc>
<speed>1.930000</speed>
</trkpt>
<trkpt lat="22.139296" lon="104.306923">
<ele>295.285400</ele>
<time>2011-04-27T06:28:21Z</time>
<desc>lat.=22.139296, lon.=104.306923, Alt.=295.285400m. Speed=3.096000m/h.</desc>
<speed>0.860000</speed>
</trkpt>
<trkpt lat="22.139307" lon="104.306999">
<ele>296.480713</ele>
<time>2011-04-27T06:28:26Z</time>
<desc>lat.=22.139307, lon.=104.306999, Alt.=296.480713m. Speed=5.832000m/h.</desc>
<speed>1.620000</speed>
</trkpt>
<trkpt lat="22.139326" lon="104.307076">
<ele>296.832275</ele>
<time>2011-04-27T06:28:31Z</time>
<desc>lat.=22.139326, lon.=104.307076, Alt.=296.832275m. Speed=8.568000m/h.</desc>
<speed>2.380000</speed>
</trkpt>
<trkpt lat="22.139341" lon="104.307144">
<ele>296.621338</ele>
<time>2011-04-27T06:28:36Z</time>
<desc>lat.=22.139341, lon.=104.307144, Alt.=296.621338m. Speed=5.436000m/h.</desc>
<speed>1.510000</speed>
</trkpt>
<trkpt lat="22.139376" lon="104.307182">
<ele>297.160400</ele>
<time>2011-04-27T06:28:41Z</time>
<desc>lat.=22.139376, lon.=104.307182, Alt.=297.160400m. Speed=4.284000m/h.</desc>
<speed>1.190000</speed>
</trkpt>
<trkpt lat="22.139441" lon="104.307236">
<ele>297.074463</ele>
<time>2011-04-27T06:28:46Z</time>
<desc>lat.=22.139441, lon.=104.307236, Alt.=297.074463m. Speed=3.852000m/h.</desc>
<speed>1.070000</speed>
</trkpt>
<trkpt lat="22.139490" lon="104.307259">
<ele>298.183838</ele>
<time>2011-04-27T06:28:51Z</time>
<desc>lat.=22.139490, lon.=104.307259, Alt.=298.183838m. Speed=6.660000m/h.</desc>
<speed>1.850000</speed>
</trkpt>
<trkpt lat="22.139559" lon="104.307297">
<ele>299.636963</ele>
<time>2011-04-27T06:28:56Z</time>
<desc>lat.=22.139559, lon.=104.307297, Alt.=299.636963m. Speed=5.148000m/h.</desc>
<speed>1.430000</speed>
</trkpt>
<trkpt lat="22.139616" lon="104.307327">
<ele>301.066650</ele>
<time>2011-04-27T06:29:01Z</time>
<desc>lat.=22.139616, lon.=104.307327, Alt.=301.066650m. Speed=5.436000m/h.</desc>
<speed>1.510000</speed>
</trkpt>
<trkpt lat="22.139698" lon="104.307358">
<ele>303.058838</ele>
<time>2011-04-27T06:29:06Z</time>
<desc>lat.=22.139698, lon.=104.307358, Alt.=303.058838m. Speed=4.752000m/h.</desc>
<speed>1.320000</speed>
</trkpt>
<trkpt lat="22.139753" lon="104.307404">
<ele>304.285400</ele>
<time>2011-04-27T06:29:11Z</time>
<desc>lat.=22.139753, lon.=104.307404, Alt.=304.285400m. Speed=4.608000m/h.</desc>
<speed>1.280000</speed>
</trkpt>
<trkpt lat="22.139812" lon="104.307434">
<ele>304.535400</ele>
<time>2011-04-27T06:29:16Z</time>
<desc>lat.=22.139812, lon.=104.307434, Alt.=304.535400m. Speed=4.896000m/h.</desc>
<speed>1.360000</speed>
</trkpt>
<trkpt lat="22.139870" lon="104.307487">
<ele>305.918213</ele>
<time>2011-04-27T06:29:21Z</time>
<desc>lat.=22.139870, lon.=104.307487, Alt.=305.918213m. Speed=6.120000m/h.</desc>
<speed>1.700000</speed>
</trkpt>
<trkpt lat="22.139935" lon="104.307518">
<ele>306.777588</ele>
<time>2011-04-27T06:29:26Z</time>
<desc>lat.=22.139935, lon.=104.307518, Alt.=306.777588m. Speed=4.392000m/h.</desc>
<speed>1.220000</speed>
</trkpt>
<trkpt lat="22.139988" lon="104.307541">
<ele>308.160400</ele>
<time>2011-04-27T06:29:31Z</time>
<desc>lat.=22.139988, lon.=104.307541, Alt.=308.160400m. Speed=3.744000m/h.</desc>
<speed>1.040000</speed>
</trkpt>
<trkpt lat="22.140049" lon="104.307579">
<ele>309.066650</ele>
<time>2011-04-27T06:29:36Z</time>
<desc>lat.=22.140049, lon.=104.307579, Alt.=309.066650m. Speed=4.680000m/h.</desc>
<speed>1.300000</speed>
</trkpt>
<trkpt lat="22.140112" lon="104.307617">
<ele>310.332275</ele>
<time>2011-04-27T06:29:41Z</time>
<desc>lat.=22.140112, lon.=104.307617, Alt.=310.332275m. Speed=4.752000m/h.</desc>
<speed>1.320000</speed>
</trkpt>
<trkpt lat="22.140181" lon="104.307663">
<ele>312.074463</ele>
<time>2011-04-27T06:29:46Z</time>
<desc>lat.=22.140181, lon.=104.307663, Alt.=312.074463m. Speed=4.896000m/h.</desc>
<speed>1.360000</speed>
</trkpt>
<trkpt lat="22.140224" lon="104.307724">
<ele>314.488525</ele>
<time>2011-04-27T06:29:51Z</time>
<desc>lat.=22.140224, lon.=104.307724, Alt.=314.488525m. Speed=5.580000m/h.</desc>
<speed>1.550000</speed>
</trkpt>
<trkpt lat="22.140270" lon="104.307800">
<ele>316.191650</ele>
<time>2011-04-27T06:29:56Z</time>
<desc>lat.=22.140270, lon.=104.307800, Alt.=316.191650m. Speed=4.248000m/h.</desc>
<speed>1.180000</speed>
</trkpt>
<trkpt lat="22.140284" lon="104.307861">
<ele>317.277588</ele>
<time>2011-04-27T06:30:01Z</time>
<desc>lat.=22.140284, lon.=104.307861, Alt.=317.277588m. Speed=3.780000m/h.</desc>
<speed>1.050000</speed>
</trkpt>
<trkpt lat="22.140291" lon="104.307907">
<ele>317.941650</ele>
<time>2011-04-27T06:30:06Z</time>
<desc>lat.=22.140291, lon.=104.307907, Alt.=317.941650m. Speed=4.896000m/h.</desc>
<speed>1.360000</speed>
</trkpt>
<trkpt lat="22.140270" lon="104.307991">
<ele>319.144775</ele>
<time>2011-04-27T06:30:11Z</time>
<desc>lat.=22.140270, lon.=104.307991, Alt.=319.144775m. Speed=6.408000m/h.</desc>
<speed>1.780000</speed>
</trkpt>
<trkpt lat="22.140253" lon="104.308060">
<ele>320.058838</ele>
<time>2011-04-27T06:30:16Z</time>
<desc>lat.=22.140253, lon.=104.308060, Alt.=320.058838m. Speed=5.796000m/h.</desc>
<speed>1.610000</speed>
</trkpt>
<trkpt lat="22.140234" lon="104.308128">
<ele>321.199463</ele>
<time>2011-04-27T06:30:21Z</time>
<desc>lat.=22.140234, lon.=104.308128, Alt.=321.199463m. Speed=5.256000m/h.</desc>
<speed>1.460000</speed>
</trkpt>
<trkpt lat="22.140194" lon="104.308205">
<ele>322.277588</ele>
<time>2011-04-27T06:30:26Z</time>
<desc>lat.=22.140194, lon.=104.308205, Alt.=322.277588m. Speed=7.020000m/h.</desc>
<speed>1.950000</speed>
</trkpt>
<trkpt lat="22.140179" lon="104.308296">
<ele>323.707275</ele>
<time>2011-04-27T06:30:31Z</time>
<desc>lat.=22.140179, lon.=104.308296, Alt.=323.707275m. Speed=5.508000m/h.</desc>
<speed>1.530000</speed>
</trkpt>
<trkpt lat="22.140167" lon="104.308365">
<ele>324.574463</ele>
<time>2011-04-27T06:30:36Z</time>
<desc>lat.=22.140167, lon.=104.308365, Alt.=324.574463m. Speed=5.976000m/h.</desc>
<speed>1.660000</speed>
</trkpt>
<trkpt lat="22.140144" lon="104.308434">
<ele>325.597900</ele>
<time>2011-04-27T06:30:41Z</time>
<desc>lat.=22.140144, lon.=104.308434, Alt.=325.597900m. Speed=6.480000m/h.</desc>
<speed>1.800000</speed>
</trkpt>
<trkpt lat="22.140135" lon="104.308487">
<ele>326.066650</ele>
<time>2011-04-27T06:30:46Z</time>
<desc>lat.=22.140135, lon.=104.308487, Alt.=326.066650m. Speed=5.508000m/h.</desc>
<speed>1.530000</speed>
</trkpt>
<trkpt lat="22.140123" lon="104.308563">
<ele>327.183838</ele>
<time>2011-04-27T06:30:51Z</time>
<desc>lat.=22.140123, lon.=104.308563, Alt.=327.183838m. Speed=5.832000m/h.</desc>
<speed>1.620000</speed>
</trkpt>
<trkpt lat="22.140116" lon="104.308647">
<ele>328.105713</ele>
<time>2011-04-27T06:30:56Z</time>
<desc>lat.=22.140116, lon.=104.308647, Alt.=328.105713m. Speed=5.472000m/h.</desc>
<speed>1.520000</speed>
</trkpt>
<trkpt lat="22.140095" lon="104.308708">
<ele>328.894775</ele>
<time>2011-04-27T06:31:01Z</time>
<desc>lat.=22.140095, lon.=104.308708, Alt.=328.894775m. Speed=5.220000m/h.</desc>
<speed>1.450000</speed>
</trkpt>
<trkpt lat="22.140079" lon="104.308777">
<ele>329.433838</ele>
<time>2011-04-27T06:31:06Z</time>
<desc>lat.=22.140079, lon.=104.308777, Alt.=329.433838m. Speed=6.336000m/h.</desc>
<speed>1.760000</speed>
</trkpt>
<trkpt lat="22.140068" lon="104.308861">
<ele>329.746338</ele>
<time>2011-04-27T06:31:11Z</time>
<desc>lat.=22.140068, lon.=104.308861, Alt.=329.746338m. Speed=4.572000m/h.</desc>
<speed>1.270000</speed>
</trkpt>
<trkpt lat="22.140055" lon="104.308952">
<ele>329.996338</ele>
<time>2011-04-27T06:31:16Z</time>
<desc>lat.=22.140055, lon.=104.308952, Alt.=329.996338m. Speed=5.868000m/h.</desc>
<speed>1.630000</speed>
</trkpt>
<trkpt lat="22.140030" lon="104.309044">
<ele>329.832275</ele>
<time>2011-04-27T06:31:21Z</time>
<desc>lat.=22.140030, lon.=104.309044, Alt.=329.832275m. Speed=7.776000m/h.</desc>
<speed>2.160000</speed>
</trkpt>
<trkpt lat="22.140022" lon="104.309120">
<ele>329.761963</ele>
<time>2011-04-27T06:31:26Z</time>
<desc>lat.=22.140022, lon.=104.309120, Alt.=329.761963m. Speed=4.860000m/h.</desc>
<speed>1.350000</speed>
</trkpt>
<trkpt lat="22.140011" lon="104.309204">
<ele>330.183838</ele>
<time>2011-04-27T06:31:31Z</time>
<desc>lat.=22.140011, lon.=104.309204, Alt.=330.183838m. Speed=5.580000m/h.</desc>
<speed>1.550000</speed>
</trkpt>
<trkpt lat="22.139990" lon="104.309280">
<ele>330.574463</ele>
<time>2011-04-27T06:31:36Z</time>
<desc>lat.=22.139990, lon.=104.309280, Alt.=330.574463m. Speed=6.516000m/h.</desc>
<speed>1.810000</speed>
</trkpt>
<trkpt lat="22.139980" lon="104.309372">
<ele>330.261963</ele>
<time>2011-04-27T06:31:41Z</time>
<desc>lat.=22.139980, lon.=104.309372, Alt.=330.261963m. Speed=6.660000m/h.</desc>
<speed>1.850000</speed>
</trkpt>
<trkpt lat="22.139975" lon="104.309456">
<ele>330.558838</ele>
<time>2011-04-27T06:31:46Z</time>
<desc>lat.=22.139975, lon.=104.309456, Alt.=330.558838m. Speed=5.940000m/h.</desc>
<speed>1.650000</speed>
</trkpt>
<trkpt lat="22.139978" lon="104.309532">
<ele>329.207275</ele>
<time>2011-04-27T06:31:51Z</time>
<desc>lat.=22.139978, lon.=104.309532, Alt.=329.207275m. Speed=6.048000m/h.</desc>
<speed>1.680000</speed>
</trkpt>
<trkpt lat="22.140007" lon="104.309616">
<ele>329.730713</ele>
<time>2011-04-27T06:31:56Z</time>
<desc>lat.=22.140007, lon.=104.309616, Alt.=329.730713m. Speed=6.768000m/h.</desc>
<speed>1.880000</speed>
</trkpt>
<trkpt lat="22.140068" lon="104.309677">
<ele>330.035400</ele>
<time>2011-04-27T06:32:01Z</time>
<desc>lat.=22.140068, lon.=104.309677, Alt.=330.035400m. Speed=3.708000m/h.</desc>
<speed>1.030000</speed>
</trkpt>
<trkpt lat="22.140123" lon="104.309708">
<ele>331.332275</ele>
<time>2011-04-27T06:32:06Z</time>
<desc>lat.=22.140123, lon.=104.309708, Alt.=331.332275m. Speed=5.796000m/h.</desc>
<speed>1.610000</speed>
</trkpt>
<trkpt lat="22.140194" lon="104.309715">
<ele>331.957275</ele>
<time>2011-04-27T06:32:11Z</time>
<desc>lat.=22.140194, lon.=104.309715, Alt.=331.957275m. Speed=5.400000m/h.</desc>
<speed>1.500000</speed>
</trkpt>
<trkpt lat="22.140251" lon="104.309753">
<ele>332.449463</ele>
<time>2011-04-27T06:32:16Z</time>
<desc>lat.=22.140251, lon.=104.309753, Alt.=332.449463m. Speed=5.616000m/h.</desc>
<speed>1.560000</speed>
</trkpt>
<trkpt lat="22.140314" lon="104.309807">
<ele>333.183838</ele>
<time>2011-04-27T06:32:21Z</time>
<desc>lat.=22.140314, lon.=104.309807, Alt.=333.183838m. Speed=6.012000m/h.</desc>
<speed>1.670000</speed>
</trkpt>
<trkpt lat="22.140373" lon="104.309853">
<ele>333.644775</ele>
<time>2011-04-27T06:32:26Z</time>
<desc>lat.=22.140373, lon.=104.309853, Alt.=333.644775m. Speed=5.580000m/h.</desc>
<speed>1.550000</speed>
</trkpt>
<trkpt lat="22.140430" lon="104.309875">
<ele>334.051025</ele>
<time>2011-04-27T06:32:31Z</time>
<desc>lat.=22.140430, lon.=104.309875, Alt.=334.051025m. Speed=4.716000m/h.</desc>
<speed>1.310000</speed>
</trkpt>
<trkpt lat="22.140486" lon="104.309891">
<ele>335.113525</ele>
<time>2011-04-27T06:32:36Z</time>
<desc>lat.=22.140486, lon.=104.309891, Alt.=335.113525m. Speed=4.104000m/h.</desc>
<speed>1.140000</speed>
</trkpt>
<trkpt lat="22.140547" lon="104.309929">
<ele>336.894775</ele>
<time>2011-04-27T06:32:41Z</time>
<desc>lat.=22.140547, lon.=104.309929, Alt.=336.894775m. Speed=5.112000m/h.</desc>
<speed>1.420000</speed>
</trkpt>
<trkpt lat="22.140615" lon="104.309975">
<ele>337.676025</ele>
<time>2011-04-27T06:32:46Z</time>
<desc>lat.=22.140615, lon.=104.309975, Alt.=337.676025m. Speed=5.220000m/h.</desc>
<speed>1.450000</speed>
</trkpt>
<trkpt lat="22.140688" lon="104.310028">
<ele>338.879150</ele>
<time>2011-04-27T06:32:51Z</time>
<desc>lat.=22.140688, lon.=104.310028, Alt.=338.879150m. Speed=5.796000m/h.</desc>
<speed>1.610000</speed>
</trkpt>
<trkpt lat="22.140764" lon="104.310089">
<ele>340.660400</ele>
<time>2011-04-27T06:32:56Z</time>
<desc>lat.=22.140764, lon.=104.310089, Alt.=340.660400m. Speed=7.020000m/h.</desc>
<speed>1.950000</speed>
</trkpt>
<trkpt lat="22.140800" lon="104.310143">
<ele>341.988525</ele>
<time>2011-04-27T06:33:01Z</time>
<desc>lat.=22.140800, lon.=104.310143, Alt.=341.988525m. Speed=5.976000m/h.</desc>
<speed>1.660000</speed>
</trkpt>
<trkpt lat="22.140793" lon="104.310226">
<ele>343.277588</ele>
<time>2011-04-27T06:33:06Z</time>
<desc>lat.=22.140793, lon.=104.310226, Alt.=343.277588m. Speed=5.976000m/h.</desc>
<speed>1.660000</speed>
</trkpt>
<trkpt lat="22.140749" lon="104.310318">
<ele>344.433838</ele>
<time>2011-04-27T06:33:11Z</time>
<desc>lat.=22.140749, lon.=104.310318, Alt.=344.433838m. Speed=6.264000m/h.</desc>
<speed>1.740000</speed>
</trkpt>
<trkpt lat="22.140686" lon="104.310379">
<ele>345.629150</ele>
<time>2011-04-27T06:33:16Z</time>
<desc>lat.=22.140686, lon.=104.310379, Alt.=345.629150m. Speed=5.616000m/h.</desc>
<speed>1.560000</speed>
</trkpt>
<trkpt lat="22.140602" lon="104.310455">
<ele>346.918213</ele>
<time>2011-04-27T06:33:21Z</time>
<desc>lat.=22.140602, lon.=104.310455, Alt.=346.918213m. Speed=7.524000m/h.</desc>
<speed>2.090000</speed>
</trkpt>
<trkpt lat="22.140543" lon="104.310509">
<ele>348.082275</ele>
<time>2011-04-27T06:33:26Z</time>
<desc>lat.=22.140543, lon.=104.310509, Alt.=348.082275m. Speed=7.020000m/h.</desc>
<speed>1.950000</speed>
</trkpt>
<trkpt lat="22.140484" lon="104.310570">
<ele>349.238525</ele>
<time>2011-04-27T06:33:31Z</time>
<desc>lat.=22.140484, lon.=104.310570, Alt.=349.238525m. Speed=5.940000m/h.</desc>
<speed>1.650000</speed>
</trkpt>
<trkpt lat="22.140434" lon="104.310623">
<ele>350.090088</ele>
<time>2011-04-27T06:33:36Z</time>
<desc>lat.=22.140434, lon.=104.310623, Alt.=350.090088m. Speed=6.012000m/h.</desc>
<speed>1.670000</speed>
</trkpt>
<trkpt lat="22.140373" lon="104.310669">
<ele>350.926025</ele>
<time>2011-04-27T06:33:41Z</time>
<desc>lat.=22.140373, lon.=104.310669, Alt.=350.926025m. Speed=6.984000m/h.</desc>
<speed>1.940000</speed>
</trkpt>
<trkpt lat="22.140316" lon="104.310738">
<ele>352.074463</ele>
<time>2011-04-27T06:33:46Z</time>
<desc>lat.=22.140316, lon.=104.310738, Alt.=352.074463m. Speed=6.084000m/h.</desc>
<speed>1.690000</speed>
</trkpt>
<trkpt lat="22.140249" lon="104.310776">
<ele>352.660400</ele>
<time>2011-04-27T06:33:51Z</time>
<desc>lat.=22.140249, lon.=104.310776, Alt.=352.660400m. Speed=5.904000m/h.</desc>
<speed>1.640000</speed>
</trkpt>
<trkpt lat="22.140181" lon="104.310829">
<ele>354.097900</ele>
<time>2011-04-27T06:33:56Z</time>
<desc>lat.=22.140181, lon.=104.310829, Alt.=354.097900m. Speed=6.156000m/h.</desc>
<speed>1.710000</speed>
</trkpt>
<trkpt lat="22.140114" lon="104.310867">
<ele>355.129150</ele>
<time>2011-04-27T06:34:01Z</time>
<desc>lat.=22.140114, lon.=104.310867, Alt.=355.129150m. Speed=5.616000m/h.</desc>
<speed>1.560000</speed>
</trkpt>
<trkpt lat="22.140036" lon="104.310890">
<ele>355.949463</ele>
<time>2011-04-27T06:34:06Z</time>
<desc>lat.=22.140036, lon.=104.310890, Alt.=355.949463m. Speed=6.732000m/h.</desc>
<speed>1.870000</speed>
</trkpt>
<trkpt lat="22.139984" lon="104.310921">
<ele>357.168213</ele>
<time>2011-04-27T06:34:11Z</time>
<desc>lat.=22.139984, lon.=104.310921, Alt.=357.168213m. Speed=5.976000m/h.</desc>
<speed>1.660000</speed>
</trkpt>
<trkpt lat="22.139925" lon="104.310974">
<ele>358.527588</ele>
<time>2011-04-27T06:34:16Z</time>
<desc>lat.=22.139925, lon.=104.310974, Alt.=358.527588m. Speed=6.876000m/h.</desc>
<speed>1.910000</speed>
</trkpt>
<trkpt lat="22.139854" lon="104.311035">
<ele>359.847900</ele>
<time>2011-04-27T06:34:21Z</time>
<desc>lat.=22.139854, lon.=104.311035, Alt.=359.847900m. Speed=7.092000m/h.</desc>
<speed>1.970000</speed>
</trkpt>
<trkpt lat="22.139793" lon="104.311111">
<ele>360.957275</ele>
<time>2011-04-27T06:34:26Z</time>
<desc>lat.=22.139793, lon.=104.311111, Alt.=360.957275m. Speed=6.480000m/h.</desc>
<speed>1.800000</speed>
</trkpt>
<trkpt lat="22.139744" lon="104.311188">
<ele>361.910400</ele>
<time>2011-04-27T06:34:31Z</time>
<desc>lat.=22.139744, lon.=104.311188, Alt.=361.910400m. Speed=6.624000m/h.</desc>
<speed>1.840000</speed>
</trkpt>
<trkpt lat="22.139696" lon="104.311249">
<ele>362.824463</ele>
<time>2011-04-27T06:34:36Z</time>
<desc>lat.=22.139696, lon.=104.311249, Alt.=362.824463m. Speed=6.228000m/h.</desc>
<speed>1.730000</speed>
</trkpt>
<trkpt lat="22.139645" lon="104.311317">
<ele>364.043213</ele>
<time>2011-04-27T06:34:41Z</time>
<desc>lat.=22.139645, lon.=104.311317, Alt.=364.043213m. Speed=6.840000m/h.</desc>
<speed>1.900000</speed>
</trkpt>
<trkpt lat="22.139605" lon="104.311371">
<ele>365.152588</ele>
<time>2011-04-27T06:34:46Z</time>
<desc>lat.=22.139605, lon.=104.311371, Alt.=365.152588m. Speed=5.652000m/h.</desc>
<speed>1.570000</speed>
</trkpt>
<trkpt lat="22.139572" lon="104.311401">
<ele>366.176025</ele>
<time>2011-04-27T06:34:51Z</time>
<desc>lat.=22.139572, lon.=104.311401, Alt.=366.176025m. Speed=1.548000m/h.</desc>
<speed>0.430000</speed>
</trkpt>
<trkpt lat="22.139589" lon="104.311401">
<ele>366.269775</ele>
<time>2011-04-27T06:34:56Z</time>
<desc>lat.=22.139589, lon.=104.311401, Alt.=366.269775m. Speed=0.252000m/h.</desc>
<speed>0.070000</speed>
</trkpt>
<trkpt lat="22.139593" lon="104.311401">
<ele>366.488525</ele>
<time>2011-04-27T06:35:01Z</time>
<desc>lat.=22.139593, lon.=104.311401, Alt.=366.488525m. Speed=0.144000m/h.</desc>
<speed>0.040000</speed>
</trkpt>
<trkpt lat="22.139593" lon="104.311394">
<ele>366.652588</ele>
<time>2011-04-27T06:35:06Z</time>
<desc>lat.=22.139593, lon.=104.311394, Alt.=366.652588m. Speed=0.576000m/h.</desc>
<speed>0.160000</speed>
</trkpt>
<trkpt lat="22.139589" lon="104.311394">
<ele>366.738525</ele>
<time>2011-04-27T06:35:11Z</time>
<desc>lat.=22.139589, lon.=104.311394, Alt.=366.738525m. Speed=0.432000m/h.</desc>
<speed>0.120000</speed>
</trkpt>
<trkpt lat="22.139587" lon="104.311394">
<ele>366.769775</ele>
<time>2011-04-27T06:35:16Z</time>
<desc>lat.=22.139587, lon.=104.311394, Alt.=366.769775m. Speed=0.288000m/h.</desc>
<speed>0.080000</speed>
</trkpt>
<trkpt lat="22.139584" lon="104.311394">
<ele>366.777588</ele>
<time>2011-04-27T06:35:21Z</time>
<desc>lat.=22.139584, lon.=104.311394, Alt.=366.777588m. Speed=0.324000m/h.</desc>
<speed>0.090000</speed>
</trkpt>
<trkpt lat="22.139582" lon="104.311401">
<ele>366.793213</ele>
<time>2011-04-27T06:35:26Z</time>
<desc>lat.=22.139582, lon.=104.311401, Alt.=366.793213m. Speed=0.432000m/h.</desc>
<speed>0.120000</speed>
</trkpt>
<trkpt lat="22.139582" lon="104.311409">
<ele>366.793213</ele>
<time>2011-04-27T06:35:31Z</time>
<desc>lat.=22.139582, lon.=104.311409, Alt.=366.793213m. Speed=0.576000m/h.</desc>
<speed>0.160000</speed>
</trkpt>
<trkpt lat="22.139584" lon="104.311417">
<ele>366.801025</ele>
<time>2011-04-27T06:35:36Z</time>
<desc>lat.=22.139584, lon.=104.311417, Alt.=366.801025m. Speed=0.252000m/h.</desc>
<speed>0.070000</speed>
</trkpt>
<trkpt lat="22.139582" lon="104.311417">
<ele>366.785400</ele>
<time>2011-04-27T06:35:41Z</time>
<desc>lat.=22.139582, lon.=104.311417, Alt.=366.785400m. Speed=0.972000m/h.</desc>
<speed>0.270000</speed>
</trkpt>
<trkpt lat="22.139572" lon="104.311226">
<ele>366.433838</ele>
<time>2011-04-27T06:35:46Z</time>
<desc>lat.=22.139572, lon.=104.311226, Alt.=366.433838m. Speed=1.620000m/h.</desc>
<speed>0.450000</speed>
</trkpt>
<trkpt lat="22.139553" lon="104.311195">
<ele>366.590088</ele>
<time>2011-04-27T06:35:51Z</time>
<desc>lat.=22.139553, lon.=104.311195, Alt.=366.590088m. Speed=1.296000m/h.</desc>
<speed>0.360000</speed>
</trkpt>
<trkpt lat="22.139559" lon="104.311195">
<ele>366.355713</ele>
<time>2011-04-27T06:35:56Z</time>
<desc>lat.=22.139559, lon.=104.311195, Alt.=366.355713m. Speed=0.900000m/h.</desc>
<speed>0.250000</speed>
</trkpt>
<trkpt lat="22.139549" lon="104.311188">
<ele>366.332275</ele>
<time>2011-04-27T06:36:01Z</time>
<desc>lat.=22.139549, lon.=104.311188, Alt.=366.332275m. Speed=0.360000m/h.</desc>
<speed>0.100000</speed>
</trkpt>
<trkpt lat="22.139547" lon="104.311188">
<ele>366.363525</ele>
<time>2011-04-27T06:36:06Z</time>
<desc>lat.=22.139547, lon.=104.311188, Alt.=366.363525m. Speed=0.432000m/h.</desc>
<speed>0.120000</speed>
</trkpt>
<trkpt lat="22.139566" lon="104.311218">
<ele>365.918213</ele>
<time>2011-04-27T06:36:11Z</time>
<desc>lat.=22.139566, lon.=104.311218, Alt.=365.918213m. Speed=0.900000m/h.</desc>
<speed>0.250000</speed>
</trkpt>
<trkpt lat="22.139557" lon="104.311287">
<ele>366.051025</ele>
<time>2011-04-27T06:36:16Z</time>
<desc>lat.=22.139557, lon.=104.311287, Alt.=366.051025m. Speed=3.168000m/h.</desc>
<speed>0.880000</speed>
</trkpt>
<trkpt lat="22.139559" lon="104.311363">
<ele>361.707275</ele>
<time>2011-04-27T06:36:21Z</time>
<desc>lat.=22.139559, lon.=104.311363, Alt.=361.707275m. Speed=0.864000m/h.</desc>
<speed>0.240000</speed>
</trkpt>
<trkpt lat="22.139576" lon="104.311386">
<ele>362.222900</ele>
<time>2011-04-27T06:36:26Z</time>
<desc>lat.=22.139576, lon.=104.311386, Alt.=362.222900m. Speed=0.648000m/h.</desc>
<speed>0.180000</speed>
</trkpt>
<trkpt lat="22.139578" lon="104.311409">
<ele>362.199463</ele>
<time>2011-04-27T06:36:31Z</time>
<desc>lat.=22.139578, lon.=104.311409, Alt.=362.199463m. Speed=2.592000m/h.</desc>
<speed>0.720000</speed>
</trkpt>
<trkpt lat="22.139566" lon="104.311462">
<ele>362.277588</ele>
<time>2011-04-27T06:36:36Z</time>
<desc>lat.=22.139566, lon.=104.311462, Alt.=362.277588m. Speed=3.996000m/h.</desc>
<speed>1.110000</speed>
</trkpt>
<trkpt lat="22.139538" lon="104.311516">
<ele>361.824463</ele>
<time>2011-04-27T06:36:41Z</time>
<desc>lat.=22.139538, lon.=104.311516, Alt.=361.824463m. Speed=6.336000m/h.</desc>
<speed>1.760000</speed>
</trkpt>
<trkpt lat="22.139490" lon="104.311638">
<ele>361.652588</ele>
<time>2011-04-27T06:36:46Z</time>
<desc>lat.=22.139490, lon.=104.311638, Alt.=361.652588m. Speed=5.868000m/h.</desc>
<speed>1.630000</speed>
</trkpt>
<trkpt lat="22.139446" lon="104.311722">
<ele>361.426025</ele>
<time>2011-04-27T06:36:51Z</time>
<desc>lat.=22.139446, lon.=104.311722, Alt.=361.426025m. Speed=6.408000m/h.</desc>
<speed>1.780000</speed>
</trkpt>
<trkpt lat="22.139400" lon="104.311783">
<ele>361.160400</ele>
<time>2011-04-27T06:36:56Z</time>
<desc>lat.=22.139400, lon.=104.311783, Alt.=361.160400m. Speed=4.716000m/h.</desc>
<speed>1.310000</speed>
</trkpt>
<trkpt lat="22.139360" lon="104.311836">
<ele>360.699463</ele>
<time>2011-04-27T06:37:01Z</time>
<desc>lat.=22.139360, lon.=104.311836, Alt.=360.699463m. Speed=5.760000m/h.</desc>
<speed>1.600000</speed>
</trkpt>
<trkpt lat="22.139315" lon="104.311897">
<ele>360.183838</ele>
<time>2011-04-27T06:37:06Z</time>
<desc>lat.=22.139315, lon.=104.311897, Alt.=360.183838m. Speed=6.012000m/h.</desc>
<speed>1.670000</speed>
</trkpt>
<trkpt lat="22.139280" lon="104.311981">
<ele>359.840088</ele>
<time>2011-04-27T06:37:11Z</time>
<desc>lat.=22.139280, lon.=104.311981, Alt.=359.840088m. Speed=4.932000m/h.</desc>
<speed>1.370000</speed>
</trkpt>
<trkpt lat="22.139235" lon="104.312050">
<ele>359.715088</ele>
<time>2011-04-27T06:37:16Z</time>
<desc>lat.=22.139235, lon.=104.312050, Alt.=359.715088m. Speed=7.596000m/h.</desc>
<speed>2.110000</speed>
</trkpt>
<trkpt lat="22.139175" lon="104.312119">
<ele>359.832275</ele>
<time>2011-04-27T06:37:21Z</time>
<desc>lat.=22.139175, lon.=104.312119, Alt.=359.832275m. Speed=5.652000m/h.</desc>
<speed>1.570000</speed>
</trkpt>
<trkpt lat="22.139132" lon="104.312172">
<ele>359.910400</ele>
<time>2011-04-27T06:37:26Z</time>
<desc>lat.=22.139132, lon.=104.312172, Alt.=359.910400m. Speed=5.436000m/h.</desc>
<speed>1.510000</speed>
</trkpt>
<trkpt lat="22.139071" lon="104.312218">
<ele>359.918213</ele>
<time>2011-04-27T06:37:31Z</time>
<desc>lat.=22.139071, lon.=104.312218, Alt.=359.918213m. Speed=5.940000m/h.</desc>
<speed>1.650000</speed>
</trkpt>
<trkpt lat="22.139038" lon="104.312294">
<ele>359.527588</ele>
<time>2011-04-27T06:37:36Z</time>
<desc>lat.=22.139038, lon.=104.312294, Alt.=359.527588m. Speed=6.732000m/h.</desc>
<speed>1.870000</speed>
</trkpt>
<trkpt lat="22.139019" lon="104.312347">
<ele>359.011963</ele>
<time>2011-04-27T06:37:41Z</time>
<desc>lat.=22.139019, lon.=104.312347, Alt.=359.011963m. Speed=6.156000m/h.</desc>
<speed>1.710000</speed>
</trkpt>
<trkpt lat="22.138943" lon="104.312393">
<ele>359.902588</ele>
<time>2011-04-27T06:37:46Z</time>
<desc>lat.=22.138943, lon.=104.312393, Alt.=359.902588m. Speed=6.984000m/h.</desc>
<speed>1.940000</speed>
</trkpt>
<trkpt lat="22.138905" lon="104.312469">
<ele>359.199463</ele>
<time>2011-04-27T06:37:51Z</time>
<desc>lat.=22.138905, lon.=104.312469, Alt.=359.199463m. Speed=7.020000m/h.</desc>
<speed>1.950000</speed>
</trkpt>
<trkpt lat="22.138853" lon="104.312515">
<ele>358.066650</ele>
<time>2011-04-27T06:37:56Z</time>
<desc>lat.=22.138853, lon.=104.312515, Alt.=358.066650m. Speed=6.516000m/h.</desc>
<speed>1.810000</speed>
</trkpt>
<trkpt lat="22.138824" lon="104.312569">
<ele>358.261963</ele>
<time>2011-04-27T06:38:01Z</time>
<desc>lat.=22.138824, lon.=104.312569, Alt.=358.261963m. Speed=5.796000m/h.</desc>
<speed>1.610000</speed>
</trkpt>
<trkpt lat="22.138779" lon="104.312622">
<ele>358.355713</ele>
<time>2011-04-27T06:38:06Z</time>
<desc>lat.=22.138779, lon.=104.312622, Alt.=358.355713m. Speed=6.516000m/h.</desc>
<speed>1.810000</speed>
</trkpt>
<trkpt lat="22.138721" lon="104.312706">
<ele>359.316650</ele>
<time>2011-04-27T06:38:11Z</time>
<desc>lat.=22.138721, lon.=104.312706, Alt.=359.316650m. Speed=7.704000m/h.</desc>
<speed>2.140000</speed>
</trkpt>
<trkpt lat="22.138680" lon="104.312798">
<ele>359.238525</ele>
<time>2011-04-27T06:38:16Z</time>
<desc>lat.=22.138680, lon.=104.312798, Alt.=359.238525m. Speed=5.904000m/h.</desc>
<speed>1.640000</speed>
</trkpt>
<trkpt lat="22.138662" lon="104.312866">
<ele>357.301025</ele>
<time>2011-04-27T06:38:21Z</time>
<desc>lat.=22.138662, lon.=104.312866, Alt.=357.301025m. Speed=4.716000m/h.</desc>
<speed>1.310000</speed>
</trkpt>
<trkpt lat="22.138660" lon="104.312943">
<ele>357.113525</ele>
<time>2011-04-27T06:38:26Z</time>
<desc>lat.=22.138660, lon.=104.312943, Alt.=357.113525m. Speed=6.156000m/h.</desc>
<speed>1.710000</speed>
</trkpt>
<trkpt lat="22.138664" lon="104.313011">
<ele>356.902588</ele>
<time>2011-04-27T06:38:31Z</time>
<desc>lat.=22.138664, lon.=104.313011, Alt.=356.902588m. Speed=5.796000m/h.</desc>
<speed>1.610000</speed>
</trkpt>
<trkpt lat="22.138674" lon="104.313087">
<ele>357.090088</ele>
<time>2011-04-27T06:38:36Z</time>
<desc>lat.=22.138674, lon.=104.313087, Alt.=357.090088m. Speed=5.220000m/h.</desc>
<speed>1.450000</speed>
</trkpt>
<trkpt lat="22.138699" lon="104.313148">
<ele>357.715088</ele>
<time>2011-04-27T06:38:41Z</time>
<desc>lat.=22.138699, lon.=104.313148, Alt.=357.715088m. Speed=6.156000m/h.</desc>
<speed>1.710000</speed>
</trkpt>
<trkpt lat="22.138731" lon="104.313217">
<ele>358.519775</ele>
<time>2011-04-27T06:38:46Z</time>
<desc>lat.=22.138731, lon.=104.313217, Alt.=358.519775m. Speed=6.588000m/h.</desc>
<speed>1.830000</speed>
</trkpt>
<trkpt lat="22.138742" lon="104.313271">
<ele>362.027588</ele>
<time>2011-04-27T06:38:51Z</time>
<desc>lat.=22.138742, lon.=104.313271, Alt.=362.027588m. Speed=5.004000m/h.</desc>
<speed>1.390000</speed>
</trkpt>
<trkpt lat="22.138760" lon="104.313385">
<ele>362.308838</ele>
<time>2011-04-27T06:38:56Z</time>
<desc>lat.=22.138760, lon.=104.313385, Alt.=362.308838m. Speed=6.192000m/h.</desc>
<speed>1.720000</speed>
</trkpt>
<trkpt lat="22.138800" lon="104.313431">
<ele>362.551025</ele>
<time>2011-04-27T06:39:01Z</time>
<desc>lat.=22.138800, lon.=104.313431, Alt.=362.551025m. Speed=5.328000m/h.</desc>
<speed>1.480000</speed>
</trkpt>
<trkpt lat="22.138815" lon="104.313522">
<ele>362.511963</ele>
<time>2011-04-27T06:39:06Z</time>
<desc>lat.=22.138815, lon.=104.313522, Alt.=362.511963m. Speed=6.444000m/h.</desc>
<speed>1.790000</speed>
</trkpt>
<trkpt lat="22.138838" lon="104.313599">
<ele>362.902588</ele>
<time>2011-04-27T06:39:11Z</time>
<desc>lat.=22.138838, lon.=104.313599, Alt.=362.902588m. Speed=5.652000m/h.</desc>
<speed>1.570000</speed>
</trkpt>
<trkpt lat="22.138851" lon="104.313675">
<ele>362.769775</ele>
<time>2011-04-27T06:39:16Z</time>
<desc>lat.=22.138851, lon.=104.313675, Alt.=362.769775m. Speed=5.724000m/h.</desc>
<speed>1.590000</speed>
</trkpt>
<trkpt lat="22.138842" lon="104.313766">
<ele>362.840088</ele>
<time>2011-04-27T06:39:21Z</time>
<desc>lat.=22.138842, lon.=104.313766, Alt.=362.840088m. Speed=7.632000m/h.</desc>
<speed>2.120000</speed>
</trkpt>
<trkpt lat="22.138842" lon="104.313873">
<ele>361.441650</ele>
<time>2011-04-27T06:39:26Z</time>
<desc>lat.=22.138842, lon.=104.313873, Alt.=361.441650m. Speed=6.048000m/h.</desc>
<speed>1.680000</speed>
</trkpt>
<trkpt lat="22.138857" lon="104.313950">
<ele>361.418213</ele>
<time>2011-04-27T06:39:31Z</time>
<desc>lat.=22.138857, lon.=104.313950, Alt.=361.418213m. Speed=6.696000m/h.</desc>
<speed>1.860000</speed>
</trkpt>
<trkpt lat="22.138872" lon="104.314034">
<ele>362.285400</ele>
<time>2011-04-27T06:39:36Z</time>
<desc>lat.=22.138872, lon.=104.314034, Alt.=362.285400m. Speed=5.724000m/h.</desc>
<speed>1.590000</speed>
</trkpt>
<trkpt lat="22.138865" lon="104.314125">
<ele>362.566650</ele>
<time>2011-04-27T06:39:41Z</time>
<desc>lat.=22.138865, lon.=104.314125, Alt.=362.566650m. Speed=6.516000m/h.</desc>
<speed>1.810000</speed>
</trkpt>
<trkpt lat="22.138868" lon="104.314209">
<ele>362.832275</ele>
<time>2011-04-27T06:39:46Z</time>
<desc>lat.=22.138868, lon.=104.314209, Alt.=362.832275m. Speed=6.912000m/h.</desc>
<speed>1.920000</speed>
</trkpt>
<trkpt lat="22.138859" lon="104.314301">
<ele>362.754150</ele>
<time>2011-04-27T06:39:51Z</time>
<desc>lat.=22.138859, lon.=104.314301, Alt.=362.754150m. Speed=6.696000m/h.</desc>
<speed>1.860000</speed>
</trkpt>
<trkpt lat="22.138842" lon="104.314369">
<ele>363.027588</ele>
<time>2011-04-27T06:39:56Z</time>
<desc>lat.=22.138842, lon.=104.314369, Alt.=363.027588m. Speed=7.056000m/h.</desc>
<speed>1.960000</speed>
</trkpt>
<trkpt lat="22.138777" lon="104.314461">
<ele>363.410400</ele>
<time>2011-04-27T06:40:01Z</time>
<desc>lat.=22.138777, lon.=104.314461, Alt.=363.410400m. Speed=6.624000m/h.</desc>
<speed>1.840000</speed>
</trkpt>
<trkpt lat="22.138706" lon="104.314552">
<ele>363.574463</ele>
<time>2011-04-27T06:40:06Z</time>
<desc>lat.=22.138706, lon.=104.314552, Alt.=363.574463m. Speed=7.128000m/h.</desc>
<speed>1.980000</speed>
</trkpt>
<trkpt lat="22.138643" lon="104.314621">
<ele>364.144775</ele>
<time>2011-04-27T06:40:11Z</time>
<desc>lat.=22.138643, lon.=104.314621, Alt.=364.144775m. Speed=7.272000m/h.</desc>
<speed>2.020000</speed>
</trkpt>
<trkpt lat="22.138584" lon="104.314697">
<ele>364.590088</ele>
<time>2011-04-27T06:40:16Z</time>
<desc>lat.=22.138584, lon.=104.314697, Alt.=364.590088m. Speed=6.588000m/h.</desc>
<speed>1.830000</speed>
</trkpt>
<trkpt lat="22.138546" lon="104.314751">
<ele>365.488525</ele>
<time>2011-04-27T06:40:21Z</time>
<desc>lat.=22.138546, lon.=104.314751, Alt.=365.488525m. Speed=6.048000m/h.</desc>
<speed>1.680000</speed>
</trkpt>
<trkpt lat="22.138515" lon="104.314819">
<ele>365.527588</ele>
<time>2011-04-27T06:40:26Z</time>
<desc>lat.=22.138515, lon.=104.314819, Alt.=365.527588m. Speed=5.436000m/h.</desc>
<speed>1.510000</speed>
</trkpt>
<trkpt lat="22.138527" lon="104.314880">
<ele>363.144775</ele>
<time>2011-04-27T06:40:31Z</time>
<desc>lat.=22.138527, lon.=104.314880, Alt.=363.144775m. Speed=5.112000m/h.</desc>
<speed>1.420000</speed>
</trkpt>
<trkpt lat="22.138527" lon="104.314972">
<ele>360.613525</ele>
<time>2011-04-27T06:40:36Z</time>
<desc>lat.=22.138527, lon.=104.314972, Alt.=360.613525m. Speed=6.264000m/h.</desc>
<speed>1.740000</speed>
</trkpt>
<trkpt lat="22.138533" lon="104.315056">
<ele>359.644775</ele>
<time>2011-04-27T06:40:41Z</time>
<desc>lat.=22.138533, lon.=104.315056, Alt.=359.644775m. Speed=7.740000m/h.</desc>
<speed>2.150000</speed>
</trkpt>
<trkpt lat="22.138561" lon="104.315140">
<ele>359.527588</ele>
<time>2011-04-27T06:40:46Z</time>
<desc>lat.=22.138561, lon.=104.315140, Alt.=359.527588m. Speed=8.604000m/h.</desc>
<speed>2.390000</speed>
</trkpt>
<trkpt lat="22.138575" lon="104.315231">
<ele>358.816650</ele>
<time>2011-04-27T06:40:51Z</time>
<desc>lat.=22.138575, lon.=104.315231, Alt.=358.816650m. Speed=6.372000m/h.</desc>
<speed>1.770000</speed>
</trkpt>
<trkpt lat="22.138582" lon="104.315315">
<ele>358.793213</ele>
<time>2011-04-27T06:40:56Z</time>
<desc>lat.=22.138582, lon.=104.315315, Alt.=358.793213m. Speed=6.048000m/h.</desc>
<speed>1.680000</speed>
</trkpt>
<trkpt lat="22.138563" lon="104.315399">
<ele>358.105713</ele>
<time>2011-04-27T06:41:01Z</time>
<desc>lat.=22.138563, lon.=104.315399, Alt.=358.105713m. Speed=6.696000m/h.</desc>
<speed>1.860000</speed>
</trkpt>
<trkpt lat="22.138538" lon="104.315475">
<ele>357.644775</ele>
<time>2011-04-27T06:41:06Z</time>
<desc>lat.=22.138538, lon.=104.315475, Alt.=357.644775m. Speed=4.788000m/h.</desc>
<speed>1.330000</speed>
</trkpt>
<trkpt lat="22.138477" lon="104.315536">
<ele>356.660400</ele>
<time>2011-04-27T06:41:11Z</time>
<desc>lat.=22.138477, lon.=104.315536, Alt.=356.660400m. Speed=6.732000m/h.</desc>
<speed>1.870000</speed>
</trkpt>
<trkpt lat="22.138407" lon="104.315529">
<ele>356.215088</ele>
<time>2011-04-27T06:41:16Z</time>
<desc>lat.=22.138407, lon.=104.315529, Alt.=356.215088m. Speed=4.356000m/h.</desc>
<speed>1.210000</speed>
</trkpt>
<trkpt lat="22.138340" lon="104.315514">
<ele>355.972900</ele>
<time>2011-04-27T06:41:21Z</time>
<desc>lat.=22.138340, lon.=104.315514, Alt.=355.972900m. Speed=5.148000m/h.</desc>
<speed>1.430000</speed>
</trkpt>
<trkpt lat="22.138247" lon="104.315506">
<ele>356.043213</ele>
<time>2011-04-27T06:41:26Z</time>
<desc>lat.=22.138247, lon.=104.315506, Alt.=356.043213m. Speed=6.624000m/h.</desc>
<speed>1.840000</speed>
</trkpt>
<trkpt lat="22.138184" lon="104.315514">
<ele>356.035400</ele>
<time>2011-04-27T06:41:31Z</time>
<desc>lat.=22.138184, lon.=104.315514, Alt.=356.035400m. Speed=5.580000m/h.</desc>
<speed>1.550000</speed>
</trkpt>
<trkpt lat="22.138092" lon="104.315514">
<ele>355.816650</ele>
<time>2011-04-27T06:41:36Z</time>
<desc>lat.=22.138092, lon.=104.315514, Alt.=355.816650m. Speed=6.120000m/h.</desc>
<speed>1.700000</speed>
</trkpt>
<trkpt lat="22.138002" lon="104.315559">
<ele>355.176025</ele>
<time>2011-04-27T06:41:41Z</time>
<desc>lat.=22.138002, lon.=104.315559, Alt.=355.176025m. Speed=5.832000m/h.</desc>
<speed>1.620000</speed>
</trkpt>
<trkpt lat="22.137934" lon="104.315582">
<ele>354.347900</ele>
<time>2011-04-27T06:41:46Z</time>
<desc>lat.=22.137934, lon.=104.315582, Alt.=354.347900m. Speed=5.832000m/h.</desc>
<speed>1.620000</speed>
</trkpt>
<trkpt lat="22.137848" lon="104.315674">
<ele>353.355713</ele>
<time>2011-04-27T06:41:51Z</time>
<desc>lat.=22.137848, lon.=104.315674, Alt.=353.355713m. Speed=6.516000m/h.</desc>
<speed>1.810000</speed>
</trkpt>
<trkpt lat="22.137794" lon="104.315750">
<ele>353.027588</ele>
<time>2011-04-27T06:41:56Z</time>
<desc>lat.=22.137794, lon.=104.315750, Alt.=353.027588m. Speed=6.552000m/h.</desc>
<speed>1.820000</speed>
</trkpt>
<trkpt lat="22.137751" lon="104.315811">
<ele>352.457275</ele>
<time>2011-04-27T06:42:01Z</time>
<desc>lat.=22.137751, lon.=104.315811, Alt.=352.457275m. Speed=5.508000m/h.</desc>
<speed>1.530000</speed>
</trkpt>
<trkpt lat="22.137728" lon="104.315865">
<ele>352.793213</ele>
<time>2011-04-27T06:42:06Z</time>
<desc>lat.=22.137728, lon.=104.315865, Alt.=352.793213m. Speed=5.328000m/h.</desc>
<speed>1.480000</speed>
</trkpt>
<trkpt lat="22.137730" lon="104.315941">
<ele>352.691650</ele>
<time>2011-04-27T06:42:11Z</time>
<desc>lat.=22.137730, lon.=104.315941, Alt.=352.691650m. Speed=6.876000m/h.</desc>
<speed>1.910000</speed>
</trkpt>
<trkpt lat="22.137758" lon="104.316010">
<ele>352.590088</ele>
<time>2011-04-27T06:42:16Z</time>
<desc>lat.=22.137758, lon.=104.316010, Alt.=352.590088m. Speed=5.076000m/h.</desc>
<speed>1.410000</speed>
</trkpt>
<trkpt lat="22.137810" lon="104.316086">
<ele>352.277588</ele>
<time>2011-04-27T06:42:21Z</time>
<desc>lat.=22.137810, lon.=104.316086, Alt.=352.277588m. Speed=9.360000m/h.</desc>
<speed>2.600000</speed>
</trkpt>
<trkpt lat="22.137877" lon="104.316177">
<ele>351.972900</ele>
<time>2011-04-27T06:42:26Z</time>
<desc>lat.=22.137877, lon.=104.316177, Alt.=351.972900m. Speed=6.408000m/h.</desc>
<speed>1.780000</speed>
</trkpt>
<trkpt lat="22.137928" lon="104.316231">
<ele>352.004150</ele>
<time>2011-04-27T06:42:31Z</time>
<desc>lat.=22.137928, lon.=104.316231, Alt.=352.004150m. Speed=6.372000m/h.</desc>
<speed>1.770000</speed>
</trkpt>
<trkpt lat="22.137959" lon="104.316284">
<ele>352.058838</ele>
<time>2011-04-27T06:42:36Z</time>
<desc>lat.=22.137959, lon.=104.316284, Alt.=352.058838m. Speed=6.012000m/h.</desc>
<speed>1.670000</speed>
</trkpt>
<trkpt lat="22.137981" lon="104.316376">
<ele>352.754150</ele>
<time>2011-04-27T06:42:41Z</time>
<desc>lat.=22.137981, lon.=104.316376, Alt.=352.754150m. Speed=6.048000m/h.</desc>
<speed>1.680000</speed>
</trkpt>
<trkpt lat="22.137989" lon="104.316498">
<ele>353.199463</ele>
<time>2011-04-27T06:42:46Z</time>
<desc>lat.=22.137989, lon.=104.316498, Alt.=353.199463m. Speed=6.084000m/h.</desc>
<speed>1.690000</speed>
</trkpt>
<trkpt lat="22.137957" lon="104.316597">
<ele>354.066650</ele>
<time>2011-04-27T06:42:51Z</time>
<desc>lat.=22.137957, lon.=104.316597, Alt.=354.066650m. Speed=5.436000m/h.</desc>
<speed>1.510000</speed>
</trkpt>
<trkpt lat="22.137909" lon="104.316666">
<ele>354.957275</ele>
<time>2011-04-27T06:42:56Z</time>
<desc>lat.=22.137909, lon.=104.316666, Alt.=354.957275m. Speed=6.444000m/h.</desc>
<speed>1.790000</speed>
</trkpt>
<trkpt lat="22.137844" lon="104.316711">
<ele>356.574463</ele>
<time>2011-04-27T06:43:01Z</time>
<desc>lat.=22.137844, lon.=104.316711, Alt.=356.574463m. Speed=5.508000m/h.</desc>
<speed>1.530000</speed>
</trkpt>
<trkpt lat="22.137777" lon="104.316750">
<ele>357.058838</ele>
<time>2011-04-27T06:43:06Z</time>
<desc>lat.=22.137777, lon.=104.316750, Alt.=357.058838m. Speed=6.984000m/h.</desc>
<speed>1.940000</speed>
</trkpt>
<trkpt lat="22.137695" lon="104.316788">
<ele>361.051025</ele>
<time>2011-04-27T06:43:11Z</time>
<desc>lat.=22.137695, lon.=104.316788, Alt.=361.051025m. Speed=5.724000m/h.</desc>
<speed>1.590000</speed>
</trkpt>
<trkpt lat="22.137630" lon="104.316833">
<ele>364.660400</ele>
<time>2011-04-27T06:43:16Z</time>
<desc>lat.=22.137630, lon.=104.316833, Alt.=364.660400m. Speed=6.084000m/h.</desc>
<speed>1.690000</speed>
</trkpt>
<trkpt lat="22.137589" lon="104.316933">
<ele>368.285400</ele>
<time>2011-04-27T06:43:21Z</time>
<desc>lat.=22.137589, lon.=104.316933, Alt.=368.285400m. Speed=6.948000m/h.</desc>
<speed>1.930000</speed>
</trkpt>
<trkpt lat="22.137583" lon="104.317024">
<ele>370.043213</ele>
<time>2011-04-27T06:43:26Z</time>
<desc>lat.=22.137583, lon.=104.317024, Alt.=370.043213m. Speed=7.344000m/h.</desc>
<speed>2.040000</speed>
</trkpt>
<trkpt lat="22.137608" lon="104.317101">
<ele>370.402588</ele>
<time>2011-04-27T06:43:31Z</time>
<desc>lat.=22.137608, lon.=104.317101, Alt.=370.402588m. Speed=7.668000m/h.</desc>
<speed>2.130000</speed>
</trkpt>
<trkpt lat="22.137623" lon="104.317169">
<ele>370.597900</ele>
<time>2011-04-27T06:43:36Z</time>
<desc>lat.=22.137623, lon.=104.317169, Alt.=370.597900m. Speed=6.120000m/h.</desc>
<speed>1.700000</speed>
</trkpt>
<trkpt lat="22.137655" lon="104.317238">
<ele>370.972900</ele>
<time>2011-04-27T06:43:41Z</time>
<desc>lat.=22.137655, lon.=104.317238, Alt.=370.972900m. Speed=5.580000m/h.</desc>
<speed>1.550000</speed>
</trkpt>
<trkpt lat="22.137684" lon="104.317329">
<ele>371.199463</ele>
<time>2011-04-27T06:43:46Z</time>
<desc>lat.=22.137684, lon.=104.317329, Alt.=371.199463m. Speed=6.660000m/h.</desc>
<speed>1.850000</speed>
</trkpt>
<trkpt lat="22.137712" lon="104.317436">
<ele>371.457275</ele>
<time>2011-04-27T06:43:51Z</time>
<desc>lat.=22.137712, lon.=104.317436, Alt.=371.457275m. Speed=7.452000m/h.</desc>
<speed>2.070000</speed>
</trkpt>
<trkpt lat="22.137728" lon="104.317551">
<ele>371.426025</ele>
<time>2011-04-27T06:43:56Z</time>
<desc>lat.=22.137728, lon.=104.317551, Alt.=371.426025m. Speed=6.408000m/h.</desc>
<speed>1.780000</speed>
</trkpt>
<trkpt lat="22.137728" lon="104.317635">
<ele>372.136963</ele>
<time>2011-04-27T06:44:01Z</time>
<desc>lat.=22.137728, lon.=104.317635, Alt.=372.136963m. Speed=5.724000m/h.</desc>
<speed>1.590000</speed>
</trkpt>
<trkpt lat="22.137711" lon="104.317719">
<ele>372.902588</ele>
<time>2011-04-27T06:44:06Z</time>
<desc>lat.=22.137711, lon.=104.317719, Alt.=372.902588m. Speed=5.832000m/h.</desc>
<speed>1.620000</speed>
</trkpt>
<trkpt lat="22.137690" lon="104.317795">
<ele>373.574463</ele>
<time>2011-04-27T06:44:11Z</time>
<desc>lat.=22.137690, lon.=104.317795, Alt.=373.574463m. Speed=6.156000m/h.</desc>
<speed>1.710000</speed>
</trkpt>
<trkpt lat="22.137684" lon="104.317871">
<ele>374.066650</ele>
<time>2011-04-27T06:44:16Z</time>
<desc>lat.=22.137684, lon.=104.317871, Alt.=374.066650m. Speed=4.284000m/h.</desc>
<speed>1.190000</speed>
</trkpt>
<trkpt lat="22.137638" lon="104.317947">
<ele>374.347900</ele>
<time>2011-04-27T06:44:21Z</time>
<desc>lat.=22.137638, lon.=104.317947, Alt.=374.347900m. Speed=6.120000m/h.</desc>
<speed>1.700000</speed>
</trkpt>
<trkpt lat="22.137590" lon="104.318008">
<ele>375.027588</ele>
<time>2011-04-27T06:44:26Z</time>
<desc>lat.=22.137590, lon.=104.318008, Alt.=375.027588m. Speed=5.184000m/h.</desc>
<speed>1.440000</speed>
</trkpt>
<trkpt lat="22.137527" lon="104.318054">
<ele>375.965088</ele>
<time>2011-04-27T06:44:31Z</time>
<desc>lat.=22.137527, lon.=104.318054, Alt.=375.965088m. Speed=6.264000m/h.</desc>
<speed>1.740000</speed>
</trkpt>
<trkpt lat="22.137444" lon="104.318085">
<ele>376.285400</ele>
<time>2011-04-27T06:44:36Z</time>
<desc>lat.=22.137444, lon.=104.318085, Alt.=376.285400m. Speed=3.024000m/h.</desc>
<speed>0.840000</speed>
</trkpt>
<trkpt lat="22.137428" lon="104.318085">
<ele>378.636963</ele>
<time>2011-04-27T06:44:41Z</time>
<desc>lat.=22.137428, lon.=104.318085, Alt.=378.636963m. Speed=0.288000m/h.</desc>
<speed>0.080000</speed>
</trkpt>
<trkpt lat="22.137421" lon="104.318077">
<ele>378.972900</ele>
<time>2011-04-27T06:44:46Z</time>
<desc>lat.=22.137421, lon.=104.318077, Alt.=378.972900m. Speed=0.324000m/h.</desc>
<speed>0.090000</speed>
</trkpt>
<trkpt lat="22.137423" lon="104.318077">
<ele>379.222900</ele>
<time>2011-04-27T06:44:51Z</time>
<desc>lat.=22.137423, lon.=104.318077, Alt.=379.222900m. Speed=0.288000m/h.</desc>
<speed>0.080000</speed>
</trkpt>
<trkpt lat="22.137424" lon="104.318077">
<ele>379.433838</ele>
<time>2011-04-27T06:44:56Z</time>
<desc>lat.=22.137424, lon.=104.318077, Alt.=379.433838m. Speed=0.252000m/h.</desc>
<speed>0.070000</speed>
</trkpt>
<trkpt lat="22.137424" lon="104.318077">
<ele>379.644775</ele>
<time>2011-04-27T06:45:01Z</time>
<desc>lat.=22.137424, lon.=104.318077, Alt.=379.644775m. Speed=0.216000m/h.</desc>
<speed>0.060000</speed>
</trkpt>
<trkpt lat="22.137424" lon="104.318092">
<ele>379.761963</ele>
<time>2011-04-27T06:45:06Z</time>
<desc>lat.=22.137424, lon.=104.318092, Alt.=379.761963m. Speed=1.152000m/h.</desc>
<speed>0.320000</speed>
</trkpt>
<trkpt lat="22.137379" lon="104.318100">
<ele>379.472900</ele>
<time>2011-04-27T06:45:11Z</time>
<desc>lat.=22.137379, lon.=104.318100, Alt.=379.472900m. Speed=2.376000m/h.</desc>
<speed>0.660000</speed>
</trkpt>
<trkpt lat="22.137306" lon="104.318123">
<ele>379.722900</ele>
<time>2011-04-27T06:45:16Z</time>
<desc>lat.=22.137306, lon.=104.318123, Alt.=379.722900m. Speed=5.472000m/h.</desc>
<speed>1.520000</speed>
</trkpt>
<trkpt lat="22.137253" lon="104.318146">
<ele>379.668213</ele>
<time>2011-04-27T06:45:21Z</time>
<desc>lat.=22.137253, lon.=104.318146, Alt.=379.668213m. Speed=5.796000m/h.</desc>
<speed>1.610000</speed>
</trkpt>
<trkpt lat="22.137184" lon="104.318169">
<ele>379.816650</ele>
<time>2011-04-27T06:45:26Z</time>
<desc>lat.=22.137184, lon.=104.318169, Alt.=379.816650m. Speed=6.192000m/h.</desc>
<speed>1.720000</speed>
</trkpt>
<trkpt lat="22.137114" lon="104.318214">
<ele>379.863525</ele>
<time>2011-04-27T06:45:31Z</time>
<desc>lat.=22.137114, lon.=104.318214, Alt.=379.863525m. Speed=6.264000m/h.</desc>
<speed>1.740000</speed>
</trkpt>
<trkpt lat="22.137043" lon="104.318275">
<ele>379.777588</ele>
<time>2011-04-27T06:45:36Z</time>
<desc>lat.=22.137043, lon.=104.318275, Alt.=379.777588m. Speed=6.948000m/h.</desc>
<speed>1.930000</speed>
</trkpt>
<trkpt lat="22.136982" lon="104.318321">
<ele>379.418213</ele>
<time>2011-04-27T06:45:41Z</time>
<desc>lat.=22.136982, lon.=104.318321, Alt.=379.418213m. Speed=5.472000m/h.</desc>
<speed>1.520000</speed>
</trkpt>
<trkpt lat="22.136915" lon="104.318405">
<ele>380.347900</ele>
<time>2011-04-27T06:45:46Z</time>
<desc>lat.=22.136915, lon.=104.318405, Alt.=380.347900m. Speed=6.120000m/h.</desc>
<speed>1.700000</speed>
</trkpt>
<trkpt lat="22.136866" lon="104.318535">
<ele>383.355713</ele>
<time>2011-04-27T06:45:51Z</time>
<desc>lat.=22.136866, lon.=104.318535, Alt.=383.355713m. Speed=5.904000m/h.</desc>
<speed>1.640000</speed>
</trkpt>
<trkpt lat="22.136822" lon="104.318611">
<ele>385.410400</ele>
<time>2011-04-27T06:45:56Z</time>
<desc>lat.=22.136822, lon.=104.318611, Alt.=385.410400m. Speed=5.544000m/h.</desc>
<speed>1.540000</speed>
</trkpt>
<trkpt lat="22.136787" lon="104.318680">
<ele>386.730713</ele>
<time>2011-04-27T06:46:01Z</time>
<desc>lat.=22.136787, lon.=104.318680, Alt.=386.730713m. Speed=7.488000m/h.</desc>
<speed>2.080000</speed>
</trkpt>
<trkpt lat="22.136740" lon="104.318748">
<ele>387.824463</ele>
<time>2011-04-27T06:46:06Z</time>
<desc>lat.=22.136740, lon.=104.318748, Alt.=387.824463m. Speed=5.724000m/h.</desc>
<speed>1.590000</speed>
</trkpt>
<trkpt lat="22.136723" lon="104.318832">
<ele>388.519775</ele>
<time>2011-04-27T06:46:11Z</time>
<desc>lat.=22.136723, lon.=104.318832, Alt.=388.519775m. Speed=8.604000m/h.</desc>
<speed>2.390000</speed>
</trkpt>
<trkpt lat="22.136679" lon="104.318893">
<ele>388.699463</ele>
<time>2011-04-27T06:46:16Z</time>
<desc>lat.=22.136679, lon.=104.318893, Alt.=388.699463m. Speed=1.656000m/h.</desc>
<speed>0.460000</speed>
</trkpt>
<trkpt lat="22.136675" lon="104.318893">
<ele>388.558838</ele>
<time>2011-04-27T06:46:21Z</time>
<desc>lat.=22.136675, lon.=104.318893, Alt.=388.558838m. Speed=0.612000m/h.</desc>
<speed>0.170000</speed>
</trkpt>
<trkpt lat="22.136679" lon="104.318901">
<ele>388.183838</ele>
<time>2011-04-27T06:46:26Z</time>
<desc>lat.=22.136679, lon.=104.318901, Alt.=388.183838m. Speed=0.072000m/h.</desc>
<speed>0.020000</speed>
</trkpt>
<trkpt lat="22.136679" lon="104.318901">
<ele>387.808838</ele>
<time>2011-04-27T06:46:31Z</time>
<desc>lat.=22.136679, lon.=104.318901, Alt.=387.808838m. Speed=0.108000m/h.</desc>
<speed>0.030000</speed>
</trkpt>
<trkpt lat="22.136679" lon="104.318901">
<ele>387.441650</ele>
<time>2011-04-27T06:46:36Z</time>
<desc>lat.=22.136679, lon.=104.318901, Alt.=387.441650m. Speed=0.360000m/h.</desc>
<speed>0.100000</speed>
</trkpt>
<trkpt lat="22.136684" lon="104.318901">
<ele>387.066650</ele>
<time>2011-04-27T06:46:41Z</time>
<desc>lat.=22.136684, lon.=104.318901, Alt.=387.066650m. Speed=0.468000m/h.</desc>
<speed>0.130000</speed>
</trkpt>
<trkpt lat="22.136688" lon="104.318909">
<ele>386.691650</ele>
<time>2011-04-27T06:46:46Z</time>
<desc>lat.=22.136688, lon.=104.318909, Alt.=386.691650m. Speed=0.432000m/h.</desc>
<speed>0.120000</speed>
</trkpt>
<trkpt lat="22.136692" lon="104.318916">
<ele>386.324463</ele>
<time>2011-04-27T06:46:51Z</time>
<desc>lat.=22.136692, lon.=104.318916, Alt.=386.324463m. Speed=0.360000m/h.</desc>
<speed>0.100000</speed>
</trkpt>
<trkpt lat="22.136694" lon="104.318916">
<ele>385.933838</ele>
<time>2011-04-27T06:46:56Z</time>
<desc>lat.=22.136694, lon.=104.318916, Alt.=385.933838m. Speed=0.432000m/h.</desc>
<speed>0.120000</speed>
</trkpt>
<trkpt lat="22.136694" lon="104.318924">
<ele>385.558838</ele>
<time>2011-04-27T06:47:01Z</time>
<desc>lat.=22.136694, lon.=104.318924, Alt.=385.558838m. Speed=0.468000m/h.</desc>
<speed>0.130000</speed>
</trkpt>
<trkpt lat="22.136692" lon="104.318932">
<ele>385.254150</ele>
<time>2011-04-27T06:47:06Z</time>
<desc>lat.=22.136692, lon.=104.318932, Alt.=385.254150m. Speed=0.396000m/h.</desc>
<speed>0.110000</speed>
</trkpt>
<trkpt lat="22.136688" lon="104.318932">
<ele>384.894775</ele>
<time>2011-04-27T06:47:11Z</time>
<desc>lat.=22.136688, lon.=104.318932, Alt.=384.894775m. Speed=0.324000m/h.</desc>
<speed>0.090000</speed>
</trkpt>
<trkpt lat="22.136686" lon="104.318939">
<ele>384.535400</ele>
<time>2011-04-27T06:47:16Z</time>
<desc>lat.=22.136686, lon.=104.318939, Alt.=384.535400m. Speed=0.324000m/h.</desc>
<speed>0.090000</speed>
</trkpt>
<trkpt lat="22.136686" lon="104.318939">
<ele>384.199463</ele>
<time>2011-04-27T06:47:21Z</time>
<desc>lat.=22.136686, lon.=104.318939, Alt.=384.199463m. Speed=0.432000m/h.</desc>
<speed>0.120000</speed>
</trkpt>
<trkpt lat="22.136684" lon="104.318947">
<ele>383.894775</ele>
<time>2011-04-27T06:47:26Z</time>
<desc>lat.=22.136684, lon.=104.318947, Alt.=383.894775m. Speed=0.648000m/h.</desc>
<speed>0.180000</speed>
</trkpt>
<trkpt lat="22.136684" lon="104.318962">
<ele>383.605713</ele>
<time>2011-04-27T06:47:31Z</time>
<desc>lat.=22.136684, lon.=104.318962, Alt.=383.605713m. Speed=0.756000m/h.</desc>
<speed>0.210000</speed>
</trkpt>
<trkpt lat="22.136688" lon="104.318970">
<ele>383.394775</ele>
<time>2011-04-27T06:47:36Z</time>
<desc>lat.=22.136688, lon.=104.318970, Alt.=383.394775m. Speed=0.792000m/h.</desc>
<speed>0.220000</speed>
</trkpt>
<trkpt lat="22.136692" lon="104.318977">
<ele>383.191650</ele>
<time>2011-04-27T06:47:41Z</time>
<desc>lat.=22.136692, lon.=104.318977, Alt.=383.191650m. Speed=1.008000m/h.</desc>
<speed>0.280000</speed>
</trkpt>
<trkpt lat="22.136696" lon="104.318993">
<ele>383.043213</ele>
<time>2011-04-27T06:47:46Z</time>
<desc>lat.=22.136696, lon.=104.318993, Alt.=383.043213m. Speed=0.612000m/h.</desc>
<speed>0.170000</speed>
</trkpt>
<trkpt lat="22.136698" lon="104.319000">
<ele>382.933838</ele>
<time>2011-04-27T06:47:51Z</time>
<desc>lat.=22.136698, lon.=104.319000, Alt.=382.933838m. Speed=0.684000m/h.</desc>
<speed>0.190000</speed>
</trkpt>
<trkpt lat="22.136700" lon="104.319000">
<ele>382.832275</ele>
<time>2011-04-27T06:47:56Z</time>
<desc>lat.=22.136700, lon.=104.319000, Alt.=382.832275m. Speed=0.072000m/h.</desc>
<speed>0.020000</speed>
</trkpt>
<trkpt lat="22.136700" lon="104.319000">
<ele>382.738525</ele>
<time>2011-04-27T06:48:01Z</time>
<desc>lat.=22.136700, lon.=104.319000, Alt.=382.738525m. Speed=0.036000m/h.</desc>
<speed>0.010000</speed>
</trkpt>
<trkpt lat="22.136698" lon="104.319000">
<ele>382.722900</ele>
<time>2011-04-27T06:48:06Z</time>
<desc>lat.=22.136698, lon.=104.319000, Alt.=382.722900m. Speed=0.000000m/h.</desc>
<speed>0.000000</speed>
</trkpt>
<trkpt lat="22.136698" lon="104.319000">
<ele>382.746338</ele>
<time>2011-04-27T06:48:11Z</time>
<desc>lat.=22.136698, lon.=104.319000, Alt.=382.746338m. Speed=0.000000m/h.</desc>
<speed>0.000000</speed>
</trkpt>
<trkpt lat="22.136698" lon="104.319000">
<ele>382.761963</ele>
<time>2011-04-27T06:48:16Z</time>
<desc>lat.=22.136698, lon.=104.319000, Alt.=382.761963m. Speed=0.000000m/h.</desc>
<speed>0.000000</speed>
</trkpt>
<trkpt lat="22.136698" lon="104.319000">
<ele>382.769775</ele>
<time>2011-04-27T06:48:21Z</time>
<desc>lat.=22.136698, lon.=104.319000, Alt.=382.769775m. Speed=0.072000m/h.</desc>
<speed>0.020000</speed>
</trkpt>
<trkpt lat="22.136698" lon="104.319000">
<ele>382.816650</ele>
<time>2011-04-27T06:48:26Z</time>
<desc>lat.=22.136698, lon.=104.319000, Alt.=382.816650m. Speed=0.000000m/h.</desc>
<speed>0.000000</speed>
</trkpt>
<trkpt lat="22.136698" lon="104.319000">
<ele>382.855713</ele>
<time>2011-04-27T06:48:31Z</time>
<desc>lat.=22.136698, lon.=104.319000, Alt.=382.855713m. Speed=0.036000m/h.</desc>
<speed>0.010000</speed>
</trkpt>
<trkpt lat="22.136698" lon="104.319000">
<ele>382.871338</ele>
<time>2011-04-27T06:48:36Z</time>
<desc>lat.=22.136698, lon.=104.319000, Alt.=382.871338m. Speed=0.036000m/h.</desc>
<speed>0.010000</speed>
</trkpt>
<trkpt lat="22.136698" lon="104.319000">
<ele>382.894775</ele>
<time>2011-04-27T06:48:41Z</time>
<desc>lat.=22.136698, lon.=104.319000, Alt.=382.894775m. Speed=0.144000m/h.</desc>
<speed>0.040000</speed>
</trkpt>
<trkpt lat="22.136698" lon="104.319000">
<ele>382.910400</ele>
<time>2011-04-27T06:48:46Z</time>
<desc>lat.=22.136698, lon.=104.319000, Alt.=382.910400m. Speed=0.108000m/h.</desc>
<speed>0.030000</speed>
</trkpt>
<trkpt lat="22.136698" lon="104.319000">
<ele>382.926025</ele>
<time>2011-04-27T06:48:51Z</time>
<desc>lat.=22.136698, lon.=104.319000, Alt.=382.926025m. Speed=0.108000m/h.</desc>
<speed>0.030000</speed>
</trkpt>
<trkpt lat="22.136698" lon="104.319000">
<ele>382.965088</ele>
<time>2011-04-27T06:48:56Z</time>
<desc>lat.=22.136698, lon.=104.319000, Alt.=382.965088m. Speed=0.324000m/h.</desc>
<speed>0.090000</speed>
</trkpt>
<trkpt lat="22.136700" lon="104.319008">
<ele>383.019775</ele>
<time>2011-04-27T06:49:01Z</time>
<desc>lat.=22.136700, lon.=104.319008, Alt.=383.019775m. Speed=0.972000m/h.</desc>
<speed>0.270000</speed>
</trkpt>
<trkpt lat="22.136684" lon="104.319016">
<ele>383.519775</ele>
<time>2011-04-27T06:49:06Z</time>
<desc>lat.=22.136684, lon.=104.319016, Alt.=383.519775m. Speed=2.916000m/h.</desc>
<speed>0.810000</speed>
</trkpt>
<trkpt lat="22.136654" lon="104.319054">
<ele>385.699463</ele>
<time>2011-04-27T06:49:11Z</time>
<desc>lat.=22.136654, lon.=104.319054, Alt.=385.699463m. Speed=4.176000m/h.</desc>
<speed>1.160000</speed>
</trkpt>
<trkpt lat="22.136614" lon="104.319099">
<ele>387.277588</ele>
<time>2011-04-27T06:49:16Z</time>
<desc>lat.=22.136614, lon.=104.319099, Alt.=387.277588m. Speed=5.508000m/h.</desc>
<speed>1.530000</speed>
</trkpt>
<trkpt lat="22.136555" lon="104.319138">
<ele>388.910400</ele>
<time>2011-04-27T06:49:21Z</time>
<desc>lat.=22.136555, lon.=104.319138, Alt.=388.910400m. Speed=4.752000m/h.</desc>
<speed>1.320000</speed>
</trkpt>
<trkpt lat="22.136486" lon="104.319176">
<ele>390.230713</ele>
<time>2011-04-27T06:49:26Z</time>
<desc>lat.=22.136486, lon.=104.319176, Alt.=390.230713m. Speed=5.184000m/h.</desc>
<speed>1.440000</speed>
</trkpt>
<trkpt lat="22.136435" lon="104.319199">
<ele>391.519775</ele>
<time>2011-04-27T06:49:31Z</time>
<desc>lat.=22.136435, lon.=104.319199, Alt.=391.519775m. Speed=4.716000m/h.</desc>
<speed>1.310000</speed>
</trkpt>
<trkpt lat="22.136383" lon="104.319237">
<ele>392.535400</ele>
<time>2011-04-27T06:49:36Z</time>
<desc>lat.=22.136383, lon.=104.319237, Alt.=392.535400m. Speed=4.068000m/h.</desc>
<speed>1.130000</speed>
</trkpt>
<trkpt lat="22.136301" lon="104.319252">
<ele>393.574463</ele>
<time>2011-04-27T06:49:41Z</time>
<desc>lat.=22.136301, lon.=104.319252, Alt.=393.574463m. Speed=4.356000m/h.</desc>
<speed>1.210000</speed>
</trkpt>
<trkpt lat="22.136246" lon="104.319290">
<ele>395.347900</ele>
<time>2011-04-27T06:49:46Z</time>
<desc>lat.=22.136246, lon.=104.319290, Alt.=395.347900m. Speed=4.788000m/h.</desc>
<speed>1.330000</speed>
</trkpt>
<trkpt lat="22.136194" lon="104.319336">
<ele>397.051025</ele>
<time>2011-04-27T06:49:51Z</time>
<desc>lat.=22.136194, lon.=104.319336, Alt.=397.051025m. Speed=4.500000m/h.</desc>
<speed>1.250000</speed>
</trkpt>
<trkpt lat="22.136160" lon="104.319397">
<ele>398.504150</ele>
<time>2011-04-27T06:49:56Z</time>
<desc>lat.=22.136160, lon.=104.319397, Alt.=398.504150m. Speed=4.284000m/h.</desc>
<speed>1.190000</speed>
</trkpt>
<trkpt lat="22.136148" lon="104.319481">
<ele>399.957275</ele>
<time>2011-04-27T06:50:01Z</time>
<desc>lat.=22.136148, lon.=104.319481, Alt.=399.957275m. Speed=5.328000m/h.</desc>
<speed>1.480000</speed>
</trkpt>
<trkpt lat="22.136181" lon="104.319565">
<ele>401.457275</ele>
<time>2011-04-27T06:50:06Z</time>
<desc>lat.=22.136181, lon.=104.319565, Alt.=401.457275m. Speed=6.192000m/h.</desc>
<speed>1.720000</speed>
</trkpt>
<trkpt lat="22.136215" lon="104.319626">
<ele>404.004150</ele>
<time>2011-04-27T06:50:11Z</time>
<desc>lat.=22.136215, lon.=104.319626, Alt.=404.004150m. Speed=5.364000m/h.</desc>
<speed>1.490000</speed>
</trkpt>
<trkpt lat="22.136240" lon="104.319687">
<ele>406.644775</ele>
<time>2011-04-27T06:50:16Z</time>
<desc>lat.=22.136240, lon.=104.319687, Alt.=406.644775m. Speed=3.888000m/h.</desc>
<speed>1.080000</speed>
</trkpt>
<trkpt lat="22.136269" lon="104.319733">
<ele>409.871338</ele>
<time>2011-04-27T06:50:21Z</time>
<desc>lat.=22.136269, lon.=104.319733, Alt.=409.871338m. Speed=6.372000m/h.</desc>
<speed>1.770000</speed>
</trkpt>
<trkpt lat="22.136297" lon="104.319824">
<ele>412.629150</ele>
<time>2011-04-27T06:50:26Z</time>
<desc>lat.=22.136297, lon.=104.319824, Alt.=412.629150m. Speed=5.436000m/h.</desc>
<speed>1.510000</speed>
</trkpt>
<trkpt lat="22.136339" lon="104.319908">
<ele>416.058838</ele>
<time>2011-04-27T06:50:31Z</time>
<desc>lat.=22.136339, lon.=104.319908, Alt.=416.058838m. Speed=5.004000m/h.</desc>
<speed>1.390000</speed>
</trkpt>
<trkpt lat="22.136370" lon="104.319954">
<ele>419.972900</ele>
<time>2011-04-27T06:50:36Z</time>
<desc>lat.=22.136370, lon.=104.319954, Alt.=419.972900m. Speed=4.896000m/h.</desc>
<speed>1.360000</speed>
</trkpt>
<trkpt lat="22.136444" lon="104.320023">
<ele>425.261963</ele>
<time>2011-04-27T06:50:41Z</time>
<desc>lat.=22.136444, lon.=104.320023, Alt.=425.261963m. Speed=5.220000m/h.</desc>
<speed>1.450000</speed>
</trkpt>
<trkpt lat="22.136469" lon="104.320053">
<ele>429.957275</ele>
<time>2011-04-27T06:50:46Z</time>
<desc>lat.=22.136469, lon.=104.320053, Alt.=429.957275m. Speed=1.044000m/h.</desc>
<speed>0.290000</speed>
</trkpt>
<trkpt lat="22.136532" lon="104.320030">
<ele>430.535400</ele>
<time>2011-04-27T06:50:51Z</time>
<desc>lat.=22.136532, lon.=104.320030, Alt.=430.535400m. Speed=1.440000m/h.</desc>
<speed>0.400000</speed>
</trkpt>
<trkpt lat="22.136545" lon="104.320007">
<ele>431.222900</ele>
<time>2011-04-27T06:50:56Z</time>
<desc>lat.=22.136545, lon.=104.320007, Alt.=431.222900m. Speed=0.288000m/h.</desc>
<speed>0.080000</speed>
</trkpt>
<trkpt lat="22.136532" lon="104.320015">
<ele>431.957275</ele>
<time>2011-04-27T06:51:01Z</time>
<desc>lat.=22.136532, lon.=104.320015, Alt.=431.957275m. Speed=1.548000m/h.</desc>
<speed>0.430000</speed>
</trkpt>
<trkpt lat="22.136509" lon="104.319992">
<ele>431.410400</ele>
<time>2011-04-27T06:51:06Z</time>
<desc>lat.=22.136509, lon.=104.319992, Alt.=431.410400m. Speed=1.476000m/h.</desc>
<speed>0.410000</speed>
</trkpt>
<trkpt lat="22.136490" lon="104.320000">
<ele>431.316650</ele>
<time>2011-04-27T06:51:11Z</time>
<desc>lat.=22.136490, lon.=104.320000, Alt.=431.316650m. Speed=0.828000m/h.</desc>
<speed>0.230000</speed>
</trkpt>
<trkpt lat="22.136492" lon="104.320000">
<ele>431.683838</ele>
<time>2011-04-27T06:51:16Z</time>
<desc>lat.=22.136492, lon.=104.320000, Alt.=431.683838m. Speed=0.792000m/h.</desc>
<speed>0.220000</speed>
</trkpt>
<trkpt lat="22.136492" lon="104.319992">
<ele>431.824463</ele>
<time>2011-04-27T06:51:21Z</time>
<desc>lat.=22.136492, lon.=104.319992, Alt.=431.824463m. Speed=0.180000m/h.</desc>
<speed>0.050000</speed>
</trkpt>
<trkpt lat="22.136490" lon="104.320000">
<ele>431.871338</ele>
<time>2011-04-27T06:51:26Z</time>
<desc>lat.=22.136490, lon.=104.320000, Alt.=431.871338m. Speed=0.360000m/h.</desc>
<speed>0.100000</speed>
</trkpt>
<trkpt lat="22.136490" lon="104.320000">
<ele>431.886963</ele>
<time>2011-04-27T06:51:31Z</time>
<desc>lat.=22.136490, lon.=104.320000, Alt.=431.886963m. Speed=0.360000m/h.</desc>
<speed>0.100000</speed>
</trkpt>
<trkpt lat="22.136492" lon="104.320007">
<ele>431.886963</ele>
<time>2011-04-27T06:51:36Z</time>
<desc>lat.=22.136492, lon.=104.320007, Alt.=431.886963m. Speed=0.180000m/h.</desc>
<speed>0.050000</speed>
</trkpt>
<trkpt lat="22.136490" lon="104.320015">
<ele>431.886963</ele>
<time>2011-04-27T06:51:41Z</time>
<desc>lat.=22.136490, lon.=104.320015, Alt.=431.886963m. Speed=0.828000m/h.</desc>
<speed>0.230000</speed>
</trkpt>
<trkpt lat="22.136490" lon="104.320030">
<ele>431.871338</ele>
<time>2011-04-27T06:51:46Z</time>
<desc>lat.=22.136490, lon.=104.320030, Alt.=431.871338m. Speed=0.720000m/h.</desc>
<speed>0.200000</speed>
</trkpt>
<trkpt lat="22.136492" lon="104.320030">
<ele>431.863525</ele>
<time>2011-04-27T06:51:51Z</time>
<desc>lat.=22.136492, lon.=104.320030, Alt.=431.863525m. Speed=0.288000m/h.</desc>
<speed>0.080000</speed>
</trkpt>
<trkpt lat="22.136492" lon="104.320038">
<ele>431.855713</ele>
<time>2011-04-27T06:51:56Z</time>
<desc>lat.=22.136492, lon.=104.320038, Alt.=431.855713m. Speed=0.108000m/h.</desc>
<speed>0.030000</speed>
</trkpt>
<trkpt lat="22.136492" lon="104.320038">
<ele>431.832275</ele>
<time>2011-04-27T06:52:01Z</time>
<desc>lat.=22.136492, lon.=104.320038, Alt.=431.832275m. Speed=0.072000m/h.</desc>
<speed>0.020000</speed>
</trkpt>
<trkpt lat="22.136494" lon="104.320038">
<ele>431.832275</ele>
<time>2011-04-27T06:52:06Z</time>
<desc>lat.=22.136494, lon.=104.320038, Alt.=431.832275m. Speed=0.108000m/h.</desc>
<speed>0.030000</speed>
</trkpt>
<trkpt lat="22.136494" lon="104.320030">
<ele>431.816650</ele>
<time>2011-04-27T06:52:11Z</time>
<desc>lat.=22.136494, lon.=104.320030, Alt.=431.816650m. Speed=0.360000m/h.</desc>
<speed>0.100000</speed>
</trkpt>
<trkpt lat="22.136497" lon="104.320030">
<ele>431.793213</ele>
<time>2011-04-27T06:52:16Z</time>
<desc>lat.=22.136497, lon.=104.320030, Alt.=431.793213m. Speed=0.360000m/h.</desc>
<speed>0.100000</speed>
</trkpt>
<trkpt lat="22.136501" lon="104.320023">
<ele>431.785400</ele>
<time>2011-04-27T06:52:21Z</time>
<desc>lat.=22.136501, lon.=104.320023, Alt.=431.785400m. Speed=0.540000m/h.</desc>
<speed>0.150000</speed>
</trkpt>
<trkpt lat="22.136505" lon="104.320015">
<ele>431.769775</ele>
<time>2011-04-27T06:52:26Z</time>
<desc>lat.=22.136505, lon.=104.320015, Alt.=431.769775m. Speed=0.324000m/h.</desc>
<speed>0.090000</speed>
</trkpt>
<trkpt lat="22.136507" lon="104.320015">
<ele>431.761963</ele>
<time>2011-04-27T06:52:31Z</time>
<desc>lat.=22.136507, lon.=104.320015, Alt.=431.761963m. Speed=0.288000m/h.</desc>
<speed>0.080000</speed>
</trkpt>
<trkpt lat="22.136509" lon="104.320007">
<ele>431.746338</ele>
<time>2011-04-27T06:52:36Z</time>
<desc>lat.=22.136509, lon.=104.320007, Alt.=431.746338m. Speed=0.360000m/h.</desc>
<speed>0.100000</speed>
</trkpt>
<trkpt lat="22.136509" lon="104.320000">
<ele>431.754150</ele>
<time>2011-04-27T06:52:41Z</time>
<desc>lat.=22.136509, lon.=104.320000, Alt.=431.754150m. Speed=0.576000m/h.</desc>
<speed>0.160000</speed>
</trkpt>
<trkpt lat="22.136513" lon="104.319992">
<ele>431.754150</ele>
<time>2011-04-27T06:52:46Z</time>
<desc>lat.=22.136513, lon.=104.319992, Alt.=431.754150m. Speed=0.576000m/h.</desc>
<speed>0.160000</speed>
</trkpt>
<trkpt lat="22.136515" lon="104.319992">
<ele>431.754150</ele>
<time>2011-04-27T06:52:51Z</time>
<desc>lat.=22.136515, lon.=104.319992, Alt.=431.754150m. Speed=0.612000m/h.</desc>
<speed>0.170000</speed>
</trkpt>
<trkpt lat="22.136515" lon="104.319977">
<ele>431.769775</ele>
<time>2011-04-27T06:52:56Z</time>
<desc>lat.=22.136515, lon.=104.319977, Alt.=431.769775m. Speed=0.720000m/h.</desc>
<speed>0.200000</speed>
</trkpt>
<trkpt lat="22.136517" lon="104.319969">
<ele>431.793213</ele>
<time>2011-04-27T06:53:01Z</time>
<desc>lat.=22.136517, lon.=104.319969, Alt.=431.793213m. Speed=0.396000m/h.</desc>
<speed>0.110000</speed>
</trkpt>
<trkpt lat="22.136518" lon="104.319969">
<ele>431.808838</ele>
<time>2011-04-27T06:53:06Z</time>
<desc>lat.=22.136518, lon.=104.319969, Alt.=431.808838m. Speed=0.360000m/h.</desc>
<speed>0.100000</speed>
</trkpt>
<trkpt lat="22.136518" lon="104.319962">
<ele>431.824463</ele>
<time>2011-04-27T06:53:11Z</time>
<desc>lat.=22.136518, lon.=104.319962, Alt.=431.824463m. Speed=0.180000m/h.</desc>
<speed>0.050000</speed>
</trkpt>
<trkpt lat="22.136520" lon="104.319962">
<ele>431.840088</ele>
<time>2011-04-27T06:53:16Z</time>
<desc>lat.=22.136520, lon.=104.319962, Alt.=431.840088m. Speed=0.108000m/h.</desc>
<speed>0.030000</speed>
</trkpt>
<trkpt lat="22.136522" lon="104.319962">
<ele>431.832275</ele>
<time>2011-04-27T06:53:21Z</time>
<desc>lat.=22.136522, lon.=104.319962, Alt.=431.832275m. Speed=0.144000m/h.</desc>
<speed>0.040000</speed>
</trkpt>
<trkpt lat="22.136522" lon="104.319962">
<ele>431.832275</ele>
<time>2011-04-27T06:53:26Z</time>
<desc>lat.=22.136522, lon.=104.319962, Alt.=431.832275m. Speed=0.000000m/h.</desc>
<speed>0.000000</speed>
</trkpt>
<trkpt lat="22.136522" lon="104.319962">
<ele>431.832275</ele>
<time>2011-04-27T06:53:31Z</time>
<desc>lat.=22.136522, lon.=104.319962, Alt.=431.832275m. Speed=0.180000m/h.</desc>
<speed>0.050000</speed>
</trkpt>
<trkpt lat="22.136524" lon="104.319962">
<ele>431.832275</ele>
<time>2011-04-27T06:53:36Z</time>
<desc>lat.=22.136524, lon.=104.319962, Alt.=431.832275m. Speed=0.216000m/h.</desc>
<speed>0.060000</speed>
</trkpt>
<trkpt lat="22.136524" lon="104.319954">
<ele>431.816650</ele>
<time>2011-04-27T06:53:41Z</time>
<desc>lat.=22.136524, lon.=104.319954, Alt.=431.816650m. Speed=0.144000m/h.</desc>
<speed>0.040000</speed>
</trkpt>
<trkpt lat="22.136524" lon="104.319962">
<ele>431.824463</ele>
<time>2011-04-27T06:53:46Z</time>
<desc>lat.=22.136524, lon.=104.319962, Alt.=431.824463m. Speed=0.324000m/h.</desc>
<speed>0.090000</speed>
</trkpt>
<trkpt lat="22.136528" lon="104.319969">
<ele>431.808838</ele>
<time>2011-04-27T06:53:51Z</time>
<desc>lat.=22.136528, lon.=104.319969, Alt.=431.808838m. Speed=0.828000m/h.</desc>
<speed>0.230000</speed>
</trkpt>
<trkpt lat="22.136526" lon="104.319977">
<ele>431.801025</ele>
<time>2011-04-27T06:53:56Z</time>
<desc>lat.=22.136526, lon.=104.319977, Alt.=431.801025m. Speed=0.612000m/h.</desc>
<speed>0.170000</speed>
</trkpt>
<trkpt lat="22.136524" lon="104.319984">
<ele>431.785400</ele>
<time>2011-04-27T06:54:01Z</time>
<desc>lat.=22.136524, lon.=104.319984, Alt.=431.785400m. Speed=0.288000m/h.</desc>
<speed>0.080000</speed>
</trkpt>
<trkpt lat="22.136524" lon="104.319984">
<ele>431.785400</ele>
<time>2011-04-27T06:54:06Z</time>
<desc>lat.=22.136524, lon.=104.319984, Alt.=431.785400m. Speed=0.036000m/h.</desc>
<speed>0.010000</speed>
</trkpt>
<trkpt lat="22.136526" lon="104.319984">
<ele>431.785400</ele>
<time>2011-04-27T06:54:11Z</time>
<desc>lat.=22.136526, lon.=104.319984, Alt.=431.785400m. Speed=0.288000m/h.</desc>
<speed>0.080000</speed>
</trkpt>
<trkpt lat="22.136526" lon="104.319984">
<ele>431.777588</ele>
<time>2011-04-27T06:54:16Z</time>
<desc>lat.=22.136526, lon.=104.319984, Alt.=431.777588m. Speed=0.144000m/h.</desc>
<speed>0.040000</speed>
</trkpt>
<trkpt lat="22.136526" lon="104.319984">
<ele>431.793213</ele>
<time>2011-04-27T06:54:21Z</time>
<desc>lat.=22.136526, lon.=104.319984, Alt.=431.793213m. Speed=0.252000m/h.</desc>
<speed>0.070000</speed>
</trkpt>
<trkpt lat="22.136524" lon="104.319992">
<ele>431.824463</ele>
<time>2011-04-27T06:54:26Z</time>
<desc>lat.=22.136524, lon.=104.319992, Alt.=431.824463m. Speed=1.044000m/h.</desc>
<speed>0.290000</speed>
</trkpt>
<trkpt lat="22.136524" lon="104.320015">
<ele>431.933838</ele>
<time>2011-04-27T06:54:31Z</time>
<desc>lat.=22.136524, lon.=104.320015, Alt.=431.933838m. Speed=0.972000m/h.</desc>
<speed>0.270000</speed>
</trkpt>
<trkpt lat="22.136515" lon="104.320045">
<ele>431.543213</ele>
<time>2011-04-27T06:54:36Z</time>
<desc>lat.=22.136515, lon.=104.320045, Alt.=431.543213m. Speed=0.396000m/h.</desc>
<speed>0.110000</speed>
</trkpt>
<trkpt lat="22.136517" lon="104.320053">
<ele>431.527588</ele>
<time>2011-04-27T06:54:41Z</time>
<desc>lat.=22.136517, lon.=104.320053, Alt.=431.527588m. Speed=0.252000m/h.</desc>
<speed>0.070000</speed>
</trkpt>
<trkpt lat="22.136517" lon="104.320053">
<ele>431.527588</ele>
<time>2011-04-27T06:54:46Z</time>
<desc>lat.=22.136517, lon.=104.320053, Alt.=431.527588m. Speed=0.252000m/h.</desc>
<speed>0.070000</speed>
</trkpt>
<trkpt lat="22.136518" lon="104.320061">
<ele>431.496338</ele>
<time>2011-04-27T06:54:51Z</time>
<desc>lat.=22.136518, lon.=104.320061, Alt.=431.496338m. Speed=0.432000m/h.</desc>
<speed>0.120000</speed>
</trkpt>
<trkpt lat="22.136520" lon="104.320068">
<ele>431.472900</ele>
<time>2011-04-27T06:54:56Z</time>
<desc>lat.=22.136520, lon.=104.320068, Alt.=431.472900m. Speed=0.324000m/h.</desc>
<speed>0.090000</speed>
</trkpt>
<trkpt lat="22.136520" lon="104.320068">
<ele>431.472900</ele>
<time>2011-04-27T06:55:01Z</time>
<desc>lat.=22.136520, lon.=104.320068, Alt.=431.472900m. Speed=0.180000m/h.</desc>
<speed>0.050000</speed>
</trkpt>
<trkpt lat="22.136518" lon="104.320068">
<ele>431.472900</ele>
<time>2011-04-27T06:55:06Z</time>
<desc>lat.=22.136518, lon.=104.320068, Alt.=431.472900m. Speed=0.576000m/h.</desc>
<speed>0.160000</speed>
</trkpt>
<trkpt lat="22.136520" lon="104.320061">
<ele>431.472900</ele>
<time>2011-04-27T06:55:11Z</time>
<desc>lat.=22.136520, lon.=104.320061, Alt.=431.472900m. Speed=0.144000m/h.</desc>
<speed>0.040000</speed>
</trkpt>
<trkpt lat="22.136522" lon="104.320068">
<ele>431.472900</ele>
<time>2011-04-27T06:55:16Z</time>
<desc>lat.=22.136522, lon.=104.320068, Alt.=431.472900m. Speed=0.288000m/h.</desc>
<speed>0.080000</speed>
</trkpt>
<trkpt lat="22.136522" lon="104.320068">
<ele>431.480713</ele>
<time>2011-04-27T06:55:21Z</time>
<desc>lat.=22.136522, lon.=104.320068, Alt.=431.480713m. Speed=0.036000m/h.</desc>
<speed>0.010000</speed>
</trkpt>
<trkpt lat="22.136522" lon="104.320068">
<ele>431.480713</ele>
<time>2011-04-27T06:55:26Z</time>
<desc>lat.=22.136522, lon.=104.320068, Alt.=431.480713m. Speed=0.504000m/h.</desc>
<speed>0.140000</speed>
</trkpt>
<trkpt lat="22.136522" lon="104.320061">
<ele>431.480713</ele>
<time>2011-04-27T06:55:31Z</time>
<desc>lat.=22.136522, lon.=104.320061, Alt.=431.480713m. Speed=0.504000m/h.</desc>
<speed>0.140000</speed>
</trkpt>
<trkpt lat="22.136520" lon="104.320053">
<ele>431.488525</ele>
<time>2011-04-27T06:55:36Z</time>
<desc>lat.=22.136520, lon.=104.320053, Alt.=431.488525m. Speed=0.144000m/h.</desc>
<speed>0.040000</speed>
</trkpt>
<trkpt lat="22.136520" lon="104.320053">
<ele>431.488525</ele>
<time>2011-04-27T06:55:41Z</time>
<desc>lat.=22.136520, lon.=104.320053, Alt.=431.488525m. Speed=0.396000m/h.</desc>
<speed>0.110000</speed>
</trkpt>
<trkpt lat="22.136520" lon="104.320045">
<ele>431.472900</ele>
<time>2011-04-27T06:55:46Z</time>
<desc>lat.=22.136520, lon.=104.320045, Alt.=431.472900m. Speed=0.108000m/h.</desc>
<speed>0.030000</speed>
</trkpt>
<trkpt lat="22.136520" lon="104.320038">
<ele>431.465088</ele>
<time>2011-04-27T06:55:51Z</time>
<desc>lat.=22.136520, lon.=104.320038, Alt.=431.465088m. Speed=0.288000m/h.</desc>
<speed>0.080000</speed>
</trkpt>
<trkpt lat="22.136518" lon="104.320038">
<ele>431.480713</ele>
<time>2011-04-27T06:55:56Z</time>
<desc>lat.=22.136518, lon.=104.320038, Alt.=431.480713m. Speed=0.108000m/h.</desc>
<speed>0.030000</speed>
</trkpt>
<trkpt lat="22.136518" lon="104.320030">
<ele>431.496338</ele>
<time>2011-04-27T06:56:01Z</time>
<desc>lat.=22.136518, lon.=104.320030, Alt.=431.496338m. Speed=0.216000m/h.</desc>
<speed>0.060000</speed>
</trkpt>
<trkpt lat="22.136517" lon="104.320030">
<ele>431.511963</ele>
<time>2011-04-27T06:56:06Z</time>
<desc>lat.=22.136517, lon.=104.320030, Alt.=431.511963m. Speed=0.288000m/h.</desc>
<speed>0.080000</speed>
</trkpt>
<trkpt lat="22.136517" lon="104.320023">
<ele>431.496338</ele>
<time>2011-04-27T06:56:11Z</time>
<desc>lat.=22.136517, lon.=104.320023, Alt.=431.496338m. Speed=0.144000m/h.</desc>
<speed>0.040000</speed>
</trkpt>
<trkpt lat="22.136517" lon="104.320023">
<ele>431.504150</ele>
<time>2011-04-27T06:56:16Z</time>
<desc>lat.=22.136517, lon.=104.320023, Alt.=431.504150m. Speed=0.324000m/h.</desc>
<speed>0.090000</speed>
</trkpt>
<trkpt lat="22.136517" lon="104.320023">
<ele>431.527588</ele>
<time>2011-04-27T06:56:21Z</time>
<desc>lat.=22.136517, lon.=104.320023, Alt.=431.527588m. Speed=0.144000m/h.</desc>
<speed>0.040000</speed>
</trkpt>
<trkpt lat="22.136517" lon="104.320023">
<ele>431.543213</ele>
<time>2011-04-27T06:56:26Z</time>
<desc>lat.=22.136517, lon.=104.320023, Alt.=431.543213m. Speed=0.108000m/h.</desc>
<speed>0.030000</speed>
</trkpt>
<trkpt lat="22.136517" lon="104.320023">
<ele>431.527588</ele>
<time>2011-04-27T06:56:31Z</time>
<desc>lat.=22.136517, lon.=104.320023, Alt.=431.527588m. Speed=0.144000m/h.</desc>
<speed>0.040000</speed>
</trkpt>
<trkpt lat="22.136517" lon="104.320023">
<ele>431.519775</ele>
<time>2011-04-27T06:56:36Z</time>
<desc>lat.=22.136517, lon.=104.320023, Alt.=431.519775m. Speed=0.180000m/h.</desc>
<speed>0.050000</speed>
</trkpt>
<trkpt lat="22.136517" lon="104.320023">
<ele>431.488525</ele>
<time>2011-04-27T06:56:41Z</time>
<desc>lat.=22.136517, lon.=104.320023, Alt.=431.488525m. Speed=0.072000m/h.</desc>
<speed>0.020000</speed>
</trkpt>
<trkpt lat="22.136517" lon="104.320023">
<ele>431.496338</ele>
<time>2011-04-27T06:56:46Z</time>
<desc>lat.=22.136517, lon.=104.320023, Alt.=431.496338m. Speed=0.324000m/h.</desc>
<speed>0.090000</speed>
</trkpt>
<trkpt lat="22.136517" lon="104.320023">
<ele>431.465088</ele>
<time>2011-04-27T06:56:51Z</time>
<desc>lat.=22.136517, lon.=104.320023, Alt.=431.465088m. Speed=0.648000m/h.</desc>
<speed>0.180000</speed>
</trkpt>
<trkpt lat="22.136518" lon="104.320030">
<ele>431.410400</ele>
<time>2011-04-27T06:56:56Z</time>
<desc>lat.=22.136518, lon.=104.320030, Alt.=431.410400m. Speed=0.468000m/h.</desc>
<speed>0.130000</speed>
</trkpt>
<trkpt lat="22.136518" lon="104.320038">
<ele>431.363525</ele>
<time>2011-04-27T06:57:01Z</time>
<desc>lat.=22.136518, lon.=104.320038, Alt.=431.363525m. Speed=0.072000m/h.</desc>
<speed>0.020000</speed>
</trkpt>
<trkpt lat="22.136518" lon="104.320030">
<ele>431.355713</ele>
<time>2011-04-27T06:57:06Z</time>
<desc>lat.=22.136518, lon.=104.320030, Alt.=431.355713m. Speed=0.216000m/h.</desc>
<speed>0.060000</speed>
</trkpt>
<trkpt lat="22.136518" lon="104.320030">
<ele>431.347900</ele>
<time>2011-04-27T06:57:11Z</time>
<desc>lat.=22.136518, lon.=104.320030, Alt.=431.347900m. Speed=0.144000m/h.</desc>
<speed>0.040000</speed>
</trkpt>
<trkpt lat="22.136518" lon="104.320038">
<ele>431.332275</ele>
<time>2011-04-27T06:57:16Z</time>
<desc>lat.=22.136518, lon.=104.320038, Alt.=431.332275m. Speed=0.396000m/h.</desc>
<speed>0.110000</speed>
</trkpt>
<trkpt lat="22.136520" lon="104.320038">
<ele>431.316650</ele>
<time>2011-04-27T06:57:21Z</time>
<desc>lat.=22.136520, lon.=104.320038, Alt.=431.316650m. Speed=0.072000m/h.</desc>
<speed>0.020000</speed>
</trkpt>
<trkpt lat="22.136520" lon="104.320038">
<ele>431.340088</ele>
<time>2011-04-27T06:57:26Z</time>
<desc>lat.=22.136520, lon.=104.320038, Alt.=431.340088m. Speed=0.468000m/h.</desc>
<speed>0.130000</speed>
</trkpt>
<trkpt lat="22.136520" lon="104.320045">
<ele>431.324463</ele>
<time>2011-04-27T06:57:31Z</time>
<desc>lat.=22.136520, lon.=104.320045, Alt.=431.324463m. Speed=0.576000m/h.</desc>
<speed>0.160000</speed>
</trkpt>
<trkpt lat="22.136522" lon="104.320053">
<ele>431.246338</ele>
<time>2011-04-27T06:57:36Z</time>
<desc>lat.=22.136522, lon.=104.320053, Alt.=431.246338m. Speed=0.144000m/h.</desc>
<speed>0.040000</speed>
</trkpt>
<trkpt lat="22.136522" lon="104.320053">
<ele>431.238525</ele>
<time>2011-04-27T06:57:41Z</time>
<desc>lat.=22.136522, lon.=104.320053, Alt.=431.238525m. Speed=0.072000m/h.</desc>
<speed>0.020000</speed>
</trkpt>
<trkpt lat="22.136520" lon="104.320053">
<ele>431.254150</ele>
<time>2011-04-27T06:57:46Z</time>
<desc>lat.=22.136520, lon.=104.320053, Alt.=431.254150m. Speed=0.720000m/h.</desc>
<speed>0.200000</speed>
</trkpt>
<trkpt lat="22.136520" lon="104.320045">
<ele>431.301025</ele>
<time>2011-04-27T06:57:51Z</time>
<desc>lat.=22.136520, lon.=104.320045, Alt.=431.301025m. Speed=0.072000m/h.</desc>
<speed>0.020000</speed>
</trkpt>
<trkpt lat="22.136518" lon="104.320038">
<ele>431.355713</ele>
<time>2011-04-27T06:57:56Z</time>
<desc>lat.=22.136518, lon.=104.320038, Alt.=431.355713m. Speed=0.288000m/h.</desc>
<speed>0.080000</speed>
</trkpt>
<trkpt lat="22.136518" lon="104.320038">
<ele>431.394775</ele>
<time>2011-04-27T06:58:01Z</time>
<desc>lat.=22.136518, lon.=104.320038, Alt.=431.394775m. Speed=0.144000m/h.</desc>
<speed>0.040000</speed>
</trkpt>
<trkpt lat="22.136518" lon="104.320038">
<ele>431.433838</ele>
<time>2011-04-27T06:58:06Z</time>
<desc>lat.=22.136518, lon.=104.320038, Alt.=431.433838m. Speed=0.144000m/h.</desc>
<speed>0.040000</speed>
</trkpt>
<trkpt lat="22.136518" lon="104.320038">
<ele>431.441650</ele>
<time>2011-04-27T06:58:11Z</time>
<desc>lat.=22.136518, lon.=104.320038, Alt.=431.441650m. Speed=0.108000m/h.</desc>
<speed>0.030000</speed>
</trkpt>
<trkpt lat="22.136520" lon="104.320038">
<ele>431.418213</ele>
<time>2011-04-27T06:58:16Z</time>
<desc>lat.=22.136520, lon.=104.320038, Alt.=431.418213m. Speed=0.432000m/h.</desc>
<speed>0.120000</speed>
</trkpt>
<trkpt lat="22.136518" lon="104.320030">
<ele>431.433838</ele>
<time>2011-04-27T06:58:21Z</time>
<desc>lat.=22.136518, lon.=104.320030, Alt.=431.433838m. Speed=0.576000m/h.</desc>
<speed>0.160000</speed>
</trkpt>
<trkpt lat="22.136517" lon="104.320030">
<ele>431.465088</ele>
<time>2011-04-27T06:58:26Z</time>
<desc>lat.=22.136517, lon.=104.320030, Alt.=431.465088m. Speed=0.036000m/h.</desc>
<speed>0.010000</speed>
</trkpt>
<trkpt lat="22.136517" lon="104.320023">
<ele>431.465088</ele>
<time>2011-04-27T06:58:31Z</time>
<desc>lat.=22.136517, lon.=104.320023, Alt.=431.465088m. Speed=0.000000m/h.</desc>
<speed>0.000000</speed>
</trkpt>
<trkpt lat="22.136517" lon="104.320023">
<ele>431.449463</ele>
<time>2011-04-27T06:58:36Z</time>
<desc>lat.=22.136517, lon.=104.320023, Alt.=431.449463m. Speed=0.000000m/h.</desc>
<speed>0.000000</speed>
</trkpt>
<trkpt lat="22.136517" lon="104.320030">
<ele>431.433838</ele>
<time>2011-04-27T06:58:41Z</time>
<desc>lat.=22.136517, lon.=104.320030, Alt.=431.433838m. Speed=0.036000m/h.</desc>
<speed>0.010000</speed>
</trkpt>
<trkpt lat="22.136517" lon="104.320023">
<ele>431.418213</ele>
<time>2011-04-27T06:58:46Z</time>
<desc>lat.=22.136517, lon.=104.320023, Alt.=431.418213m. Speed=0.072000m/h.</desc>
<speed>0.020000</speed>
</trkpt>
<trkpt lat="22.136517" lon="104.320030">
<ele>431.418213</ele>
<time>2011-04-27T06:58:51Z</time>
<desc>lat.=22.136517, lon.=104.320030, Alt.=431.418213m. Speed=0.252000m/h.</desc>
<speed>0.070000</speed>
</trkpt>
<trkpt lat="22.136518" lon="104.320030">
<ele>431.394775</ele>
<time>2011-04-27T06:58:56Z</time>
<desc>lat.=22.136518, lon.=104.320030, Alt.=431.394775m. Speed=0.324000m/h.</desc>
<speed>0.090000</speed>
</trkpt>
<trkpt lat="22.136518" lon="104.320038">
<ele>431.363525</ele>
<time>2011-04-27T06:59:01Z</time>
<desc>lat.=22.136518, lon.=104.320038, Alt.=431.363525m. Speed=0.216000m/h.</desc>
<speed>0.060000</speed>
</trkpt>
<trkpt lat="22.136517" lon="104.320045">
<ele>431.308838</ele>
<time>2011-04-27T06:59:06Z</time>
<desc>lat.=22.136517, lon.=104.320045, Alt.=431.308838m. Speed=0.252000m/h.</desc>
<speed>0.070000</speed>
</trkpt>
<trkpt lat="22.136517" lon="104.320045">
<ele>431.316650</ele>
<time>2011-04-27T06:59:11Z</time>
<desc>lat.=22.136517, lon.=104.320045, Alt.=431.316650m. Speed=0.468000m/h.</desc>
<speed>0.130000</speed>
</trkpt>
<trkpt lat="22.136517" lon="104.320053">
<ele>431.301025</ele>
<time>2011-04-27T06:59:16Z</time>
<desc>lat.=22.136517, lon.=104.320053, Alt.=431.301025m. Speed=0.504000m/h.</desc>
<speed>0.140000</speed>
</trkpt>
<trkpt lat="22.136518" lon="104.320053">
<ele>431.285400</ele>
<time>2011-04-27T06:59:21Z</time>
<desc>lat.=22.136518, lon.=104.320053, Alt.=431.285400m. Speed=0.324000m/h.</desc>
<speed>0.090000</speed>
</trkpt>
<trkpt lat="22.136517" lon="104.320045">
<ele>431.285400</ele>
<time>2011-04-27T06:59:26Z</time>
<desc>lat.=22.136517, lon.=104.320045, Alt.=431.285400m. Speed=1.008000m/h.</desc>
<speed>0.280000</speed>
</trkpt>
<trkpt lat="22.136515" lon="104.320030">
<ele>431.293213</ele>
<time>2011-04-27T06:59:31Z</time>
<desc>lat.=22.136515, lon.=104.320030, Alt.=431.293213m. Speed=0.612000m/h.</desc>
<speed>0.170000</speed>
</trkpt>
<trkpt lat="22.136515" lon="104.320030">
<ele>431.285400</ele>
<time>2011-04-27T06:59:36Z</time>
<desc>lat.=22.136515, lon.=104.320030, Alt.=431.285400m. Speed=0.036000m/h.</desc>
<speed>0.010000</speed>
</trkpt>
<trkpt lat="22.136515" lon="104.320030">
<ele>431.269775</ele>
<time>2011-04-27T06:59:41Z</time>
<desc>lat.=22.136515, lon.=104.320030, Alt.=431.269775m. Speed=0.180000m/h.</desc>
<speed>0.050000</speed>
</trkpt>
<trkpt lat="22.136513" lon="104.320023">
<ele>431.301025</ele>
<time>2011-04-27T06:59:46Z</time>
<desc>lat.=22.136513, lon.=104.320023, Alt.=431.301025m. Speed=0.216000m/h.</desc>
<speed>0.060000</speed>
</trkpt>
<trkpt lat="22.136513" lon="104.320023">
<ele>431.308838</ele>
<time>2011-04-27T06:59:51Z</time>
<desc>lat.=22.136513, lon.=104.320023, Alt.=431.308838m. Speed=0.252000m/h.</desc>
<speed>0.070000</speed>
</trkpt>
<trkpt lat="22.136515" lon="104.320030">
<ele>431.293213</ele>
<time>2011-04-27T06:59:56Z</time>
<desc>lat.=22.136515, lon.=104.320030, Alt.=431.293213m. Speed=0.180000m/h.</desc>
<speed>0.050000</speed>
</trkpt>
<trkpt lat="22.136513" lon="104.320023">
<ele>431.293213</ele>
<time>2011-04-27T07:00:01Z</time>
<desc>lat.=22.136513, lon.=104.320023, Alt.=431.293213m. Speed=0.036000m/h.</desc>
<speed>0.010000</speed>
</trkpt>
<trkpt lat="22.136513" lon="104.320023">
<ele>431.308838</ele>
<time>2011-04-27T07:00:06Z</time>
<desc>lat.=22.136513, lon.=104.320023, Alt.=431.308838m. Speed=0.216000m/h.</desc>
<speed>0.060000</speed>
</trkpt>
<trkpt lat="22.136513" lon="104.320023">
<ele>431.332275</ele>
<time>2011-04-27T07:00:11Z</time>
<desc>lat.=22.136513, lon.=104.320023, Alt.=431.332275m. Speed=0.144000m/h.</desc>
<speed>0.040000</speed>
</trkpt>
<trkpt lat="22.136513" lon="104.320023">
<ele>431.355713</ele>
<time>2011-04-27T07:00:16Z</time>
<desc>lat.=22.136513, lon.=104.320023, Alt.=431.355713m. Speed=0.144000m/h.</desc>
<speed>0.040000</speed>
</trkpt>
<trkpt lat="22.136513" lon="104.320023">
<ele>431.363525</ele>
<time>2011-04-27T07:00:21Z</time>
<desc>lat.=22.136513, lon.=104.320023, Alt.=431.363525m. Speed=0.072000m/h.</desc>
<speed>0.020000</speed>
</trkpt>
<trkpt lat="22.136513" lon="104.320023">
<ele>431.402588</ele>
<time>2011-04-27T07:00:26Z</time>
<desc>lat.=22.136513, lon.=104.320023, Alt.=431.402588m. Speed=0.612000m/h.</desc>
<speed>0.170000</speed>
</trkpt>
<trkpt lat="22.136515" lon="104.320030">
<ele>431.386963</ele>
<time>2011-04-27T07:00:31Z</time>
<desc>lat.=22.136515, lon.=104.320030, Alt.=431.386963m. Speed=0.252000m/h.</desc>
<speed>0.070000</speed>
</trkpt>
<trkpt lat="22.136513" lon="104.320030">
<ele>431.410400</ele>
<time>2011-04-27T07:00:36Z</time>
<desc>lat.=22.136513, lon.=104.320030, Alt.=431.410400m. Speed=0.000000m/h.</desc>
<speed>0.000000</speed>
</trkpt>
<trkpt lat="22.136513" lon="104.320030">
<ele>431.418213</ele>
<time>2011-04-27T07:00:41Z</time>
<desc>lat.=22.136513, lon.=104.320030, Alt.=431.418213m. Speed=0.612000m/h.</desc>
<speed>0.170000</speed>
</trkpt>
<trkpt lat="22.136515" lon="104.320038">
<ele>431.426025</ele>
<time>2011-04-27T07:00:46Z</time>
<desc>lat.=22.136515, lon.=104.320038, Alt.=431.426025m. Speed=0.612000m/h.</desc>
<speed>0.170000</speed>
</trkpt>
<trkpt lat="22.136517" lon="104.320045">
<ele>431.418213</ele>
<time>2011-04-27T07:00:51Z</time>
<desc>lat.=22.136517, lon.=104.320045, Alt.=431.418213m. Speed=0.252000m/h.</desc>
<speed>0.070000</speed>
</trkpt>
<trkpt lat="22.136517" lon="104.320045">
<ele>431.402588</ele>
<time>2011-04-27T07:00:56Z</time>
<desc>lat.=22.136517, lon.=104.320045, Alt.=431.402588m. Speed=0.252000m/h.</desc>
<speed>0.070000</speed>
</trkpt>
<trkpt lat="22.136517" lon="104.320045">
<ele>431.418213</ele>
<time>2011-04-27T07:01:01Z</time>
<desc>lat.=22.136517, lon.=104.320045, Alt.=431.418213m. Speed=0.108000m/h.</desc>
<speed>0.030000</speed>
</trkpt>
<trkpt lat="22.136517" lon="104.320053">
<ele>431.410400</ele>
<time>2011-04-27T07:01:06Z</time>
<desc>lat.=22.136517, lon.=104.320053, Alt.=431.410400m. Speed=0.612000m/h.</desc>
<speed>0.170000</speed>
</trkpt>
<trkpt lat="22.136518" lon="104.320061">
<ele>431.379150</ele>
<time>2011-04-27T07:01:11Z</time>
<desc>lat.=22.136518, lon.=104.320061, Alt.=431.379150m. Speed=0.324000m/h.</desc>
<speed>0.090000</speed>
</trkpt>
<trkpt lat="22.136518" lon="104.320061">
<ele>431.371338</ele>
<time>2011-04-27T07:01:16Z</time>
<desc>lat.=22.136518, lon.=104.320061, Alt.=431.371338m. Speed=0.360000m/h.</desc>
<speed>0.100000</speed>
</trkpt>
<trkpt lat="22.136520" lon="104.320068">
<ele>431.379150</ele>
<time>2011-04-27T07:01:21Z</time>
<desc>lat.=22.136520, lon.=104.320068, Alt.=431.379150m. Speed=0.216000m/h.</desc>
<speed>0.060000</speed>
</trkpt>
<trkpt lat="22.136520" lon="104.320076">
<ele>431.371338</ele>
<time>2011-04-27T07:01:26Z</time>
<desc>lat.=22.136520, lon.=104.320076, Alt.=431.371338m. Speed=0.072000m/h.</desc>
<speed>0.020000</speed>
</trkpt>
<trkpt lat="22.136520" lon="104.320068">
<ele>431.386963</ele>
<time>2011-04-27T07:01:31Z</time>
<desc>lat.=22.136520, lon.=104.320068, Alt.=431.386963m. Speed=0.576000m/h.</desc>
<speed>0.160000</speed>
</trkpt>
<trkpt lat="22.136518" lon="104.320061">
<ele>431.394775</ele>
<time>2011-04-27T07:01:36Z</time>
<desc>lat.=22.136518, lon.=104.320061, Alt.=431.394775m. Speed=0.000000m/h.</desc>
<speed>0.000000</speed>
</trkpt>
<trkpt lat="22.136518" lon="104.320061">
<ele>431.402588</ele>
<time>2011-04-27T07:01:41Z</time>
<desc>lat.=22.136518, lon.=104.320061, Alt.=431.402588m. Speed=0.108000m/h.</desc>
<speed>0.030000</speed>
</trkpt>
<trkpt lat="22.136520" lon="104.320068">
<ele>431.394775</ele>
<time>2011-04-27T07:01:46Z</time>
<desc>lat.=22.136520, lon.=104.320068, Alt.=431.394775m. Speed=0.144000m/h.</desc>
<speed>0.040000</speed>
</trkpt>
<trkpt lat="22.136520" lon="104.320068">
<ele>431.418213</ele>
<time>2011-04-27T07:01:51Z</time>
<desc>lat.=22.136520, lon.=104.320068, Alt.=431.418213m. Speed=0.036000m/h.</desc>
<speed>0.010000</speed>
</trkpt>
<trkpt lat="22.136518" lon="104.320061">
<ele>431.465088</ele>
<time>2011-04-27T07:01:56Z</time>
<desc>lat.=22.136518, lon.=104.320061, Alt.=431.465088m. Speed=0.576000m/h.</desc>
<speed>0.160000</speed>
</trkpt>
<trkpt lat="22.136517" lon="104.320053">
<ele>431.511963</ele>
<time>2011-04-27T07:02:01Z</time>
<desc>lat.=22.136517, lon.=104.320053, Alt.=431.511963m. Speed=0.252000m/h.</desc>
<speed>0.070000</speed>
</trkpt>
<trkpt lat="22.136517" lon="104.320045">
<ele>431.551025</ele>
<time>2011-04-27T07:02:06Z</time>
<desc>lat.=22.136517, lon.=104.320045, Alt.=431.551025m. Speed=0.180000m/h.</desc>
<speed>0.050000</speed>
</trkpt>
<trkpt lat="22.136517" lon="104.320045">
<ele>431.590088</ele>
<time>2011-04-27T07:02:11Z</time>
<desc>lat.=22.136517, lon.=104.320045, Alt.=431.590088m. Speed=0.360000m/h.</desc>
<speed>0.100000</speed>
</trkpt>
<trkpt lat="22.136517" lon="104.320045">
<ele>431.605713</ele>
<time>2011-04-27T07:02:16Z</time>
<desc>lat.=22.136517, lon.=104.320045, Alt.=431.605713m. Speed=0.036000m/h.</desc>
<speed>0.010000</speed>
</trkpt>
<trkpt lat="22.136515" lon="104.320045">
<ele>431.629150</ele>
<time>2011-04-27T07:02:21Z</time>
<desc>lat.=22.136515, lon.=104.320045, Alt.=431.629150m. Speed=0.072000m/h.</desc>
<speed>0.020000</speed>
</trkpt>
<trkpt lat="22.136515" lon="104.320045">
<ele>431.636963</ele>
<time>2011-04-27T07:02:26Z</time>
<desc>lat.=22.136515, lon.=104.320045, Alt.=431.636963m. Speed=0.036000m/h.</desc>
<speed>0.010000</speed>
</trkpt>
<trkpt lat="22.136515" lon="104.320045">
<ele>431.636963</ele>
<time>2011-04-27T07:02:31Z</time>
<desc>lat.=22.136515, lon.=104.320045, Alt.=431.636963m. Speed=0.072000m/h.</desc>
<speed>0.020000</speed>
</trkpt>
<trkpt lat="22.136515" lon="104.320038">
<ele>431.636963</ele>
<time>2011-04-27T07:02:36Z</time>
<desc>lat.=22.136515, lon.=104.320038, Alt.=431.636963m. Speed=0.144000m/h.</desc>
<speed>0.040000</speed>
</trkpt>
<trkpt lat="22.136515" lon="104.320038">
<ele>431.613525</ele>
<time>2011-04-27T07:02:41Z</time>
<desc>lat.=22.136515, lon.=104.320038, Alt.=431.613525m. Speed=0.036000m/h.</desc>
<speed>0.010000</speed>
</trkpt>
<trkpt lat="22.136515" lon="104.320038">
<ele>431.597900</ele>
<time>2011-04-27T07:02:46Z</time>
<desc>lat.=22.136515, lon.=104.320038, Alt.=431.597900m. Speed=0.036000m/h.</desc>
<speed>0.010000</speed>
</trkpt>
<trkpt lat="22.136515" lon="104.320045">
<ele>431.566650</ele>
<time>2011-04-27T07:02:51Z</time>
<desc>lat.=22.136515, lon.=104.320045, Alt.=431.566650m. Speed=0.252000m/h.</desc>
<speed>0.070000</speed>
</trkpt>
<trkpt lat="22.136515" lon="104.320038">
<ele>431.566650</ele>
<time>2011-04-27T07:02:56Z</time>
<desc>lat.=22.136515, lon.=104.320038, Alt.=431.566650m. Speed=0.360000m/h.</desc>
<speed>0.100000</speed>
</trkpt>
<trkpt lat="22.136515" lon="104.320038">
<ele>431.551025</ele>
<time>2011-04-27T07:03:01Z</time>
<desc>lat.=22.136515, lon.=104.320038, Alt.=431.551025m. Speed=0.288000m/h.</desc>
<speed>0.080000</speed>
</trkpt>
<trkpt lat="22.136515" lon="104.320038">
<ele>431.551025</ele>
<time>2011-04-27T07:03:06Z</time>
<desc>lat.=22.136515, lon.=104.320038, Alt.=431.551025m. Speed=0.540000m/h.</desc>
<speed>0.150000</speed>
</trkpt>
<trkpt lat="22.136515" lon="104.320045">
<ele>431.535400</ele>
<time>2011-04-27T07:03:11Z</time>
<desc>lat.=22.136515, lon.=104.320045, Alt.=431.535400m. Speed=0.108000m/h.</desc>
<speed>0.030000</speed>
</trkpt>
<trkpt lat="22.136515" lon="104.320045">
<ele>431.543213</ele>
<time>2011-04-27T07:03:16Z</time>
<desc>lat.=22.136515, lon.=104.320045, Alt.=431.543213m. Speed=0.108000m/h.</desc>
<speed>0.030000</speed>
</trkpt>
<trkpt lat="22.136515" lon="104.320038">
<ele>431.543213</ele>
<time>2011-04-27T07:03:21Z</time>
<desc>lat.=22.136515, lon.=104.320038, Alt.=431.543213m. Speed=0.684000m/h.</desc>
<speed>0.190000</speed>
</trkpt>
<trkpt lat="22.136511" lon="104.320023">
<ele>431.605713</ele>
<time>2011-04-27T07:03:26Z</time>
<desc>lat.=22.136511, lon.=104.320023, Alt.=431.605713m. Speed=1.116000m/h.</desc>
<speed>0.310000</speed>
</trkpt>
<trkpt lat="22.136507" lon="104.320015">
<ele>432.027588</ele>
<time>2011-04-27T07:03:31Z</time>
<desc>lat.=22.136507, lon.=104.320015, Alt.=432.027588m. Speed=0.468000m/h.</desc>
<speed>0.130000</speed>
</trkpt>
<trkpt lat="22.136507" lon="104.320015">
<ele>432.051025</ele>
<time>2011-04-27T07:03:36Z</time>
<desc>lat.=22.136507, lon.=104.320015, Alt.=432.051025m. Speed=0.144000m/h.</desc>
<speed>0.040000</speed>
</trkpt>
<trkpt lat="22.136507" lon="104.320023">
<ele>432.051025</ele>
<time>2011-04-27T07:03:41Z</time>
<desc>lat.=22.136507, lon.=104.320023, Alt.=432.051025m. Speed=0.252000m/h.</desc>
<speed>0.070000</speed>
</trkpt>
<trkpt lat="22.136507" lon="104.320015">
<ele>432.066650</ele>
<time>2011-04-27T07:03:46Z</time>
<desc>lat.=22.136507, lon.=104.320015, Alt.=432.066650m. Speed=0.504000m/h.</desc>
<speed>0.140000</speed>
</trkpt>
<trkpt lat="22.136507" lon="104.320015">
<ele>432.058838</ele>
<time>2011-04-27T07:03:51Z</time>
<desc>lat.=22.136507, lon.=104.320015, Alt.=432.058838m. Speed=0.288000m/h.</desc>
<speed>0.080000</speed>
</trkpt>
<trkpt lat="22.136507" lon="104.320015">
<ele>432.058838</ele>
<time>2011-04-27T07:03:56Z</time>
<desc>lat.=22.136507, lon.=104.320015, Alt.=432.058838m. Speed=0.036000m/h.</desc>
<speed>0.010000</speed>
</trkpt>
<trkpt lat="22.136507" lon="104.320023">
<ele>432.058838</ele>
<time>2011-04-27T07:04:01Z</time>
<desc>lat.=22.136507, lon.=104.320023, Alt.=432.058838m. Speed=0.000000m/h.</desc>
<speed>0.000000</speed>
</trkpt>
<trkpt lat="22.136507" lon="104.320023">
<ele>432.090088</ele>
<time>2011-04-27T07:04:06Z</time>
<desc>lat.=22.136507, lon.=104.320023, Alt.=432.090088m. Speed=0.144000m/h.</desc>
<speed>0.040000</speed>
</trkpt>
<trkpt lat="22.136509" lon="104.320023">
<ele>432.097900</ele>
<time>2011-04-27T07:04:11Z</time>
<desc>lat.=22.136509, lon.=104.320023, Alt.=432.097900m. Speed=0.180000m/h.</desc>
<speed>0.050000</speed>
</trkpt>
<trkpt lat="22.136507" lon="104.320023">
<ele>432.105713</ele>
<time>2011-04-27T07:04:16Z</time>
<desc>lat.=22.136507, lon.=104.320023, Alt.=432.105713m. Speed=0.072000m/h.</desc>
<speed>0.020000</speed>
</trkpt>
<trkpt lat="22.136507" lon="104.320023">
<ele>432.090088</ele>
<time>2011-04-27T07:04:21Z</time>
<desc>lat.=22.136507, lon.=104.320023, Alt.=432.090088m. Speed=0.072000m/h.</desc>
<speed>0.020000</speed>
</trkpt>
<trkpt lat="22.136509" lon="104.320023">
<ele>432.097900</ele>
<time>2011-04-27T07:04:26Z</time>
<desc>lat.=22.136509, lon.=104.320023, Alt.=432.097900m. Speed=0.252000m/h.</desc>
<speed>0.070000</speed>
</trkpt>
<trkpt lat="22.136509" lon="104.320030">
<ele>432.082275</ele>
<time>2011-04-27T07:04:31Z</time>
<desc>lat.=22.136509, lon.=104.320030, Alt.=432.082275m. Speed=0.288000m/h.</desc>
<speed>0.080000</speed>
</trkpt>
<trkpt lat="22.136509" lon="104.320030">
<ele>432.066650</ele>
<time>2011-04-27T07:04:36Z</time>
<desc>lat.=22.136509, lon.=104.320030, Alt.=432.066650m. Speed=0.036000m/h.</desc>
<speed>0.010000</speed>
</trkpt>
<trkpt lat="22.136509" lon="104.320030">
<ele>432.066650</ele>
<time>2011-04-27T07:04:41Z</time>
<desc>lat.=22.136509, lon.=104.320030, Alt.=432.066650m. Speed=0.144000m/h.</desc>
<speed>0.040000</speed>
</trkpt>
<trkpt lat="22.136509" lon="104.320030">
<ele>432.066650</ele>
<time>2011-04-27T07:04:46Z</time>
<desc>lat.=22.136509, lon.=104.320030, Alt.=432.066650m. Speed=0.216000m/h.</desc>
<speed>0.060000</speed>
</trkpt>
<trkpt lat="22.136509" lon="104.320030">
<ele>432.066650</ele>
<time>2011-04-27T07:04:51Z</time>
<desc>lat.=22.136509, lon.=104.320030, Alt.=432.066650m. Speed=0.000000m/h.</desc>
<speed>0.000000</speed>
</trkpt>
<trkpt lat="22.136509" lon="104.320030">
<ele>432.058838</ele>
<time>2011-04-27T07:04:56Z</time>
<desc>lat.=22.136509, lon.=104.320030, Alt.=432.058838m. Speed=0.036000m/h.</desc>
<speed>0.010000</speed>
</trkpt>
<trkpt lat="22.136509" lon="104.320030">
<ele>432.066650</ele>
<time>2011-04-27T07:05:01Z</time>
<desc>lat.=22.136509, lon.=104.320030, Alt.=432.066650m. Speed=0.900000m/h.</desc>
<speed>0.250000</speed>
</trkpt>
<trkpt lat="22.136509" lon="104.320023">
<ele>432.097900</ele>
<time>2011-04-27T07:05:06Z</time>
<desc>lat.=22.136509, lon.=104.320023, Alt.=432.097900m. Speed=0.036000m/h.</desc>
<speed>0.010000</speed>
</trkpt>
<trkpt lat="22.136509" lon="104.320023">
<ele>432.113525</ele>
<time>2011-04-27T07:05:11Z</time>
<desc>lat.=22.136509, lon.=104.320023, Alt.=432.113525m. Speed=0.072000m/h.</desc>
<speed>0.020000</speed>
</trkpt>
<trkpt lat="22.136509" lon="104.320030">
<ele>432.129150</ele>
<time>2011-04-27T07:05:16Z</time>
<desc>lat.=22.136509, lon.=104.320030, Alt.=432.129150m. Speed=0.504000m/h.</desc>
<speed>0.140000</speed>
</trkpt>
<trkpt lat="22.136509" lon="104.320030">
<ele>432.113525</ele>
<time>2011-04-27T07:05:21Z</time>
<desc>lat.=22.136509, lon.=104.320030, Alt.=432.113525m. Speed=0.108000m/h.</desc>
<speed>0.030000</speed>
</trkpt>
<trkpt lat="22.136509" lon="104.320038">
<ele>432.105713</ele>
<time>2011-04-27T07:05:26Z</time>
<desc>lat.=22.136509, lon.=104.320038, Alt.=432.105713m. Speed=0.144000m/h.</desc>
<speed>0.040000</speed>
</trkpt>
<trkpt lat="22.136511" lon="104.320038">
<ele>432.090088</ele>
<time>2011-04-27T07:05:31Z</time>
<desc>lat.=22.136511, lon.=104.320038, Alt.=432.090088m. Speed=0.180000m/h.</desc>
<speed>0.050000</speed>
</trkpt>
<trkpt lat="22.136511" lon="104.320038">
<ele>432.066650</ele>
<time>2011-04-27T07:05:36Z</time>
<desc>lat.=22.136511, lon.=104.320038, Alt.=432.066650m. Speed=0.000000m/h.</desc>
<speed>0.000000</speed>
</trkpt>
<trkpt lat="22.136509" lon="104.320030">
<ele>432.082275</ele>
<time>2011-04-27T07:05:41Z</time>
<desc>lat.=22.136509, lon.=104.320030, Alt.=432.082275m. Speed=0.108000m/h.</desc>
<speed>0.030000</speed>
</trkpt>
<trkpt lat="22.136509" lon="104.320030">
<ele>432.090088</ele>
<time>2011-04-27T07:05:46Z</time>
<desc>lat.=22.136509, lon.=104.320030, Alt.=432.090088m. Speed=0.144000m/h.</desc>
<speed>0.040000</speed>
</trkpt>
<trkpt lat="22.136507" lon="104.320030">
<ele>432.082275</ele>
<time>2011-04-27T07:05:51Z</time>
<desc>lat.=22.136507, lon.=104.320030, Alt.=432.082275m. Speed=0.108000m/h.</desc>
<speed>0.030000</speed>
</trkpt>
<trkpt lat="22.136507" lon="104.320030">
<ele>432.035400</ele>
<time>2011-04-27T07:05:56Z</time>
<desc>lat.=22.136507, lon.=104.320030, Alt.=432.035400m. Speed=0.108000m/h.</desc>
<speed>0.030000</speed>
</trkpt>
<trkpt lat="22.136507" lon="104.320030">
<ele>432.027588</ele>
<time>2011-04-27T07:06:01Z</time>
<desc>lat.=22.136507, lon.=104.320030, Alt.=432.027588m. Speed=0.036000m/h.</desc>
<speed>0.010000</speed>
</trkpt>
<trkpt lat="22.136507" lon="104.320030">
<ele>432.019775</ele>
<time>2011-04-27T07:06:06Z</time>
<desc>lat.=22.136507, lon.=104.320030, Alt.=432.019775m. Speed=0.036000m/h.</desc>
<speed>0.010000</speed>
</trkpt>
<trkpt lat="22.136507" lon="104.320030">
<ele>432.019775</ele>
<time>2011-04-27T07:06:11Z</time>
<desc>lat.=22.136507, lon.=104.320030, Alt.=432.019775m. Speed=0.072000m/h.</desc>
<speed>0.020000</speed>
</trkpt>
<trkpt lat="22.136507" lon="104.320030">
<ele>432.035400</ele>
<time>2011-04-27T07:06:16Z</time>
<desc>lat.=22.136507, lon.=104.320030, Alt.=432.035400m. Speed=0.324000m/h.</desc>
<speed>0.090000</speed>
</trkpt>
<trkpt lat="22.136509" lon="104.320030">
<ele>432.066650</ele>
<time>2011-04-27T07:06:21Z</time>
<desc>lat.=22.136509, lon.=104.320030, Alt.=432.066650m. Speed=0.072000m/h.</desc>
<speed>0.020000</speed>
</trkpt>
<trkpt lat="22.136509" lon="104.320030">
<ele>432.090088</ele>
<time>2011-04-27T07:06:26Z</time>
<desc>lat.=22.136509, lon.=104.320030, Alt.=432.090088m. Speed=0.396000m/h.</desc>
<speed>0.110000</speed>
</trkpt>
<trkpt lat="22.136507" lon="104.320023">
<ele>432.090088</ele>
<time>2011-04-27T07:06:31Z</time>
<desc>lat.=22.136507, lon.=104.320023, Alt.=432.090088m. Speed=0.144000m/h.</desc>
<speed>0.040000</speed>
</trkpt>
<trkpt lat="22.136507" lon="104.320023">
<ele>432.090088</ele>
<time>2011-04-27T07:06:36Z</time>
<desc>lat.=22.136507, lon.=104.320023, Alt.=432.090088m. Speed=0.036000m/h.</desc>
<speed>0.010000</speed>
</trkpt>
<trkpt lat="22.136507" lon="104.320023">
<ele>432.097900</ele>
<time>2011-04-27T07:06:41Z</time>
<desc>lat.=22.136507, lon.=104.320023, Alt.=432.097900m. Speed=0.000000m/h.</desc>
<speed>0.000000</speed>
</trkpt>
<trkpt lat="22.136507" lon="104.320023">
<ele>432.097900</ele>
<time>2011-04-27T07:06:46Z</time>
<desc>lat.=22.136507, lon.=104.320023, Alt.=432.097900m. Speed=0.072000m/h.</desc>
<speed>0.020000</speed>
</trkpt>
<trkpt lat="22.136509" lon="104.320030">
<ele>432.043213</ele>
<time>2011-04-27T07:06:51Z</time>
<desc>lat.=22.136509, lon.=104.320030, Alt.=432.043213m. Speed=0.108000m/h.</desc>
<speed>0.030000</speed>
</trkpt>
<trkpt lat="22.136507" lon="104.320023">
<ele>431.996338</ele>
<time>2011-04-27T07:06:56Z</time>
<desc>lat.=22.136507, lon.=104.320023, Alt.=431.996338m. Speed=0.108000m/h.</desc>
<speed>0.030000</speed>
</trkpt>
<trkpt lat="22.136507" lon="104.320023">
<ele>431.980713</ele>
<time>2011-04-27T07:07:01Z</time>
<desc>lat.=22.136507, lon.=104.320023, Alt.=431.980713m. Speed=0.144000m/h.</desc>
<speed>0.040000</speed>
</trkpt>
<trkpt lat="22.136505" lon="104.320023">
<ele>431.996338</ele>
<time>2011-04-27T07:07:06Z</time>
<desc>lat.=22.136505, lon.=104.320023, Alt.=431.996338m. Speed=0.288000m/h.</desc>
<speed>0.080000</speed>
</trkpt>
<trkpt lat="22.136503" lon="104.320023">
<ele>431.980713</ele>
<time>2011-04-27T07:07:11Z</time>
<desc>lat.=22.136503, lon.=104.320023, Alt.=431.980713m. Speed=0.216000m/h.</desc>
<speed>0.060000</speed>
</trkpt>
<trkpt lat="22.136499" lon="104.320030">
<ele>431.949463</ele>
<time>2011-04-27T07:07:16Z</time>
<desc>lat.=22.136499, lon.=104.320030, Alt.=431.949463m. Speed=0.216000m/h.</desc>
<speed>0.060000</speed>
</trkpt>
<trkpt lat="22.136497" lon="104.320030">
<ele>431.918213</ele>
<time>2011-04-27T07:07:21Z</time>
<desc>lat.=22.136497, lon.=104.320030, Alt.=431.918213m. Speed=0.396000m/h.</desc>
<speed>0.110000</speed>
</trkpt>
<trkpt lat="22.136496" lon="104.320030">
<ele>431.824463</ele>
<time>2011-04-27T07:07:26Z</time>
<desc>lat.=22.136496, lon.=104.320030, Alt.=431.824463m. Speed=0.144000m/h.</desc>
<speed>0.040000</speed>
</trkpt>
<trkpt lat="22.136497" lon="104.320030">
<ele>431.793213</ele>
<time>2011-04-27T07:07:31Z</time>
<desc>lat.=22.136497, lon.=104.320030, Alt.=431.793213m. Speed=0.144000m/h.</desc>
<speed>0.040000</speed>
</trkpt>
<trkpt lat="22.136496" lon="104.320030">
<ele>431.769775</ele>
<time>2011-04-27T07:07:36Z</time>
<desc>lat.=22.136496, lon.=104.320030, Alt.=431.769775m. Speed=0.180000m/h.</desc>
<speed>0.050000</speed>
</trkpt>
<trkpt lat="22.136496" lon="104.320038">
<ele>431.738525</ele>
<time>2011-04-27T07:07:41Z</time>
<desc>lat.=22.136496, lon.=104.320038, Alt.=431.738525m. Speed=0.324000m/h.</desc>
<speed>0.090000</speed>
</trkpt>
<trkpt lat="22.136496" lon="104.320038">
<ele>431.691650</ele>
<time>2011-04-27T07:07:46Z</time>
<desc>lat.=22.136496, lon.=104.320038, Alt.=431.691650m. Speed=0.036000m/h.</desc>
<speed>0.010000</speed>
</trkpt>
<trkpt lat="22.136496" lon="104.320038">
<ele>431.660400</ele>
<time>2011-04-27T07:07:51Z</time>
<desc>lat.=22.136496, lon.=104.320038, Alt.=431.660400m. Speed=0.000000m/h.</desc>
<speed>0.000000</speed>
</trkpt>
<trkpt lat="22.136496" lon="104.320038">
<ele>431.652588</ele>
<time>2011-04-27T07:07:56Z</time>
<desc>lat.=22.136496, lon.=104.320038, Alt.=431.652588m. Speed=0.360000m/h.</desc>
<speed>0.100000</speed>
</trkpt>
<trkpt lat="22.136496" lon="104.320038">
<ele>431.621338</ele>
<time>2011-04-27T07:08:01Z</time>
<desc>lat.=22.136496, lon.=104.320038, Alt.=431.621338m. Speed=0.072000m/h.</desc>
<speed>0.020000</speed>
</trkpt>
<trkpt lat="22.136496" lon="104.320038">
<ele>431.597900</ele>
<time>2011-04-27T07:08:06Z</time>
<desc>lat.=22.136496, lon.=104.320038, Alt.=431.597900m. Speed=0.144000m/h.</desc>
<speed>0.040000</speed>
</trkpt>
<trkpt lat="22.136496" lon="104.320038">
<ele>431.574463</ele>
<time>2011-04-27T07:08:11Z</time>
<desc>lat.=22.136496, lon.=104.320038, Alt.=431.574463m. Speed=0.468000m/h.</desc>
<speed>0.130000</speed>
</trkpt>
<trkpt lat="22.136494" lon="104.320030">
<ele>431.605713</ele>
<time>2011-04-27T07:08:16Z</time>
<desc>lat.=22.136494, lon.=104.320030, Alt.=431.605713m. Speed=0.108000m/h.</desc>
<speed>0.030000</speed>
</trkpt>
<trkpt lat="22.136494" lon="104.320030">
<ele>431.597900</ele>
<time>2011-04-27T07:08:21Z</time>
<desc>lat.=22.136494, lon.=104.320030, Alt.=431.597900m. Speed=0.144000m/h.</desc>
<speed>0.040000</speed>
</trkpt>
<trkpt lat="22.136494" lon="104.320030">
<ele>431.613525</ele>
<time>2011-04-27T07:08:26Z</time>
<desc>lat.=22.136494, lon.=104.320030, Alt.=431.613525m. Speed=0.072000m/h.</desc>
<speed>0.020000</speed>
</trkpt>
<trkpt lat="22.136490" lon="104.320030">
<ele>431.597900</ele>
<time>2011-04-27T07:08:31Z</time>
<desc>lat.=22.136490, lon.=104.320030, Alt.=431.597900m. Speed=0.540000m/h.</desc>
<speed>0.150000</speed>
</trkpt>
<trkpt lat="22.136486" lon="104.320030">
<ele>431.566650</ele>
<time>2011-04-27T07:08:36Z</time>
<desc>lat.=22.136486, lon.=104.320030, Alt.=431.566650m. Speed=0.072000m/h.</desc>
<speed>0.020000</speed>
</trkpt>
<trkpt lat="22.136484" lon="104.320030">
<ele>431.551025</ele>
<time>2011-04-27T07:08:41Z</time>
<desc>lat.=22.136484, lon.=104.320030, Alt.=431.551025m. Speed=0.396000m/h.</desc>
<speed>0.110000</speed>
</trkpt>
<trkpt lat="22.136480" lon="104.320030">
<ele>431.496338</ele>
<time>2011-04-27T07:08:46Z</time>
<desc>lat.=22.136480, lon.=104.320030, Alt.=431.496338m. Speed=0.216000m/h.</desc>
<speed>0.060000</speed>
</trkpt>
<trkpt lat="22.136482" lon="104.320030">
<ele>431.449463</ele>
<time>2011-04-27T07:08:51Z</time>
<desc>lat.=22.136482, lon.=104.320030, Alt.=431.449463m. Speed=0.144000m/h.</desc>
<speed>0.040000</speed>
</trkpt>
<trkpt lat="22.136484" lon="104.320030">
<ele>431.433838</ele>
<time>2011-04-27T07:08:56Z</time>
<desc>lat.=22.136484, lon.=104.320030, Alt.=431.433838m. Speed=0.108000m/h.</desc>
<speed>0.030000</speed>
</trkpt>
<trkpt lat="22.136484" lon="104.320030">
<ele>431.410400</ele>
<time>2011-04-27T07:09:01Z</time>
<desc>lat.=22.136484, lon.=104.320030, Alt.=431.410400m. Speed=0.396000m/h.</desc>
<speed>0.110000</speed>
</trkpt>
<trkpt lat="22.136480" lon="104.320030">
<ele>431.371338</ele>
<time>2011-04-27T07:09:06Z</time>
<desc>lat.=22.136480, lon.=104.320030, Alt.=431.371338m. Speed=0.288000m/h.</desc>
<speed>0.080000</speed>
</trkpt>
<trkpt lat="22.136478" lon="104.320023">
<ele>431.340088</ele>
<time>2011-04-27T07:09:11Z</time>
<desc>lat.=22.136478, lon.=104.320023, Alt.=431.340088m. Speed=0.684000m/h.</desc>
<speed>0.190000</speed>
</trkpt>
<trkpt lat="22.136480" lon="104.320023">
<ele>431.340088</ele>
<time>2011-04-27T07:09:16Z</time>
<desc>lat.=22.136480, lon.=104.320023, Alt.=431.340088m. Speed=0.324000m/h.</desc>
<speed>0.090000</speed>
</trkpt>
<trkpt lat="22.136480" lon="104.320030">
<ele>431.340088</ele>
<time>2011-04-27T07:09:21Z</time>
<desc>lat.=22.136480, lon.=104.320030, Alt.=431.340088m. Speed=0.252000m/h.</desc>
<speed>0.070000</speed>
</trkpt>
<trkpt lat="22.136480" lon="104.320030">
<ele>431.340088</ele>
<time>2011-04-27T07:09:26Z</time>
<desc>lat.=22.136480, lon.=104.320030, Alt.=431.340088m. Speed=0.108000m/h.</desc>
<speed>0.030000</speed>
</trkpt>
<trkpt lat="22.136478" lon="104.320030">
<ele>431.308838</ele>
<time>2011-04-27T07:09:31Z</time>
<desc>lat.=22.136478, lon.=104.320030, Alt.=431.308838m. Speed=0.144000m/h.</desc>
<speed>0.040000</speed>
</trkpt>
<trkpt lat="22.136478" lon="104.320023">
<ele>431.308838</ele>
<time>2011-04-27T07:09:36Z</time>
<desc>lat.=22.136478, lon.=104.320023, Alt.=431.308838m. Speed=0.180000m/h.</desc>
<speed>0.050000</speed>
</trkpt>
<trkpt lat="22.136478" lon="104.320023">
<ele>431.293213</ele>
<time>2011-04-27T07:09:41Z</time>
<desc>lat.=22.136478, lon.=104.320023, Alt.=431.293213m. Speed=0.396000m/h.</desc>
<speed>0.110000</speed>
</trkpt>
<trkpt lat="22.136482" lon="104.320023">
<ele>431.269775</ele>
<time>2011-04-27T07:09:46Z</time>
<desc>lat.=22.136482, lon.=104.320023, Alt.=431.269775m. Speed=0.000000m/h.</desc>
<speed>0.000000</speed>
</trkpt>
<trkpt lat="22.136478" lon="104.320023">
<ele>431.238525</ele>
<time>2011-04-27T07:09:51Z</time>
<desc>lat.=22.136478, lon.=104.320023, Alt.=431.238525m. Speed=0.216000m/h.</desc>
<speed>0.060000</speed>
</trkpt>
<trkpt lat="22.136475" lon="104.320023">
<ele>431.215088</ele>
<time>2011-04-27T07:09:56Z</time>
<desc>lat.=22.136475, lon.=104.320023, Alt.=431.215088m. Speed=0.360000m/h.</desc>
<speed>0.100000</speed>
</trkpt>
<trkpt lat="22.136473" lon="104.320015">
<ele>431.176025</ele>
<time>2011-04-27T07:10:01Z</time>
<desc>lat.=22.136473, lon.=104.320015, Alt.=431.176025m. Speed=0.324000m/h.</desc>
<speed>0.090000</speed>
</trkpt>
<trkpt lat="22.136473" lon="104.320015">
<ele>431.152588</ele>
<time>2011-04-27T07:10:06Z</time>
<desc>lat.=22.136473, lon.=104.320015, Alt.=431.152588m. Speed=0.360000m/h.</desc>
<speed>0.100000</speed>
</trkpt>
<trkpt lat="22.136478" lon="104.320007">
<ele>431.160400</ele>
<time>2011-04-27T07:10:11Z</time>
<desc>lat.=22.136478, lon.=104.320007, Alt.=431.160400m. Speed=0.216000m/h.</desc>
<speed>0.060000</speed>
</trkpt>
<trkpt lat="22.136480" lon="104.320007">
<ele>431.191650</ele>
<time>2011-04-27T07:10:16Z</time>
<desc>lat.=22.136480, lon.=104.320007, Alt.=431.191650m. Speed=0.144000m/h.</desc>
<speed>0.040000</speed>
</trkpt>
<trkpt lat="22.136482" lon="104.320007">
<ele>431.191650</ele>
<time>2011-04-27T07:10:21Z</time>
<desc>lat.=22.136482, lon.=104.320007, Alt.=431.191650m. Speed=0.180000m/h.</desc>
<speed>0.050000</speed>
</trkpt>
<trkpt lat="22.136482" lon="104.320000">
<ele>431.207275</ele>
<time>2011-04-27T07:10:26Z</time>
<desc>lat.=22.136482, lon.=104.320000, Alt.=431.207275m. Speed=0.144000m/h.</desc>
<speed>0.040000</speed>
</trkpt>
<trkpt lat="22.136484" lon="104.320007">
<ele>431.168213</ele>
<time>2011-04-27T07:10:31Z</time>
<desc>lat.=22.136484, lon.=104.320007, Alt.=431.168213m. Speed=0.396000m/h.</desc>
<speed>0.110000</speed>
</trkpt>
<trkpt lat="22.136484" lon="104.320007">
<ele>431.113525</ele>
<time>2011-04-27T07:10:36Z</time>
<desc>lat.=22.136484, lon.=104.320007, Alt.=431.113525m. Speed=0.216000m/h.</desc>
<speed>0.060000</speed>
</trkpt>
<trkpt lat="22.136486" lon="104.320015">
<ele>431.097900</ele>
<time>2011-04-27T07:10:41Z</time>
<desc>lat.=22.136486, lon.=104.320015, Alt.=431.097900m. Speed=0.324000m/h.</desc>
<speed>0.090000</speed>
</trkpt>
<trkpt lat="22.136492" lon="104.320015">
<ele>431.105713</ele>
<time>2011-04-27T07:10:46Z</time>
<desc>lat.=22.136492, lon.=104.320015, Alt.=431.105713m. Speed=0.144000m/h.</desc>
<speed>0.040000</speed>
</trkpt>
<trkpt lat="22.136492" lon="104.320015">
<ele>431.129150</ele>
<time>2011-04-27T07:10:51Z</time>
<desc>lat.=22.136492, lon.=104.320015, Alt.=431.129150m. Speed=0.252000m/h.</desc>
<speed>0.070000</speed>
</trkpt>
<trkpt lat="22.136494" lon="104.320015">
<ele>431.129150</ele>
<time>2011-04-27T07:10:56Z</time>
<desc>lat.=22.136494, lon.=104.320015, Alt.=431.129150m. Speed=0.108000m/h.</desc>
<speed>0.030000</speed>
</trkpt>
<trkpt lat="22.136496" lon="104.320023">
<ele>431.113525</ele>
<time>2011-04-27T07:11:01Z</time>
<desc>lat.=22.136496, lon.=104.320023, Alt.=431.113525m. Speed=0.360000m/h.</desc>
<speed>0.100000</speed>
</trkpt>
<trkpt lat="22.136496" lon="104.320023">
<ele>431.090088</ele>
<time>2011-04-27T07:11:06Z</time>
<desc>lat.=22.136496, lon.=104.320023, Alt.=431.090088m. Speed=0.288000m/h.</desc>
<speed>0.080000</speed>
</trkpt>
<trkpt lat="22.136496" lon="104.320023">
<ele>431.066650</ele>
<time>2011-04-27T07:11:11Z</time>
<desc>lat.=22.136496, lon.=104.320023, Alt.=431.066650m. Speed=0.036000m/h.</desc>
<speed>0.010000</speed>
</trkpt>
<trkpt lat="22.136494" lon="104.320030">
<ele>431.004150</ele>
<time>2011-04-27T07:11:16Z</time>
<desc>lat.=22.136494, lon.=104.320030, Alt.=431.004150m. Speed=0.468000m/h.</desc>
<speed>0.130000</speed>
</trkpt>
<trkpt lat="22.136494" lon="104.320038">
<ele>430.980713</ele>
<time>2011-04-27T07:11:21Z</time>
<desc>lat.=22.136494, lon.=104.320038, Alt.=430.980713m. Speed=0.180000m/h.</desc>
<speed>0.050000</speed>
</trkpt>
<trkpt lat="22.136492" lon="104.320038">
<ele>430.988525</ele>
<time>2011-04-27T07:11:26Z</time>
<desc>lat.=22.136492, lon.=104.320038, Alt.=430.988525m. Speed=0.360000m/h.</desc>
<speed>0.100000</speed>
</trkpt>
<trkpt lat="22.136492" lon="104.320045">
<ele>430.988525</ele>
<time>2011-04-27T07:11:31Z</time>
<desc>lat.=22.136492, lon.=104.320045, Alt.=430.988525m. Speed=0.360000m/h.</desc>
<speed>0.100000</speed>
</trkpt>
<trkpt lat="22.136494" lon="104.320045">
<ele>430.965088</ele>
<time>2011-04-27T07:11:36Z</time>
<desc>lat.=22.136494, lon.=104.320045, Alt.=430.965088m. Speed=0.216000m/h.</desc>
<speed>0.060000</speed>
</trkpt>
<trkpt lat="22.136496" lon="104.320045">
<ele>430.933838</ele>
<time>2011-04-27T07:11:41Z</time>
<desc>lat.=22.136496, lon.=104.320045, Alt.=430.933838m. Speed=0.180000m/h.</desc>
<speed>0.050000</speed>
</trkpt>
<trkpt lat="22.136494" lon="104.320045">
<ele>430.918213</ele>
<time>2011-04-27T07:11:46Z</time>
<desc>lat.=22.136494, lon.=104.320045, Alt.=430.918213m. Speed=0.468000m/h.</desc>
<speed>0.130000</speed>
</trkpt>
<trkpt lat="22.136492" lon="104.320053">
<ele>430.894775</ele>
<time>2011-04-27T07:11:51Z</time>
<desc>lat.=22.136492, lon.=104.320053, Alt.=430.894775m. Speed=1.080000m/h.</desc>
<speed>0.300000</speed>
</trkpt>
<trkpt lat="22.136490" lon="104.320038">
<ele>430.676025</ele>
<time>2011-04-27T07:11:56Z</time>
<desc>lat.=22.136490, lon.=104.320038, Alt.=430.676025m. Speed=0.648000m/h.</desc>
<speed>0.180000</speed>
</trkpt>
<trkpt lat="22.136494" lon="104.320045">
<ele>430.683838</ele>
<time>2011-04-27T07:12:01Z</time>
<desc>lat.=22.136494, lon.=104.320045, Alt.=430.683838m. Speed=0.324000m/h.</desc>
<speed>0.090000</speed>
</trkpt>
<trkpt lat="22.136496" lon="104.320038">
<ele>430.691650</ele>
<time>2011-04-27T07:12:06Z</time>
<desc>lat.=22.136496, lon.=104.320038, Alt.=430.691650m. Speed=0.144000m/h.</desc>
<speed>0.040000</speed>
</trkpt>
<trkpt lat="22.136496" lon="104.320038">
<ele>430.699463</ele>
<time>2011-04-27T07:12:11Z</time>
<desc>lat.=22.136496, lon.=104.320038, Alt.=430.699463m. Speed=0.036000m/h.</desc>
<speed>0.010000</speed>
</trkpt>
<trkpt lat="22.136492" lon="104.320045">
<ele>430.683838</ele>
<time>2011-04-27T07:12:16Z</time>
<desc>lat.=22.136492, lon.=104.320045, Alt.=430.683838m. Speed=0.288000m/h.</desc>
<speed>0.080000</speed>
</trkpt>
<trkpt lat="22.136490" lon="104.320038">
<ele>430.660400</ele>
<time>2011-04-27T07:12:21Z</time>
<desc>lat.=22.136490, lon.=104.320038, Alt.=430.660400m. Speed=0.108000m/h.</desc>
<speed>0.030000</speed>
</trkpt>
<trkpt lat="22.136488" lon="104.320045">
<ele>430.644775</ele>
<time>2011-04-27T07:12:26Z</time>
<desc>lat.=22.136488, lon.=104.320045, Alt.=430.644775m. Speed=0.648000m/h.</desc>
<speed>0.180000</speed>
</trkpt>
<trkpt lat="22.136486" lon="104.320045">
<ele>430.621338</ele>
<time>2011-04-27T07:12:31Z</time>
<desc>lat.=22.136486, lon.=104.320045, Alt.=430.621338m. Speed=0.108000m/h.</desc>
<speed>0.030000</speed>
</trkpt>
<trkpt lat="22.136484" lon="104.320045">
<ele>430.605713</ele>
<time>2011-04-27T07:12:36Z</time>
<desc>lat.=22.136484, lon.=104.320045, Alt.=430.605713m. Speed=0.144000m/h.</desc>
<speed>0.040000</speed>
</trkpt>
<trkpt lat="22.136486" lon="104.320038">
<ele>430.613525</ele>
<time>2011-04-27T07:12:41Z</time>
<desc>lat.=22.136486, lon.=104.320038, Alt.=430.613525m. Speed=0.396000m/h.</desc>
<speed>0.110000</speed>
</trkpt>
<trkpt lat="22.136486" lon="104.320038">
<ele>430.629150</ele>
<time>2011-04-27T07:12:46Z</time>
<desc>lat.=22.136486, lon.=104.320038, Alt.=430.629150m. Speed=0.540000m/h.</desc>
<speed>0.150000</speed>
</trkpt>
<trkpt lat="22.136490" lon="104.320030">
<ele>430.660400</ele>
<time>2011-04-27T07:12:51Z</time>
<desc>lat.=22.136490, lon.=104.320030, Alt.=430.660400m. Speed=0.252000m/h.</desc>
<speed>0.070000</speed>
</trkpt>
<trkpt lat="22.136494" lon="104.320030">
<ele>430.691650</ele>
<time>2011-04-27T07:12:56Z</time>
<desc>lat.=22.136494, lon.=104.320030, Alt.=430.691650m. Speed=0.360000m/h.</desc>
<speed>0.100000</speed>
</trkpt>
<trkpt lat="22.136499" lon="104.320030">
<ele>430.707275</ele>
<time>2011-04-27T07:13:01Z</time>
<desc>lat.=22.136499, lon.=104.320030, Alt.=430.707275m. Speed=0.576000m/h.</desc>
<speed>0.160000</speed>
</trkpt>
<trkpt lat="22.136507" lon="104.320030">
<ele>430.754150</ele>
<time>2011-04-27T07:13:06Z</time>
<desc>lat.=22.136507, lon.=104.320030, Alt.=430.754150m. Speed=0.684000m/h.</desc>
<speed>0.190000</speed>
</trkpt>
<trkpt lat="22.136515" lon="104.320030">
<ele>430.801025</ele>
<time>2011-04-27T07:13:11Z</time>
<desc>lat.=22.136515, lon.=104.320030, Alt.=430.801025m. Speed=0.432000m/h.</desc>
<speed>0.120000</speed>
</trkpt>
<trkpt lat="22.136517" lon="104.320023">
<ele>430.816650</ele>
<time>2011-04-27T07:13:16Z</time>
<desc>lat.=22.136517, lon.=104.320023, Alt.=430.816650m. Speed=0.072000m/h.</desc>
<speed>0.020000</speed>
</trkpt>
<trkpt lat="22.136517" lon="104.320023">
<ele>430.824463</ele>
<time>2011-04-27T07:13:21Z</time>
<desc>lat.=22.136517, lon.=104.320023, Alt.=430.824463m. Speed=0.324000m/h.</desc>
<speed>0.090000</speed>
</trkpt>
<trkpt lat="22.136517" lon="104.320023">
<ele>430.824463</ele>
<time>2011-04-27T07:13:26Z</time>
<desc>lat.=22.136517, lon.=104.320023, Alt.=430.824463m. Speed=0.504000m/h.</desc>
<speed>0.140000</speed>
</trkpt>
<trkpt lat="22.136517" lon="104.320015">
<ele>430.824463</ele>
<time>2011-04-27T07:13:31Z</time>
<desc>lat.=22.136517, lon.=104.320015, Alt.=430.824463m. Speed=0.396000m/h.</desc>
<speed>0.110000</speed>
</trkpt>
<trkpt lat="22.136517" lon="104.320015">
<ele>430.847900</ele>
<time>2011-04-27T07:13:36Z</time>
<desc>lat.=22.136517, lon.=104.320015, Alt.=430.847900m. Speed=0.252000m/h.</desc>
<speed>0.070000</speed>
</trkpt>
<trkpt lat="22.136517" lon="104.320007">
<ele>430.847900</ele>
<time>2011-04-27T07:13:41Z</time>
<desc>lat.=22.136517, lon.=104.320007, Alt.=430.847900m. Speed=0.252000m/h.</desc>
<speed>0.070000</speed>
</trkpt>
<trkpt lat="22.136518" lon="104.320007">
<ele>430.855713</ele>
<time>2011-04-27T07:13:46Z</time>
<desc>lat.=22.136518, lon.=104.320007, Alt.=430.855713m. Speed=0.180000m/h.</desc>
<speed>0.050000</speed>
</trkpt>
<trkpt lat="22.136518" lon="104.320007">
<ele>430.855713</ele>
<time>2011-04-27T07:13:51Z</time>
<desc>lat.=22.136518, lon.=104.320007, Alt.=430.855713m. Speed=0.468000m/h.</desc>
<speed>0.130000</speed>
</trkpt>
<trkpt lat="22.136520" lon="104.320000">
<ele>430.879150</ele>
<time>2011-04-27T07:13:56Z</time>
<desc>lat.=22.136520, lon.=104.320000, Alt.=430.879150m. Speed=0.252000m/h.</desc>
<speed>0.070000</speed>
</trkpt>
<trkpt lat="22.136522" lon="104.320000">
<ele>430.894775</ele>
<time>2011-04-27T07:14:01Z</time>
<desc>lat.=22.136522, lon.=104.320000, Alt.=430.894775m. Speed=0.072000m/h.</desc>
<speed>0.020000</speed>
</trkpt>
<trkpt lat="22.136522" lon="104.320000">
<ele>430.902588</ele>
<time>2011-04-27T07:14:06Z</time>
<desc>lat.=22.136522, lon.=104.320000, Alt.=430.902588m. Speed=0.180000m/h.</desc>
<speed>0.050000</speed>
</trkpt>
<trkpt lat="22.136520" lon="104.320000">
<ele>430.910400</ele>
<time>2011-04-27T07:14:11Z</time>
<desc>lat.=22.136520, lon.=104.320000, Alt.=430.910400m. Speed=0.540000m/h.</desc>
<speed>0.150000</speed>
</trkpt>
<trkpt lat="22.136524" lon="104.319992">
<ele>430.933838</ele>
<time>2011-04-27T07:14:16Z</time>
<desc>lat.=22.136524, lon.=104.319992, Alt.=430.933838m. Speed=0.504000m/h.</desc>
<speed>0.140000</speed>
</trkpt>
<trkpt lat="22.136522" lon="104.320000">
<ele>430.933838</ele>
<time>2011-04-27T07:14:21Z</time>
<desc>lat.=22.136522, lon.=104.320000, Alt.=430.933838m. Speed=0.288000m/h.</desc>
<speed>0.080000</speed>
</trkpt>
<trkpt lat="22.136520" lon="104.320000">
<ele>430.902588</ele>
<time>2011-04-27T07:14:26Z</time>
<desc>lat.=22.136520, lon.=104.320000, Alt.=430.902588m. Speed=0.072000m/h.</desc>
<speed>0.020000</speed>
</trkpt>
<trkpt lat="22.136520" lon="104.320000">
<ele>430.894775</ele>
<time>2011-04-27T07:14:31Z</time>
<desc>lat.=22.136520, lon.=104.320000, Alt.=430.894775m. Speed=0.000000m/h.</desc>
<speed>0.000000</speed>
</trkpt>
<trkpt lat="22.136524" lon="104.320000">
<ele>430.886963</ele>
<time>2011-04-27T07:14:36Z</time>
<desc>lat.=22.136524, lon.=104.320000, Alt.=430.886963m. Speed=0.828000m/h.</desc>
<speed>0.230000</speed>
</trkpt>
<trkpt lat="22.136528" lon="104.320007">
<ele>430.871338</ele>
<time>2011-04-27T07:14:41Z</time>
<desc>lat.=22.136528, lon.=104.320007, Alt.=430.871338m. Speed=0.180000m/h.</desc>
<speed>0.050000</speed>
</trkpt>
<trkpt lat="22.136528" lon="104.320007">
<ele>430.855713</ele>
<time>2011-04-27T07:14:46Z</time>
<desc>lat.=22.136528, lon.=104.320007, Alt.=430.855713m. Speed=0.288000m/h.</desc>
<speed>0.080000</speed>
</trkpt>
<trkpt lat="22.136526" lon="104.320007">
<ele>430.824463</ele>
<time>2011-04-27T07:14:51Z</time>
<desc>lat.=22.136526, lon.=104.320007, Alt.=430.824463m. Speed=0.216000m/h.</desc>
<speed>0.060000</speed>
</trkpt>
<trkpt lat="22.136528" lon="104.320015">
<ele>430.801025</ele>
<time>2011-04-27T07:14:56Z</time>
<desc>lat.=22.136528, lon.=104.320015, Alt.=430.801025m. Speed=0.792000m/h.</desc>
<speed>0.220000</speed>
</trkpt>
<trkpt lat="22.136528" lon="104.320023">
<ele>430.426025</ele>
<time>2011-04-27T07:15:01Z</time>
<desc>lat.=22.136528, lon.=104.320023, Alt.=430.426025m. Speed=0.864000m/h.</desc>
<speed>0.240000</speed>
</trkpt>
<trkpt lat="22.136534" lon="104.320023">
<ele>430.269775</ele>
<time>2011-04-27T07:15:06Z</time>
<desc>lat.=22.136534, lon.=104.320023, Alt.=430.269775m. Speed=0.684000m/h.</desc>
<speed>0.190000</speed>
</trkpt>
<trkpt lat="22.136543" lon="104.320053">
<ele>430.097900</ele>
<time>2011-04-27T07:15:11Z</time>
<desc>lat.=22.136543, lon.=104.320053, Alt.=430.097900m. Speed=2.016000m/h.</desc>
<speed>0.560000</speed>
</trkpt>
<trkpt lat="22.136551" lon="104.320053">
<ele>429.355713</ele>
<time>2011-04-27T07:15:16Z</time>
<desc>lat.=22.136551, lon.=104.320053, Alt.=429.355713m. Speed=0.936000m/h.</desc>
<speed>0.260000</speed>
</trkpt>
<trkpt lat="22.136547" lon="104.320061">
<ele>429.355713</ele>
<time>2011-04-27T07:15:21Z</time>
<desc>lat.=22.136547, lon.=104.320061, Alt.=429.355713m. Speed=0.396000m/h.</desc>
<speed>0.110000</speed>
</trkpt>
<trkpt lat="22.136543" lon="104.320068">
<ele>429.340088</ele>
<time>2011-04-27T07:15:26Z</time>
<desc>lat.=22.136543, lon.=104.320068, Alt.=429.340088m. Speed=0.576000m/h.</desc>
<speed>0.160000</speed>
</trkpt>
<trkpt lat="22.136538" lon="104.320061">
<ele>429.301025</ele>
<time>2011-04-27T07:15:31Z</time>
<desc>lat.=22.136538, lon.=104.320061, Alt.=429.301025m. Speed=0.288000m/h.</desc>
<speed>0.080000</speed>
</trkpt>
<trkpt lat="22.136543" lon="104.320053">
<ele>429.308838</ele>
<time>2011-04-27T07:15:36Z</time>
<desc>lat.=22.136543, lon.=104.320053, Alt.=429.308838m. Speed=0.864000m/h.</desc>
<speed>0.240000</speed>
</trkpt>
<trkpt lat="22.136547" lon="104.320053">
<ele>429.316650</ele>
<time>2011-04-27T07:15:41Z</time>
<desc>lat.=22.136547, lon.=104.320053, Alt.=429.316650m. Speed=0.468000m/h.</desc>
<speed>0.130000</speed>
</trkpt>
<trkpt lat="22.136549" lon="104.320045">
<ele>429.316650</ele>
<time>2011-04-27T07:15:46Z</time>
<desc>lat.=22.136549, lon.=104.320045, Alt.=429.316650m. Speed=0.432000m/h.</desc>
<speed>0.120000</speed>
</trkpt>
<trkpt lat="22.136555" lon="104.320045">
<ele>429.316650</ele>
<time>2011-04-27T07:15:51Z</time>
<desc>lat.=22.136555, lon.=104.320045, Alt.=429.316650m. Speed=0.720000m/h.</desc>
<speed>0.200000</speed>
</trkpt>
<trkpt lat="22.136555" lon="104.320045">
<ele>429.308838</ele>
<time>2011-04-27T07:15:56Z</time>
<desc>lat.=22.136555, lon.=104.320045, Alt.=429.308838m. Speed=0.252000m/h.</desc>
<speed>0.070000</speed>
</trkpt>
<trkpt lat="22.136557" lon="104.320045">
<ele>429.316650</ele>
<time>2011-04-27T07:16:01Z</time>
<desc>lat.=22.136557, lon.=104.320045, Alt.=429.316650m. Speed=0.072000m/h.</desc>
<speed>0.020000</speed>
</trkpt>
<trkpt lat="22.136555" lon="104.320053">
<ele>429.308838</ele>
<time>2011-04-27T07:16:06Z</time>
<desc>lat.=22.136555, lon.=104.320053, Alt.=429.308838m. Speed=0.432000m/h.</desc>
<speed>0.120000</speed>
</trkpt>
<trkpt lat="22.136555" lon="104.320053">
<ele>429.285400</ele>
<time>2011-04-27T07:16:11Z</time>
<desc>lat.=22.136555, lon.=104.320053, Alt.=429.285400m. Speed=0.072000m/h.</desc>
<speed>0.020000</speed>
</trkpt>
<trkpt lat="22.136551" lon="104.320053">
<ele>429.269775</ele>
<time>2011-04-27T07:16:16Z</time>
<desc>lat.=22.136551, lon.=104.320053, Alt.=429.269775m. Speed=0.288000m/h.</desc>
<speed>0.080000</speed>
</trkpt>
<trkpt lat="22.136547" lon="104.320045">
<ele>429.246338</ele>
<time>2011-04-27T07:16:21Z</time>
<desc>lat.=22.136547, lon.=104.320045, Alt.=429.246338m. Speed=0.504000m/h.</desc>
<speed>0.140000</speed>
</trkpt>
<trkpt lat="22.136545" lon="104.320045">
<ele>429.222900</ele>
<time>2011-04-27T07:16:26Z</time>
<desc>lat.=22.136545, lon.=104.320045, Alt.=429.222900m. Speed=0.180000m/h.</desc>
<speed>0.050000</speed>
</trkpt>
<trkpt lat="22.136547" lon="104.320045">
<ele>429.207275</ele>
<time>2011-04-27T07:16:31Z</time>
<desc>lat.=22.136547, lon.=104.320045, Alt.=429.207275m. Speed=0.144000m/h.</desc>
<speed>0.040000</speed>
</trkpt>
<trkpt lat="22.136549" lon="104.320038">
<ele>429.191650</ele>
<time>2011-04-27T07:16:36Z</time>
<desc>lat.=22.136549, lon.=104.320038, Alt.=429.191650m. Speed=0.252000m/h.</desc>
<speed>0.070000</speed>
</trkpt>
<trkpt lat="22.136547" lon="104.320030">
<ele>429.176025</ele>
<time>2011-04-27T07:16:41Z</time>
<desc>lat.=22.136547, lon.=104.320030, Alt.=429.176025m. Speed=0.864000m/h.</desc>
<speed>0.240000</speed>
</trkpt>
<trkpt lat="22.136551" lon="104.320023">
<ele>429.176025</ele>
<time>2011-04-27T07:16:46Z</time>
<desc>lat.=22.136551, lon.=104.320023, Alt.=429.176025m. Speed=0.864000m/h.</desc>
<speed>0.240000</speed>
</trkpt>
<trkpt lat="22.136557" lon="104.320015">
<ele>429.176025</ele>
<time>2011-04-27T07:16:51Z</time>
<desc>lat.=22.136557, lon.=104.320015, Alt.=429.176025m. Speed=0.288000m/h.</desc>
<speed>0.080000</speed>
</trkpt>
<trkpt lat="22.136559" lon="104.320015">
<ele>429.176025</ele>
<time>2011-04-27T07:16:56Z</time>
<desc>lat.=22.136559, lon.=104.320015, Alt.=429.176025m. Speed=0.108000m/h.</desc>
<speed>0.030000</speed>
</trkpt>
<trkpt lat="22.136559" lon="104.320007">
<ele>429.168213</ele>
<time>2011-04-27T07:17:01Z</time>
<desc>lat.=22.136559, lon.=104.320007, Alt.=429.168213m. Speed=1.008000m/h.</desc>
<speed>0.280000</speed>
</trkpt>
<trkpt lat="22.136559" lon="104.320000">
<ele>429.152588</ele>
<time>2011-04-27T07:17:06Z</time>
<desc>lat.=22.136559, lon.=104.320000, Alt.=429.152588m. Speed=0.324000m/h.</desc>
<speed>0.090000</speed>
</trkpt>
<trkpt lat="22.136564" lon="104.320000">
<ele>429.160400</ele>
<time>2011-04-27T07:17:11Z</time>
<desc>lat.=22.136564, lon.=104.320000, Alt.=429.160400m. Speed=0.396000m/h.</desc>
<speed>0.110000</speed>
</trkpt>
<trkpt lat="22.136564" lon="104.320007">
<ele>429.152588</ele>
<time>2011-04-27T07:17:16Z</time>
<desc>lat.=22.136564, lon.=104.320007, Alt.=429.152588m. Speed=0.180000m/h.</desc>
<speed>0.050000</speed>
</trkpt>
<trkpt lat="22.136564" lon="104.320007">
<ele>429.144775</ele>
<time>2011-04-27T07:17:21Z</time>
<desc>lat.=22.136564, lon.=104.320007, Alt.=429.144775m. Speed=0.252000m/h.</desc>
<speed>0.070000</speed>
</trkpt>
<trkpt lat="22.136564" lon="104.320007">
<ele>429.121338</ele>
<time>2011-04-27T07:17:26Z</time>
<desc>lat.=22.136564, lon.=104.320007, Alt.=429.121338m. Speed=0.216000m/h.</desc>
<speed>0.060000</speed>
</trkpt>
<trkpt lat="22.136560" lon="104.320007">
<ele>429.105713</ele>
<time>2011-04-27T07:17:31Z</time>
<desc>lat.=22.136560, lon.=104.320007, Alt.=429.105713m. Speed=0.288000m/h.</desc>
<speed>0.080000</speed>
</trkpt>
<trkpt lat="22.136559" lon="104.320007">
<ele>429.082275</ele>
<time>2011-04-27T07:17:36Z</time>
<desc>lat.=22.136559, lon.=104.320007, Alt.=429.082275m. Speed=0.108000m/h.</desc>
<speed>0.030000</speed>
</trkpt>
<trkpt lat="22.136557" lon="104.320007">
<ele>429.058838</ele>
<time>2011-04-27T07:17:41Z</time>
<desc>lat.=22.136557, lon.=104.320007, Alt.=429.058838m. Speed=0.180000m/h.</desc>
<speed>0.050000</speed>
</trkpt>
<trkpt lat="22.136557" lon="104.320007">
<ele>429.027588</ele>
<time>2011-04-27T07:17:46Z</time>
<desc>lat.=22.136557, lon.=104.320007, Alt.=429.027588m. Speed=0.324000m/h.</desc>
<speed>0.090000</speed>
</trkpt>
<trkpt lat="22.136559" lon="104.320007">
<ele>428.996338</ele>
<time>2011-04-27T07:17:51Z</time>
<desc>lat.=22.136559, lon.=104.320007, Alt.=428.996338m. Speed=0.108000m/h.</desc>
<speed>0.030000</speed>
</trkpt>
<trkpt lat="22.136555" lon="104.320007">
<ele>428.965088</ele>
<time>2011-04-27T07:17:56Z</time>
<desc>lat.=22.136555, lon.=104.320007, Alt.=428.965088m. Speed=0.720000m/h.</desc>
<speed>0.200000</speed>
</trkpt>
<trkpt lat="22.136547" lon="104.320007">
<ele>428.902588</ele>
<time>2011-04-27T07:18:01Z</time>
<desc>lat.=22.136547, lon.=104.320007, Alt.=428.902588m. Speed=0.252000m/h.</desc>
<speed>0.070000</speed>
</trkpt>
<trkpt lat="22.136549" lon="104.320000">
<ele>428.871338</ele>
<time>2011-04-27T07:18:06Z</time>
<desc>lat.=22.136549, lon.=104.320000, Alt.=428.871338m. Speed=0.792000m/h.</desc>
<speed>0.220000</speed>
</trkpt>
<trkpt lat="22.136551" lon="104.320000">
<ele>428.785400</ele>
<time>2011-04-27T07:18:11Z</time>
<desc>lat.=22.136551, lon.=104.320000, Alt.=428.785400m. Speed=0.936000m/h.</desc>
<speed>0.260000</speed>
</trkpt>
<trkpt lat="22.136551" lon="104.320007">
<ele>428.715088</ele>
<time>2011-04-27T07:18:16Z</time>
<desc>lat.=22.136551, lon.=104.320007, Alt.=428.715088m. Speed=0.720000m/h.</desc>
<speed>0.200000</speed>
</trkpt>
<trkpt lat="22.136553" lon="104.320023">
<ele>428.543213</ele>
<time>2011-04-27T07:18:21Z</time>
<desc>lat.=22.136553, lon.=104.320023, Alt.=428.543213m. Speed=0.684000m/h.</desc>
<speed>0.190000</speed>
</trkpt>
<trkpt lat="22.136557" lon="104.320015">
<ele>428.582275</ele>
<time>2011-04-27T07:18:26Z</time>
<desc>lat.=22.136557, lon.=104.320015, Alt.=428.582275m. Speed=0.216000m/h.</desc>
<speed>0.060000</speed>
</trkpt>
<trkpt lat="22.136559" lon="104.320015">
<ele>428.574463</ele>
<time>2011-04-27T07:18:31Z</time>
<desc>lat.=22.136559, lon.=104.320015, Alt.=428.574463m. Speed=0.252000m/h.</desc>
<speed>0.070000</speed>
</trkpt>
<trkpt lat="22.136560" lon="104.320015">
<ele>428.566650</ele>
<time>2011-04-27T07:18:36Z</time>
<desc>lat.=22.136560, lon.=104.320015, Alt.=428.566650m. Speed=0.396000m/h.</desc>
<speed>0.110000</speed>
</trkpt>
<trkpt lat="22.136564" lon="104.320015">
<ele>428.558838</ele>
<time>2011-04-27T07:18:41Z</time>
<desc>lat.=22.136564, lon.=104.320015, Alt.=428.558838m. Speed=0.720000m/h.</desc>
<speed>0.200000</speed>
</trkpt>
<trkpt lat="22.136568" lon="104.320007">
<ele>428.551025</ele>
<time>2011-04-27T07:18:46Z</time>
<desc>lat.=22.136568, lon.=104.320007, Alt.=428.551025m. Speed=0.468000m/h.</desc>
<speed>0.130000</speed>
</trkpt>
<trkpt lat="22.136572" lon="104.320007">
<ele>428.543213</ele>
<time>2011-04-27T07:18:51Z</time>
<desc>lat.=22.136572, lon.=104.320007, Alt.=428.543213m. Speed=0.504000m/h.</desc>
<speed>0.140000</speed>
</trkpt>
<trkpt lat="22.136570" lon="104.320000">
<ele>428.488525</ele>
<time>2011-04-27T07:18:56Z</time>
<desc>lat.=22.136570, lon.=104.320000, Alt.=428.488525m. Speed=0.324000m/h.</desc>
<speed>0.090000</speed>
</trkpt>
<trkpt lat="22.136568" lon="104.320000">
<ele>428.418213</ele>
<time>2011-04-27T07:19:01Z</time>
<desc>lat.=22.136568, lon.=104.320000, Alt.=428.418213m. Speed=0.396000m/h.</desc>
<speed>0.110000</speed>
</trkpt>
<trkpt lat="22.136562" lon="104.319992">
<ele>428.347900</ele>
<time>2011-04-27T07:19:06Z</time>
<desc>lat.=22.136562, lon.=104.319992, Alt.=428.347900m. Speed=0.396000m/h.</desc>
<speed>0.110000</speed>
</trkpt>
<trkpt lat="22.136559" lon="104.319992">
<ele>428.277588</ele>
<time>2011-04-27T07:19:11Z</time>
<desc>lat.=22.136559, lon.=104.319992, Alt.=428.277588m. Speed=0.324000m/h.</desc>
<speed>0.090000</speed>
</trkpt>
<trkpt lat="22.136557" lon="104.319992">
<ele>428.222900</ele>
<time>2011-04-27T07:19:16Z</time>
<desc>lat.=22.136557, lon.=104.319992, Alt.=428.222900m. Speed=0.432000m/h.</desc>
<speed>0.120000</speed>
</trkpt>
<trkpt lat="22.136555" lon="104.319984">
<ele>428.176025</ele>
<time>2011-04-27T07:19:21Z</time>
<desc>lat.=22.136555, lon.=104.319984, Alt.=428.176025m. Speed=0.288000m/h.</desc>
<speed>0.080000</speed>
</trkpt>
<trkpt lat="22.136553" lon="104.319984">
<ele>428.129150</ele>
<time>2011-04-27T07:19:26Z</time>
<desc>lat.=22.136553, lon.=104.319984, Alt.=428.129150m. Speed=0.432000m/h.</desc>
<speed>0.120000</speed>
</trkpt>
<trkpt lat="22.136553" lon="104.319977">
<ele>428.074463</ele>
<time>2011-04-27T07:19:31Z</time>
<desc>lat.=22.136553, lon.=104.319977, Alt.=428.074463m. Speed=0.072000m/h.</desc>
<speed>0.020000</speed>
</trkpt>
<trkpt lat="22.136553" lon="104.319984">
<ele>428.011963</ele>
<time>2011-04-27T07:19:36Z</time>
<desc>lat.=22.136553, lon.=104.319984, Alt.=428.011963m. Speed=0.504000m/h.</desc>
<speed>0.140000</speed>
</trkpt>
<trkpt lat="22.136553" lon="104.319984">
<ele>427.957275</ele>
<time>2011-04-27T07:19:41Z</time>
<desc>lat.=22.136553, lon.=104.319984, Alt.=427.957275m. Speed=0.180000m/h.</desc>
<speed>0.050000</speed>
</trkpt>
<trkpt lat="22.136555" lon="104.319984">
<ele>427.902588</ele>
<time>2011-04-27T07:19:46Z</time>
<desc>lat.=22.136555, lon.=104.319984, Alt.=427.902588m. Speed=0.468000m/h.</desc>
<speed>0.130000</speed>
</trkpt>
<trkpt lat="22.136553" lon="104.319984">
<ele>427.840088</ele>
<time>2011-04-27T07:19:51Z</time>
<desc>lat.=22.136553, lon.=104.319984, Alt.=427.840088m. Speed=0.144000m/h.</desc>
<speed>0.040000</speed>
</trkpt>
<trkpt lat="22.136553" lon="104.319984">
<ele>427.722900</ele>
<time>2011-04-27T07:19:56Z</time>
<desc>lat.=22.136553, lon.=104.319984, Alt.=427.722900m. Speed=0.000000m/h.</desc>
<speed>0.000000</speed>
</trkpt>
<trkpt lat="22.136553" lon="104.319984">
<ele>427.636963</ele>
<time>2011-04-27T07:20:01Z</time>
<desc>lat.=22.136553, lon.=104.319984, Alt.=427.636963m. Speed=0.036000m/h.</desc>
<speed>0.010000</speed>
</trkpt>
<trkpt lat="22.136553" lon="104.319984">
<ele>427.574463</ele>
<time>2011-04-27T07:20:06Z</time>
<desc>lat.=22.136553, lon.=104.319984, Alt.=427.574463m. Speed=0.072000m/h.</desc>
<speed>0.020000</speed>
</trkpt>
<trkpt lat="22.136553" lon="104.319984">
<ele>427.582275</ele>
<time>2011-04-27T07:20:11Z</time>
<desc>lat.=22.136553, lon.=104.319984, Alt.=427.582275m. Speed=0.648000m/h.</desc>
<speed>0.180000</speed>
</trkpt>
<trkpt lat="22.136557" lon="104.319977">
<ele>427.566650</ele>
<time>2011-04-27T07:20:16Z</time>
<desc>lat.=22.136557, lon.=104.319977, Alt.=427.566650m. Speed=0.252000m/h.</desc>
<speed>0.070000</speed>
</trkpt>
<trkpt lat="22.136560" lon="104.319977">
<ele>426.840088</ele>
<time>2011-04-27T07:20:21Z</time>
<desc>lat.=22.136560, lon.=104.319977, Alt.=426.840088m. Speed=0.612000m/h.</desc>
<speed>0.170000</speed>
</trkpt>
<trkpt lat="22.136560" lon="104.319977">
<ele>426.871338</ele>
<time>2011-04-27T07:20:26Z</time>
<desc>lat.=22.136560, lon.=104.319977, Alt.=426.871338m. Speed=0.360000m/h.</desc>
<speed>0.100000</speed>
</trkpt>
<trkpt lat="22.136560" lon="104.319969">
<ele>426.855713</ele>
<time>2011-04-27T07:20:31Z</time>
<desc>lat.=22.136560, lon.=104.319969, Alt.=426.855713m. Speed=1.080000m/h.</desc>
<speed>0.300000</speed>
</trkpt>
<trkpt lat="22.136564" lon="104.319969">
<ele>426.558838</ele>
<time>2011-04-27T07:20:36Z</time>
<desc>lat.=22.136564, lon.=104.319969, Alt.=426.558838m. Speed=0.576000m/h.</desc>
<speed>0.160000</speed>
</trkpt>
<trkpt lat="22.136566" lon="104.319969">
<ele>426.543213</ele>
<time>2011-04-27T07:20:41Z</time>
<desc>lat.=22.136566, lon.=104.319969, Alt.=426.543213m. Speed=0.576000m/h.</desc>
<speed>0.160000</speed>
</trkpt>
<trkpt lat="22.136562" lon="104.319977">
<ele>426.519775</ele>
<time>2011-04-27T07:20:46Z</time>
<desc>lat.=22.136562, lon.=104.319977, Alt.=426.519775m. Speed=0.828000m/h.</desc>
<speed>0.230000</speed>
</trkpt>
<trkpt lat="22.136557" lon="104.319984">
<ele>426.496338</ele>
<time>2011-04-27T07:20:51Z</time>
<desc>lat.=22.136557, lon.=104.319984, Alt.=426.496338m. Speed=0.864000m/h.</desc>
<speed>0.240000</speed>
</trkpt>
<trkpt lat="22.136551" lon="104.319992">
<ele>426.480713</ele>
<time>2011-04-27T07:20:56Z</time>
<desc>lat.=22.136551, lon.=104.319992, Alt.=426.480713m. Speed=0.072000m/h.</desc>
<speed>0.020000</speed>
</trkpt>
<trkpt lat="22.136549" lon="104.319992">
<ele>426.410400</ele>
<time>2011-04-27T07:21:01Z</time>
<desc>lat.=22.136549, lon.=104.319992, Alt.=426.410400m. Speed=0.648000m/h.</desc>
<speed>0.180000</speed>
</trkpt>
<trkpt lat="22.136583" lon="104.319992">
<ele>426.738525</ele>
<time>2011-04-27T07:21:06Z</time>
<desc>lat.=22.136583, lon.=104.319992, Alt.=426.738525m. Speed=3.600000m/h.</desc>
<speed>1.000000</speed>
</trkpt>
<trkpt lat="22.136665" lon="104.320015">
<ele>426.636963</ele>
<time>2011-04-27T07:21:11Z</time>
<desc>lat.=22.136665, lon.=104.320015, Alt.=426.636963m. Speed=8.208000m/h.</desc>
<speed>2.280000</speed>
</trkpt>
<trkpt lat="22.136776" lon="104.320023">
<ele>426.293213</ele>
<time>2011-04-27T07:21:16Z</time>
<desc>lat.=22.136776, lon.=104.320023, Alt.=426.293213m. Speed=8.784000m/h.</desc>
<speed>2.440000</speed>
</trkpt>
<trkpt lat="22.136932" lon="104.320030">
<ele>424.761963</ele>
<time>2011-04-27T07:21:21Z</time>
<desc>lat.=22.136932, lon.=104.320030, Alt.=424.761963m. Speed=13.356000m/h.</desc>
<speed>3.710000</speed>
</trkpt>
<trkpt lat="22.137030" lon="104.320091">
<ele>423.527588</ele>
<time>2011-04-27T07:21:26Z</time>
<desc>lat.=22.137030, lon.=104.320091, Alt.=423.527588m. Speed=3.960000m/h.</desc>
<speed>1.100000</speed>
</trkpt>
<trkpt lat="22.137005" lon="104.320137">
<ele>420.715088</ele>
<time>2011-04-27T07:21:31Z</time>
<desc>lat.=22.137005, lon.=104.320137, Alt.=420.715088m. Speed=0.756000m/h.</desc>
<speed>0.210000</speed>
</trkpt>
<trkpt lat="22.137049" lon="104.320206">
<ele>419.082275</ele>
<time>2011-04-27T07:21:36Z</time>
<desc>lat.=22.137049, lon.=104.320206, Alt.=419.082275m. Speed=11.232000m/h.</desc>
<speed>3.120000</speed>
</trkpt>
<trkpt lat="22.137032" lon="104.320465">
<ele>415.058838</ele>
<time>2011-04-27T07:21:41Z</time>
<desc>lat.=22.137032, lon.=104.320465, Alt.=415.058838m. Speed=22.104000m/h.</desc>
<speed>6.140000</speed>
</trkpt>
<trkpt lat="22.137007" lon="104.320808">
<ele>410.152588</ele>
<time>2011-04-27T07:21:46Z</time>
<desc>lat.=22.137007, lon.=104.320808, Alt.=410.152588m. Speed=23.112000m/h.</desc>
<speed>6.420000</speed>
</trkpt>
<trkpt lat="22.137236" lon="104.321053">
<ele>406.449463</ele>
<time>2011-04-27T07:21:51Z</time>
<desc>lat.=22.137236, lon.=104.321053, Alt.=406.449463m. Speed=27.468000m/h.</desc>
<speed>7.630000</speed>
</trkpt>
<trkpt lat="22.137526" lon="104.321236">
<ele>403.527588</ele>
<time>2011-04-27T07:21:56Z</time>
<desc>lat.=22.137526, lon.=104.321236, Alt.=403.527588m. Speed=23.219999m/h.</desc>
<speed>6.450000</speed>
</trkpt>
<trkpt lat="22.137564" lon="104.321526">
<ele>399.402588</ele>
<time>2011-04-27T07:22:01Z</time>
<desc>lat.=22.137564, lon.=104.321526, Alt.=399.402588m. Speed=22.752001m/h.</desc>
<speed>6.320000</speed>
</trkpt>
<trkpt lat="22.137474" lon="104.321831">
<ele>393.808838</ele>
<time>2011-04-27T07:22:06Z</time>
<desc>lat.=22.137474, lon.=104.321831, Alt.=393.808838m. Speed=22.752001m/h.</desc>
<speed>6.320000</speed>
</trkpt>
<trkpt lat="22.137339" lon="104.322083">
<ele>390.488525</ele>
<time>2011-04-27T07:22:11Z</time>
<desc>lat.=22.137339, lon.=104.322083, Alt.=390.488525m. Speed=23.724001m/h.</desc>
<speed>6.590000</speed>
</trkpt>
<trkpt lat="22.137217" lon="104.322357">
<ele>387.824463</ele>
<time>2011-04-27T07:22:16Z</time>
<desc>lat.=22.137217, lon.=104.322357, Alt.=387.824463m. Speed=20.664000m/h.</desc>
<speed>5.740000</speed>
</trkpt>
<trkpt lat="22.137281" lon="104.322586">
<ele>383.347900</ele>
<time>2011-04-27T07:22:21Z</time>
<desc>lat.=22.137281, lon.=104.322586, Alt.=383.347900m. Speed=20.483999m/h.</desc>
<speed>5.690000</speed>
</trkpt>
<trkpt lat="22.137512" lon="104.322655">
<ele>382.011963</ele>
<time>2011-04-27T07:22:26Z</time>
<desc>lat.=22.137512, lon.=104.322655, Alt.=382.011963m. Speed=21.024000m/h.</desc>
<speed>5.840000</speed>
</trkpt>
<trkpt lat="22.137804" lon="104.322449">
<ele>377.519775</ele>
<time>2011-04-27T07:22:31Z</time>
<desc>lat.=22.137804, lon.=104.322449, Alt.=377.519775m. Speed=35.028000m/h.</desc>
<speed>9.730000</speed>
</trkpt>
<trkpt lat="22.138218" lon="104.322151">
<ele>374.183838</ele>
<time>2011-04-27T07:22:36Z</time>
<desc>lat.=22.138218, lon.=104.322151, Alt.=374.183838m. Speed=36.720001m/h.</desc>
<speed>10.200000</speed>
</trkpt>
<trkpt lat="22.138588" lon="104.321983">
<ele>371.558838</ele>
<time>2011-04-27T07:22:41Z</time>
<desc>lat.=22.138588, lon.=104.321983, Alt.=371.558838m. Speed=26.172001m/h.</desc>
<speed>7.270000</speed>
</trkpt>
<trkpt lat="22.138842" lon="104.321831">
<ele>368.636963</ele>
<time>2011-04-27T07:22:46Z</time>
<desc>lat.=22.138842, lon.=104.321831, Alt.=368.636963m. Speed=17.316000m/h.</desc>
<speed>4.810000</speed>
</trkpt>
<trkpt lat="22.138983" lon="104.321739">
<ele>365.652588</ele>
<time>2011-04-27T07:22:51Z</time>
<desc>lat.=22.138983, lon.=104.321739, Alt.=365.652588m. Speed=9.252000m/h.</desc>
<speed>2.570000</speed>
</trkpt>
<trkpt lat="22.139122" lon="104.321655">
<ele>362.316650</ele>
<time>2011-04-27T07:22:56Z</time>
<desc>lat.=22.139122, lon.=104.321655, Alt.=362.316650m. Speed=7.344000m/h.</desc>
<speed>2.040000</speed>
</trkpt>
<trkpt lat="22.139280" lon="104.321648">
<ele>359.801025</ele>
<time>2011-04-27T07:23:01Z</time>
<desc>lat.=22.139280, lon.=104.321648, Alt.=359.801025m. Speed=15.084000m/h.</desc>
<speed>4.190000</speed>
</trkpt>
<trkpt lat="22.139523" lon="104.321770">
<ele>357.191650</ele>
<time>2011-04-27T07:23:06Z</time>
<desc>lat.=22.139523, lon.=104.321770, Alt.=357.191650m. Speed=24.336000m/h.</desc>
<speed>6.760000</speed>
</trkpt>
<trkpt lat="22.139835" lon="104.321999">
<ele>354.504150</ele>
<time>2011-04-27T07:23:11Z</time>
<desc>lat.=22.139835, lon.=104.321999, Alt.=354.504150m. Speed=28.296000m/h.</desc>
<speed>7.860000</speed>
</trkpt>
<trkpt lat="22.140171" lon="104.322113">
<ele>351.301025</ele>
<time>2011-04-27T07:23:16Z</time>
<desc>lat.=22.140171, lon.=104.322113, Alt.=351.301025m. Speed=24.336000m/h.</desc>
<speed>6.760000</speed>
</trkpt>
<trkpt lat="22.140507" lon="104.322105">
<ele>348.426025</ele>
<time>2011-04-27T07:23:21Z</time>
<desc>lat.=22.140507, lon.=104.322105, Alt.=348.426025m. Speed=20.124001m/h.</desc>
<speed>5.590000</speed>
</trkpt>
<trkpt lat="22.140657" lon="104.321953">
<ele>345.957275</ele>
<time>2011-04-27T07:23:26Z</time>
<desc>lat.=22.140657, lon.=104.321953, Alt.=345.957275m. Speed=17.280001m/h.</desc>
<speed>4.800000</speed>
</trkpt>
<trkpt lat="22.140680" lon="104.321655">
<ele>343.590088</ele>
<time>2011-04-27T07:23:31Z</time>
<desc>lat.=22.140680, lon.=104.321655, Alt.=343.590088m. Speed=24.084000m/h.</desc>
<speed>6.690000</speed>
</trkpt>
<trkpt lat="22.140692" lon="104.321373">
<ele>341.301025</ele>
<time>2011-04-27T07:23:36Z</time>
<desc>lat.=22.140692, lon.=104.321373, Alt.=341.301025m. Speed=15.084000m/h.</desc>
<speed>4.190000</speed>
</trkpt>
<trkpt lat="22.140728" lon="104.321198">
<ele>337.207275</ele>
<time>2011-04-27T07:23:41Z</time>
<desc>lat.=22.140728, lon.=104.321198, Alt.=337.207275m. Speed=12.564000m/h.</desc>
<speed>3.490000</speed>
</trkpt>
<trkpt lat="22.140881" lon="104.321167">
<ele>335.676025</ele>
<time>2011-04-27T07:23:46Z</time>
<desc>lat.=22.140881, lon.=104.321167, Alt.=335.676025m. Speed=11.520000m/h.</desc>
<speed>3.200000</speed>
</trkpt>
<trkpt lat="22.141031" lon="104.321251">
<ele>333.199463</ele>
<time>2011-04-27T07:23:51Z</time>
<desc>lat.=22.141031, lon.=104.321251, Alt.=333.199463m. Speed=17.243999m/h.</desc>
<speed>4.790000</speed>
</trkpt>
<trkpt lat="22.141205" lon="104.321442">
<ele>331.621338</ele>
<time>2011-04-27T07:23:56Z</time>
<desc>lat.=22.141205, lon.=104.321442, Alt.=331.621338m. Speed=21.996000m/h.</desc>
<speed>6.110000</speed>
</trkpt>
<trkpt lat="22.141287" lon="104.321686">
<ele>329.457275</ele>
<time>2011-04-27T07:24:01Z</time>
<desc>lat.=22.141287, lon.=104.321686, Alt.=329.457275m. Speed=15.084000m/h.</desc>
<speed>4.190000</speed>
</trkpt>
<trkpt lat="22.141317" lon="104.321800">
<ele>327.738525</ele>
<time>2011-04-27T07:24:06Z</time>
<desc>lat.=22.141317, lon.=104.321800, Alt.=327.738525m. Speed=5.544000m/h.</desc>
<speed>1.540000</speed>
</trkpt>
<trkpt lat="22.141348" lon="104.321838">
<ele>326.847900</ele>
<time>2011-04-27T07:24:11Z</time>
<desc>lat.=22.141348, lon.=104.321838, Alt.=326.847900m. Speed=6.984000m/h.</desc>
<speed>1.940000</speed>
</trkpt>
<trkpt lat="22.141466" lon="104.321907">
<ele>326.941650</ele>
<time>2011-04-27T07:24:16Z</time>
<desc>lat.=22.141466, lon.=104.321907, Alt.=326.941650m. Speed=13.824000m/h.</desc>
<speed>3.840000</speed>
</trkpt>
<trkpt lat="22.141674" lon="104.321983">
<ele>324.527588</ele>
<time>2011-04-27T07:24:21Z</time>
<desc>lat.=22.141674, lon.=104.321983, Alt.=324.527588m. Speed=17.172001m/h.</desc>
<speed>4.770000</speed>
</trkpt>
<trkpt lat="22.141819" lon="104.322075">
<ele>325.824463</ele>
<time>2011-04-27T07:24:26Z</time>
<desc>lat.=22.141819, lon.=104.322075, Alt.=325.824463m. Speed=11.088000m/h.</desc>
<speed>3.080000</speed>
</trkpt>
<trkpt lat="22.141912" lon="104.322159">
<ele>325.215088</ele>
<time>2011-04-27T07:24:31Z</time>
<desc>lat.=22.141912, lon.=104.322159, Alt.=325.215088m. Speed=7.524000m/h.</desc>
<speed>2.090000</speed>
</trkpt>
<trkpt lat="22.141983" lon="104.322212">
<ele>326.011963</ele>
<time>2011-04-27T07:24:36Z</time>
<desc>lat.=22.141983, lon.=104.322212, Alt.=326.011963m. Speed=6.444000m/h.</desc>
<speed>1.790000</speed>
</trkpt>
<trkpt lat="22.142042" lon="104.322273">
<ele>326.551025</ele>
<time>2011-04-27T07:24:41Z</time>
<desc>lat.=22.142042, lon.=104.322273, Alt.=326.551025m. Speed=6.480000m/h.</desc>
<speed>1.800000</speed>
</trkpt>
<trkpt lat="22.142097" lon="104.322311">
<ele>326.707275</ele>
<time>2011-04-27T07:24:46Z</time>
<desc>lat.=22.142097, lon.=104.322311, Alt.=326.707275m. Speed=5.148000m/h.</desc>
<speed>1.430000</speed>
</trkpt>
<trkpt lat="22.142160" lon="104.322365">
<ele>326.254150</ele>
<time>2011-04-27T07:24:51Z</time>
<desc>lat.=22.142160, lon.=104.322365, Alt.=326.254150m. Speed=7.848000m/h.</desc>
<speed>2.180000</speed>
</trkpt>
<trkpt lat="22.142239" lon="104.322433">
<ele>324.902588</ele>
<time>2011-04-27T07:24:56Z</time>
<desc>lat.=22.142239, lon.=104.322433, Alt.=324.902588m. Speed=8.064000m/h.</desc>
<speed>2.240000</speed>
</trkpt>
<trkpt lat="22.142345" lon="104.322571">
<ele>322.597900</ele>
<time>2011-04-27T07:25:01Z</time>
<desc>lat.=22.142345, lon.=104.322571, Alt.=322.597900m. Speed=11.844000m/h.</desc>
<speed>3.290000</speed>
</trkpt>
<trkpt lat="22.142466" lon="104.322716">
<ele>322.168213</ele>
<time>2011-04-27T07:25:06Z</time>
<desc>lat.=22.142466, lon.=104.322716, Alt.=322.168213m. Speed=15.624000m/h.</desc>
<speed>4.340000</speed>
</trkpt>
<trkpt lat="22.142563" lon="104.322960">
<ele>322.433838</ele>
<time>2011-04-27T07:25:11Z</time>
<desc>lat.=22.142563, lon.=104.322960, Alt.=322.433838m. Speed=19.872000m/h.</desc>
<speed>5.520000</speed>
</trkpt>
<trkpt lat="22.142693" lon="104.323242">
<ele>320.410400</ele>
<time>2011-04-27T07:25:16Z</time>
<desc>lat.=22.142693, lon.=104.323242, Alt.=320.410400m. Speed=26.964001m/h.</desc>
<speed>7.490000</speed>
</trkpt>
<trkpt lat="22.143024" lon="104.323380">
<ele>319.863525</ele>
<time>2011-04-27T07:25:21Z</time>
<desc>lat.=22.143024, lon.=104.323380, Alt.=319.863525m. Speed=27.864000m/h.</desc>
<speed>7.740000</speed>
</trkpt>
<trkpt lat="22.143322" lon="104.323380">
<ele>317.840088</ele>
<time>2011-04-27T07:25:26Z</time>
<desc>lat.=22.143322, lon.=104.323380, Alt.=317.840088m. Speed=15.732000m/h.</desc>
<speed>4.370000</speed>
</trkpt>
<trkpt lat="22.143459" lon="104.323456">
<ele>318.261963</ele>
<time>2011-04-27T07:25:31Z</time>
<desc>lat.=22.143459, lon.=104.323456, Alt.=318.261963m. Speed=9.900000m/h.</desc>
<speed>2.750000</speed>
</trkpt>
<trkpt lat="22.143524" lon="104.323608">
<ele>314.847900</ele>
<time>2011-04-27T07:25:36Z</time>
<desc>lat.=22.143524, lon.=104.323608, Alt.=314.847900m. Speed=12.024000m/h.</desc>
<speed>3.340000</speed>
</trkpt>
<trkpt lat="22.143501" lon="104.323792">
<ele>315.629150</ele>
<time>2011-04-27T07:25:41Z</time>
<desc>lat.=22.143501, lon.=104.323792, Alt.=315.629150m. Speed=15.876000m/h.</desc>
<speed>4.410000</speed>
</trkpt>
<trkpt lat="22.143442" lon="104.323959">
<ele>315.144775</ele>
<time>2011-04-27T07:25:46Z</time>
<desc>lat.=22.143442, lon.=104.323959, Alt.=315.144775m. Speed=11.664000m/h.</desc>
<speed>3.240000</speed>
</trkpt>
<trkpt lat="22.143412" lon="104.324120">
<ele>313.965088</ele>
<time>2011-04-27T07:25:51Z</time>
<desc>lat.=22.143412, lon.=104.324120, Alt.=313.965088m. Speed=14.184000m/h.</desc>
<speed>3.940000</speed>
</trkpt>
<trkpt lat="22.143469" lon="104.324387">
<ele>313.769775</ele>
<time>2011-04-27T07:25:56Z</time>
<desc>lat.=22.143469, lon.=104.324387, Alt.=313.769775m. Speed=20.771999m/h.</desc>
<speed>5.770000</speed>
</trkpt>
<trkpt lat="22.143547" lon="104.324715">
<ele>313.027588</ele>
<time>2011-04-27T07:26:01Z</time>
<desc>lat.=22.143547, lon.=104.324715, Alt.=313.027588m. Speed=27.756001m/h.</desc>
<speed>7.710000</speed>
</trkpt>
<trkpt lat="22.143675" lon="104.325020">
<ele>311.433838</ele>
<time>2011-04-27T07:26:06Z</time>
<desc>lat.=22.143675, lon.=104.325020, Alt.=311.433838m. Speed=19.511999m/h.</desc>
<speed>5.420000</speed>
</trkpt>
<trkpt lat="22.143850" lon="104.325256">
<ele>308.832275</ele>
<time>2011-04-27T07:26:11Z</time>
<desc>lat.=22.143850, lon.=104.325256, Alt.=308.832275m. Speed=24.516001m/h.</desc>
<speed>6.810000</speed>
</trkpt>
<trkpt lat="22.143944" lon="104.325546">
<ele>306.816650</ele>
<time>2011-04-27T07:26:16Z</time>
<desc>lat.=22.143944, lon.=104.325546, Alt.=306.816650m. Speed=22.320000m/h.</desc>
<speed>6.200000</speed>
</trkpt>
<trkpt lat="22.143959" lon="104.325890">
<ele>304.933838</ele>
<time>2011-04-27T07:26:21Z</time>
<desc>lat.=22.143959, lon.=104.325890, Alt.=304.933838m. Speed=21.636000m/h.</desc>
<speed>6.010000</speed>
</trkpt>
<trkpt lat="22.144100" lon="104.326035">
<ele>302.027588</ele>
<time>2011-04-27T07:26:26Z</time>
<desc>lat.=22.144100, lon.=104.326035, Alt.=302.027588m. Speed=12.924000m/h.</desc>
<speed>3.590000</speed>
</trkpt>
<trkpt lat="22.144224" lon="104.326088">
<ele>300.097900</ele>
<time>2011-04-27T07:26:31Z</time>
<desc>lat.=22.144224, lon.=104.326088, Alt.=300.097900m. Speed=11.520000m/h.</desc>
<speed>3.200000</speed>
</trkpt>
<trkpt lat="22.144390" lon="104.326172">
<ele>298.082275</ele>
<time>2011-04-27T07:26:36Z</time>
<desc>lat.=22.144390, lon.=104.326172, Alt.=298.082275m. Speed=16.200001m/h.</desc>
<speed>4.500000</speed>
</trkpt>
<trkpt lat="22.144560" lon="104.326340">
<ele>295.183838</ele>
<time>2011-04-27T07:26:41Z</time>
<desc>lat.=22.144560, lon.=104.326340, Alt.=295.183838m. Speed=22.176001m/h.</desc>
<speed>6.160000</speed>
</trkpt>
<trkpt lat="22.144510" lon="104.326706">
<ele>291.738525</ele>
<time>2011-04-27T07:26:46Z</time>
<desc>lat.=22.144510, lon.=104.326706, Alt.=291.738525m. Speed=29.483999m/h.</desc>
<speed>8.190000</speed>
</trkpt>
<trkpt lat="22.144302" lon="104.327133">
<ele>288.465088</ele>
<time>2011-04-27T07:26:51Z</time>
<desc>lat.=22.144302, lon.=104.327133, Alt.=288.465088m. Speed=37.655998m/h.</desc>
<speed>10.460000</speed>
</trkpt>
<trkpt lat="22.144154" lon="104.327560">
<ele>285.472900</ele>
<time>2011-04-27T07:26:56Z</time>
<desc>lat.=22.144154, lon.=104.327560, Alt.=285.472900m. Speed=29.412001m/h.</desc>
<speed>8.170000</speed>
</trkpt>
<trkpt lat="22.144258" lon="104.327934">
<ele>283.191650</ele>
<time>2011-04-27T07:27:01Z</time>
<desc>lat.=22.144258, lon.=104.327934, Alt.=283.191650m. Speed=20.700001m/h.</desc>
<speed>5.750000</speed>
</trkpt>
<trkpt lat="22.144260" lon="104.328171">
<ele>279.894775</ele>
<time>2011-04-27T07:27:06Z</time>
<desc>lat.=22.144260, lon.=104.328171, Alt.=279.894775m. Speed=16.236000m/h.</desc>
<speed>4.510000</speed>
</trkpt>
<trkpt lat="22.144104" lon="104.328377">
<ele>278.941650</ele>
<time>2011-04-27T07:27:11Z</time>
<desc>lat.=22.144104, lon.=104.328377, Alt.=278.941650m. Speed=19.799999m/h.</desc>
<speed>5.500000</speed>
</trkpt>
<trkpt lat="22.144039" lon="104.328659">
<ele>276.847900</ele>
<time>2011-04-27T07:27:16Z</time>
<desc>lat.=22.144039, lon.=104.328659, Alt.=276.847900m. Speed=20.448000m/h.</desc>
<speed>5.680000</speed>
</trkpt>
<trkpt lat="22.144045" lon="104.328926">
<ele>275.160400</ele>
<time>2011-04-27T07:27:21Z</time>
<desc>lat.=22.144045, lon.=104.328926, Alt.=275.160400m. Speed=20.195999m/h.</desc>
<speed>5.610000</speed>
</trkpt>
<trkpt lat="22.144089" lon="104.329239">
<ele>274.793213</ele>
<time>2011-04-27T07:27:26Z</time>
<desc>lat.=22.144089, lon.=104.329239, Alt.=274.793213m. Speed=16.559999m/h.</desc>
<speed>4.600000</speed>
</trkpt>
<trkpt lat="22.144018" lon="104.329384">
<ele>272.371338</ele>
<time>2011-04-27T07:27:31Z</time>
<desc>lat.=22.144018, lon.=104.329384, Alt.=272.371338m. Speed=17.964001m/h.</desc>
<speed>4.990000</speed>
</trkpt>
<trkpt lat="22.143770" lon="104.329453">
<ele>267.105713</ele>
<time>2011-04-27T07:27:36Z</time>
<desc>lat.=22.143770, lon.=104.329453, Alt.=267.105713m. Speed=21.420000m/h.</desc>
<speed>5.950000</speed>
</trkpt>
<trkpt lat="22.143549" lon="104.329575">
<ele>262.996338</ele>
<time>2011-04-27T07:27:41Z</time>
<desc>lat.=22.143549, lon.=104.329575, Alt.=262.996338m. Speed=19.872000m/h.</desc>
<speed>5.520000</speed>
</trkpt>
<trkpt lat="22.143543" lon="104.329819">
<ele>261.285400</ele>
<time>2011-04-27T07:27:46Z</time>
<desc>lat.=22.143543, lon.=104.329819, Alt.=261.285400m. Speed=21.996000m/h.</desc>
<speed>6.110000</speed>
</trkpt>
<trkpt lat="22.143585" lon="104.330086">
<ele>260.535400</ele>
<time>2011-04-27T07:27:51Z</time>
<desc>lat.=22.143585, lon.=104.330086, Alt.=260.535400m. Speed=14.580000m/h.</desc>
<speed>4.050000</speed>
</trkpt>
<trkpt lat="22.143557" lon="104.330246">
<ele>259.699463</ele>
<time>2011-04-27T07:27:56Z</time>
<desc>lat.=22.143557, lon.=104.330246, Alt.=259.699463m. Speed=10.548000m/h.</desc>
<speed>2.930000</speed>
</trkpt>
<trkpt lat="22.143414" lon="104.330360">
<ele>258.527588</ele>
<time>2011-04-27T07:28:01Z</time>
<desc>lat.=22.143414, lon.=104.330360, Alt.=258.527588m. Speed=16.091999m/h.</desc>
<speed>4.470000</speed>
</trkpt>
<trkpt lat="22.143206" lon="104.330498">
<ele>255.798950</ele>
<time>2011-04-27T07:28:06Z</time>
<desc>lat.=22.143206, lon.=104.330498, Alt.=255.798950m. Speed=18.540001m/h.</desc>
<speed>5.150000</speed>
</trkpt>
<trkpt lat="22.142998" lon="104.330559">
<ele>251.416138</ele>
<time>2011-04-27T07:28:11Z</time>
<desc>lat.=22.142998, lon.=104.330559, Alt.=251.416138m. Speed=15.408000m/h.</desc>
<speed>4.280000</speed>
</trkpt>
<trkpt lat="22.142784" lon="104.330521">
<ele>249.681763</ele>
<time>2011-04-27T07:28:16Z</time>
<desc>lat.=22.142784, lon.=104.330521, Alt.=249.681763m. Speed=17.280001m/h.</desc>
<speed>4.800000</speed>
</trkpt>
<trkpt lat="22.142681" lon="104.330467">
<ele>246.759888</ele>
<time>2011-04-27T07:28:21Z</time>
<desc>lat.=22.142681, lon.=104.330467, Alt.=246.759888m. Speed=0.792000m/h.</desc>
<speed>0.220000</speed>
</trkpt>
<trkpt lat="22.142675" lon="104.330467">
<ele>245.263794</ele>
<time>2011-04-27T07:28:26Z</time>
<desc>lat.=22.142675, lon.=104.330467, Alt.=245.263794m. Speed=0.468000m/h.</desc>
<speed>0.130000</speed>
</trkpt>
<trkpt lat="22.142670" lon="104.330460">
<ele>245.107544</ele>
<time>2011-04-27T07:28:31Z</time>
<desc>lat.=22.142670, lon.=104.330460, Alt.=245.107544m. Speed=0.720000m/h.</desc>
<speed>0.200000</speed>
</trkpt>
<trkpt lat="22.142670" lon="104.330460">
<ele>245.002075</ele>
<time>2011-04-27T07:28:36Z</time>
<desc>lat.=22.142670, lon.=104.330460, Alt.=245.002075m. Speed=0.468000m/h.</desc>
<speed>0.130000</speed>
</trkpt>
<trkpt lat="22.142666" lon="104.330452">
<ele>244.943481</ele>
<time>2011-04-27T07:28:41Z</time>
<desc>lat.=22.142666, lon.=104.330452, Alt.=244.943481m. Speed=0.864000m/h.</desc>
<speed>0.240000</speed>
</trkpt>
<trkpt lat="22.142656" lon="104.330452">
<ele>244.916138</ele>
<time>2011-04-27T07:28:46Z</time>
<desc>lat.=22.142656, lon.=104.330452, Alt.=244.916138m. Speed=0.900000m/h.</desc>
<speed>0.250000</speed>
</trkpt>
<trkpt lat="22.142645" lon="104.330444">
<ele>244.869263</ele>
<time>2011-04-27T07:28:51Z</time>
<desc>lat.=22.142645, lon.=104.330444, Alt.=244.869263m. Speed=0.756000m/h.</desc>
<speed>0.210000</speed>
</trkpt>
<trkpt lat="22.142637" lon="104.330444">
<ele>244.884888</ele>
<time>2011-04-27T07:28:56Z</time>
<desc>lat.=22.142637, lon.=104.330444, Alt.=244.884888m. Speed=0.756000m/h.</desc>
<speed>0.210000</speed>
</trkpt>
<trkpt lat="22.142630" lon="104.330444">
<ele>244.869263</ele>
<time>2011-04-27T07:29:01Z</time>
<desc>lat.=22.142630, lon.=104.330444, Alt.=244.869263m. Speed=0.036000m/h.</desc>
<speed>0.010000</speed>
</trkpt>
<trkpt lat="22.142630" lon="104.330444">
<ele>244.900513</ele>
<time>2011-04-27T07:29:06Z</time>
<desc>lat.=22.142630, lon.=104.330444, Alt.=244.900513m. Speed=0.396000m/h.</desc>
<speed>0.110000</speed>
</trkpt>
<trkpt lat="22.142626" lon="104.330444">
<ele>244.845825</ele>
<time>2011-04-27T07:29:11Z</time>
<desc>lat.=22.142626, lon.=104.330444, Alt.=244.845825m. Speed=0.216000m/h.</desc>
<speed>0.060000</speed>
</trkpt>
<trkpt lat="22.142622" lon="104.330437">
<ele>244.865356</ele>
<time>2011-04-27T07:29:16Z</time>
<desc>lat.=22.142622, lon.=104.330437, Alt.=244.865356m. Speed=0.180000m/h.</desc>
<speed>0.050000</speed>
</trkpt>
<trkpt lat="22.142616" lon="104.330437">
<ele>244.857544</ele>
<time>2011-04-27T07:29:21Z</time>
<desc>lat.=22.142616, lon.=104.330437, Alt.=244.857544m. Speed=0.648000m/h.</desc>
<speed>0.180000</speed>
</trkpt>
<trkpt lat="22.142607" lon="104.330437">
<ele>244.814575</ele>
<time>2011-04-27T07:29:26Z</time>
<desc>lat.=22.142607, lon.=104.330437, Alt.=244.814575m. Speed=0.324000m/h.</desc>
<speed>0.090000</speed>
</trkpt>
<trkpt lat="22.142603" lon="104.330437">
<ele>244.720825</ele>
<time>2011-04-27T07:29:31Z</time>
<desc>lat.=22.142603, lon.=104.330437, Alt.=244.720825m. Speed=0.324000m/h.</desc>
<speed>0.090000</speed>
</trkpt>
<trkpt lat="22.142603" lon="104.330437">
<ele>244.646606</ele>
<time>2011-04-27T07:29:36Z</time>
<desc>lat.=22.142603, lon.=104.330437, Alt.=244.646606m. Speed=0.108000m/h.</desc>
<speed>0.030000</speed>
</trkpt>
<trkpt lat="22.142595" lon="104.330437">
<ele>244.599731</ele>
<time>2011-04-27T07:29:41Z</time>
<desc>lat.=22.142595, lon.=104.330437, Alt.=244.599731m. Speed=0.936000m/h.</desc>
<speed>0.260000</speed>
</trkpt>
<trkpt lat="22.142588" lon="104.330444">
<ele>244.548950</ele>
<time>2011-04-27T07:29:46Z</time>
<desc>lat.=22.142588, lon.=104.330444, Alt.=244.548950m. Speed=0.216000m/h.</desc>
<speed>0.060000</speed>
</trkpt>
<trkpt lat="22.142586" lon="104.330444">
<ele>244.537231</ele>
<time>2011-04-27T07:29:51Z</time>
<desc>lat.=22.142586, lon.=104.330444, Alt.=244.537231m. Speed=0.036000m/h.</desc>
<speed>0.010000</speed>
</trkpt>
<trkpt lat="22.142586" lon="104.330444">
<ele>244.494263</ele>
<time>2011-04-27T07:29:56Z</time>
<desc>lat.=22.142586, lon.=104.330444, Alt.=244.494263m. Speed=0.144000m/h.</desc>
<speed>0.040000</speed>
</trkpt>
<trkpt lat="22.142582" lon="104.330444">
<ele>244.466919</ele>
<time>2011-04-27T07:30:01Z</time>
<desc>lat.=22.142582, lon.=104.330444, Alt.=244.466919m. Speed=2.304000m/h.</desc>
<speed>0.640000</speed>
</trkpt>
<trkpt lat="22.142500" lon="104.330467">
<ele>244.658325</ele>
<time>2011-04-27T07:30:06Z</time>
<desc>lat.=22.142500, lon.=104.330467, Alt.=244.658325m. Speed=13.788000m/h.</desc>
<speed>3.830000</speed>
</trkpt>
<trkpt lat="22.142284" lon="104.330544">
<ele>243.263794</ele>
<time>2011-04-27T07:30:11Z</time>
<desc>lat.=22.142284, lon.=104.330544, Alt.=243.263794m. Speed=22.104000m/h.</desc>
<speed>6.140000</speed>
</trkpt>
<trkpt lat="22.141937" lon="104.330681">
<ele>240.170044</ele>
<time>2011-04-27T07:30:16Z</time>
<desc>lat.=22.141937, lon.=104.330681, Alt.=240.170044m. Speed=29.664000m/h.</desc>
<speed>8.240000</speed>
</trkpt>
<trkpt lat="22.141573" lon="104.330902">
<ele>237.533325</ele>
<time>2011-04-27T07:30:21Z</time>
<desc>lat.=22.141573, lon.=104.330902, Alt.=237.533325m. Speed=32.400002m/h.</desc>
<speed>9.000000</speed>
</trkpt>
<trkpt lat="22.141403" lon="104.331184">
<ele>233.287231</ele>
<time>2011-04-27T07:30:26Z</time>
<desc>lat.=22.141403, lon.=104.331184, Alt.=233.287231m. Speed=24.875999m/h.</desc>
<speed>6.910000</speed>
</trkpt>
<trkpt lat="22.141558" lon="104.331459">
<ele>230.994263</ele>
<time>2011-04-27T07:30:31Z</time>
<desc>lat.=22.141558, lon.=104.331459, Alt.=230.994263m. Speed=24.768000m/h.</desc>
<speed>6.880000</speed>
</trkpt>
<trkpt lat="22.141907" lon="104.331421">
<ele>229.224731</ele>
<time>2011-04-27T07:30:36Z</time>
<desc>lat.=22.141907, lon.=104.331421, Alt.=229.224731m. Speed=30.204000m/h.</desc>
<speed>8.390000</speed>
</trkpt>
<trkpt lat="22.142303" lon="104.331375">
<ele>230.099731</ele>
<time>2011-04-27T07:30:41Z</time>
<desc>lat.=22.142303, lon.=104.331375, Alt.=230.099731m. Speed=28.403999m/h.</desc>
<speed>7.890000</speed>
</trkpt>
<trkpt lat="22.142700" lon="104.331581">
<ele>231.681763</ele>
<time>2011-04-27T07:30:46Z</time>
<desc>lat.=22.142700, lon.=104.331581, Alt.=231.681763m. Speed=31.464001m/h.</desc>
<speed>8.740000</speed>
</trkpt>
<trkpt lat="22.142973" lon="104.331841">
<ele>233.392700</ele>
<time>2011-04-27T07:30:51Z</time>
<desc>lat.=22.142973, lon.=104.331841, Alt.=233.392700m. Speed=26.100000m/h.</desc>
<speed>7.250000</speed>
</trkpt>
<trkpt lat="22.143312" lon="104.331757">
<ele>229.232544</ele>
<time>2011-04-27T07:30:56Z</time>
<desc>lat.=22.143312, lon.=104.331757, Alt.=229.232544m. Speed=31.212000m/h.</desc>
<speed>8.670000</speed>
</trkpt>
<trkpt lat="22.143633" lon="104.331612">
<ele>227.814575</ele>
<time>2011-04-27T07:31:01Z</time>
<desc>lat.=22.143633, lon.=104.331612, Alt.=227.814575m. Speed=25.128000m/h.</desc>
<speed>6.980000</speed>
</trkpt>
<trkpt lat="22.143839" lon="104.331848">
<ele>227.650513</ele>
<time>2011-04-27T07:31:06Z</time>
<desc>lat.=22.143839, lon.=104.331848, Alt.=227.650513m. Speed=28.728001m/h.</desc>
<speed>7.980000</speed>
</trkpt>
<trkpt lat="22.144083" lon="104.332161">
<ele>226.228638</ele>
<time>2011-04-27T07:31:11Z</time>
<desc>lat.=22.144083, lon.=104.332161, Alt.=226.228638m. Speed=32.292000m/h.</desc>
<speed>8.970000</speed>
</trkpt>
<trkpt lat="22.144432" lon="104.332291">
<ele>223.005981</ele>
<time>2011-04-27T07:31:16Z</time>
<desc>lat.=22.144432, lon.=104.332291, Alt.=223.005981m. Speed=24.840000m/h.</desc>
<speed>6.900000</speed>
</trkpt>
<trkpt lat="22.144646" lon="104.332123">
<ele>221.705200</ele>
<time>2011-04-27T07:31:21Z</time>
<desc>lat.=22.144646, lon.=104.332123, Alt.=221.705200m. Speed=21.888000m/h.</desc>
<speed>6.080000</speed>
</trkpt>
<trkpt lat="22.144804" lon="104.331970">
<ele>220.861450</ele>
<time>2011-04-27T07:31:26Z</time>
<desc>lat.=22.144804, lon.=104.331970, Alt.=220.861450m. Speed=9.540000m/h.</desc>
<speed>2.650000</speed>
</trkpt>
<trkpt lat="22.144848" lon="104.331932">
<ele>218.623169</ele>
<time>2011-04-27T07:31:31Z</time>
<desc>lat.=22.144848, lon.=104.331932, Alt.=218.623169m. Speed=0.864000m/h.</desc>
<speed>0.240000</speed>
</trkpt>
<trkpt lat="22.144852" lon="104.331917">
<ele>218.334106</ele>
<time>2011-04-27T07:31:36Z</time>
<desc>lat.=22.144852, lon.=104.331917, Alt.=218.334106m. Speed=0.828000m/h.</desc>
<speed>0.230000</speed>
</trkpt>
<trkpt lat="22.144846" lon="104.331902">
<ele>218.255981</ele>
<time>2011-04-27T07:31:41Z</time>
<desc>lat.=22.144846, lon.=104.331902, Alt.=218.255981m. Speed=2.232000m/h.</desc>
<speed>0.620000</speed>
</trkpt>
<trkpt lat="22.144842" lon="104.331879">
<ele>218.170044</ele>
<time>2011-04-27T07:31:46Z</time>
<desc>lat.=22.144842, lon.=104.331879, Alt.=218.170044m. Speed=0.432000m/h.</desc>
<speed>0.120000</speed>
</trkpt>
<trkpt lat="22.144838" lon="104.331871">
<ele>218.099731</ele>
<time>2011-04-27T07:31:51Z</time>
<desc>lat.=22.144838, lon.=104.331871, Alt.=218.099731m. Speed=3.024000m/h.</desc>
<speed>0.840000</speed>
</trkpt>
<trkpt lat="22.144964" lon="104.331848">
<ele>218.627075</ele>
<time>2011-04-27T07:31:56Z</time>
<desc>lat.=22.144964, lon.=104.331848, Alt.=218.627075m. Speed=18.972000m/h.</desc>
<speed>5.270000</speed>
</trkpt>
<trkpt lat="22.145203" lon="104.332031">
<ele>216.791138</ele>
<time>2011-04-27T07:32:01Z</time>
<desc>lat.=22.145203, lon.=104.332031, Alt.=216.791138m. Speed=20.520000m/h.</desc>
<speed>5.700000</speed>
</trkpt>
<trkpt lat="22.145477" lon="104.332085">
<ele>213.173950</ele>
<time>2011-04-27T07:32:06Z</time>
<desc>lat.=22.145477, lon.=104.332085, Alt.=213.173950m. Speed=23.472000m/h.</desc>
<speed>6.520000</speed>
</trkpt>
<trkpt lat="22.145628" lon="104.332024">
<ele>210.791138</ele>
<time>2011-04-27T07:32:11Z</time>
<desc>lat.=22.145628, lon.=104.332024, Alt.=210.791138m. Speed=2.808000m/h.</desc>
<speed>0.780000</speed>
</trkpt>
<trkpt lat="22.145626" lon="104.332016">
<ele>208.716919</ele>
<time>2011-04-27T07:32:16Z</time>
<desc>lat.=22.145626, lon.=104.332016, Alt.=208.716919m. Speed=0.144000m/h.</desc>
<speed>0.040000</speed>
</trkpt>
<trkpt lat="22.145630" lon="104.332024">
<ele>208.248169</ele>
<time>2011-04-27T07:32:21Z</time>
<desc>lat.=22.145630, lon.=104.332024, Alt.=208.248169m. Speed=0.072000m/h.</desc>
<speed>0.020000</speed>
</trkpt>
<trkpt lat="22.145630" lon="104.332024">
<ele>208.076294</ele>
<time>2011-04-27T07:32:26Z</time>
<desc>lat.=22.145630, lon.=104.332024, Alt.=208.076294m. Speed=0.720000m/h.</desc>
<speed>0.200000</speed>
</trkpt>
<trkpt lat="22.145699" lon="104.332008">
<ele>206.478638</ele>
<time>2011-04-27T07:32:31Z</time>
<desc>lat.=22.145699, lon.=104.332008, Alt.=206.478638m. Speed=9.648000m/h.</desc>
<speed>2.680000</speed>
</trkpt>
<trkpt lat="22.145929" lon="104.332008">
<ele>203.959106</ele>
<time>2011-04-27T07:32:36Z</time>
<desc>lat.=22.145929, lon.=104.332008, Alt.=203.959106m. Speed=19.007999m/h.</desc>
<speed>5.280000</speed>
</trkpt>
<trkpt lat="22.146217" lon="104.332054">
<ele>202.283325</ele>
<time>2011-04-27T07:32:41Z</time>
<desc>lat.=22.146217, lon.=104.332054, Alt.=202.283325m. Speed=21.924000m/h.</desc>
<speed>6.090000</speed>
</trkpt>
<trkpt lat="22.146505" lon="104.332169">
<ele>196.896606</ele>
<time>2011-04-27T07:32:46Z</time>
<desc>lat.=22.146505, lon.=104.332169, Alt.=196.896606m. Speed=19.872000m/h.</desc>
<speed>5.520000</speed>
</trkpt>
<trkpt lat="22.146687" lon="104.332474">
<ele>191.720825</ele>
<time>2011-04-27T07:32:51Z</time>
<desc>lat.=22.146687, lon.=104.332474, Alt.=191.720825m. Speed=27.323999m/h.</desc>
<speed>7.590000</speed>
</trkpt>
<trkpt lat="22.146824" lon="104.332840">
<ele>188.689575</ele>
<time>2011-04-27T07:32:56Z</time>
<desc>lat.=22.146824, lon.=104.332840, Alt.=188.689575m. Speed=25.236000m/h.</desc>
<speed>7.010000</speed>
</trkpt>
<trkpt lat="22.146954" lon="104.333008">
<ele>186.466919</ele>
<time>2011-04-27T07:33:01Z</time>
<desc>lat.=22.146954, lon.=104.333008, Alt.=186.466919m. Speed=9.216000m/h.</desc>
<speed>2.560000</speed>
</trkpt>
<trkpt lat="22.147047" lon="104.333038">
<ele>185.072388</ele>
<time>2011-04-27T07:33:06Z</time>
<desc>lat.=22.147047, lon.=104.333038, Alt.=185.072388m. Speed=8.640000m/h.</desc>
<speed>2.400000</speed>
</trkpt>
<trkpt lat="22.147139" lon="104.333092">
<ele>183.595825</ele>
<time>2011-04-27T07:33:11Z</time>
<desc>lat.=22.147139, lon.=104.333092, Alt.=183.595825m. Speed=8.388000m/h.</desc>
<speed>2.330000</speed>
</trkpt>
<trkpt lat="22.147181" lon="104.333099">
<ele>186.556763</ele>
<time>2011-04-27T07:33:16Z</time>
<desc>lat.=22.147181, lon.=104.333099, Alt.=186.556763m. Speed=0.468000m/h.</desc>
<speed>0.130000</speed>
</trkpt>
<trkpt lat="22.147184" lon="104.333099">
<ele>187.088013</ele>
<time>2011-04-27T07:33:21Z</time>
<desc>lat.=22.147184, lon.=104.333099, Alt.=187.088013m. Speed=0.144000m/h.</desc>
<speed>0.040000</speed>
</trkpt>
<trkpt lat="22.147184" lon="104.333099">
<ele>187.295044</ele>
<time>2011-04-27T07:33:26Z</time>
<desc>lat.=22.147184, lon.=104.333099, Alt.=187.295044m. Speed=0.108000m/h.</desc>
<speed>0.030000</speed>
</trkpt>
<trkpt lat="22.147186" lon="104.333099">
<ele>187.384888</ele>
<time>2011-04-27T07:33:31Z</time>
<desc>lat.=22.147186, lon.=104.333099, Alt.=187.384888m. Speed=0.108000m/h.</desc>
<speed>0.030000</speed>
</trkpt>
<trkpt lat="22.147190" lon="104.333099">
<ele>187.572388</ele>
<time>2011-04-27T07:33:36Z</time>
<desc>lat.=22.147190, lon.=104.333099, Alt.=187.572388m. Speed=0.432000m/h.</desc>
<speed>0.120000</speed>
</trkpt>
<trkpt lat="22.147188" lon="104.333099">
<ele>187.705200</ele>
<time>2011-04-27T07:33:41Z</time>
<desc>lat.=22.147188, lon.=104.333099, Alt.=187.705200m. Speed=0.324000m/h.</desc>
<speed>0.090000</speed>
</trkpt>
<trkpt lat="22.147188" lon="104.333099">
<ele>187.728638</ele>
<time>2011-04-27T07:33:46Z</time>
<desc>lat.=22.147188, lon.=104.333099, Alt.=187.728638m. Speed=0.252000m/h.</desc>
<speed>0.070000</speed>
</trkpt>
<trkpt lat="22.147190" lon="104.333099">
<ele>187.720825</ele>
<time>2011-04-27T07:33:51Z</time>
<desc>lat.=22.147190, lon.=104.333099, Alt.=187.720825m. Speed=0.468000m/h.</desc>
<speed>0.130000</speed>
</trkpt>
<trkpt lat="22.147190" lon="104.333107">
<ele>187.713013</ele>
<time>2011-04-27T07:33:56Z</time>
<desc>lat.=22.147190, lon.=104.333107, Alt.=187.713013m. Speed=0.504000m/h.</desc>
<speed>0.140000</speed>
</trkpt>
<trkpt lat="22.147192" lon="104.333115">
<ele>187.709106</ele>
<time>2011-04-27T07:34:01Z</time>
<desc>lat.=22.147192, lon.=104.333115, Alt.=187.709106m. Speed=0.504000m/h.</desc>
<speed>0.140000</speed>
</trkpt>
<trkpt lat="22.147192" lon="104.333115">
<ele>187.748169</ele>
<time>2011-04-27T07:34:06Z</time>
<desc>lat.=22.147192, lon.=104.333115, Alt.=187.748169m. Speed=0.144000m/h.</desc>
<speed>0.040000</speed>
</trkpt>
<trkpt lat="22.147194" lon="104.333115">
<ele>187.783325</ele>
<time>2011-04-27T07:34:11Z</time>
<desc>lat.=22.147194, lon.=104.333115, Alt.=187.783325m. Speed=0.504000m/h.</desc>
<speed>0.140000</speed>
</trkpt>
<trkpt lat="22.147196" lon="104.333115">
<ele>187.806763</ele>
<time>2011-04-27T07:34:16Z</time>
<desc>lat.=22.147196, lon.=104.333115, Alt.=187.806763m. Speed=0.288000m/h.</desc>
<speed>0.080000</speed>
</trkpt>
<trkpt lat="22.147196" lon="104.333107">
<ele>187.830200</ele>
<time>2011-04-27T07:34:21Z</time>
<desc>lat.=22.147196, lon.=104.333107, Alt.=187.830200m. Speed=0.396000m/h.</desc>
<speed>0.110000</speed>
</trkpt>
<trkpt lat="22.147202" lon="104.333099">
<ele>187.798950</ele>
<time>2011-04-27T07:34:26Z</time>
<desc>lat.=22.147202, lon.=104.333099, Alt.=187.798950m. Speed=0.504000m/h.</desc>
<speed>0.140000</speed>
</trkpt>
<trkpt lat="22.147203" lon="104.333099">
<ele>187.802856</ele>
<time>2011-04-27T07:34:31Z</time>
<desc>lat.=22.147203, lon.=104.333099, Alt.=187.802856m. Speed=0.288000m/h.</desc>
<speed>0.080000</speed>
</trkpt>
<trkpt lat="22.147202" lon="104.333115">
<ele>187.795044</ele>
<time>2011-04-27T07:34:36Z</time>
<desc>lat.=22.147202, lon.=104.333115, Alt.=187.795044m. Speed=1.080000m/h.</desc>
<speed>0.300000</speed>
</trkpt>
<trkpt lat="22.147205" lon="104.333115">
<ele>187.920044</ele>
<time>2011-04-27T07:34:41Z</time>
<desc>lat.=22.147205, lon.=104.333115, Alt.=187.920044m. Speed=0.072000m/h.</desc>
<speed>0.020000</speed>
</trkpt>
<trkpt lat="22.147203" lon="104.333122">
<ele>188.060669</ele>
<time>2011-04-27T07:34:46Z</time>
<desc>lat.=22.147203, lon.=104.333122, Alt.=188.060669m. Speed=0.828000m/h.</desc>
<speed>0.230000</speed>
</trkpt>
<trkpt lat="22.147194" lon="104.333130">
<ele>188.166138</ele>
<time>2011-04-27T07:34:51Z</time>
<desc>lat.=22.147194, lon.=104.333130, Alt.=188.166138m. Speed=0.252000m/h.</desc>
<speed>0.070000</speed>
</trkpt>
<trkpt lat="22.147190" lon="104.333122">
<ele>188.189575</ele>
<time>2011-04-27T07:34:56Z</time>
<desc>lat.=22.147190, lon.=104.333122, Alt.=188.189575m. Speed=0.504000m/h.</desc>
<speed>0.140000</speed>
</trkpt>
<trkpt lat="22.147186" lon="104.333122">
<ele>188.158325</ele>
<time>2011-04-27T07:35:01Z</time>
<desc>lat.=22.147186, lon.=104.333122, Alt.=188.158325m. Speed=0.612000m/h.</desc>
<speed>0.170000</speed>
</trkpt>
<trkpt lat="22.147181" lon="104.333130">
<ele>188.111450</ele>
<time>2011-04-27T07:35:06Z</time>
<desc>lat.=22.147181, lon.=104.333130, Alt.=188.111450m. Speed=0.828000m/h.</desc>
<speed>0.230000</speed>
</trkpt>
<trkpt lat="22.147175" lon="104.333138">
<ele>188.068481</ele>
<time>2011-04-27T07:35:11Z</time>
<desc>lat.=22.147175, lon.=104.333138, Alt.=188.068481m. Speed=0.252000m/h.</desc>
<speed>0.070000</speed>
</trkpt>
<trkpt lat="22.147171" lon="104.333138">
<ele>188.021606</ele>
<time>2011-04-27T07:35:16Z</time>
<desc>lat.=22.147171, lon.=104.333138, Alt.=188.021606m. Speed=0.684000m/h.</desc>
<speed>0.190000</speed>
</trkpt>
<trkpt lat="22.147165" lon="104.333145">
<ele>187.986450</ele>
<time>2011-04-27T07:35:21Z</time>
<desc>lat.=22.147165, lon.=104.333145, Alt.=187.986450m. Speed=0.864000m/h.</desc>
<speed>0.240000</speed>
</trkpt>
<trkpt lat="22.147163" lon="104.333153">
<ele>187.966919</ele>
<time>2011-04-27T07:35:26Z</time>
<desc>lat.=22.147163, lon.=104.333153, Alt.=187.966919m. Speed=0.504000m/h.</desc>
<speed>0.140000</speed>
</trkpt>
<trkpt lat="22.147163" lon="104.333160">
<ele>187.966919</ele>
<time>2011-04-27T07:35:31Z</time>
<desc>lat.=22.147163, lon.=104.333160, Alt.=187.966919m. Speed=0.468000m/h.</desc>
<speed>0.130000</speed>
</trkpt>
<trkpt lat="22.147163" lon="104.333160">
<ele>187.955200</ele>
<time>2011-04-27T07:35:36Z</time>
<desc>lat.=22.147163, lon.=104.333160, Alt.=187.955200m. Speed=0.252000m/h.</desc>
<speed>0.070000</speed>
</trkpt>
<trkpt lat="22.147163" lon="104.333160">
<ele>187.935669</ele>
<time>2011-04-27T07:35:41Z</time>
<desc>lat.=22.147163, lon.=104.333160, Alt.=187.935669m. Speed=0.396000m/h.</desc>
<speed>0.110000</speed>
</trkpt>
<trkpt lat="22.147160" lon="104.333168">
<ele>187.908325</ele>
<time>2011-04-27T07:35:46Z</time>
<desc>lat.=22.147160, lon.=104.333168, Alt.=187.908325m. Speed=0.432000m/h.</desc>
<speed>0.120000</speed>
</trkpt>
<trkpt lat="22.147158" lon="104.333168">
<ele>187.865356</ele>
<time>2011-04-27T07:35:51Z</time>
<desc>lat.=22.147158, lon.=104.333168, Alt.=187.865356m. Speed=0.468000m/h.</desc>
<speed>0.130000</speed>
</trkpt>
<trkpt lat="22.147158" lon="104.333176">
<ele>187.798950</ele>
<time>2011-04-27T07:35:56Z</time>
<desc>lat.=22.147158, lon.=104.333176, Alt.=187.798950m. Speed=2.232000m/h.</desc>
<speed>0.620000</speed>
</trkpt>
<trkpt lat="22.147171" lon="104.333191">
<ele>187.607544</ele>
<time>2011-04-27T07:36:01Z</time>
<desc>lat.=22.147171, lon.=104.333191, Alt.=187.607544m. Speed=3.780000m/h.</desc>
<speed>1.050000</speed>
</trkpt>
<trkpt lat="22.147203" lon="104.333229">
<ele>186.658325</ele>
<time>2011-04-27T07:36:06Z</time>
<desc>lat.=22.147203, lon.=104.333229, Alt.=186.658325m. Speed=4.428000m/h.</desc>
<speed>1.230000</speed>
</trkpt>
<trkpt lat="22.147261" lon="104.333290">
<ele>185.064575</ele>
<time>2011-04-27T07:36:11Z</time>
<desc>lat.=22.147261, lon.=104.333290, Alt.=185.064575m. Speed=10.080000m/h.</desc>
<speed>2.800000</speed>
</trkpt>
<trkpt lat="22.147390" lon="104.333382">
<ele>184.713013</ele>
<time>2011-04-27T07:36:16Z</time>
<desc>lat.=22.147390, lon.=104.333382, Alt.=184.713013m. Speed=14.796000m/h.</desc>
<speed>4.110000</speed>
</trkpt>
<trkpt lat="22.147596" lon="104.333443">
<ele>184.556763</ele>
<time>2011-04-27T07:36:21Z</time>
<desc>lat.=22.147596, lon.=104.333443, Alt.=184.556763m. Speed=17.063999m/h.</desc>
<speed>4.740000</speed>
</trkpt>
<trkpt lat="22.147840" lon="104.333458">
<ele>183.193481</ele>
<time>2011-04-27T07:36:26Z</time>
<desc>lat.=22.147840, lon.=104.333458, Alt.=183.193481m. Speed=17.028000m/h.</desc>
<speed>4.730000</speed>
</trkpt>
<trkpt lat="22.148077" lon="104.333527">
<ele>180.318481</ele>
<time>2011-04-27T07:36:31Z</time>
<desc>lat.=22.148077, lon.=104.333527, Alt.=180.318481m. Speed=19.620001m/h.</desc>
<speed>5.450000</speed>
</trkpt>
<trkpt lat="22.148228" lon="104.333786">
<ele>175.716919</ele>
<time>2011-04-27T07:36:36Z</time>
<desc>lat.=22.148228, lon.=104.333786, Alt.=175.716919m. Speed=23.292000m/h.</desc>
<speed>6.470000</speed>
</trkpt>
<trkpt lat="22.148376" lon="104.334091">
<ele>171.912231</ele>
<time>2011-04-27T07:36:41Z</time>
<desc>lat.=22.148376, lon.=104.334091, Alt.=171.912231m. Speed=25.236000m/h.</desc>
<speed>7.010000</speed>
</trkpt>
<trkpt lat="22.148447" lon="104.334419">
<ele>165.752075</ele>
<time>2011-04-27T07:36:46Z</time>
<desc>lat.=22.148447, lon.=104.334419, Alt.=165.752075m. Speed=23.544001m/h.</desc>
<speed>6.540000</speed>
</trkpt>
<trkpt lat="22.148500" lon="104.334740">
<ele>163.005981</ele>
<time>2011-04-27T07:36:51Z</time>
<desc>lat.=22.148500, lon.=104.334740, Alt.=163.005981m. Speed=22.572001m/h.</desc>
<speed>6.270000</speed>
</trkpt>
<trkpt lat="22.148548" lon="104.335052">
<ele>162.435669</ele>
<time>2011-04-27T07:36:56Z</time>
<desc>lat.=22.148548, lon.=104.335052, Alt.=162.435669m. Speed=22.500000m/h.</desc>
<speed>6.250000</speed>
</trkpt>
<trkpt lat="22.148525" lon="104.335358">
<ele>160.330200</ele>
<time>2011-04-27T07:37:01Z</time>
<desc>lat.=22.148525, lon.=104.335358, Alt.=160.330200m. Speed=22.139999m/h.</desc>
<speed>6.150000</speed>
</trkpt>
<trkpt lat="22.148531" lon="104.335686">
<ele>157.556763</ele>
<time>2011-04-27T07:37:06Z</time>
<desc>lat.=22.148531, lon.=104.335686, Alt.=157.556763m. Speed=24.804001m/h.</desc>
<speed>6.890000</speed>
</trkpt>
<trkpt lat="22.148561" lon="104.336029">
<ele>155.213013</ele>
<time>2011-04-27T07:37:11Z</time>
<desc>lat.=22.148561, lon.=104.336029, Alt.=155.213013m. Speed=24.048000m/h.</desc>
<speed>6.680000</speed>
</trkpt>
<trkpt lat="22.148647" lon="104.336380">
<ele>151.259888</ele>
<time>2011-04-27T07:37:16Z</time>
<desc>lat.=22.148647, lon.=104.336380, Alt.=151.259888m. Speed=28.368000m/h.</desc>
<speed>7.880000</speed>
</trkpt>
<trkpt lat="22.148853" lon="104.336754">
<ele>151.025513</ele>
<time>2011-04-27T07:37:21Z</time>
<desc>lat.=22.148853, lon.=104.336754, Alt.=151.025513m. Speed=29.448000m/h.</desc>
<speed>8.180000</speed>
</trkpt>
<trkpt lat="22.148968" lon="104.337044">
<ele>150.650513</ele>
<time>2011-04-27T07:37:26Z</time>
<desc>lat.=22.148968, lon.=104.337044, Alt.=150.650513m. Speed=21.167999m/h.</desc>
<speed>5.880000</speed>
</trkpt>
<trkpt lat="22.149012" lon="104.337303">
<ele>150.533325</ele>
<time>2011-04-27T07:37:31Z</time>
<desc>lat.=22.149012, lon.=104.337303, Alt.=150.533325m. Speed=17.820000m/h.</desc>
<speed>4.950000</speed>
</trkpt>
<trkpt lat="22.149033" lon="104.337532">
<ele>149.830200</ele>
<time>2011-04-27T07:37:36Z</time>
<desc>lat.=22.149033, lon.=104.337532, Alt.=149.830200m. Speed=17.280001m/h.</desc>
<speed>4.800000</speed>
</trkpt>
<trkpt lat="22.149124" lon="104.337730">
<ele>147.845825</ele>
<time>2011-04-27T07:37:41Z</time>
<desc>lat.=22.149124, lon.=104.337730, Alt.=147.845825m. Speed=15.804000m/h.</desc>
<speed>4.390000</speed>
</trkpt>
<trkpt lat="22.149273" lon="104.337898">
<ele>148.334106</ele>
<time>2011-04-27T07:37:46Z</time>
<desc>lat.=22.149273, lon.=104.337898, Alt.=148.334106m. Speed=18.431999m/h.</desc>
<speed>5.120000</speed>
</trkpt>
<trkpt lat="22.149387" lon="104.338158">
<ele>146.896606</ele>
<time>2011-04-27T07:37:51Z</time>
<desc>lat.=22.149387, lon.=104.338158, Alt.=146.896606m. Speed=23.364000m/h.</desc>
<speed>6.490000</speed>
</trkpt>
<trkpt lat="22.149456" lon="104.338509">
<ele>141.412231</ele>
<time>2011-04-27T07:37:56Z</time>
<desc>lat.=22.149456, lon.=104.338509, Alt.=141.412231m. Speed=27.972000m/h.</desc>
<speed>7.770000</speed>
</trkpt>
<trkpt lat="22.149475" lon="104.338814">
<ele>138.588013</ele>
<time>2011-04-27T07:38:01Z</time>
<desc>lat.=22.149475, lon.=104.338814, Alt.=138.588013m. Speed=17.316000m/h.</desc>
<speed>4.810000</speed>
</trkpt>
<trkpt lat="22.149475" lon="104.339066">
<ele>135.474731</ele>
<time>2011-04-27T07:38:06Z</time>
<desc>lat.=22.149475, lon.=104.339066, Alt.=135.474731m. Speed=21.420000m/h.</desc>
<speed>5.950000</speed>
</trkpt>
<trkpt lat="22.149412" lon="104.339386">
<ele>133.193481</ele>
<time>2011-04-27T07:38:11Z</time>
<desc>lat.=22.149412, lon.=104.339386, Alt.=133.193481m. Speed=26.136000m/h.</desc>
<speed>7.260000</speed>
</trkpt>
<trkpt lat="22.149506" lon="104.339783">
<ele>126.876038</ele>
<time>2011-04-27T07:38:16Z</time>
<desc>lat.=22.149506, lon.=104.339783, Alt.=126.876038m. Speed=33.624001m/h.</desc>
<speed>9.340000</speed>
</trkpt>
<trkpt lat="22.149689" lon="104.340195">
<ele>121.395569</ele>
<time>2011-04-27T07:38:21Z</time>
<desc>lat.=22.149689, lon.=104.340195, Alt.=121.395569m. Speed=31.608000m/h.</desc>
<speed>8.780000</speed>
</trkpt>
<trkpt lat="22.150068" lon="104.340324">
<ele>118.506897</ele>
<time>2011-04-27T07:38:26Z</time>
<desc>lat.=22.150068, lon.=104.340324, Alt.=118.506897m. Speed=29.664000m/h.</desc>
<speed>8.240000</speed>
</trkpt>
<trkpt lat="22.150343" lon="104.340508">
<ele>112.436584</ele>
<time>2011-04-27T07:38:31Z</time>
<desc>lat.=22.150343, lon.=104.340508, Alt.=112.436584m. Speed=27.360001m/h.</desc>
<speed>7.600000</speed>
</trkpt>
<trkpt lat="22.150267" lon="104.340858">
<ele>110.028381</ele>
<time>2011-04-27T07:38:36Z</time>
<desc>lat.=22.150267, lon.=104.340858, Alt.=110.028381m. Speed=24.264000m/h.</desc>
<speed>6.740000</speed>
</trkpt>
<trkpt lat="22.150137" lon="104.341095">
<ele>109.446350</ele>
<time>2011-04-27T07:38:41Z</time>
<desc>lat.=22.150137, lon.=104.341095, Alt.=109.446350m. Speed=23.688000m/h.</desc>
<speed>6.580000</speed>
</trkpt>
<trkpt lat="22.150072" lon="104.341331">
<ele>106.465881</ele>
<time>2011-04-27T07:38:46Z</time>
<desc>lat.=22.150072, lon.=104.341331, Alt.=106.465881m. Speed=7.524000m/h.</desc>
<speed>2.090000</speed>
</trkpt>
<trkpt lat="22.150072" lon="104.341438">
<ele>105.866272</ele>
<time>2011-04-27T07:38:51Z</time>
<desc>lat.=22.150072, lon.=104.341438, Alt.=105.866272m. Speed=6.156000m/h.</desc>
<speed>1.710000</speed>
</trkpt>
<trkpt lat="22.150057" lon="104.341492">
<ele>106.010803</ele>
<time>2011-04-27T07:38:56Z</time>
<desc>lat.=22.150057, lon.=104.341492, Alt.=106.010803m. Speed=0.540000m/h.</desc>
<speed>0.150000</speed>
</trkpt>
<trkpt lat="22.150051" lon="104.341484">
<ele>105.266663</ele>
<time>2011-04-27T07:39:01Z</time>
<desc>lat.=22.150051, lon.=104.341484, Alt.=105.266663m. Speed=0.144000m/h.</desc>
<speed>0.040000</speed>
</trkpt>
<trkpt lat="22.150051" lon="104.341484">
<ele>105.178772</ele>
<time>2011-04-27T07:39:06Z</time>
<desc>lat.=22.150051, lon.=104.341484, Alt.=105.178772m. Speed=0.324000m/h.</desc>
<speed>0.090000</speed>
</trkpt>
<trkpt lat="22.150053" lon="104.341484">
<ele>105.180725</ele>
<time>2011-04-27T07:39:11Z</time>
<desc>lat.=22.150053, lon.=104.341484, Alt.=105.180725m. Speed=0.432000m/h.</desc>
<speed>0.120000</speed>
</trkpt>
<trkpt lat="22.150055" lon="104.341492">
<ele>105.237366</ele>
<time>2011-04-27T07:39:16Z</time>
<desc>lat.=22.150055, lon.=104.341492, Alt.=105.237366m. Speed=0.360000m/h.</desc>
<speed>0.100000</speed>
</trkpt>
<trkpt lat="22.150057" lon="104.341492">
<ele>105.284241</ele>
<time>2011-04-27T07:39:21Z</time>
<desc>lat.=22.150057, lon.=104.341492, Alt.=105.284241m. Speed=0.792000m/h.</desc>
<speed>0.220000</speed>
</trkpt>
<trkpt lat="22.150053" lon="104.341492">
<ele>105.258850</ele>
<time>2011-04-27T07:39:26Z</time>
<desc>lat.=22.150053, lon.=104.341492, Alt.=105.258850m. Speed=0.504000m/h.</desc>
<speed>0.140000</speed>
</trkpt>
<trkpt lat="22.150049" lon="104.341499">
<ele>105.258850</ele>
<time>2011-04-27T07:39:31Z</time>
<desc>lat.=22.150049, lon.=104.341499, Alt.=105.258850m. Speed=0.324000m/h.</desc>
<speed>0.090000</speed>
</trkpt>
<trkpt lat="22.150045" lon="104.341499">
<ele>105.278381</ele>
<time>2011-04-27T07:39:36Z</time>
<desc>lat.=22.150045, lon.=104.341499, Alt.=105.278381m. Speed=0.432000m/h.</desc>
<speed>0.120000</speed>
</trkpt>
<trkpt lat="22.150040" lon="104.341492">
<ele>105.309631</ele>
<time>2011-04-27T07:39:41Z</time>
<desc>lat.=22.150040, lon.=104.341492, Alt.=105.309631m. Speed=0.072000m/h.</desc>
<speed>0.020000</speed>
</trkpt>
<trkpt lat="22.150042" lon="104.341492">
<ele>105.303772</ele>
<time>2011-04-27T07:39:46Z</time>
<desc>lat.=22.150042, lon.=104.341492, Alt.=105.303772m. Speed=0.540000m/h.</desc>
<speed>0.150000</speed>
</trkpt>
<trkpt lat="22.150030" lon="104.341499">
<ele>105.073303</ele>
<time>2011-04-27T07:39:51Z</time>
<desc>lat.=22.150030, lon.=104.341499, Alt.=105.073303m. Speed=4.068000m/h.</desc>
<speed>1.130000</speed>
</trkpt>
<trkpt lat="22.150049" lon="104.341660">
<ele>104.051819</ele>
<time>2011-04-27T07:39:56Z</time>
<desc>lat.=22.150049, lon.=104.341660, Alt.=104.051819m. Speed=12.564000m/h.</desc>
<speed>3.490000</speed>
</trkpt>
<trkpt lat="22.150156" lon="104.341835">
<ele>104.934631</ele>
<time>2011-04-27T07:40:01Z</time>
<desc>lat.=22.150156, lon.=104.341835, Alt.=104.934631m. Speed=13.860000m/h.</desc>
<speed>3.850000</speed>
</trkpt>
<trkpt lat="22.150267" lon="104.341995">
<ele>103.401428</ele>
<time>2011-04-27T07:40:06Z</time>
<desc>lat.=22.150267, lon.=104.341995, Alt.=103.401428m. Speed=14.940000m/h.</desc>
<speed>4.150000</speed>
</trkpt>
<trkpt lat="22.150373" lon="104.342125">
<ele>101.112366</ele>
<time>2011-04-27T07:40:11Z</time>
<desc>lat.=22.150373, lon.=104.342125, Alt.=101.112366m. Speed=10.944000m/h.</desc>
<speed>3.040000</speed>
</trkpt>
<trkpt lat="22.150488" lon="104.342239">
<ele>101.559631</ele>
<time>2011-04-27T07:40:16Z</time>
<desc>lat.=22.150488, lon.=104.342239, Alt.=101.559631m. Speed=11.124000m/h.</desc>
<speed>3.090000</speed>
</trkpt>
<trkpt lat="22.150618" lon="104.342339">
<ele>99.342834</ele>
<time>2011-04-27T07:40:21Z</time>
<desc>lat.=22.150618, lon.=104.342339, Alt.=99.342834m. Speed=12.492000m/h.</desc>
<speed>3.470000</speed>
</trkpt>
<trkpt lat="22.150743" lon="104.342438">
<ele>99.014709</ele>
<time>2011-04-27T07:40:26Z</time>
<desc>lat.=22.150743, lon.=104.342438, Alt.=99.014709m. Speed=14.292000m/h.</desc>
<speed>3.970000</speed>
</trkpt>
<trkpt lat="22.150770" lon="104.342636">
<ele>96.715881</ele>
<time>2011-04-27T07:40:31Z</time>
<desc>lat.=22.150770, lon.=104.342636, Alt.=96.715881m. Speed=15.588000m/h.</desc>
<speed>4.330000</speed>
</trkpt>
<trkpt lat="22.150785" lon="104.342865">
<ele>94.606506</ele>
<time>2011-04-27T07:40:36Z</time>
<desc>lat.=22.150785, lon.=104.342865, Alt.=94.606506m. Speed=15.012000m/h.</desc>
<speed>4.170000</speed>
</trkpt>
<trkpt lat="22.150831" lon="104.343086">
<ele>91.508850</ele>
<time>2011-04-27T07:40:41Z</time>
<desc>lat.=22.150831, lon.=104.343086, Alt.=91.508850m. Speed=13.392000m/h.</desc>
<speed>3.720000</speed>
</trkpt>
<trkpt lat="22.150919" lon="104.343292">
<ele>92.514709</ele>
<time>2011-04-27T07:40:46Z</time>
<desc>lat.=22.150919, lon.=104.343292, Alt.=92.514709m. Speed=16.632000m/h.</desc>
<speed>4.620000</speed>
</trkpt>
<trkpt lat="22.151033" lon="104.343491">
<ele>91.778381</ele>
<time>2011-04-27T07:40:51Z</time>
<desc>lat.=22.151033, lon.=104.343491, Alt.=91.778381m. Speed=17.892000m/h.</desc>
<speed>4.970000</speed>
</trkpt>
<trkpt lat="22.151154" lon="104.343727">
<ele>90.233459</ele>
<time>2011-04-27T07:40:56Z</time>
<desc>lat.=22.151154, lon.=104.343727, Alt.=90.233459m. Speed=20.591999m/h.</desc>
<speed>5.720000</speed>
</trkpt>
<trkpt lat="22.151260" lon="104.343994">
<ele>89.389709</ele>
<time>2011-04-27T07:41:01Z</time>
<desc>lat.=22.151260, lon.=104.343994, Alt.=89.389709m. Speed=19.115999m/h.</desc>
<speed>5.310000</speed>
</trkpt>
<trkpt lat="22.151329" lon="104.344154">
<ele>90.161194</ele>
<time>2011-04-27T07:41:06Z</time>
<desc>lat.=22.151329, lon.=104.344154, Alt.=90.161194m. Speed=9.720000m/h.</desc>
<speed>2.700000</speed>
</trkpt>
<trkpt lat="22.151382" lon="104.344238">
<ele>88.717834</ele>
<time>2011-04-27T07:41:11Z</time>
<desc>lat.=22.151382, lon.=104.344238, Alt.=88.717834m. Speed=8.352000m/h.</desc>
<speed>2.320000</speed>
</trkpt>
<trkpt lat="22.151423" lon="104.344292">
<ele>89.577209</ele>
<time>2011-04-27T07:41:16Z</time>
<desc>lat.=22.151423, lon.=104.344292, Alt.=89.577209m. Speed=0.576000m/h.</desc>
<speed>0.160000</speed>
</trkpt>
<trkpt lat="22.151442" lon="104.344292">
<ele>88.454163</ele>
<time>2011-04-27T07:41:21Z</time>
<desc>lat.=22.151442, lon.=104.344292, Alt.=88.454163m. Speed=0.036000m/h.</desc>
<speed>0.010000</speed>
</trkpt>
<trkpt lat="22.151440" lon="104.344292">
<ele>88.383850</ele>
<time>2011-04-27T07:41:26Z</time>
<desc>lat.=22.151440, lon.=104.344292, Alt.=88.383850m. Speed=0.216000m/h.</desc>
<speed>0.060000</speed>
</trkpt>
<trkpt lat="22.151442" lon="104.344292">
<ele>88.389709</ele>
<time>2011-04-27T07:41:31Z</time>
<desc>lat.=22.151442, lon.=104.344292, Alt.=88.389709m. Speed=0.000000m/h.</desc>
<speed>0.000000</speed>
</trkpt>
<trkpt lat="22.151442" lon="104.344292">
<ele>88.366272</ele>
<time>2011-04-27T07:41:36Z</time>
<desc>lat.=22.151442, lon.=104.344292, Alt.=88.366272m. Speed=0.036000m/h.</desc>
<speed>0.010000</speed>
</trkpt>
<trkpt lat="22.151442" lon="104.344292">
<ele>88.354553</ele>
<time>2011-04-27T07:41:41Z</time>
<desc>lat.=22.151442, lon.=104.344292, Alt.=88.354553m. Speed=0.036000m/h.</desc>
<speed>0.010000</speed>
</trkpt>
<trkpt lat="22.151442" lon="104.344292">
<ele>88.325256</ele>
<time>2011-04-27T07:41:46Z</time>
<desc>lat.=22.151442, lon.=104.344292, Alt.=88.325256m. Speed=0.108000m/h.</desc>
<speed>0.030000</speed>
</trkpt>
<trkpt lat="22.151442" lon="104.344292">
<ele>88.262756</ele>
<time>2011-04-27T07:41:51Z</time>
<desc>lat.=22.151442, lon.=104.344292, Alt.=88.262756m. Speed=0.000000m/h.</desc>
<speed>0.000000</speed>
</trkpt>
<trkpt lat="22.151442" lon="104.344292">
<ele>88.245178</ele>
<time>2011-04-27T07:41:56Z</time>
<desc>lat.=22.151442, lon.=104.344292, Alt.=88.245178m. Speed=0.036000m/h.</desc>
<speed>0.010000</speed>
</trkpt>
<trkpt lat="22.151440" lon="104.344292">
<ele>88.243225</ele>
<time>2011-04-27T07:42:01Z</time>
<desc>lat.=22.151440, lon.=104.344292, Alt.=88.243225m. Speed=0.000000m/h.</desc>
<speed>0.000000</speed>
</trkpt>
<trkpt lat="22.151440" lon="104.344292">
<ele>88.235413</ele>
<time>2011-04-27T07:42:06Z</time>
<desc>lat.=22.151440, lon.=104.344292, Alt.=88.235413m. Speed=0.072000m/h.</desc>
<speed>0.020000</speed>
</trkpt>
<trkpt lat="22.151440" lon="104.344292">
<ele>88.243225</ele>
<time>2011-04-27T07:42:11Z</time>
<desc>lat.=22.151440, lon.=104.344292, Alt.=88.243225m. Speed=0.072000m/h.</desc>
<speed>0.020000</speed>
</trkpt>
<trkpt lat="22.151440" lon="104.344292">
<ele>88.256897</ele>
<time>2011-04-27T07:42:16Z</time>
<desc>lat.=22.151440, lon.=104.344292, Alt.=88.256897m. Speed=0.036000m/h.</desc>
<speed>0.010000</speed>
</trkpt>
<trkpt lat="22.151440" lon="104.344292">
<ele>88.266663</ele>
<time>2011-04-27T07:42:21Z</time>
<desc>lat.=22.151440, lon.=104.344292, Alt.=88.266663m. Speed=0.000000m/h.</desc>
<speed>0.000000</speed>
</trkpt>
<trkpt lat="22.151440" lon="104.344292">
<ele>88.270569</ele>
<time>2011-04-27T07:42:26Z</time>
<desc>lat.=22.151440, lon.=104.344292, Alt.=88.270569m. Speed=0.108000m/h.</desc>
<speed>0.030000</speed>
</trkpt>
<trkpt lat="22.151440" lon="104.344292">
<ele>88.272522</ele>
<time>2011-04-27T07:42:31Z</time>
<desc>lat.=22.151440, lon.=104.344292, Alt.=88.272522m. Speed=0.000000m/h.</desc>
<speed>0.000000</speed>
</trkpt>
<trkpt lat="22.151440" lon="104.344292">
<ele>88.260803</ele>
<time>2011-04-27T07:42:36Z</time>
<desc>lat.=22.151440, lon.=104.344292, Alt.=88.260803m. Speed=0.036000m/h.</desc>
<speed>0.010000</speed>
</trkpt>
<trkpt lat="22.151440" lon="104.344292">
<ele>88.260803</ele>
<time>2011-04-27T07:42:41Z</time>
<desc>lat.=22.151440, lon.=104.344292, Alt.=88.260803m. Speed=0.108000m/h.</desc>
<speed>0.030000</speed>
</trkpt>
<trkpt lat="22.151438" lon="104.344307">
<ele>88.251038</ele>
<time>2011-04-27T07:42:46Z</time>
<desc>lat.=22.151438, lon.=104.344307, Alt.=88.251038m. Speed=5.040000m/h.</desc>
<speed>1.400000</speed>
</trkpt>
<trkpt lat="22.151449" lon="104.344406">
<ele>87.833069</ele>
<time>2011-04-27T07:42:51Z</time>
<desc>lat.=22.151449, lon.=104.344406, Alt.=87.833069m. Speed=6.804000m/h.</desc>
<speed>1.890000</speed>
</trkpt>
<trkpt lat="22.151484" lon="104.344513">
<ele>88.372131</ele>
<time>2011-04-27T07:42:56Z</time>
<desc>lat.=22.151484, lon.=104.344513, Alt.=88.372131m. Speed=9.072000m/h.</desc>
<speed>2.520000</speed>
</trkpt>
<trkpt lat="22.151524" lon="104.344635">
<ele>89.608459</ele>
<time>2011-04-27T07:43:01Z</time>
<desc>lat.=22.151524, lon.=104.344635, Alt.=89.608459m. Speed=8.856000m/h.</desc>
<speed>2.460000</speed>
</trkpt>
<trkpt lat="22.151569" lon="104.344742">
<ele>89.897522</ele>
<time>2011-04-27T07:43:06Z</time>
<desc>lat.=22.151569, lon.=104.344742, Alt.=89.897522m. Speed=6.804000m/h.</desc>
<speed>1.890000</speed>
</trkpt>
<trkpt lat="22.151608" lon="104.344856">
<ele>89.936584</ele>
<time>2011-04-27T07:43:11Z</time>
<desc>lat.=22.151608, lon.=104.344856, Alt.=89.936584m. Speed=7.632000m/h.</desc>
<speed>2.120000</speed>
</trkpt>
<trkpt lat="22.151642" lon="104.344948">
<ele>90.229553</ele>
<time>2011-04-27T07:43:16Z</time>
<desc>lat.=22.151642, lon.=104.344948, Alt.=90.229553m. Speed=6.696000m/h.</desc>
<speed>1.860000</speed>
</trkpt>
<trkpt lat="22.151676" lon="104.345016">
<ele>91.024475</ele>
<time>2011-04-27T07:43:21Z</time>
<desc>lat.=22.151676, lon.=104.345016, Alt.=91.024475m. Speed=0.252000m/h.</desc>
<speed>0.070000</speed>
</trkpt>
<trkpt lat="22.151682" lon="104.345039">
<ele>91.465881</ele>
<time>2011-04-27T07:43:26Z</time>
<desc>lat.=22.151682, lon.=104.345039, Alt.=91.465881m. Speed=0.288000m/h.</desc>
<speed>0.080000</speed>
</trkpt>
<trkpt lat="22.151684" lon="104.345039">
<ele>91.540100</ele>
<time>2011-04-27T07:43:31Z</time>
<desc>lat.=22.151684, lon.=104.345039, Alt.=91.540100m. Speed=0.072000m/h.</desc>
<speed>0.020000</speed>
</trkpt>
<trkpt lat="22.151682" lon="104.345047">
<ele>91.577209</ele>
<time>2011-04-27T07:43:36Z</time>
<desc>lat.=22.151682, lon.=104.345047, Alt.=91.577209m. Speed=0.288000m/h.</desc>
<speed>0.080000</speed>
</trkpt>
<trkpt lat="22.151684" lon="104.345047">
<ele>91.579163</ele>
<time>2011-04-27T07:43:41Z</time>
<desc>lat.=22.151684, lon.=104.345047, Alt.=91.579163m. Speed=0.108000m/h.</desc>
<speed>0.030000</speed>
</trkpt>
<trkpt lat="22.151682" lon="104.345047">
<ele>91.594788</ele>
<time>2011-04-27T07:43:46Z</time>
<desc>lat.=22.151682, lon.=104.345047, Alt.=91.594788m. Speed=0.288000m/h.</desc>
<speed>0.080000</speed>
</trkpt>
<trkpt lat="22.151684" lon="104.345047">
<ele>91.610413</ele>
<time>2011-04-27T07:43:51Z</time>
<desc>lat.=22.151684, lon.=104.345047, Alt.=91.610413m. Speed=0.144000m/h.</desc>
<speed>0.040000</speed>
</trkpt>
<trkpt lat="22.151688" lon="104.345047">
<ele>91.610413</ele>
<time>2011-04-27T07:43:56Z</time>
<desc>lat.=22.151688, lon.=104.345047, Alt.=91.610413m. Speed=0.648000m/h.</desc>
<speed>0.180000</speed>
</trkpt>
<trkpt lat="22.151690" lon="104.345047">
<ele>91.596741</ele>
<time>2011-04-27T07:44:01Z</time>
<desc>lat.=22.151690, lon.=104.345047, Alt.=91.596741m. Speed=0.180000m/h.</desc>
<speed>0.050000</speed>
</trkpt>
<trkpt lat="22.151693" lon="104.345047">
<ele>91.586975</ele>
<time>2011-04-27T07:44:06Z</time>
<desc>lat.=22.151693, lon.=104.345047, Alt.=91.586975m. Speed=0.180000m/h.</desc>
<speed>0.050000</speed>
</trkpt>
<trkpt lat="22.151695" lon="104.345047">
<ele>91.553772</ele>
<time>2011-04-27T07:44:11Z</time>
<desc>lat.=22.151695, lon.=104.345047, Alt.=91.553772m. Speed=0.252000m/h.</desc>
<speed>0.070000</speed>
</trkpt>
<trkpt lat="22.151695" lon="104.345047">
<ele>91.526428</ele>
<time>2011-04-27T07:44:16Z</time>
<desc>lat.=22.151695, lon.=104.345047, Alt.=91.526428m. Speed=0.900000m/h.</desc>
<speed>0.250000</speed>
</trkpt>
<trkpt lat="22.151695" lon="104.345078">
<ele>91.774475</ele>
<time>2011-04-27T07:44:21Z</time>
<desc>lat.=22.151695, lon.=104.345078, Alt.=91.774475m. Speed=3.708000m/h.</desc>
<speed>1.030000</speed>
</trkpt>
<trkpt lat="22.151724" lon="104.345177">
<ele>92.004944</ele>
<time>2011-04-27T07:44:26Z</time>
<desc>lat.=22.151724, lon.=104.345177, Alt.=92.004944m. Speed=10.260000m/h.</desc>
<speed>2.850000</speed>
</trkpt>
<trkpt lat="22.151785" lon="104.345314">
<ele>92.440491</ele>
<time>2011-04-27T07:44:31Z</time>
<desc>lat.=22.151785, lon.=104.345314, Alt.=92.440491m. Speed=9.360000m/h.</desc>
<speed>2.600000</speed>
</trkpt>
<trkpt lat="22.151846" lon="104.345428">
<ele>92.516663</ele>
<time>2011-04-27T07:44:36Z</time>
<desc>lat.=22.151846, lon.=104.345428, Alt.=92.516663m. Speed=10.332000m/h.</desc>
<speed>2.870000</speed>
</trkpt>
<trkpt lat="22.151894" lon="104.345558">
<ele>92.924866</ele>
<time>2011-04-27T07:44:41Z</time>
<desc>lat.=22.151894, lon.=104.345558, Alt.=92.924866m. Speed=9.756000m/h.</desc>
<speed>2.710000</speed>
</trkpt>
<trkpt lat="22.151943" lon="104.345673">
<ele>93.274475</ele>
<time>2011-04-27T07:44:46Z</time>
<desc>lat.=22.151943, lon.=104.345673, Alt.=93.274475m. Speed=10.620000m/h.</desc>
<speed>2.950000</speed>
</trkpt>
<trkpt lat="22.152029" lon="104.345802">
<ele>92.042053</ele>
<time>2011-04-27T07:44:51Z</time>
<desc>lat.=22.152029, lon.=104.345802, Alt.=92.042053m. Speed=12.204000m/h.</desc>
<speed>3.390000</speed>
</trkpt>
<trkpt lat="22.152149" lon="104.345909">
<ele>91.114319</ele>
<time>2011-04-27T07:44:56Z</time>
<desc>lat.=22.152149, lon.=104.345909, Alt.=91.114319m. Speed=12.312000m/h.</desc>
<speed>3.420000</speed>
</trkpt>
<trkpt lat="22.152281" lon="104.345970">
<ele>88.417053</ele>
<time>2011-04-27T07:45:01Z</time>
<desc>lat.=22.152281, lon.=104.345970, Alt.=88.417053m. Speed=9.720000m/h.</desc>
<speed>2.700000</speed>
</trkpt>
<trkpt lat="22.152365" lon="104.345993">
<ele>88.024475</ele>
<time>2011-04-27T07:45:06Z</time>
<desc>lat.=22.152365, lon.=104.345993, Alt.=88.024475m. Speed=9.900000m/h.</desc>
<speed>2.750000</speed>
</trkpt>
<trkpt lat="22.152493" lon="104.346016">
<ele>86.315491</ele>
<time>2011-04-27T07:45:11Z</time>
<desc>lat.=22.152493, lon.=104.346016, Alt.=86.315491m. Speed=11.700000m/h.</desc>
<speed>3.250000</speed>
</trkpt>
<trkpt lat="22.152678" lon="104.346046">
<ele>85.579163</ele>
<time>2011-04-27T07:45:16Z</time>
<desc>lat.=22.152678, lon.=104.346046, Alt.=85.579163m. Speed=15.552000m/h.</desc>
<speed>4.320000</speed>
</trkpt>
<trkpt lat="22.152855" lon="104.346069">
<ele>84.303772</ele>
<time>2011-04-27T07:45:21Z</time>
<desc>lat.=22.152855, lon.=104.346069, Alt.=84.303772m. Speed=9.108000m/h.</desc>
<speed>2.530000</speed>
</trkpt>
<trkpt lat="22.152988" lon="104.346069">
<ele>81.569397</ele>
<time>2011-04-27T07:45:26Z</time>
<desc>lat.=22.152988, lon.=104.346069, Alt.=81.569397m. Speed=6.516000m/h.</desc>
<speed>1.810000</speed>
</trkpt>
<trkpt lat="22.153101" lon="104.346077">
<ele>82.299866</ele>
<time>2011-04-27T07:45:31Z</time>
<desc>lat.=22.153101, lon.=104.346077, Alt.=82.299866m. Speed=6.696000m/h.</desc>
<speed>1.860000</speed>
</trkpt>
<trkpt lat="22.153198" lon="104.346069">
<ele>83.704163</ele>
<time>2011-04-27T07:45:36Z</time>
<desc>lat.=22.153198, lon.=104.346069, Alt.=83.704163m. Speed=7.020000m/h.</desc>
<speed>1.950000</speed>
</trkpt>
<trkpt lat="22.153286" lon="104.346077">
<ele>79.141663</ele>
<time>2011-04-27T07:45:41Z</time>
<desc>lat.=22.153286, lon.=104.346077, Alt.=79.141663m. Speed=4.896000m/h.</desc>
<speed>1.360000</speed>
</trkpt>
<trkpt lat="22.153358" lon="104.346069">
<ele>73.297913</ele>
<time>2011-04-27T07:45:46Z</time>
<desc>lat.=22.153358, lon.=104.346069, Alt.=73.297913m. Speed=5.868000m/h.</desc>
<speed>1.630000</speed>
</trkpt>
<trkpt lat="22.153418" lon="104.346077">
<ele>72.579163</ele>
<time>2011-04-27T07:45:51Z</time>
<desc>lat.=22.153418, lon.=104.346077, Alt.=72.579163m. Speed=4.104000m/h.</desc>
<speed>1.140000</speed>
</trkpt>
<trkpt lat="22.153484" lon="104.346077">
<ele>73.977600</ele>
<time>2011-04-27T07:45:56Z</time>
<desc>lat.=22.153484, lon.=104.346077, Alt.=73.977600m. Speed=3.960000m/h.</desc>
<speed>1.100000</speed>
</trkpt>
<trkpt lat="22.153557" lon="104.346100">
<ele>74.592834</ele>
<time>2011-04-27T07:46:01Z</time>
<desc>lat.=22.153557, lon.=104.346100, Alt.=74.592834m. Speed=6.948000m/h.</desc>
<speed>1.930000</speed>
</trkpt>
<trkpt lat="22.153625" lon="104.346169">
<ele>77.299866</ele>
<time>2011-04-27T07:46:06Z</time>
<desc>lat.=22.153625, lon.=104.346169, Alt.=77.299866m. Speed=4.644000m/h.</desc>
<speed>1.290000</speed>
</trkpt>
<trkpt lat="22.153715" lon="104.346184">
<ele>77.514709</ele>
<time>2011-04-27T07:46:11Z</time>
<desc>lat.=22.153715, lon.=104.346184, Alt.=77.514709m. Speed=6.660000m/h.</desc>
<speed>1.850000</speed>
</trkpt>
<trkpt lat="22.153835" lon="104.346161">
<ele>75.930725</ele>
<time>2011-04-27T07:46:16Z</time>
<desc>lat.=22.153835, lon.=104.346161, Alt.=75.930725m. Speed=6.264000m/h.</desc>
<speed>1.740000</speed>
</trkpt>
<trkpt lat="22.153919" lon="104.346207">
<ele>79.280334</ele>
<time>2011-04-27T07:46:21Z</time>
<desc>lat.=22.153919, lon.=104.346207, Alt.=79.280334m. Speed=7.380000m/h.</desc>
<speed>2.050000</speed>
</trkpt>
<trkpt lat="22.154013" lon="104.346230">
<ele>79.727600</ele>
<time>2011-04-27T07:46:26Z</time>
<desc>lat.=22.154013, lon.=104.346230, Alt.=79.727600m. Speed=7.704000m/h.</desc>
<speed>2.140000</speed>
</trkpt>
<trkpt lat="22.154114" lon="104.346260">
<ele>80.934631</ele>
<time>2011-04-27T07:46:31Z</time>
<desc>lat.=22.154114, lon.=104.346260, Alt.=80.934631m. Speed=7.272000m/h.</desc>
<speed>2.020000</speed>
</trkpt>
<trkpt lat="22.154203" lon="104.346283">
<ele>82.938538</ele>
<time>2011-04-27T07:46:36Z</time>
<desc>lat.=22.154203, lon.=104.346283, Alt.=82.938538m. Speed=7.884000m/h.</desc>
<speed>2.190000</speed>
</trkpt>
<trkpt lat="22.154312" lon="104.346313">
<ele>85.350647</ele>
<time>2011-04-27T07:46:41Z</time>
<desc>lat.=22.154312, lon.=104.346313, Alt.=85.350647m. Speed=6.732000m/h.</desc>
<speed>1.870000</speed>
</trkpt>
<trkpt lat="22.154398" lon="104.346329">
<ele>85.858459</ele>
<time>2011-04-27T07:46:46Z</time>
<desc>lat.=22.154398, lon.=104.346329, Alt.=85.858459m. Speed=6.948000m/h.</desc>
<speed>1.930000</speed>
</trkpt>
<trkpt lat="22.154476" lon="104.346367">
<ele>85.639709</ele>
<time>2011-04-27T07:46:51Z</time>
<desc>lat.=22.154476, lon.=104.346367, Alt.=85.639709m. Speed=5.148000m/h.</desc>
<speed>1.430000</speed>
</trkpt>
<trkpt lat="22.154547" lon="104.346375">
<ele>87.133850</ele>
<time>2011-04-27T07:46:56Z</time>
<desc>lat.=22.154547, lon.=104.346375, Alt.=87.133850m. Speed=6.120000m/h.</desc>
<speed>1.700000</speed>
</trkpt>
<trkpt lat="22.154623" lon="104.346405">
<ele>89.751038</ele>
<time>2011-04-27T07:47:01Z</time>
<desc>lat.=22.154623, lon.=104.346405, Alt.=89.751038m. Speed=4.212000m/h.</desc>
<speed>1.170000</speed>
</trkpt>
<trkpt lat="22.154697" lon="104.346413">
<ele>91.456116</ele>
<time>2011-04-27T07:47:06Z</time>
<desc>lat.=22.154697, lon.=104.346413, Alt.=91.456116m. Speed=4.176000m/h.</desc>
<speed>1.160000</speed>
</trkpt>
<trkpt lat="22.154764" lon="104.346420">
<ele>93.073303</ele>
<time>2011-04-27T07:47:11Z</time>
<desc>lat.=22.154764, lon.=104.346420, Alt.=93.073303m. Speed=4.536000m/h.</desc>
<speed>1.260000</speed>
</trkpt>
<trkpt lat="22.154831" lon="104.346413">
<ele>95.684631</ele>
<time>2011-04-27T07:47:16Z</time>
<desc>lat.=22.154831, lon.=104.346413, Alt.=95.684631m. Speed=4.032000m/h.</desc>
<speed>1.120000</speed>
</trkpt>
<trkpt lat="22.154915" lon="104.346428">
<ele>98.571350</ele>
<time>2011-04-27T07:47:21Z</time>
<desc>lat.=22.154915, lon.=104.346428, Alt.=98.571350m. Speed=4.212000m/h.</desc>
<speed>1.170000</speed>
</trkpt>
<trkpt lat="22.155033" lon="104.346428">
<ele>102.100647</ele>
<time>2011-04-27T07:47:26Z</time>
<desc>lat.=22.155033, lon.=104.346428, Alt.=102.100647m. Speed=5.904000m/h.</desc>
<speed>1.640000</speed>
</trkpt>
<trkpt lat="22.155073" lon="104.346413">
<ele>101.436584</ele>
<time>2011-04-27T07:47:31Z</time>
<desc>lat.=22.155073, lon.=104.346413, Alt.=101.436584m. Speed=5.040000m/h.</desc>
<speed>1.400000</speed>
</trkpt>
<trkpt lat="22.155148" lon="104.346420">
<ele>101.360413</ele>
<time>2011-04-27T07:47:36Z</time>
<desc>lat.=22.155148, lon.=104.346420, Alt.=101.360413m. Speed=5.724000m/h.</desc>
<speed>1.590000</speed>
</trkpt>
<trkpt lat="22.155252" lon="104.346458">
<ele>102.075256</ele>
<time>2011-04-27T07:47:41Z</time>
<desc>lat.=22.155252, lon.=104.346458, Alt.=102.075256m. Speed=3.636000m/h.</desc>
<speed>1.010000</speed>
</trkpt>
<trkpt lat="22.155312" lon="104.346466">
<ele>100.383850</ele>
<time>2011-04-27T07:47:46Z</time>
<desc>lat.=22.155312, lon.=104.346466, Alt.=100.383850m. Speed=3.744000m/h.</desc>
<speed>1.040000</speed>
</trkpt>
<trkpt lat="22.155369" lon="104.346458">
<ele>102.516663</ele>
<time>2011-04-27T07:47:51Z</time>
<desc>lat.=22.155369, lon.=104.346458, Alt.=102.516663m. Speed=2.592000m/h.</desc>
<speed>0.720000</speed>
</trkpt>
<trkpt lat="22.155441" lon="104.346481">
<ele>101.727600</ele>
<time>2011-04-27T07:47:56Z</time>
<desc>lat.=22.155441, lon.=104.346481, Alt.=101.727600m. Speed=5.436000m/h.</desc>
<speed>1.510000</speed>
</trkpt>
<trkpt lat="22.155521" lon="104.346519">
<ele>100.399475</ele>
<time>2011-04-27T07:48:01Z</time>
<desc>lat.=22.155521, lon.=104.346519, Alt.=100.399475m. Speed=4.464000m/h.</desc>
<speed>1.240000</speed>
</trkpt>
<trkpt lat="22.155577" lon="104.346497">
<ele>99.844788</ele>
<time>2011-04-27T07:48:06Z</time>
<desc>lat.=22.155577, lon.=104.346497, Alt.=99.844788m. Speed=4.212000m/h.</desc>
<speed>1.170000</speed>
</trkpt>
<trkpt lat="22.155643" lon="104.346504">
<ele>98.553772</ele>
<time>2011-04-27T07:48:11Z</time>
<desc>lat.=22.155643, lon.=104.346504, Alt.=98.553772m. Speed=3.600000m/h.</desc>
<speed>1.000000</speed>
</trkpt>
<trkpt lat="22.155695" lon="104.346504">
<ele>98.182678</ele>
<time>2011-04-27T07:48:16Z</time>
<desc>lat.=22.155695, lon.=104.346504, Alt.=98.182678m. Speed=3.744000m/h.</desc>
<speed>1.040000</speed>
</trkpt>
<trkpt lat="22.155764" lon="104.346497">
<ele>99.622131</ele>
<time>2011-04-27T07:48:21Z</time>
<desc>lat.=22.155764, lon.=104.346497, Alt.=99.622131m. Speed=5.184000m/h.</desc>
<speed>1.440000</speed>
</trkpt>
<trkpt lat="22.155830" lon="104.346443">
<ele>101.622131</ele>
<time>2011-04-27T07:48:26Z</time>
<desc>lat.=22.155830, lon.=104.346443, Alt.=101.622131m. Speed=6.696000m/h.</desc>
<speed>1.860000</speed>
</trkpt>
<trkpt lat="22.155909" lon="104.346443">
<ele>101.764709</ele>
<time>2011-04-27T07:48:31Z</time>
<desc>lat.=22.155909, lon.=104.346443, Alt.=101.764709m. Speed=5.652000m/h.</desc>
<speed>1.570000</speed>
</trkpt>
<trkpt lat="22.155972" lon="104.346451">
<ele>102.292053</ele>
<time>2011-04-27T07:48:36Z</time>
<desc>lat.=22.155972, lon.=104.346451, Alt.=102.292053m. Speed=1.620000m/h.</desc>
<speed>0.450000</speed>
</trkpt>
<trkpt lat="22.155983" lon="104.346436">
<ele>100.524475</ele>
<time>2011-04-27T07:48:41Z</time>
<desc>lat.=22.155983, lon.=104.346436, Alt.=100.524475m. Speed=0.324000m/h.</desc>
<speed>0.090000</speed>
</trkpt>
<trkpt lat="22.155981" lon="104.346443">
<ele>100.336975</ele>
<time>2011-04-27T07:48:46Z</time>
<desc>lat.=22.155981, lon.=104.346443, Alt.=100.336975m. Speed=0.288000m/h.</desc>
<speed>0.080000</speed>
</trkpt>
<trkpt lat="22.155979" lon="104.346451">
<ele>100.182678</ele>
<time>2011-04-27T07:48:51Z</time>
<desc>lat.=22.155979, lon.=104.346451, Alt.=100.182678m. Speed=0.324000m/h.</desc>
<speed>0.090000</speed>
</trkpt>
<trkpt lat="22.155981" lon="104.346443">
<ele>100.012756</ele>
<time>2011-04-27T07:48:56Z</time>
<desc>lat.=22.155981, lon.=104.346443, Alt.=100.012756m. Speed=0.720000m/h.</desc>
<speed>0.200000</speed>
</trkpt>
<trkpt lat="22.155977" lon="104.346436">
<ele>99.934631</ele>
<time>2011-04-27T07:49:01Z</time>
<desc>lat.=22.155977, lon.=104.346436, Alt.=99.934631m. Speed=1.080000m/h.</desc>
<speed>0.300000</speed>
</trkpt>
<trkpt lat="22.155981" lon="104.346428">
<ele>99.083069</ele>
<time>2011-04-27T07:49:06Z</time>
<desc>lat.=22.155981, lon.=104.346428, Alt.=99.083069m. Speed=0.828000m/h.</desc>
<speed>0.230000</speed>
</trkpt>
<trkpt lat="22.155977" lon="104.346420">
<ele>99.188538</ele>
<time>2011-04-27T07:49:11Z</time>
<desc>lat.=22.155977, lon.=104.346420, Alt.=99.188538m. Speed=0.828000m/h.</desc>
<speed>0.230000</speed>
</trkpt>
<trkpt lat="22.155968" lon="104.346405">
<ele>99.200256</ele>
<time>2011-04-27T07:49:16Z</time>
<desc>lat.=22.155968, lon.=104.346405, Alt.=99.200256m. Speed=1.044000m/h.</desc>
<speed>0.290000</speed>
</trkpt>
<trkpt lat="22.155962" lon="104.346382">
<ele>99.674866</ele>
<time>2011-04-27T07:49:21Z</time>
<desc>lat.=22.155962, lon.=104.346382, Alt.=99.674866m. Speed=0.756000m/h.</desc>
<speed>0.210000</speed>
</trkpt>
<trkpt lat="22.155960" lon="104.346375">
<ele>99.805725</ele>
<time>2011-04-27T07:49:26Z</time>
<desc>lat.=22.155960, lon.=104.346375, Alt.=99.805725m. Speed=0.864000m/h.</desc>
<speed>0.240000</speed>
</trkpt>
<trkpt lat="22.155962" lon="104.346359">
<ele>99.915100</ele>
<time>2011-04-27T07:49:31Z</time>
<desc>lat.=22.155962, lon.=104.346359, Alt.=99.915100m. Speed=0.972000m/h.</desc>
<speed>0.270000</speed>
</trkpt>
<trkpt lat="22.155994" lon="104.346420">
<ele>100.516663</ele>
<time>2011-04-27T07:49:36Z</time>
<desc>lat.=22.155994, lon.=104.346420, Alt.=100.516663m. Speed=0.756000m/h.</desc>
<speed>0.210000</speed>
</trkpt>
<trkpt lat="22.156010" lon="104.346428">
<ele>100.376038</ele>
<time>2011-04-27T07:49:41Z</time>
<desc>lat.=22.156010, lon.=104.346428, Alt.=100.376038m. Speed=0.792000m/h.</desc>
<speed>0.220000</speed>
</trkpt>
<trkpt lat="22.156015" lon="104.346436">
<ele>100.528381</ele>
<time>2011-04-27T07:49:46Z</time>
<desc>lat.=22.156015, lon.=104.346436, Alt.=100.528381m. Speed=0.576000m/h.</desc>
<speed>0.160000</speed>
</trkpt>
<trkpt lat="22.156021" lon="104.346436">
<ele>100.690491</ele>
<time>2011-04-27T07:49:51Z</time>
<desc>lat.=22.156021, lon.=104.346436, Alt.=100.690491m. Speed=0.612000m/h.</desc>
<speed>0.170000</speed>
</trkpt>
<trkpt lat="22.156027" lon="104.346443">
<ele>100.858459</ele>
<time>2011-04-27T07:49:56Z</time>
<desc>lat.=22.156027, lon.=104.346443, Alt.=100.858459m. Speed=0.504000m/h.</desc>
<speed>0.140000</speed>
</trkpt>
<trkpt lat="22.156033" lon="104.346443">
<ele>100.997131</ele>
<time>2011-04-27T07:50:01Z</time>
<desc>lat.=22.156033, lon.=104.346443, Alt.=100.997131m. Speed=0.396000m/h.</desc>
<speed>0.110000</speed>
</trkpt>
<trkpt lat="22.156036" lon="104.346451">
<ele>101.085022</ele>
<time>2011-04-27T07:50:06Z</time>
<desc>lat.=22.156036, lon.=104.346451, Alt.=101.085022m. Speed=0.540000m/h.</desc>
<speed>0.150000</speed>
</trkpt>
<trkpt lat="22.156040" lon="104.346458">
<ele>101.186584</ele>
<time>2011-04-27T07:50:11Z</time>
<desc>lat.=22.156040, lon.=104.346458, Alt.=101.186584m. Speed=0.468000m/h.</desc>
<speed>0.130000</speed>
</trkpt>
<trkpt lat="22.156046" lon="104.346458">
<ele>101.295959</ele>
<time>2011-04-27T07:50:16Z</time>
<desc>lat.=22.156046, lon.=104.346458, Alt.=101.295959m. Speed=0.360000m/h.</desc>
<speed>0.100000</speed>
</trkpt>
<trkpt lat="22.156048" lon="104.346458">
<ele>101.379944</ele>
<time>2011-04-27T07:50:21Z</time>
<desc>lat.=22.156048, lon.=104.346458, Alt.=101.379944m. Speed=0.000000m/h.</desc>
<speed>0.000000</speed>
</trkpt>
<trkpt lat="22.156048" lon="104.346466">
<ele>101.504944</ele>
<time>2011-04-27T07:50:26Z</time>
<desc>lat.=22.156048, lon.=104.346466, Alt.=101.504944m. Speed=0.216000m/h.</desc>
<speed>0.060000</speed>
</trkpt>
<trkpt lat="22.156048" lon="104.346466">
<ele>101.627991</ele>
<time>2011-04-27T07:50:31Z</time>
<desc>lat.=22.156048, lon.=104.346466, Alt.=101.627991m. Speed=0.036000m/h.</desc>
<speed>0.010000</speed>
</trkpt>
<trkpt lat="22.156050" lon="104.346458">
<ele>101.678772</ele>
<time>2011-04-27T07:50:36Z</time>
<desc>lat.=22.156050, lon.=104.346458, Alt.=101.678772m. Speed=1.332000m/h.</desc>
<speed>0.370000</speed>
</trkpt>
<trkpt lat="22.156054" lon="104.346443">
<ele>100.635803</ele>
<time>2011-04-27T07:50:41Z</time>
<desc>lat.=22.156054, lon.=104.346443, Alt.=100.635803m. Speed=1.044000m/h.</desc>
<speed>0.290000</speed>
</trkpt>
<trkpt lat="22.156057" lon="104.346436">
<ele>99.073303</ele>
<time>2011-04-27T07:50:46Z</time>
<desc>lat.=22.156057, lon.=104.346436, Alt.=99.073303m. Speed=0.792000m/h.</desc>
<speed>0.220000</speed>
</trkpt>
<trkpt lat="22.156065" lon="104.346420">
<ele>99.047913</ele>
<time>2011-04-27T07:50:51Z</time>
<desc>lat.=22.156065, lon.=104.346420, Alt.=99.047913m. Speed=1.080000m/h.</desc>
<speed>0.300000</speed>
</trkpt>
<trkpt lat="22.156084" lon="104.346397">
<ele>97.006897</ele>
<time>2011-04-27T07:50:56Z</time>
<desc>lat.=22.156084, lon.=104.346397, Alt.=97.006897m. Speed=1.152000m/h.</desc>
<speed>0.320000</speed>
</trkpt>
<trkpt lat="22.156088" lon="104.346375">
<ele>95.751038</ele>
<time>2011-04-27T07:51:01Z</time>
<desc>lat.=22.156088, lon.=104.346375, Alt.=95.751038m. Speed=1.080000m/h.</desc>
<speed>0.300000</speed>
</trkpt>
<trkpt lat="22.156101" lon="104.346375">
<ele>94.473694</ele>
<time>2011-04-27T07:51:06Z</time>
<desc>lat.=22.156101, lon.=104.346375, Alt.=94.473694m. Speed=0.684000m/h.</desc>
<speed>0.190000</speed>
</trkpt>
<trkpt lat="22.156103" lon="104.346367">
<ele>94.368225</ele>
<time>2011-04-27T07:51:11Z</time>
<desc>lat.=22.156103, lon.=104.346367, Alt.=94.368225m. Speed=0.576000m/h.</desc>
<speed>0.160000</speed>
</trkpt>
<trkpt lat="22.156107" lon="104.346359">
<ele>94.204163</ele>
<time>2011-04-27T07:51:16Z</time>
<desc>lat.=22.156107, lon.=104.346359, Alt.=94.204163m. Speed=1.584000m/h.</desc>
<speed>0.440000</speed>
</trkpt>
<trkpt lat="22.156155" lon="104.346344">
<ele>90.338928</ele>
<time>2011-04-27T07:51:21Z</time>
<desc>lat.=22.156155, lon.=104.346344, Alt.=90.338928m. Speed=9.036000m/h.</desc>
<speed>2.510000</speed>
</trkpt>
<trkpt lat="22.156250" lon="104.346260">
<ele>87.948303</ele>
<time>2011-04-27T07:51:26Z</time>
<desc>lat.=22.156250, lon.=104.346260, Alt.=87.948303m. Speed=7.920000m/h.</desc>
<speed>2.200000</speed>
</trkpt>
<trkpt lat="22.156307" lon="104.346222">
<ele>84.852600</ele>
<time>2011-04-27T07:51:31Z</time>
<desc>lat.=22.156307, lon.=104.346222, Alt.=84.852600m. Speed=5.868000m/h.</desc>
<speed>1.630000</speed>
</trkpt>
<trkpt lat="22.156378" lon="104.346176">
<ele>84.331116</ele>
<time>2011-04-27T07:51:36Z</time>
<desc>lat.=22.156378, lon.=104.346176, Alt.=84.331116m. Speed=8.496000m/h.</desc>
<speed>2.360000</speed>
</trkpt>
<trkpt lat="22.156481" lon="104.346039">
<ele>81.350647</ele>
<time>2011-04-27T07:51:41Z</time>
<desc>lat.=22.156481, lon.=104.346039, Alt.=81.350647m. Speed=14.832000m/h.</desc>
<speed>4.120000</speed>
</trkpt>
<trkpt lat="22.156651" lon="104.345879">
<ele>76.401428</ele>
<time>2011-04-27T07:51:46Z</time>
<desc>lat.=22.156651, lon.=104.345879, Alt.=76.401428m. Speed=20.591999m/h.</desc>
<speed>5.720000</speed>
</trkpt>
<trkpt lat="22.156881" lon="104.345695">
<ele>70.075256</ele>
<time>2011-04-27T07:51:51Z</time>
<desc>lat.=22.156881, lon.=104.345695, Alt.=70.075256m. Speed=23.796000m/h.</desc>
<speed>6.610000</speed>
</trkpt>
<trkpt lat="22.157156" lon="104.345497">
<ele>67.799866</ele>
<time>2011-04-27T07:51:56Z</time>
<desc>lat.=22.157156, lon.=104.345497, Alt.=67.799866m. Speed=28.007999m/h.</desc>
<speed>7.780000</speed>
</trkpt>
<trkpt lat="22.157457" lon="104.345253">
<ele>65.772522</ele>
<time>2011-04-27T07:52:01Z</time>
<desc>lat.=22.157457, lon.=104.345253, Alt.=65.772522m. Speed=29.124001m/h.</desc>
<speed>8.090000</speed>
</trkpt>
<trkpt lat="22.157747" lon="104.344963">
<ele>67.635803</ele>
<time>2011-04-27T07:52:06Z</time>
<desc>lat.=22.157747, lon.=104.344963, Alt.=67.635803m. Speed=24.732000m/h.</desc>
<speed>6.870000</speed>
</trkpt>
<trkpt lat="22.157990" lon="104.344849">
<ele>67.862366</ele>
<time>2011-04-27T07:52:11Z</time>
<desc>lat.=22.157990, lon.=104.344849, Alt.=67.862366m. Speed=17.424000m/h.</desc>
<speed>4.840000</speed>
</trkpt>
<trkpt lat="22.158152" lon="104.344795">
<ele>69.913147</ele>
<time>2011-04-27T07:52:16Z</time>
<desc>lat.=22.158152, lon.=104.344795, Alt.=69.913147m. Speed=10.440000m/h.</desc>
<speed>2.900000</speed>
</trkpt>
<trkpt lat="22.158278" lon="104.344765">
<ele>72.934631</ele>
<time>2011-04-27T07:52:21Z</time>
<desc>lat.=22.158278, lon.=104.344765, Alt.=72.934631m. Speed=7.992000m/h.</desc>
<speed>2.220000</speed>
</trkpt>
<trkpt lat="22.158386" lon="104.344635">
<ele>77.086975</ele>
<time>2011-04-27T07:52:26Z</time>
<desc>lat.=22.158386, lon.=104.344635, Alt.=77.086975m. Speed=6.516000m/h.</desc>
<speed>1.810000</speed>
</trkpt>
<trkpt lat="22.158461" lon="104.344604">
<ele>78.297913</ele>
<time>2011-04-27T07:52:31Z</time>
<desc>lat.=22.158461, lon.=104.344604, Alt.=78.297913m. Speed=4.500000m/h.</desc>
<speed>1.250000</speed>
</trkpt>
<trkpt lat="22.158550" lon="104.344604">
<ele>81.210022</ele>
<time>2011-04-27T07:52:36Z</time>
<desc>lat.=22.158550, lon.=104.344604, Alt.=81.210022m. Speed=5.616000m/h.</desc>
<speed>1.560000</speed>
</trkpt>
<trkpt lat="22.158649" lon="104.344597">
<ele>82.708069</ele>
<time>2011-04-27T07:52:41Z</time>
<desc>lat.=22.158649, lon.=104.344597, Alt.=82.708069m. Speed=6.588000m/h.</desc>
<speed>1.830000</speed>
</trkpt>
<trkpt lat="22.158785" lon="104.344574">
<ele>86.905334</ele>
<time>2011-04-27T07:52:46Z</time>
<desc>lat.=22.158785, lon.=104.344574, Alt.=86.905334m. Speed=8.100000m/h.</desc>
<speed>2.250000</speed>
</trkpt>
<trkpt lat="22.158890" lon="104.344582">
<ele>92.340881</ele>
<time>2011-04-27T07:52:51Z</time>
<desc>lat.=22.158890, lon.=104.344582, Alt.=92.340881m. Speed=6.732000m/h.</desc>
<speed>1.870000</speed>
</trkpt>
<trkpt lat="22.159008" lon="104.344574">
<ele>91.372131</ele>
<time>2011-04-27T07:52:56Z</time>
<desc>lat.=22.159008, lon.=104.344574, Alt.=91.372131m. Speed=9.540000m/h.</desc>
<speed>2.650000</speed>
</trkpt>
<trkpt lat="22.159138" lon="104.344604">
<ele>99.743225</ele>
<time>2011-04-27T07:53:01Z</time>
<desc>lat.=22.159138, lon.=104.344604, Alt.=99.743225m. Speed=9.648000m/h.</desc>
<speed>2.680000</speed>
</trkpt>
<trkpt lat="22.159258" lon="104.344627">
<ele>99.094788</ele>
<time>2011-04-27T07:53:06Z</time>
<desc>lat.=22.159258, lon.=104.344627, Alt.=99.094788m. Speed=6.912000m/h.</desc>
<speed>1.920000</speed>
</trkpt>
<trkpt lat="22.159338" lon="104.344620">
<ele>93.672913</ele>
<time>2011-04-27T07:53:11Z</time>
<desc>lat.=22.159338, lon.=104.344620, Alt.=93.672913m. Speed=5.940000m/h.</desc>
<speed>1.650000</speed>
</trkpt>
<trkpt lat="22.159399" lon="104.344643">
<ele>90.208069</ele>
<time>2011-04-27T07:53:16Z</time>
<desc>lat.=22.159399, lon.=104.344643, Alt.=90.208069m. Speed=8.712000m/h.</desc>
<speed>2.420000</speed>
</trkpt>
<trkpt lat="22.159548" lon="104.344688">
<ele>87.483459</ele>
<time>2011-04-27T07:53:21Z</time>
<desc>lat.=22.159548, lon.=104.344688, Alt.=87.483459m. Speed=14.364000m/h.</desc>
<speed>3.990000</speed>
</trkpt>
<trkpt lat="22.159718" lon="104.344818">
<ele>84.715881</ele>
<time>2011-04-27T07:53:26Z</time>
<desc>lat.=22.159718, lon.=104.344818, Alt.=84.715881m. Speed=16.992001m/h.</desc>
<speed>4.720000</speed>
</trkpt>
<trkpt lat="22.159914" lon="104.344963">
<ele>79.708069</ele>
<time>2011-04-27T07:53:31Z</time>
<desc>lat.=22.159914, lon.=104.344963, Alt.=79.708069m. Speed=21.132000m/h.</desc>
<speed>5.870000</speed>
</trkpt>
<trkpt lat="22.160158" lon="104.345169">
<ele>76.147522</ele>
<time>2011-04-27T07:53:36Z</time>
<desc>lat.=22.160158, lon.=104.345169, Alt.=76.147522m. Speed=25.524000m/h.</desc>
<speed>7.090000</speed>
</trkpt>
<trkpt lat="22.160439" lon="104.345367">
<ele>73.430725</ele>
<time>2011-04-27T07:53:41Z</time>
<desc>lat.=22.160439, lon.=104.345367, Alt.=73.430725m. Speed=25.488001m/h.</desc>
<speed>7.080000</speed>
</trkpt>
<trkpt lat="22.160728" lon="104.345520">
<ele>70.577209</ele>
<time>2011-04-27T07:53:46Z</time>
<desc>lat.=22.160728, lon.=104.345520, Alt.=70.577209m. Speed=24.624001m/h.</desc>
<speed>6.840000</speed>
</trkpt>
<trkpt lat="22.161003" lon="104.345703">
<ele>67.274475</ele>
<time>2011-04-27T07:53:51Z</time>
<desc>lat.=22.161003, lon.=104.345703, Alt.=67.274475m. Speed=23.976000m/h.</desc>
<speed>6.660000</speed>
</trkpt>
<trkpt lat="22.161161" lon="104.345909">
<ele>65.821350</ele>
<time>2011-04-27T07:53:56Z</time>
<desc>lat.=22.161161, lon.=104.345909, Alt.=65.821350m. Speed=18.648001m/h.</desc>
<speed>5.180000</speed>
</trkpt>
<trkpt lat="22.161255" lon="104.346107">
<ele>66.303772</ele>
<time>2011-04-27T07:54:01Z</time>
<desc>lat.=22.161255, lon.=104.346107, Alt.=66.303772m. Speed=15.624000m/h.</desc>
<speed>4.340000</speed>
</trkpt>
<trkpt lat="22.161297" lon="104.346291">
<ele>67.393616</ele>
<time>2011-04-27T07:54:06Z</time>
<desc>lat.=22.161297, lon.=104.346291, Alt.=67.393616m. Speed=13.932000m/h.</desc>
<speed>3.870000</speed>
</trkpt>
<trkpt lat="22.161371" lon="104.346497">
<ele>65.440491</ele>
<time>2011-04-27T07:54:11Z</time>
<desc>lat.=22.161371, lon.=104.346497, Alt.=65.440491m. Speed=13.536000m/h.</desc>
<speed>3.760000</speed>
</trkpt>
<trkpt lat="22.161438" lon="104.346680">
<ele>61.810089</ele>
<time>2011-04-27T07:54:16Z</time>
<desc>lat.=22.161438, lon.=104.346680, Alt.=61.810089m. Speed=15.768000m/h.</desc>
<speed>4.380000</speed>
</trkpt>
<trkpt lat="22.161499" lon="104.346909">
<ele>63.891144</ele>
<time>2011-04-27T07:54:21Z</time>
<desc>lat.=22.161499, lon.=104.346909, Alt.=63.891144m. Speed=16.020000m/h.</desc>
<speed>4.450000</speed>
</trkpt>
<trkpt lat="22.161562" lon="104.347145">
<ele>66.196350</ele>
<time>2011-04-27T07:54:26Z</time>
<desc>lat.=22.161562, lon.=104.347145, Alt.=66.196350m. Speed=16.416000m/h.</desc>
<speed>4.560000</speed>
</trkpt>
<trkpt lat="22.161648" lon="104.347382">
<ele>63.486847</ele>
<time>2011-04-27T07:54:31Z</time>
<desc>lat.=22.161648, lon.=104.347382, Alt.=63.486847m. Speed=17.496000m/h.</desc>
<speed>4.860000</speed>
</trkpt>
<trkpt lat="22.161736" lon="104.347588">
<ele>65.254944</ele>
<time>2011-04-27T07:54:36Z</time>
<desc>lat.=22.161736, lon.=104.347588, Alt.=65.254944m. Speed=16.524000m/h.</desc>
<speed>4.590000</speed>
</trkpt>
<trkpt lat="22.161833" lon="104.347816">
<ele>69.081116</ele>
<time>2011-04-27T07:54:41Z</time>
<desc>lat.=22.161833, lon.=104.347816, Alt.=69.081116m. Speed=14.976000m/h.</desc>
<speed>4.160000</speed>
</trkpt>
<trkpt lat="22.161922" lon="104.347992">
<ele>70.956116</ele>
<time>2011-04-27T07:54:46Z</time>
<desc>lat.=22.161922, lon.=104.347992, Alt.=70.956116m. Speed=14.976000m/h.</desc>
<speed>4.160000</speed>
</trkpt>
<trkpt lat="22.162018" lon="104.348190">
<ele>73.522522</ele>
<time>2011-04-27T07:54:51Z</time>
<desc>lat.=22.162018, lon.=104.348190, Alt.=73.522522m. Speed=18.719999m/h.</desc>
<speed>5.200000</speed>
</trkpt>
<trkpt lat="22.162123" lon="104.348473">
<ele>71.473694</ele>
<time>2011-04-27T07:54:56Z</time>
<desc>lat.=22.162123, lon.=104.348473, Alt.=71.473694m. Speed=27.648001m/h.</desc>
<speed>7.680000</speed>
</trkpt>
<trkpt lat="22.162275" lon="104.348831">
<ele>71.563538</ele>
<time>2011-04-27T07:55:01Z</time>
<desc>lat.=22.162275, lon.=104.348831, Alt.=71.563538m. Speed=26.747999m/h.</desc>
<speed>7.430000</speed>
</trkpt>
<trkpt lat="22.162457" lon="104.349098">
<ele>66.387756</ele>
<time>2011-04-27T07:55:06Z</time>
<desc>lat.=22.162457, lon.=104.349098, Alt.=66.387756m. Speed=19.872000m/h.</desc>
<speed>5.520000</speed>
</trkpt>
<trkpt lat="22.162598" lon="104.349266">
<ele>62.878448</ele>
<time>2011-04-27T07:55:11Z</time>
<desc>lat.=22.162598, lon.=104.349266, Alt.=62.878448m. Speed=16.379999m/h.</desc>
<speed>4.550000</speed>
</trkpt>
<trkpt lat="22.162727" lon="104.349472">
<ele>63.650909</ele>
<time>2011-04-27T07:55:16Z</time>
<desc>lat.=22.162727, lon.=104.349472, Alt.=63.650909m. Speed=16.091999m/h.</desc>
<speed>4.470000</speed>
</trkpt>
<trkpt lat="22.162855" lon="104.349693">
<ele>64.723694</ele>
<time>2011-04-27T07:55:21Z</time>
<desc>lat.=22.162855, lon.=104.349693, Alt.=64.723694m. Speed=18.108000m/h.</desc>
<speed>5.030000</speed>
</trkpt>
<trkpt lat="22.162994" lon="104.349915">
<ele>64.258850</ele>
<time>2011-04-27T07:55:26Z</time>
<desc>lat.=22.162994, lon.=104.349915, Alt.=64.258850m. Speed=19.476000m/h.</desc>
<speed>5.410000</speed>
</trkpt>
<trkpt lat="22.163145" lon="104.350121">
<ele>63.474152</ele>
<time>2011-04-27T07:55:31Z</time>
<desc>lat.=22.163145, lon.=104.350121, Alt.=63.474152m. Speed=20.412001m/h.</desc>
<speed>5.670000</speed>
</trkpt>
<trkpt lat="22.163300" lon="104.350349">
<ele>63.696808</ele>
<time>2011-04-27T07:55:36Z</time>
<desc>lat.=22.163300, lon.=104.350349, Alt.=63.696808m. Speed=18.468000m/h.</desc>
<speed>5.130000</speed>
</trkpt>
<trkpt lat="22.163469" lon="104.350548">
<ele>66.495178</ele>
<time>2011-04-27T07:55:41Z</time>
<desc>lat.=22.163469, lon.=104.350548, Alt.=66.495178m. Speed=18.504000m/h.</desc>
<speed>5.140000</speed>
</trkpt>
<trkpt lat="22.163631" lon="104.350700">
<ele>68.270569</ele>
<time>2011-04-27T07:55:46Z</time>
<desc>lat.=22.163631, lon.=104.350700, Alt.=68.270569m. Speed=17.568001m/h.</desc>
<speed>4.880000</speed>
</trkpt>
<trkpt lat="22.163799" lon="104.350876">
<ele>73.512756</ele>
<time>2011-04-27T07:55:51Z</time>
<desc>lat.=22.163799, lon.=104.350876, Alt.=73.512756m. Speed=18.108000m/h.</desc>
<speed>5.030000</speed>
</trkpt>
<trkpt lat="22.163969" lon="104.351051">
<ele>73.145569</ele>
<time>2011-04-27T07:55:56Z</time>
<desc>lat.=22.163969, lon.=104.351051, Alt.=73.145569m. Speed=17.639999m/h.</desc>
<speed>4.900000</speed>
</trkpt>
<trkpt lat="22.164152" lon="104.351219">
<ele>72.919006</ele>
<time>2011-04-27T07:56:01Z</time>
<desc>lat.=22.164152, lon.=104.351219, Alt.=72.919006m. Speed=18.612000m/h.</desc>
<speed>5.170000</speed>
</trkpt>
<trkpt lat="22.164312" lon="104.351395">
<ele>72.731506</ele>
<time>2011-04-27T07:56:06Z</time>
<desc>lat.=22.164312, lon.=104.351395, Alt.=72.731506m. Speed=18.323999m/h.</desc>
<speed>5.090000</speed>
</trkpt>
<trkpt lat="22.164490" lon="104.351578">
<ele>72.805725</ele>
<time>2011-04-27T07:56:11Z</time>
<desc>lat.=22.164490, lon.=104.351578, Alt.=72.805725m. Speed=18.936001m/h.</desc>
<speed>5.260000</speed>
</trkpt>
<trkpt lat="22.164679" lon="104.351746">
<ele>73.342834</ele>
<time>2011-04-27T07:56:16Z</time>
<desc>lat.=22.164679, lon.=104.351746, Alt.=73.342834m. Speed=16.992001m/h.</desc>
<speed>4.720000</speed>
</trkpt>
<trkpt lat="22.164831" lon="104.351891">
<ele>78.034241</ele>
<time>2011-04-27T07:56:21Z</time>
<desc>lat.=22.164831, lon.=104.351891, Alt.=78.034241m. Speed=14.076000m/h.</desc>
<speed>3.910000</speed>
</trkpt>
<trkpt lat="22.164946" lon="104.352058">
<ele>79.106506</ele>
<time>2011-04-27T07:56:26Z</time>
<desc>lat.=22.164946, lon.=104.352058, Alt.=79.106506m. Speed=14.868000m/h.</desc>
<speed>4.130000</speed>
</trkpt>
<trkpt lat="22.165071" lon="104.352234">
<ele>78.124084</ele>
<time>2011-04-27T07:56:31Z</time>
<desc>lat.=22.165071, lon.=104.352234, Alt.=78.124084m. Speed=15.228000m/h.</desc>
<speed>4.230000</speed>
</trkpt>
<trkpt lat="22.165184" lon="104.352440">
<ele>77.579163</ele>
<time>2011-04-27T07:56:36Z</time>
<desc>lat.=22.165184, lon.=104.352440, Alt.=77.579163m. Speed=17.820000m/h.</desc>
<speed>4.950000</speed>
</trkpt>
<trkpt lat="22.165300" lon="104.352669">
<ele>74.010803</ele>
<time>2011-04-27T07:56:41Z</time>
<desc>lat.=22.165300, lon.=104.352669, Alt.=74.010803m. Speed=18.756001m/h.</desc>
<speed>5.210000</speed>
</trkpt>
<trkpt lat="22.165451" lon="104.352844">
<ele>72.170959</ele>
<time>2011-04-27T07:56:46Z</time>
<desc>lat.=22.165451, lon.=104.352844, Alt.=72.170959m. Speed=16.704000m/h.</desc>
<speed>4.640000</speed>
</trkpt>
<trkpt lat="22.165583" lon="104.353020">
<ele>68.088928</ele>
<time>2011-04-27T07:56:51Z</time>
<desc>lat.=22.165583, lon.=104.353020, Alt.=68.088928m. Speed=16.128000m/h.</desc>
<speed>4.480000</speed>
</trkpt>
<trkpt lat="22.165724" lon="104.353180">
<ele>64.358459</ele>
<time>2011-04-27T07:56:56Z</time>
<desc>lat.=22.165724, lon.=104.353180, Alt.=64.358459m. Speed=17.351999m/h.</desc>
<speed>4.820000</speed>
</trkpt>
<trkpt lat="22.165892" lon="104.353386">
<ele>62.322784</ele>
<time>2011-04-27T07:57:01Z</time>
<desc>lat.=22.165892, lon.=104.353386, Alt.=62.322784m. Speed=20.664000m/h.</desc>
<speed>5.740000</speed>
</trkpt>
<trkpt lat="22.166031" lon="104.353615">
<ele>63.890167</ele>
<time>2011-04-27T07:57:06Z</time>
<desc>lat.=22.166031, lon.=104.353615, Alt.=63.890167m. Speed=17.243999m/h.</desc>
<speed>4.790000</speed>
</trkpt>
<trkpt lat="22.166166" lon="104.353813">
<ele>66.936584</ele>
<time>2011-04-27T07:57:11Z</time>
<desc>lat.=22.166166, lon.=104.353813, Alt.=66.936584m. Speed=13.536000m/h.</desc>
<speed>3.760000</speed>
</trkpt>
<trkpt lat="22.166302" lon="104.353905">
<ele>69.651428</ele>
<time>2011-04-27T07:57:16Z</time>
<desc>lat.=22.166302, lon.=104.353905, Alt.=69.651428m. Speed=13.176000m/h.</desc>
<speed>3.660000</speed>
</trkpt>
<trkpt lat="22.166468" lon="104.354004">
<ele>70.368225</ele>
<time>2011-04-27T07:57:21Z</time>
<desc>lat.=22.166468, lon.=104.354004, Alt.=70.368225m. Speed=13.464000m/h.</desc>
<speed>3.740000</speed>
</trkpt>
<trkpt lat="22.166639" lon="104.354118">
<ele>72.098694</ele>
<time>2011-04-27T07:57:26Z</time>
<desc>lat.=22.166639, lon.=104.354118, Alt.=72.098694m. Speed=11.988000m/h.</desc>
<speed>3.330000</speed>
</trkpt>
<trkpt lat="22.166765" lon="104.354202">
<ele>73.655334</ele>
<time>2011-04-27T07:57:31Z</time>
<desc>lat.=22.166765, lon.=104.354202, Alt.=73.655334m. Speed=10.944000m/h.</desc>
<speed>3.040000</speed>
</trkpt>
<trkpt lat="22.166901" lon="104.354317">
<ele>75.395569</ele>
<time>2011-04-27T07:57:36Z</time>
<desc>lat.=22.166901, lon.=104.354317, Alt.=75.395569m. Speed=11.844000m/h.</desc>
<speed>3.290000</speed>
</trkpt>
<trkpt lat="22.167032" lon="104.354416">
<ele>77.202209</ele>
<time>2011-04-27T07:57:41Z</time>
<desc>lat.=22.167032, lon.=104.354416, Alt.=77.202209m. Speed=11.376000m/h.</desc>
<speed>3.160000</speed>
</trkpt>
<trkpt lat="22.167154" lon="104.354530">
<ele>73.047913</ele>
<time>2011-04-27T07:57:46Z</time>
<desc>lat.=22.167154, lon.=104.354530, Alt.=73.047913m. Speed=11.844000m/h.</desc>
<speed>3.290000</speed>
</trkpt>
<trkpt lat="22.167278" lon="104.354622">
<ele>73.899475</ele>
<time>2011-04-27T07:57:51Z</time>
<desc>lat.=22.167278, lon.=104.354622, Alt.=73.899475m. Speed=9.864000m/h.</desc>
<speed>2.740000</speed>
</trkpt>
<trkpt lat="22.167356" lon="104.354698">
<ele>73.044006</ele>
<time>2011-04-27T07:57:56Z</time>
<desc>lat.=22.167356, lon.=104.354698, Alt.=73.044006m. Speed=7.740000m/h.</desc>
<speed>2.150000</speed>
</trkpt>
<trkpt lat="22.167463" lon="104.354767">
<ele>69.885803</ele>
<time>2011-04-27T07:58:01Z</time>
<desc>lat.=22.167463, lon.=104.354767, Alt.=69.885803m. Speed=7.920000m/h.</desc>
<speed>2.200000</speed>
</trkpt>
<trkpt lat="22.167562" lon="104.354866">
<ele>70.821350</ele>
<time>2011-04-27T07:58:06Z</time>
<desc>lat.=22.167562, lon.=104.354866, Alt.=70.821350m. Speed=10.044000m/h.</desc>
<speed>2.790000</speed>
</trkpt>
<trkpt lat="22.167675" lon="104.354950">
<ele>69.715881</ele>
<time>2011-04-27T07:58:11Z</time>
<desc>lat.=22.167675, lon.=104.354950, Alt.=69.715881m. Speed=10.260000m/h.</desc>
<speed>2.850000</speed>
</trkpt>
<trkpt lat="22.167780" lon="104.355042">
<ele>71.936584</ele>
<time>2011-04-27T07:58:16Z</time>
<desc>lat.=22.167780, lon.=104.355042, Alt.=71.936584m. Speed=9.396000m/h.</desc>
<speed>2.610000</speed>
</trkpt>
<trkpt lat="22.167894" lon="104.355133">
<ele>73.651428</ele>
<time>2011-04-27T07:58:21Z</time>
<desc>lat.=22.167894, lon.=104.355133, Alt.=73.651428m. Speed=10.008000m/h.</desc>
<speed>2.780000</speed>
</trkpt>
<trkpt lat="22.167969" lon="104.355232">
<ele>74.924866</ele>
<time>2011-04-27T07:58:26Z</time>
<desc>lat.=22.167969, lon.=104.355232, Alt.=74.924866m. Speed=6.012000m/h.</desc>
<speed>1.670000</speed>
</trkpt>
<trkpt lat="22.168005" lon="104.355278">
<ele>75.868225</ele>
<time>2011-04-27T07:58:31Z</time>
<desc>lat.=22.168005, lon.=104.355278, Alt.=75.868225m. Speed=4.212000m/h.</desc>
<speed>1.170000</speed>
</trkpt>
<trkpt lat="22.167980" lon="104.355316">
<ele>74.858459</ele>
<time>2011-04-27T07:58:36Z</time>
<desc>lat.=22.167980, lon.=104.355316, Alt.=74.858459m. Speed=2.016000m/h.</desc>
<speed>0.560000</speed>
</trkpt>
<trkpt lat="22.167971" lon="104.355331">
<ele>73.926819</ele>
<time>2011-04-27T07:58:41Z</time>
<desc>lat.=22.167971, lon.=104.355331, Alt.=73.926819m. Speed=0.720000m/h.</desc>
<speed>0.200000</speed>
</trkpt>
<trkpt lat="22.167965" lon="104.355339">
<ele>72.948303</ele>
<time>2011-04-27T07:58:46Z</time>
<desc>lat.=22.167965, lon.=104.355339, Alt.=72.948303m. Speed=0.684000m/h.</desc>
<speed>0.190000</speed>
</trkpt>
<trkpt lat="22.167955" lon="104.355339">
<ele>71.961975</ele>
<time>2011-04-27T07:58:51Z</time>
<desc>lat.=22.167955, lon.=104.355339, Alt.=71.961975m. Speed=0.756000m/h.</desc>
<speed>0.210000</speed>
</trkpt>
<trkpt lat="22.167948" lon="104.355347">
<ele>71.040100</ele>
<time>2011-04-27T07:58:56Z</time>
<desc>lat.=22.167948, lon.=104.355347, Alt.=71.040100m. Speed=0.612000m/h.</desc>
<speed>0.170000</speed>
</trkpt>
<trkpt lat="22.167946" lon="104.355347">
<ele>70.169006</ele>
<time>2011-04-27T07:59:01Z</time>
<desc>lat.=22.167946, lon.=104.355347, Alt.=70.169006m. Speed=0.000000m/h.</desc>
<speed>0.000000</speed>
</trkpt>
<trkpt lat="22.167946" lon="104.355347">
<ele>69.247131</ele>
<time>2011-04-27T07:59:06Z</time>
<desc>lat.=22.167946, lon.=104.355347, Alt.=69.247131m. Speed=0.144000m/h.</desc>
<speed>0.040000</speed>
</trkpt>
<trkpt lat="22.167948" lon="104.355347">
<ele>68.303772</ele>
<time>2011-04-27T07:59:11Z</time>
<desc>lat.=22.167948, lon.=104.355347, Alt.=68.303772m. Speed=0.324000m/h.</desc>
<speed>0.090000</speed>
</trkpt>
<trkpt lat="22.167952" lon="104.355347">
<ele>67.389709</ele>
<time>2011-04-27T07:59:16Z</time>
<desc>lat.=22.167952, lon.=104.355347, Alt.=67.389709m. Speed=0.144000m/h.</desc>
<speed>0.040000</speed>
</trkpt>
<trkpt lat="22.167952" lon="104.355347">
<ele>66.465881</ele>
<time>2011-04-27T07:59:21Z</time>
<desc>lat.=22.167952, lon.=104.355347, Alt.=66.465881m. Speed=0.144000m/h.</desc>
<speed>0.040000</speed>
</trkpt>
<trkpt lat="22.167952" lon="104.355347">
<ele>65.782288</ele>
<time>2011-04-27T07:59:26Z</time>
<desc>lat.=22.167952, lon.=104.355347, Alt.=65.782288m. Speed=0.108000m/h.</desc>
<speed>0.030000</speed>
</trkpt>
<trkpt lat="22.167946" lon="104.355370">
<ele>65.272522</ele>
<time>2011-04-27T07:59:31Z</time>
<desc>lat.=22.167946, lon.=104.355370, Alt.=65.272522m. Speed=3.528000m/h.</desc>
<speed>0.980000</speed>
</trkpt>
<trkpt lat="22.167929" lon="104.355431">
<ele>65.356506</ele>
<time>2011-04-27T07:59:36Z</time>
<desc>lat.=22.167929, lon.=104.355431, Alt.=65.356506m. Speed=4.140000m/h.</desc>
<speed>1.150000</speed>
</trkpt>
<trkpt lat="22.167873" lon="104.355446">
<ele>65.790100</ele>
<time>2011-04-27T07:59:41Z</time>
<desc>lat.=22.167873, lon.=104.355446, Alt.=65.790100m. Speed=2.232000m/h.</desc>
<speed>0.620000</speed>
</trkpt>
<trkpt lat="22.167868" lon="104.355469">
<ele>66.270569</ele>
<time>2011-04-27T07:59:46Z</time>
<desc>lat.=22.167868, lon.=104.355469, Alt.=66.270569m. Speed=0.504000m/h.</desc>
<speed>0.140000</speed>
</trkpt>
<trkpt lat="22.167864" lon="104.355469">
<ele>66.268616</ele>
<time>2011-04-27T07:59:51Z</time>
<desc>lat.=22.167864, lon.=104.355469, Alt.=66.268616m. Speed=0.756000m/h.</desc>
<speed>0.210000</speed>
</trkpt>
<trkpt lat="22.167858" lon="104.355476">
<ele>66.329163</ele>
<time>2011-04-27T07:59:56Z</time>
<desc>lat.=22.167858, lon.=104.355476, Alt.=66.329163m. Speed=0.648000m/h.</desc>
<speed>0.180000</speed>
</trkpt>
<trkpt lat="22.167856" lon="104.355476">
<ele>66.374084</ele>
<time>2011-04-27T08:00:01Z</time>
<desc>lat.=22.167856, lon.=104.355476, Alt.=66.374084m. Speed=0.252000m/h.</desc>
<speed>0.070000</speed>
</trkpt>
<trkpt lat="22.167856" lon="104.355476">
<ele>66.397522</ele>
<time>2011-04-27T08:00:06Z</time>
<desc>lat.=22.167856, lon.=104.355476, Alt.=66.397522m. Speed=0.540000m/h.</desc>
<speed>0.150000</speed>
</trkpt>
<trkpt lat="22.167854" lon="104.355476">
<ele>66.344788</ele>
<time>2011-04-27T08:00:11Z</time>
<desc>lat.=22.167854, lon.=104.355476, Alt.=66.344788m. Speed=1.188000m/h.</desc>
<speed>0.330000</speed>
</trkpt>
<trkpt lat="22.167845" lon="104.355522">
<ele>64.909241</ele>
<time>2011-04-27T08:00:16Z</time>
<desc>lat.=22.167845, lon.=104.355522, Alt.=64.909241m. Speed=1.404000m/h.</desc>
<speed>0.390000</speed>
</trkpt>
<trkpt lat="22.167858" lon="104.355499">
<ele>65.262756</ele>
<time>2011-04-27T08:00:21Z</time>
<desc>lat.=22.167858, lon.=104.355499, Alt.=65.262756m. Speed=1.260000m/h.</desc>
<speed>0.350000</speed>
</trkpt>
<trkpt lat="22.167866" lon="104.355484">
<ele>65.409241</ele>
<time>2011-04-27T08:00:26Z</time>
<desc>lat.=22.167866, lon.=104.355484, Alt.=65.409241m. Speed=0.288000m/h.</desc>
<speed>0.080000</speed>
</trkpt>
<trkpt lat="22.167858" lon="104.355484">
<ele>65.612366</ele>
<time>2011-04-27T08:00:31Z</time>
<desc>lat.=22.167858, lon.=104.355484, Alt.=65.612366m. Speed=0.396000m/h.</desc>
<speed>0.110000</speed>
</trkpt>
<trkpt lat="22.167854" lon="104.355484">
<ele>65.627991</ele>
<time>2011-04-27T08:00:36Z</time>
<desc>lat.=22.167854, lon.=104.355484, Alt.=65.627991m. Speed=0.144000m/h.</desc>
<speed>0.040000</speed>
</trkpt>
<trkpt lat="22.167852" lon="104.355484">
<ele>65.622131</ele>
<time>2011-04-27T08:00:41Z</time>
<desc>lat.=22.167852, lon.=104.355484, Alt.=65.622131m. Speed=0.252000m/h.</desc>
<speed>0.070000</speed>
</trkpt>
<trkpt lat="22.167854" lon="104.355484">
<ele>65.622131</ele>
<time>2011-04-27T08:00:46Z</time>
<desc>lat.=22.167854, lon.=104.355484, Alt.=65.622131m. Speed=0.288000m/h.</desc>
<speed>0.080000</speed>
</trkpt>
<trkpt lat="22.167856" lon="104.355484">
<ele>65.624084</ele>
<time>2011-04-27T08:00:51Z</time>
<desc>lat.=22.167856, lon.=104.355484, Alt.=65.624084m. Speed=0.396000m/h.</desc>
<speed>0.110000</speed>
</trkpt>
<trkpt lat="22.167858" lon="104.355484">
<ele>65.626038</ele>
<time>2011-04-27T08:00:56Z</time>
<desc>lat.=22.167858, lon.=104.355484, Alt.=65.626038m. Speed=0.108000m/h.</desc>
<speed>0.030000</speed>
</trkpt>
<trkpt lat="22.167858" lon="104.355484">
<ele>65.614319</ele>
<time>2011-04-27T08:01:01Z</time>
<desc>lat.=22.167858, lon.=104.355484, Alt.=65.614319m. Speed=0.000000m/h.</desc>
<speed>0.000000</speed>
</trkpt>
<trkpt lat="22.167858" lon="104.355484">
<ele>65.616272</ele>
<time>2011-04-27T08:01:06Z</time>
<desc>lat.=22.167858, lon.=104.355484, Alt.=65.616272m. Speed=0.000000m/h.</desc>
<speed>0.000000</speed>
</trkpt>
<trkpt lat="22.167858" lon="104.355484">
<ele>65.624084</ele>
<time>2011-04-27T08:01:11Z</time>
<desc>lat.=22.167858, lon.=104.355484, Alt.=65.624084m. Speed=0.000000m/h.</desc>
<speed>0.000000</speed>
</trkpt>
<trkpt lat="22.167860" lon="104.355484">
<ele>65.620178</ele>
<time>2011-04-27T08:01:16Z</time>
<desc>lat.=22.167860, lon.=104.355484, Alt.=65.620178m. Speed=0.000000m/h.</desc>
<speed>0.000000</speed>
</trkpt>
<trkpt lat="22.167860" lon="104.355484">
<ele>65.614319</ele>
<time>2011-04-27T08:01:21Z</time>
<desc>lat.=22.167860, lon.=104.355484, Alt.=65.614319m. Speed=0.000000m/h.</desc>
<speed>0.000000</speed>
</trkpt>
<trkpt lat="22.167860" lon="104.355484">
<ele>65.592834</ele>
<time>2011-04-27T08:01:26Z</time>
<desc>lat.=22.167860, lon.=104.355484, Alt.=65.592834m. Speed=0.288000m/h.</desc>
<speed>0.080000</speed>
</trkpt>
<trkpt lat="22.167860" lon="104.355484">
<ele>65.600647</ele>
<time>2011-04-27T08:01:31Z</time>
<desc>lat.=22.167860, lon.=104.355484, Alt.=65.600647m. Speed=0.072000m/h.</desc>
<speed>0.020000</speed>
</trkpt>
<trkpt lat="22.167860" lon="104.355484">
<ele>65.602600</ele>
<time>2011-04-27T08:01:36Z</time>
<desc>lat.=22.167860, lon.=104.355484, Alt.=65.602600m. Speed=0.000000m/h.</desc>
<speed>0.000000</speed>
</trkpt>
<trkpt lat="22.167860" lon="104.355484">
<ele>65.602600</ele>
<time>2011-04-27T08:01:41Z</time>
<desc>lat.=22.167860, lon.=104.355484, Alt.=65.602600m. Speed=0.000000m/h.</desc>
<speed>0.000000</speed>
</trkpt>
<trkpt lat="22.167860" lon="104.355484">
<ele>65.610413</ele>
<time>2011-04-27T08:01:46Z</time>
<desc>lat.=22.167860, lon.=104.355484, Alt.=65.610413m. Speed=0.072000m/h.</desc>
<speed>0.020000</speed>
</trkpt>
<trkpt lat="22.167860" lon="104.355484">
<ele>65.604553</ele>
<time>2011-04-27T08:01:51Z</time>
<desc>lat.=22.167860, lon.=104.355484, Alt.=65.604553m. Speed=0.072000m/h.</desc>
<speed>0.020000</speed>
</trkpt>
<trkpt lat="22.167862" lon="104.355484">
<ele>65.627991</ele>
<time>2011-04-27T08:01:56Z</time>
<desc>lat.=22.167862, lon.=104.355484, Alt.=65.627991m. Speed=0.216000m/h.</desc>
<speed>0.060000</speed>
</trkpt>
<trkpt lat="22.167862" lon="104.355484">
<ele>65.645569</ele>
<time>2011-04-27T08:02:01Z</time>
<desc>lat.=22.167862, lon.=104.355484, Alt.=65.645569m. Speed=0.108000m/h.</desc>
<speed>0.030000</speed>
</trkpt>
<trkpt lat="22.167862" lon="104.355484">
<ele>65.655334</ele>
<time>2011-04-27T08:02:06Z</time>
<desc>lat.=22.167862, lon.=104.355484, Alt.=65.655334m. Speed=0.108000m/h.</desc>
<speed>0.030000</speed>
</trkpt>
<trkpt lat="22.167862" lon="104.355484">
<ele>65.657288</ele>
<time>2011-04-27T08:02:11Z</time>
<desc>lat.=22.167862, lon.=104.355484, Alt.=65.657288m. Speed=0.072000m/h.</desc>
<speed>0.020000</speed>
</trkpt>
<trkpt lat="22.167862" lon="104.355484">
<ele>65.688538</ele>
<time>2011-04-27T08:02:16Z</time>
<desc>lat.=22.167862, lon.=104.355484, Alt.=65.688538m. Speed=0.108000m/h.</desc>
<speed>0.030000</speed>
</trkpt>
<trkpt lat="22.167864" lon="104.355484">
<ele>65.737366</ele>
<time>2011-04-27T08:02:21Z</time>
<desc>lat.=22.167864, lon.=104.355484, Alt.=65.737366m. Speed=0.036000m/h.</desc>
<speed>0.010000</speed>
</trkpt>
<trkpt lat="22.167864" lon="104.355484">
<ele>65.772522</ele>
<time>2011-04-27T08:02:26Z</time>
<desc>lat.=22.167864, lon.=104.355484, Alt.=65.772522m. Speed=0.000000m/h.</desc>
<speed>0.000000</speed>
</trkpt>
<trkpt lat="22.167864" lon="104.355484">
<ele>65.819397</ele>
<time>2011-04-27T08:02:31Z</time>
<desc>lat.=22.167864, lon.=104.355484, Alt.=65.819397m. Speed=0.036000m/h.</desc>
<speed>0.010000</speed>
</trkpt>
<trkpt lat="22.167864" lon="104.355484">
<ele>65.831116</ele>
<time>2011-04-27T08:02:36Z</time>
<desc>lat.=22.167864, lon.=104.355484, Alt.=65.831116m. Speed=0.108000m/h.</desc>
<speed>0.030000</speed>
</trkpt>
<trkpt lat="22.167864" lon="104.355484">
<ele>65.838928</ele>
<time>2011-04-27T08:02:41Z</time>
<desc>lat.=22.167864, lon.=104.355484, Alt.=65.838928m. Speed=0.000000m/h.</desc>
<speed>0.000000</speed>
</trkpt>
<trkpt lat="22.167866" lon="104.355484">
<ele>65.844788</ele>
<time>2011-04-27T08:02:46Z</time>
<desc>lat.=22.167866, lon.=104.355484, Alt.=65.844788m. Speed=0.036000m/h.</desc>
<speed>0.010000</speed>
</trkpt>
<trkpt lat="22.167866" lon="104.355484">
<ele>65.866272</ele>
<time>2011-04-27T08:02:51Z</time>
<desc>lat.=22.167866, lon.=104.355484, Alt.=65.866272m. Speed=0.000000m/h.</desc>
<speed>0.000000</speed>
</trkpt>
<trkpt lat="22.167866" lon="104.355484">
<ele>65.879944</ele>
<time>2011-04-27T08:02:56Z</time>
<desc>lat.=22.167866, lon.=104.355484, Alt.=65.879944m. Speed=0.036000m/h.</desc>
<speed>0.010000</speed>
</trkpt>
<trkpt lat="22.167866" lon="104.355484">
<ele>65.897522</ele>
<time>2011-04-27T08:03:01Z</time>
<desc>lat.=22.167866, lon.=104.355484, Alt.=65.897522m. Speed=0.072000m/h.</desc>
<speed>0.020000</speed>
</trkpt>
<trkpt lat="22.167866" lon="104.355484">
<ele>65.885803</ele>
<time>2011-04-27T08:03:06Z</time>
<desc>lat.=22.167866, lon.=104.355484, Alt.=65.885803m. Speed=0.036000m/h.</desc>
<speed>0.010000</speed>
</trkpt>
<trkpt lat="22.167866" lon="104.355484">
<ele>65.887756</ele>
<time>2011-04-27T08:03:11Z</time>
<desc>lat.=22.167866, lon.=104.355484, Alt.=65.887756m. Speed=0.036000m/h.</desc>
<speed>0.010000</speed>
</trkpt>
<trkpt lat="22.167866" lon="104.355484">
<ele>65.895569</ele>
<time>2011-04-27T08:03:16Z</time>
<desc>lat.=22.167866, lon.=104.355484, Alt.=65.895569m. Speed=0.000000m/h.</desc>
<speed>0.000000</speed>
</trkpt>
<trkpt lat="22.167868" lon="104.355484">
<ele>65.903381</ele>
<time>2011-04-27T08:03:21Z</time>
<desc>lat.=22.167868, lon.=104.355484, Alt.=65.903381m. Speed=0.036000m/h.</desc>
<speed>0.010000</speed>
</trkpt>
<trkpt lat="22.167868" lon="104.355484">
<ele>65.891663</ele>
<time>2011-04-27T08:03:26Z</time>
<desc>lat.=22.167868, lon.=104.355484, Alt.=65.891663m. Speed=0.000000m/h.</desc>
<speed>0.000000</speed>
</trkpt>
<trkpt lat="22.167868" lon="104.355484">
<ele>65.821350</ele>
<time>2011-04-27T08:03:31Z</time>
<desc>lat.=22.167868, lon.=104.355484, Alt.=65.821350m. Speed=0.000000m/h.</desc>
<speed>0.000000</speed>
</trkpt>
<trkpt lat="22.167868" lon="104.355484">
<ele>65.792053</ele>
<time>2011-04-27T08:03:36Z</time>
<desc>lat.=22.167868, lon.=104.355484, Alt.=65.792053m. Speed=0.036000m/h.</desc>
<speed>0.010000</speed>
</trkpt>
<trkpt lat="22.167868" lon="104.355484">
<ele>65.799866</ele>
<time>2011-04-27T08:03:41Z</time>
<desc>lat.=22.167868, lon.=104.355484, Alt.=65.799866m. Speed=0.036000m/h.</desc>
<speed>0.010000</speed>
</trkpt>
<trkpt lat="22.167868" lon="104.355484">
<ele>65.815491</ele>
<time>2011-04-27T08:03:46Z</time>
<desc>lat.=22.167868, lon.=104.355484, Alt.=65.815491m. Speed=0.036000m/h.</desc>
<speed>0.010000</speed>
</trkpt>
<trkpt lat="22.167868" lon="104.355484">
<ele>65.829163</ele>
<time>2011-04-27T08:03:51Z</time>
<desc>lat.=22.167868, lon.=104.355484, Alt.=65.829163m. Speed=0.036000m/h.</desc>
<speed>0.010000</speed>
</trkpt>
<trkpt lat="22.167868" lon="104.355484">
<ele>65.827209</ele>
<time>2011-04-27T08:03:56Z</time>
<desc>lat.=22.167868, lon.=104.355484, Alt.=65.827209m. Speed=0.072000m/h.</desc>
<speed>0.020000</speed>
</trkpt>
<trkpt lat="22.167868" lon="104.355484">
<ele>65.833069</ele>
<time>2011-04-27T08:04:01Z</time>
<desc>lat.=22.167868, lon.=104.355484, Alt.=65.833069m. Speed=0.036000m/h.</desc>
<speed>0.010000</speed>
</trkpt>
<trkpt lat="22.167868" lon="104.355484">
<ele>65.864319</ele>
<time>2011-04-27T08:04:06Z</time>
<desc>lat.=22.167868, lon.=104.355484, Alt.=65.864319m. Speed=0.036000m/h.</desc>
<speed>0.010000</speed>
</trkpt>
<trkpt lat="22.167870" lon="104.355484">
<ele>65.907288</ele>
<time>2011-04-27T08:04:11Z</time>
<desc>lat.=22.167870, lon.=104.355484, Alt.=65.907288m. Speed=0.036000m/h.</desc>
<speed>0.010000</speed>
</trkpt>
<trkpt lat="22.167870" lon="104.355484">
<ele>65.928772</ele>
<time>2011-04-27T08:04:16Z</time>
<desc>lat.=22.167870, lon.=104.355484, Alt.=65.928772m. Speed=0.000000m/h.</desc>
<speed>0.000000</speed>
</trkpt>
<trkpt lat="22.167870" lon="104.355484">
<ele>65.960022</ele>
<time>2011-04-27T08:04:21Z</time>
<desc>lat.=22.167870, lon.=104.355484, Alt.=65.960022m. Speed=0.036000m/h.</desc>
<speed>0.010000</speed>
</trkpt>
<trkpt lat="22.167870" lon="104.355484">
<ele>65.983459</ele>
<time>2011-04-27T08:04:26Z</time>
<desc>lat.=22.167870, lon.=104.355484, Alt.=65.983459m. Speed=0.036000m/h.</desc>
<speed>0.010000</speed>
</trkpt>
<trkpt lat="22.167870" lon="104.355484">
<ele>65.997131</ele>
<time>2011-04-27T08:04:31Z</time>
<desc>lat.=22.167870, lon.=104.355484, Alt.=65.997131m. Speed=0.108000m/h.</desc>
<speed>0.030000</speed>
</trkpt>
<trkpt lat="22.167870" lon="104.355484">
<ele>66.014709</ele>
<time>2011-04-27T08:04:36Z</time>
<desc>lat.=22.167870, lon.=104.355484, Alt.=66.014709m. Speed=0.036000m/h.</desc>
<speed>0.010000</speed>
</trkpt>
<trkpt lat="22.167870" lon="104.355484">
<ele>66.047913</ele>
<time>2011-04-27T08:04:41Z</time>
<desc>lat.=22.167870, lon.=104.355484, Alt.=66.047913m. Speed=0.000000m/h.</desc>
<speed>0.000000</speed>
</trkpt>
<trkpt lat="22.167870" lon="104.355484">
<ele>66.077209</ele>
<time>2011-04-27T08:04:46Z</time>
<desc>lat.=22.167870, lon.=104.355484, Alt.=66.077209m. Speed=0.036000m/h.</desc>
<speed>0.010000</speed>
</trkpt>
<trkpt lat="22.167870" lon="104.355484">
<ele>66.118225</ele>
<time>2011-04-27T08:04:51Z</time>
<desc>lat.=22.167870, lon.=104.355484, Alt.=66.118225m. Speed=0.036000m/h.</desc>
<speed>0.010000</speed>
</trkpt>
<trkpt lat="22.167870" lon="104.355484">
<ele>66.186584</ele>
<time>2011-04-27T08:04:56Z</time>
<desc>lat.=22.167870, lon.=104.355484, Alt.=66.186584m. Speed=0.036000m/h.</desc>
<speed>0.010000</speed>
</trkpt>
<trkpt lat="22.167870" lon="104.355484">
<ele>66.231506</ele>
<time>2011-04-27T08:05:01Z</time>
<desc>lat.=22.167870, lon.=104.355484, Alt.=66.231506m. Speed=0.000000m/h.</desc>
<speed>0.000000</speed>
</trkpt>
<trkpt lat="22.167870" lon="104.355484">
<ele>66.268616</ele>
<time>2011-04-27T08:05:06Z</time>
<desc>lat.=22.167870, lon.=104.355484, Alt.=66.268616m. Speed=0.000000m/h.</desc>
<speed>0.000000</speed>
</trkpt>
<trkpt lat="22.167870" lon="104.355484">
<ele>66.303772</ele>
<time>2011-04-27T08:05:11Z</time>
<desc>lat.=22.167870, lon.=104.355484, Alt.=66.303772m. Speed=0.000000m/h.</desc>
<speed>0.000000</speed>
</trkpt>
<trkpt lat="22.167871" lon="104.355484">
<ele>66.335022</ele>
<time>2011-04-27T08:05:16Z</time>
<desc>lat.=22.167871, lon.=104.355484, Alt.=66.335022m. Speed=0.036000m/h.</desc>
<speed>0.010000</speed>
</trkpt>
<trkpt lat="22.167871" lon="104.355484">
<ele>66.338928</ele>
<time>2011-04-27T08:05:21Z</time>
<desc>lat.=22.167871, lon.=104.355484, Alt.=66.338928m. Speed=0.000000m/h.</desc>
<speed>0.000000</speed>
</trkpt>
<trkpt lat="22.167871" lon="104.355484">
<ele>66.358459</ele>
<time>2011-04-27T08:05:26Z</time>
<desc>lat.=22.167871, lon.=104.355484, Alt.=66.358459m. Speed=0.072000m/h.</desc>
<speed>0.020000</speed>
</trkpt>
<trkpt lat="22.167871" lon="104.355484">
<ele>66.379944</ele>
<time>2011-04-27T08:05:31Z</time>
<desc>lat.=22.167871, lon.=104.355484, Alt.=66.379944m. Speed=0.000000m/h.</desc>
<speed>0.000000</speed>
</trkpt>
<trkpt lat="22.167871" lon="104.355484">
<ele>66.434631</ele>
<time>2011-04-27T08:05:36Z</time>
<desc>lat.=22.167871, lon.=104.355484, Alt.=66.434631m. Speed=0.072000m/h.</desc>
<speed>0.020000</speed>
</trkpt>
<trkpt lat="22.167871" lon="104.355484">
<ele>66.463928</ele>
<time>2011-04-27T08:05:41Z</time>
<desc>lat.=22.167871, lon.=104.355484, Alt.=66.463928m. Speed=0.108000m/h.</desc>
<speed>0.030000</speed>
</trkpt>
<trkpt lat="22.167871" lon="104.355484">
<ele>66.528381</ele>
<time>2011-04-27T08:05:46Z</time>
<desc>lat.=22.167871, lon.=104.355484, Alt.=66.528381m. Speed=0.036000m/h.</desc>
<speed>0.010000</speed>
</trkpt>
<trkpt lat="22.167871" lon="104.355484">
<ele>66.612366</ele>
<time>2011-04-27T08:05:51Z</time>
<desc>lat.=22.167871, lon.=104.355484, Alt.=66.612366m. Speed=0.072000m/h.</desc>
<speed>0.020000</speed>
</trkpt>
<trkpt lat="22.167871" lon="104.355484">
<ele>66.682678</ele>
<time>2011-04-27T08:05:56Z</time>
<desc>lat.=22.167871, lon.=104.355484, Alt.=66.682678m. Speed=0.072000m/h.</desc>
<speed>0.020000</speed>
</trkpt>
<trkpt lat="22.167871" lon="104.355484">
<ele>66.754944</ele>
<time>2011-04-27T08:06:01Z</time>
<desc>lat.=22.167871, lon.=104.355484, Alt.=66.754944m. Speed=0.000000m/h.</desc>
<speed>0.000000</speed>
</trkpt>
<trkpt lat="22.167871" lon="104.355484">
<ele>66.815491</ele>
<time>2011-04-27T08:06:06Z</time>
<desc>lat.=22.167871, lon.=104.355484, Alt.=66.815491m. Speed=0.036000m/h.</desc>
<speed>0.010000</speed>
</trkpt>
<trkpt lat="22.167871" lon="104.355476">
<ele>66.856506</ele>
<time>2011-04-27T08:06:11Z</time>
<desc>lat.=22.167871, lon.=104.355476, Alt.=66.856506m. Speed=0.000000m/h.</desc>
<speed>0.000000</speed>
</trkpt>
<trkpt lat="22.167871" lon="104.355484">
<ele>66.877991</ele>
<time>2011-04-27T08:06:16Z</time>
<desc>lat.=22.167871, lon.=104.355484, Alt.=66.877991m. Speed=0.072000m/h.</desc>
<speed>0.020000</speed>
</trkpt>
<trkpt lat="22.167871" lon="104.355476">
<ele>66.909241</ele>
<time>2011-04-27T08:06:21Z</time>
<desc>lat.=22.167871, lon.=104.355476, Alt.=66.909241m. Speed=0.072000m/h.</desc>
<speed>0.020000</speed>
</trkpt>
<trkpt lat="22.167871" lon="104.355476">
<ele>66.940491</ele>
<time>2011-04-27T08:06:26Z</time>
<desc>lat.=22.167871, lon.=104.355476, Alt.=66.940491m. Speed=0.036000m/h.</desc>
<speed>0.010000</speed>
</trkpt>
<trkpt lat="22.167871" lon="104.355476">
<ele>66.961975</ele>
<time>2011-04-27T08:06:31Z</time>
<desc>lat.=22.167871, lon.=104.355476, Alt.=66.961975m. Speed=0.000000m/h.</desc>
<speed>0.000000</speed>
</trkpt>
<trkpt lat="22.167871" lon="104.355476">
<ele>66.989319</ele>
<time>2011-04-27T08:06:36Z</time>
<desc>lat.=22.167871, lon.=104.355476, Alt.=66.989319m. Speed=0.000000m/h.</desc>
<speed>0.000000</speed>
</trkpt>
<trkpt lat="22.167873" lon="104.355476">
<ele>67.014709</ele>
<time>2011-04-27T08:06:41Z</time>
<desc>lat.=22.167873, lon.=104.355476, Alt.=67.014709m. Speed=0.072000m/h.</desc>
<speed>0.020000</speed>
</trkpt>
<trkpt lat="22.167873" lon="104.355476">
<ele>67.040100</ele>
<time>2011-04-27T08:06:46Z</time>
<desc>lat.=22.167873, lon.=104.355476, Alt.=67.040100m. Speed=0.000000m/h.</desc>
<speed>0.000000</speed>
</trkpt>
<trkpt lat="22.167873" lon="104.355476">
<ele>67.059631</ele>
<time>2011-04-27T08:06:51Z</time>
<desc>lat.=22.167873, lon.=104.355476, Alt.=67.059631m. Speed=0.036000m/h.</desc>
<speed>0.010000</speed>
</trkpt>
<trkpt lat="22.167873" lon="104.355476">
<ele>67.086975</ele>
<time>2011-04-27T08:06:56Z</time>
<desc>lat.=22.167873, lon.=104.355476, Alt.=67.086975m. Speed=0.000000m/h.</desc>
<speed>0.000000</speed>
</trkpt>
<trkpt lat="22.167873" lon="104.355476">
<ele>67.129944</ele>
<time>2011-04-27T08:07:01Z</time>
<desc>lat.=22.167873, lon.=104.355476, Alt.=67.129944m. Speed=0.000000m/h.</desc>
<speed>0.000000</speed>
</trkpt>
<trkpt lat="22.167873" lon="104.355476">
<ele>67.149475</ele>
<time>2011-04-27T08:07:06Z</time>
<desc>lat.=22.167873, lon.=104.355476, Alt.=67.149475m. Speed=0.000000m/h.</desc>
<speed>0.000000</speed>
</trkpt>
<trkpt lat="22.167875" lon="104.355476">
<ele>67.180725</ele>
<time>2011-04-27T08:07:11Z</time>
<desc>lat.=22.167875, lon.=104.355476, Alt.=67.180725m. Speed=0.072000m/h.</desc>
<speed>0.020000</speed>
</trkpt>
<trkpt lat="22.167875" lon="104.355476">
<ele>67.194397</ele>
<time>2011-04-27T08:07:16Z</time>
<desc>lat.=22.167875, lon.=104.355476, Alt.=67.194397m. Speed=0.000000m/h.</desc>
<speed>0.000000</speed>
</trkpt>
<trkpt lat="22.167875" lon="104.355476">
<ele>67.210022</ele>
<time>2011-04-27T08:07:21Z</time>
<desc>lat.=22.167875, lon.=104.355476, Alt.=67.210022m. Speed=0.036000m/h.</desc>
<speed>0.010000</speed>
</trkpt>
<trkpt lat="22.167875" lon="104.355476">
<ele>67.227600</ele>
<time>2011-04-27T08:07:26Z</time>
<desc>lat.=22.167875, lon.=104.355476, Alt.=67.227600m. Speed=0.000000m/h.</desc>
<speed>0.000000</speed>
</trkpt>
<trkpt lat="22.167875" lon="104.355476">
<ele>67.245178</ele>
<time>2011-04-27T08:07:31Z</time>
<desc>lat.=22.167875, lon.=104.355476, Alt.=67.245178m. Speed=0.000000m/h.</desc>
<speed>0.000000</speed>
</trkpt>
<trkpt lat="22.167877" lon="104.355476">
<ele>67.272522</ele>
<time>2011-04-27T08:07:36Z</time>
<desc>lat.=22.167877, lon.=104.355476, Alt.=67.272522m. Speed=0.000000m/h.</desc>
<speed>0.000000</speed>
</trkpt>
<trkpt lat="22.167877" lon="104.355476">
<ele>67.305725</ele>
<time>2011-04-27T08:07:41Z</time>
<desc>lat.=22.167877, lon.=104.355476, Alt.=67.305725m. Speed=0.036000m/h.</desc>
<speed>0.010000</speed>
</trkpt>
<trkpt lat="22.167877" lon="104.355476">
<ele>67.356506</ele>
<time>2011-04-27T08:07:46Z</time>
<desc>lat.=22.167877, lon.=104.355476, Alt.=67.356506m. Speed=0.036000m/h.</desc>
<speed>0.010000</speed>
</trkpt>
<trkpt lat="22.167879" lon="104.355476">
<ele>67.381897</ele>
<time>2011-04-27T08:07:51Z</time>
<desc>lat.=22.167879, lon.=104.355476, Alt.=67.381897m. Speed=0.036000m/h.</desc>
<speed>0.010000</speed>
</trkpt>
<trkpt lat="22.167879" lon="104.355476">
<ele>67.393616</ele>
<time>2011-04-27T08:07:56Z</time>
<desc>lat.=22.167879, lon.=104.355476, Alt.=67.393616m. Speed=0.000000m/h.</desc>
<speed>0.000000</speed>
</trkpt>
<trkpt lat="22.167879" lon="104.355476">
<ele>67.407288</ele>
<time>2011-04-27T08:08:01Z</time>
<desc>lat.=22.167879, lon.=104.355476, Alt.=67.407288m. Speed=0.000000m/h.</desc>
<speed>0.000000</speed>
</trkpt>
<trkpt lat="22.167879" lon="104.355476">
<ele>67.403381</ele>
<time>2011-04-27T08:08:06Z</time>
<desc>lat.=22.167879, lon.=104.355476, Alt.=67.403381m. Speed=0.072000m/h.</desc>
<speed>0.020000</speed>
</trkpt>
<trkpt lat="22.167879" lon="104.355476">
<ele>67.389709</ele>
<time>2011-04-27T08:08:11Z</time>
<desc>lat.=22.167879, lon.=104.355476, Alt.=67.389709m. Speed=0.036000m/h.</desc>
<speed>0.010000</speed>
</trkpt>
<trkpt lat="22.167881" lon="104.355476">
<ele>67.399475</ele>
<time>2011-04-27T08:08:16Z</time>
<desc>lat.=22.167881, lon.=104.355476, Alt.=67.399475m. Speed=0.036000m/h.</desc>
<speed>0.010000</speed>
</trkpt>
<trkpt lat="22.167881" lon="104.355476">
<ele>67.415100</ele>
<time>2011-04-27T08:08:21Z</time>
<desc>lat.=22.167881, lon.=104.355476, Alt.=67.415100m. Speed=0.072000m/h.</desc>
<speed>0.020000</speed>
</trkpt>
<trkpt lat="22.167881" lon="104.355476">
<ele>67.432678</ele>
<time>2011-04-27T08:08:26Z</time>
<desc>lat.=22.167881, lon.=104.355476, Alt.=67.432678m. Speed=0.072000m/h.</desc>
<speed>0.020000</speed>
</trkpt>
<trkpt lat="22.167881" lon="104.355476">
<ele>67.456116</ele>
<time>2011-04-27T08:08:31Z</time>
<desc>lat.=22.167881, lon.=104.355476, Alt.=67.456116m. Speed=0.108000m/h.</desc>
<speed>0.030000</speed>
</trkpt>
<trkpt lat="22.167883" lon="104.355476">
<ele>67.465881</ele>
<time>2011-04-27T08:08:36Z</time>
<desc>lat.=22.167883, lon.=104.355476, Alt.=67.465881m. Speed=0.072000m/h.</desc>
<speed>0.020000</speed>
</trkpt>
<trkpt lat="22.167883" lon="104.355476">
<ele>67.477600</ele>
<time>2011-04-27T08:08:41Z</time>
<desc>lat.=22.167883, lon.=104.355476, Alt.=67.477600m. Speed=0.072000m/h.</desc>
<speed>0.020000</speed>
</trkpt>
<trkpt lat="22.167883" lon="104.355476">
<ele>67.489319</ele>
<time>2011-04-27T08:08:46Z</time>
<desc>lat.=22.167883, lon.=104.355476, Alt.=67.489319m. Speed=0.000000m/h.</desc>
<speed>0.000000</speed>
</trkpt>
<trkpt lat="22.167883" lon="104.355476">
<ele>67.516663</ele>
<time>2011-04-27T08:08:51Z</time>
<desc>lat.=22.167883, lon.=104.355476, Alt.=67.516663m. Speed=0.036000m/h.</desc>
<speed>0.010000</speed>
</trkpt>
<trkpt lat="22.167883" lon="104.355476">
<ele>67.536194</ele>
<time>2011-04-27T08:08:56Z</time>
<desc>lat.=22.167883, lon.=104.355476, Alt.=67.536194m. Speed=0.036000m/h.</desc>
<speed>0.010000</speed>
</trkpt>
<trkpt lat="22.167883" lon="104.355476">
<ele>67.567444</ele>
<time>2011-04-27T08:09:01Z</time>
<desc>lat.=22.167883, lon.=104.355476, Alt.=67.567444m. Speed=0.072000m/h.</desc>
<speed>0.020000</speed>
</trkpt>
<trkpt lat="22.167885" lon="104.355476">
<ele>67.616272</ele>
<time>2011-04-27T08:09:06Z</time>
<desc>lat.=22.167885, lon.=104.355476, Alt.=67.616272m. Speed=0.432000m/h.</desc>
<speed>0.120000</speed>
</trkpt>
<trkpt lat="22.167885" lon="104.355476">
<ele>67.655334</ele>
<time>2011-04-27T08:09:11Z</time>
<desc>lat.=22.167885, lon.=104.355476, Alt.=67.655334m. Speed=0.072000m/h.</desc>
<speed>0.020000</speed>
</trkpt>
<trkpt lat="22.167885" lon="104.355476">
<ele>67.688538</ele>
<time>2011-04-27T08:09:16Z</time>
<desc>lat.=22.167885, lon.=104.355476, Alt.=67.688538m. Speed=0.036000m/h.</desc>
<speed>0.010000</speed>
</trkpt>
<trkpt lat="22.167885" lon="104.355476">
<ele>67.694397</ele>
<time>2011-04-27T08:09:21Z</time>
<desc>lat.=22.167885, lon.=104.355476, Alt.=67.694397m. Speed=0.036000m/h.</desc>
<speed>0.010000</speed>
</trkpt>
<trkpt lat="22.167885" lon="104.355476">
<ele>67.698303</ele>
<time>2011-04-27T08:09:26Z</time>
<desc>lat.=22.167885, lon.=104.355476, Alt.=67.698303m. Speed=0.072000m/h.</desc>
<speed>0.020000</speed>
</trkpt>
<trkpt lat="22.167885" lon="104.355476">
<ele>67.719788</ele>
<time>2011-04-27T08:09:31Z</time>
<desc>lat.=22.167885, lon.=104.355476, Alt.=67.719788m. Speed=0.000000m/h.</desc>
<speed>0.000000</speed>
</trkpt>
<trkpt lat="22.167887" lon="104.355476">
<ele>67.749084</ele>
<time>2011-04-27T08:09:36Z</time>
<desc>lat.=22.167887, lon.=104.355476, Alt.=67.749084m. Speed=0.108000m/h.</desc>
<speed>0.030000</speed>
</trkpt>
<trkpt lat="22.167887" lon="104.355476">
<ele>67.745178</ele>
<time>2011-04-27T08:09:41Z</time>
<desc>lat.=22.167887, lon.=104.355476, Alt.=67.745178m. Speed=0.108000m/h.</desc>
<speed>0.030000</speed>
</trkpt>
<trkpt lat="22.167887" lon="104.355476">
<ele>67.727600</ele>
<time>2011-04-27T08:09:46Z</time>
<desc>lat.=22.167887, lon.=104.355476, Alt.=67.727600m. Speed=0.216000m/h.</desc>
<speed>0.060000</speed>
</trkpt>
<trkpt lat="22.167889" lon="104.355476">
<ele>67.749084</ele>
<time>2011-04-27T08:09:51Z</time>
<desc>lat.=22.167889, lon.=104.355476, Alt.=67.749084m. Speed=0.180000m/h.</desc>
<speed>0.050000</speed>
</trkpt>
<trkpt lat="22.167889" lon="104.355484">
<ele>67.756897</ele>
<time>2011-04-27T08:09:56Z</time>
<desc>lat.=22.167889, lon.=104.355484, Alt.=67.756897m. Speed=0.072000m/h.</desc>
<speed>0.020000</speed>
</trkpt>
<trkpt lat="22.167889" lon="104.355484">
<ele>67.766663</ele>
<time>2011-04-27T08:10:01Z</time>
<desc>lat.=22.167889, lon.=104.355484, Alt.=67.766663m. Speed=0.072000m/h.</desc>
<speed>0.020000</speed>
</trkpt>
<trkpt lat="22.167891" lon="104.355484">
<ele>67.795959</ele>
<time>2011-04-27T08:10:06Z</time>
<desc>lat.=22.167891, lon.=104.355484, Alt.=67.795959m. Speed=0.036000m/h.</desc>
<speed>0.010000</speed>
</trkpt>
<trkpt lat="22.167891" lon="104.355484">
<ele>67.811584</ele>
<time>2011-04-27T08:10:11Z</time>
<desc>lat.=22.167891, lon.=104.355484, Alt.=67.811584m. Speed=0.144000m/h.</desc>
<speed>0.040000</speed>
</trkpt>
<trkpt lat="22.167891" lon="104.355484">
<ele>67.836975</ele>
<time>2011-04-27T08:10:16Z</time>
<desc>lat.=22.167891, lon.=104.355484, Alt.=67.836975m. Speed=0.108000m/h.</desc>
<speed>0.030000</speed>
</trkpt>
<trkpt lat="22.167891" lon="104.355484">
<ele>67.870178</ele>
<time>2011-04-27T08:10:21Z</time>
<desc>lat.=22.167891, lon.=104.355484, Alt.=67.870178m. Speed=0.108000m/h.</desc>
<speed>0.030000</speed>
</trkpt>
<trkpt lat="22.167891" lon="104.355484">
<ele>67.905334</ele>
<time>2011-04-27T08:10:26Z</time>
<desc>lat.=22.167891, lon.=104.355484, Alt.=67.905334m. Speed=0.000000m/h.</desc>
<speed>0.000000</speed>
</trkpt>
<trkpt lat="22.167892" lon="104.355484">
<ele>67.960022</ele>
<time>2011-04-27T08:10:31Z</time>
<desc>lat.=22.167892, lon.=104.355484, Alt.=67.960022m. Speed=0.072000m/h.</desc>
<speed>0.020000</speed>
</trkpt>
<trkpt lat="22.167892" lon="104.355484">
<ele>67.958069</ele>
<time>2011-04-27T08:10:36Z</time>
<desc>lat.=22.167892, lon.=104.355484, Alt.=67.958069m. Speed=0.180000m/h.</desc>
<speed>0.050000</speed>
</trkpt>
<trkpt lat="22.167892" lon="104.355484">
<ele>67.983459</ele>
<time>2011-04-27T08:10:41Z</time>
<desc>lat.=22.167892, lon.=104.355484, Alt.=67.983459m. Speed=0.108000m/h.</desc>
<speed>0.030000</speed>
</trkpt>
<trkpt lat="22.167894" lon="104.355484">
<ele>68.028381</ele>
<time>2011-04-27T08:10:46Z</time>
<desc>lat.=22.167894, lon.=104.355484, Alt.=68.028381m. Speed=0.036000m/h.</desc>
<speed>0.010000</speed>
</trkpt>
<trkpt lat="22.167894" lon="104.355484">
<ele>68.079163</ele>
<time>2011-04-27T08:10:51Z</time>
<desc>lat.=22.167894, lon.=104.355484, Alt.=68.079163m. Speed=0.072000m/h.</desc>
<speed>0.020000</speed>
</trkpt>
<trkpt lat="22.167894" lon="104.355484">
<ele>68.122131</ele>
<time>2011-04-27T08:10:56Z</time>
<desc>lat.=22.167894, lon.=104.355484, Alt.=68.122131m. Speed=0.036000m/h.</desc>
<speed>0.010000</speed>
</trkpt>
<trkpt lat="22.167896" lon="104.355484">
<ele>68.147522</ele>
<time>2011-04-27T08:11:01Z</time>
<desc>lat.=22.167896, lon.=104.355484, Alt.=68.147522m. Speed=0.036000m/h.</desc>
<speed>0.010000</speed>
</trkpt>
<trkpt lat="22.167894" lon="104.355484">
<ele>68.118225</ele>
<time>2011-04-27T08:11:06Z</time>
<desc>lat.=22.167894, lon.=104.355484, Alt.=68.118225m. Speed=0.216000m/h.</desc>
<speed>0.060000</speed>
</trkpt>
<trkpt lat="22.167898" lon="104.355476">
<ele>67.938538</ele>
<time>2011-04-27T08:11:11Z</time>
<desc>lat.=22.167898, lon.=104.355476, Alt.=67.938538m. Speed=0.504000m/h.</desc>
<speed>0.140000</speed>
</trkpt>
<trkpt lat="22.167902" lon="104.355469">
<ele>67.620178</ele>
<time>2011-04-27T08:11:16Z</time>
<desc>lat.=22.167902, lon.=104.355469, Alt.=67.620178m. Speed=0.504000m/h.</desc>
<speed>0.140000</speed>
</trkpt>
<trkpt lat="22.167913" lon="104.355453">
<ele>67.254944</ele>
<time>2011-04-27T08:11:21Z</time>
<desc>lat.=22.167913, lon.=104.355453, Alt.=67.254944m. Speed=5.328000m/h.</desc>
<speed>1.480000</speed>
</trkpt>
<trkpt lat="22.167946" lon="104.355370">
<ele>67.446350</ele>
<time>2011-04-27T08:11:26Z</time>
<desc>lat.=22.167946, lon.=104.355370, Alt.=67.446350m. Speed=7.452000m/h.</desc>
<speed>2.070000</speed>
</trkpt>
<trkpt lat="22.167923" lon="104.355232">
<ele>66.924866</ele>
<time>2011-04-27T08:11:31Z</time>
<desc>lat.=22.167923, lon.=104.355232, Alt.=66.924866m. Speed=11.664000m/h.</desc>
<speed>3.240000</speed>
</trkpt>
<trkpt lat="22.167847" lon="104.355095">
<ele>69.092834</ele>
<time>2011-04-27T08:11:36Z</time>
<desc>lat.=22.167847, lon.=104.355095, Alt.=69.092834m. Speed=8.568000m/h.</desc>
<speed>2.380000</speed>
</trkpt>
<trkpt lat="22.167784" lon="104.355026">
<ele>70.133850</ele>
<time>2011-04-27T08:11:41Z</time>
<desc>lat.=22.167784, lon.=104.355026, Alt.=70.133850m. Speed=5.076000m/h.</desc>
<speed>1.410000</speed>
</trkpt>
<trkpt lat="22.167744" lon="104.354973">
<ele>72.784241</ele>
<time>2011-04-27T08:11:46Z</time>
<desc>lat.=22.167744, lon.=104.354973, Alt.=72.784241m. Speed=5.364000m/h.</desc>
<speed>1.490000</speed>
</trkpt>
<trkpt lat="22.167665" lon="104.354897">
<ele>74.356506</ele>
<time>2011-04-27T08:11:51Z</time>
<desc>lat.=22.167665, lon.=104.354897, Alt.=74.356506m. Speed=7.020000m/h.</desc>
<speed>1.950000</speed>
</trkpt>
<trkpt lat="22.167574" lon="104.354820">
<ele>74.721741</ele>
<time>2011-04-27T08:11:56Z</time>
<desc>lat.=22.167574, lon.=104.354820, Alt.=74.721741m. Speed=9.648000m/h.</desc>
<speed>2.680000</speed>
</trkpt>
<trkpt lat="22.167473" lon="104.354713">
<ele>75.372131</ele>
<time>2011-04-27T08:12:01Z</time>
<desc>lat.=22.167473, lon.=104.354713, Alt.=75.372131m. Speed=5.868000m/h.</desc>
<speed>1.630000</speed>
</trkpt>
<trkpt lat="22.167370" lon="104.354630">
<ele>76.260803</ele>
<time>2011-04-27T08:12:06Z</time>
<desc>lat.=22.167370, lon.=104.354630, Alt.=76.260803m. Speed=6.732000m/h.</desc>
<speed>1.870000</speed>
</trkpt>
<trkpt lat="22.167290" lon="104.354523">
<ele>75.737366</ele>
<time>2011-04-27T08:12:11Z</time>
<desc>lat.=22.167290, lon.=104.354523, Alt.=75.737366m. Speed=6.948000m/h.</desc>
<speed>1.930000</speed>
</trkpt>
<trkpt lat="22.167248" lon="104.354469">
<ele>75.315491</ele>
<time>2011-04-27T08:12:16Z</time>
<desc>lat.=22.167248, lon.=104.354469, Alt.=75.315491m. Speed=3.636000m/h.</desc>
<speed>1.010000</speed>
</trkpt>
<trkpt lat="22.167246" lon="104.354408">
<ele>75.985413</ele>
<time>2011-04-27T08:12:21Z</time>
<desc>lat.=22.167246, lon.=104.354408, Alt.=75.985413m. Speed=1.080000m/h.</desc>
<speed>0.300000</speed>
</trkpt>
<trkpt lat="22.167229" lon="104.354393">
<ele>76.475647</ele>
<time>2011-04-27T08:12:26Z</time>
<desc>lat.=22.167229, lon.=104.354393, Alt.=76.475647m. Speed=1.080000m/h.</desc>
<speed>0.300000</speed>
</trkpt>
<trkpt lat="22.167170" lon="104.354378">
<ele>76.288147</ele>
<time>2011-04-27T08:12:31Z</time>
<desc>lat.=22.167170, lon.=104.354378, Alt.=76.288147m. Speed=1.440000m/h.</desc>
<speed>0.400000</speed>
</trkpt>
<trkpt lat="22.167137" lon="104.354385">
<ele>76.192444</ele>
<time>2011-04-27T08:12:36Z</time>
<desc>lat.=22.167137, lon.=104.354385, Alt.=76.192444m. Speed=1.368000m/h.</desc>
<speed>0.380000</speed>
</trkpt>
<trkpt lat="22.167110" lon="104.354385">
<ele>76.460022</ele>
<time>2011-04-27T08:12:41Z</time>
<desc>lat.=22.167110, lon.=104.354385, Alt.=76.460022m. Speed=1.476000m/h.</desc>
<speed>0.410000</speed>
</trkpt>
<trkpt lat="22.167105" lon="104.354370">
<ele>76.852600</ele>
<time>2011-04-27T08:12:46Z</time>
<desc>lat.=22.167105, lon.=104.354370, Alt.=76.852600m. Speed=0.144000m/h.</desc>
<speed>0.040000</speed>
</trkpt>
<trkpt lat="22.167105" lon="104.354378">
<ele>77.157288</ele>
<time>2011-04-27T08:12:51Z</time>
<desc>lat.=22.167105, lon.=104.354378, Alt.=77.157288m. Speed=0.252000m/h.</desc>
<speed>0.070000</speed>
</trkpt>
<trkpt lat="22.167107" lon="104.354378">
<ele>77.346741</ele>
<time>2011-04-27T08:12:56Z</time>
<desc>lat.=22.167107, lon.=104.354378, Alt.=77.346741m. Speed=0.072000m/h.</desc>
<speed>0.020000</speed>
</trkpt>
<trkpt lat="22.167107" lon="104.354378">
<ele>77.424866</ele>
<time>2011-04-27T08:13:01Z</time>
<desc>lat.=22.167107, lon.=104.354378, Alt.=77.424866m. Speed=0.000000m/h.</desc>
<speed>0.000000</speed>
</trkpt>
<trkpt lat="22.167105" lon="104.354378">
<ele>77.407288</ele>
<time>2011-04-27T08:13:06Z</time>
<desc>lat.=22.167105, lon.=104.354378, Alt.=77.407288m. Speed=0.180000m/h.</desc>
<speed>0.050000</speed>
</trkpt>
<trkpt lat="22.167105" lon="104.354378">
<ele>77.409241</ele>
<time>2011-04-27T08:13:11Z</time>
<desc>lat.=22.167105, lon.=104.354378, Alt.=77.409241m. Speed=0.036000m/h.</desc>
<speed>0.010000</speed>
</trkpt>
<trkpt lat="22.167107" lon="104.354378">
<ele>77.405334</ele>
<time>2011-04-27T08:13:16Z</time>
<desc>lat.=22.167107, lon.=104.354378, Alt.=77.405334m. Speed=0.036000m/h.</desc>
<speed>0.010000</speed>
</trkpt>
<trkpt lat="22.167107" lon="104.354378">
<ele>77.379944</ele>
<time>2011-04-27T08:13:21Z</time>
<desc>lat.=22.167107, lon.=104.354378, Alt.=77.379944m. Speed=0.036000m/h.</desc>
<speed>0.010000</speed>
</trkpt>
<trkpt lat="22.167107" lon="104.354378">
<ele>77.377991</ele>
<time>2011-04-27T08:13:26Z</time>
<desc>lat.=22.167107, lon.=104.354378, Alt.=77.377991m. Speed=0.072000m/h.</desc>
<speed>0.020000</speed>
</trkpt>
<trkpt lat="22.167107" lon="104.354378">
<ele>77.393616</ele>
<time>2011-04-27T08:13:31Z</time>
<desc>lat.=22.167107, lon.=104.354378, Alt.=77.393616m. Speed=0.108000m/h.</desc>
<speed>0.030000</speed>
</trkpt>
<trkpt lat="22.167107" lon="104.354378">
<ele>77.411194</ele>
<time>2011-04-27T08:13:36Z</time>
<desc>lat.=22.167107, lon.=104.354378, Alt.=77.411194m. Speed=0.072000m/h.</desc>
<speed>0.020000</speed>
</trkpt>
<trkpt lat="22.167107" lon="104.354378">
<ele>77.428772</ele>
<time>2011-04-27T08:13:41Z</time>
<desc>lat.=22.167107, lon.=104.354378, Alt.=77.428772m. Speed=0.036000m/h.</desc>
<speed>0.010000</speed>
</trkpt>
<trkpt lat="22.167105" lon="104.354378">
<ele>77.420959</ele>
<time>2011-04-27T08:13:46Z</time>
<desc>lat.=22.167105, lon.=104.354378, Alt.=77.420959m. Speed=0.072000m/h.</desc>
<speed>0.020000</speed>
</trkpt>
<trkpt lat="22.167105" lon="104.354378">
<ele>77.397522</ele>
<time>2011-04-27T08:13:51Z</time>
<desc>lat.=22.167105, lon.=104.354378, Alt.=77.397522m. Speed=0.000000m/h.</desc>
<speed>0.000000</speed>
</trkpt>
<trkpt lat="22.167105" lon="104.354378">
<ele>77.374084</ele>
<time>2011-04-27T08:13:56Z</time>
<desc>lat.=22.167105, lon.=104.354378, Alt.=77.374084m. Speed=0.036000m/h.</desc>
<speed>0.010000</speed>
</trkpt>
<trkpt lat="22.167107" lon="104.354385">
<ele>77.360413</ele>
<time>2011-04-27T08:14:01Z</time>
<desc>lat.=22.167107, lon.=104.354385, Alt.=77.360413m. Speed=0.036000m/h.</desc>
<speed>0.010000</speed>
</trkpt>
<trkpt lat="22.167107" lon="104.354385">
<ele>77.377991</ele>
<time>2011-04-27T08:14:06Z</time>
<desc>lat.=22.167107, lon.=104.354385, Alt.=77.377991m. Speed=0.036000m/h.</desc>
<speed>0.010000</speed>
</trkpt>
<trkpt lat="22.167107" lon="104.354378">
<ele>77.374084</ele>
<time>2011-04-27T08:14:11Z</time>
<desc>lat.=22.167107, lon.=104.354378, Alt.=77.374084m. Speed=0.000000m/h.</desc>
<speed>0.000000</speed>
</trkpt>
<trkpt lat="22.167107" lon="104.354385">
<ele>77.344788</ele>
<time>2011-04-27T08:14:16Z</time>
<desc>lat.=22.167107, lon.=104.354385, Alt.=77.344788m. Speed=0.000000m/h.</desc>
<speed>0.000000</speed>
</trkpt>
<trkpt lat="22.167107" lon="104.354385">
<ele>77.327209</ele>
<time>2011-04-27T08:14:21Z</time>
<desc>lat.=22.167107, lon.=104.354385, Alt.=77.327209m. Speed=0.000000m/h.</desc>
<speed>0.000000</speed>
</trkpt>
<trkpt lat="22.167107" lon="104.354385">
<ele>77.311584</ele>
<time>2011-04-27T08:14:26Z</time>
<desc>lat.=22.167107, lon.=104.354385, Alt.=77.311584m. Speed=0.000000m/h.</desc>
<speed>0.000000</speed>
</trkpt>
<trkpt lat="22.167107" lon="104.354385">
<ele>77.276428</ele>
<time>2011-04-27T08:14:31Z</time>
<desc>lat.=22.167107, lon.=104.354385, Alt.=77.276428m. Speed=0.000000m/h.</desc>
<speed>0.000000</speed>
</trkpt>
<trkpt lat="22.167107" lon="104.354385">
<ele>77.237366</ele>
<time>2011-04-27T08:14:36Z</time>
<desc>lat.=22.167107, lon.=104.354385, Alt.=77.237366m. Speed=0.000000m/h.</desc>
<speed>0.000000</speed>
</trkpt>
<trkpt lat="22.167107" lon="104.354385">
<ele>77.202209</ele>
<time>2011-04-27T08:14:41Z</time>
<desc>lat.=22.167107, lon.=104.354385, Alt.=77.202209m. Speed=0.000000m/h.</desc>
<speed>0.000000</speed>
</trkpt>
<trkpt lat="22.167107" lon="104.354385">
<ele>77.176819</ele>
<time>2011-04-27T08:14:46Z</time>
<desc>lat.=22.167107, lon.=104.354385, Alt.=77.176819m. Speed=0.000000m/h.</desc>
<speed>0.000000</speed>
</trkpt>
<trkpt lat="22.167107" lon="104.354385">
<ele>77.143616</ele>
<time>2011-04-27T08:14:51Z</time>
<desc>lat.=22.167107, lon.=104.354385, Alt.=77.143616m. Speed=0.000000m/h.</desc>
<speed>0.000000</speed>
</trkpt>
<trkpt lat="22.167107" lon="104.354385">
<ele>77.100647</ele>
<time>2011-04-27T08:14:56Z</time>
<desc>lat.=22.167107, lon.=104.354385, Alt.=77.100647m. Speed=0.000000m/h.</desc>
<speed>0.000000</speed>
</trkpt>
<trkpt lat="22.167107" lon="104.354385">
<ele>77.055725</ele>
<time>2011-04-27T08:15:01Z</time>
<desc>lat.=22.167107, lon.=104.354385, Alt.=77.055725m. Speed=0.000000m/h.</desc>
<speed>0.000000</speed>
</trkpt>
<trkpt lat="22.167107" lon="104.354385">
<ele>77.012756</ele>
<time>2011-04-27T08:15:06Z</time>
<desc>lat.=22.167107, lon.=104.354385, Alt.=77.012756m. Speed=0.036000m/h.</desc>
<speed>0.010000</speed>
</trkpt>
<trkpt lat="22.167107" lon="104.354385">
<ele>76.983459</ele>
<time>2011-04-27T08:15:11Z</time>
<desc>lat.=22.167107, lon.=104.354385, Alt.=76.983459m. Speed=0.000000m/h.</desc>
<speed>0.000000</speed>
</trkpt>
<trkpt lat="22.167107" lon="104.354385">
<ele>76.956116</ele>
<time>2011-04-27T08:15:16Z</time>
<desc>lat.=22.167107, lon.=104.354385, Alt.=76.956116m. Speed=0.000000m/h.</desc>
<speed>0.000000</speed>
</trkpt>
<trkpt lat="22.167107" lon="104.354385">
<ele>76.934631</ele>
<time>2011-04-27T08:15:21Z</time>
<desc>lat.=22.167107, lon.=104.354385, Alt.=76.934631m. Speed=0.000000m/h.</desc>
<speed>0.000000</speed>
</trkpt>
<trkpt lat="22.167107" lon="104.354385">
<ele>76.922913</ele>
<time>2011-04-27T08:15:26Z</time>
<desc>lat.=22.167107, lon.=104.354385, Alt.=76.922913m. Speed=0.000000m/h.</desc>
<speed>0.000000</speed>
</trkpt>
<trkpt lat="22.167107" lon="104.354385">
<ele>76.911194</ele>
<time>2011-04-27T08:15:31Z</time>
<desc>lat.=22.167107, lon.=104.354385, Alt.=76.911194m. Speed=0.000000m/h.</desc>
<speed>0.000000</speed>
</trkpt>
<trkpt lat="22.167107" lon="104.354385">
<ele>76.887756</ele>
<time>2011-04-27T08:15:36Z</time>
<desc>lat.=22.167107, lon.=104.354385, Alt.=76.887756m. Speed=0.000000m/h.</desc>
<speed>0.000000</speed>
</trkpt>
<trkpt lat="22.167107" lon="104.354385">
<ele>76.858459</ele>
<time>2011-04-27T08:15:41Z</time>
<desc>lat.=22.167107, lon.=104.354385, Alt.=76.858459m. Speed=0.000000m/h.</desc>
<speed>0.000000</speed>
</trkpt>
<trkpt lat="22.167107" lon="104.354385">
<ele>76.836975</ele>
<time>2011-04-27T08:15:46Z</time>
<desc>lat.=22.167107, lon.=104.354385, Alt.=76.836975m. Speed=0.000000m/h.</desc>
<speed>0.000000</speed>
</trkpt>
<trkpt lat="22.167107" lon="104.354385">
<ele>76.821350</ele>
<time>2011-04-27T08:15:51Z</time>
<desc>lat.=22.167107, lon.=104.354385, Alt.=76.821350m. Speed=0.000000m/h.</desc>
<speed>0.000000</speed>
</trkpt>
<trkpt lat="22.167107" lon="104.354385">
<ele>76.801819</ele>
<time>2011-04-27T08:15:56Z</time>
<desc>lat.=22.167107, lon.=104.354385, Alt.=76.801819m. Speed=0.000000m/h.</desc>
<speed>0.000000</speed>
</trkpt>
<trkpt lat="22.167107" lon="104.354385">
<ele>76.797913</ele>
<time>2011-04-27T08:16:01Z</time>
<desc>lat.=22.167107, lon.=104.354385, Alt.=76.797913m. Speed=0.000000m/h.</desc>
<speed>0.000000</speed>
</trkpt>
<trkpt lat="22.167107" lon="104.354385">
<ele>76.797913</ele>
<time>2011-04-27T08:16:06Z</time>
<desc>lat.=22.167107, lon.=104.354385, Alt.=76.797913m. Speed=0.000000m/h.</desc>
<speed>0.000000</speed>
</trkpt>
<trkpt lat="22.167107" lon="104.354385">
<ele>76.799866</ele>
<time>2011-04-27T08:16:11Z</time>
<desc>lat.=22.167107, lon.=104.354385, Alt.=76.799866m. Speed=0.000000m/h.</desc>
<speed>0.000000</speed>
</trkpt>
<trkpt lat="22.167107" lon="104.354385">
<ele>76.797913</ele>
<time>2011-04-27T08:16:16Z</time>
<desc>lat.=22.167107, lon.=104.354385, Alt.=76.797913m. Speed=0.000000m/h.</desc>
<speed>0.000000</speed>
</trkpt>
<trkpt lat="22.167107" lon="104.354385">
<ele>76.788147</ele>
<time>2011-04-27T08:16:21Z</time>
<desc>lat.=22.167107, lon.=104.354385, Alt.=76.788147m. Speed=0.000000m/h.</desc>
<speed>0.000000</speed>
</trkpt>
<trkpt lat="22.167107" lon="104.354385">
<ele>76.762756</ele>
<time>2011-04-27T08:16:26Z</time>
<desc>lat.=22.167107, lon.=104.354385, Alt.=76.762756m. Speed=0.036000m/h.</desc>
<speed>0.010000</speed>
</trkpt>
<trkpt lat="22.167107" lon="104.354385">
<ele>76.745178</ele>
<time>2011-04-27T08:16:31Z</time>
<desc>lat.=22.167107, lon.=104.354385, Alt.=76.745178m. Speed=0.000000m/h.</desc>
<speed>0.000000</speed>
</trkpt>
<trkpt lat="22.167107" lon="104.354385">
<ele>76.725647</ele>
<time>2011-04-27T08:16:36Z</time>
<desc>lat.=22.167107, lon.=104.354385, Alt.=76.725647m. Speed=0.000000m/h.</desc>
<speed>0.000000</speed>
</trkpt>
<trkpt lat="22.167107" lon="104.354385">
<ele>76.710022</ele>
<time>2011-04-27T08:16:41Z</time>
<desc>lat.=22.167107, lon.=104.354385, Alt.=76.710022m. Speed=0.000000m/h.</desc>
<speed>0.000000</speed>
</trkpt>
<trkpt lat="22.167107" lon="104.354385">
<ele>76.704163</ele>
<time>2011-04-27T08:16:46Z</time>
<desc>lat.=22.167107, lon.=104.354385, Alt.=76.704163m. Speed=0.000000m/h.</desc>
<speed>0.000000</speed>
</trkpt>
<trkpt lat="22.167109" lon="104.354385">
<ele>76.710022</ele>
<time>2011-04-27T08:16:51Z</time>
<desc>lat.=22.167109, lon.=104.354385, Alt.=76.710022m. Speed=0.000000m/h.</desc>
<speed>0.000000</speed>
</trkpt>
<trkpt lat="22.167109" lon="104.354385">
<ele>76.731506</ele>
<time>2011-04-27T08:16:56Z</time>
<desc>lat.=22.167109, lon.=104.354385, Alt.=76.731506m. Speed=0.000000m/h.</desc>
<speed>0.000000</speed>
</trkpt>
<trkpt lat="22.167109" lon="104.354385">
<ele>76.743225</ele>
<time>2011-04-27T08:17:01Z</time>
<desc>lat.=22.167109, lon.=104.354385, Alt.=76.743225m. Speed=0.000000m/h.</desc>
<speed>0.000000</speed>
</trkpt>
<trkpt lat="22.167109" lon="104.354385">
<ele>76.751038</ele>
<time>2011-04-27T08:17:06Z</time>
<desc>lat.=22.167109, lon.=104.354385, Alt.=76.751038m. Speed=0.000000m/h.</desc>
<speed>0.000000</speed>
</trkpt>
<trkpt lat="22.167109" lon="104.354385">
<ele>76.751038</ele>
<time>2011-04-27T08:17:11Z</time>
<desc>lat.=22.167109, lon.=104.354385, Alt.=76.751038m. Speed=0.000000m/h.</desc>
<speed>0.000000</speed>
</trkpt>
<trkpt lat="22.167109" lon="104.354385">
<ele>76.743225</ele>
<time>2011-04-27T08:17:16Z</time>
<desc>lat.=22.167109, lon.=104.354385, Alt.=76.743225m. Speed=0.000000m/h.</desc>
<speed>0.000000</speed>
</trkpt>
<trkpt lat="22.167109" lon="104.354385">
<ele>76.749084</ele>
<time>2011-04-27T08:17:21Z</time>
<desc>lat.=22.167109, lon.=104.354385, Alt.=76.749084m. Speed=0.000000m/h.</desc>
<speed>0.000000</speed>
</trkpt>
<trkpt lat="22.167109" lon="104.354385">
<ele>76.754944</ele>
<time>2011-04-27T08:17:26Z</time>
<desc>lat.=22.167109, lon.=104.354385, Alt.=76.754944m. Speed=0.000000m/h.</desc>
<speed>0.000000</speed>
</trkpt>
<trkpt lat="22.167109" lon="104.354385">
<ele>76.764709</ele>
<time>2011-04-27T08:17:31Z</time>
<desc>lat.=22.167109, lon.=104.354385, Alt.=76.764709m. Speed=0.000000m/h.</desc>
<speed>0.000000</speed>
</trkpt>
<trkpt lat="22.167109" lon="104.354385">
<ele>76.776428</ele>
<time>2011-04-27T08:17:36Z</time>
<desc>lat.=22.167109, lon.=104.354385, Alt.=76.776428m. Speed=0.036000m/h.</desc>
<speed>0.010000</speed>
</trkpt>
<trkpt lat="22.167110" lon="104.354385">
<ele>76.784241</ele>
<time>2011-04-27T08:17:41Z</time>
<desc>lat.=22.167110, lon.=104.354385, Alt.=76.784241m. Speed=0.000000m/h.</desc>
<speed>0.000000</speed>
</trkpt>
<trkpt lat="22.167109" lon="104.354385">
<ele>76.792053</ele>
<time>2011-04-27T08:17:46Z</time>
<desc>lat.=22.167109, lon.=104.354385, Alt.=76.792053m. Speed=0.036000m/h.</desc>
<speed>0.010000</speed>
</trkpt>
<trkpt lat="22.167109" lon="104.354385">
<ele>76.780334</ele>
<time>2011-04-27T08:17:51Z</time>
<desc>lat.=22.167109, lon.=104.354385, Alt.=76.780334m. Speed=0.036000m/h.</desc>
<speed>0.010000</speed>
</trkpt>
<trkpt lat="22.167110" lon="104.354385">
<ele>76.766663</ele>
<time>2011-04-27T08:17:56Z</time>
<desc>lat.=22.167110, lon.=104.354385, Alt.=76.766663m. Speed=0.000000m/h.</desc>
<speed>0.000000</speed>
</trkpt>
<trkpt lat="22.167110" lon="104.354385">
<ele>76.754944</ele>
<time>2011-04-27T08:18:01Z</time>
<desc>lat.=22.167110, lon.=104.354385, Alt.=76.754944m. Speed=0.000000m/h.</desc>
<speed>0.000000</speed>
</trkpt>
<trkpt lat="22.167110" lon="104.354385">
<ele>76.743225</ele>
<time>2011-04-27T08:18:06Z</time>
<desc>lat.=22.167110, lon.=104.354385, Alt.=76.743225m. Speed=0.036000m/h.</desc>
<speed>0.010000</speed>
</trkpt>
<trkpt lat="22.167110" lon="104.354385">
<ele>76.733459</ele>
<time>2011-04-27T08:18:11Z</time>
<desc>lat.=22.167110, lon.=104.354385, Alt.=76.733459m. Speed=0.036000m/h.</desc>
<speed>0.010000</speed>
</trkpt>
<trkpt lat="22.167110" lon="104.354385">
<ele>76.723694</ele>
<time>2011-04-27T08:18:16Z</time>
<desc>lat.=22.167110, lon.=104.354385, Alt.=76.723694m. Speed=0.000000m/h.</desc>
<speed>0.000000</speed>
</trkpt>
<trkpt lat="22.167110" lon="104.354385">
<ele>76.710022</ele>
<time>2011-04-27T08:18:21Z</time>
<desc>lat.=22.167110, lon.=104.354385, Alt.=76.710022m. Speed=0.036000m/h.</desc>
<speed>0.010000</speed>
</trkpt>
<trkpt lat="22.167110" lon="104.354385">
<ele>76.700256</ele>
<time>2011-04-27T08:18:26Z</time>
<desc>lat.=22.167110, lon.=104.354385, Alt.=76.700256m. Speed=0.000000m/h.</desc>
<speed>0.000000</speed>
</trkpt>
<trkpt lat="22.167110" lon="104.354378">
<ele>76.692444</ele>
<time>2011-04-27T08:18:31Z</time>
<desc>lat.=22.167110, lon.=104.354378, Alt.=76.692444m. Speed=0.000000m/h.</desc>
<speed>0.000000</speed>
</trkpt>
<trkpt lat="22.167110" lon="104.354378">
<ele>76.655334</ele>
<time>2011-04-27T08:18:36Z</time>
<desc>lat.=22.167110, lon.=104.354378, Alt.=76.655334m. Speed=0.000000m/h.</desc>
<speed>0.000000</speed>
</trkpt>
<trkpt lat="22.167112" lon="104.354378">
<ele>76.616272</ele>
<time>2011-04-27T08:18:41Z</time>
<desc>lat.=22.167112, lon.=104.354378, Alt.=76.616272m. Speed=0.000000m/h.</desc>
<speed>0.000000</speed>
</trkpt>
<trkpt lat="22.167112" lon="104.354378">
<ele>76.590881</ele>
<time>2011-04-27T08:18:46Z</time>
<desc>lat.=22.167112, lon.=104.354378, Alt.=76.590881m. Speed=0.000000m/h.</desc>
<speed>0.000000</speed>
</trkpt>
<trkpt lat="22.167112" lon="104.354378">
<ele>76.569397</ele>
<time>2011-04-27T08:18:51Z</time>
<desc>lat.=22.167112, lon.=104.354378, Alt.=76.569397m. Speed=0.000000m/h.</desc>
<speed>0.000000</speed>
</trkpt>
<trkpt lat="22.167112" lon="104.354378">
<ele>76.545959</ele>
<time>2011-04-27T08:18:56Z</time>
<desc>lat.=22.167112, lon.=104.354378, Alt.=76.545959m. Speed=0.000000m/h.</desc>
<speed>0.000000</speed>
</trkpt>
<trkpt lat="22.167112" lon="104.354378">
<ele>76.506897</ele>
<time>2011-04-27T08:19:01Z</time>
<desc>lat.=22.167112, lon.=104.354378, Alt.=76.506897m. Speed=0.000000m/h.</desc>
<speed>0.000000</speed>
</trkpt>
<trkpt lat="22.167112" lon="104.354378">
<ele>76.465881</ele>
<time>2011-04-27T08:19:06Z</time>
<desc>lat.=22.167112, lon.=104.354378, Alt.=76.465881m. Speed=0.000000m/h.</desc>
<speed>0.000000</speed>
</trkpt>
<trkpt lat="22.167112" lon="104.354378">
<ele>76.422913</ele>
<time>2011-04-27T08:19:11Z</time>
<desc>lat.=22.167112, lon.=104.354378, Alt.=76.422913m. Speed=0.000000m/h.</desc>
<speed>0.000000</speed>
</trkpt>
<trkpt lat="22.167112" lon="104.354378">
<ele>76.399475</ele>
<time>2011-04-27T08:19:16Z</time>
<desc>lat.=22.167112, lon.=104.354378, Alt.=76.399475m. Speed=0.000000m/h.</desc>
<speed>0.000000</speed>
</trkpt>
<trkpt lat="22.167112" lon="104.354378">
<ele>76.356506</ele>
<time>2011-04-27T08:19:21Z</time>
<desc>lat.=22.167112, lon.=104.354378, Alt.=76.356506m. Speed=0.000000m/h.</desc>
<speed>0.000000</speed>
</trkpt>
<trkpt lat="22.167112" lon="104.354378">
<ele>76.336975</ele>
<time>2011-04-27T08:19:26Z</time>
<desc>lat.=22.167112, lon.=104.354378, Alt.=76.336975m. Speed=0.000000m/h.</desc>
<speed>0.000000</speed>
</trkpt>
<trkpt lat="22.167112" lon="104.354378">
<ele>76.329163</ele>
<time>2011-04-27T08:19:31Z</time>
<desc>lat.=22.167112, lon.=104.354378, Alt.=76.329163m. Speed=0.000000m/h.</desc>
<speed>0.000000</speed>
</trkpt>
<trkpt lat="22.167112" lon="104.354378">
<ele>76.342834</ele>
<time>2011-04-27T08:19:36Z</time>
<desc>lat.=22.167112, lon.=104.354378, Alt.=76.342834m. Speed=0.000000m/h.</desc>
<speed>0.000000</speed>
</trkpt>
<trkpt lat="22.167112" lon="104.354378">
<ele>76.362366</ele>
<time>2011-04-27T08:19:41Z</time>
<desc>lat.=22.167112, lon.=104.354378, Alt.=76.362366m. Speed=0.000000m/h.</desc>
<speed>0.000000</speed>
</trkpt>
<trkpt lat="22.167112" lon="104.354378">
<ele>76.364319</ele>
<time>2011-04-27T08:19:46Z</time>
<desc>lat.=22.167112, lon.=104.354378, Alt.=76.364319m. Speed=0.000000m/h.</desc>
<speed>0.000000</speed>
</trkpt>
<trkpt lat="22.167112" lon="104.354378">
<ele>76.360413</ele>
<time>2011-04-27T08:19:51Z</time>
<desc>lat.=22.167112, lon.=104.354378, Alt.=76.360413m. Speed=0.036000m/h.</desc>
<speed>0.010000</speed>
</trkpt>
<trkpt lat="22.167112" lon="104.354378">
<ele>76.356506</ele>
<time>2011-04-27T08:19:56Z</time>
<desc>lat.=22.167112, lon.=104.354378, Alt.=76.356506m. Speed=0.000000m/h.</desc>
<speed>0.000000</speed>
</trkpt>
<trkpt lat="22.167112" lon="104.354378">
<ele>76.356506</ele>
<time>2011-04-27T08:20:01Z</time>
<desc>lat.=22.167112, lon.=104.354378, Alt.=76.356506m. Speed=0.072000m/h.</desc>
<speed>0.020000</speed>
</trkpt>
<trkpt lat="22.167112" lon="104.354378">
<ele>76.352600</ele>
<time>2011-04-27T08:20:06Z</time>
<desc>lat.=22.167112, lon.=104.354378, Alt.=76.352600m. Speed=0.000000m/h.</desc>
<speed>0.000000</speed>
</trkpt>
<trkpt lat="22.167112" lon="104.354378">
<ele>76.356506</ele>
<time>2011-04-27T08:20:11Z</time>
<desc>lat.=22.167112, lon.=104.354378, Alt.=76.356506m. Speed=0.000000m/h.</desc>
<speed>0.000000</speed>
</trkpt>
<trkpt lat="22.167112" lon="104.354385">
<ele>76.370178</ele>
<time>2011-04-27T08:20:16Z</time>
<desc>lat.=22.167112, lon.=104.354385, Alt.=76.370178m. Speed=0.036000m/h.</desc>
<speed>0.010000</speed>
</trkpt>
<trkpt lat="22.167112" lon="104.354385">
<ele>76.377991</ele>
<time>2011-04-27T08:20:21Z</time>
<desc>lat.=22.167112, lon.=104.354385, Alt.=76.377991m. Speed=0.036000m/h.</desc>
<speed>0.010000</speed>
</trkpt>
<trkpt lat="22.167112" lon="104.354385">
<ele>76.395569</ele>
<time>2011-04-27T08:20:26Z</time>
<desc>lat.=22.167112, lon.=104.354385, Alt.=76.395569m. Speed=0.000000m/h.</desc>
<speed>0.000000</speed>
</trkpt>
<trkpt lat="22.167112" lon="104.354385">
<ele>76.385803</ele>
<time>2011-04-27T08:20:31Z</time>
<desc>lat.=22.167112, lon.=104.354385, Alt.=76.385803m. Speed=0.036000m/h.</desc>
<speed>0.010000</speed>
</trkpt>
<trkpt lat="22.167112" lon="104.354385">
<ele>76.399475</ele>
<time>2011-04-27T08:20:36Z</time>
<desc>lat.=22.167112, lon.=104.354385, Alt.=76.399475m. Speed=0.000000m/h.</desc>
<speed>0.000000</speed>
</trkpt>
<trkpt lat="22.167112" lon="104.354385">
<ele>76.432678</ele>
<time>2011-04-27T08:20:41Z</time>
<desc>lat.=22.167112, lon.=104.354385, Alt.=76.432678m. Speed=0.000000m/h.</desc>
<speed>0.000000</speed>
</trkpt>
<trkpt lat="22.167112" lon="104.354385">
<ele>76.458069</ele>
<time>2011-04-27T08:20:46Z</time>
<desc>lat.=22.167112, lon.=104.354385, Alt.=76.458069m. Speed=0.000000m/h.</desc>
<speed>0.000000</speed>
</trkpt>
<trkpt lat="22.167112" lon="104.354385">
<ele>76.475647</ele>
<time>2011-04-27T08:20:51Z</time>
<desc>lat.=22.167112, lon.=104.354385, Alt.=76.475647m. Speed=0.000000m/h.</desc>
<speed>0.000000</speed>
</trkpt>
<trkpt lat="22.167112" lon="104.354385">
<ele>76.475647</ele>
<time>2011-04-27T08:20:56Z</time>
<desc>lat.=22.167112, lon.=104.354385, Alt.=76.475647m. Speed=0.000000m/h.</desc>
<speed>0.000000</speed>
</trkpt>
<trkpt lat="22.167112" lon="104.354385">
<ele>76.471741</ele>
<time>2011-04-27T08:21:01Z</time>
<desc>lat.=22.167112, lon.=104.354385, Alt.=76.471741m. Speed=0.000000m/h.</desc>
<speed>0.000000</speed>
</trkpt>
<trkpt lat="22.167112" lon="104.354385">
<ele>76.469788</ele>
<time>2011-04-27T08:21:06Z</time>
<desc>lat.=22.167112, lon.=104.354385, Alt.=76.469788m. Speed=0.000000m/h.</desc>
<speed>0.000000</speed>
</trkpt>
<trkpt lat="22.167112" lon="104.354385">
<ele>76.493225</ele>
<time>2011-04-27T08:21:11Z</time>
<desc>lat.=22.167112, lon.=104.354385, Alt.=76.493225m. Speed=0.000000m/h.</desc>
<speed>0.000000</speed>
</trkpt>
<trkpt lat="22.167112" lon="104.354385">
<ele>76.512756</ele>
<time>2011-04-27T08:21:16Z</time>
<desc>lat.=22.167112, lon.=104.354385, Alt.=76.512756m. Speed=0.000000m/h.</desc>
<speed>0.000000</speed>
</trkpt>
<trkpt lat="22.167112" lon="104.354385">
<ele>76.520569</ele>
<time>2011-04-27T08:21:21Z</time>
<desc>lat.=22.167112, lon.=104.354385, Alt.=76.520569m. Speed=0.036000m/h.</desc>
<speed>0.010000</speed>
</trkpt>
<trkpt lat="22.167112" lon="104.354385">
<ele>76.540100</ele>
<time>2011-04-27T08:21:26Z</time>
<desc>lat.=22.167112, lon.=104.354385, Alt.=76.540100m. Speed=0.000000m/h.</desc>
<speed>0.000000</speed>
</trkpt>
<trkpt lat="22.167112" lon="104.354385">
<ele>76.567444</ele>
<time>2011-04-27T08:21:31Z</time>
<desc>lat.=22.167112, lon.=104.354385, Alt.=76.567444m. Speed=0.000000m/h.</desc>
<speed>0.000000</speed>
</trkpt>
<trkpt lat="22.167112" lon="104.354378">
<ele>76.592834</ele>
<time>2011-04-27T08:21:36Z</time>
<desc>lat.=22.167112, lon.=104.354378, Alt.=76.592834m. Speed=0.000000m/h.</desc>
<speed>0.000000</speed>
</trkpt>
<trkpt lat="22.167112" lon="104.354378">
<ele>76.606506</ele>
<time>2011-04-27T08:21:41Z</time>
<desc>lat.=22.167112, lon.=104.354378, Alt.=76.606506m. Speed=0.000000m/h.</desc>
<speed>0.000000</speed>
</trkpt>
<trkpt lat="22.167112" lon="104.354378">
<ele>76.635803</ele>
<time>2011-04-27T08:21:46Z</time>
<desc>lat.=22.167112, lon.=104.354378, Alt.=76.635803m. Speed=0.036000m/h.</desc>
<speed>0.010000</speed>
</trkpt>
<trkpt lat="22.167112" lon="104.354378">
<ele>76.669006</ele>
<time>2011-04-27T08:21:51Z</time>
<desc>lat.=22.167112, lon.=104.354378, Alt.=76.669006m. Speed=0.000000m/h.</desc>
<speed>0.000000</speed>
</trkpt>
<trkpt lat="22.167112" lon="104.354378">
<ele>76.688538</ele>
<time>2011-04-27T08:21:56Z</time>
<desc>lat.=22.167112, lon.=104.354378, Alt.=76.688538m. Speed=0.000000m/h.</desc>
<speed>0.000000</speed>
</trkpt>
<trkpt lat="22.167112" lon="104.354378">
<ele>76.680725</ele>
<time>2011-04-27T08:22:01Z</time>
<desc>lat.=22.167112, lon.=104.354378, Alt.=76.680725m. Speed=0.000000m/h.</desc>
<speed>0.000000</speed>
</trkpt>
<trkpt lat="22.167112" lon="104.354385">
<ele>76.682678</ele>
<time>2011-04-27T08:22:06Z</time>
<desc>lat.=22.167112, lon.=104.354385, Alt.=76.682678m. Speed=0.036000m/h.</desc>
<speed>0.010000</speed>
</trkpt>
<trkpt lat="22.167112" lon="104.354385">
<ele>76.710022</ele>
<time>2011-04-27T08:22:11Z</time>
<desc>lat.=22.167112, lon.=104.354385, Alt.=76.710022m. Speed=0.000000m/h.</desc>
<speed>0.000000</speed>
</trkpt>
<trkpt lat="22.167112" lon="104.354385">
<ele>76.733459</ele>
<time>2011-04-27T08:22:16Z</time>
<desc>lat.=22.167112, lon.=104.354385, Alt.=76.733459m. Speed=0.000000m/h.</desc>
<speed>0.000000</speed>
</trkpt>
<trkpt lat="22.167112" lon="104.354385">
<ele>76.780334</ele>
<time>2011-04-27T08:22:21Z</time>
<desc>lat.=22.167112, lon.=104.354385, Alt.=76.780334m. Speed=0.000000m/h.</desc>
<speed>0.000000</speed>
</trkpt>
<trkpt lat="22.167112" lon="104.354385">
<ele>76.823303</ele>
<time>2011-04-27T08:22:26Z</time>
<desc>lat.=22.167112, lon.=104.354385, Alt.=76.823303m. Speed=0.000000m/h.</desc>
<speed>0.000000</speed>
</trkpt>
<trkpt lat="22.167112" lon="104.354385">
<ele>76.868225</ele>
<time>2011-04-27T08:22:31Z</time>
<desc>lat.=22.167112, lon.=104.354385, Alt.=76.868225m. Speed=0.036000m/h.</desc>
<speed>0.010000</speed>
</trkpt>
<trkpt lat="22.167112" lon="104.354385">
<ele>76.909241</ele>
<time>2011-04-27T08:22:36Z</time>
<desc>lat.=22.167112, lon.=104.354385, Alt.=76.909241m. Speed=0.036000m/h.</desc>
<speed>0.010000</speed>
</trkpt>
<trkpt lat="22.167112" lon="104.354385">
<ele>76.940491</ele>
<time>2011-04-27T08:22:41Z</time>
<desc>lat.=22.167112, lon.=104.354385, Alt.=76.940491m. Speed=0.000000m/h.</desc>
<speed>0.000000</speed>
</trkpt>
<trkpt lat="22.167112" lon="104.354385">
<ele>76.960022</ele>
<time>2011-04-27T08:22:46Z</time>
<desc>lat.=22.167112, lon.=104.354385, Alt.=76.960022m. Speed=0.000000m/h.</desc>
<speed>0.000000</speed>
</trkpt>
<trkpt lat="22.167112" lon="104.354385">
<ele>76.981506</ele>
<time>2011-04-27T08:22:51Z</time>
<desc>lat.=22.167112, lon.=104.354385, Alt.=76.981506m. Speed=0.000000m/h.</desc>
<speed>0.000000</speed>
</trkpt>
<trkpt lat="22.167112" lon="104.354385">
<ele>77.024475</ele>
<time>2011-04-27T08:22:56Z</time>
<desc>lat.=22.167112, lon.=104.354385, Alt.=77.024475m. Speed=0.000000m/h.</desc>
<speed>0.000000</speed>
</trkpt>
<trkpt lat="22.167112" lon="104.354385">
<ele>77.069397</ele>
<time>2011-04-27T08:23:01Z</time>
<desc>lat.=22.167112, lon.=104.354385, Alt.=77.069397m. Speed=0.036000m/h.</desc>
<speed>0.010000</speed>
</trkpt>
<trkpt lat="22.167112" lon="104.354385">
<ele>77.098694</ele>
<time>2011-04-27T08:23:06Z</time>
<desc>lat.=22.167112, lon.=104.354385, Alt.=77.098694m. Speed=0.000000m/h.</desc>
<speed>0.000000</speed>
</trkpt>
<trkpt lat="22.167112" lon="104.354385">
<ele>77.122131</ele>
<time>2011-04-27T08:23:11Z</time>
<desc>lat.=22.167112, lon.=104.354385, Alt.=77.122131m. Speed=0.000000m/h.</desc>
<speed>0.000000</speed>
</trkpt>
<trkpt lat="22.167112" lon="104.354385">
<ele>77.145569</ele>
<time>2011-04-27T08:23:16Z</time>
<desc>lat.=22.167112, lon.=104.354385, Alt.=77.145569m. Speed=0.000000m/h.</desc>
<speed>0.000000</speed>
</trkpt>
<trkpt lat="22.167112" lon="104.354385">
<ele>77.167053</ele>
<time>2011-04-27T08:23:21Z</time>
<desc>lat.=22.167112, lon.=104.354385, Alt.=77.167053m. Speed=0.036000m/h.</desc>
<speed>0.010000</speed>
</trkpt>
<trkpt lat="22.167112" lon="104.354385">
<ele>77.167053</ele>
<time>2011-04-27T08:23:26Z</time>
<desc>lat.=22.167112, lon.=104.354385, Alt.=77.167053m. Speed=0.000000m/h.</desc>
<speed>0.000000</speed>
</trkpt>
<trkpt lat="22.167112" lon="104.354385">
<ele>77.163147</ele>
<time>2011-04-27T08:23:31Z</time>
<desc>lat.=22.167112, lon.=104.354385, Alt.=77.163147m. Speed=0.000000m/h.</desc>
<speed>0.000000</speed>
</trkpt>
<trkpt lat="22.167114" lon="104.354385">
<ele>77.137756</ele>
<time>2011-04-27T08:23:36Z</time>
<desc>lat.=22.167114, lon.=104.354385, Alt.=77.137756m. Speed=0.000000m/h.</desc>
<speed>0.000000</speed>
</trkpt>
<trkpt lat="22.167112" lon="104.354385">
<ele>77.108459</ele>
<time>2011-04-27T08:23:41Z</time>
<desc>lat.=22.167112, lon.=104.354385, Alt.=77.108459m. Speed=0.000000m/h.</desc>
<speed>0.000000</speed>
</trkpt>
<trkpt lat="22.167112" lon="104.354385">
<ele>77.086975</ele>
<time>2011-04-27T08:23:46Z</time>
<desc>lat.=22.167112, lon.=104.354385, Alt.=77.086975m. Speed=0.000000m/h.</desc>
<speed>0.000000</speed>
</trkpt>
<trkpt lat="22.167114" lon="104.354385">
<ele>77.075256</ele>
<time>2011-04-27T08:23:51Z</time>
<desc>lat.=22.167114, lon.=104.354385, Alt.=77.075256m. Speed=0.000000m/h.</desc>
<speed>0.000000</speed>
</trkpt>
<trkpt lat="22.167114" lon="104.354385">
<ele>77.069397</ele>
<time>2011-04-27T08:23:56Z</time>
<desc>lat.=22.167114, lon.=104.354385, Alt.=77.069397m. Speed=0.036000m/h.</desc>
<speed>0.010000</speed>
</trkpt>
<trkpt lat="22.167114" lon="104.354385">
<ele>77.065491</ele>
<time>2011-04-27T08:24:01Z</time>
<desc>lat.=22.167114, lon.=104.354385, Alt.=77.065491m. Speed=0.000000m/h.</desc>
<speed>0.000000</speed>
</trkpt>
<trkpt lat="22.167114" lon="104.354385">
<ele>77.051819</ele>
<time>2011-04-27T08:24:06Z</time>
<desc>lat.=22.167114, lon.=104.354385, Alt.=77.051819m. Speed=0.000000m/h.</desc>
<speed>0.000000</speed>
</trkpt>
<trkpt lat="22.167114" lon="104.354385">
<ele>77.049866</ele>
<time>2011-04-27T08:24:11Z</time>
<desc>lat.=22.167114, lon.=104.354385, Alt.=77.049866m. Speed=0.036000m/h.</desc>
<speed>0.010000</speed>
</trkpt>
<trkpt lat="22.167114" lon="104.354385">
<ele>77.042053</ele>
<time>2011-04-27T08:24:16Z</time>
<desc>lat.=22.167114, lon.=104.354385, Alt.=77.042053m. Speed=0.000000m/h.</desc>
<speed>0.000000</speed>
</trkpt>
<trkpt lat="22.167114" lon="104.354385">
<ele>77.024475</ele>
<time>2011-04-27T08:24:21Z</time>
<desc>lat.=22.167114, lon.=104.354385, Alt.=77.024475m. Speed=0.036000m/h.</desc>
<speed>0.010000</speed>
</trkpt>
<trkpt lat="22.167114" lon="104.354385">
<ele>76.977600</ele>
<time>2011-04-27T08:24:26Z</time>
<desc>lat.=22.167114, lon.=104.354385, Alt.=76.977600m. Speed=0.072000m/h.</desc>
<speed>0.020000</speed>
</trkpt>
<trkpt lat="22.167114" lon="104.354385">
<ele>76.940491</ele>
<time>2011-04-27T08:24:31Z</time>
<desc>lat.=22.167114, lon.=104.354385, Alt.=76.940491m. Speed=0.036000m/h.</desc>
<speed>0.010000</speed>
</trkpt>
<trkpt lat="22.167114" lon="104.354385">
<ele>76.930725</ele>
<time>2011-04-27T08:24:36Z</time>
<desc>lat.=22.167114, lon.=104.354385, Alt.=76.930725m. Speed=0.000000m/h.</desc>
<speed>0.000000</speed>
</trkpt>
<trkpt lat="22.167114" lon="104.354385">
<ele>76.928772</ele>
<time>2011-04-27T08:24:41Z</time>
<desc>lat.=22.167114, lon.=104.354385, Alt.=76.928772m. Speed=0.036000m/h.</desc>
<speed>0.010000</speed>
</trkpt>
<trkpt lat="22.167114" lon="104.354385">
<ele>76.922913</ele>
<time>2011-04-27T08:24:46Z</time>
<desc>lat.=22.167114, lon.=104.354385, Alt.=76.922913m. Speed=0.000000m/h.</desc>
<speed>0.000000</speed>
</trkpt>
<trkpt lat="22.167114" lon="104.354385">
<ele>76.911194</ele>
<time>2011-04-27T08:24:51Z</time>
<desc>lat.=22.167114, lon.=104.354385, Alt.=76.911194m. Speed=0.036000m/h.</desc>
<speed>0.010000</speed>
</trkpt>
<trkpt lat="22.167114" lon="104.354385">
<ele>76.901428</ele>
<time>2011-04-27T08:24:56Z</time>
<desc>lat.=22.167114, lon.=104.354385, Alt.=76.901428m. Speed=0.036000m/h.</desc>
<speed>0.010000</speed>
</trkpt>
<trkpt lat="22.167112" lon="104.354385">
<ele>76.911194</ele>
<time>2011-04-27T08:25:01Z</time>
<desc>lat.=22.167112, lon.=104.354385, Alt.=76.911194m. Speed=0.000000m/h.</desc>
<speed>0.000000</speed>
</trkpt>
<trkpt lat="22.167112" lon="104.354385">
<ele>76.950256</ele>
<time>2011-04-27T08:25:06Z</time>
<desc>lat.=22.167112, lon.=104.354385, Alt.=76.950256m. Speed=0.072000m/h.</desc>
<speed>0.020000</speed>
</trkpt>
<trkpt lat="22.167112" lon="104.354385">
<ele>77.026428</ele>
<time>2011-04-27T08:25:11Z</time>
<desc>lat.=22.167112, lon.=104.354385, Alt.=77.026428m. Speed=0.000000m/h.</desc>
<speed>0.000000</speed>
</trkpt>
<trkpt lat="22.167112" lon="104.354385">
<ele>77.127991</ele>
<time>2011-04-27T08:25:16Z</time>
<desc>lat.=22.167112, lon.=104.354385, Alt.=77.127991m. Speed=0.216000m/h.</desc>
<speed>0.060000</speed>
</trkpt>
<trkpt lat="22.167107" lon="104.354385">
<ele>77.301819</ele>
<time>2011-04-27T08:25:21Z</time>
<desc>lat.=22.167107, lon.=104.354385, Alt.=77.301819m. Speed=0.684000m/h.</desc>
<speed>0.190000</speed>
</trkpt>
<trkpt lat="22.167099" lon="104.354393">
<ele>77.518616</ele>
<time>2011-04-27T08:25:26Z</time>
<desc>lat.=22.167099, lon.=104.354393, Alt.=77.518616m. Speed=0.432000m/h.</desc>
<speed>0.120000</speed>
</trkpt>
<trkpt lat="22.167093" lon="104.354393">
<ele>77.786194</ele>
<time>2011-04-27T08:25:31Z</time>
<desc>lat.=22.167093, lon.=104.354393, Alt.=77.786194m. Speed=0.180000m/h.</desc>
<speed>0.050000</speed>
</trkpt>
<trkpt lat="22.167093" lon="104.354393">
<ele>78.063538</ele>
<time>2011-04-27T08:25:36Z</time>
<desc>lat.=22.167093, lon.=104.354393, Alt.=78.063538m. Speed=0.216000m/h.</desc>
<speed>0.060000</speed>
</trkpt>
<trkpt lat="22.167091" lon="104.354393">
<ele>78.354553</ele>
<time>2011-04-27T08:25:41Z</time>
<desc>lat.=22.167091, lon.=104.354393, Alt.=78.354553m. Speed=0.108000m/h.</desc>
<speed>0.030000</speed>
</trkpt>
<trkpt lat="22.167089" lon="104.354393">
<ele>78.475647</ele>
<time>2011-04-27T08:25:46Z</time>
<desc>lat.=22.167089, lon.=104.354393, Alt.=78.475647m. Speed=0.000000m/h.</desc>
<speed>0.000000</speed>
</trkpt>
<trkpt lat="22.167089" lon="104.354393">
<ele>78.491272</ele>
<time>2011-04-27T08:25:51Z</time>
<desc>lat.=22.167089, lon.=104.354393, Alt.=78.491272m. Speed=0.000000m/h.</desc>
<speed>0.000000</speed>
</trkpt>
<trkpt lat="22.167089" lon="104.354393">
<ele>78.499084</ele>
<time>2011-04-27T08:25:56Z</time>
<desc>lat.=22.167089, lon.=104.354393, Alt.=78.499084m. Speed=0.000000m/h.</desc>
<speed>0.000000</speed>
</trkpt>
<trkpt lat="22.167089" lon="104.354393">
<ele>78.530334</ele>
<time>2011-04-27T08:26:01Z</time>
<desc>lat.=22.167089, lon.=104.354393, Alt.=78.530334m. Speed=0.000000m/h.</desc>
<speed>0.000000</speed>
</trkpt>
<trkpt lat="22.167089" lon="104.354393">
<ele>78.522522</ele>
<time>2011-04-27T08:26:06Z</time>
<desc>lat.=22.167089, lon.=104.354393, Alt.=78.522522m. Speed=0.000000m/h.</desc>
<speed>0.000000</speed>
</trkpt>
<trkpt lat="22.167089" lon="104.354393">
<ele>78.542053</ele>
<time>2011-04-27T08:26:11Z</time>
<desc>lat.=22.167089, lon.=104.354393, Alt.=78.542053m. Speed=0.000000m/h.</desc>
<speed>0.000000</speed>
</trkpt>
<trkpt lat="22.167089" lon="104.354393">
<ele>78.545959</ele>
<time>2011-04-27T08:26:16Z</time>
<desc>lat.=22.167089, lon.=104.354393, Alt.=78.545959m. Speed=0.036000m/h.</desc>
<speed>0.010000</speed>
</trkpt>
<trkpt lat="22.167089" lon="104.354393">
<ele>78.542053</ele>
<time>2011-04-27T08:26:21Z</time>
<desc>lat.=22.167089, lon.=104.354393, Alt.=78.542053m. Speed=0.000000m/h.</desc>
<speed>0.000000</speed>
</trkpt>
<trkpt lat="22.167089" lon="104.354393">
<ele>78.547913</ele>
<time>2011-04-27T08:26:26Z</time>
<desc>lat.=22.167089, lon.=104.354393, Alt.=78.547913m. Speed=0.000000m/h.</desc>
<speed>0.000000</speed>
</trkpt>
<trkpt lat="22.167089" lon="104.354393">
<ele>78.512756</ele>
<time>2011-04-27T08:26:31Z</time>
<desc>lat.=22.167089, lon.=104.354393, Alt.=78.512756m. Speed=0.000000m/h.</desc>
<speed>0.000000</speed>
</trkpt>
<trkpt lat="22.167089" lon="104.354393">
<ele>78.528381</ele>
<time>2011-04-27T08:26:36Z</time>
<desc>lat.=22.167089, lon.=104.354393, Alt.=78.528381m. Speed=0.000000m/h.</desc>
<speed>0.000000</speed>
</trkpt>
<trkpt lat="22.167089" lon="104.354401">
<ele>78.588928</ele>
<time>2011-04-27T08:26:41Z</time>
<desc>lat.=22.167089, lon.=104.354401, Alt.=78.588928m. Speed=0.000000m/h.</desc>
<speed>0.000000</speed>
</trkpt>
<trkpt lat="22.167089" lon="104.354401">
<ele>78.600647</ele>
<time>2011-04-27T08:26:46Z</time>
<desc>lat.=22.167089, lon.=104.354401, Alt.=78.600647m. Speed=0.000000m/h.</desc>
<speed>0.000000</speed>
</trkpt>
<trkpt lat="22.167089" lon="104.354401">
<ele>78.602600</ele>
<time>2011-04-27T08:26:51Z</time>
<desc>lat.=22.167089, lon.=104.354401, Alt.=78.602600m. Speed=0.000000m/h.</desc>
<speed>0.000000</speed>
</trkpt>
<trkpt lat="22.167089" lon="104.354401">
<ele>78.616272</ele>
<time>2011-04-27T08:26:56Z</time>
<desc>lat.=22.167089, lon.=104.354401, Alt.=78.616272m. Speed=0.000000m/h.</desc>
<speed>0.000000</speed>
</trkpt>
<trkpt lat="22.167089" lon="104.354401">
<ele>78.670959</ele>
<time>2011-04-27T08:27:01Z</time>
<desc>lat.=22.167089, lon.=104.354401, Alt.=78.670959m. Speed=0.036000m/h.</desc>
<speed>0.010000</speed>
</trkpt>
<trkpt lat="22.167089" lon="104.354401">
<ele>78.721741</ele>
<time>2011-04-27T08:27:06Z</time>
<desc>lat.=22.167089, lon.=104.354401, Alt.=78.721741m. Speed=0.000000m/h.</desc>
<speed>0.000000</speed>
</trkpt>
<trkpt lat="22.167089" lon="104.354401">
<ele>78.758850</ele>
<time>2011-04-27T08:27:11Z</time>
<desc>lat.=22.167089, lon.=104.354401, Alt.=78.758850m. Speed=0.000000m/h.</desc>
<speed>0.000000</speed>
</trkpt>
<trkpt lat="22.167089" lon="104.354401">
<ele>78.766663</ele>
<time>2011-04-27T08:27:16Z</time>
<desc>lat.=22.167089, lon.=104.354401, Alt.=78.766663m. Speed=0.000000m/h.</desc>
<speed>0.000000</speed>
</trkpt>
<trkpt lat="22.167089" lon="104.354401">
<ele>78.772522</ele>
<time>2011-04-27T08:27:21Z</time>
<desc>lat.=22.167089, lon.=104.354401, Alt.=78.772522m. Speed=0.000000m/h.</desc>
<speed>0.000000</speed>
</trkpt>
<trkpt lat="22.167089" lon="104.354401">
<ele>78.790100</ele>
<time>2011-04-27T08:27:26Z</time>
<desc>lat.=22.167089, lon.=104.354401, Alt.=78.790100m. Speed=0.000000m/h.</desc>
<speed>0.000000</speed>
</trkpt>
<trkpt lat="22.167089" lon="104.354401">
<ele>78.801819</ele>
<time>2011-04-27T08:27:31Z</time>
<desc>lat.=22.167089, lon.=104.354401, Alt.=78.801819m. Speed=0.000000m/h.</desc>
<speed>0.000000</speed>
</trkpt>
<trkpt lat="22.167089" lon="104.354401">
<ele>78.821350</ele>
<time>2011-04-27T08:27:36Z</time>
<desc>lat.=22.167089, lon.=104.354401, Alt.=78.821350m. Speed=0.036000m/h.</desc>
<speed>0.010000</speed>
</trkpt>
<trkpt lat="22.167089" lon="104.354401">
<ele>78.844788</ele>
<time>2011-04-27T08:27:41Z</time>
<desc>lat.=22.167089, lon.=104.354401, Alt.=78.844788m. Speed=0.000000m/h.</desc>
<speed>0.000000</speed>
</trkpt>
<trkpt lat="22.167089" lon="104.354401">
<ele>78.858459</ele>
<time>2011-04-27T08:27:46Z</time>
<desc>lat.=22.167089, lon.=104.354401, Alt.=78.858459m. Speed=0.000000m/h.</desc>
<speed>0.000000</speed>
</trkpt>
<trkpt lat="22.167089" lon="104.354401">
<ele>78.862366</ele>
<time>2011-04-27T08:27:51Z</time>
<desc>lat.=22.167089, lon.=104.354401, Alt.=78.862366m. Speed=0.036000m/h.</desc>
<speed>0.010000</speed>
</trkpt>
<trkpt lat="22.167089" lon="104.354401">
<ele>78.856506</ele>
<time>2011-04-27T08:27:56Z</time>
<desc>lat.=22.167089, lon.=104.354401, Alt.=78.856506m. Speed=0.000000m/h.</desc>
<speed>0.000000</speed>
</trkpt>
<trkpt lat="22.167088" lon="104.354401">
<ele>78.846741</ele>
<time>2011-04-27T08:28:01Z</time>
<desc>lat.=22.167088, lon.=104.354401, Alt.=78.846741m. Speed=0.036000m/h.</desc>
<speed>0.010000</speed>
</trkpt>
<trkpt lat="22.167088" lon="104.354401">
<ele>78.854553</ele>
<time>2011-04-27T08:28:06Z</time>
<desc>lat.=22.167088, lon.=104.354401, Alt.=78.854553m. Speed=0.072000m/h.</desc>
<speed>0.020000</speed>
</trkpt>
<trkpt lat="22.167088" lon="104.354401">
<ele>78.846741</ele>
<time>2011-04-27T08:28:11Z</time>
<desc>lat.=22.167088, lon.=104.354401, Alt.=78.846741m. Speed=0.000000m/h.</desc>
<speed>0.000000</speed>
</trkpt>
<trkpt lat="22.167088" lon="104.354401">
<ele>78.813538</ele>
<time>2011-04-27T08:28:16Z</time>
<desc>lat.=22.167088, lon.=104.354401, Alt.=78.813538m. Speed=0.000000m/h.</desc>
<speed>0.000000</speed>
</trkpt>
<trkpt lat="22.167088" lon="104.354401">
<ele>78.805725</ele>
<time>2011-04-27T08:28:21Z</time>
<desc>lat.=22.167088, lon.=104.354401, Alt.=78.805725m. Speed=0.000000m/h.</desc>
<speed>0.000000</speed>
</trkpt>
<trkpt lat="22.167088" lon="104.354401">
<ele>78.821350</ele>
<time>2011-04-27T08:28:26Z</time>
<desc>lat.=22.167088, lon.=104.354401, Alt.=78.821350m. Speed=0.000000m/h.</desc>
<speed>0.000000</speed>
</trkpt>
<trkpt lat="22.167088" lon="104.354401">
<ele>78.815491</ele>
<time>2011-04-27T08:28:31Z</time>
<desc>lat.=22.167088, lon.=104.354401, Alt.=78.815491m. Speed=0.000000m/h.</desc>
<speed>0.000000</speed>
</trkpt>
<trkpt lat="22.167088" lon="104.354401">
<ele>78.833069</ele>
<time>2011-04-27T08:28:36Z</time>
<desc>lat.=22.167088, lon.=104.354401, Alt.=78.833069m. Speed=0.000000m/h.</desc>
<speed>0.000000</speed>
</trkpt>
<trkpt lat="22.167088" lon="104.354401">
<ele>78.840881</ele>
<time>2011-04-27T08:28:41Z</time>
<desc>lat.=22.167088, lon.=104.354401, Alt.=78.840881m. Speed=0.000000m/h.</desc>
<speed>0.000000</speed>
</trkpt>
<trkpt lat="22.167088" lon="104.354401">
<ele>78.850647</ele>
<time>2011-04-27T08:28:46Z</time>
<desc>lat.=22.167088, lon.=104.354401, Alt.=78.850647m. Speed=0.000000m/h.</desc>
<speed>0.000000</speed>
</trkpt>
<trkpt lat="22.167088" lon="104.354401">
<ele>78.858459</ele>
<time>2011-04-27T08:28:51Z</time>
<desc>lat.=22.167088, lon.=104.354401, Alt.=78.858459m. Speed=0.000000m/h.</desc>
<speed>0.000000</speed>
</trkpt>
<trkpt lat="22.167088" lon="104.354401">
<ele>78.860413</ele>
<time>2011-04-27T08:28:56Z</time>
<desc>lat.=22.167088, lon.=104.354401, Alt.=78.860413m. Speed=0.000000m/h.</desc>
<speed>0.000000</speed>
</trkpt>
<trkpt lat="22.167088" lon="104.354401">
<ele>78.876038</ele>
<time>2011-04-27T08:29:01Z</time>
<desc>lat.=22.167088, lon.=104.354401, Alt.=78.876038m. Speed=0.000000m/h.</desc>
<speed>0.000000</speed>
</trkpt>
<trkpt lat="22.167088" lon="104.354401">
<ele>78.877991</ele>
<time>2011-04-27T08:29:06Z</time>
<desc>lat.=22.167088, lon.=104.354401, Alt.=78.877991m. Speed=0.036000m/h.</desc>
<speed>0.010000</speed>
</trkpt>
<trkpt lat="22.167088" lon="104.354401">
<ele>78.879944</ele>
<time>2011-04-27T08:29:11Z</time>
<desc>lat.=22.167088, lon.=104.354401, Alt.=78.879944m. Speed=0.000000m/h.</desc>
<speed>0.000000</speed>
</trkpt>
<trkpt lat="22.167086" lon="104.354401">
<ele>78.868225</ele>
<time>2011-04-27T08:29:16Z</time>
<desc>lat.=22.167086, lon.=104.354401, Alt.=78.868225m. Speed=0.000000m/h.</desc>
<speed>0.000000</speed>
</trkpt>
<trkpt lat="22.167086" lon="104.354401">
<ele>78.846741</ele>
<time>2011-04-27T08:29:21Z</time>
<desc>lat.=22.167086, lon.=104.354401, Alt.=78.846741m. Speed=0.000000m/h.</desc>
<speed>0.000000</speed>
</trkpt>
<trkpt lat="22.167086" lon="104.354401">
<ele>78.838928</ele>
<time>2011-04-27T08:29:26Z</time>
<desc>lat.=22.167086, lon.=104.354401, Alt.=78.838928m. Speed=0.000000m/h.</desc>
<speed>0.000000</speed>
</trkpt>
<trkpt lat="22.167086" lon="104.354401">
<ele>78.842834</ele>
<time>2011-04-27T08:29:31Z</time>
<desc>lat.=22.167086, lon.=104.354401, Alt.=78.842834m. Speed=0.000000m/h.</desc>
<speed>0.000000</speed>
</trkpt>
<trkpt lat="22.167086" lon="104.354401">
<ele>78.856506</ele>
<time>2011-04-27T08:29:36Z</time>
<desc>lat.=22.167086, lon.=104.354401, Alt.=78.856506m. Speed=0.000000m/h.</desc>
<speed>0.000000</speed>
</trkpt>
<trkpt lat="22.167086" lon="104.354401">
<ele>78.872131</ele>
<time>2011-04-27T08:29:41Z</time>
<desc>lat.=22.167086, lon.=104.354401, Alt.=78.872131m. Speed=0.000000m/h.</desc>
<speed>0.000000</speed>
</trkpt>
<trkpt lat="22.167086" lon="104.354401">
<ele>78.872131</ele>
<time>2011-04-27T08:29:46Z</time>
<desc>lat.=22.167086, lon.=104.354401, Alt.=78.872131m. Speed=0.036000m/h.</desc>
<speed>0.010000</speed>
</trkpt>
<trkpt lat="22.167086" lon="104.354401">
<ele>78.876038</ele>
<time>2011-04-27T08:29:51Z</time>
<desc>lat.=22.167086, lon.=104.354401, Alt.=78.876038m. Speed=0.000000m/h.</desc>
<speed>0.000000</speed>
</trkpt>
<trkpt lat="22.167086" lon="104.354401">
<ele>78.868225</ele>
<time>2011-04-27T08:29:56Z</time>
<desc>lat.=22.167086, lon.=104.354401, Alt.=78.868225m. Speed=0.000000m/h.</desc>
<speed>0.000000</speed>
</trkpt>
<trkpt lat="22.167084" lon="104.354401">
<ele>78.870178</ele>
<time>2011-04-27T08:30:01Z</time>
<desc>lat.=22.167084, lon.=104.354401, Alt.=78.870178m. Speed=0.000000m/h.</desc>
<speed>0.000000</speed>
</trkpt>
<trkpt lat="22.167084" lon="104.354401">
<ele>78.870178</ele>
<time>2011-04-27T08:30:06Z</time>
<desc>lat.=22.167084, lon.=104.354401, Alt.=78.870178m. Speed=0.000000m/h.</desc>
<speed>0.000000</speed>
</trkpt>
<trkpt lat="22.167084" lon="104.354401">
<ele>78.876038</ele>
<time>2011-04-27T08:30:11Z</time>
<desc>lat.=22.167084, lon.=104.354401, Alt.=78.876038m. Speed=0.000000m/h.</desc>
<speed>0.000000</speed>
</trkpt>
<trkpt lat="22.167084" lon="104.354401">
<ele>78.877991</ele>
<time>2011-04-27T08:30:16Z</time>
<desc>lat.=22.167084, lon.=104.354401, Alt.=78.877991m. Speed=0.000000m/h.</desc>
<speed>0.000000</speed>
</trkpt>
<trkpt lat="22.167086" lon="104.354401">
<ele>78.866272</ele>
<time>2011-04-27T08:30:21Z</time>
<desc>lat.=22.167086, lon.=104.354401, Alt.=78.866272m. Speed=0.000000m/h.</desc>
<speed>0.000000</speed>
</trkpt>
<trkpt lat="22.167086" lon="104.354401">
<ele>78.858459</ele>
<time>2011-04-27T08:30:26Z</time>
<desc>lat.=22.167086, lon.=104.354401, Alt.=78.858459m. Speed=0.036000m/h.</desc>
<speed>0.010000</speed>
</trkpt>
<trkpt lat="22.167086" lon="104.354401">
<ele>78.833069</ele>
<time>2011-04-27T08:30:31Z</time>
<desc>lat.=22.167086, lon.=104.354401, Alt.=78.833069m. Speed=0.036000m/h.</desc>
<speed>0.010000</speed>
</trkpt>
<trkpt lat="22.167086" lon="104.354401">
<ele>78.805725</ele>
<time>2011-04-27T08:30:36Z</time>
<desc>lat.=22.167086, lon.=104.354401, Alt.=78.805725m. Speed=0.036000m/h.</desc>
<speed>0.010000</speed>
</trkpt>
<trkpt lat="22.167086" lon="104.354401">
<ele>78.805725</ele>
<time>2011-04-27T08:30:41Z</time>
<desc>lat.=22.167086, lon.=104.354401, Alt.=78.805725m. Speed=0.036000m/h.</desc>
<speed>0.010000</speed>
</trkpt>
<trkpt lat="22.167086" lon="104.354401">
<ele>78.819397</ele>
<time>2011-04-27T08:30:46Z</time>
<desc>lat.=22.167086, lon.=104.354401, Alt.=78.819397m. Speed=0.000000m/h.</desc>
<speed>0.000000</speed>
</trkpt>
<trkpt lat="22.167086" lon="104.354401">
<ele>78.844788</ele>
<time>2011-04-27T08:30:51Z</time>
<desc>lat.=22.167086, lon.=104.354401, Alt.=78.844788m. Speed=0.000000m/h.</desc>
<speed>0.000000</speed>
</trkpt>
<trkpt lat="22.167086" lon="104.354401">
<ele>78.883850</ele>
<time>2011-04-27T08:30:56Z</time>
<desc>lat.=22.167086, lon.=104.354401, Alt.=78.883850m. Speed=0.000000m/h.</desc>
<speed>0.000000</speed>
</trkpt>
<trkpt lat="22.167086" lon="104.354401">
<ele>78.936584</ele>
<time>2011-04-27T08:31:01Z</time>
<desc>lat.=22.167086, lon.=104.354401, Alt.=78.936584m. Speed=0.036000m/h.</desc>
<speed>0.010000</speed>
</trkpt>
<trkpt lat="22.167086" lon="104.354401">
<ele>78.985413</ele>
<time>2011-04-27T08:31:06Z</time>
<desc>lat.=22.167086, lon.=104.354401, Alt.=78.985413m. Speed=0.000000m/h.</desc>
<speed>0.000000</speed>
</trkpt>
<trkpt lat="22.167086" lon="104.354401">
<ele>79.026428</ele>
<time>2011-04-27T08:31:11Z</time>
<desc>lat.=22.167086, lon.=104.354401, Alt.=79.026428m. Speed=0.000000m/h.</desc>
<speed>0.000000</speed>
</trkpt>
<trkpt lat="22.167086" lon="104.354401">
<ele>79.061584</ele>
<time>2011-04-27T08:31:16Z</time>
<desc>lat.=22.167086, lon.=104.354401, Alt.=79.061584m. Speed=0.000000m/h.</desc>
<speed>0.000000</speed>
</trkpt>
<trkpt lat="22.167086" lon="104.354401">
<ele>79.096741</ele>
<time>2011-04-27T08:31:21Z</time>
<desc>lat.=22.167086, lon.=104.354401, Alt.=79.096741m. Speed=0.000000m/h.</desc>
<speed>0.000000</speed>
</trkpt>
<trkpt lat="22.167086" lon="104.354401">
<ele>79.116272</ele>
<time>2011-04-27T08:31:26Z</time>
<desc>lat.=22.167086, lon.=104.354401, Alt.=79.116272m. Speed=0.036000m/h.</desc>
<speed>0.010000</speed>
</trkpt>
<trkpt lat="22.167086" lon="104.354401">
<ele>79.131897</ele>
<time>2011-04-27T08:31:31Z</time>
<desc>lat.=22.167086, lon.=104.354401, Alt.=79.131897m. Speed=0.000000m/h.</desc>
<speed>0.000000</speed>
</trkpt>
<trkpt lat="22.167086" lon="104.354401">
<ele>79.143616</ele>
<time>2011-04-27T08:31:36Z</time>
<desc>lat.=22.167086, lon.=104.354401, Alt.=79.143616m. Speed=0.000000m/h.</desc>
<speed>0.000000</speed>
</trkpt>
<trkpt lat="22.167086" lon="104.354401">
<ele>79.155334</ele>
<time>2011-04-27T08:31:41Z</time>
<desc>lat.=22.167086, lon.=104.354401, Alt.=79.155334m. Speed=0.000000m/h.</desc>
<speed>0.000000</speed>
</trkpt>
<trkpt lat="22.167088" lon="104.354401">
<ele>79.165100</ele>
<time>2011-04-27T08:31:46Z</time>
<desc>lat.=22.167088, lon.=104.354401, Alt.=79.165100m. Speed=0.000000m/h.</desc>
<speed>0.000000</speed>
</trkpt>
<trkpt lat="22.167088" lon="104.354401">
<ele>79.180725</ele>
<time>2011-04-27T08:31:51Z</time>
<desc>lat.=22.167088, lon.=104.354401, Alt.=79.180725m. Speed=0.000000m/h.</desc>
<speed>0.000000</speed>
</trkpt>
<trkpt lat="22.167088" lon="104.354401">
<ele>79.190491</ele>
<time>2011-04-27T08:31:56Z</time>
<desc>lat.=22.167088, lon.=104.354401, Alt.=79.190491m. Speed=0.036000m/h.</desc>
<speed>0.010000</speed>
</trkpt>
<trkpt lat="22.167088" lon="104.354401">
<ele>79.196350</ele>
<time>2011-04-27T08:32:01Z</time>
<desc>lat.=22.167088, lon.=104.354401, Alt.=79.196350m. Speed=0.000000m/h.</desc>
<speed>0.000000</speed>
</trkpt>
<trkpt lat="22.167088" lon="104.354401">
<ele>79.206116</ele>
<time>2011-04-27T08:32:06Z</time>
<desc>lat.=22.167088, lon.=104.354401, Alt.=79.206116m. Speed=0.036000m/h.</desc>
<speed>0.010000</speed>
</trkpt>
<trkpt lat="22.167089" lon="104.354401">
<ele>79.210022</ele>
<time>2011-04-27T08:32:11Z</time>
<desc>lat.=22.167089, lon.=104.354401, Alt.=79.210022m. Speed=0.036000m/h.</desc>
<speed>0.010000</speed>
</trkpt>
<trkpt lat="22.167089" lon="104.354401">
<ele>79.213928</ele>
<time>2011-04-27T08:32:16Z</time>
<desc>lat.=22.167089, lon.=104.354401, Alt.=79.213928m. Speed=0.072000m/h.</desc>
<speed>0.020000</speed>
</trkpt>
<trkpt lat="22.167089" lon="104.354401">
<ele>79.217834</ele>
<time>2011-04-27T08:32:21Z</time>
<desc>lat.=22.167089, lon.=104.354401, Alt.=79.217834m. Speed=0.036000m/h.</desc>
<speed>0.010000</speed>
</trkpt>
<trkpt lat="22.167089" lon="104.354401">
<ele>79.235413</ele>
<time>2011-04-27T08:32:26Z</time>
<desc>lat.=22.167089, lon.=104.354401, Alt.=79.235413m. Speed=0.036000m/h.</desc>
<speed>0.010000</speed>
</trkpt>
<trkpt lat="22.167089" lon="104.354401">
<ele>79.260803</ele>
<time>2011-04-27T08:32:31Z</time>
<desc>lat.=22.167089, lon.=104.354401, Alt.=79.260803m. Speed=0.108000m/h.</desc>
<speed>0.030000</speed>
</trkpt>
<trkpt lat="22.167089" lon="104.354401">
<ele>79.294006</ele>
<time>2011-04-27T08:32:36Z</time>
<desc>lat.=22.167089, lon.=104.354401, Alt.=79.294006m. Speed=0.036000m/h.</desc>
<speed>0.010000</speed>
</trkpt>
<trkpt lat="22.167089" lon="104.354401">
<ele>79.329163</ele>
<time>2011-04-27T08:32:41Z</time>
<desc>lat.=22.167089, lon.=104.354401, Alt.=79.329163m. Speed=0.000000m/h.</desc>
<speed>0.000000</speed>
</trkpt>
<trkpt lat="22.167089" lon="104.354401">
<ele>79.368225</ele>
<time>2011-04-27T08:32:46Z</time>
<desc>lat.=22.167089, lon.=104.354401, Alt.=79.368225m. Speed=0.036000m/h.</desc>
<speed>0.010000</speed>
</trkpt>
<trkpt lat="22.167091" lon="104.354401">
<ele>79.409241</ele>
<time>2011-04-27T08:32:51Z</time>
<desc>lat.=22.167091, lon.=104.354401, Alt.=79.409241m. Speed=0.000000m/h.</desc>
<speed>0.000000</speed>
</trkpt>
<trkpt lat="22.167091" lon="104.354401">
<ele>79.458069</ele>
<time>2011-04-27T08:32:56Z</time>
<desc>lat.=22.167091, lon.=104.354401, Alt.=79.458069m. Speed=0.072000m/h.</desc>
<speed>0.020000</speed>
</trkpt>
<trkpt lat="22.167093" lon="104.354401">
<ele>79.510803</ele>
<time>2011-04-27T08:33:01Z</time>
<desc>lat.=22.167093, lon.=104.354401, Alt.=79.510803m. Speed=0.216000m/h.</desc>
<speed>0.060000</speed>
</trkpt>
<trkpt lat="22.167095" lon="104.354401">
<ele>79.563538</ele>
<time>2011-04-27T08:33:06Z</time>
<desc>lat.=22.167095, lon.=104.354401, Alt.=79.563538m. Speed=0.180000m/h.</desc>
<speed>0.050000</speed>
</trkpt>
<trkpt lat="22.167097" lon="104.354401">
<ele>79.620178</ele>
<time>2011-04-27T08:33:11Z</time>
<desc>lat.=22.167097, lon.=104.354401, Alt.=79.620178m. Speed=0.036000m/h.</desc>
<speed>0.010000</speed>
</trkpt>
<trkpt lat="22.167095" lon="104.354401">
<ele>79.674866</ele>
<time>2011-04-27T08:33:16Z</time>
<desc>lat.=22.167095, lon.=104.354401, Alt.=79.674866m. Speed=0.180000m/h.</desc>
<speed>0.050000</speed>
</trkpt>
<trkpt lat="22.167091" lon="104.354401">
<ele>79.727600</ele>
<time>2011-04-27T08:33:21Z</time>
<desc>lat.=22.167091, lon.=104.354401, Alt.=79.727600m. Speed=0.504000m/h.</desc>
<speed>0.140000</speed>
</trkpt>
<trkpt lat="22.167086" lon="104.354408">
<ele>79.778381</ele>
<time>2011-04-27T08:33:26Z</time>
<desc>lat.=22.167086, lon.=104.354408, Alt.=79.778381m. Speed=0.720000m/h.</desc>
<speed>0.200000</speed>
</trkpt>
<trkpt lat="22.167078" lon="104.354416">
<ele>79.829163</ele>
<time>2011-04-27T08:33:31Z</time>
<desc>lat.=22.167078, lon.=104.354416, Alt.=79.829163m. Speed=0.864000m/h.</desc>
<speed>0.240000</speed>
</trkpt>
<trkpt lat="22.167068" lon="104.354424">
<ele>79.874084</ele>
<time>2011-04-27T08:33:36Z</time>
<desc>lat.=22.167068, lon.=104.354424, Alt.=79.874084m. Speed=1.008000m/h.</desc>
<speed>0.280000</speed>
</trkpt>
<trkpt lat="22.167046" lon="104.354454">
<ele>79.631897</ele>
<time>2011-04-27T08:33:41Z</time>
<desc>lat.=22.167046, lon.=104.354454, Alt.=79.631897m. Speed=1.296000m/h.</desc>
<speed>0.360000</speed>
</trkpt>
<trkpt lat="22.167023" lon="104.354477">
<ele>79.702209</ele>
<time>2011-04-27T08:33:46Z</time>
<desc>lat.=22.167023, lon.=104.354477, Alt.=79.702209m. Speed=1.332000m/h.</desc>
<speed>0.370000</speed>
</trkpt>
<trkpt lat="22.167007" lon="104.354492">
<ele>80.061584</ele>
<time>2011-04-27T08:33:51Z</time>
<desc>lat.=22.167007, lon.=104.354492, Alt.=80.061584m. Speed=1.008000m/h.</desc>
<speed>0.280000</speed>
</trkpt>
<trkpt lat="22.167004" lon="104.354500">
<ele>80.227600</ele>
<time>2011-04-27T08:33:56Z</time>
<desc>lat.=22.167004, lon.=104.354500, Alt.=80.227600m. Speed=0.756000m/h.</desc>
<speed>0.210000</speed>
</trkpt>
<trkpt lat="22.166994" lon="104.354507">
<ele>80.294006</ele>
<time>2011-04-27T08:34:01Z</time>
<desc>lat.=22.166994, lon.=104.354507, Alt.=80.294006m. Speed=0.972000m/h.</desc>
<speed>0.270000</speed>
</trkpt>
<trkpt lat="22.166988" lon="104.354507">
<ele>80.376038</ele>
<time>2011-04-27T08:34:06Z</time>
<desc>lat.=22.166988, lon.=104.354507, Alt.=80.376038m. Speed=0.036000m/h.</desc>
<speed>0.010000</speed>
</trkpt>
<trkpt lat="22.166988" lon="104.354515">
<ele>80.461975</ele>
<time>2011-04-27T08:34:11Z</time>
<desc>lat.=22.166988, lon.=104.354515, Alt.=80.461975m. Speed=0.000000m/h.</desc>
<speed>0.000000</speed>
</trkpt>
<trkpt lat="22.166988" lon="104.354515">
<ele>80.538147</ele>
<time>2011-04-27T08:34:16Z</time>
<desc>lat.=22.166988, lon.=104.354515, Alt.=80.538147m. Speed=0.036000m/h.</desc>
<speed>0.010000</speed>
</trkpt>
<trkpt lat="22.166988" lon="104.354515">
<ele>80.616272</ele>
<time>2011-04-27T08:34:21Z</time>
<desc>lat.=22.166988, lon.=104.354515, Alt.=80.616272m. Speed=0.000000m/h.</desc>
<speed>0.000000</speed>
</trkpt>
<trkpt lat="22.166988" lon="104.354515">
<ele>80.690491</ele>
<time>2011-04-27T08:34:26Z</time>
<desc>lat.=22.166988, lon.=104.354515, Alt.=80.690491m. Speed=0.036000m/h.</desc>
<speed>0.010000</speed>
</trkpt>
<trkpt lat="22.166988" lon="104.354515">
<ele>80.776428</ele>
<time>2011-04-27T08:34:31Z</time>
<desc>lat.=22.166988, lon.=104.354515, Alt.=80.776428m. Speed=0.108000m/h.</desc>
<speed>0.030000</speed>
</trkpt>
<trkpt lat="22.166988" lon="104.354515">
<ele>80.872131</ele>
<time>2011-04-27T08:34:36Z</time>
<desc>lat.=22.166988, lon.=104.354515, Alt.=80.872131m. Speed=0.000000m/h.</desc>
<speed>0.000000</speed>
</trkpt>
<trkpt lat="22.166988" lon="104.354515">
<ele>80.973694</ele>
<time>2011-04-27T08:34:41Z</time>
<desc>lat.=22.166988, lon.=104.354515, Alt.=80.973694m. Speed=0.180000m/h.</desc>
<speed>0.050000</speed>
</trkpt>
<trkpt lat="22.166990" lon="104.354515">
<ele>81.083069</ele>
<time>2011-04-27T08:34:46Z</time>
<desc>lat.=22.166990, lon.=104.354515, Alt.=81.083069m. Speed=0.324000m/h.</desc>
<speed>0.090000</speed>
</trkpt>
<trkpt lat="22.166994" lon="104.354515">
<ele>81.192444</ele>
<time>2011-04-27T08:34:51Z</time>
<desc>lat.=22.166994, lon.=104.354515, Alt.=81.192444m. Speed=0.036000m/h.</desc>
<speed>0.010000</speed>
</trkpt>
<trkpt lat="22.166994" lon="104.354515">
<ele>81.301819</ele>
<time>2011-04-27T08:34:56Z</time>
<desc>lat.=22.166994, lon.=104.354515, Alt.=81.301819m. Speed=0.036000m/h.</desc>
<speed>0.010000</speed>
</trkpt>
<trkpt lat="22.166994" lon="104.354515">
<ele>81.409241</ele>
<time>2011-04-27T08:35:01Z</time>
<desc>lat.=22.166994, lon.=104.354515, Alt.=81.409241m. Speed=0.108000m/h.</desc>
<speed>0.030000</speed>
</trkpt>
<trkpt lat="22.166996" lon="104.354515">
<ele>81.504944</ele>
<time>2011-04-27T08:35:06Z</time>
<desc>lat.=22.166996, lon.=104.354515, Alt.=81.504944m. Speed=0.036000m/h.</desc>
<speed>0.010000</speed>
</trkpt>
<trkpt lat="22.166996" lon="104.354515">
<ele>81.592834</ele>
<time>2011-04-27T08:35:11Z</time>
<desc>lat.=22.166996, lon.=104.354515, Alt.=81.592834m. Speed=0.144000m/h.</desc>
<speed>0.040000</speed>
</trkpt>
<trkpt lat="22.166994" lon="104.354515">
<ele>81.678772</ele>
<time>2011-04-27T08:35:16Z</time>
<desc>lat.=22.166994, lon.=104.354515, Alt.=81.678772m. Speed=0.108000m/h.</desc>
<speed>0.030000</speed>
</trkpt>
<trkpt lat="22.166994" lon="104.354515">
<ele>81.754944</ele>
<time>2011-04-27T08:35:21Z</time>
<desc>lat.=22.166994, lon.=104.354515, Alt.=81.754944m. Speed=0.000000m/h.</desc>
<speed>0.000000</speed>
</trkpt>
<trkpt lat="22.166998" lon="104.354515">
<ele>81.815491</ele>
<time>2011-04-27T08:35:26Z</time>
<desc>lat.=22.166998, lon.=104.354515, Alt.=81.815491m. Speed=0.828000m/h.</desc>
<speed>0.230000</speed>
</trkpt>
<trkpt lat="22.167048" lon="104.354485">
<ele>81.631897</ele>
<time>2011-04-27T08:35:31Z</time>
<desc>lat.=22.167048, lon.=104.354485, Alt.=81.631897m. Speed=1.764000m/h.</desc>
<speed>0.490000</speed>
</trkpt>
<trkpt lat="22.167124" lon="104.354431">
<ele>81.020569</ele>
<time>2011-04-27T08:35:36Z</time>
<desc>lat.=22.167124, lon.=104.354431, Alt.=81.020569m. Speed=1.872000m/h.</desc>
<speed>0.520000</speed>
</trkpt>
<trkpt lat="22.167150" lon="104.354408">
<ele>80.215881</ele>
<time>2011-04-27T08:35:41Z</time>
<desc>lat.=22.167150, lon.=104.354408, Alt.=80.215881m. Speed=0.000000m/h.</desc>
<speed>0.000000</speed>
</trkpt>
<trkpt lat="22.167150" lon="104.354408">
<ele>80.227600</ele>
<time>2011-04-27T08:35:46Z</time>
<desc>lat.=22.167150, lon.=104.354408, Alt.=80.227600m. Speed=0.036000m/h.</desc>
<speed>0.010000</speed>
</trkpt>
<trkpt lat="22.167150" lon="104.354408">
<ele>80.229553</ele>
<time>2011-04-27T08:35:51Z</time>
<desc>lat.=22.167150, lon.=104.354408, Alt.=80.229553m. Speed=0.036000m/h.</desc>
<speed>0.010000</speed>
</trkpt>
<trkpt lat="22.167150" lon="104.354408">
<ele>80.219788</ele>
<time>2011-04-27T08:35:56Z</time>
<desc>lat.=22.167150, lon.=104.354408, Alt.=80.219788m. Speed=0.000000m/h.</desc>
<speed>0.000000</speed>
</trkpt>
<trkpt lat="22.167150" lon="104.354408">
<ele>80.239319</ele>
<time>2011-04-27T08:36:01Z</time>
<desc>lat.=22.167150, lon.=104.354408, Alt.=80.239319m. Speed=0.000000m/h.</desc>
<speed>0.000000</speed>
</trkpt>
<trkpt lat="22.167152" lon="104.354408">
<ele>80.245178</ele>
<time>2011-04-27T08:36:06Z</time>
<desc>lat.=22.167152, lon.=104.354408, Alt.=80.245178m. Speed=0.000000m/h.</desc>
<speed>0.000000</speed>
</trkpt>
<trkpt lat="22.167152" lon="104.354408">
<ele>80.229553</ele>
<time>2011-04-27T08:36:11Z</time>
<desc>lat.=22.167152, lon.=104.354408, Alt.=80.229553m. Speed=0.000000m/h.</desc>
<speed>0.000000</speed>
</trkpt>
<trkpt lat="22.167152" lon="104.354408">
<ele>80.215881</ele>
<time>2011-04-27T08:36:16Z</time>
<desc>lat.=22.167152, lon.=104.354408, Alt.=80.215881m. Speed=0.000000m/h.</desc>
<speed>0.000000</speed>
</trkpt>
<trkpt lat="22.167152" lon="104.354408">
<ele>80.151428</ele>
<time>2011-04-27T08:36:21Z</time>
<desc>lat.=22.167152, lon.=104.354408, Alt.=80.151428m. Speed=0.072000m/h.</desc>
<speed>0.020000</speed>
</trkpt>
<trkpt lat="22.167152" lon="104.354408">
<ele>80.057678</ele>
<time>2011-04-27T08:36:26Z</time>
<desc>lat.=22.167152, lon.=104.354408, Alt.=80.057678m. Speed=0.000000m/h.</desc>
<speed>0.000000</speed>
</trkpt>
<trkpt lat="22.167154" lon="104.354408">
<ele>80.016663</ele>
<time>2011-04-27T08:36:31Z</time>
<desc>lat.=22.167154, lon.=104.354408, Alt.=80.016663m. Speed=0.000000m/h.</desc>
<speed>0.000000</speed>
</trkpt>
<trkpt lat="22.167154" lon="104.354408">
<ele>80.010803</ele>
<time>2011-04-27T08:36:36Z</time>
<desc>lat.=22.167154, lon.=104.354408, Alt.=80.010803m. Speed=0.036000m/h.</desc>
<speed>0.010000</speed>
</trkpt>
<trkpt lat="22.167154" lon="104.354408">
<ele>80.010803</ele>
<time>2011-04-27T08:36:41Z</time>
<desc>lat.=22.167154, lon.=104.354408, Alt.=80.010803m. Speed=0.000000m/h.</desc>
<speed>0.000000</speed>
</trkpt>
<trkpt lat="22.167154" lon="104.354408">
<ele>79.995178</ele>
<time>2011-04-27T08:36:46Z</time>
<desc>lat.=22.167154, lon.=104.354408, Alt.=79.995178m. Speed=0.000000m/h.</desc>
<speed>0.000000</speed>
</trkpt>
<trkpt lat="22.167156" lon="104.354408">
<ele>79.987366</ele>
<time>2011-04-27T08:36:51Z</time>
<desc>lat.=22.167156, lon.=104.354408, Alt.=79.987366m. Speed=0.072000m/h.</desc>
<speed>0.020000</speed>
</trkpt>
<trkpt lat="22.167156" lon="104.354408">
<ele>79.985413</ele>
<time>2011-04-27T08:36:56Z</time>
<desc>lat.=22.167156, lon.=104.354408, Alt.=79.985413m. Speed=0.000000m/h.</desc>
<speed>0.000000</speed>
</trkpt>
<trkpt lat="22.167156" lon="104.354408">
<ele>79.981506</ele>
<time>2011-04-27T08:37:01Z</time>
<desc>lat.=22.167156, lon.=104.354408, Alt.=79.981506m. Speed=0.000000m/h.</desc>
<speed>0.000000</speed>
</trkpt>
<trkpt lat="22.167156" lon="104.354408">
<ele>79.977600</ele>
<time>2011-04-27T08:37:06Z</time>
<desc>lat.=22.167156, lon.=104.354408, Alt.=79.977600m. Speed=0.036000m/h.</desc>
<speed>0.010000</speed>
</trkpt>
<trkpt lat="22.167156" lon="104.354408">
<ele>79.983459</ele>
<time>2011-04-27T08:37:11Z</time>
<desc>lat.=22.167156, lon.=104.354408, Alt.=79.983459m. Speed=0.036000m/h.</desc>
<speed>0.010000</speed>
</trkpt>
<trkpt lat="22.167156" lon="104.354408">
<ele>79.989319</ele>
<time>2011-04-27T08:37:16Z</time>
<desc>lat.=22.167156, lon.=104.354408, Alt.=79.989319m. Speed=0.000000m/h.</desc>
<speed>0.000000</speed>
</trkpt>
<trkpt lat="22.167156" lon="104.354408">
<ele>80.008850</ele>
<time>2011-04-27T08:37:21Z</time>
<desc>lat.=22.167156, lon.=104.354408, Alt.=80.008850m. Speed=0.000000m/h.</desc>
<speed>0.000000</speed>
</trkpt>
<trkpt lat="22.167156" lon="104.354408">
<ele>80.020569</ele>
<time>2011-04-27T08:37:26Z</time>
<desc>lat.=22.167156, lon.=104.354408, Alt.=80.020569m. Speed=0.000000m/h.</desc>
<speed>0.000000</speed>
</trkpt>
<trkpt lat="22.167158" lon="104.354408">
<ele>80.020569</ele>
<time>2011-04-27T08:37:31Z</time>
<desc>lat.=22.167158, lon.=104.354408, Alt.=80.020569m. Speed=0.000000m/h.</desc>
<speed>0.000000</speed>
</trkpt>
<trkpt lat="22.167158" lon="104.354408">
<ele>80.073303</ele>
<time>2011-04-27T08:37:36Z</time>
<desc>lat.=22.167158, lon.=104.354408, Alt.=80.073303m. Speed=0.000000m/h.</desc>
<speed>0.000000</speed>
</trkpt>
<trkpt lat="22.167158" lon="104.354408">
<ele>80.088928</ele>
<time>2011-04-27T08:37:41Z</time>
<desc>lat.=22.167158, lon.=104.354408, Alt.=80.088928m. Speed=0.000000m/h.</desc>
<speed>0.000000</speed>
</trkpt>
<trkpt lat="22.167158" lon="104.354408">
<ele>80.104553</ele>
<time>2011-04-27T08:37:46Z</time>
<desc>lat.=22.167158, lon.=104.354408, Alt.=80.104553m. Speed=0.036000m/h.</desc>
<speed>0.010000</speed>
</trkpt>
<trkpt lat="22.167158" lon="104.354408">
<ele>80.120178</ele>
<time>2011-04-27T08:37:51Z</time>
<desc>lat.=22.167158, lon.=104.354408, Alt.=80.120178m. Speed=0.000000m/h.</desc>
<speed>0.000000</speed>
</trkpt>
<trkpt lat="22.167158" lon="104.354408">
<ele>80.143616</ele>
<time>2011-04-27T08:37:56Z</time>
<desc>lat.=22.167158, lon.=104.354408, Alt.=80.143616m. Speed=0.000000m/h.</desc>
<speed>0.000000</speed>
</trkpt>
<trkpt lat="22.167158" lon="104.354408">
<ele>80.180725</ele>
<time>2011-04-27T08:38:01Z</time>
<desc>lat.=22.167158, lon.=104.354408, Alt.=80.180725m. Speed=0.000000m/h.</desc>
<speed>0.000000</speed>
</trkpt>
<trkpt lat="22.167158" lon="104.354408">
<ele>80.208069</ele>
<time>2011-04-27T08:38:06Z</time>
<desc>lat.=22.167158, lon.=104.354408, Alt.=80.208069m. Speed=0.000000m/h.</desc>
<speed>0.000000</speed>
</trkpt>
<trkpt lat="22.167158" lon="104.354408">
<ele>80.227600</ele>
<time>2011-04-27T08:38:11Z</time>
<desc>lat.=22.167158, lon.=104.354408, Alt.=80.227600m. Speed=0.036000m/h.</desc>
<speed>0.010000</speed>
</trkpt>
<trkpt lat="22.167160" lon="104.354408">
<ele>80.252991</ele>
<time>2011-04-27T08:38:16Z</time>
<desc>lat.=22.167160, lon.=104.354408, Alt.=80.252991m. Speed=0.036000m/h.</desc>
<speed>0.010000</speed>
</trkpt>
<trkpt lat="22.167160" lon="104.354408">
<ele>80.256897</ele>
<time>2011-04-27T08:38:21Z</time>
<desc>lat.=22.167160, lon.=104.354408, Alt.=80.256897m. Speed=0.000000m/h.</desc>
<speed>0.000000</speed>
</trkpt>
<trkpt lat="22.167160" lon="104.354408">
<ele>80.264709</ele>
<time>2011-04-27T08:38:26Z</time>
<desc>lat.=22.167160, lon.=104.354408, Alt.=80.264709m. Speed=0.036000m/h.</desc>
<speed>0.010000</speed>
</trkpt>
<trkpt lat="22.167160" lon="104.354408">
<ele>80.270569</ele>
<time>2011-04-27T08:38:31Z</time>
<desc>lat.=22.167160, lon.=104.354408, Alt.=80.270569m. Speed=0.036000m/h.</desc>
<speed>0.010000</speed>
</trkpt>
<trkpt lat="22.167160" lon="104.354408">
<ele>80.284241</ele>
<time>2011-04-27T08:38:36Z</time>
<desc>lat.=22.167160, lon.=104.354408, Alt.=80.284241m. Speed=0.000000m/h.</desc>
<speed>0.000000</speed>
</trkpt>
<trkpt lat="22.167160" lon="104.354408">
<ele>80.305725</ele>
<time>2011-04-27T08:38:41Z</time>
<desc>lat.=22.167160, lon.=104.354408, Alt.=80.305725m. Speed=0.036000m/h.</desc>
<speed>0.010000</speed>
</trkpt>
<trkpt lat="22.167160" lon="104.354408">
<ele>80.329163</ele>
<time>2011-04-27T08:38:46Z</time>
<desc>lat.=22.167160, lon.=104.354408, Alt.=80.329163m. Speed=0.036000m/h.</desc>
<speed>0.010000</speed>
</trkpt>
<trkpt lat="22.167162" lon="104.354408">
<ele>80.348694</ele>
<time>2011-04-27T08:38:51Z</time>
<desc>lat.=22.167162, lon.=104.354408, Alt.=80.348694m. Speed=0.000000m/h.</desc>
<speed>0.000000</speed>
</trkpt>
<trkpt lat="22.167162" lon="104.354408">
<ele>80.387756</ele>
<time>2011-04-27T08:38:56Z</time>
<desc>lat.=22.167162, lon.=104.354408, Alt.=80.387756m. Speed=0.000000m/h.</desc>
<speed>0.000000</speed>
</trkpt>
<trkpt lat="22.167162" lon="104.354408">
<ele>80.420959</ele>
<time>2011-04-27T08:39:01Z</time>
<desc>lat.=22.167162, lon.=104.354408, Alt.=80.420959m. Speed=0.000000m/h.</desc>
<speed>0.000000</speed>
</trkpt>
<trkpt lat="22.167162" lon="104.354408">
<ele>80.458069</ele>
<time>2011-04-27T08:39:06Z</time>
<desc>lat.=22.167162, lon.=104.354408, Alt.=80.458069m. Speed=0.000000m/h.</desc>
<speed>0.000000</speed>
</trkpt>
<trkpt lat="22.167162" lon="104.354408">
<ele>80.475647</ele>
<time>2011-04-27T08:39:11Z</time>
<desc>lat.=22.167162, lon.=104.354408, Alt.=80.475647m. Speed=0.000000m/h.</desc>
<speed>0.000000</speed>
</trkpt>
<trkpt lat="22.167162" lon="104.354408">
<ele>80.493225</ele>
<time>2011-04-27T08:39:16Z</time>
<desc>lat.=22.167162, lon.=104.354408, Alt.=80.493225m. Speed=0.000000m/h.</desc>
<speed>0.000000</speed>
</trkpt>
<trkpt lat="22.167162" lon="104.354408">
<ele>80.508850</ele>
<time>2011-04-27T08:39:21Z</time>
<desc>lat.=22.167162, lon.=104.354408, Alt.=80.508850m. Speed=0.036000m/h.</desc>
<speed>0.010000</speed>
</trkpt>
<trkpt lat="22.167162" lon="104.354408">
<ele>80.520569</ele>
<time>2011-04-27T08:39:26Z</time>
<desc>lat.=22.167162, lon.=104.354408, Alt.=80.520569m. Speed=0.000000m/h.</desc>
<speed>0.000000</speed>
</trkpt>
<trkpt lat="22.167162" lon="104.354408">
<ele>80.530334</ele>
<time>2011-04-27T08:39:31Z</time>
<desc>lat.=22.167162, lon.=104.354408, Alt.=80.530334m. Speed=0.036000m/h.</desc>
<speed>0.010000</speed>
</trkpt>
<trkpt lat="22.167162" lon="104.354408">
<ele>80.540100</ele>
<time>2011-04-27T08:39:36Z</time>
<desc>lat.=22.167162, lon.=104.354408, Alt.=80.540100m. Speed=0.036000m/h.</desc>
<speed>0.010000</speed>
</trkpt>
<trkpt lat="22.167164" lon="104.354408">
<ele>80.549866</ele>
<time>2011-04-27T08:39:41Z</time>
<desc>lat.=22.167164, lon.=104.354408, Alt.=80.549866m. Speed=0.000000m/h.</desc>
<speed>0.000000</speed>
</trkpt>
<trkpt lat="22.167164" lon="104.354408">
<ele>80.559631</ele>
<time>2011-04-27T08:39:46Z</time>
<desc>lat.=22.167164, lon.=104.354408, Alt.=80.559631m. Speed=0.000000m/h.</desc>
<speed>0.000000</speed>
</trkpt>
<trkpt lat="22.167164" lon="104.354408">
<ele>80.571350</ele>
<time>2011-04-27T08:39:51Z</time>
<desc>lat.=22.167164, lon.=104.354408, Alt.=80.571350m. Speed=0.036000m/h.</desc>
<speed>0.010000</speed>
</trkpt>
<trkpt lat="22.167164" lon="104.354408">
<ele>80.571350</ele>
<time>2011-04-27T08:39:56Z</time>
<desc>lat.=22.167164, lon.=104.354408, Alt.=80.571350m. Speed=0.000000m/h.</desc>
<speed>0.000000</speed>
</trkpt>
<trkpt lat="22.167164" lon="104.354416">
<ele>80.577209</ele>
<time>2011-04-27T08:40:01Z</time>
<desc>lat.=22.167164, lon.=104.354416, Alt.=80.577209m. Speed=0.036000m/h.</desc>
<speed>0.010000</speed>
</trkpt>
<trkpt lat="22.167164" lon="104.354416">
<ele>80.579163</ele>
<time>2011-04-27T08:40:06Z</time>
<desc>lat.=22.167164, lon.=104.354416, Alt.=80.579163m. Speed=0.036000m/h.</desc>
<speed>0.010000</speed>
</trkpt>
<trkpt lat="22.167164" lon="104.354416">
<ele>80.581116</ele>
<time>2011-04-27T08:40:11Z</time>
<desc>lat.=22.167164, lon.=104.354416, Alt.=80.581116m. Speed=0.000000m/h.</desc>
<speed>0.000000</speed>
</trkpt>
<trkpt lat="22.167164" lon="104.354416">
<ele>80.581116</ele>
<time>2011-04-27T08:40:16Z</time>
<desc>lat.=22.167164, lon.=104.354416, Alt.=80.581116m. Speed=0.000000m/h.</desc>
<speed>0.000000</speed>
</trkpt>
<trkpt lat="22.167164" lon="104.354416">
<ele>80.575256</ele>
<time>2011-04-27T08:40:21Z</time>
<desc>lat.=22.167164, lon.=104.354416, Alt.=80.575256m. Speed=0.000000m/h.</desc>
<speed>0.000000</speed>
</trkpt>
<trkpt lat="22.167164" lon="104.354416">
<ele>80.602600</ele>
<time>2011-04-27T08:40:26Z</time>
<desc>lat.=22.167164, lon.=104.354416, Alt.=80.602600m. Speed=0.000000m/h.</desc>
<speed>0.000000</speed>
</trkpt>
<trkpt lat="22.167164" lon="104.354416">
<ele>80.633850</ele>
<time>2011-04-27T08:40:31Z</time>
<desc>lat.=22.167164, lon.=104.354416, Alt.=80.633850m. Speed=0.000000m/h.</desc>
<speed>0.000000</speed>
</trkpt>
<trkpt lat="22.167164" lon="104.354416">
<ele>80.651428</ele>
<time>2011-04-27T08:40:36Z</time>
<desc>lat.=22.167164, lon.=104.354416, Alt.=80.651428m. Speed=0.036000m/h.</desc>
<speed>0.010000</speed>
</trkpt>
<trkpt lat="22.167164" lon="104.354416">
<ele>80.674866</ele>
<time>2011-04-27T08:40:41Z</time>
<desc>lat.=22.167164, lon.=104.354416, Alt.=80.674866m. Speed=0.000000m/h.</desc>
<speed>0.000000</speed>
</trkpt>
<trkpt lat="22.167166" lon="104.354416">
<ele>80.688538</ele>
<time>2011-04-27T08:40:46Z</time>
<desc>lat.=22.167166, lon.=104.354416, Alt.=80.688538m. Speed=0.000000m/h.</desc>
<speed>0.000000</speed>
</trkpt>
<trkpt lat="22.167166" lon="104.354416">
<ele>80.694397</ele>
<time>2011-04-27T08:40:51Z</time>
<desc>lat.=22.167166, lon.=104.354416, Alt.=80.694397m. Speed=0.000000m/h.</desc>
<speed>0.000000</speed>
</trkpt>
<trkpt lat="22.167166" lon="104.354416">
<ele>80.704163</ele>
<time>2011-04-27T08:40:56Z</time>
<desc>lat.=22.167166, lon.=104.354416, Alt.=80.704163m. Speed=0.036000m/h.</desc>
<speed>0.010000</speed>
</trkpt>
<trkpt lat="22.167166" lon="104.354416">
<ele>80.710022</ele>
<time>2011-04-27T08:41:01Z</time>
<desc>lat.=22.167166, lon.=104.354416, Alt.=80.710022m. Speed=0.000000m/h.</desc>
<speed>0.000000</speed>
</trkpt>
<trkpt lat="22.167166" lon="104.354416">
<ele>80.711975</ele>
<time>2011-04-27T08:41:06Z</time>
<desc>lat.=22.167166, lon.=104.354416, Alt.=80.711975m. Speed=0.000000m/h.</desc>
<speed>0.000000</speed>
</trkpt>
<trkpt lat="22.167166" lon="104.354416">
<ele>80.721741</ele>
<time>2011-04-27T08:41:11Z</time>
<desc>lat.=22.167166, lon.=104.354416, Alt.=80.721741m. Speed=0.036000m/h.</desc>
<speed>0.010000</speed>
</trkpt>
<trkpt lat="22.167166" lon="104.354416">
<ele>80.733459</ele>
<time>2011-04-27T08:41:16Z</time>
<desc>lat.=22.167166, lon.=104.354416, Alt.=80.733459m. Speed=0.036000m/h.</desc>
<speed>0.010000</speed>
</trkpt>
<trkpt lat="22.167168" lon="104.354416">
<ele>80.754944</ele>
<time>2011-04-27T08:41:21Z</time>
<desc>lat.=22.167168, lon.=104.354416, Alt.=80.754944m. Speed=0.036000m/h.</desc>
<speed>0.010000</speed>
</trkpt>
<trkpt lat="22.167168" lon="104.354416">
<ele>80.772522</ele>
<time>2011-04-27T08:41:26Z</time>
<desc>lat.=22.167168, lon.=104.354416, Alt.=80.772522m. Speed=0.072000m/h.</desc>
<speed>0.020000</speed>
</trkpt>
<trkpt lat="22.167168" lon="104.354416">
<ele>80.784241</ele>
<time>2011-04-27T08:41:31Z</time>
<desc>lat.=22.167168, lon.=104.354416, Alt.=80.784241m. Speed=0.000000m/h.</desc>
<speed>0.000000</speed>
</trkpt>
<trkpt lat="22.167168" lon="104.354416">
<ele>80.792053</ele>
<time>2011-04-27T08:41:36Z</time>
<desc>lat.=22.167168, lon.=104.354416, Alt.=80.792053m. Speed=0.036000m/h.</desc>
<speed>0.010000</speed>
</trkpt>
<trkpt lat="22.167170" lon="104.354408">
<ele>80.807678</ele>
<time>2011-04-27T08:41:41Z</time>
<desc>lat.=22.167170, lon.=104.354408, Alt.=80.807678m. Speed=0.036000m/h.</desc>
<speed>0.010000</speed>
</trkpt>
<trkpt lat="22.167170" lon="104.354408">
<ele>80.827209</ele>
<time>2011-04-27T08:41:46Z</time>
<desc>lat.=22.167170, lon.=104.354408, Alt.=80.827209m. Speed=0.036000m/h.</desc>
<speed>0.010000</speed>
</trkpt>
<trkpt lat="22.167170" lon="104.354408">
<ele>80.850647</ele>
<time>2011-04-27T08:41:51Z</time>
<desc>lat.=22.167170, lon.=104.354408, Alt.=80.850647m. Speed=0.036000m/h.</desc>
<speed>0.010000</speed>
</trkpt>
<trkpt lat="22.167170" lon="104.354408">
<ele>80.877991</ele>
<time>2011-04-27T08:41:56Z</time>
<desc>lat.=22.167170, lon.=104.354408, Alt.=80.877991m. Speed=0.036000m/h.</desc>
<speed>0.010000</speed>
</trkpt>
<trkpt lat="22.167171" lon="104.354408">
<ele>80.889709</ele>
<time>2011-04-27T08:42:01Z</time>
<desc>lat.=22.167171, lon.=104.354408, Alt.=80.889709m. Speed=0.000000m/h.</desc>
<speed>0.000000</speed>
</trkpt>
<trkpt lat="22.167171" lon="104.354408">
<ele>80.883850</ele>
<time>2011-04-27T08:42:06Z</time>
<desc>lat.=22.167171, lon.=104.354408, Alt.=80.883850m. Speed=0.000000m/h.</desc>
<speed>0.000000</speed>
</trkpt>
<trkpt lat="22.167171" lon="104.354408">
<ele>80.870178</ele>
<time>2011-04-27T08:42:11Z</time>
<desc>lat.=22.167171, lon.=104.354408, Alt.=80.870178m. Speed=0.036000m/h.</desc>
<speed>0.010000</speed>
</trkpt>
<trkpt lat="22.167171" lon="104.354408">
<ele>80.856506</ele>
<time>2011-04-27T08:42:16Z</time>
<desc>lat.=22.167171, lon.=104.354408, Alt.=80.856506m. Speed=0.108000m/h.</desc>
<speed>0.030000</speed>
</trkpt>
<trkpt lat="22.167173" lon="104.354408">
<ele>80.844788</ele>
<time>2011-04-27T08:42:21Z</time>
<desc>lat.=22.167173, lon.=104.354408, Alt.=80.844788m. Speed=0.036000m/h.</desc>
<speed>0.010000</speed>
</trkpt>
<trkpt lat="22.167173" lon="104.354408">
<ele>80.831116</ele>
<time>2011-04-27T08:42:26Z</time>
<desc>lat.=22.167173, lon.=104.354408, Alt.=80.831116m. Speed=0.072000m/h.</desc>
<speed>0.020000</speed>
</trkpt>
<trkpt lat="22.167175" lon="104.354408">
<ele>80.823303</ele>
<time>2011-04-27T08:42:31Z</time>
<desc>lat.=22.167175, lon.=104.354408, Alt.=80.823303m. Speed=0.036000m/h.</desc>
<speed>0.010000</speed>
</trkpt>
<trkpt lat="22.167175" lon="104.354408">
<ele>80.829163</ele>
<time>2011-04-27T08:42:36Z</time>
<desc>lat.=22.167175, lon.=104.354408, Alt.=80.829163m. Speed=0.072000m/h.</desc>
<speed>0.020000</speed>
</trkpt>
<trkpt lat="22.167175" lon="104.354408">
<ele>80.836975</ele>
<time>2011-04-27T08:42:41Z</time>
<desc>lat.=22.167175, lon.=104.354408, Alt.=80.836975m. Speed=0.000000m/h.</desc>
<speed>0.000000</speed>
</trkpt>
<trkpt lat="22.167175" lon="104.354408">
<ele>80.844788</ele>
<time>2011-04-27T08:42:46Z</time>
<desc>lat.=22.167175, lon.=104.354408, Alt.=80.844788m. Speed=0.000000m/h.</desc>
<speed>0.000000</speed>
</trkpt>
<trkpt lat="22.167175" lon="104.354408">
<ele>80.840881</ele>
<time>2011-04-27T08:42:51Z</time>
<desc>lat.=22.167175, lon.=104.354408, Alt.=80.840881m. Speed=0.036000m/h.</desc>
<speed>0.010000</speed>
</trkpt>
<trkpt lat="22.167175" lon="104.354408">
<ele>80.842834</ele>
<time>2011-04-27T08:42:56Z</time>
<desc>lat.=22.167175, lon.=104.354408, Alt.=80.842834m. Speed=0.036000m/h.</desc>
<speed>0.010000</speed>
</trkpt>
<trkpt lat="22.167175" lon="104.354408">
<ele>80.854553</ele>
<time>2011-04-27T08:43:01Z</time>
<desc>lat.=22.167175, lon.=104.354408, Alt.=80.854553m. Speed=0.036000m/h.</desc>
<speed>0.010000</speed>
</trkpt>
<trkpt lat="22.167177" lon="104.354408">
<ele>80.858459</ele>
<time>2011-04-27T08:43:06Z</time>
<desc>lat.=22.167177, lon.=104.354408, Alt.=80.858459m. Speed=0.036000m/h.</desc>
<speed>0.010000</speed>
</trkpt>
<trkpt lat="22.167177" lon="104.354408">
<ele>80.864319</ele>
<time>2011-04-27T08:43:11Z</time>
<desc>lat.=22.167177, lon.=104.354408, Alt.=80.864319m. Speed=0.000000m/h.</desc>
<speed>0.000000</speed>
</trkpt>
<trkpt lat="22.167177" lon="104.354408">
<ele>80.877991</ele>
<time>2011-04-27T08:43:16Z</time>
<desc>lat.=22.167177, lon.=104.354408, Alt.=80.877991m. Speed=0.036000m/h.</desc>
<speed>0.010000</speed>
</trkpt>
<trkpt lat="22.167179" lon="104.354408">
<ele>80.899475</ele>
<time>2011-04-27T08:43:21Z</time>
<desc>lat.=22.167179, lon.=104.354408, Alt.=80.899475m. Speed=0.036000m/h.</desc>
<speed>0.010000</speed>
</trkpt>
<trkpt lat="22.167179" lon="104.354408">
<ele>80.928772</ele>
<time>2011-04-27T08:43:26Z</time>
<desc>lat.=22.167179, lon.=104.354408, Alt.=80.928772m. Speed=0.000000m/h.</desc>
<speed>0.000000</speed>
</trkpt>
<trkpt lat="22.167179" lon="104.354408">
<ele>80.999084</ele>
<time>2011-04-27T08:43:31Z</time>
<desc>lat.=22.167179, lon.=104.354408, Alt.=80.999084m. Speed=0.036000m/h.</desc>
<speed>0.010000</speed>
</trkpt>
<trkpt lat="22.167179" lon="104.354408">
<ele>81.086975</ele>
<time>2011-04-27T08:43:36Z</time>
<desc>lat.=22.167179, lon.=104.354408, Alt.=81.086975m. Speed=0.000000m/h.</desc>
<speed>0.000000</speed>
</trkpt>
<trkpt lat="22.167181" lon="104.354408">
<ele>81.135803</ele>
<time>2011-04-27T08:43:41Z</time>
<desc>lat.=22.167181, lon.=104.354408, Alt.=81.135803m. Speed=0.000000m/h.</desc>
<speed>0.000000</speed>
</trkpt>
<trkpt lat="22.167181" lon="104.354408">
<ele>81.204163</ele>
<time>2011-04-27T08:43:46Z</time>
<desc>lat.=22.167181, lon.=104.354408, Alt.=81.204163m. Speed=0.036000m/h.</desc>
<speed>0.010000</speed>
</trkpt>
<trkpt lat="22.167181" lon="104.354408">
<ele>81.307678</ele>
<time>2011-04-27T08:43:51Z</time>
<desc>lat.=22.167181, lon.=104.354408, Alt.=81.307678m. Speed=0.072000m/h.</desc>
<speed>0.020000</speed>
</trkpt>
<trkpt lat="22.167181" lon="104.354408">
<ele>81.434631</ele>
<time>2011-04-27T08:43:56Z</time>
<desc>lat.=22.167181, lon.=104.354408, Alt.=81.434631m. Speed=0.036000m/h.</desc>
<speed>0.010000</speed>
</trkpt>
<trkpt lat="22.167183" lon="104.354408">
<ele>81.575256</ele>
<time>2011-04-27T08:44:01Z</time>
<desc>lat.=22.167183, lon.=104.354408, Alt.=81.575256m. Speed=0.072000m/h.</desc>
<speed>0.020000</speed>
</trkpt>
<trkpt lat="22.167183" lon="104.354408">
<ele>81.706116</ele>
<time>2011-04-27T08:44:06Z</time>
<desc>lat.=22.167183, lon.=104.354408, Alt.=81.706116m. Speed=0.072000m/h.</desc>
<speed>0.020000</speed>
</trkpt>
<trkpt lat="22.167185" lon="104.354408">
<ele>81.842834</ele>
<time>2011-04-27T08:44:11Z</time>
<desc>lat.=22.167185, lon.=104.354408, Alt.=81.842834m. Speed=0.036000m/h.</desc>
<speed>0.010000</speed>
</trkpt>
<trkpt lat="22.167185" lon="104.354408">
<ele>81.975647</ele>
<time>2011-04-27T08:44:16Z</time>
<desc>lat.=22.167185, lon.=104.354408, Alt.=81.975647m. Speed=0.072000m/h.</desc>
<speed>0.020000</speed>
</trkpt>
<trkpt lat="22.167185" lon="104.354408">
<ele>82.104553</ele>
<time>2011-04-27T08:44:21Z</time>
<desc>lat.=22.167185, lon.=104.354408, Alt.=82.104553m. Speed=0.072000m/h.</desc>
<speed>0.020000</speed>
</trkpt>
<trkpt lat="22.167187" lon="104.354408">
<ele>82.231506</ele>
<time>2011-04-27T08:44:26Z</time>
<desc>lat.=22.167187, lon.=104.354408, Alt.=82.231506m. Speed=0.072000m/h.</desc>
<speed>0.020000</speed>
</trkpt>
<trkpt lat="22.167187" lon="104.354408">
<ele>82.362366</ele>
<time>2011-04-27T08:44:31Z</time>
<desc>lat.=22.167187, lon.=104.354408, Alt.=82.362366m. Speed=0.072000m/h.</desc>
<speed>0.020000</speed>
</trkpt>
<trkpt lat="22.167189" lon="104.354416">
<ele>82.493225</ele>
<time>2011-04-27T08:44:36Z</time>
<desc>lat.=22.167189, lon.=104.354416, Alt.=82.493225m. Speed=0.036000m/h.</desc>
<speed>0.010000</speed>
</trkpt>
<trkpt lat="22.167189" lon="104.354416">
<ele>82.631897</ele>
<time>2011-04-27T08:44:41Z</time>
<desc>lat.=22.167189, lon.=104.354416, Alt.=82.631897m. Speed=0.036000m/h.</desc>
<speed>0.010000</speed>
</trkpt>
<trkpt lat="22.167189" lon="104.354416">
<ele>82.752991</ele>
<time>2011-04-27T08:44:46Z</time>
<desc>lat.=22.167189, lon.=104.354416, Alt.=82.752991m. Speed=0.036000m/h.</desc>
<speed>0.010000</speed>
</trkpt>
<trkpt lat="22.167191" lon="104.354416">
<ele>82.874084</ele>
<time>2011-04-27T08:44:51Z</time>
<desc>lat.=22.167191, lon.=104.354416, Alt.=82.874084m. Speed=0.036000m/h.</desc>
<speed>0.010000</speed>
</trkpt>
<trkpt lat="22.167191" lon="104.354416">
<ele>83.001038</ele>
<time>2011-04-27T08:44:56Z</time>
<desc>lat.=22.167191, lon.=104.354416, Alt.=83.001038m. Speed=0.036000m/h.</desc>
<speed>0.010000</speed>
</trkpt>
<trkpt lat="22.167191" lon="104.354416">
<ele>83.102600</ele>
<time>2011-04-27T08:45:01Z</time>
<desc>lat.=22.167191, lon.=104.354416, Alt.=83.102600m. Speed=0.072000m/h.</desc>
<speed>0.020000</speed>
</trkpt>
<trkpt lat="22.167191" lon="104.354416">
<ele>83.169006</ele>
<time>2011-04-27T08:45:06Z</time>
<desc>lat.=22.167191, lon.=104.354416, Alt.=83.169006m. Speed=0.036000m/h.</desc>
<speed>0.010000</speed>
</trkpt>
<trkpt lat="22.167192" lon="104.354416">
<ele>83.227600</ele>
<time>2011-04-27T08:45:11Z</time>
<desc>lat.=22.167192, lon.=104.354416, Alt.=83.227600m. Speed=0.036000m/h.</desc>
<speed>0.010000</speed>
</trkpt>
<trkpt lat="22.167192" lon="104.354416">
<ele>83.284241</ele>
<time>2011-04-27T08:45:16Z</time>
<desc>lat.=22.167192, lon.=104.354416, Alt.=83.284241m. Speed=0.036000m/h.</desc>
<speed>0.010000</speed>
</trkpt>
<trkpt lat="22.167194" lon="104.354416">
<ele>83.340881</ele>
<time>2011-04-27T08:45:21Z</time>
<desc>lat.=22.167194, lon.=104.354416, Alt.=83.340881m. Speed=0.036000m/h.</desc>
<speed>0.010000</speed>
</trkpt>
<trkpt lat="22.167194" lon="104.354416">
<ele>83.395569</ele>
<time>2011-04-27T08:45:26Z</time>
<desc>lat.=22.167194, lon.=104.354416, Alt.=83.395569m. Speed=0.036000m/h.</desc>
<speed>0.010000</speed>
</trkpt>
<trkpt lat="22.167194" lon="104.354416">
<ele>83.458069</ele>
<time>2011-04-27T08:45:31Z</time>
<desc>lat.=22.167194, lon.=104.354416, Alt.=83.458069m. Speed=0.036000m/h.</desc>
<speed>0.010000</speed>
</trkpt>
<trkpt lat="22.167194" lon="104.354416">
<ele>83.528381</ele>
<time>2011-04-27T08:45:36Z</time>
<desc>lat.=22.167194, lon.=104.354416, Alt.=83.528381m. Speed=0.072000m/h.</desc>
<speed>0.020000</speed>
</trkpt>
<trkpt lat="22.167194" lon="104.354416">
<ele>83.618225</ele>
<time>2011-04-27T08:45:41Z</time>
<desc>lat.=22.167194, lon.=104.354416, Alt.=83.618225m. Speed=0.072000m/h.</desc>
<speed>0.020000</speed>
</trkpt>
<trkpt lat="22.167194" lon="104.354416">
<ele>83.710022</ele>
<time>2011-04-27T08:45:46Z</time>
<desc>lat.=22.167194, lon.=104.354416, Alt.=83.710022m. Speed=0.072000m/h.</desc>
<speed>0.020000</speed>
</trkpt>
<trkpt lat="22.167194" lon="104.354424">
<ele>83.801819</ele>
<time>2011-04-27T08:45:51Z</time>
<desc>lat.=22.167194, lon.=104.354424, Alt.=83.801819m. Speed=0.144000m/h.</desc>
<speed>0.040000</speed>
</trkpt>
<trkpt lat="22.167192" lon="104.354424">
<ele>83.885803</ele>
<time>2011-04-27T08:45:56Z</time>
<desc>lat.=22.167192, lon.=104.354424, Alt.=83.885803m. Speed=0.108000m/h.</desc>
<speed>0.030000</speed>
</trkpt>
<trkpt lat="22.167192" lon="104.354424">
<ele>83.963928</ele>
<time>2011-04-27T08:46:01Z</time>
<desc>lat.=22.167192, lon.=104.354424, Alt.=83.963928m. Speed=0.000000m/h.</desc>
<speed>0.000000</speed>
</trkpt>
<trkpt lat="22.167194" lon="104.354424">
<ele>84.044006</ele>
<time>2011-04-27T08:46:06Z</time>
<desc>lat.=22.167194, lon.=104.354424, Alt.=84.044006m. Speed=0.036000m/h.</desc>
<speed>0.010000</speed>
</trkpt>
<trkpt lat="22.167194" lon="104.354424">
<ele>84.124084</ele>
<time>2011-04-27T08:46:11Z</time>
<desc>lat.=22.167194, lon.=104.354424, Alt.=84.124084m. Speed=0.000000m/h.</desc>
<speed>0.000000</speed>
</trkpt>
<trkpt lat="22.167194" lon="104.354424">
<ele>84.204163</ele>
<time>2011-04-27T08:46:16Z</time>
<desc>lat.=22.167194, lon.=104.354424, Alt.=84.204163m. Speed=0.036000m/h.</desc>
<speed>0.010000</speed>
</trkpt>
<trkpt lat="22.167194" lon="104.354424">
<ele>84.286194</ele>
<time>2011-04-27T08:46:21Z</time>
<desc>lat.=22.167194, lon.=104.354424, Alt.=84.286194m. Speed=0.036000m/h.</desc>
<speed>0.010000</speed>
</trkpt>
<trkpt lat="22.167194" lon="104.354424">
<ele>84.377991</ele>
<time>2011-04-27T08:46:26Z</time>
<desc>lat.=22.167194, lon.=104.354424, Alt.=84.377991m. Speed=0.036000m/h.</desc>
<speed>0.010000</speed>
</trkpt>
<trkpt lat="22.167196" lon="104.354424">
<ele>84.487366</ele>
<time>2011-04-27T08:46:31Z</time>
<desc>lat.=22.167196, lon.=104.354424, Alt.=84.487366m. Speed=0.036000m/h.</desc>
<speed>0.010000</speed>
</trkpt>
<trkpt lat="22.167196" lon="104.354424">
<ele>84.612366</ele>
<time>2011-04-27T08:46:36Z</time>
<desc>lat.=22.167196, lon.=104.354424, Alt.=84.612366m. Speed=0.072000m/h.</desc>
<speed>0.020000</speed>
</trkpt>
<trkpt lat="22.167196" lon="104.354431">
<ele>84.731506</ele>
<time>2011-04-27T08:46:41Z</time>
<desc>lat.=22.167196, lon.=104.354431, Alt.=84.731506m. Speed=0.036000m/h.</desc>
<speed>0.010000</speed>
</trkpt>
<trkpt lat="22.167196" lon="104.354431">
<ele>84.852600</ele>
<time>2011-04-27T08:46:46Z</time>
<desc>lat.=22.167196, lon.=104.354431, Alt.=84.852600m. Speed=0.000000m/h.</desc>
<speed>0.000000</speed>
</trkpt>
<trkpt lat="22.167196" lon="104.354431">
<ele>84.973694</ele>
<time>2011-04-27T08:46:51Z</time>
<desc>lat.=22.167196, lon.=104.354431, Alt.=84.973694m. Speed=0.072000m/h.</desc>
<speed>0.020000</speed>
</trkpt>
<trkpt lat="22.167196" lon="104.354431">
<ele>85.110413</ele>
<time>2011-04-27T08:46:56Z</time>
<desc>lat.=22.167196, lon.=104.354431, Alt.=85.110413m. Speed=0.072000m/h.</desc>
<speed>0.020000</speed>
</trkpt>
<trkpt lat="22.167196" lon="104.354431">
<ele>85.141663</ele>
<time>2011-04-27T08:47:01Z</time>
<desc>lat.=22.167196, lon.=104.354431, Alt.=85.141663m. Speed=0.036000m/h.</desc>
<speed>0.010000</speed>
</trkpt>
<trkpt lat="22.167196" lon="104.354431">
<ele>85.147522</ele>
<time>2011-04-27T08:47:06Z</time>
<desc>lat.=22.167196, lon.=104.354431, Alt.=85.147522m. Speed=0.000000m/h.</desc>
<speed>0.000000</speed>
</trkpt>
<trkpt lat="22.167196" lon="104.354431">
<ele>85.151428</ele>
<time>2011-04-27T08:47:11Z</time>
<desc>lat.=22.167196, lon.=104.354431, Alt.=85.151428m. Speed=0.036000m/h.</desc>
<speed>0.010000</speed>
</trkpt>
<trkpt lat="22.167198" lon="104.354431">
<ele>85.151428</ele>
<time>2011-04-27T08:47:16Z</time>
<desc>lat.=22.167198, lon.=104.354431, Alt.=85.151428m. Speed=0.144000m/h.</desc>
<speed>0.040000</speed>
</trkpt>
<trkpt lat="22.167198" lon="104.354431">
<ele>85.145569</ele>
<time>2011-04-27T08:47:21Z</time>
<desc>lat.=22.167198, lon.=104.354431, Alt.=85.145569m. Speed=0.000000m/h.</desc>
<speed>0.000000</speed>
</trkpt>
<trkpt lat="22.167198" lon="104.354431">
<ele>85.139709</ele>
<time>2011-04-27T08:47:26Z</time>
<desc>lat.=22.167198, lon.=104.354431, Alt.=85.139709m. Speed=0.000000m/h.</desc>
<speed>0.000000</speed>
</trkpt>
<trkpt lat="22.167198" lon="104.354431">
<ele>85.133850</ele>
<time>2011-04-27T08:47:31Z</time>
<desc>lat.=22.167198, lon.=104.354431, Alt.=85.133850m. Speed=0.000000m/h.</desc>
<speed>0.000000</speed>
</trkpt>
<trkpt lat="22.167198" lon="104.354431">
<ele>85.155334</ele>
<time>2011-04-27T08:47:36Z</time>
<desc>lat.=22.167198, lon.=104.354431, Alt.=85.155334m. Speed=0.036000m/h.</desc>
<speed>0.010000</speed>
</trkpt>
<trkpt lat="22.167198" lon="104.354431">
<ele>85.180725</ele>
<time>2011-04-27T08:47:41Z</time>
<desc>lat.=22.167198, lon.=104.354431, Alt.=85.180725m. Speed=0.000000m/h.</desc>
<speed>0.000000</speed>
</trkpt>
<trkpt lat="22.167196" lon="104.354431">
<ele>85.211975</ele>
<time>2011-04-27T08:47:46Z</time>
<desc>lat.=22.167196, lon.=104.354431, Alt.=85.211975m. Speed=0.036000m/h.</desc>
<speed>0.010000</speed>
</trkpt>
<trkpt lat="22.167196" lon="104.354431">
<ele>85.241272</ele>
<time>2011-04-27T08:47:51Z</time>
<desc>lat.=22.167196, lon.=104.354431, Alt.=85.241272m. Speed=0.000000m/h.</desc>
<speed>0.000000</speed>
</trkpt>
<trkpt lat="22.167198" lon="104.354431">
<ele>85.266663</ele>
<time>2011-04-27T08:47:56Z</time>
<desc>lat.=22.167198, lon.=104.354431, Alt.=85.266663m. Speed=0.000000m/h.</desc>
<speed>0.000000</speed>
</trkpt>
<trkpt lat="22.167198" lon="104.354431">
<ele>85.299866</ele>
<time>2011-04-27T08:48:01Z</time>
<desc>lat.=22.167198, lon.=104.354431, Alt.=85.299866m. Speed=0.036000m/h.</desc>
<speed>0.010000</speed>
</trkpt>
<trkpt lat="22.167198" lon="104.354431">
<ele>85.335022</ele>
<time>2011-04-27T08:48:06Z</time>
<desc>lat.=22.167198, lon.=104.354431, Alt.=85.335022m. Speed=0.036000m/h.</desc>
<speed>0.010000</speed>
</trkpt>
<trkpt lat="22.167196" lon="104.354439">
<ele>85.379944</ele>
<time>2011-04-27T08:48:11Z</time>
<desc>lat.=22.167196, lon.=104.354439, Alt.=85.379944m. Speed=0.000000m/h.</desc>
<speed>0.000000</speed>
</trkpt>
<trkpt lat="22.167198" lon="104.354439">
<ele>85.397522</ele>
<time>2011-04-27T08:48:16Z</time>
<desc>lat.=22.167198, lon.=104.354439, Alt.=85.397522m. Speed=0.036000m/h.</desc>
<speed>0.010000</speed>
</trkpt>
<trkpt lat="22.167196" lon="104.354439">
<ele>85.397522</ele>
<time>2011-04-27T08:48:21Z</time>
<desc>lat.=22.167196, lon.=104.354439, Alt.=85.397522m. Speed=0.036000m/h.</desc>
<speed>0.010000</speed>
</trkpt>
<trkpt lat="22.167196" lon="104.354439">
<ele>85.377991</ele>
<time>2011-04-27T08:48:26Z</time>
<desc>lat.=22.167196, lon.=104.354439, Alt.=85.377991m. Speed=0.036000m/h.</desc>
<speed>0.010000</speed>
</trkpt>
<trkpt lat="22.167196" lon="104.354439">
<ele>85.358459</ele>
<time>2011-04-27T08:48:31Z</time>
<desc>lat.=22.167196, lon.=104.354439, Alt.=85.358459m. Speed=0.036000m/h.</desc>
<speed>0.010000</speed>
</trkpt>
<trkpt lat="22.167196" lon="104.354439">
<ele>85.338928</ele>
<time>2011-04-27T08:48:36Z</time>
<desc>lat.=22.167196, lon.=104.354439, Alt.=85.338928m. Speed=0.036000m/h.</desc>
<speed>0.010000</speed>
</trkpt>
<trkpt lat="22.167194" lon="104.354439">
<ele>85.321350</ele>
<time>2011-04-27T08:48:41Z</time>
<desc>lat.=22.167194, lon.=104.354439, Alt.=85.321350m. Speed=0.036000m/h.</desc>
<speed>0.010000</speed>
</trkpt>
<trkpt lat="22.167194" lon="104.354439">
<ele>85.338928</ele>
<time>2011-04-27T08:48:46Z</time>
<desc>lat.=22.167194, lon.=104.354439, Alt.=85.338928m. Speed=0.036000m/h.</desc>
<speed>0.010000</speed>
</trkpt>
<trkpt lat="22.167194" lon="104.354439">
<ele>85.399475</ele>
<time>2011-04-27T08:48:51Z</time>
<desc>lat.=22.167194, lon.=104.354439, Alt.=85.399475m. Speed=0.108000m/h.</desc>
<speed>0.030000</speed>
</trkpt>
<trkpt lat="22.167194" lon="104.354439">
<ele>85.473694</ele>
<time>2011-04-27T08:48:56Z</time>
<desc>lat.=22.167194, lon.=104.354439, Alt.=85.473694m. Speed=0.036000m/h.</desc>
<speed>0.010000</speed>
</trkpt>
<trkpt lat="22.167194" lon="104.354439">
<ele>85.528381</ele>
<time>2011-04-27T08:49:01Z</time>
<desc>lat.=22.167194, lon.=104.354439, Alt.=85.528381m. Speed=0.000000m/h.</desc>
<speed>0.000000</speed>
</trkpt>
<trkpt lat="22.167194" lon="104.354439">
<ele>85.540100</ele>
<time>2011-04-27T08:49:06Z</time>
<desc>lat.=22.167194, lon.=104.354439, Alt.=85.540100m. Speed=0.000000m/h.</desc>
<speed>0.000000</speed>
</trkpt>
<trkpt lat="22.167196" lon="104.354439">
<ele>85.549866</ele>
<time>2011-04-27T08:49:11Z</time>
<desc>lat.=22.167196, lon.=104.354439, Alt.=85.549866m. Speed=0.000000m/h.</desc>
<speed>0.000000</speed>
</trkpt>
<trkpt lat="22.167194" lon="104.354439">
<ele>85.534241</ele>
<time>2011-04-27T08:49:16Z</time>
<desc>lat.=22.167194, lon.=104.354439, Alt.=85.534241m. Speed=0.000000m/h.</desc>
<speed>0.000000</speed>
</trkpt>
<trkpt lat="22.167196" lon="104.354439">
<ele>85.520569</ele>
<time>2011-04-27T08:49:21Z</time>
<desc>lat.=22.167196, lon.=104.354439, Alt.=85.520569m. Speed=0.000000m/h.</desc>
<speed>0.000000</speed>
</trkpt>
<trkpt lat="22.167196" lon="104.354439">
<ele>85.510803</ele>
<time>2011-04-27T08:49:26Z</time>
<desc>lat.=22.167196, lon.=104.354439, Alt.=85.510803m. Speed=0.000000m/h.</desc>
<speed>0.000000</speed>
</trkpt>
<trkpt lat="22.167196" lon="104.354439">
<ele>85.501038</ele>
<time>2011-04-27T08:49:31Z</time>
<desc>lat.=22.167196, lon.=104.354439, Alt.=85.501038m. Speed=0.000000m/h.</desc>
<speed>0.000000</speed>
</trkpt>
<trkpt lat="22.167196" lon="104.354439">
<ele>85.497131</ele>
<time>2011-04-27T08:49:36Z</time>
<desc>lat.=22.167196, lon.=104.354439, Alt.=85.497131m. Speed=0.000000m/h.</desc>
<speed>0.000000</speed>
</trkpt>
<trkpt lat="22.167196" lon="104.354439">
<ele>85.491272</ele>
<time>2011-04-27T08:49:41Z</time>
<desc>lat.=22.167196, lon.=104.354439, Alt.=85.491272m. Speed=0.036000m/h.</desc>
<speed>0.010000</speed>
</trkpt>
<trkpt lat="22.167196" lon="104.354439">
<ele>85.481506</ele>
<time>2011-04-27T08:49:46Z</time>
<desc>lat.=22.167196, lon.=104.354439, Alt.=85.481506m. Speed=0.000000m/h.</desc>
<speed>0.000000</speed>
</trkpt>
<trkpt lat="22.167196" lon="104.354439">
<ele>85.481506</ele>
<time>2011-04-27T08:49:51Z</time>
<desc>lat.=22.167196, lon.=104.354439, Alt.=85.481506m. Speed=0.000000m/h.</desc>
<speed>0.000000</speed>
</trkpt>
<trkpt lat="22.167196" lon="104.354439">
<ele>85.481506</ele>
<time>2011-04-27T08:49:56Z</time>
<desc>lat.=22.167196, lon.=104.354439, Alt.=85.481506m. Speed=0.036000m/h.</desc>
<speed>0.010000</speed>
</trkpt>
<trkpt lat="22.167196" lon="104.354439">
<ele>85.471741</ele>
<time>2011-04-27T08:50:01Z</time>
<desc>lat.=22.167196, lon.=104.354439, Alt.=85.471741m. Speed=0.000000m/h.</desc>
<speed>0.000000</speed>
</trkpt>
<trkpt lat="22.167196" lon="104.354439">
<ele>85.471741</ele>
<time>2011-04-27T08:50:06Z</time>
<desc>lat.=22.167196, lon.=104.354439, Alt.=85.471741m. Speed=0.000000m/h.</desc>
<speed>0.000000</speed>
</trkpt>
<trkpt lat="22.167196" lon="104.354439">
<ele>85.469788</ele>
<time>2011-04-27T08:50:11Z</time>
<desc>lat.=22.167196, lon.=104.354439, Alt.=85.469788m. Speed=0.000000m/h.</desc>
<speed>0.000000</speed>
</trkpt>
<trkpt lat="22.167196" lon="104.354439">
<ele>85.458069</ele>
<time>2011-04-27T08:50:16Z</time>
<desc>lat.=22.167196, lon.=104.354439, Alt.=85.458069m. Speed=0.000000m/h.</desc>
<speed>0.000000</speed>
</trkpt>
<trkpt lat="22.167196" lon="104.354439">
<ele>85.444397</ele>
<time>2011-04-27T08:50:21Z</time>
<desc>lat.=22.167196, lon.=104.354439, Alt.=85.444397m. Speed=0.000000m/h.</desc>
<speed>0.000000</speed>
</trkpt>
<trkpt lat="22.167196" lon="104.354439">
<ele>85.428772</ele>
<time>2011-04-27T08:50:26Z</time>
<desc>lat.=22.167196, lon.=104.354439, Alt.=85.428772m. Speed=0.000000m/h.</desc>
<speed>0.000000</speed>
</trkpt>
<trkpt lat="22.167196" lon="104.354439">
<ele>85.420959</ele>
<time>2011-04-27T08:50:31Z</time>
<desc>lat.=22.167196, lon.=104.354439, Alt.=85.420959m. Speed=0.072000m/h.</desc>
<speed>0.020000</speed>
</trkpt>
<trkpt lat="22.167194" lon="104.354439">
<ele>85.401428</ele>
<time>2011-04-27T08:50:36Z</time>
<desc>lat.=22.167194, lon.=104.354439, Alt.=85.401428m. Speed=0.000000m/h.</desc>
<speed>0.000000</speed>
</trkpt>
<trkpt lat="22.167194" lon="104.354439">
<ele>85.385803</ele>
<time>2011-04-27T08:50:41Z</time>
<desc>lat.=22.167194, lon.=104.354439, Alt.=85.385803m. Speed=0.036000m/h.</desc>
<speed>0.010000</speed>
</trkpt>
<trkpt lat="22.167194" lon="104.354439">
<ele>85.368225</ele>
<time>2011-04-27T08:50:46Z</time>
<desc>lat.=22.167194, lon.=104.354439, Alt.=85.368225m. Speed=0.036000m/h.</desc>
<speed>0.010000</speed>
</trkpt>
<trkpt lat="22.167194" lon="104.354439">
<ele>85.340881</ele>
<time>2011-04-27T08:50:51Z</time>
<desc>lat.=22.167194, lon.=104.354439, Alt.=85.340881m. Speed=0.036000m/h.</desc>
<speed>0.010000</speed>
</trkpt>
<trkpt lat="22.167194" lon="104.354439">
<ele>85.303772</ele>
<time>2011-04-27T08:50:56Z</time>
<desc>lat.=22.167194, lon.=104.354439, Alt.=85.303772m. Speed=0.036000m/h.</desc>
<speed>0.010000</speed>
</trkpt>
<trkpt lat="22.167194" lon="104.354439">
<ele>85.264709</ele>
<time>2011-04-27T08:51:01Z</time>
<desc>lat.=22.167194, lon.=104.354439, Alt.=85.264709m. Speed=0.072000m/h.</desc>
<speed>0.020000</speed>
</trkpt>
<trkpt lat="22.167194" lon="104.354439">
<ele>85.233459</ele>
<time>2011-04-27T08:51:06Z</time>
<desc>lat.=22.167194, lon.=104.354439, Alt.=85.233459m. Speed=0.000000m/h.</desc>
<speed>0.000000</speed>
</trkpt>
<trkpt lat="22.167196" lon="104.354439">
<ele>85.213928</ele>
<time>2011-04-27T08:51:11Z</time>
<desc>lat.=22.167196, lon.=104.354439, Alt.=85.213928m. Speed=0.036000m/h.</desc>
<speed>0.010000</speed>
</trkpt>
<trkpt lat="22.167196" lon="104.354439">
<ele>85.200256</ele>
<time>2011-04-27T08:51:16Z</time>
<desc>lat.=22.167196, lon.=104.354439, Alt.=85.200256m. Speed=0.036000m/h.</desc>
<speed>0.010000</speed>
</trkpt>
<trkpt lat="22.167196" lon="104.354439">
<ele>85.180725</ele>
<time>2011-04-27T08:51:21Z</time>
<desc>lat.=22.167196, lon.=104.354439, Alt.=85.180725m. Speed=0.036000m/h.</desc>
<speed>0.010000</speed>
</trkpt>
<trkpt lat="22.167196" lon="104.354439">
<ele>85.145569</ele>
<time>2011-04-27T08:51:26Z</time>
<desc>lat.=22.167196, lon.=104.354439, Alt.=85.145569m. Speed=0.036000m/h.</desc>
<speed>0.010000</speed>
</trkpt>
<trkpt lat="22.167196" lon="104.354439">
<ele>85.127991</ele>
<time>2011-04-27T08:51:31Z</time>
<desc>lat.=22.167196, lon.=104.354439, Alt.=85.127991m. Speed=0.000000m/h.</desc>
<speed>0.000000</speed>
</trkpt>
<trkpt lat="22.167196" lon="104.354439">
<ele>85.118225</ele>
<time>2011-04-27T08:51:36Z</time>
<desc>lat.=22.167196, lon.=104.354439, Alt.=85.118225m. Speed=0.072000m/h.</desc>
<speed>0.020000</speed>
</trkpt>
<trkpt lat="22.167196" lon="104.354439">
<ele>85.106506</ele>
<time>2011-04-27T08:51:41Z</time>
<desc>lat.=22.167196, lon.=104.354439, Alt.=85.106506m. Speed=0.000000m/h.</desc>
<speed>0.000000</speed>
</trkpt>
<trkpt lat="22.167196" lon="104.354439">
<ele>85.094788</ele>
<time>2011-04-27T08:51:46Z</time>
<desc>lat.=22.167196, lon.=104.354439, Alt.=85.094788m. Speed=0.036000m/h.</desc>
<speed>0.010000</speed>
</trkpt>
<trkpt lat="22.167196" lon="104.354439">
<ele>85.073303</ele>
<time>2011-04-27T08:51:51Z</time>
<desc>lat.=22.167196, lon.=104.354439, Alt.=85.073303m. Speed=0.000000m/h.</desc>
<speed>0.000000</speed>
</trkpt>
<trkpt lat="22.167196" lon="104.354439">
<ele>85.036194</ele>
<time>2011-04-27T08:51:56Z</time>
<desc>lat.=22.167196, lon.=104.354439, Alt.=85.036194m. Speed=0.000000m/h.</desc>
<speed>0.000000</speed>
</trkpt>
<trkpt lat="22.167196" lon="104.354439">
<ele>85.012756</ele>
<time>2011-04-27T08:52:01Z</time>
<desc>lat.=22.167196, lon.=104.354439, Alt.=85.012756m. Speed=0.000000m/h.</desc>
<speed>0.000000</speed>
</trkpt>
<trkpt lat="22.167196" lon="104.354439">
<ele>84.969788</ele>
<time>2011-04-27T08:52:06Z</time>
<desc>lat.=22.167196, lon.=104.354439, Alt.=84.969788m. Speed=0.036000m/h.</desc>
<speed>0.010000</speed>
</trkpt>
<trkpt lat="22.167196" lon="104.354439">
<ele>84.961975</ele>
<time>2011-04-27T08:52:11Z</time>
<desc>lat.=22.167196, lon.=104.354439, Alt.=84.961975m. Speed=0.036000m/h.</desc>
<speed>0.010000</speed>
</trkpt>
<trkpt lat="22.167196" lon="104.354439">
<ele>84.956116</ele>
<time>2011-04-27T08:52:16Z</time>
<desc>lat.=22.167196, lon.=104.354439, Alt.=84.956116m. Speed=0.000000m/h.</desc>
<speed>0.000000</speed>
</trkpt>
<trkpt lat="22.167194" lon="104.354439">
<ele>84.936584</ele>
<time>2011-04-27T08:52:21Z</time>
<desc>lat.=22.167194, lon.=104.354439, Alt.=84.936584m. Speed=0.036000m/h.</desc>
<speed>0.010000</speed>
</trkpt>
<trkpt lat="22.167196" lon="104.354431">
<ele>84.827209</ele>
<time>2011-04-27T08:52:26Z</time>
<desc>lat.=22.167196, lon.=104.354431, Alt.=84.827209m. Speed=0.288000m/h.</desc>
<speed>0.080000</speed>
</trkpt>
<trkpt lat="22.167198" lon="104.354431">
<ele>84.616272</ele>
<time>2011-04-27T08:52:31Z</time>
<desc>lat.=22.167198, lon.=104.354431, Alt.=84.616272m. Speed=0.072000m/h.</desc>
<speed>0.020000</speed>
</trkpt>
<trkpt lat="22.167192" lon="104.354431">
<ele>84.489319</ele>
<time>2011-04-27T08:52:36Z</time>
<desc>lat.=22.167192, lon.=104.354431, Alt.=84.489319m. Speed=1.080000m/h.</desc>
<speed>0.300000</speed>
</trkpt>
<trkpt lat="22.167185" lon="104.354431">
<ele>84.624084</ele>
<time>2011-04-27T08:52:41Z</time>
<desc>lat.=22.167185, lon.=104.354431, Alt.=84.624084m. Speed=0.252000m/h.</desc>
<speed>0.070000</speed>
</trkpt>
<trkpt lat="22.167187" lon="104.354431">
<ele>84.583069</ele>
<time>2011-04-27T08:52:46Z</time>
<desc>lat.=22.167187, lon.=104.354431, Alt.=84.583069m. Speed=0.396000m/h.</desc>
<speed>0.110000</speed>
</trkpt>
<trkpt lat="22.167192" lon="104.354431">
<ele>84.493225</ele>
<time>2011-04-27T08:52:51Z</time>
<desc>lat.=22.167192, lon.=104.354431, Alt.=84.493225m. Speed=0.432000m/h.</desc>
<speed>0.120000</speed>
</trkpt>
<trkpt lat="22.167198" lon="104.354431">
<ele>84.438538</ele>
<time>2011-04-27T08:52:56Z</time>
<desc>lat.=22.167198, lon.=104.354431, Alt.=84.438538m. Speed=0.360000m/h.</desc>
<speed>0.100000</speed>
</trkpt>
<trkpt lat="22.167200" lon="104.354424">
<ele>84.323303</ele>
<time>2011-04-27T08:53:01Z</time>
<desc>lat.=22.167200, lon.=104.354424, Alt.=84.323303m. Speed=0.324000m/h.</desc>
<speed>0.090000</speed>
</trkpt>
<trkpt lat="22.167179" lon="104.354477">
<ele>83.704163</ele>
<time>2011-04-27T08:53:06Z</time>
<desc>lat.=22.167179, lon.=104.354477, Alt.=83.704163m. Speed=6.012000m/h.</desc>
<speed>1.670000</speed>
</trkpt>
<trkpt lat="22.167295" lon="104.354553">
<ele>81.735413</ele>
<time>2011-04-27T08:53:11Z</time>
<desc>lat.=22.167295, lon.=104.354553, Alt.=81.735413m. Speed=8.496000m/h.</desc>
<speed>2.360000</speed>
</trkpt>
<trkpt lat="22.167347" lon="104.354599">
<ele>81.524475</ele>
<time>2011-04-27T08:53:16Z</time>
<desc>lat.=22.167347, lon.=104.354599, Alt.=81.524475m. Speed=1.656000m/h.</desc>
<speed>0.460000</speed>
</trkpt>
<trkpt lat="22.167349" lon="104.354591">
<ele>81.204163</ele>
<time>2011-04-27T08:53:21Z</time>
<desc>lat.=22.167349, lon.=104.354591, Alt.=81.204163m. Speed=0.936000m/h.</desc>
<speed>0.260000</speed>
</trkpt>
<trkpt lat="22.167423" lon="104.354614">
<ele>81.251038</ele>
<time>2011-04-27T08:53:26Z</time>
<desc>lat.=22.167423, lon.=104.354614, Alt.=81.251038m. Speed=3.672000m/h.</desc>
<speed>1.020000</speed>
</trkpt>
<trkpt lat="22.167486" lon="104.354668">
<ele>81.340881</ele>
<time>2011-04-27T08:53:31Z</time>
<desc>lat.=22.167486, lon.=104.354668, Alt.=81.340881m. Speed=4.968000m/h.</desc>
<speed>1.380000</speed>
</trkpt>
<trkpt lat="22.167583" lon="104.354744">
<ele>81.305725</ele>
<time>2011-04-27T08:53:36Z</time>
<desc>lat.=22.167583, lon.=104.354744, Alt.=81.305725m. Speed=5.832000m/h.</desc>
<speed>1.620000</speed>
</trkpt>
<trkpt lat="22.167658" lon="104.354820">
<ele>81.045959</ele>
<time>2011-04-27T08:53:41Z</time>
<desc>lat.=22.167658, lon.=104.354820, Alt.=81.045959m. Speed=12.204000m/h.</desc>
<speed>3.390000</speed>
</trkpt>
<trkpt lat="22.167770" lon="104.354996">
<ele>77.594788</ele>
<time>2011-04-27T08:53:46Z</time>
<desc>lat.=22.167770, lon.=104.354996, Alt.=77.594788m. Speed=12.384000m/h.</desc>
<speed>3.440000</speed>
</trkpt>
<trkpt lat="22.167906" lon="104.355118">
<ele>76.704163</ele>
<time>2011-04-27T08:53:51Z</time>
<desc>lat.=22.167906, lon.=104.355118, Alt.=76.704163m. Speed=11.988000m/h.</desc>
<speed>3.330000</speed>
</trkpt>
<trkpt lat="22.168024" lon="104.355232">
<ele>75.176819</ele>
<time>2011-04-27T08:53:56Z</time>
<desc>lat.=22.168024, lon.=104.355232, Alt.=75.176819m. Speed=11.952000m/h.</desc>
<speed>3.320000</speed>
</trkpt>
<trkpt lat="22.168034" lon="104.355362">
<ele>73.159241</ele>
<time>2011-04-27T08:54:01Z</time>
<desc>lat.=22.168034, lon.=104.355362, Alt.=73.159241m. Speed=8.964000m/h.</desc>
<speed>2.490000</speed>
</trkpt>
<trkpt lat="22.167978" lon="104.355438">
<ele>70.063538</ele>
<time>2011-04-27T08:54:06Z</time>
<desc>lat.=22.167978, lon.=104.355438, Alt.=70.063538m. Speed=4.464000m/h.</desc>
<speed>1.240000</speed>
</trkpt>
<trkpt lat="22.167952" lon="104.355438">
<ele>69.018616</ele>
<time>2011-04-27T08:54:11Z</time>
<desc>lat.=22.167952, lon.=104.355438, Alt.=69.018616m. Speed=1.512000m/h.</desc>
<speed>0.420000</speed>
</trkpt>
<trkpt lat="22.167942" lon="104.355438">
<ele>68.465881</ele>
<time>2011-04-27T08:54:16Z</time>
<desc>lat.=22.167942, lon.=104.355438, Alt.=68.465881m. Speed=1.008000m/h.</desc>
<speed>0.280000</speed>
</trkpt>
<trkpt lat="22.167933" lon="104.355438">
<ele>68.190491</ele>
<time>2011-04-27T08:54:21Z</time>
<desc>lat.=22.167933, lon.=104.355438, Alt.=68.190491m. Speed=1.188000m/h.</desc>
<speed>0.330000</speed>
</trkpt>
<trkpt lat="22.167921" lon="104.355438">
<ele>68.018616</ele>
<time>2011-04-27T08:54:26Z</time>
<desc>lat.=22.167921, lon.=104.355438, Alt.=68.018616m. Speed=0.684000m/h.</desc>
<speed>0.190000</speed>
</trkpt>
<trkpt lat="22.167917" lon="104.355438">
<ele>67.913147</ele>
<time>2011-04-27T08:54:31Z</time>
<desc>lat.=22.167917, lon.=104.355438, Alt.=67.913147m. Speed=0.108000m/h.</desc>
<speed>0.030000</speed>
</trkpt>
<trkpt lat="22.167921" lon="104.355438">
<ele>67.848694</ele>
<time>2011-04-27T08:54:36Z</time>
<desc>lat.=22.167921, lon.=104.355438, Alt.=67.848694m. Speed=0.360000m/h.</desc>
<speed>0.100000</speed>
</trkpt>
<trkpt lat="22.167925" lon="104.355431">
<ele>67.803772</ele>
<time>2011-04-27T08:54:41Z</time>
<desc>lat.=22.167925, lon.=104.355431, Alt.=67.803772m. Speed=0.108000m/h.</desc>
<speed>0.030000</speed>
</trkpt>
<trkpt lat="22.167925" lon="104.355431">
<ele>67.790100</ele>
<time>2011-04-27T08:54:46Z</time>
<desc>lat.=22.167925, lon.=104.355431, Alt.=67.790100m. Speed=0.216000m/h.</desc>
<speed>0.060000</speed>
</trkpt>
<trkpt lat="22.167923" lon="104.355438">
<ele>67.794006</ele>
<time>2011-04-27T08:54:51Z</time>
<desc>lat.=22.167923, lon.=104.355438, Alt.=67.794006m. Speed=0.792000m/h.</desc>
<speed>0.220000</speed>
</trkpt>
<trkpt lat="22.167921" lon="104.355446">
<ele>67.794006</ele>
<time>2011-04-27T08:54:56Z</time>
<desc>lat.=22.167921, lon.=104.355446, Alt.=67.794006m. Speed=0.504000m/h.</desc>
<speed>0.140000</speed>
</trkpt>
<trkpt lat="22.167925" lon="104.355446">
<ele>67.780334</ele>
<time>2011-04-27T08:55:01Z</time>
<desc>lat.=22.167925, lon.=104.355446, Alt.=67.780334m. Speed=0.576000m/h.</desc>
<speed>0.160000</speed>
</trkpt>
<trkpt lat="22.167925" lon="104.355438">
<ele>67.762756</ele>
<time>2011-04-27T08:55:06Z</time>
<desc>lat.=22.167925, lon.=104.355438, Alt.=67.762756m. Speed=0.324000m/h.</desc>
<speed>0.090000</speed>
</trkpt>
<trkpt lat="22.167921" lon="104.355446">
<ele>67.768616</ele>
<time>2011-04-27T08:55:11Z</time>
<desc>lat.=22.167921, lon.=104.355446, Alt.=67.768616m. Speed=0.540000m/h.</desc>
<speed>0.150000</speed>
</trkpt>
<trkpt lat="22.167925" lon="104.355453">
<ele>67.786194</ele>
<time>2011-04-27T08:55:16Z</time>
<desc>lat.=22.167925, lon.=104.355453, Alt.=67.786194m. Speed=0.504000m/h.</desc>
<speed>0.140000</speed>
</trkpt>
<trkpt lat="22.167957" lon="104.355461">
<ele>67.795959</ele>
<time>2011-04-27T08:55:21Z</time>
<desc>lat.=22.167957, lon.=104.355461, Alt.=67.795959m. Speed=12.816000m/h.</desc>
<speed>3.560000</speed>
</trkpt>
<trkpt lat="22.168144" lon="104.355438">
<ele>68.190491</ele>
<time>2011-04-27T08:55:26Z</time>
<desc>lat.=22.168144, lon.=104.355438, Alt.=68.190491m. Speed=15.804000m/h.</desc>
<speed>4.390000</speed>
</trkpt>
<trkpt lat="22.168310" lon="104.355545">
<ele>69.725647</ele>
<time>2011-04-27T08:55:31Z</time>
<desc>lat.=22.168310, lon.=104.355545, Alt.=69.725647m. Speed=14.796000m/h.</desc>
<speed>4.110000</speed>
</trkpt>
<trkpt lat="22.168459" lon="104.355614">
<ele>69.495178</ele>
<time>2011-04-27T08:55:36Z</time>
<desc>lat.=22.168459, lon.=104.355614, Alt.=69.495178m. Speed=11.124000m/h.</desc>
<speed>3.090000</speed>
</trkpt>
<trkpt lat="22.168648" lon="104.355682">
<ele>68.678772</ele>
<time>2011-04-27T08:55:41Z</time>
<desc>lat.=22.168648, lon.=104.355682, Alt.=68.678772m. Speed=10.764000m/h.</desc>
<speed>2.990000</speed>
</trkpt>
<trkpt lat="22.168747" lon="104.355721">
<ele>70.030334</ele>
<time>2011-04-27T08:55:46Z</time>
<desc>lat.=22.168747, lon.=104.355721, Alt.=70.030334m. Speed=7.848000m/h.</desc>
<speed>2.180000</speed>
</trkpt>
<trkpt lat="22.168814" lon="104.355751">
<ele>69.776428</ele>
<time>2011-04-27T08:55:51Z</time>
<desc>lat.=22.168814, lon.=104.355751, Alt.=69.776428m. Speed=1.260000m/h.</desc>
<speed>0.350000</speed>
</trkpt>
<trkpt lat="22.168812" lon="104.355743">
<ele>67.954163</ele>
<time>2011-04-27T08:55:56Z</time>
<desc>lat.=22.168812, lon.=104.355743, Alt.=67.954163m. Speed=0.144000m/h.</desc>
<speed>0.040000</speed>
</trkpt>
<trkpt lat="22.168810" lon="104.355743">
<ele>67.989319</ele>
<time>2011-04-27T08:56:01Z</time>
<desc>lat.=22.168810, lon.=104.355743, Alt.=67.989319m. Speed=0.000000m/h.</desc>
<speed>0.000000</speed>
</trkpt>
<trkpt lat="22.168808" lon="104.355743">
<ele>68.016663</ele>
<time>2011-04-27T08:56:06Z</time>
<desc>lat.=22.168808, lon.=104.355743, Alt.=68.016663m. Speed=0.036000m/h.</desc>
<speed>0.010000</speed>
</trkpt>
<trkpt lat="22.168808" lon="104.355743">
<ele>68.079163</ele>
<time>2011-04-27T08:56:11Z</time>
<desc>lat.=22.168808, lon.=104.355743, Alt.=68.079163m. Speed=0.036000m/h.</desc>
<speed>0.010000</speed>
</trkpt>
<trkpt lat="22.168806" lon="104.355743">
<ele>67.946350</ele>
<time>2011-04-27T08:56:16Z</time>
<desc>lat.=22.168806, lon.=104.355743, Alt.=67.946350m. Speed=0.144000m/h.</desc>
<speed>0.040000</speed>
</trkpt>
<trkpt lat="22.168808" lon="104.355751">
<ele>68.122131</ele>
<time>2011-04-27T08:56:21Z</time>
<desc>lat.=22.168808, lon.=104.355751, Alt.=68.122131m. Speed=0.216000m/h.</desc>
<speed>0.060000</speed>
</trkpt>
<trkpt lat="22.168814" lon="104.355751">
<ele>68.038147</ele>
<time>2011-04-27T08:56:26Z</time>
<desc>lat.=22.168814, lon.=104.355751, Alt.=68.038147m. Speed=0.036000m/h.</desc>
<speed>0.010000</speed>
</trkpt>
<trkpt lat="22.168802" lon="104.355751">
<ele>67.557678</ele>
<time>2011-04-27T08:56:31Z</time>
<desc>lat.=22.168802, lon.=104.355751, Alt.=67.557678m. Speed=0.036000m/h.</desc>
<speed>0.010000</speed>
</trkpt>
<trkpt lat="22.168804" lon="104.355751">
<ele>66.973694</ele>
<time>2011-04-27T08:56:36Z</time>
<desc>lat.=22.168804, lon.=104.355751, Alt.=66.973694m. Speed=0.036000m/h.</desc>
<speed>0.010000</speed>
</trkpt>
<trkpt lat="22.168806" lon="104.355743">
<ele>65.985413</ele>
<time>2011-04-27T08:56:41Z</time>
<desc>lat.=22.168806, lon.=104.355743, Alt.=65.985413m. Speed=0.000000m/h.</desc>
<speed>0.000000</speed>
</trkpt>
<trkpt lat="22.168806" lon="104.355743">
<ele>65.692444</ele>
<time>2011-04-27T08:56:46Z</time>
<desc>lat.=22.168806, lon.=104.355743, Alt.=65.692444m. Speed=0.000000m/h.</desc>
<speed>0.000000</speed>
</trkpt>
<trkpt lat="22.168802" lon="104.355743">
<ele>65.227600</ele>
<time>2011-04-27T08:56:51Z</time>
<desc>lat.=22.168802, lon.=104.355743, Alt.=65.227600m. Speed=0.000000m/h.</desc>
<speed>0.000000</speed>
</trkpt>
<trkpt lat="22.168802" lon="104.355743">
<ele>65.407288</ele>
<time>2011-04-27T08:56:56Z</time>
<desc>lat.=22.168802, lon.=104.355743, Alt.=65.407288m. Speed=0.000000m/h.</desc>
<speed>0.000000</speed>
</trkpt>
<trkpt lat="22.168802" lon="104.355743">
<ele>65.405334</ele>
<time>2011-04-27T08:57:01Z</time>
<desc>lat.=22.168802, lon.=104.355743, Alt.=65.405334m. Speed=0.072000m/h.</desc>
<speed>0.020000</speed>
</trkpt>
<trkpt lat="22.168802" lon="104.355743">
<ele>65.381897</ele>
<time>2011-04-27T08:57:06Z</time>
<desc>lat.=22.168802, lon.=104.355743, Alt.=65.381897m. Speed=0.144000m/h.</desc>
<speed>0.040000</speed>
</trkpt>
<trkpt lat="22.168844" lon="104.355736">
<ele>65.311584</ele>
<time>2011-04-27T08:57:11Z</time>
<desc>lat.=22.168844, lon.=104.355736, Alt.=65.311584m. Speed=7.668000m/h.</desc>
<speed>2.130000</speed>
</trkpt>
<trkpt lat="22.168972" lon="104.355743">
<ele>66.731506</ele>
<time>2011-04-27T08:57:16Z</time>
<desc>lat.=22.168972, lon.=104.355743, Alt.=66.731506m. Speed=11.556000m/h.</desc>
<speed>3.210000</speed>
</trkpt>
<trkpt lat="22.169102" lon="104.355743">
<ele>68.094788</ele>
<time>2011-04-27T08:57:21Z</time>
<desc>lat.=22.169102, lon.=104.355743, Alt.=68.094788m. Speed=9.792000m/h.</desc>
<speed>2.720000</speed>
</trkpt>
<trkpt lat="22.169231" lon="104.355736">
<ele>69.774475</ele>
<time>2011-04-27T08:57:26Z</time>
<desc>lat.=22.169231, lon.=104.355736, Alt.=69.774475m. Speed=10.008000m/h.</desc>
<speed>2.780000</speed>
</trkpt>
<trkpt lat="22.169365" lon="104.355690">
<ele>69.333069</ele>
<time>2011-04-27T08:57:31Z</time>
<desc>lat.=22.169365, lon.=104.355690, Alt.=69.333069m. Speed=10.080000m/h.</desc>
<speed>2.800000</speed>
</trkpt>
<trkpt lat="22.169487" lon="104.355644">
<ele>68.813538</ele>
<time>2011-04-27T08:57:36Z</time>
<desc>lat.=22.169487, lon.=104.355644, Alt.=68.813538m. Speed=10.548000m/h.</desc>
<speed>2.930000</speed>
</trkpt>
<trkpt lat="22.169584" lon="104.355576">
<ele>67.284241</ele>
<time>2011-04-27T08:57:41Z</time>
<desc>lat.=22.169584, lon.=104.355576, Alt.=67.284241m. Speed=7.740000m/h.</desc>
<speed>2.150000</speed>
</trkpt>
<trkpt lat="22.169680" lon="104.355515">
<ele>66.194397</ele>
<time>2011-04-27T08:57:46Z</time>
<desc>lat.=22.169680, lon.=104.355515, Alt.=66.194397m. Speed=7.200000m/h.</desc>
<speed>2.000000</speed>
</trkpt>
<trkpt lat="22.169786" lon="104.355469">
<ele>66.975647</ele>
<time>2011-04-27T08:57:51Z</time>
<desc>lat.=22.169786, lon.=104.355469, Alt.=66.975647m. Speed=9.036000m/h.</desc>
<speed>2.510000</speed>
</trkpt>
<trkpt lat="22.169888" lon="104.355392">
<ele>66.581116</ele>
<time>2011-04-27T08:57:56Z</time>
<desc>lat.=22.169888, lon.=104.355392, Alt.=66.581116m. Speed=8.316000m/h.</desc>
<speed>2.310000</speed>
</trkpt>
<trkpt lat="22.169971" lon="104.355331">
<ele>66.303772</ele>
<time>2011-04-27T08:58:01Z</time>
<desc>lat.=22.169971, lon.=104.355331, Alt.=66.303772m. Speed=8.280000m/h.</desc>
<speed>2.300000</speed>
</trkpt>
<trkpt lat="22.170071" lon="104.355263">
<ele>66.483459</ele>
<time>2011-04-27T08:58:06Z</time>
<desc>lat.=22.170071, lon.=104.355263, Alt.=66.483459m. Speed=8.784000m/h.</desc>
<speed>2.440000</speed>
</trkpt>
<trkpt lat="22.170151" lon="104.355232">
<ele>66.227600</ele>
<time>2011-04-27T08:58:11Z</time>
<desc>lat.=22.170151, lon.=104.355232, Alt.=66.227600m. Speed=5.652000m/h.</desc>
<speed>1.570000</speed>
</trkpt>
<trkpt lat="22.170158" lon="104.355247">
<ele>66.237366</ele>
<time>2011-04-27T08:58:16Z</time>
<desc>lat.=22.170158, lon.=104.355247, Alt.=66.237366m. Speed=0.108000m/h.</desc>
<speed>0.030000</speed>
</trkpt>
<trkpt lat="22.170158" lon="104.355247">
<ele>66.133850</ele>
<time>2011-04-27T08:58:21Z</time>
<desc>lat.=22.170158, lon.=104.355247, Alt.=66.133850m. Speed=0.216000m/h.</desc>
<speed>0.060000</speed>
</trkpt>
<trkpt lat="22.170181" lon="104.355225">
<ele>65.645569</ele>
<time>2011-04-27T08:58:26Z</time>
<desc>lat.=22.170181, lon.=104.355225, Alt.=65.645569m. Speed=5.184000m/h.</desc>
<speed>1.440000</speed>
</trkpt>
<trkpt lat="22.170240" lon="104.355171">
<ele>65.116272</ele>
<time>2011-04-27T08:58:31Z</time>
<desc>lat.=22.170240, lon.=104.355171, Alt.=65.116272m. Speed=5.940000m/h.</desc>
<speed>1.650000</speed>
</trkpt>
<trkpt lat="22.170288" lon="104.355171">
<ele>65.616272</ele>
<time>2011-04-27T08:58:36Z</time>
<desc>lat.=22.170288, lon.=104.355171, Alt.=65.616272m. Speed=0.684000m/h.</desc>
<speed>0.190000</speed>
</trkpt>
<trkpt lat="22.170280" lon="104.355164">
<ele>65.444397</ele>
<time>2011-04-27T08:58:41Z</time>
<desc>lat.=22.170280, lon.=104.355164, Alt.=65.444397m. Speed=0.000000m/h.</desc>
<speed>0.000000</speed>
</trkpt>
<trkpt lat="22.170280" lon="104.355164">
<ele>65.391663</ele>
<time>2011-04-27T08:58:46Z</time>
<desc>lat.=22.170280, lon.=104.355164, Alt.=65.391663m. Speed=0.000000m/h.</desc>
<speed>0.000000</speed>
</trkpt>
<trkpt lat="22.170280" lon="104.355164">
<ele>65.397522</ele>
<time>2011-04-27T08:58:51Z</time>
<desc>lat.=22.170280, lon.=104.355164, Alt.=65.397522m. Speed=0.000000m/h.</desc>
<speed>0.000000</speed>
</trkpt>
<trkpt lat="22.170280" lon="104.355164">
<ele>65.387756</ele>
<time>2011-04-27T08:58:56Z</time>
<desc>lat.=22.170280, lon.=104.355164, Alt.=65.387756m. Speed=0.000000m/h.</desc>
<speed>0.000000</speed>
</trkpt>
<trkpt lat="22.170280" lon="104.355164">
<ele>65.377991</ele>
<time>2011-04-27T08:59:01Z</time>
<desc>lat.=22.170280, lon.=104.355164, Alt.=65.377991m. Speed=0.000000m/h.</desc>
<speed>0.000000</speed>
</trkpt>
<trkpt lat="22.170280" lon="104.355164">
<ele>65.379944</ele>
<time>2011-04-27T08:59:06Z</time>
<desc>lat.=22.170280, lon.=104.355164, Alt.=65.379944m. Speed=0.036000m/h.</desc>
<speed>0.010000</speed>
</trkpt>
<trkpt lat="22.170280" lon="104.355164">
<ele>65.385803</ele>
<time>2011-04-27T08:59:11Z</time>
<desc>lat.=22.170280, lon.=104.355164, Alt.=65.385803m. Speed=0.000000m/h.</desc>
<speed>0.000000</speed>
</trkpt>
<trkpt lat="22.170280" lon="104.355164">
<ele>65.389709</ele>
<time>2011-04-27T08:59:16Z</time>
<desc>lat.=22.170280, lon.=104.355164, Alt.=65.389709m. Speed=0.000000m/h.</desc>
<speed>0.000000</speed>
</trkpt>
<trkpt lat="22.170280" lon="104.355164">
<ele>65.393616</ele>
<time>2011-04-27T08:59:21Z</time>
<desc>lat.=22.170280, lon.=104.355164, Alt.=65.393616m. Speed=0.036000m/h.</desc>
<speed>0.010000</speed>
</trkpt>
<trkpt lat="22.170280" lon="104.355164">
<ele>65.409241</ele>
<time>2011-04-27T08:59:26Z</time>
<desc>lat.=22.170280, lon.=104.355164, Alt.=65.409241m. Speed=0.000000m/h.</desc>
<speed>0.000000</speed>
</trkpt>
<trkpt lat="22.170280" lon="104.355164">
<ele>65.422913</ele>
<time>2011-04-27T08:59:31Z</time>
<desc>lat.=22.170280, lon.=104.355164, Alt.=65.422913m. Speed=0.000000m/h.</desc>
<speed>0.000000</speed>
</trkpt>
<trkpt lat="22.170280" lon="104.355164">
<ele>65.424866</ele>
<time>2011-04-27T08:59:36Z</time>
<desc>lat.=22.170280, lon.=104.355164, Alt.=65.424866m. Speed=0.072000m/h.</desc>
<speed>0.020000</speed>
</trkpt>
<trkpt lat="22.170280" lon="104.355164">
<ele>65.422913</ele>
<time>2011-04-27T08:59:41Z</time>
<desc>lat.=22.170280, lon.=104.355164, Alt.=65.422913m. Speed=0.036000m/h.</desc>
<speed>0.010000</speed>
</trkpt>
<trkpt lat="22.170280" lon="104.355164">
<ele>65.426819</ele>
<time>2011-04-27T08:59:46Z</time>
<desc>lat.=22.170280, lon.=104.355164, Alt.=65.426819m. Speed=0.144000m/h.</desc>
<speed>0.040000</speed>
</trkpt>
<trkpt lat="22.170294" lon="104.355148">
<ele>65.356506</ele>
<time>2011-04-27T08:59:51Z</time>
<desc>lat.=22.170294, lon.=104.355148, Alt.=65.356506m. Speed=5.148000m/h.</desc>
<speed>1.430000</speed>
</trkpt>
<trkpt lat="22.170393" lon="104.355072">
<ele>65.063538</ele>
<time>2011-04-27T08:59:56Z</time>
<desc>lat.=22.170393, lon.=104.355072, Alt.=65.063538m. Speed=8.856000m/h.</desc>
<speed>2.460000</speed>
</trkpt>
<trkpt lat="22.170536" lon="104.354996">
<ele>64.657288</ele>
<time>2011-04-27T09:00:01Z</time>
<desc>lat.=22.170536, lon.=104.354996, Alt.=64.657288m. Speed=8.316000m/h.</desc>
<speed>2.310000</speed>
</trkpt>
<trkpt lat="22.170637" lon="104.354935">
<ele>64.079163</ele>
<time>2011-04-27T09:00:06Z</time>
<desc>lat.=22.170637, lon.=104.354935, Alt.=64.079163m. Speed=6.804000m/h.</desc>
<speed>1.890000</speed>
</trkpt>
<trkpt lat="22.170732" lon="104.354881">
<ele>63.431183</ele>
<time>2011-04-27T09:00:11Z</time>
<desc>lat.=22.170732, lon.=104.354881, Alt.=63.431183m. Speed=7.740000m/h.</desc>
<speed>2.150000</speed>
</trkpt>
<trkpt lat="22.170811" lon="104.354843">
<ele>62.807159</ele>
<time>2011-04-27T09:00:16Z</time>
<desc>lat.=22.170811, lon.=104.354843, Alt.=62.807159m. Speed=6.588000m/h.</desc>
<speed>1.830000</speed>
</trkpt>
<trkpt lat="22.170893" lon="104.354813">
<ele>63.423370</ele>
<time>2011-04-27T09:00:21Z</time>
<desc>lat.=22.170893, lon.=104.354813, Alt.=63.423370m. Speed=6.444000m/h.</desc>
<speed>1.790000</speed>
</trkpt>
<trkpt lat="22.170954" lon="104.354774">
<ele>63.643097</ele>
<time>2011-04-27T09:00:26Z</time>
<desc>lat.=22.170954, lon.=104.354774, Alt.=63.643097m. Speed=1.476000m/h.</desc>
<speed>0.410000</speed>
</trkpt>
<trkpt lat="22.170956" lon="104.354774">
<ele>63.964386</ele>
<time>2011-04-27T09:00:31Z</time>
<desc>lat.=22.170956, lon.=104.354774, Alt.=63.964386m. Speed=0.396000m/h.</desc>
<speed>0.110000</speed>
</trkpt>
<trkpt lat="22.170958" lon="104.354774">
<ele>63.926300</ele>
<time>2011-04-27T09:00:36Z</time>
<desc>lat.=22.170958, lon.=104.354774, Alt.=63.926300m. Speed=0.036000m/h.</desc>
<speed>0.010000</speed>
</trkpt>
<trkpt lat="22.170958" lon="104.354774">
<ele>63.985870</ele>
<time>2011-04-27T09:00:41Z</time>
<desc>lat.=22.170958, lon.=104.354774, Alt.=63.985870m. Speed=0.072000m/h.</desc>
<speed>0.020000</speed>
</trkpt>
<trkpt lat="22.170958" lon="104.354767">
<ele>64.012756</ele>
<time>2011-04-27T09:00:46Z</time>
<desc>lat.=22.170958, lon.=104.354767, Alt.=64.012756m. Speed=0.000000m/h.</desc>
<speed>0.000000</speed>
</trkpt>
<trkpt lat="22.170958" lon="104.354767">
<ele>64.032288</ele>
<time>2011-04-27T09:00:51Z</time>
<desc>lat.=22.170958, lon.=104.354767, Alt.=64.032288m. Speed=0.000000m/h.</desc>
<speed>0.000000</speed>
</trkpt>
<trkpt lat="22.170958" lon="104.354767">
<ele>64.040100</ele>
<time>2011-04-27T09:00:56Z</time>
<desc>lat.=22.170958, lon.=104.354767, Alt.=64.040100m. Speed=0.036000m/h.</desc>
<speed>0.010000</speed>
</trkpt>
<trkpt lat="22.170958" lon="104.354767">
<ele>64.051819</ele>
<time>2011-04-27T09:01:01Z</time>
<desc>lat.=22.170958, lon.=104.354767, Alt.=64.051819m. Speed=0.036000m/h.</desc>
<speed>0.010000</speed>
</trkpt>
<trkpt lat="22.170958" lon="104.354767">
<ele>64.067444</ele>
<time>2011-04-27T09:01:06Z</time>
<desc>lat.=22.170958, lon.=104.354767, Alt.=64.067444m. Speed=0.144000m/h.</desc>
<speed>0.040000</speed>
</trkpt>
<trkpt lat="22.170958" lon="104.354767">
<ele>64.085022</ele>
<time>2011-04-27T09:01:11Z</time>
<desc>lat.=22.170958, lon.=104.354767, Alt.=64.085022m. Speed=0.000000m/h.</desc>
<speed>0.000000</speed>
</trkpt>
<trkpt lat="22.170958" lon="104.354767">
<ele>64.083069</ele>
<time>2011-04-27T09:01:16Z</time>
<desc>lat.=22.170958, lon.=104.354767, Alt.=64.083069m. Speed=0.108000m/h.</desc>
<speed>0.030000</speed>
</trkpt>
<trkpt lat="22.170956" lon="104.354767">
<ele>64.069397</ele>
<time>2011-04-27T09:01:21Z</time>
<desc>lat.=22.170956, lon.=104.354767, Alt.=64.069397m. Speed=0.036000m/h.</desc>
<speed>0.010000</speed>
</trkpt>
<trkpt lat="22.170956" lon="104.354767">
<ele>64.079163</ele>
<time>2011-04-27T09:01:26Z</time>
<desc>lat.=22.170956, lon.=104.354767, Alt.=64.079163m. Speed=0.036000m/h.</desc>
<speed>0.010000</speed>
</trkpt>
<trkpt lat="22.170956" lon="104.354767">
<ele>64.081116</ele>
<time>2011-04-27T09:01:31Z</time>
<desc>lat.=22.170956, lon.=104.354767, Alt.=64.081116m. Speed=0.036000m/h.</desc>
<speed>0.010000</speed>
</trkpt>
<trkpt lat="22.170956" lon="104.354767">
<ele>64.092834</ele>
<time>2011-04-27T09:01:36Z</time>
<desc>lat.=22.170956, lon.=104.354767, Alt.=64.092834m. Speed=0.072000m/h.</desc>
<speed>0.020000</speed>
</trkpt>
<trkpt lat="22.170956" lon="104.354767">
<ele>64.108459</ele>
<time>2011-04-27T09:01:41Z</time>
<desc>lat.=22.170956, lon.=104.354767, Alt.=64.108459m. Speed=0.036000m/h.</desc>
<speed>0.010000</speed>
</trkpt>
<trkpt lat="22.170956" lon="104.354767">
<ele>64.110413</ele>
<time>2011-04-27T09:01:46Z</time>
<desc>lat.=22.170956, lon.=104.354767, Alt.=64.110413m. Speed=0.072000m/h.</desc>
<speed>0.020000</speed>
</trkpt>
<trkpt lat="22.170992" lon="104.354729">
<ele>64.219788</ele>
<time>2011-04-27T09:01:51Z</time>
<desc>lat.=22.170992, lon.=104.354729, Alt.=64.219788m. Speed=6.696000m/h.</desc>
<speed>1.860000</speed>
</trkpt>
<trkpt lat="22.171083" lon="104.354652">
<ele>64.274475</ele>
<time>2011-04-27T09:01:56Z</time>
<desc>lat.=22.171083, lon.=104.354652, Alt.=64.274475m. Speed=9.972000m/h.</desc>
<speed>2.770000</speed>
</trkpt>
<trkpt lat="22.171240" lon="104.354591">
<ele>64.489319</ele>
<time>2011-04-27T09:02:01Z</time>
<desc>lat.=22.171240, lon.=104.354591, Alt.=64.489319m. Speed=13.068000m/h.</desc>
<speed>3.630000</speed>
</trkpt>
<trkpt lat="22.171413" lon="104.354485">
<ele>64.194397</ele>
<time>2011-04-27T09:02:06Z</time>
<desc>lat.=22.171413, lon.=104.354485, Alt.=64.194397m. Speed=17.208000m/h.</desc>
<speed>4.780000</speed>
</trkpt>
<trkpt lat="22.171598" lon="104.354378">
<ele>63.473175</ele>
<time>2011-04-27T09:02:11Z</time>
<desc>lat.=22.171598, lon.=104.354378, Alt.=63.473175m. Speed=11.160000m/h.</desc>
<speed>3.100000</speed>
</trkpt>
<trkpt lat="22.171694" lon="104.354317">
<ele>65.266663</ele>
<time>2011-04-27T09:02:16Z</time>
<desc>lat.=22.171694, lon.=104.354317, Alt.=65.266663m. Speed=7.128000m/h.</desc>
<speed>1.980000</speed>
</trkpt>
<trkpt lat="22.171814" lon="104.354271">
<ele>65.682678</ele>
<time>2011-04-27T09:02:21Z</time>
<desc>lat.=22.171814, lon.=104.354271, Alt.=65.682678m. Speed=10.872000m/h.</desc>
<speed>3.020000</speed>
</trkpt>
<trkpt lat="22.171919" lon="104.354195">
<ele>66.042053</ele>
<time>2011-04-27T09:02:26Z</time>
<desc>lat.=22.171919, lon.=104.354195, Alt.=66.042053m. Speed=8.784000m/h.</desc>
<speed>2.440000</speed>
</trkpt>
<trkpt lat="22.171986" lon="104.354118">
<ele>65.491272</ele>
<time>2011-04-27T09:02:31Z</time>
<desc>lat.=22.171986, lon.=104.354118, Alt.=65.491272m. Speed=5.724000m/h.</desc>
<speed>1.590000</speed>
</trkpt>
<trkpt lat="22.172064" lon="104.354050">
<ele>64.823303</ele>
<time>2011-04-27T09:02:36Z</time>
<desc>lat.=22.172064, lon.=104.354050, Alt.=64.823303m. Speed=7.344000m/h.</desc>
<speed>2.040000</speed>
</trkpt>
<trkpt lat="22.172174" lon="104.353989">
<ele>65.133850</ele>
<time>2011-04-27T09:02:41Z</time>
<desc>lat.=22.172174, lon.=104.353989, Alt.=65.133850m. Speed=11.880000m/h.</desc>
<speed>3.300000</speed>
</trkpt>
<trkpt lat="22.172314" lon="104.353935">
<ele>67.155334</ele>
<time>2011-04-27T09:02:46Z</time>
<desc>lat.=22.172314, lon.=104.353935, Alt.=67.155334m. Speed=9.972000m/h.</desc>
<speed>2.770000</speed>
</trkpt>
<trkpt lat="22.172415" lon="104.353905">
<ele>68.243225</ele>
<time>2011-04-27T09:02:51Z</time>
<desc>lat.=22.172415, lon.=104.353905, Alt.=68.243225m. Speed=7.956000m/h.</desc>
<speed>2.210000</speed>
</trkpt>
<trkpt lat="22.172510" lon="104.353874">
<ele>68.002991</ele>
<time>2011-04-27T09:02:56Z</time>
<desc>lat.=22.172510, lon.=104.353874, Alt.=68.002991m. Speed=7.344000m/h.</desc>
<speed>2.040000</speed>
</trkpt>
<trkpt lat="22.172598" lon="104.353882">
<ele>67.528381</ele>
<time>2011-04-27T09:03:01Z</time>
<desc>lat.=22.172598, lon.=104.353882, Alt.=67.528381m. Speed=8.604000m/h.</desc>
<speed>2.390000</speed>
</trkpt>
<trkpt lat="22.172691" lon="104.353882">
<ele>65.823303</ele>
<time>2011-04-27T09:03:06Z</time>
<desc>lat.=22.172691, lon.=104.353882, Alt.=65.823303m. Speed=5.796000m/h.</desc>
<speed>1.610000</speed>
</trkpt>
<trkpt lat="22.172756" lon="104.353882">
<ele>66.493225</ele>
<time>2011-04-27T09:03:11Z</time>
<desc>lat.=22.172756, lon.=104.353882, Alt.=66.493225m. Speed=3.096000m/h.</desc>
<speed>0.860000</speed>
</trkpt>
<trkpt lat="22.172754" lon="104.353889">
<ele>67.094788</ele>
<time>2011-04-27T09:03:16Z</time>
<desc>lat.=22.172754, lon.=104.353889, Alt.=67.094788m. Speed=0.036000m/h.</desc>
<speed>0.010000</speed>
</trkpt>
<trkpt lat="22.172756" lon="104.353889">
<ele>67.161194</ele>
<time>2011-04-27T09:03:21Z</time>
<desc>lat.=22.172756, lon.=104.353889, Alt.=67.161194m. Speed=0.036000m/h.</desc>
<speed>0.010000</speed>
</trkpt>
<trkpt lat="22.172752" lon="104.353889">
<ele>67.071350</ele>
<time>2011-04-27T09:03:26Z</time>
<desc>lat.=22.172752, lon.=104.353889, Alt.=67.071350m. Speed=0.180000m/h.</desc>
<speed>0.050000</speed>
</trkpt>
<trkpt lat="22.172752" lon="104.353889">
<ele>67.016663</ele>
<time>2011-04-27T09:03:31Z</time>
<desc>lat.=22.172752, lon.=104.353889, Alt.=67.016663m. Speed=0.108000m/h.</desc>
<speed>0.030000</speed>
</trkpt>
<trkpt lat="22.172752" lon="104.353889">
<ele>67.069397</ele>
<time>2011-04-27T09:03:36Z</time>
<desc>lat.=22.172752, lon.=104.353889, Alt.=67.069397m. Speed=0.000000m/h.</desc>
<speed>0.000000</speed>
</trkpt>
<trkpt lat="22.172750" lon="104.353889">
<ele>67.092834</ele>
<time>2011-04-27T09:03:41Z</time>
<desc>lat.=22.172750, lon.=104.353889, Alt.=67.092834m. Speed=0.180000m/h.</desc>
<speed>0.050000</speed>
</trkpt>
<trkpt lat="22.172750" lon="104.353897">
<ele>67.098694</ele>
<time>2011-04-27T09:03:46Z</time>
<desc>lat.=22.172750, lon.=104.353897, Alt.=67.098694m. Speed=0.180000m/h.</desc>
<speed>0.050000</speed>
</trkpt>
<trkpt lat="22.172750" lon="104.353897">
<ele>67.086975</ele>
<time>2011-04-27T09:03:51Z</time>
<desc>lat.=22.172750, lon.=104.353897, Alt.=67.086975m. Speed=0.036000m/h.</desc>
<speed>0.010000</speed>
</trkpt>
<trkpt lat="22.172750" lon="104.353897">
<ele>67.083069</ele>
<time>2011-04-27T09:03:56Z</time>
<desc>lat.=22.172750, lon.=104.353897, Alt.=67.083069m. Speed=0.000000m/h.</desc>
<speed>0.000000</speed>
</trkpt>
<trkpt lat="22.172750" lon="104.353897">
<ele>67.106506</ele>
<time>2011-04-27T09:04:01Z</time>
<desc>lat.=22.172750, lon.=104.353897, Alt.=67.106506m. Speed=0.000000m/h.</desc>
<speed>0.000000</speed>
</trkpt>
<trkpt lat="22.172749" lon="104.353897">
<ele>67.104553</ele>
<time>2011-04-27T09:04:06Z</time>
<desc>lat.=22.172749, lon.=104.353897, Alt.=67.104553m. Speed=0.036000m/h.</desc>
<speed>0.010000</speed>
</trkpt>
<trkpt lat="22.172749" lon="104.353897">
<ele>67.110413</ele>
<time>2011-04-27T09:04:11Z</time>
<desc>lat.=22.172749, lon.=104.353897, Alt.=67.110413m. Speed=0.000000m/h.</desc>
<speed>0.000000</speed>
</trkpt>
<trkpt lat="22.172749" lon="104.353897">
<ele>67.106506</ele>
<time>2011-04-27T09:04:16Z</time>
<desc>lat.=22.172749, lon.=104.353897, Alt.=67.106506m. Speed=0.000000m/h.</desc>
<speed>0.000000</speed>
</trkpt>
<trkpt lat="22.172749" lon="104.353897">
<ele>67.143616</ele>
<time>2011-04-27T09:04:21Z</time>
<desc>lat.=22.172749, lon.=104.353897, Alt.=67.143616m. Speed=0.036000m/h.</desc>
<speed>0.010000</speed>
</trkpt>
<trkpt lat="22.172749" lon="104.353897">
<ele>67.133850</ele>
<time>2011-04-27T09:04:26Z</time>
<desc>lat.=22.172749, lon.=104.353897, Alt.=67.133850m. Speed=0.000000m/h.</desc>
<speed>0.000000</speed>
</trkpt>
<trkpt lat="22.172749" lon="104.353897">
<ele>67.118225</ele>
<time>2011-04-27T09:04:31Z</time>
<desc>lat.=22.172749, lon.=104.353897, Alt.=67.118225m. Speed=0.036000m/h.</desc>
<speed>0.010000</speed>
</trkpt>
<trkpt lat="22.172749" lon="104.353897">
<ele>67.131897</ele>
<time>2011-04-27T09:04:36Z</time>
<desc>lat.=22.172749, lon.=104.353897, Alt.=67.131897m. Speed=0.036000m/h.</desc>
<speed>0.010000</speed>
</trkpt>
<trkpt lat="22.172749" lon="104.353897">
<ele>67.141663</ele>
<time>2011-04-27T09:04:41Z</time>
<desc>lat.=22.172749, lon.=104.353897, Alt.=67.141663m. Speed=0.108000m/h.</desc>
<speed>0.030000</speed>
</trkpt>
<trkpt lat="22.172749" lon="104.353897">
<ele>67.120178</ele>
<time>2011-04-27T09:04:46Z</time>
<desc>lat.=22.172749, lon.=104.353897, Alt.=67.120178m. Speed=0.036000m/h.</desc>
<speed>0.010000</speed>
</trkpt>
<trkpt lat="22.172747" lon="104.353897">
<ele>67.110413</ele>
<time>2011-04-27T09:04:51Z</time>
<desc>lat.=22.172747, lon.=104.353897, Alt.=67.110413m. Speed=0.072000m/h.</desc>
<speed>0.020000</speed>
</trkpt>
<trkpt lat="22.172747" lon="104.353897">
<ele>67.090881</ele>
<time>2011-04-27T09:04:56Z</time>
<desc>lat.=22.172747, lon.=104.353897, Alt.=67.090881m. Speed=0.072000m/h.</desc>
<speed>0.020000</speed>
</trkpt>
<trkpt lat="22.172747" lon="104.353897">
<ele>67.073303</ele>
<time>2011-04-27T09:05:01Z</time>
<desc>lat.=22.172747, lon.=104.353897, Alt.=67.073303m. Speed=0.180000m/h.</desc>
<speed>0.050000</speed>
</trkpt>
<trkpt lat="22.172762" lon="104.353897">
<ele>67.061584</ele>
<time>2011-04-27T09:05:06Z</time>
<desc>lat.=22.172762, lon.=104.353897, Alt.=67.061584m. Speed=4.320000m/h.</desc>
<speed>1.200000</speed>
</trkpt>
<trkpt lat="22.172880" lon="104.353912">
<ele>66.692444</ele>
<time>2011-04-27T09:05:11Z</time>
<desc>lat.=22.172880, lon.=104.353912, Alt.=66.692444m. Speed=9.864000m/h.</desc>
<speed>2.740000</speed>
</trkpt>
<trkpt lat="22.173019" lon="104.353905">
<ele>66.745178</ele>
<time>2011-04-27T09:05:16Z</time>
<desc>lat.=22.173019, lon.=104.353905, Alt.=66.745178m. Speed=10.656000m/h.</desc>
<speed>2.960000</speed>
</trkpt>
<trkpt lat="22.173195" lon="104.353920">
<ele>66.836975</ele>
<time>2011-04-27T09:05:21Z</time>
<desc>lat.=22.173195, lon.=104.353920, Alt.=66.836975m. Speed=15.336000m/h.</desc>
<speed>4.260000</speed>
</trkpt>
<trkpt lat="22.173401" lon="104.353943">
<ele>67.979553</ele>
<time>2011-04-27T09:05:26Z</time>
<desc>lat.=22.173401, lon.=104.353943, Alt.=67.979553m. Speed=15.444000m/h.</desc>
<speed>4.290000</speed>
</trkpt>
<trkpt lat="22.173620" lon="104.353958">
<ele>69.471741</ele>
<time>2011-04-27T09:05:31Z</time>
<desc>lat.=22.173620, lon.=104.353958, Alt.=69.471741m. Speed=17.747999m/h.</desc>
<speed>4.930000</speed>
</trkpt>
<trkpt lat="22.173866" lon="104.353996">
<ele>70.670959</ele>
<time>2011-04-27T09:05:36Z</time>
<desc>lat.=22.173866, lon.=104.353996, Alt.=70.670959m. Speed=17.892000m/h.</desc>
<speed>4.970000</speed>
</trkpt>
<trkpt lat="22.174091" lon="104.354027">
<ele>70.926819</ele>
<time>2011-04-27T09:05:41Z</time>
<desc>lat.=22.174091, lon.=104.354027, Alt.=70.926819m. Speed=14.976000m/h.</desc>
<speed>4.160000</speed>
</trkpt>
<trkpt lat="22.174269" lon="104.354065">
<ele>71.309631</ele>
<time>2011-04-27T09:05:46Z</time>
<desc>lat.=22.174269, lon.=104.354065, Alt.=71.309631m. Speed=14.256000m/h.</desc>
<speed>3.960000</speed>
</trkpt>
<trkpt lat="22.174454" lon="104.354118">
<ele>70.114319</ele>
<time>2011-04-27T09:05:51Z</time>
<desc>lat.=22.174454, lon.=104.354118, Alt.=70.114319m. Speed=13.752000m/h.</desc>
<speed>3.820000</speed>
</trkpt>
<trkpt lat="22.174616" lon="104.354141">
<ele>71.471741</ele>
<time>2011-04-27T09:05:56Z</time>
<desc>lat.=22.174616, lon.=104.354141, Alt.=71.471741m. Speed=13.032000m/h.</desc>
<speed>3.620000</speed>
</trkpt>
<trkpt lat="22.174788" lon="104.354164">
<ele>70.381897</ele>
<time>2011-04-27T09:06:01Z</time>
<desc>lat.=22.174788, lon.=104.354164, Alt.=70.381897m. Speed=14.292000m/h.</desc>
<speed>3.970000</speed>
</trkpt>
<trkpt lat="22.174982" lon="104.354164">
<ele>67.520569</ele>
<time>2011-04-27T09:06:06Z</time>
<desc>lat.=22.174982, lon.=104.354164, Alt.=67.520569m. Speed=13.932000m/h.</desc>
<speed>3.870000</speed>
</trkpt>
<trkpt lat="22.175188" lon="104.354164">
<ele>67.446350</ele>
<time>2011-04-27T09:06:11Z</time>
<desc>lat.=22.175188, lon.=104.354164, Alt.=67.446350m. Speed=15.372000m/h.</desc>
<speed>4.270000</speed>
</trkpt>
<trkpt lat="22.175413" lon="104.354164">
<ele>68.960022</ele>
<time>2011-04-27T09:06:16Z</time>
<desc>lat.=22.175413, lon.=104.354164, Alt.=68.960022m. Speed=16.091999m/h.</desc>
<speed>4.470000</speed>
</trkpt>
<trkpt lat="22.175648" lon="104.354187">
<ele>68.723694</ele>
<time>2011-04-27T09:06:21Z</time>
<desc>lat.=22.175648, lon.=104.354187, Alt.=68.723694m. Speed=15.480000m/h.</desc>
<speed>4.300000</speed>
</trkpt>
<trkpt lat="22.175846" lon="104.354225">
<ele>73.987366</ele>
<time>2011-04-27T09:06:26Z</time>
<desc>lat.=22.175846, lon.=104.354225, Alt.=73.987366m. Speed=15.768000m/h.</desc>
<speed>4.380000</speed>
</trkpt>
<trkpt lat="22.176062" lon="104.354233">
<ele>72.454163</ele>
<time>2011-04-27T09:06:31Z</time>
<desc>lat.=22.176062, lon.=104.354233, Alt.=72.454163m. Speed=14.760000m/h.</desc>
<speed>4.100000</speed>
</trkpt>
<trkpt lat="22.176252" lon="104.354233">
<ele>72.674866</ele>
<time>2011-04-27T09:06:36Z</time>
<desc>lat.=22.176252, lon.=104.354233, Alt.=72.674866m. Speed=15.300000m/h.</desc>
<speed>4.250000</speed>
</trkpt>
<trkpt lat="22.176477" lon="104.354195">
<ele>70.606506</ele>
<time>2011-04-27T09:06:41Z</time>
<desc>lat.=22.176477, lon.=104.354195, Alt.=70.606506m. Speed=19.476000m/h.</desc>
<speed>5.410000</speed>
</trkpt>
<trkpt lat="22.176708" lon="104.354103">
<ele>68.473694</ele>
<time>2011-04-27T09:06:46Z</time>
<desc>lat.=22.176708, lon.=104.354103, Alt.=68.473694m. Speed=11.880000m/h.</desc>
<speed>3.300000</speed>
</trkpt>
<trkpt lat="22.176853" lon="104.354027">
<ele>65.680725</ele>
<time>2011-04-27T09:06:51Z</time>
<desc>lat.=22.176853, lon.=104.354027, Alt.=65.680725m. Speed=9.936000m/h.</desc>
<speed>2.760000</speed>
</trkpt>
<trkpt lat="22.176983" lon="104.353973">
<ele>64.993225</ele>
<time>2011-04-27T09:06:56Z</time>
<desc>lat.=22.176983, lon.=104.353973, Alt.=64.993225m. Speed=8.424000m/h.</desc>
<speed>2.340000</speed>
</trkpt>
<trkpt lat="22.177094" lon="104.353928">
<ele>65.620178</ele>
<time>2011-04-27T09:07:01Z</time>
<desc>lat.=22.177094, lon.=104.353928, Alt.=65.620178m. Speed=8.496000m/h.</desc>
<speed>2.360000</speed>
</trkpt>
<trkpt lat="22.177212" lon="104.353882">
<ele>67.088928</ele>
<time>2011-04-27T09:07:06Z</time>
<desc>lat.=22.177212, lon.=104.353882, Alt.=67.088928m. Speed=9.540000m/h.</desc>
<speed>2.650000</speed>
</trkpt>
<trkpt lat="22.177341" lon="104.353836">
<ele>67.278381</ele>
<time>2011-04-27T09:07:11Z</time>
<desc>lat.=22.177341, lon.=104.353836, Alt.=67.278381m. Speed=9.972000m/h.</desc>
<speed>2.770000</speed>
</trkpt>
<trkpt lat="22.177481" lon="104.353806">
<ele>67.710022</ele>
<time>2011-04-27T09:07:16Z</time>
<desc>lat.=22.177481, lon.=104.353806, Alt.=67.710022m. Speed=10.584000m/h.</desc>
<speed>2.940000</speed>
</trkpt>
<trkpt lat="22.177605" lon="104.353760">
<ele>66.770569</ele>
<time>2011-04-27T09:07:21Z</time>
<desc>lat.=22.177605, lon.=104.353760, Alt.=66.770569m. Speed=10.260000m/h.</desc>
<speed>2.850000</speed>
</trkpt>
<trkpt lat="22.177759" lon="104.353722">
<ele>67.657288</ele>
<time>2011-04-27T09:07:26Z</time>
<desc>lat.=22.177759, lon.=104.353722, Alt.=67.657288m. Speed=11.304000m/h.</desc>
<speed>3.140000</speed>
</trkpt>
<trkpt lat="22.177895" lon="104.353699">
<ele>65.969788</ele>
<time>2011-04-27T09:07:31Z</time>
<desc>lat.=22.177895, lon.=104.353699, Alt.=65.969788m. Speed=11.268000m/h.</desc>
<speed>3.130000</speed>
</trkpt>
<trkpt lat="22.178026" lon="104.353668">
<ele>68.178772</ele>
<time>2011-04-27T09:07:36Z</time>
<desc>lat.=22.178026, lon.=104.353668, Alt.=68.178772m. Speed=11.592000m/h.</desc>
<speed>3.220000</speed>
</trkpt>
<trkpt lat="22.178154" lon="104.353638">
<ele>67.891663</ele>
<time>2011-04-27T09:07:41Z</time>
<desc>lat.=22.178154, lon.=104.353638, Alt.=67.891663m. Speed=8.748000m/h.</desc>
<speed>2.430000</speed>
</trkpt>
<trkpt lat="22.178242" lon="104.353600">
<ele>69.469788</ele>
<time>2011-04-27T09:07:46Z</time>
<desc>lat.=22.178242, lon.=104.353600, Alt.=69.469788m. Speed=5.148000m/h.</desc>
<speed>1.430000</speed>
</trkpt>
<trkpt lat="22.178307" lon="104.353584">
<ele>68.575256</ele>
<time>2011-04-27T09:07:51Z</time>
<desc>lat.=22.178307, lon.=104.353584, Alt.=68.575256m. Speed=6.048000m/h.</desc>
<speed>1.680000</speed>
</trkpt>
<trkpt lat="22.178373" lon="104.353554">
<ele>68.944397</ele>
<time>2011-04-27T09:07:56Z</time>
<desc>lat.=22.178373, lon.=104.353554, Alt.=68.944397m. Speed=3.924000m/h.</desc>
<speed>1.090000</speed>
</trkpt>
<trkpt lat="22.178410" lon="104.353561">
<ele>70.030334</ele>
<time>2011-04-27T09:08:01Z</time>
<desc>lat.=22.178410, lon.=104.353561, Alt.=70.030334m. Speed=2.376000m/h.</desc>
<speed>0.660000</speed>
</trkpt>
<trkpt lat="22.178436" lon="104.353577">
<ele>70.151428</ele>
<time>2011-04-27T09:08:06Z</time>
<desc>lat.=22.178436, lon.=104.353577, Alt.=70.151428m. Speed=0.612000m/h.</desc>
<speed>0.170000</speed>
</trkpt>
<trkpt lat="22.178434" lon="104.353577">
<ele>70.251038</ele>
<time>2011-04-27T09:08:11Z</time>
<desc>lat.=22.178434, lon.=104.353577, Alt.=70.251038m. Speed=0.540000m/h.</desc>
<speed>0.150000</speed>
</trkpt>
<trkpt lat="22.178434" lon="104.353577">
<ele>70.331116</ele>
<time>2011-04-27T09:08:16Z</time>
<desc>lat.=22.178434, lon.=104.353577, Alt.=70.331116m. Speed=0.108000m/h.</desc>
<speed>0.030000</speed>
</trkpt>
<trkpt lat="22.178436" lon="104.353577">
<ele>70.327209</ele>
<time>2011-04-27T09:08:21Z</time>
<desc>lat.=22.178436, lon.=104.353577, Alt.=70.327209m. Speed=0.252000m/h.</desc>
<speed>0.070000</speed>
</trkpt>
<trkpt lat="22.178436" lon="104.353577">
<ele>70.295959</ele>
<time>2011-04-27T09:08:26Z</time>
<desc>lat.=22.178436, lon.=104.353577, Alt.=70.295959m. Speed=0.288000m/h.</desc>
<speed>0.080000</speed>
</trkpt>
<trkpt lat="22.178434" lon="104.353569">
<ele>70.268616</ele>
<time>2011-04-27T09:08:31Z</time>
<desc>lat.=22.178434, lon.=104.353569, Alt.=70.268616m. Speed=0.000000m/h.</desc>
<speed>0.000000</speed>
</trkpt>
<trkpt lat="22.178436" lon="104.353577">
<ele>70.256897</ele>
<time>2011-04-27T09:08:36Z</time>
<desc>lat.=22.178436, lon.=104.353577, Alt.=70.256897m. Speed=0.144000m/h.</desc>
<speed>0.040000</speed>
</trkpt>
<trkpt lat="22.178438" lon="104.353577">
<ele>70.247131</ele>
<time>2011-04-27T09:08:41Z</time>
<desc>lat.=22.178438, lon.=104.353577, Alt.=70.247131m. Speed=0.108000m/h.</desc>
<speed>0.030000</speed>
</trkpt>
<trkpt lat="22.178436" lon="104.353569">
<ele>70.180725</ele>
<time>2011-04-27T09:08:46Z</time>
<desc>lat.=22.178436, lon.=104.353569, Alt.=70.180725m. Speed=0.360000m/h.</desc>
<speed>0.100000</speed>
</trkpt>
<trkpt lat="22.178434" lon="104.353569">
<ele>70.118225</ele>
<time>2011-04-27T09:08:51Z</time>
<desc>lat.=22.178434, lon.=104.353569, Alt.=70.118225m. Speed=0.108000m/h.</desc>
<speed>0.030000</speed>
</trkpt>
<trkpt lat="22.178434" lon="104.353569">
<ele>70.139709</ele>
<time>2011-04-27T09:08:56Z</time>
<desc>lat.=22.178434, lon.=104.353569, Alt.=70.139709m. Speed=0.108000m/h.</desc>
<speed>0.030000</speed>
</trkpt>
<trkpt lat="22.178432" lon="104.353561">
<ele>70.141663</ele>
<time>2011-04-27T09:09:01Z</time>
<desc>lat.=22.178432, lon.=104.353561, Alt.=70.141663m. Speed=0.756000m/h.</desc>
<speed>0.210000</speed>
</trkpt>
<trkpt lat="22.178429" lon="104.353569">
<ele>70.098694</ele>
<time>2011-04-27T09:09:06Z</time>
<desc>lat.=22.178429, lon.=104.353569, Alt.=70.098694m. Speed=0.108000m/h.</desc>
<speed>0.030000</speed>
</trkpt>
<trkpt lat="22.178429" lon="104.353561">
<ele>70.016663</ele>
<time>2011-04-27T09:09:11Z</time>
<desc>lat.=22.178429, lon.=104.353561, Alt.=70.016663m. Speed=0.720000m/h.</desc>
<speed>0.200000</speed>
</trkpt>
<trkpt lat="22.178425" lon="104.353554">
<ele>69.956116</ele>
<time>2011-04-27T09:09:16Z</time>
<desc>lat.=22.178425, lon.=104.353554, Alt.=69.956116m. Speed=0.324000m/h.</desc>
<speed>0.090000</speed>
</trkpt>
<trkpt lat="22.178431" lon="104.353554">
<ele>69.893616</ele>
<time>2011-04-27T09:09:21Z</time>
<desc>lat.=22.178431, lon.=104.353554, Alt.=69.893616m. Speed=1.404000m/h.</desc>
<speed>0.390000</speed>
</trkpt>
<trkpt lat="22.178436" lon="104.353554">
<ele>69.836975</ele>
<time>2011-04-27T09:09:26Z</time>
<desc>lat.=22.178436, lon.=104.353554, Alt.=69.836975m. Speed=0.180000m/h.</desc>
<speed>0.050000</speed>
</trkpt>
<trkpt lat="22.178436" lon="104.353554">
<ele>69.835022</ele>
<time>2011-04-27T09:09:31Z</time>
<desc>lat.=22.178436, lon.=104.353554, Alt.=69.835022m. Speed=0.036000m/h.</desc>
<speed>0.010000</speed>
</trkpt>
<trkpt lat="22.178440" lon="104.353561">
<ele>69.821350</ele>
<time>2011-04-27T09:09:36Z</time>
<desc>lat.=22.178440, lon.=104.353561, Alt.=69.821350m. Speed=0.144000m/h.</desc>
<speed>0.040000</speed>
</trkpt>
<trkpt lat="22.178440" lon="104.353561">
<ele>69.594788</ele>
<time>2011-04-27T09:09:41Z</time>
<desc>lat.=22.178440, lon.=104.353561, Alt.=69.594788m. Speed=0.108000m/h.</desc>
<speed>0.030000</speed>
</trkpt>
<trkpt lat="22.178442" lon="104.353561">
<ele>69.569397</ele>
<time>2011-04-27T09:09:46Z</time>
<desc>lat.=22.178442, lon.=104.353561, Alt.=69.569397m. Speed=0.072000m/h.</desc>
<speed>0.020000</speed>
</trkpt>
<trkpt lat="22.178446" lon="104.353561">
<ele>69.534241</ele>
<time>2011-04-27T09:09:51Z</time>
<desc>lat.=22.178446, lon.=104.353561, Alt.=69.534241m. Speed=4.104000m/h.</desc>
<speed>1.140000</speed>
</trkpt>
<trkpt lat="22.178530" lon="104.353546">
<ele>70.731506</ele>
<time>2011-04-27T09:09:56Z</time>
<desc>lat.=22.178530, lon.=104.353546, Alt.=70.731506m. Speed=5.688000m/h.</desc>
<speed>1.580000</speed>
</trkpt>
<trkpt lat="22.178612" lon="104.353539">
<ele>72.366272</ele>
<time>2011-04-27T09:10:01Z</time>
<desc>lat.=22.178612, lon.=104.353539, Alt.=72.366272m. Speed=9.324000m/h.</desc>
<speed>2.590000</speed>
</trkpt>
<trkpt lat="22.178722" lon="104.353554">
<ele>72.997131</ele>
<time>2011-04-27T09:10:06Z</time>
<desc>lat.=22.178722, lon.=104.353554, Alt.=72.997131m. Speed=9.468000m/h.</desc>
<speed>2.630000</speed>
</trkpt>
<trkpt lat="22.178797" lon="104.353569">
<ele>73.305725</ele>
<time>2011-04-27T09:10:11Z</time>
<desc>lat.=22.178797, lon.=104.353569, Alt.=73.305725m. Speed=5.652000m/h.</desc>
<speed>1.570000</speed>
</trkpt>
<trkpt lat="22.178904" lon="104.353584">
<ele>72.508850</ele>
<time>2011-04-27T09:10:16Z</time>
<desc>lat.=22.178904, lon.=104.353584, Alt.=72.508850m. Speed=8.424000m/h.</desc>
<speed>2.340000</speed>
</trkpt>
<trkpt lat="22.178967" lon="104.353622">
<ele>72.961975</ele>
<time>2011-04-27T09:10:21Z</time>
<desc>lat.=22.178967, lon.=104.353622, Alt.=72.961975m. Speed=8.712000m/h.</desc>
<speed>2.420000</speed>
</trkpt>
<trkpt lat="22.179049" lon="104.353661">
<ele>72.311584</ele>
<time>2011-04-27T09:10:26Z</time>
<desc>lat.=22.179049, lon.=104.353661, Alt.=72.311584m. Speed=6.948000m/h.</desc>
<speed>1.930000</speed>
</trkpt>
<trkpt lat="22.179136" lon="104.353683">
<ele>72.948303</ele>
<time>2011-04-27T09:10:31Z</time>
<desc>lat.=22.179136, lon.=104.353683, Alt.=72.948303m. Speed=5.580000m/h.</desc>
<speed>1.550000</speed>
</trkpt>
<trkpt lat="22.179222" lon="104.353729">
<ele>74.711975</ele>
<time>2011-04-27T09:10:36Z</time>
<desc>lat.=22.179222, lon.=104.353729, Alt.=74.711975m. Speed=9.684000m/h.</desc>
<speed>2.690000</speed>
</trkpt>
<trkpt lat="22.179323" lon="104.353783">
<ele>74.211975</ele>
<time>2011-04-27T09:10:41Z</time>
<desc>lat.=22.179323, lon.=104.353783, Alt.=74.211975m. Speed=7.308000m/h.</desc>
<speed>2.030000</speed>
</trkpt>
<trkpt lat="22.179407" lon="104.353798">
<ele>73.182678</ele>
<time>2011-04-27T09:10:46Z</time>
<desc>lat.=22.179407, lon.=104.353798, Alt.=73.182678m. Speed=5.508000m/h.</desc>
<speed>1.530000</speed>
</trkpt>
<trkpt lat="22.179468" lon="104.353790">
<ele>72.790100</ele>
<time>2011-04-27T09:10:51Z</time>
<desc>lat.=22.179468, lon.=104.353790, Alt.=72.790100m. Speed=3.816000m/h.</desc>
<speed>1.060000</speed>
</trkpt>
<trkpt lat="22.179478" lon="104.353790">
<ele>72.038147</ele>
<time>2011-04-27T09:10:56Z</time>
<desc>lat.=22.179478, lon.=104.353790, Alt.=72.038147m. Speed=0.180000m/h.</desc>
<speed>0.050000</speed>
</trkpt>
<trkpt lat="22.179478" lon="104.353790">
<ele>72.022522</ele>
<time>2011-04-27T09:11:01Z</time>
<desc>lat.=22.179478, lon.=104.353790, Alt.=72.022522m. Speed=0.000000m/h.</desc>
<speed>0.000000</speed>
</trkpt>
<trkpt lat="22.179522" lon="104.353783">
<ele>71.618225</ele>
<time>2011-04-27T09:11:06Z</time>
<desc>lat.=22.179522, lon.=104.353783, Alt.=71.618225m. Speed=5.292000m/h.</desc>
<speed>1.470000</speed>
</trkpt>
<trkpt lat="22.179577" lon="104.353821">
<ele>71.614319</ele>
<time>2011-04-27T09:11:11Z</time>
<desc>lat.=22.179577, lon.=104.353821, Alt.=71.614319m. Speed=4.680000m/h.</desc>
<speed>1.300000</speed>
</trkpt>
<trkpt lat="22.179655" lon="104.353844">
<ele>71.448303</ele>
<time>2011-04-27T09:11:16Z</time>
<desc>lat.=22.179655, lon.=104.353844, Alt.=71.448303m. Speed=7.596000m/h.</desc>
<speed>2.110000</speed>
</trkpt>
<trkpt lat="22.179750" lon="104.353905">
<ele>71.426819</ele>
<time>2011-04-27T09:11:21Z</time>
<desc>lat.=22.179750, lon.=104.353905, Alt.=71.426819m. Speed=8.352000m/h.</desc>
<speed>2.320000</speed>
</trkpt>
<trkpt lat="22.179878" lon="104.353951">
<ele>71.059631</ele>
<time>2011-04-27T09:11:26Z</time>
<desc>lat.=22.179878, lon.=104.353951, Alt.=71.059631m. Speed=11.664000m/h.</desc>
<speed>3.240000</speed>
</trkpt>
<trkpt lat="22.180019" lon="104.354012">
<ele>71.284241</ele>
<time>2011-04-27T09:11:31Z</time>
<desc>lat.=22.180019, lon.=104.354012, Alt.=71.284241m. Speed=13.104000m/h.</desc>
<speed>3.640000</speed>
</trkpt>
<trkpt lat="22.180174" lon="104.354103">
<ele>71.965881</ele>
<time>2011-04-27T09:11:36Z</time>
<desc>lat.=22.180174, lon.=104.354103, Alt.=71.965881m. Speed=12.456000m/h.</desc>
<speed>3.460000</speed>
</trkpt>
<trkpt lat="22.180307" lon="104.354187">
<ele>72.663147</ele>
<time>2011-04-27T09:11:41Z</time>
<desc>lat.=22.180307, lon.=104.354187, Alt.=72.663147m. Speed=12.960000m/h.</desc>
<speed>3.600000</speed>
</trkpt>
<trkpt lat="22.180460" lon="104.354294">
<ele>73.057678</ele>
<time>2011-04-27T09:11:46Z</time>
<desc>lat.=22.180460, lon.=104.354294, Alt.=73.057678m. Speed=14.544000m/h.</desc>
<speed>4.040000</speed>
</trkpt>
<trkpt lat="22.180580" lon="104.354385">
<ele>73.766663</ele>
<time>2011-04-27T09:11:51Z</time>
<desc>lat.=22.180580, lon.=104.354385, Alt.=73.766663m. Speed=8.532000m/h.</desc>
<speed>2.370000</speed>
</trkpt>
<trkpt lat="22.180698" lon="104.354469">
<ele>73.356506</ele>
<time>2011-04-27T09:11:56Z</time>
<desc>lat.=22.180698, lon.=104.354469, Alt.=73.356506m. Speed=10.872000m/h.</desc>
<speed>3.020000</speed>
</trkpt>
<trkpt lat="22.180822" lon="104.354584">
<ele>72.706116</ele>
<time>2011-04-27T09:12:01Z</time>
<desc>lat.=22.180822, lon.=104.354584, Alt.=72.706116m. Speed=15.840000m/h.</desc>
<speed>4.400000</speed>
</trkpt>
<trkpt lat="22.180958" lon="104.354729">
<ele>71.733459</ele>
<time>2011-04-27T09:12:06Z</time>
<desc>lat.=22.180958, lon.=104.354729, Alt.=71.733459m. Speed=10.368000m/h.</desc>
<speed>2.880000</speed>
</trkpt>
<trkpt lat="22.181082" lon="104.354858">
<ele>72.014709</ele>
<time>2011-04-27T09:12:11Z</time>
<desc>lat.=22.181082, lon.=104.354858, Alt.=72.014709m. Speed=14.292000m/h.</desc>
<speed>3.970000</speed>
</trkpt>
<trkpt lat="22.181213" lon="104.355019">
<ele>71.711975</ele>
<time>2011-04-27T09:12:16Z</time>
<desc>lat.=22.181213, lon.=104.355019, Alt.=71.711975m. Speed=13.608000m/h.</desc>
<speed>3.780000</speed>
</trkpt>
<trkpt lat="22.181339" lon="104.355141">
<ele>71.256897</ele>
<time>2011-04-27T09:12:21Z</time>
<desc>lat.=22.181339, lon.=104.355141, Alt.=71.256897m. Speed=13.392000m/h.</desc>
<speed>3.720000</speed>
</trkpt>
<trkpt lat="22.181465" lon="104.355278">
<ele>70.083069</ele>
<time>2011-04-27T09:12:26Z</time>
<desc>lat.=22.181465, lon.=104.355278, Alt.=70.083069m. Speed=8.964000m/h.</desc>
<speed>2.490000</speed>
</trkpt>
<trkpt lat="22.181580" lon="104.355408">
<ele>69.133850</ele>
<time>2011-04-27T09:12:31Z</time>
<desc>lat.=22.181580, lon.=104.355408, Alt.=69.133850m. Speed=11.880000m/h.</desc>
<speed>3.300000</speed>
</trkpt>
<trkpt lat="22.181719" lon="104.355507">
<ele>68.663147</ele>
<time>2011-04-27T09:12:36Z</time>
<desc>lat.=22.181719, lon.=104.355507, Alt.=68.663147m. Speed=14.652000m/h.</desc>
<speed>4.070000</speed>
</trkpt>
<trkpt lat="22.181879" lon="104.355614">
<ele>68.251038</ele>
<time>2011-04-27T09:12:41Z</time>
<desc>lat.=22.181879, lon.=104.355614, Alt.=68.251038m. Speed=13.788000m/h.</desc>
<speed>3.830000</speed>
</trkpt>
<trkpt lat="22.182045" lon="104.355721">
<ele>68.137756</ele>
<time>2011-04-27T09:12:46Z</time>
<desc>lat.=22.182045, lon.=104.355721, Alt.=68.137756m. Speed=13.932000m/h.</desc>
<speed>3.870000</speed>
</trkpt>
<trkpt lat="22.182188" lon="104.355804">
<ele>67.768616</ele>
<time>2011-04-27T09:12:51Z</time>
<desc>lat.=22.182188, lon.=104.355804, Alt.=67.768616m. Speed=12.564000m/h.</desc>
<speed>3.490000</speed>
</trkpt>
<trkpt lat="22.182320" lon="104.355919">
<ele>67.596741</ele>
<time>2011-04-27T09:12:56Z</time>
<desc>lat.=22.182320, lon.=104.355919, Alt.=67.596741m. Speed=12.528000m/h.</desc>
<speed>3.480000</speed>
</trkpt>
<trkpt lat="22.182409" lon="104.356056">
<ele>67.448303</ele>
<time>2011-04-27T09:13:01Z</time>
<desc>lat.=22.182409, lon.=104.356056, Alt.=67.448303m. Speed=10.116000m/h.</desc>
<speed>2.810000</speed>
</trkpt>
<trkpt lat="22.182484" lon="104.356163">
<ele>67.563538</ele>
<time>2011-04-27T09:13:06Z</time>
<desc>lat.=22.182484, lon.=104.356163, Alt.=67.563538m. Speed=9.144000m/h.</desc>
<speed>2.540000</speed>
</trkpt>
<trkpt lat="22.182566" lon="104.356308">
<ele>67.817444</ele>
<time>2011-04-27T09:13:11Z</time>
<desc>lat.=22.182566, lon.=104.356308, Alt.=67.817444m. Speed=9.936000m/h.</desc>
<speed>2.760000</speed>
</trkpt>
<trkpt lat="22.182674" lon="104.356453">
<ele>68.221741</ele>
<time>2011-04-27T09:13:16Z</time>
<desc>lat.=22.182674, lon.=104.356453, Alt.=68.221741m. Speed=9.576000m/h.</desc>
<speed>2.660000</speed>
</trkpt>
<trkpt lat="22.182751" lon="104.356590">
<ele>68.667053</ele>
<time>2011-04-27T09:13:21Z</time>
<desc>lat.=22.182751, lon.=104.356590, Alt.=68.667053m. Speed=6.588000m/h.</desc>
<speed>1.830000</speed>
</trkpt>
<trkpt lat="22.182806" lon="104.356720">
<ele>69.844788</ele>
<time>2011-04-27T09:13:26Z</time>
<desc>lat.=22.182806, lon.=104.356720, Alt.=69.844788m. Speed=7.992000m/h.</desc>
<speed>2.220000</speed>
</trkpt>
<trkpt lat="22.182848" lon="104.356888">
<ele>70.460022</ele>
<time>2011-04-27T09:13:31Z</time>
<desc>lat.=22.182848, lon.=104.356888, Alt.=70.460022m. Speed=7.560000m/h.</desc>
<speed>2.100000</speed>
</trkpt>
<trkpt lat="22.182875" lon="104.357033">
<ele>71.042053</ele>
<time>2011-04-27T09:13:36Z</time>
<desc>lat.=22.182875, lon.=104.357033, Alt.=71.042053m. Speed=7.056000m/h.</desc>
<speed>1.960000</speed>
</trkpt>
<trkpt lat="22.182934" lon="104.357185">
<ele>71.215881</ele>
<time>2011-04-27T09:13:41Z</time>
<desc>lat.=22.182934, lon.=104.357185, Alt.=71.215881m. Speed=6.408000m/h.</desc>
<speed>1.780000</speed>
</trkpt>
<trkpt lat="22.182966" lon="104.357292">
<ele>71.792053</ele>
<time>2011-04-27T09:13:46Z</time>
<desc>lat.=22.182966, lon.=104.357292, Alt.=71.792053m. Speed=5.472000m/h.</desc>
<speed>1.520000</speed>
</trkpt>
<trkpt lat="22.183004" lon="104.357346">
<ele>72.670959</ele>
<time>2011-04-27T09:13:51Z</time>
<desc>lat.=22.183004, lon.=104.357346, Alt.=72.670959m. Speed=3.276000m/h.</desc>
<speed>0.910000</speed>
</trkpt>
<trkpt lat="22.182987" lon="104.357437">
<ele>73.997131</ele>
<time>2011-04-27T09:13:56Z</time>
<desc>lat.=22.182987, lon.=104.357437, Alt.=73.997131m. Speed=5.796000m/h.</desc>
<speed>1.610000</speed>
</trkpt>
<trkpt lat="22.182983" lon="104.357582">
<ele>75.405334</ele>
<time>2011-04-27T09:14:01Z</time>
<desc>lat.=22.182983, lon.=104.357582, Alt.=75.405334m. Speed=5.580000m/h.</desc>
<speed>1.550000</speed>
</trkpt>
<trkpt lat="22.182938" lon="104.357727">
<ele>77.184631</ele>
<time>2011-04-27T09:14:06Z</time>
<desc>lat.=22.182938, lon.=104.357727, Alt.=77.184631m. Speed=5.472000m/h.</desc>
<speed>1.520000</speed>
</trkpt>
<trkpt lat="22.182934" lon="104.357849">
<ele>78.754944</ele>
<time>2011-04-27T09:14:11Z</time>
<desc>lat.=22.182934, lon.=104.357849, Alt.=78.754944m. Speed=7.812000m/h.</desc>
<speed>2.170000</speed>
</trkpt>
<trkpt lat="22.182932" lon="104.357979">
<ele>80.243225</ele>
<time>2011-04-27T09:14:16Z</time>
<desc>lat.=22.182932, lon.=104.357979, Alt.=80.243225m. Speed=7.668000m/h.</desc>
<speed>2.130000</speed>
</trkpt>
<trkpt lat="22.182936" lon="104.358070">
<ele>81.182678</ele>
<time>2011-04-27T09:14:21Z</time>
<desc>lat.=22.182936, lon.=104.358070, Alt.=81.182678m. Speed=7.200000m/h.</desc>
<speed>2.000000</speed>
</trkpt>
<trkpt lat="22.182993" lon="104.358292">
<ele>82.960022</ele>
<time>2011-04-27T09:14:26Z</time>
<desc>lat.=22.182993, lon.=104.358292, Alt.=82.960022m. Speed=13.680000m/h.</desc>
<speed>3.800000</speed>
</trkpt>
<trkpt lat="22.183107" lon="104.358467">
<ele>84.743225</ele>
<time>2011-04-27T09:14:31Z</time>
<desc>lat.=22.183107, lon.=104.358467, Alt.=84.743225m. Speed=13.212000m/h.</desc>
<speed>3.670000</speed>
</trkpt>
<trkpt lat="22.183182" lon="104.358604">
<ele>85.961975</ele>
<time>2011-04-27T09:14:36Z</time>
<desc>lat.=22.183182, lon.=104.358604, Alt.=85.961975m. Speed=9.576000m/h.</desc>
<speed>2.660000</speed>
</trkpt>
<trkpt lat="22.183249" lon="104.358711">
<ele>86.499084</ele>
<time>2011-04-27T09:14:41Z</time>
<desc>lat.=22.183249, lon.=104.358711, Alt.=86.499084m. Speed=8.352000m/h.</desc>
<speed>2.320000</speed>
</trkpt>
<trkpt lat="22.183392" lon="104.358910">
<ele>87.801819</ele>
<time>2011-04-27T09:14:46Z</time>
<desc>lat.=22.183392, lon.=104.358910, Alt.=87.801819m. Speed=13.392000m/h.</desc>
<speed>3.720000</speed>
</trkpt>
<trkpt lat="22.183493" lon="104.359055">
<ele>88.762756</ele>
<time>2011-04-27T09:14:51Z</time>
<desc>lat.=22.183493, lon.=104.359055, Alt.=88.762756m. Speed=12.240000m/h.</desc>
<speed>3.400000</speed>
</trkpt>
<trkpt lat="22.183588" lon="104.359207">
<ele>90.178772</ele>
<time>2011-04-27T09:14:56Z</time>
<desc>lat.=22.183588, lon.=104.359207, Alt.=90.178772m. Speed=12.924000m/h.</desc>
<speed>3.590000</speed>
</trkpt>
<trkpt lat="22.183619" lon="104.359344">
<ele>91.430725</ele>
<time>2011-04-27T09:15:01Z</time>
<desc>lat.=22.183619, lon.=104.359344, Alt.=91.430725m. Speed=11.016000m/h.</desc>
<speed>3.060000</speed>
</trkpt>
<trkpt lat="22.183603" lon="104.359573">
<ele>91.938538</ele>
<time>2011-04-27T09:15:06Z</time>
<desc>lat.=22.183603, lon.=104.359573, Alt.=91.938538m. Speed=12.924000m/h.</desc>
<speed>3.590000</speed>
</trkpt>
<trkpt lat="22.183559" lon="104.359802">
<ele>94.174866</ele>
<time>2011-04-27T09:15:11Z</time>
<desc>lat.=22.183559, lon.=104.359802, Alt.=94.174866m. Speed=11.916000m/h.</desc>
<speed>3.310000</speed>
</trkpt>
<trkpt lat="22.183466" lon="104.359962">
<ele>96.194397</ele>
<time>2011-04-27T09:15:16Z</time>
<desc>lat.=22.183466, lon.=104.359962, Alt.=96.194397m. Speed=11.556000m/h.</desc>
<speed>3.210000</speed>
</trkpt>
<trkpt lat="22.183342" lon="104.360168">
<ele>99.366272</ele>
<time>2011-04-27T09:15:21Z</time>
<desc>lat.=22.183342, lon.=104.360168, Alt.=99.366272m. Speed=11.808000m/h.</desc>
<speed>3.280000</speed>
</trkpt>
<trkpt lat="22.183235" lon="104.360405">
<ele>102.448303</ele>
<time>2011-04-27T09:15:26Z</time>
<desc>lat.=22.183235, lon.=104.360405, Alt.=102.448303m. Speed=16.775999m/h.</desc>
<speed>4.660000</speed>
</trkpt>
<trkpt lat="22.183117" lon="104.360603">
<ele>104.229553</ele>
<time>2011-04-27T09:15:31Z</time>
<desc>lat.=22.183117, lon.=104.360603, Alt.=104.229553m. Speed=13.212000m/h.</desc>
<speed>3.670000</speed>
</trkpt>
<trkpt lat="22.182978" lon="104.360771">
<ele>102.192444</ele>
<time>2011-04-27T09:15:36Z</time>
<desc>lat.=22.182978, lon.=104.360771, Alt.=102.192444m. Speed=9.936000m/h.</desc>
<speed>2.760000</speed>
</trkpt>
<trkpt lat="22.182884" lon="104.360886">
<ele>100.165100</ele>
<time>2011-04-27T09:15:41Z</time>
<desc>lat.=22.182884, lon.=104.360886, Alt.=100.165100m. Speed=4.392000m/h.</desc>
<speed>1.220000</speed>
</trkpt>
<trkpt lat="22.182819" lon="104.360962">
<ele>95.956116</ele>
<time>2011-04-27T09:15:46Z</time>
<desc>lat.=22.182819, lon.=104.360962, Alt.=95.956116m. Speed=3.708000m/h.</desc>
<speed>1.030000</speed>
</trkpt>
<trkpt lat="22.182745" lon="104.361069">
<ele>92.567444</ele>
<time>2011-04-27T09:15:51Z</time>
<desc>lat.=22.182745, lon.=104.361069, Alt.=92.567444m. Speed=4.968000m/h.</desc>
<speed>1.380000</speed>
</trkpt>
<trkpt lat="22.182690" lon="104.361137">
<ele>87.895569</ele>
<time>2011-04-27T09:15:56Z</time>
<desc>lat.=22.182690, lon.=104.361137, Alt.=87.895569m. Speed=3.528000m/h.</desc>
<speed>0.980000</speed>
</trkpt>
<trkpt lat="22.182724" lon="104.361229">
<ele>87.893616</ele>
<time>2011-04-27T09:16:01Z</time>
<desc>lat.=22.182724, lon.=104.361229, Alt.=87.893616m. Speed=4.392000m/h.</desc>
<speed>1.220000</speed>
</trkpt>
<trkpt lat="22.182688" lon="104.361366">
<ele>84.997131</ele>
<time>2011-04-27T09:16:06Z</time>
<desc>lat.=22.182688, lon.=104.361366, Alt.=84.997131m. Speed=8.172000m/h.</desc>
<speed>2.270000</speed>
</trkpt>
<trkpt lat="22.182743" lon="104.361526">
<ele>83.129944</ele>
<time>2011-04-27T09:16:11Z</time>
<desc>lat.=22.182743, lon.=104.361526, Alt.=83.129944m. Speed=10.908000m/h.</desc>
<speed>3.030000</speed>
</trkpt>
<trkpt lat="22.182817" lon="104.361679">
<ele>81.469788</ele>
<time>2011-04-27T09:16:16Z</time>
<desc>lat.=22.182817, lon.=104.361679, Alt.=81.469788m. Speed=9.936000m/h.</desc>
<speed>2.760000</speed>
</trkpt>
<trkpt lat="22.182863" lon="104.361801">
<ele>79.467834</ele>
<time>2011-04-27T09:16:21Z</time>
<desc>lat.=22.182863, lon.=104.361801, Alt.=79.467834m. Speed=9.900000m/h.</desc>
<speed>2.750000</speed>
</trkpt>
<trkpt lat="22.182922" lon="104.361938">
<ele>78.604553</ele>
<time>2011-04-27T09:16:26Z</time>
<desc>lat.=22.182922, lon.=104.361938, Alt.=78.604553m. Speed=11.232000m/h.</desc>
<speed>3.120000</speed>
</trkpt>
<trkpt lat="22.182997" lon="104.362061">
<ele>77.663147</ele>
<time>2011-04-27T09:16:31Z</time>
<desc>lat.=22.182997, lon.=104.362061, Alt.=77.663147m. Speed=9.684000m/h.</desc>
<speed>2.690000</speed>
</trkpt>
<trkpt lat="22.183084" lon="104.362206">
<ele>77.069397</ele>
<time>2011-04-27T09:16:36Z</time>
<desc>lat.=22.183084, lon.=104.362206, Alt.=77.069397m. Speed=10.080000m/h.</desc>
<speed>2.800000</speed>
</trkpt>
<trkpt lat="22.183155" lon="104.362358">
<ele>76.825256</ele>
<time>2011-04-27T09:16:41Z</time>
<desc>lat.=22.183155, lon.=104.362358, Alt.=76.825256m. Speed=10.224000m/h.</desc>
<speed>2.840000</speed>
</trkpt>
<trkpt lat="22.183201" lon="104.362518">
<ele>76.592834</ele>
<time>2011-04-27T09:16:46Z</time>
<desc>lat.=22.183201, lon.=104.362518, Alt.=76.592834m. Speed=7.272000m/h.</desc>
<speed>2.020000</speed>
</trkpt>
<trkpt lat="22.183275" lon="104.362602">
<ele>76.102600</ele>
<time>2011-04-27T09:16:51Z</time>
<desc>lat.=22.183275, lon.=104.362602, Alt.=76.102600m. Speed=6.084000m/h.</desc>
<speed>1.690000</speed>
</trkpt>
<trkpt lat="22.183365" lon="104.362679">
<ele>75.766663</ele>
<time>2011-04-27T09:16:56Z</time>
<desc>lat.=22.183365, lon.=104.362679, Alt.=75.766663m. Speed=7.704000m/h.</desc>
<speed>2.140000</speed>
</trkpt>
<trkpt lat="22.183392" lon="104.362831">
<ele>76.409241</ele>
<time>2011-04-27T09:17:01Z</time>
<desc>lat.=22.183392, lon.=104.362831, Alt.=76.409241m. Speed=6.948000m/h.</desc>
<speed>1.930000</speed>
</trkpt>
<trkpt lat="22.183357" lon="104.363014">
<ele>77.254944</ele>
<time>2011-04-27T09:17:06Z</time>
<desc>lat.=22.183357, lon.=104.363014, Alt.=77.254944m. Speed=6.588000m/h.</desc>
<speed>1.830000</speed>
</trkpt>
<trkpt lat="22.183374" lon="104.363136">
<ele>77.303772</ele>
<time>2011-04-27T09:17:11Z</time>
<desc>lat.=22.183374, lon.=104.363136, Alt.=77.303772m. Speed=7.056000m/h.</desc>
<speed>1.960000</speed>
</trkpt>
<trkpt lat="22.183371" lon="104.363258">
<ele>77.434631</ele>
<time>2011-04-27T09:17:16Z</time>
<desc>lat.=22.183371, lon.=104.363258, Alt.=77.434631m. Speed=5.364000m/h.</desc>
<speed>1.490000</speed>
</trkpt>
<trkpt lat="22.183432" lon="104.363426">
<ele>77.122131</ele>
<time>2011-04-27T09:17:21Z</time>
<desc>lat.=22.183432, lon.=104.363426, Alt.=77.122131m. Speed=10.188000m/h.</desc>
<speed>2.830000</speed>
</trkpt>
<trkpt lat="22.183537" lon="104.363541">
<ele>77.653381</ele>
<time>2011-04-27T09:17:26Z</time>
<desc>lat.=22.183537, lon.=104.363541, Alt.=77.653381m. Speed=8.352000m/h.</desc>
<speed>2.320000</speed>
</trkpt>
<trkpt lat="22.183640" lon="104.363632">
<ele>77.674866</ele>
<time>2011-04-27T09:17:31Z</time>
<desc>lat.=22.183640, lon.=104.363632, Alt.=77.674866m. Speed=8.964000m/h.</desc>
<speed>2.490000</speed>
</trkpt>
<trkpt lat="22.183725" lon="104.363716">
<ele>77.590881</ele>
<time>2011-04-27T09:17:36Z</time>
<desc>lat.=22.183725, lon.=104.363716, Alt.=77.590881m. Speed=9.864000m/h.</desc>
<speed>2.740000</speed>
</trkpt>
<trkpt lat="22.183851" lon="104.363831">
<ele>77.106506</ele>
<time>2011-04-27T09:17:41Z</time>
<desc>lat.=22.183851, lon.=104.363831, Alt.=77.106506m. Speed=8.820000m/h.</desc>
<speed>2.450000</speed>
</trkpt>
<trkpt lat="22.183935" lon="104.363876">
<ele>77.153381</ele>
<time>2011-04-27T09:17:46Z</time>
<desc>lat.=22.183935, lon.=104.363876, Alt.=77.153381m. Speed=6.156000m/h.</desc>
<speed>1.710000</speed>
</trkpt>
<trkpt lat="22.184076" lon="104.363907">
<ele>77.862366</ele>
<time>2011-04-27T09:17:51Z</time>
<desc>lat.=22.184076, lon.=104.363907, Alt.=77.862366m. Speed=9.144000m/h.</desc>
<speed>2.540000</speed>
</trkpt>
<trkpt lat="22.184189" lon="104.363976">
<ele>78.899475</ele>
<time>2011-04-27T09:17:56Z</time>
<desc>lat.=22.184189, lon.=104.363976, Alt.=78.899475m. Speed=10.944000m/h.</desc>
<speed>3.040000</speed>
</trkpt>
<trkpt lat="22.184185" lon="104.364098">
<ele>77.596741</ele>
<time>2011-04-27T09:18:01Z</time>
<desc>lat.=22.184185, lon.=104.364098, Alt.=77.596741m. Speed=8.640000m/h.</desc>
<speed>2.400000</speed>
</trkpt>
<trkpt lat="22.184206" lon="104.364250">
<ele>79.270569</ele>
<time>2011-04-27T09:18:06Z</time>
<desc>lat.=22.184206, lon.=104.364250, Alt.=79.270569m. Speed=11.052000m/h.</desc>
<speed>3.070000</speed>
</trkpt>
<trkpt lat="22.184179" lon="104.364410">
<ele>80.126038</ele>
<time>2011-04-27T09:18:11Z</time>
<desc>lat.=22.184179, lon.=104.364410, Alt.=80.126038m. Speed=9.576000m/h.</desc>
<speed>2.660000</speed>
</trkpt>
<trkpt lat="22.184122" lon="104.364555">
<ele>80.153381</ele>
<time>2011-04-27T09:18:16Z</time>
<desc>lat.=22.184122, lon.=104.364555, Alt.=80.153381m. Speed=10.188000m/h.</desc>
<speed>2.830000</speed>
</trkpt>
<trkpt lat="22.184067" lon="104.364700">
<ele>81.045959</ele>
<time>2011-04-27T09:18:21Z</time>
<desc>lat.=22.184067, lon.=104.364700, Alt.=81.045959m. Speed=9.540000m/h.</desc>
<speed>2.650000</speed>
</trkpt>
<trkpt lat="22.184008" lon="104.364845">
<ele>82.176819</ele>
<time>2011-04-27T09:18:26Z</time>
<desc>lat.=22.184008, lon.=104.364845, Alt.=82.176819m. Speed=9.576000m/h.</desc>
<speed>2.660000</speed>
</trkpt>
<trkpt lat="22.183945" lon="104.364967">
<ele>82.381897</ele>
<time>2011-04-27T09:18:31Z</time>
<desc>lat.=22.183945, lon.=104.364967, Alt.=82.381897m. Speed=9.108000m/h.</desc>
<speed>2.530000</speed>
</trkpt>
<trkpt lat="22.183886" lon="104.365112">
<ele>80.034241</ele>
<time>2011-04-27T09:18:36Z</time>
<desc>lat.=22.183886, lon.=104.365112, Alt.=80.034241m. Speed=9.612000m/h.</desc>
<speed>2.670000</speed>
</trkpt>
<trkpt lat="22.183796" lon="104.365219">
<ele>80.086975</ele>
<time>2011-04-27T09:18:41Z</time>
<desc>lat.=22.183796, lon.=104.365219, Alt.=80.086975m. Speed=10.764000m/h.</desc>
<speed>2.990000</speed>
</trkpt>
<trkpt lat="22.183699" lon="104.365326">
<ele>83.770569</ele>
<time>2011-04-27T09:18:46Z</time>
<desc>lat.=22.183699, lon.=104.365326, Alt.=83.770569m. Speed=10.476000m/h.</desc>
<speed>2.910000</speed>
</trkpt>
<trkpt lat="22.183588" lon="104.365417">
<ele>79.561584</ele>
<time>2011-04-27T09:18:51Z</time>
<desc>lat.=22.183588, lon.=104.365417, Alt.=79.561584m. Speed=9.864000m/h.</desc>
<speed>2.740000</speed>
</trkpt>
<trkpt lat="22.183481" lon="104.365517">
<ele>74.290100</ele>
<time>2011-04-27T09:18:56Z</time>
<desc>lat.=22.183481, lon.=104.365517, Alt.=74.290100m. Speed=9.360000m/h.</desc>
<speed>2.600000</speed>
</trkpt>
<trkpt lat="22.183390" lon="104.365608">
<ele>74.807678</ele>
<time>2011-04-27T09:19:01Z</time>
<desc>lat.=22.183390, lon.=104.365608, Alt.=74.807678m. Speed=11.052000m/h.</desc>
<speed>3.070000</speed>
</trkpt>
<trkpt lat="22.183289" lon="104.365692">
<ele>76.682678</ele>
<time>2011-04-27T09:19:06Z</time>
<desc>lat.=22.183289, lon.=104.365692, Alt.=76.682678m. Speed=9.792000m/h.</desc>
<speed>2.720000</speed>
</trkpt>
<trkpt lat="22.183191" lon="104.365784">
<ele>81.971741</ele>
<time>2011-04-27T09:19:11Z</time>
<desc>lat.=22.183191, lon.=104.365784, Alt.=81.971741m. Speed=10.800000m/h.</desc>
<speed>3.000000</speed>
</trkpt>
<trkpt lat="22.183088" lon="104.365883">
<ele>87.063538</ele>
<time>2011-04-27T09:19:16Z</time>
<desc>lat.=22.183088, lon.=104.365883, Alt.=87.063538m. Speed=11.016000m/h.</desc>
<speed>3.060000</speed>
</trkpt>
<trkpt lat="22.183014" lon="104.366005">
<ele>88.700256</ele>
<time>2011-04-27T09:19:21Z</time>
<desc>lat.=22.183014, lon.=104.366005, Alt.=88.700256m. Speed=10.836000m/h.</desc>
<speed>3.010000</speed>
</trkpt>
<trkpt lat="22.182941" lon="104.366158">
<ele>90.788147</ele>
<time>2011-04-27T09:19:26Z</time>
<desc>lat.=22.182941, lon.=104.366158, Alt.=90.788147m. Speed=12.780000m/h.</desc>
<speed>3.550000</speed>
</trkpt>
<trkpt lat="22.182899" lon="104.366318">
<ele>90.928772</ele>
<time>2011-04-27T09:19:31Z</time>
<desc>lat.=22.182899, lon.=104.366318, Alt.=90.928772m. Speed=15.156000m/h.</desc>
<speed>4.210000</speed>
</trkpt>
<trkpt lat="22.182898" lon="104.366493">
<ele>91.838928</ele>
<time>2011-04-27T09:19:36Z</time>
<desc>lat.=22.182898, lon.=104.366493, Alt.=91.838928m. Speed=12.492000m/h.</desc>
<speed>3.470000</speed>
</trkpt>
<trkpt lat="22.182899" lon="104.366646">
<ele>92.711975</ele>
<time>2011-04-27T09:19:41Z</time>
<desc>lat.=22.182899, lon.=104.366646, Alt.=92.711975m. Speed=9.720000m/h.</desc>
<speed>2.700000</speed>
</trkpt>
<trkpt lat="22.182896" lon="104.366745">
<ele>90.667053</ele>
<time>2011-04-27T09:19:46Z</time>
<desc>lat.=22.182896, lon.=104.366745, Alt.=90.667053m. Speed=7.452000m/h.</desc>
<speed>2.070000</speed>
</trkpt>
<trkpt lat="22.182907" lon="104.366890">
<ele>89.510803</ele>
<time>2011-04-27T09:19:51Z</time>
<desc>lat.=22.182907, lon.=104.366890, Alt.=89.510803m. Speed=11.808000m/h.</desc>
<speed>3.280000</speed>
</trkpt>
<trkpt lat="22.182911" lon="104.367058">
<ele>91.200256</ele>
<time>2011-04-27T09:19:56Z</time>
<desc>lat.=22.182911, lon.=104.367058, Alt.=91.200256m. Speed=13.464000m/h.</desc>
<speed>3.740000</speed>
</trkpt>
<trkpt lat="22.182920" lon="104.367249">
<ele>91.176819</ele>
<time>2011-04-27T09:20:01Z</time>
<desc>lat.=22.182920, lon.=104.367249, Alt.=91.176819m. Speed=12.420000m/h.</desc>
<speed>3.450000</speed>
</trkpt>
<trkpt lat="22.182949" lon="104.367393">
<ele>90.651428</ele>
<time>2011-04-27T09:20:06Z</time>
<desc>lat.=22.182949, lon.=104.367393, Alt.=90.651428m. Speed=14.796000m/h.</desc>
<speed>4.110000</speed>
</trkpt>
<trkpt lat="22.182959" lon="104.367561">
<ele>92.540100</ele>
<time>2011-04-27T09:20:11Z</time>
<desc>lat.=22.182959, lon.=104.367561, Alt.=92.540100m. Speed=12.672000m/h.</desc>
<speed>3.520000</speed>
</trkpt>
<trkpt lat="22.182961" lon="104.367722">
<ele>92.297913</ele>
<time>2011-04-27T09:20:16Z</time>
<desc>lat.=22.182961, lon.=104.367722, Alt.=92.297913m. Speed=10.224000m/h.</desc>
<speed>2.840000</speed>
</trkpt>
<trkpt lat="22.182968" lon="104.367844">
<ele>90.346741</ele>
<time>2011-04-27T09:20:21Z</time>
<desc>lat.=22.182968, lon.=104.367844, Alt.=90.346741m. Speed=7.524000m/h.</desc>
<speed>2.090000</speed>
</trkpt>
<trkpt lat="22.182976" lon="104.367950">
<ele>91.756897</ele>
<time>2011-04-27T09:20:26Z</time>
<desc>lat.=22.182976, lon.=104.367950, Alt.=91.756897m. Speed=6.516000m/h.</desc>
<speed>1.810000</speed>
</trkpt>
<trkpt lat="22.182976" lon="104.368065">
<ele>89.342834</ele>
<time>2011-04-27T09:20:31Z</time>
<desc>lat.=22.182976, lon.=104.368065, Alt.=89.342834m. Speed=6.408000m/h.</desc>
<speed>1.780000</speed>
</trkpt>
<trkpt lat="22.183025" lon="104.368172">
<ele>88.516663</ele>
<time>2011-04-27T09:20:36Z</time>
<desc>lat.=22.183025, lon.=104.368172, Alt.=88.516663m. Speed=8.640000m/h.</desc>
<speed>2.400000</speed>
</trkpt>
<trkpt lat="22.183113" lon="104.368240">
<ele>88.133850</ele>
<time>2011-04-27T09:20:41Z</time>
<desc>lat.=22.183113, lon.=104.368240, Alt.=88.133850m. Speed=6.660000m/h.</desc>
<speed>1.850000</speed>
</trkpt>
<trkpt lat="22.183201" lon="104.368279">
<ele>87.678772</ele>
<time>2011-04-27T09:20:46Z</time>
<desc>lat.=22.183201, lon.=104.368279, Alt.=87.678772m. Speed=8.028000m/h.</desc>
<speed>2.230000</speed>
</trkpt>
<trkpt lat="22.183300" lon="104.368294">
<ele>87.102600</ele>
<time>2011-04-27T09:20:51Z</time>
<desc>lat.=22.183300, lon.=104.368294, Alt.=87.102600m. Speed=7.740000m/h.</desc>
<speed>2.150000</speed>
</trkpt>
<trkpt lat="22.183395" lon="104.368317">
<ele>86.393616</ele>
<time>2011-04-27T09:20:56Z</time>
<desc>lat.=22.183395, lon.=104.368317, Alt.=86.393616m. Speed=7.344000m/h.</desc>
<speed>2.040000</speed>
</trkpt>
<trkpt lat="22.183487" lon="104.368355">
<ele>87.262756</ele>
<time>2011-04-27T09:21:01Z</time>
<desc>lat.=22.183487, lon.=104.368355, Alt.=87.262756m. Speed=4.464000m/h.</desc>
<speed>1.240000</speed>
</trkpt>
<trkpt lat="22.183571" lon="104.368378">
<ele>85.600647</ele>
<time>2011-04-27T09:21:06Z</time>
<desc>lat.=22.183571, lon.=104.368378, Alt.=85.600647m. Speed=5.400000m/h.</desc>
<speed>1.500000</speed>
</trkpt>
<trkpt lat="22.183649" lon="104.368378">
<ele>84.782288</ele>
<time>2011-04-27T09:21:11Z</time>
<desc>lat.=22.183649, lon.=104.368378, Alt.=84.782288m. Speed=4.392000m/h.</desc>
<speed>1.220000</speed>
</trkpt>
<trkpt lat="22.183714" lon="104.368362">
<ele>84.391663</ele>
<time>2011-04-27T09:21:16Z</time>
<desc>lat.=22.183714, lon.=104.368362, Alt.=84.391663m. Speed=5.400000m/h.</desc>
<speed>1.500000</speed>
</trkpt>
<trkpt lat="22.183788" lon="104.368393">
<ele>84.336975</ele>
<time>2011-04-27T09:21:21Z</time>
<desc>lat.=22.183788, lon.=104.368393, Alt.=84.336975m. Speed=5.688000m/h.</desc>
<speed>1.580000</speed>
</trkpt>
<trkpt lat="22.183846" lon="104.368423">
<ele>85.647522</ele>
<time>2011-04-27T09:21:26Z</time>
<desc>lat.=22.183846, lon.=104.368423, Alt.=85.647522m. Speed=3.420000m/h.</desc>
<speed>0.950000</speed>
</trkpt>
<trkpt lat="22.183905" lon="104.368454">
<ele>86.823303</ele>
<time>2011-04-27T09:21:31Z</time>
<desc>lat.=22.183905, lon.=104.368454, Alt.=86.823303m. Speed=3.312000m/h.</desc>
<speed>0.920000</speed>
</trkpt>
<trkpt lat="22.183912" lon="104.368469">
<ele>86.184631</ele>
<time>2011-04-27T09:21:36Z</time>
<desc>lat.=22.183912, lon.=104.368469, Alt.=86.184631m. Speed=0.216000m/h.</desc>
<speed>0.060000</speed>
</trkpt>
<trkpt lat="22.183912" lon="104.368462">
<ele>86.444397</ele>
<time>2011-04-27T09:21:41Z</time>
<desc>lat.=22.183912, lon.=104.368462, Alt.=86.444397m. Speed=0.576000m/h.</desc>
<speed>0.160000</speed>
</trkpt>
<trkpt lat="22.183910" lon="104.368462">
<ele>86.592834</ele>
<time>2011-04-27T09:21:46Z</time>
<desc>lat.=22.183910, lon.=104.368462, Alt.=86.592834m. Speed=0.108000m/h.</desc>
<speed>0.030000</speed>
</trkpt>
<trkpt lat="22.183908" lon="104.368462">
<ele>86.614319</ele>
<time>2011-04-27T09:21:51Z</time>
<desc>lat.=22.183908, lon.=104.368462, Alt.=86.614319m. Speed=0.324000m/h.</desc>
<speed>0.090000</speed>
</trkpt>
<trkpt lat="22.183908" lon="104.368462">
<ele>86.544006</ele>
<time>2011-04-27T09:21:56Z</time>
<desc>lat.=22.183908, lon.=104.368462, Alt.=86.544006m. Speed=0.036000m/h.</desc>
<speed>0.010000</speed>
</trkpt>
<trkpt lat="22.183908" lon="104.368462">
<ele>86.395569</ele>
<time>2011-04-27T09:22:01Z</time>
<desc>lat.=22.183908, lon.=104.368462, Alt.=86.395569m. Speed=0.144000m/h.</desc>
<speed>0.040000</speed>
</trkpt>
<trkpt lat="22.183908" lon="104.368469">
<ele>86.350647</ele>
<time>2011-04-27T09:22:06Z</time>
<desc>lat.=22.183908, lon.=104.368469, Alt.=86.350647m. Speed=0.612000m/h.</desc>
<speed>0.170000</speed>
</trkpt>
<trkpt lat="22.183910" lon="104.368469">
<ele>86.241272</ele>
<time>2011-04-27T09:22:11Z</time>
<desc>lat.=22.183910, lon.=104.368469, Alt.=86.241272m. Speed=0.180000m/h.</desc>
<speed>0.050000</speed>
</trkpt>
<trkpt lat="22.183910" lon="104.368469">
<ele>86.270569</ele>
<time>2011-04-27T09:22:16Z</time>
<desc>lat.=22.183910, lon.=104.368469, Alt.=86.270569m. Speed=0.108000m/h.</desc>
<speed>0.030000</speed>
</trkpt>
<trkpt lat="22.183910" lon="104.368469">
<ele>86.313538</ele>
<time>2011-04-27T09:22:21Z</time>
<desc>lat.=22.183910, lon.=104.368469, Alt.=86.313538m. Speed=0.036000m/h.</desc>
<speed>0.010000</speed>
</trkpt>
<trkpt lat="22.183912" lon="104.368469">
<ele>86.336975</ele>
<time>2011-04-27T09:22:26Z</time>
<desc>lat.=22.183912, lon.=104.368469, Alt.=86.336975m. Speed=0.108000m/h.</desc>
<speed>0.030000</speed>
</trkpt>
<trkpt lat="22.183912" lon="104.368469">
<ele>86.362366</ele>
<time>2011-04-27T09:22:31Z</time>
<desc>lat.=22.183912, lon.=104.368469, Alt.=86.362366m. Speed=0.036000m/h.</desc>
<speed>0.010000</speed>
</trkpt>
<trkpt lat="22.183912" lon="104.368469">
<ele>86.379944</ele>
<time>2011-04-27T09:22:36Z</time>
<desc>lat.=22.183912, lon.=104.368469, Alt.=86.379944m. Speed=0.000000m/h.</desc>
<speed>0.000000</speed>
</trkpt>
<trkpt lat="22.183912" lon="104.368469">
<ele>86.407288</ele>
<time>2011-04-27T09:22:41Z</time>
<desc>lat.=22.183912, lon.=104.368469, Alt.=86.407288m. Speed=0.072000m/h.</desc>
<speed>0.020000</speed>
</trkpt>
<trkpt lat="22.183912" lon="104.368469">
<ele>86.452209</ele>
<time>2011-04-27T09:22:46Z</time>
<desc>lat.=22.183912, lon.=104.368469, Alt.=86.452209m. Speed=0.036000m/h.</desc>
<speed>0.010000</speed>
</trkpt>
<trkpt lat="22.183912" lon="104.368469">
<ele>86.487366</ele>
<time>2011-04-27T09:22:51Z</time>
<desc>lat.=22.183912, lon.=104.368469, Alt.=86.487366m. Speed=0.072000m/h.</desc>
<speed>0.020000</speed>
</trkpt>
<trkpt lat="22.183914" lon="104.368469">
<ele>86.501038</ele>
<time>2011-04-27T09:22:56Z</time>
<desc>lat.=22.183914, lon.=104.368469, Alt.=86.501038m. Speed=0.036000m/h.</desc>
<speed>0.010000</speed>
</trkpt>
<trkpt lat="22.183914" lon="104.368469">
<ele>86.514709</ele>
<time>2011-04-27T09:23:01Z</time>
<desc>lat.=22.183914, lon.=104.368469, Alt.=86.514709m. Speed=0.072000m/h.</desc>
<speed>0.020000</speed>
</trkpt>
<trkpt lat="22.183914" lon="104.368469">
<ele>86.522522</ele>
<time>2011-04-27T09:23:06Z</time>
<desc>lat.=22.183914, lon.=104.368469, Alt.=86.522522m. Speed=0.072000m/h.</desc>
<speed>0.020000</speed>
</trkpt>
<trkpt lat="22.183914" lon="104.368469">
<ele>86.522522</ele>
<time>2011-04-27T09:23:11Z</time>
<desc>lat.=22.183914, lon.=104.368469, Alt.=86.522522m. Speed=0.036000m/h.</desc>
<speed>0.010000</speed>
</trkpt>
<trkpt lat="22.183914" lon="104.368469">
<ele>86.538147</ele>
<time>2011-04-27T09:23:16Z</time>
<desc>lat.=22.183914, lon.=104.368469, Alt.=86.538147m. Speed=0.000000m/h.</desc>
<speed>0.000000</speed>
</trkpt>
<trkpt lat="22.183914" lon="104.368469">
<ele>86.557678</ele>
<time>2011-04-27T09:23:21Z</time>
<desc>lat.=22.183914, lon.=104.368469, Alt.=86.557678m. Speed=0.000000m/h.</desc>
<speed>0.000000</speed>
</trkpt>
<trkpt lat="22.183914" lon="104.368469">
<ele>86.581116</ele>
<time>2011-04-27T09:23:26Z</time>
<desc>lat.=22.183914, lon.=104.368469, Alt.=86.581116m. Speed=0.072000m/h.</desc>
<speed>0.020000</speed>
</trkpt>
<trkpt lat="22.183914" lon="104.368469">
<ele>86.590881</ele>
<time>2011-04-27T09:23:31Z</time>
<desc>lat.=22.183914, lon.=104.368469, Alt.=86.590881m. Speed=0.000000m/h.</desc>
<speed>0.000000</speed>
</trkpt>
<trkpt lat="22.183914" lon="104.368469">
<ele>86.596741</ele>
<time>2011-04-27T09:23:36Z</time>
<desc>lat.=22.183914, lon.=104.368469, Alt.=86.596741m. Speed=0.072000m/h.</desc>
<speed>0.020000</speed>
</trkpt>
<trkpt lat="22.183914" lon="104.368469">
<ele>86.606506</ele>
<time>2011-04-27T09:23:41Z</time>
<desc>lat.=22.183914, lon.=104.368469, Alt.=86.606506m. Speed=0.000000m/h.</desc>
<speed>0.000000</speed>
</trkpt>
<trkpt lat="22.183914" lon="104.368469">
<ele>86.616272</ele>
<time>2011-04-27T09:23:46Z</time>
<desc>lat.=22.183914, lon.=104.368469, Alt.=86.616272m. Speed=0.000000m/h.</desc>
<speed>0.000000</speed>
</trkpt>
<trkpt lat="22.183916" lon="104.368469">
<ele>86.629944</ele>
<time>2011-04-27T09:23:51Z</time>
<desc>lat.=22.183916, lon.=104.368469, Alt.=86.629944m. Speed=0.036000m/h.</desc>
<speed>0.010000</speed>
</trkpt>
<trkpt lat="22.183916" lon="104.368469">
<ele>86.635803</ele>
<time>2011-04-27T09:23:56Z</time>
<desc>lat.=22.183916, lon.=104.368469, Alt.=86.635803m. Speed=2.232000m/h.</desc>
<speed>0.620000</speed>
</trkpt>
<trkpt lat="22.184027" lon="104.368469">
<ele>88.079163</ele>
<time>2011-04-27T09:24:01Z</time>
<desc>lat.=22.184027, lon.=104.368469, Alt.=88.079163m. Speed=9.288000m/h.</desc>
<speed>2.580000</speed>
</trkpt>
<trkpt lat="22.184155" lon="104.368492">
<ele>89.327209</ele>
<time>2011-04-27T09:24:06Z</time>
<desc>lat.=22.184155, lon.=104.368492, Alt.=89.327209m. Speed=8.136000m/h.</desc>
<speed>2.260000</speed>
</trkpt>
<trkpt lat="22.184277" lon="104.368523">
<ele>91.276428</ele>
<time>2011-04-27T09:24:11Z</time>
<desc>lat.=22.184277, lon.=104.368523, Alt.=91.276428m. Speed=9.648000m/h.</desc>
<speed>2.680000</speed>
</trkpt>
<trkpt lat="22.184395" lon="104.368561">
<ele>91.551819</ele>
<time>2011-04-27T09:24:16Z</time>
<desc>lat.=22.184395, lon.=104.368561, Alt.=91.551819m. Speed=8.460000m/h.</desc>
<speed>2.350000</speed>
</trkpt>
<trkpt lat="22.184500" lon="104.368607">
<ele>91.333069</ele>
<time>2011-04-27T09:24:21Z</time>
<desc>lat.=22.184500, lon.=104.368607, Alt.=91.333069m. Speed=8.172000m/h.</desc>
<speed>2.270000</speed>
</trkpt>
<trkpt lat="22.184605" lon="104.368660">
<ele>91.561584</ele>
<time>2011-04-27T09:24:26Z</time>
<desc>lat.=22.184605, lon.=104.368660, Alt.=91.561584m. Speed=6.948000m/h.</desc>
<speed>1.930000</speed>
</trkpt>
<trkpt lat="22.184681" lon="104.368752">
<ele>92.954163</ele>
<time>2011-04-27T09:24:31Z</time>
<desc>lat.=22.184681, lon.=104.368752, Alt.=92.954163m. Speed=7.200000m/h.</desc>
<speed>2.000000</speed>
</trkpt>
<trkpt lat="22.184753" lon="104.368805">
<ele>92.710022</ele>
<time>2011-04-27T09:24:36Z</time>
<desc>lat.=22.184753, lon.=104.368805, Alt.=92.710022m. Speed=6.552000m/h.</desc>
<speed>1.820000</speed>
</trkpt>
<trkpt lat="22.184832" lon="104.368866">
<ele>93.711975</ele>
<time>2011-04-27T09:24:41Z</time>
<desc>lat.=22.184832, lon.=104.368866, Alt.=93.711975m. Speed=7.308000m/h.</desc>
<speed>2.030000</speed>
</trkpt>
<trkpt lat="22.184916" lon="104.368958">
<ele>94.327209</ele>
<time>2011-04-27T09:24:46Z</time>
<desc>lat.=22.184916, lon.=104.368958, Alt.=94.327209m. Speed=9.180000m/h.</desc>
<speed>2.550000</speed>
</trkpt>
<trkpt lat="22.185011" lon="104.369057">
<ele>96.682678</ele>
<time>2011-04-27T09:24:51Z</time>
<desc>lat.=22.185011, lon.=104.369057, Alt.=96.682678m. Speed=7.272000m/h.</desc>
<speed>2.020000</speed>
</trkpt>
<trkpt lat="22.185101" lon="104.369141">
<ele>98.262756</ele>
<time>2011-04-27T09:24:56Z</time>
<desc>lat.=22.185101, lon.=104.369141, Alt.=98.262756m. Speed=8.784000m/h.</desc>
<speed>2.440000</speed>
</trkpt>
<trkpt lat="22.185181" lon="104.369217">
<ele>102.419006</ele>
<time>2011-04-27T09:25:01Z</time>
<desc>lat.=22.185181, lon.=104.369217, Alt.=102.419006m. Speed=8.496000m/h.</desc>
<speed>2.360000</speed>
</trkpt>
<trkpt lat="22.185249" lon="104.369286">
<ele>104.997131</ele>
<time>2011-04-27T09:25:06Z</time>
<desc>lat.=22.185249, lon.=104.369286, Alt.=104.997131m. Speed=4.032000m/h.</desc>
<speed>1.120000</speed>
</trkpt>
<trkpt lat="22.185320" lon="104.369392">
<ele>105.778381</ele>
<time>2011-04-27T09:25:11Z</time>
<desc>lat.=22.185320, lon.=104.369392, Alt.=105.778381m. Speed=9.432000m/h.</desc>
<speed>2.620000</speed>
</trkpt>
<trkpt lat="22.185419" lon="104.369484">
<ele>104.290100</ele>
<time>2011-04-27T09:25:16Z</time>
<desc>lat.=22.185419, lon.=104.369484, Alt.=104.290100m. Speed=10.008000m/h.</desc>
<speed>2.780000</speed>
</trkpt>
<trkpt lat="22.185511" lon="104.369560">
<ele>103.620178</ele>
<time>2011-04-27T09:25:21Z</time>
<desc>lat.=22.185511, lon.=104.369560, Alt.=103.620178m. Speed=9.468000m/h.</desc>
<speed>2.630000</speed>
</trkpt>
<trkpt lat="22.185583" lon="104.369644">
<ele>105.122131</ele>
<time>2011-04-27T09:25:26Z</time>
<desc>lat.=22.185583, lon.=104.369644, Alt.=105.122131m. Speed=7.164000m/h.</desc>
<speed>1.990000</speed>
</trkpt>
<trkpt lat="22.185635" lon="104.369698">
<ele>104.272522</ele>
<time>2011-04-27T09:25:31Z</time>
<desc>lat.=22.185635, lon.=104.369698, Alt.=104.272522m. Speed=5.256000m/h.</desc>
<speed>1.460000</speed>
</trkpt>
<trkpt lat="22.185694" lon="104.369759">
<ele>106.329163</ele>
<time>2011-04-27T09:25:36Z</time>
<desc>lat.=22.185694, lon.=104.369759, Alt.=106.329163m. Speed=5.364000m/h.</desc>
<speed>1.490000</speed>
</trkpt>
<trkpt lat="22.185749" lon="104.369804">
<ele>104.688538</ele>
<time>2011-04-27T09:25:41Z</time>
<desc>lat.=22.185749, lon.=104.369804, Alt.=104.688538m. Speed=6.984000m/h.</desc>
<speed>1.940000</speed>
</trkpt>
<trkpt lat="22.185823" lon="104.369896">
<ele>104.335022</ele>
<time>2011-04-27T09:25:46Z</time>
<desc>lat.=22.185823, lon.=104.369896, Alt.=104.335022m. Speed=8.280000m/h.</desc>
<speed>2.300000</speed>
</trkpt>
<trkpt lat="22.185884" lon="104.369980">
<ele>103.454163</ele>
<time>2011-04-27T09:25:51Z</time>
<desc>lat.=22.185884, lon.=104.369980, Alt.=103.454163m. Speed=7.884000m/h.</desc>
<speed>2.190000</speed>
</trkpt>
<trkpt lat="22.185923" lon="104.370094">
<ele>103.817444</ele>
<time>2011-04-27T09:25:56Z</time>
<desc>lat.=22.185923, lon.=104.370094, Alt.=103.817444m. Speed=7.344000m/h.</desc>
<speed>2.040000</speed>
</trkpt>
<trkpt lat="22.185915" lon="104.370209">
<ele>104.012756</ele>
<time>2011-04-27T09:26:01Z</time>
<desc>lat.=22.185915, lon.=104.370209, Alt.=104.012756m. Speed=8.136000m/h.</desc>
<speed>2.260000</speed>
</trkpt>
<trkpt lat="22.185883" lon="104.370331">
<ele>103.432678</ele>
<time>2011-04-27T09:26:06Z</time>
<desc>lat.=22.185883, lon.=104.370331, Alt.=103.432678m. Speed=10.008000m/h.</desc>
<speed>2.780000</speed>
</trkpt>
<trkpt lat="22.185852" lon="104.370461">
<ele>103.260803</ele>
<time>2011-04-27T09:26:11Z</time>
<desc>lat.=22.185852, lon.=104.370461, Alt.=103.260803m. Speed=8.676000m/h.</desc>
<speed>2.410000</speed>
</trkpt>
<trkpt lat="22.185829" lon="104.370575">
<ele>104.653381</ele>
<time>2011-04-27T09:26:16Z</time>
<desc>lat.=22.185829, lon.=104.370575, Alt.=104.653381m. Speed=7.668000m/h.</desc>
<speed>2.130000</speed>
</trkpt>
<trkpt lat="22.185801" lon="104.370689">
<ele>105.555725</ele>
<time>2011-04-27T09:26:21Z</time>
<desc>lat.=22.185801, lon.=104.370689, Alt.=105.555725m. Speed=9.144000m/h.</desc>
<speed>2.540000</speed>
</trkpt>
<trkpt lat="22.185787" lon="104.370796">
<ele>106.930725</ele>
<time>2011-04-27T09:26:26Z</time>
<desc>lat.=22.185787, lon.=104.370796, Alt.=106.930725m. Speed=6.732000m/h.</desc>
<speed>1.870000</speed>
</trkpt>
<trkpt lat="22.185774" lon="104.370872">
<ele>108.428772</ele>
<time>2011-04-27T09:26:31Z</time>
<desc>lat.=22.185774, lon.=104.370872, Alt.=108.428772m. Speed=7.272000m/h.</desc>
<speed>2.020000</speed>
</trkpt>
<trkpt lat="22.185816" lon="104.371002">
<ele>108.643616</ele>
<time>2011-04-27T09:26:36Z</time>
<desc>lat.=22.185816, lon.=104.371002, Alt.=108.643616m. Speed=8.784000m/h.</desc>
<speed>2.440000</speed>
</trkpt>
<trkpt lat="22.185871" lon="104.371117">
<ele>111.186584</ele>
<time>2011-04-27T09:26:41Z</time>
<desc>lat.=22.185871, lon.=104.371117, Alt.=111.186584m. Speed=5.940000m/h.</desc>
<speed>1.650000</speed>
</trkpt>
<trkpt lat="22.185921" lon="104.371223">
<ele>114.116272</ele>
<time>2011-04-27T09:26:46Z</time>
<desc>lat.=22.185921, lon.=104.371223, Alt.=114.116272m. Speed=7.740000m/h.</desc>
<speed>2.150000</speed>
</trkpt>
<trkpt lat="22.185970" lon="104.371330">
<ele>111.848694</ele>
<time>2011-04-27T09:26:51Z</time>
<desc>lat.=22.185970, lon.=104.371330, Alt.=111.848694m. Speed=6.264000m/h.</desc>
<speed>1.740000</speed>
</trkpt>
<trkpt lat="22.186016" lon="104.371414">
<ele>111.463928</ele>
<time>2011-04-27T09:26:56Z</time>
<desc>lat.=22.186016, lon.=104.371414, Alt.=111.463928m. Speed=6.768000m/h.</desc>
<speed>1.880000</speed>
</trkpt>
<trkpt lat="22.186045" lon="104.371498">
<ele>112.874084</ele>
<time>2011-04-27T09:27:01Z</time>
<desc>lat.=22.186045, lon.=104.371498, Alt.=112.874084m. Speed=5.292000m/h.</desc>
<speed>1.470000</speed>
</trkpt>
<trkpt lat="22.186081" lon="104.371574">
<ele>112.186584</ele>
<time>2011-04-27T09:27:06Z</time>
<desc>lat.=22.186081, lon.=104.371574, Alt.=112.186584m. Speed=5.796000m/h.</desc>
<speed>1.610000</speed>
</trkpt>
<trkpt lat="22.186110" lon="104.371643">
<ele>114.299866</ele>
<time>2011-04-27T09:27:11Z</time>
<desc>lat.=22.186110, lon.=104.371643, Alt.=114.299866m. Speed=4.392000m/h.</desc>
<speed>1.220000</speed>
</trkpt>
<trkpt lat="22.186125" lon="104.371719">
<ele>116.399475</ele>
<time>2011-04-27T09:27:16Z</time>
<desc>lat.=22.186125, lon.=104.371719, Alt.=116.399475m. Speed=4.896000m/h.</desc>
<speed>1.360000</speed>
</trkpt>
<trkpt lat="22.186163" lon="104.371773">
<ele>117.217834</ele>
<time>2011-04-27T09:27:21Z</time>
<desc>lat.=22.186163, lon.=104.371773, Alt.=117.217834m. Speed=5.112000m/h.</desc>
<speed>1.420000</speed>
</trkpt>
<trkpt lat="22.186193" lon="104.371849">
<ele>117.614319</ele>
<time>2011-04-27T09:27:26Z</time>
<desc>lat.=22.186193, lon.=104.371849, Alt.=117.614319m. Speed=5.292000m/h.</desc>
<speed>1.470000</speed>
</trkpt>
<trkpt lat="22.186222" lon="104.371895">
<ele>118.067444</ele>
<time>2011-04-27T09:27:31Z</time>
<desc>lat.=22.186222, lon.=104.371895, Alt.=118.067444m. Speed=4.824000m/h.</desc>
<speed>1.340000</speed>
</trkpt>
<trkpt lat="22.186262" lon="104.371956">
<ele>118.249084</ele>
<time>2011-04-27T09:27:36Z</time>
<desc>lat.=22.186262, lon.=104.371956, Alt.=118.249084m. Speed=5.508000m/h.</desc>
<speed>1.530000</speed>
</trkpt>
<trkpt lat="22.186283" lon="104.372032">
<ele>119.172913</ele>
<time>2011-04-27T09:27:41Z</time>
<desc>lat.=22.186283, lon.=104.372032, Alt.=119.172913m. Speed=5.868000m/h.</desc>
<speed>1.630000</speed>
</trkpt>
<trkpt lat="22.186319" lon="104.372093">
<ele>120.198303</ele>
<time>2011-04-27T09:27:46Z</time>
<desc>lat.=22.186319, lon.=104.372093, Alt.=120.198303m. Speed=5.004000m/h.</desc>
<speed>1.390000</speed>
</trkpt>
<trkpt lat="22.186361" lon="104.372162">
<ele>121.133850</ele>
<time>2011-04-27T09:27:51Z</time>
<desc>lat.=22.186361, lon.=104.372162, Alt.=121.133850m. Speed=5.580000m/h.</desc>
<speed>1.550000</speed>
</trkpt>
<trkpt lat="22.186426" lon="104.372269">
<ele>121.965881</ele>
<time>2011-04-27T09:27:56Z</time>
<desc>lat.=22.186426, lon.=104.372269, Alt.=121.965881m. Speed=7.632000m/h.</desc>
<speed>2.120000</speed>
</trkpt>
<trkpt lat="22.186485" lon="104.372375">
<ele>121.364319</ele>
<time>2011-04-27T09:28:01Z</time>
<desc>lat.=22.186485, lon.=104.372375, Alt.=121.364319m. Speed=8.856000m/h.</desc>
<speed>2.460000</speed>
</trkpt>
<trkpt lat="22.186552" lon="104.372505">
<ele>120.678772</ele>
<time>2011-04-27T09:28:06Z</time>
<desc>lat.=22.186552, lon.=104.372505, Alt.=120.678772m. Speed=12.492000m/h.</desc>
<speed>3.470000</speed>
</trkpt>
<trkpt lat="22.186544" lon="104.372681">
<ele>120.588928</ele>
<time>2011-04-27T09:28:11Z</time>
<desc>lat.=22.186544, lon.=104.372681, Alt.=120.588928m. Speed=14.688000m/h.</desc>
<speed>4.080000</speed>
</trkpt>
<trkpt lat="22.186497" lon="104.372887">
<ele>116.577209</ele>
<time>2011-04-27T09:28:16Z</time>
<desc>lat.=22.186497, lon.=104.372887, Alt.=116.577209m. Speed=14.292000m/h.</desc>
<speed>3.970000</speed>
</trkpt>
<trkpt lat="22.186449" lon="104.373077">
<ele>117.321350</ele>
<time>2011-04-27T09:28:21Z</time>
<desc>lat.=22.186449, lon.=104.373077, Alt.=117.321350m. Speed=12.852000m/h.</desc>
<speed>3.570000</speed>
</trkpt>
<trkpt lat="22.186481" lon="104.373207">
<ele>116.579163</ele>
<time>2011-04-27T09:28:26Z</time>
<desc>lat.=22.186481, lon.=104.373207, Alt.=116.579163m. Speed=9.828000m/h.</desc>
<speed>2.730000</speed>
</trkpt>
<trkpt lat="22.186543" lon="104.373291">
<ele>117.475647</ele>
<time>2011-04-27T09:28:31Z</time>
<desc>lat.=22.186543, lon.=104.373291, Alt.=117.475647m. Speed=8.532000m/h.</desc>
<speed>2.370000</speed>
</trkpt>
<trkpt lat="22.186630" lon="104.373360">
<ele>117.981506</ele>
<time>2011-04-27T09:28:36Z</time>
<desc>lat.=22.186630, lon.=104.373360, Alt.=117.981506m. Speed=7.344000m/h.</desc>
<speed>2.040000</speed>
</trkpt>
<trkpt lat="22.186726" lon="104.373367">
<ele>119.454163</ele>
<time>2011-04-27T09:28:41Z</time>
<desc>lat.=22.186726, lon.=104.373367, Alt.=119.454163m. Speed=8.028000m/h.</desc>
<speed>2.230000</speed>
</trkpt>
<trkpt lat="22.186829" lon="104.373398">
<ele>121.522522</ele>
<time>2011-04-27T09:28:46Z</time>
<desc>lat.=22.186829, lon.=104.373398, Alt.=121.522522m. Speed=6.408000m/h.</desc>
<speed>1.780000</speed>
</trkpt>
<trkpt lat="22.186928" lon="104.373459">
<ele>123.006897</ele>
<time>2011-04-27T09:28:51Z</time>
<desc>lat.=22.186928, lon.=104.373459, Alt.=123.006897m. Speed=9.792000m/h.</desc>
<speed>2.720000</speed>
</trkpt>
<trkpt lat="22.187004" lon="104.373535">
<ele>123.911194</ele>
<time>2011-04-27T09:28:56Z</time>
<desc>lat.=22.187004, lon.=104.373535, Alt.=123.911194m. Speed=8.460000m/h.</desc>
<speed>2.350000</speed>
</trkpt>
<trkpt lat="22.187067" lon="104.373627">
<ele>125.745178</ele>
<time>2011-04-27T09:29:01Z</time>
<desc>lat.=22.187067, lon.=104.373627, Alt.=125.745178m. Speed=7.740000m/h.</desc>
<speed>2.150000</speed>
</trkpt>
<trkpt lat="22.187130" lon="104.373718">
<ele>126.653381</ele>
<time>2011-04-27T09:29:06Z</time>
<desc>lat.=22.187130, lon.=104.373718, Alt.=126.653381m. Speed=8.352000m/h.</desc>
<speed>2.320000</speed>
</trkpt>
<trkpt lat="22.187243" lon="104.373802">
<ele>129.025513</ele>
<time>2011-04-27T09:29:11Z</time>
<desc>lat.=22.187243, lon.=104.373802, Alt.=129.025513m. Speed=7.344000m/h.</desc>
<speed>2.040000</speed>
</trkpt>
<trkpt lat="22.187325" lon="104.373894">
<ele>128.369263</ele>
<time>2011-04-27T09:29:16Z</time>
<desc>lat.=22.187325, lon.=104.373894, Alt.=128.369263m. Speed=8.388000m/h.</desc>
<speed>2.330000</speed>
</trkpt>
<trkpt lat="22.187387" lon="104.373978">
<ele>124.344788</ele>
<time>2011-04-27T09:29:21Z</time>
<desc>lat.=22.187387, lon.=104.373978, Alt.=124.344788m. Speed=8.604000m/h.</desc>
<speed>2.390000</speed>
</trkpt>
<trkpt lat="22.187489" lon="104.374001">
<ele>123.917053</ele>
<time>2011-04-27T09:29:26Z</time>
<desc>lat.=22.187489, lon.=104.374001, Alt.=123.917053m. Speed=8.928000m/h.</desc>
<speed>2.480000</speed>
</trkpt>
<trkpt lat="22.187607" lon="104.373993">
<ele>124.176819</ele>
<time>2011-04-27T09:29:31Z</time>
<desc>lat.=22.187607, lon.=104.373993, Alt.=124.176819m. Speed=9.792000m/h.</desc>
<speed>2.720000</speed>
</trkpt>
<trkpt lat="22.187727" lon="104.374008">
<ele>124.327209</ele>
<time>2011-04-27T09:29:36Z</time>
<desc>lat.=22.187727, lon.=104.374008, Alt.=124.327209m. Speed=9.504000m/h.</desc>
<speed>2.640000</speed>
</trkpt>
<trkpt lat="22.187851" lon="104.374023">
<ele>124.137756</ele>
<time>2011-04-27T09:29:41Z</time>
<desc>lat.=22.187851, lon.=104.374023, Alt.=124.137756m. Speed=10.476000m/h.</desc>
<speed>2.910000</speed>
</trkpt>
<trkpt lat="22.188019" lon="104.374039">
<ele>121.850647</ele>
<time>2011-04-27T09:29:46Z</time>
<desc>lat.=22.188019, lon.=104.374039, Alt.=121.850647m. Speed=12.600000m/h.</desc>
<speed>3.500000</speed>
</trkpt>
<trkpt lat="22.188215" lon="104.374138">
<ele>119.235413</ele>
<time>2011-04-27T09:29:51Z</time>
<desc>lat.=22.188215, lon.=104.374138, Alt.=119.235413m. Speed=17.028000m/h.</desc>
<speed>4.730000</speed>
</trkpt>
<trkpt lat="22.188387" lon="104.374344">
<ele>119.079163</ele>
<time>2011-04-27T09:29:56Z</time>
<desc>lat.=22.188387, lon.=104.374344, Alt.=119.079163m. Speed=19.980000m/h.</desc>
<speed>5.550000</speed>
</trkpt>
<trkpt lat="22.188599" lon="104.374557">
<ele>117.397522</ele>
<time>2011-04-27T09:30:01Z</time>
<desc>lat.=22.188599, lon.=104.374557, Alt.=117.397522m. Speed=21.420000m/h.</desc>
<speed>5.950000</speed>
</trkpt>
<trkpt lat="22.188789" lon="104.374718">
<ele>120.733459</ele>
<time>2011-04-27T09:30:06Z</time>
<desc>lat.=22.188789, lon.=104.374718, Alt.=120.733459m. Speed=17.604000m/h.</desc>
<speed>4.890000</speed>
</trkpt>
<trkpt lat="22.188944" lon="104.374870">
<ele>120.667053</ele>
<time>2011-04-27T09:30:11Z</time>
<desc>lat.=22.188944, lon.=104.374870, Alt.=120.667053m. Speed=14.328000m/h.</desc>
<speed>3.980000</speed>
</trkpt>
<trkpt lat="22.189064" lon="104.375015">
<ele>120.452209</ele>
<time>2011-04-27T09:30:16Z</time>
<desc>lat.=22.189064, lon.=104.375015, Alt.=120.452209m. Speed=13.068000m/h.</desc>
<speed>3.630000</speed>
</trkpt>
<trkpt lat="22.189194" lon="104.375137">
<ele>121.501038</ele>
<time>2011-04-27T09:30:21Z</time>
<desc>lat.=22.189194, lon.=104.375137, Alt.=121.501038m. Speed=11.088000m/h.</desc>
<speed>3.080000</speed>
</trkpt>
<trkpt lat="22.189312" lon="104.375229">
<ele>120.751038</ele>
<time>2011-04-27T09:30:26Z</time>
<desc>lat.=22.189312, lon.=104.375229, Alt.=120.751038m. Speed=9.288000m/h.</desc>
<speed>2.580000</speed>
</trkpt>
<trkpt lat="22.189384" lon="104.375275">
<ele>121.940491</ele>
<time>2011-04-27T09:30:31Z</time>
<desc>lat.=22.189384, lon.=104.375275, Alt.=121.940491m. Speed=5.148000m/h.</desc>
<speed>1.430000</speed>
</trkpt>
<trkpt lat="22.189409" lon="104.375282">
<ele>121.774475</ele>
<time>2011-04-27T09:30:36Z</time>
<desc>lat.=22.189409, lon.=104.375282, Alt.=121.774475m. Speed=0.540000m/h.</desc>
<speed>0.150000</speed>
</trkpt>
<trkpt lat="22.189405" lon="104.375282">
<ele>121.782288</ele>
<time>2011-04-27T09:30:41Z</time>
<desc>lat.=22.189405, lon.=104.375282, Alt.=121.782288m. Speed=0.108000m/h.</desc>
<speed>0.030000</speed>
</trkpt>
<trkpt lat="22.189411" lon="104.375282">
<ele>121.752991</ele>
<time>2011-04-27T09:30:46Z</time>
<desc>lat.=22.189411, lon.=104.375282, Alt.=121.752991m. Speed=0.180000m/h.</desc>
<speed>0.050000</speed>
</trkpt>
<trkpt lat="22.189417" lon="104.375282">
<ele>121.702209</ele>
<time>2011-04-27T09:30:51Z</time>
<desc>lat.=22.189417, lon.=104.375282, Alt.=121.702209m. Speed=0.612000m/h.</desc>
<speed>0.170000</speed>
</trkpt>
<trkpt lat="22.189421" lon="104.375282">
<ele>121.686584</ele>
<time>2011-04-27T09:30:56Z</time>
<desc>lat.=22.189421, lon.=104.375282, Alt.=121.686584m. Speed=0.216000m/h.</desc>
<speed>0.060000</speed>
</trkpt>
<trkpt lat="22.189425" lon="104.375282">
<ele>121.661194</ele>
<time>2011-04-27T09:31:01Z</time>
<desc>lat.=22.189425, lon.=104.375282, Alt.=121.661194m. Speed=0.396000m/h.</desc>
<speed>0.110000</speed>
</trkpt>
<trkpt lat="22.189428" lon="104.375282">
<ele>121.626038</ele>
<time>2011-04-27T09:31:06Z</time>
<desc>lat.=22.189428, lon.=104.375282, Alt.=121.626038m. Speed=0.216000m/h.</desc>
<speed>0.060000</speed>
</trkpt>
<trkpt lat="22.189438" lon="104.375282">
<ele>121.690491</ele>
<time>2011-04-27T09:31:11Z</time>
<desc>lat.=22.189438, lon.=104.375282, Alt.=121.690491m. Speed=2.376000m/h.</desc>
<speed>0.660000</speed>
</trkpt>
<trkpt lat="22.189503" lon="104.375328">
<ele>122.348694</ele>
<time>2011-04-27T09:31:16Z</time>
<desc>lat.=22.189503, lon.=104.375328, Alt.=122.348694m. Speed=7.416000m/h.</desc>
<speed>2.060000</speed>
</trkpt>
<trkpt lat="22.189589" lon="104.375458">
<ele>123.331116</ele>
<time>2011-04-27T09:31:21Z</time>
<desc>lat.=22.189589, lon.=104.375458, Alt.=123.331116m. Speed=11.160000m/h.</desc>
<speed>3.100000</speed>
</trkpt>
<trkpt lat="22.189627" lon="104.375626">
<ele>123.669006</ele>
<time>2011-04-27T09:31:26Z</time>
<desc>lat.=22.189627, lon.=104.375626, Alt.=123.669006m. Speed=9.432000m/h.</desc>
<speed>2.620000</speed>
</trkpt>
<trkpt lat="22.189684" lon="104.375748">
<ele>124.135803</ele>
<time>2011-04-27T09:31:31Z</time>
<desc>lat.=22.189684, lon.=104.375748, Alt.=124.135803m. Speed=8.892000m/h.</desc>
<speed>2.470000</speed>
</trkpt>
<trkpt lat="22.189793" lon="104.375801">
<ele>123.719788</ele>
<time>2011-04-27T09:31:36Z</time>
<desc>lat.=22.189793, lon.=104.375801, Alt.=123.719788m. Speed=8.496000m/h.</desc>
<speed>2.360000</speed>
</trkpt>
<trkpt lat="22.189877" lon="104.375946">
<ele>126.045959</ele>
<time>2011-04-27T09:31:41Z</time>
<desc>lat.=22.189877, lon.=104.375946, Alt.=126.045959m. Speed=16.056000m/h.</desc>
<speed>4.460000</speed>
</trkpt>
<trkpt lat="22.190073" lon="104.376137">
<ele>127.342834</ele>
<time>2011-04-27T09:31:46Z</time>
<desc>lat.=22.190073, lon.=104.376137, Alt.=127.342834m. Speed=20.052000m/h.</desc>
<speed>5.570000</speed>
</trkpt>
<trkpt lat="22.190340" lon="104.376343">
<ele>124.366272</ele>
<time>2011-04-27T09:31:51Z</time>
<desc>lat.=22.190340, lon.=104.376343, Alt.=124.366272m. Speed=25.848000m/h.</desc>
<speed>7.180000</speed>
</trkpt>
<trkpt lat="22.190561" lon="104.376633">
<ele>120.915100</ele>
<time>2011-04-27T09:31:56Z</time>
<desc>lat.=22.190561, lon.=104.376633, Alt.=120.915100m. Speed=23.184000m/h.</desc>
<speed>6.440000</speed>
</trkpt>
<trkpt lat="22.190626" lon="104.376984">
<ele>117.157288</ele>
<time>2011-04-27T09:32:01Z</time>
<desc>lat.=22.190626, lon.=104.376984, Alt.=117.157288m. Speed=27.035999m/h.</desc>
<speed>7.510000</speed>
</trkpt>
<trkpt lat="22.190376" lon="104.377380">
<ele>108.852600</ele>
<time>2011-04-27T09:32:06Z</time>
<desc>lat.=22.190376, lon.=104.377380, Alt.=108.852600m. Speed=28.332001m/h.</desc>
<speed>7.870000</speed>
</trkpt>
<trkpt lat="22.190239" lon="104.377708">
<ele>105.112366</ele>
<time>2011-04-27T09:32:11Z</time>
<desc>lat.=22.190239, lon.=104.377708, Alt.=105.112366m. Speed=24.695999m/h.</desc>
<speed>6.860000</speed>
</trkpt>
<trkpt lat="22.190174" lon="104.377930">
<ele>99.002991</ele>
<time>2011-04-27T09:32:16Z</time>
<desc>lat.=22.190174, lon.=104.377930, Alt.=99.002991m. Speed=9.324000m/h.</desc>
<speed>2.590000</speed>
</trkpt>
<trkpt lat="22.190165" lon="104.378021">
<ele>96.825256</ele>
<time>2011-04-27T09:32:21Z</time>
<desc>lat.=22.190165, lon.=104.378021, Alt.=96.825256m. Speed=7.812000m/h.</desc>
<speed>2.170000</speed>
</trkpt>
<trkpt lat="22.190193" lon="104.378151">
<ele>100.079163</ele>
<time>2011-04-27T09:32:26Z</time>
<desc>lat.=22.190193, lon.=104.378151, Alt.=100.079163m. Speed=12.384000m/h.</desc>
<speed>3.440000</speed>
</trkpt>
<trkpt lat="22.190248" lon="104.378288">
<ele>99.366272</ele>
<time>2011-04-27T09:32:31Z</time>
<desc>lat.=22.190248, lon.=104.378288, Alt.=99.366272m. Speed=11.160000m/h.</desc>
<speed>3.100000</speed>
</trkpt>
<trkpt lat="22.190315" lon="104.378471">
<ele>99.836975</ele>
<time>2011-04-27T09:32:36Z</time>
<desc>lat.=22.190315, lon.=104.378471, Alt.=99.836975m. Speed=14.688000m/h.</desc>
<speed>4.080000</speed>
</trkpt>
<trkpt lat="22.190420" lon="104.378616">
<ele>100.266663</ele>
<time>2011-04-27T09:32:41Z</time>
<desc>lat.=22.190420, lon.=104.378616, Alt.=100.266663m. Speed=13.392000m/h.</desc>
<speed>3.720000</speed>
</trkpt>
<trkpt lat="22.190577" lon="104.378731">
<ele>99.985413</ele>
<time>2011-04-27T09:32:46Z</time>
<desc>lat.=22.190577, lon.=104.378731, Alt.=99.985413m. Speed=16.271999m/h.</desc>
<speed>4.520000</speed>
</trkpt>
<trkpt lat="22.190737" lon="104.378815">
<ele>99.032288</ele>
<time>2011-04-27T09:32:51Z</time>
<desc>lat.=22.190737, lon.=104.378815, Alt.=99.032288m. Speed=12.456000m/h.</desc>
<speed>3.460000</speed>
</trkpt>
<trkpt lat="22.190876" lon="104.378906">
<ele>100.770569</ele>
<time>2011-04-27T09:32:56Z</time>
<desc>lat.=22.190876, lon.=104.378906, Alt.=100.770569m. Speed=12.492000m/h.</desc>
<speed>3.470000</speed>
</trkpt>
<trkpt lat="22.191042" lon="104.378983">
<ele>103.489319</ele>
<time>2011-04-27T09:33:01Z</time>
<desc>lat.=22.191042, lon.=104.378983, Alt.=103.489319m. Speed=13.824000m/h.</desc>
<speed>3.840000</speed>
</trkpt>
<trkpt lat="22.191217" lon="104.379074">
<ele>103.182678</ele>
<time>2011-04-27T09:33:06Z</time>
<desc>lat.=22.191217, lon.=104.379074, Alt.=103.182678m. Speed=14.364000m/h.</desc>
<speed>3.990000</speed>
</trkpt>
<trkpt lat="22.191374" lon="104.379150">
<ele>103.561584</ele>
<time>2011-04-27T09:33:11Z</time>
<desc>lat.=22.191374, lon.=104.379150, Alt.=103.561584m. Speed=13.032000m/h.</desc>
<speed>3.620000</speed>
</trkpt>
<trkpt lat="22.191513" lon="104.379234">
<ele>105.606506</ele>
<time>2011-04-27T09:33:16Z</time>
<desc>lat.=22.191513, lon.=104.379234, Alt.=105.606506m. Speed=11.448000m/h.</desc>
<speed>3.180000</speed>
</trkpt>
<trkpt lat="22.191633" lon="104.379295">
<ele>106.768616</ele>
<time>2011-04-27T09:33:21Z</time>
<desc>lat.=22.191633, lon.=104.379295, Alt.=106.768616m. Speed=11.412000m/h.</desc>
<speed>3.170000</speed>
</trkpt>
<trkpt lat="22.191761" lon="104.379372">
<ele>109.016663</ele>
<time>2011-04-27T09:33:26Z</time>
<desc>lat.=22.191761, lon.=104.379372, Alt.=109.016663m. Speed=11.016000m/h.</desc>
<speed>3.060000</speed>
</trkpt>
<trkpt lat="22.191895" lon="104.379463">
<ele>109.891663</ele>
<time>2011-04-27T09:33:31Z</time>
<desc>lat.=22.191895, lon.=104.379463, Alt.=109.891663m. Speed=11.592000m/h.</desc>
<speed>3.220000</speed>
</trkpt>
<trkpt lat="22.192024" lon="104.379562">
<ele>111.399475</ele>
<time>2011-04-27T09:33:36Z</time>
<desc>lat.=22.192024, lon.=104.379562, Alt.=111.399475m. Speed=11.304000m/h.</desc>
<speed>3.140000</speed>
</trkpt>
<trkpt lat="22.192158" lon="104.379677">
<ele>110.600647</ele>
<time>2011-04-27T09:33:41Z</time>
<desc>lat.=22.192158, lon.=104.379677, Alt.=110.600647m. Speed=14.472000m/h.</desc>
<speed>4.020000</speed>
</trkpt>
<trkpt lat="22.192265" lon="104.379807">
<ele>110.926819</ele>
<time>2011-04-27T09:33:46Z</time>
<desc>lat.=22.192265, lon.=104.379807, Alt.=110.926819m. Speed=12.204000m/h.</desc>
<speed>3.390000</speed>
</trkpt>
<trkpt lat="22.192368" lon="104.379921">
<ele>112.102600</ele>
<time>2011-04-27T09:33:51Z</time>
<desc>lat.=22.192368, lon.=104.379921, Alt.=112.102600m. Speed=11.988000m/h.</desc>
<speed>3.330000</speed>
</trkpt>
<trkpt lat="22.192505" lon="104.380043">
<ele>112.669006</ele>
<time>2011-04-27T09:33:56Z</time>
<desc>lat.=22.192505, lon.=104.380043, Alt.=112.669006m. Speed=13.788000m/h.</desc>
<speed>3.830000</speed>
</trkpt>
<trkpt lat="22.192650" lon="104.380157">
<ele>114.590881</ele>
<time>2011-04-27T09:34:01Z</time>
<desc>lat.=22.192650, lon.=104.380157, Alt.=114.590881m. Speed=11.772000m/h.</desc>
<speed>3.270000</speed>
</trkpt>
<trkpt lat="22.192795" lon="104.380249">
<ele>116.749084</ele>
<time>2011-04-27T09:34:06Z</time>
<desc>lat.=22.192795, lon.=104.380249, Alt.=116.749084m. Speed=11.772000m/h.</desc>
<speed>3.270000</speed>
</trkpt>
<trkpt lat="22.192936" lon="104.380325">
<ele>119.612366</ele>
<time>2011-04-27T09:34:11Z</time>
<desc>lat.=22.192936, lon.=104.380325, Alt.=119.612366m. Speed=11.520000m/h.</desc>
<speed>3.200000</speed>
</trkpt>
<trkpt lat="22.193048" lon="104.380402">
<ele>119.350647</ele>
<time>2011-04-27T09:34:16Z</time>
<desc>lat.=22.193048, lon.=104.380402, Alt.=119.350647m. Speed=10.008000m/h.</desc>
<speed>2.780000</speed>
</trkpt>
<trkpt lat="22.193169" lon="104.380501">
<ele>117.741272</ele>
<time>2011-04-27T09:34:21Z</time>
<desc>lat.=22.193169, lon.=104.380501, Alt.=117.741272m. Speed=10.944000m/h.</desc>
<speed>3.040000</speed>
</trkpt>
<trkpt lat="22.193264" lon="104.380615">
<ele>118.409241</ele>
<time>2011-04-27T09:34:26Z</time>
<desc>lat.=22.193264, lon.=104.380615, Alt.=118.409241m. Speed=10.836000m/h.</desc>
<speed>3.010000</speed>
</trkpt>
<trkpt lat="22.193367" lon="104.380730">
<ele>116.604553</ele>
<time>2011-04-27T09:34:31Z</time>
<desc>lat.=22.193367, lon.=104.380730, Alt.=116.604553m. Speed=10.188000m/h.</desc>
<speed>2.830000</speed>
</trkpt>
<trkpt lat="22.193438" lon="104.380844">
<ele>116.762756</ele>
<time>2011-04-27T09:34:36Z</time>
<desc>lat.=22.193438, lon.=104.380844, Alt.=116.762756m. Speed=10.152000m/h.</desc>
<speed>2.820000</speed>
</trkpt>
<trkpt lat="22.193481" lon="104.380981">
<ele>118.838928</ele>
<time>2011-04-27T09:34:41Z</time>
<desc>lat.=22.193481, lon.=104.380981, Alt.=118.838928m. Speed=9.504000m/h.</desc>
<speed>2.640000</speed>
</trkpt>
<trkpt lat="22.193512" lon="104.381104">
<ele>121.225647</ele>
<time>2011-04-27T09:34:46Z</time>
<desc>lat.=22.193512, lon.=104.381104, Alt.=121.225647m. Speed=8.892000m/h.</desc>
<speed>2.470000</speed>
</trkpt>
<trkpt lat="22.193521" lon="104.381241">
<ele>121.493225</ele>
<time>2011-04-27T09:34:51Z</time>
<desc>lat.=22.193521, lon.=104.381241, Alt.=121.493225m. Speed=9.648000m/h.</desc>
<speed>2.680000</speed>
</trkpt>
<trkpt lat="22.193527" lon="104.381371">
<ele>122.434631</ele>
<time>2011-04-27T09:34:56Z</time>
<desc>lat.=22.193527, lon.=104.381371, Alt.=122.434631m. Speed=8.820000m/h.</desc>
<speed>2.450000</speed>
</trkpt>
<trkpt lat="22.193525" lon="104.381516">
<ele>124.243225</ele>
<time>2011-04-27T09:35:01Z</time>
<desc>lat.=22.193525, lon.=104.381516, Alt.=124.243225m. Speed=10.296000m/h.</desc>
<speed>2.860000</speed>
</trkpt>
<trkpt lat="22.193502" lon="104.381683">
<ele>124.846741</ele>
<time>2011-04-27T09:35:06Z</time>
<desc>lat.=22.193502, lon.=104.381683, Alt.=124.846741m. Speed=9.072000m/h.</desc>
<speed>2.520000</speed>
</trkpt>
<trkpt lat="22.193441" lon="104.381760">
<ele>125.163147</ele>
<time>2011-04-27T09:35:11Z</time>
<desc>lat.=22.193441, lon.=104.381760, Alt.=125.163147m. Speed=5.868000m/h.</desc>
<speed>1.630000</speed>
</trkpt>
<trkpt lat="22.193396" lon="104.381805">
<ele>123.243225</ele>
<time>2011-04-27T09:35:16Z</time>
<desc>lat.=22.193396, lon.=104.381805, Alt.=123.243225m. Speed=3.096000m/h.</desc>
<speed>0.860000</speed>
</trkpt>
<trkpt lat="22.193323" lon="104.381813">
<ele>122.836975</ele>
<time>2011-04-27T09:35:21Z</time>
<desc>lat.=22.193323, lon.=104.381813, Alt.=122.836975m. Speed=6.120000m/h.</desc>
<speed>1.700000</speed>
</trkpt>
<trkpt lat="22.193289" lon="104.381798">
<ele>121.700256</ele>
<time>2011-04-27T09:35:26Z</time>
<desc>lat.=22.193289, lon.=104.381798, Alt.=121.700256m. Speed=0.540000m/h.</desc>
<speed>0.150000</speed>
</trkpt>
<trkpt lat="22.193287" lon="104.381790">
<ele>121.165100</ele>
<time>2011-04-27T09:35:31Z</time>
<desc>lat.=22.193287, lon.=104.381790, Alt.=121.165100m. Speed=0.540000m/h.</desc>
<speed>0.150000</speed>
</trkpt>
<trkpt lat="22.193285" lon="104.381790">
<ele>121.063538</ele>
<time>2011-04-27T09:35:36Z</time>
<desc>lat.=22.193285, lon.=104.381790, Alt.=121.063538m. Speed=0.180000m/h.</desc>
<speed>0.050000</speed>
</trkpt>
<trkpt lat="22.193285" lon="104.381790">
<ele>121.042053</ele>
<time>2011-04-27T09:35:41Z</time>
<desc>lat.=22.193285, lon.=104.381790, Alt.=121.042053m. Speed=0.072000m/h.</desc>
<speed>0.020000</speed>
</trkpt>
<trkpt lat="22.193281" lon="104.381790">
<ele>121.045959</ele>
<time>2011-04-27T09:35:46Z</time>
<desc>lat.=22.193281, lon.=104.381790, Alt.=121.045959m. Speed=0.108000m/h.</desc>
<speed>0.030000</speed>
</trkpt>
<trkpt lat="22.193281" lon="104.381790">
<ele>120.983459</ele>
<time>2011-04-27T09:35:51Z</time>
<desc>lat.=22.193281, lon.=104.381790, Alt.=120.983459m. Speed=0.144000m/h.</desc>
<speed>0.040000</speed>
</trkpt>
<trkpt lat="22.193283" lon="104.381790">
<ele>120.991272</ele>
<time>2011-04-27T09:35:56Z</time>
<desc>lat.=22.193283, lon.=104.381790, Alt.=120.991272m. Speed=0.216000m/h.</desc>
<speed>0.060000</speed>
</trkpt>
<trkpt lat="22.193287" lon="104.381790">
<ele>121.038147</ele>
<time>2011-04-27T09:36:01Z</time>
<desc>lat.=22.193287, lon.=104.381790, Alt.=121.038147m. Speed=0.036000m/h.</desc>
<speed>0.010000</speed>
</trkpt>
<trkpt lat="22.193287" lon="104.381790">
<ele>121.034241</ele>
<time>2011-04-27T09:36:06Z</time>
<desc>lat.=22.193287, lon.=104.381790, Alt.=121.034241m. Speed=0.072000m/h.</desc>
<speed>0.020000</speed>
</trkpt>
<trkpt lat="22.193285" lon="104.381790">
<ele>121.008850</ele>
<time>2011-04-27T09:36:11Z</time>
<desc>lat.=22.193285, lon.=104.381790, Alt.=121.008850m. Speed=0.216000m/h.</desc>
<speed>0.060000</speed>
</trkpt>
<trkpt lat="22.193277" lon="104.381783">
<ele>120.928772</ele>
<time>2011-04-27T09:36:16Z</time>
<desc>lat.=22.193277, lon.=104.381783, Alt.=120.928772m. Speed=1.044000m/h.</desc>
<speed>0.290000</speed>
</trkpt>
<trkpt lat="22.193230" lon="104.381783">
<ele>120.506897</ele>
<time>2011-04-27T09:36:21Z</time>
<desc>lat.=22.193230, lon.=104.381783, Alt.=120.506897m. Speed=7.848000m/h.</desc>
<speed>2.180000</speed>
</trkpt>
<trkpt lat="22.193041" lon="104.381836">
<ele>119.493225</ele>
<time>2011-04-27T09:36:26Z</time>
<desc>lat.=22.193041, lon.=104.381836, Alt.=119.493225m. Speed=13.680000m/h.</desc>
<speed>3.800000</speed>
</trkpt>
<trkpt lat="22.192881" lon="104.382019">
<ele>118.227600</ele>
<time>2011-04-27T09:36:31Z</time>
<desc>lat.=22.192881, lon.=104.382019, Alt.=118.227600m. Speed=17.856001m/h.</desc>
<speed>4.960000</speed>
</trkpt>
<trkpt lat="22.192923" lon="104.382355">
<ele>117.614319</ele>
<time>2011-04-27T09:36:36Z</time>
<desc>lat.=22.192923, lon.=104.382355, Alt.=117.614319m. Speed=25.308001m/h.</desc>
<speed>7.030000</speed>
</trkpt>
<trkpt lat="22.193029" lon="104.382675">
<ele>116.756897</ele>
<time>2011-04-27T09:36:41Z</time>
<desc>lat.=22.193029, lon.=104.382675, Alt.=116.756897m. Speed=21.780001m/h.</desc>
<speed>6.050000</speed>
</trkpt>
<trkpt lat="22.193249" lon="104.382797">
<ele>114.876038</ele>
<time>2011-04-27T09:36:46Z</time>
<desc>lat.=22.193249, lon.=104.382797, Alt.=114.876038m. Speed=17.639999m/h.</desc>
<speed>4.900000</speed>
</trkpt>
<trkpt lat="22.193453" lon="104.382751">
<ele>114.243225</ele>
<time>2011-04-27T09:36:51Z</time>
<desc>lat.=22.193453, lon.=104.382751, Alt.=114.243225m. Speed=13.140000m/h.</desc>
<speed>3.650000</speed>
</trkpt>
<trkpt lat="22.193567" lon="104.382759">
<ele>116.280334</ele>
<time>2011-04-27T09:36:56Z</time>
<desc>lat.=22.193567, lon.=104.382759, Alt.=116.280334m. Speed=9.576000m/h.</desc>
<speed>2.660000</speed>
</trkpt>
<trkpt lat="22.193703" lon="104.382797">
<ele>116.895569</ele>
<time>2011-04-27T09:37:01Z</time>
<desc>lat.=22.193703, lon.=104.382797, Alt.=116.895569m. Speed=11.664000m/h.</desc>
<speed>3.240000</speed>
</trkpt>
<trkpt lat="22.193855" lon="104.382843">
<ele>117.954163</ele>
<time>2011-04-27T09:37:06Z</time>
<desc>lat.=22.193855, lon.=104.382843, Alt.=117.954163m. Speed=11.340000m/h.</desc>
<speed>3.150000</speed>
</trkpt>
<trkpt lat="22.193960" lon="104.382874">
<ele>120.419006</ele>
<time>2011-04-27T09:37:11Z</time>
<desc>lat.=22.193960, lon.=104.382874, Alt.=120.419006m. Speed=6.048000m/h.</desc>
<speed>1.680000</speed>
</trkpt>
<trkpt lat="22.194031" lon="104.382896">
<ele>121.461975</ele>
<time>2011-04-27T09:37:16Z</time>
<desc>lat.=22.194031, lon.=104.382896, Alt.=121.461975m. Speed=7.164000m/h.</desc>
<speed>1.990000</speed>
</trkpt>
<trkpt lat="22.194132" lon="104.382927">
<ele>122.176819</ele>
<time>2011-04-27T09:37:21Z</time>
<desc>lat.=22.194132, lon.=104.382927, Alt.=122.176819m. Speed=8.676000m/h.</desc>
<speed>2.410000</speed>
</trkpt>
<trkpt lat="22.194235" lon="104.382973">
<ele>120.549866</ele>
<time>2011-04-27T09:37:26Z</time>
<desc>lat.=22.194235, lon.=104.382973, Alt.=120.549866m. Speed=7.848000m/h.</desc>
<speed>2.180000</speed>
</trkpt>
<trkpt lat="22.194342" lon="104.383003">
<ele>121.475647</ele>
<time>2011-04-27T09:37:31Z</time>
<desc>lat.=22.194342, lon.=104.383003, Alt.=121.475647m. Speed=8.316000m/h.</desc>
<speed>2.310000</speed>
</trkpt>
<trkpt lat="22.194454" lon="104.383064">
<ele>121.561584</ele>
<time>2011-04-27T09:37:36Z</time>
<desc>lat.=22.194454, lon.=104.383064, Alt.=121.561584m. Speed=10.692000m/h.</desc>
<speed>2.970000</speed>
</trkpt>
<trkpt lat="22.194578" lon="104.383148">
<ele>120.743225</ele>
<time>2011-04-27T09:37:41Z</time>
<desc>lat.=22.194578, lon.=104.383148, Alt.=120.743225m. Speed=9.756000m/h.</desc>
<speed>2.710000</speed>
</trkpt>
<trkpt lat="22.194681" lon="104.383186">
<ele>121.352600</ele>
<time>2011-04-27T09:37:46Z</time>
<desc>lat.=22.194681, lon.=104.383186, Alt.=121.352600m. Speed=9.504000m/h.</desc>
<speed>2.640000</speed>
</trkpt>
<trkpt lat="22.194807" lon="104.383263">
<ele>121.188538</ele>
<time>2011-04-27T09:37:51Z</time>
<desc>lat.=22.194807, lon.=104.383263, Alt.=121.188538m. Speed=11.556000m/h.</desc>
<speed>3.210000</speed>
</trkpt>
<trkpt lat="22.194933" lon="104.383339">
<ele>120.202209</ele>
<time>2011-04-27T09:37:56Z</time>
<desc>lat.=22.194933, lon.=104.383339, Alt.=120.202209m. Speed=11.376000m/h.</desc>
<speed>3.160000</speed>
</trkpt>
<trkpt lat="22.195036" lon="104.383438">
<ele>120.153381</ele>
<time>2011-04-27T09:38:01Z</time>
<desc>lat.=22.195036, lon.=104.383438, Alt.=120.153381m. Speed=10.260000m/h.</desc>
<speed>2.850000</speed>
</trkpt>
<trkpt lat="22.195103" lon="104.383598">
<ele>119.706116</ele>
<time>2011-04-27T09:38:06Z</time>
<desc>lat.=22.195103, lon.=104.383598, Alt.=119.706116m. Speed=7.884000m/h.</desc>
<speed>2.190000</speed>
</trkpt>
<trkpt lat="22.195185" lon="104.383820">
<ele>119.344788</ele>
<time>2011-04-27T09:38:11Z</time>
<desc>lat.=22.195185, lon.=104.383820, Alt.=119.344788m. Speed=18.719999m/h.</desc>
<speed>5.200000</speed>
</trkpt>
<trkpt lat="22.195395" lon="104.384056">
<ele>117.674866</ele>
<time>2011-04-27T09:38:16Z</time>
<desc>lat.=22.195395, lon.=104.384056, Alt.=117.674866m. Speed=20.160000m/h.</desc>
<speed>5.600000</speed>
</trkpt>
<trkpt lat="22.195614" lon="104.384018">
<ele>118.032288</ele>
<time>2011-04-27T09:38:21Z</time>
<desc>lat.=22.195614, lon.=104.384018, Alt.=118.032288m. Speed=13.824000m/h.</desc>
<speed>3.840000</speed>
</trkpt>
<trkpt lat="22.195770" lon="104.383957">
<ele>119.694397</ele>
<time>2011-04-27T09:38:26Z</time>
<desc>lat.=22.195770, lon.=104.383957, Alt.=119.694397m. Speed=13.752000m/h.</desc>
<speed>3.820000</speed>
</trkpt>
<trkpt lat="22.195906" lon="104.383926">
<ele>119.178772</ele>
<time>2011-04-27T09:38:31Z</time>
<desc>lat.=22.195906, lon.=104.383926, Alt.=119.178772m. Speed=6.624000m/h.</desc>
<speed>1.840000</speed>
</trkpt>
<trkpt lat="22.196032" lon="104.383926">
<ele>119.889709</ele>
<time>2011-04-27T09:38:36Z</time>
<desc>lat.=22.196032, lon.=104.383926, Alt.=119.889709m. Speed=9.756000m/h.</desc>
<speed>2.710000</speed>
</trkpt>
<trkpt lat="22.196169" lon="104.383942">
<ele>118.598694</ele>
<time>2011-04-27T09:38:41Z</time>
<desc>lat.=22.196169, lon.=104.383942, Alt.=118.598694m. Speed=10.620000m/h.</desc>
<speed>2.950000</speed>
</trkpt>
<trkpt lat="22.196327" lon="104.383972">
<ele>119.295959</ele>
<time>2011-04-27T09:38:46Z</time>
<desc>lat.=22.196327, lon.=104.383972, Alt.=119.295959m. Speed=12.024000m/h.</desc>
<speed>3.340000</speed>
</trkpt>
<trkpt lat="22.196466" lon="104.384026">
<ele>119.678772</ele>
<time>2011-04-27T09:38:51Z</time>
<desc>lat.=22.196466, lon.=104.384026, Alt.=119.678772m. Speed=12.528000m/h.</desc>
<speed>3.480000</speed>
</trkpt>
<trkpt lat="22.196602" lon="104.384094">
<ele>122.409241</ele>
<time>2011-04-27T09:38:56Z</time>
<desc>lat.=22.196602, lon.=104.384094, Alt.=122.409241m. Speed=9.756000m/h.</desc>
<speed>2.710000</speed>
</trkpt>
<trkpt lat="22.196671" lon="104.384155">
<ele>123.336975</ele>
<time>2011-04-27T09:39:01Z</time>
<desc>lat.=22.196671, lon.=104.384155, Alt.=123.336975m. Speed=5.004000m/h.</desc>
<speed>1.390000</speed>
</trkpt>
<trkpt lat="22.196720" lon="104.384224">
<ele>123.268616</ele>
<time>2011-04-27T09:39:06Z</time>
<desc>lat.=22.196720, lon.=104.384224, Alt.=123.268616m. Speed=5.904000m/h.</desc>
<speed>1.640000</speed>
</trkpt>
<trkpt lat="22.196735" lon="104.384277">
<ele>123.264709</ele>
<time>2011-04-27T09:39:11Z</time>
<desc>lat.=22.196735, lon.=104.384277, Alt.=123.264709m. Speed=3.960000m/h.</desc>
<speed>1.100000</speed>
</trkpt>
<trkpt lat="22.196733" lon="104.384384">
<ele>123.504944</ele>
<time>2011-04-27T09:39:16Z</time>
<desc>lat.=22.196733, lon.=104.384384, Alt.=123.504944m. Speed=8.208000m/h.</desc>
<speed>2.280000</speed>
</trkpt>
<trkpt lat="22.196772" lon="104.384529">
<ele>123.233459</ele>
<time>2011-04-27T09:39:21Z</time>
<desc>lat.=22.196772, lon.=104.384529, Alt.=123.233459m. Speed=11.268000m/h.</desc>
<speed>3.130000</speed>
</trkpt>
<trkpt lat="22.196819" lon="104.384666">
<ele>122.961975</ele>
<time>2011-04-27T09:39:26Z</time>
<desc>lat.=22.196819, lon.=104.384666, Alt.=122.961975m. Speed=9.180000m/h.</desc>
<speed>2.550000</speed>
</trkpt>
<trkpt lat="22.196844" lon="104.384773">
<ele>122.760803</ele>
<time>2011-04-27T09:39:31Z</time>
<desc>lat.=22.196844, lon.=104.384773, Alt.=122.760803m. Speed=6.336000m/h.</desc>
<speed>1.760000</speed>
</trkpt>
<trkpt lat="22.196838" lon="104.384880">
<ele>122.932678</ele>
<time>2011-04-27T09:39:36Z</time>
<desc>lat.=22.196838, lon.=104.384880, Alt.=122.932678m. Speed=7.128000m/h.</desc>
<speed>1.980000</speed>
</trkpt>
<trkpt lat="22.196840" lon="104.384995">
<ele>122.592834</ele>
<time>2011-04-27T09:39:41Z</time>
<desc>lat.=22.196840, lon.=104.384995, Alt.=122.592834m. Speed=7.632000m/h.</desc>
<speed>2.120000</speed>
</trkpt>
<trkpt lat="22.196840" lon="104.385124">
<ele>122.358459</ele>
<time>2011-04-27T09:39:46Z</time>
<desc>lat.=22.196840, lon.=104.385124, Alt.=122.358459m. Speed=9.432000m/h.</desc>
<speed>2.620000</speed>
</trkpt>
<trkpt lat="22.196836" lon="104.385269">
<ele>122.223694</ele>
<time>2011-04-27T09:39:51Z</time>
<desc>lat.=22.196836, lon.=104.385269, Alt.=122.223694m. Speed=10.692000m/h.</desc>
<speed>2.970000</speed>
</trkpt>
<trkpt lat="22.196913" lon="104.385414">
<ele>123.708069</ele>
<time>2011-04-27T09:39:56Z</time>
<desc>lat.=22.196913, lon.=104.385414, Alt.=123.708069m. Speed=9.972000m/h.</desc>
<speed>2.770000</speed>
</trkpt>
<trkpt lat="22.196999" lon="104.385498">
<ele>124.626038</ele>
<time>2011-04-27T09:40:01Z</time>
<desc>lat.=22.196999, lon.=104.385498, Alt.=124.626038m. Speed=10.656000m/h.</desc>
<speed>2.960000</speed>
</trkpt>
<trkpt lat="22.197134" lon="104.385582">
<ele>125.213928</ele>
<time>2011-04-27T09:40:06Z</time>
<desc>lat.=22.197134, lon.=104.385582, Alt.=125.213928m. Speed=12.132000m/h.</desc>
<speed>3.370000</speed>
</trkpt>
<trkpt lat="22.197268" lon="104.385635">
<ele>125.420959</ele>
<time>2011-04-27T09:40:11Z</time>
<desc>lat.=22.197268, lon.=104.385635, Alt.=125.420959m. Speed=8.496000m/h.</desc>
<speed>2.360000</speed>
</trkpt>
<trkpt lat="22.197365" lon="104.385643">
<ele>125.669006</ele>
<time>2011-04-27T09:40:16Z</time>
<desc>lat.=22.197365, lon.=104.385643, Alt.=125.669006m. Speed=8.604000m/h.</desc>
<speed>2.390000</speed>
</trkpt>
<trkpt lat="22.197491" lon="104.385658">
<ele>125.895569</ele>
<time>2011-04-27T09:40:21Z</time>
<desc>lat.=22.197491, lon.=104.385658, Alt.=125.895569m. Speed=8.460000m/h.</desc>
<speed>2.350000</speed>
</trkpt>
<trkpt lat="22.197605" lon="104.385666">
<ele>124.268616</ele>
<time>2011-04-27T09:40:26Z</time>
<desc>lat.=22.197605, lon.=104.385666, Alt.=124.268616m. Speed=8.388000m/h.</desc>
<speed>2.330000</speed>
</trkpt>
<trkpt lat="22.197701" lon="104.385651">
<ele>124.198303</ele>
<time>2011-04-27T09:40:31Z</time>
<desc>lat.=22.197701, lon.=104.385651, Alt.=124.198303m. Speed=7.272000m/h.</desc>
<speed>2.020000</speed>
</trkpt>
<trkpt lat="22.197784" lon="104.385689">
<ele>125.204163</ele>
<time>2011-04-27T09:40:36Z</time>
<desc>lat.=22.197784, lon.=104.385689, Alt.=125.204163m. Speed=7.200000m/h.</desc>
<speed>2.000000</speed>
</trkpt>
<trkpt lat="22.197882" lon="104.385674">
<ele>125.561584</ele>
<time>2011-04-27T09:40:41Z</time>
<desc>lat.=22.197882, lon.=104.385674, Alt.=125.561584m. Speed=9.540000m/h.</desc>
<speed>2.650000</speed>
</trkpt>
<trkpt lat="22.198025" lon="104.385681">
<ele>125.825256</ele>
<time>2011-04-27T09:40:46Z</time>
<desc>lat.=22.198025, lon.=104.385681, Alt.=125.825256m. Speed=12.636000m/h.</desc>
<speed>3.510000</speed>
</trkpt>
<trkpt lat="22.198166" lon="104.385735">
<ele>126.487366</ele>
<time>2011-04-27T09:40:51Z</time>
<desc>lat.=22.198166, lon.=104.385735, Alt.=126.487366m. Speed=11.232000m/h.</desc>
<speed>3.120000</speed>
</trkpt>
<trkpt lat="22.198294" lon="104.385818">
<ele>127.645569</ele>
<time>2011-04-27T09:40:56Z</time>
<desc>lat.=22.198294, lon.=104.385818, Alt.=127.645569m. Speed=11.232000m/h.</desc>
<speed>3.120000</speed>
</trkpt>
<trkpt lat="22.198391" lon="104.385902">
<ele>127.762756</ele>
<time>2011-04-27T09:41:01Z</time>
<desc>lat.=22.198391, lon.=104.385902, Alt.=127.762756m. Speed=5.940000m/h.</desc>
<speed>1.650000</speed>
</trkpt>
<trkpt lat="22.198477" lon="104.385963">
<ele>127.530334</ele>
<time>2011-04-27T09:41:06Z</time>
<desc>lat.=22.198477, lon.=104.385963, Alt.=127.530334m. Speed=9.072000m/h.</desc>
<speed>2.520000</speed>
</trkpt>
<trkpt lat="22.198591" lon="104.385979">
<ele>127.094788</ele>
<time>2011-04-27T09:41:11Z</time>
<desc>lat.=22.198591, lon.=104.385979, Alt.=127.094788m. Speed=9.396000m/h.</desc>
<speed>2.610000</speed>
</trkpt>
<trkpt lat="22.198748" lon="104.385902">
<ele>128.963013</ele>
<time>2011-04-27T09:41:16Z</time>
<desc>lat.=22.198748, lon.=104.385902, Alt.=128.963013m. Speed=11.304000m/h.</desc>
<speed>3.140000</speed>
</trkpt>
<trkpt lat="22.198893" lon="104.385834">
<ele>130.513794</ele>
<time>2011-04-27T09:41:21Z</time>
<desc>lat.=22.198893, lon.=104.385834, Alt.=130.513794m. Speed=12.852000m/h.</desc>
<speed>3.570000</speed>
</trkpt>
<trkpt lat="22.199039" lon="104.385773">
<ele>131.517700</ele>
<time>2011-04-27T09:41:26Z</time>
<desc>lat.=22.199039, lon.=104.385773, Alt.=131.517700m. Speed=11.628000m/h.</desc>
<speed>3.230000</speed>
</trkpt>
<trkpt lat="22.199200" lon="104.385727">
<ele>132.416138</ele>
<time>2011-04-27T09:41:31Z</time>
<desc>lat.=22.199200, lon.=104.385727, Alt.=132.416138m. Speed=12.960000m/h.</desc>
<speed>3.600000</speed>
</trkpt>
<trkpt lat="22.199314" lon="104.385735">
<ele>133.341919</ele>
<time>2011-04-27T09:41:36Z</time>
<desc>lat.=22.199314, lon.=104.385735, Alt.=133.341919m. Speed=8.280000m/h.</desc>
<speed>2.300000</speed>
</trkpt>
<trkpt lat="22.199417" lon="104.385773">
<ele>136.025513</ele>
<time>2011-04-27T09:41:41Z</time>
<desc>lat.=22.199417, lon.=104.385773, Alt.=136.025513m. Speed=9.324000m/h.</desc>
<speed>2.590000</speed>
</trkpt>
<trkpt lat="22.199537" lon="104.385788">
<ele>143.806763</ele>
<time>2011-04-27T09:41:46Z</time>
<desc>lat.=22.199537, lon.=104.385788, Alt.=143.806763m. Speed=5.724000m/h.</desc>
<speed>1.590000</speed>
</trkpt>
<trkpt lat="22.199606" lon="104.385796">
<ele>145.701294</ele>
<time>2011-04-27T09:41:51Z</time>
<desc>lat.=22.199606, lon.=104.385796, Alt.=145.701294m. Speed=0.504000m/h.</desc>
<speed>0.140000</speed>
</trkpt>
<trkpt lat="22.199614" lon="104.385796">
<ele>146.271606</ele>
<time>2011-04-27T09:41:56Z</time>
<desc>lat.=22.199614, lon.=104.385796, Alt.=146.271606m. Speed=0.000000m/h.</desc>
<speed>0.000000</speed>
</trkpt>
<trkpt lat="22.199629" lon="104.385803">
<ele>145.896606</ele>
<time>2011-04-27T09:42:01Z</time>
<desc>lat.=22.199629, lon.=104.385803, Alt.=145.896606m. Speed=3.168000m/h.</desc>
<speed>0.880000</speed>
</trkpt>
<trkpt lat="22.199646" lon="104.385803">
<ele>142.994263</ele>
<time>2011-04-27T09:42:06Z</time>
<desc>lat.=22.199646, lon.=104.385803, Alt.=142.994263m. Speed=0.180000m/h.</desc>
<speed>0.050000</speed>
</trkpt>
<trkpt lat="22.199644" lon="104.385811">
<ele>142.005981</ele>
<time>2011-04-27T09:42:11Z</time>
<desc>lat.=22.199644, lon.=104.385811, Alt.=142.005981m. Speed=0.036000m/h.</desc>
<speed>0.010000</speed>
</trkpt>
<trkpt lat="22.199644" lon="104.385811">
<ele>142.033325</ele>
<time>2011-04-27T09:42:16Z</time>
<desc>lat.=22.199644, lon.=104.385811, Alt.=142.033325m. Speed=0.288000m/h.</desc>
<speed>0.080000</speed>
</trkpt>
<trkpt lat="22.199646" lon="104.385818">
<ele>142.033325</ele>
<time>2011-04-27T09:42:21Z</time>
<desc>lat.=22.199646, lon.=104.385818, Alt.=142.033325m. Speed=3.816000m/h.</desc>
<speed>1.060000</speed>
</trkpt>
<trkpt lat="22.199673" lon="104.385857">
<ele>142.509888</ele>
<time>2011-04-27T09:42:26Z</time>
<desc>lat.=22.199673, lon.=104.385857, Alt.=142.509888m. Speed=8.460000m/h.</desc>
<speed>2.350000</speed>
</trkpt>
<trkpt lat="22.199713" lon="104.385979">
<ele>143.486450</ele>
<time>2011-04-27T09:42:31Z</time>
<desc>lat.=22.199713, lon.=104.385979, Alt.=143.486450m. Speed=9.072000m/h.</desc>
<speed>2.520000</speed>
</trkpt>
<trkpt lat="22.199648" lon="104.386108">
<ele>144.677856</ele>
<time>2011-04-27T09:42:36Z</time>
<desc>lat.=22.199648, lon.=104.386108, Alt.=144.677856m. Speed=9.468000m/h.</desc>
<speed>2.630000</speed>
</trkpt>
<trkpt lat="22.199545" lon="104.386200">
<ele>145.798950</ele>
<time>2011-04-27T09:42:41Z</time>
<desc>lat.=22.199545, lon.=104.386200, Alt.=145.798950m. Speed=8.892000m/h.</desc>
<speed>2.470000</speed>
</trkpt>
<trkpt lat="22.199436" lon="104.386261">
<ele>147.025513</ele>
<time>2011-04-27T09:42:46Z</time>
<desc>lat.=22.199436, lon.=104.386261, Alt.=147.025513m. Speed=4.896000m/h.</desc>
<speed>1.360000</speed>
</trkpt>
<trkpt lat="22.199341" lon="104.386360">
<ele>148.091919</ele>
<time>2011-04-27T09:42:51Z</time>
<desc>lat.=22.199341, lon.=104.386360, Alt.=148.091919m. Speed=10.440000m/h.</desc>
<speed>2.900000</speed>
</trkpt>
<trkpt lat="22.199299" lon="104.386482">
<ele>148.486450</ele>
<time>2011-04-27T09:42:56Z</time>
<desc>lat.=22.199299, lon.=104.386482, Alt.=148.486450m. Speed=9.648000m/h.</desc>
<speed>2.680000</speed>
</trkpt>
<trkpt lat="22.199272" lon="104.386604">
<ele>149.115356</ele>
<time>2011-04-27T09:43:01Z</time>
<desc>lat.=22.199272, lon.=104.386604, Alt.=149.115356m. Speed=7.884000m/h.</desc>
<speed>2.190000</speed>
</trkpt>
<trkpt lat="22.199236" lon="104.386742">
<ele>149.845825</ele>
<time>2011-04-27T09:43:06Z</time>
<desc>lat.=22.199236, lon.=104.386742, Alt.=149.845825m. Speed=9.252000m/h.</desc>
<speed>2.570000</speed>
</trkpt>
<trkpt lat="22.199194" lon="104.386879">
<ele>150.509888</ele>
<time>2011-04-27T09:43:11Z</time>
<desc>lat.=22.199194, lon.=104.386879, Alt.=150.509888m. Speed=9.684000m/h.</desc>
<speed>2.690000</speed>
</trkpt>
<trkpt lat="22.199171" lon="104.386986">
<ele>151.615356</ele>
<time>2011-04-27T09:43:16Z</time>
<desc>lat.=22.199171, lon.=104.386986, Alt.=151.615356m. Speed=8.532000m/h.</desc>
<speed>2.370000</speed>
</trkpt>
<trkpt lat="22.199127" lon="104.387115">
<ele>152.638794</ele>
<time>2011-04-27T09:43:21Z</time>
<desc>lat.=22.199127, lon.=104.387115, Alt.=152.638794m. Speed=9.252000m/h.</desc>
<speed>2.570000</speed>
</trkpt>
<trkpt lat="22.199135" lon="104.387215">
<ele>154.134888</ele>
<time>2011-04-27T09:43:26Z</time>
<desc>lat.=22.199135, lon.=104.387215, Alt.=154.134888m. Speed=7.272000m/h.</desc>
<speed>2.020000</speed>
</trkpt>
<trkpt lat="22.199205" lon="104.387337">
<ele>154.615356</ele>
<time>2011-04-27T09:43:31Z</time>
<desc>lat.=22.199205, lon.=104.387337, Alt.=154.615356m. Speed=8.712000m/h.</desc>
<speed>2.420000</speed>
</trkpt>
<trkpt lat="22.199272" lon="104.387466">
<ele>155.638794</ele>
<time>2011-04-27T09:43:36Z</time>
<desc>lat.=22.199272, lon.=104.387466, Alt.=155.638794m. Speed=9.468000m/h.</desc>
<speed>2.630000</speed>
</trkpt>
<trkpt lat="22.199343" lon="104.387558">
<ele>156.244263</ele>
<time>2011-04-27T09:43:41Z</time>
<desc>lat.=22.199343, lon.=104.387558, Alt.=156.244263m. Speed=6.552000m/h.</desc>
<speed>1.820000</speed>
</trkpt>
<trkpt lat="22.199427" lon="104.387611">
<ele>157.216919</ele>
<time>2011-04-27T09:43:46Z</time>
<desc>lat.=22.199427, lon.=104.387611, Alt.=157.216919m. Speed=8.064000m/h.</desc>
<speed>2.240000</speed>
</trkpt>
<trkpt lat="22.199499" lon="104.387642">
<ele>158.470825</ele>
<time>2011-04-27T09:43:51Z</time>
<desc>lat.=22.199499, lon.=104.387642, Alt.=158.470825m. Speed=7.200000m/h.</desc>
<speed>2.000000</speed>
</trkpt>
<trkpt lat="22.199562" lon="104.387680">
<ele>159.162231</ele>
<time>2011-04-27T09:43:56Z</time>
<desc>lat.=22.199562, lon.=104.387680, Alt.=159.162231m. Speed=3.708000m/h.</desc>
<speed>1.030000</speed>
</trkpt>
<trkpt lat="22.199648" lon="104.387665">
<ele>156.080200</ele>
<time>2011-04-27T09:44:01Z</time>
<desc>lat.=22.199648, lon.=104.387665, Alt.=156.080200m. Speed=7.848000m/h.</desc>
<speed>2.180000</speed>
</trkpt>
<trkpt lat="22.199755" lon="104.387650">
<ele>153.486450</ele>
<time>2011-04-27T09:44:06Z</time>
<desc>lat.=22.199755, lon.=104.387650, Alt.=153.486450m. Speed=8.964000m/h.</desc>
<speed>2.490000</speed>
</trkpt>
<trkpt lat="22.199863" lon="104.387665">
<ele>151.189575</ele>
<time>2011-04-27T09:44:11Z</time>
<desc>lat.=22.199863, lon.=104.387665, Alt.=151.189575m. Speed=8.244000m/h.</desc>
<speed>2.290000</speed>
</trkpt>
<trkpt lat="22.199986" lon="104.387718">
<ele>148.865356</ele>
<time>2011-04-27T09:44:16Z</time>
<desc>lat.=22.199986, lon.=104.387718, Alt.=148.865356m. Speed=9.792000m/h.</desc>
<speed>2.720000</speed>
</trkpt>
<trkpt lat="22.200069" lon="104.387810">
<ele>146.927856</ele>
<time>2011-04-27T09:44:21Z</time>
<desc>lat.=22.200069, lon.=104.387810, Alt.=146.927856m. Speed=9.180000m/h.</desc>
<speed>2.550000</speed>
</trkpt>
<trkpt lat="22.200153" lon="104.387917">
<ele>145.252075</ele>
<time>2011-04-27T09:44:26Z</time>
<desc>lat.=22.200153, lon.=104.387917, Alt.=145.252075m. Speed=11.016000m/h.</desc>
<speed>3.060000</speed>
</trkpt>
<trkpt lat="22.200211" lon="104.388069">
<ele>143.584106</ele>
<time>2011-04-27T09:44:31Z</time>
<desc>lat.=22.200211, lon.=104.388069, Alt.=143.584106m. Speed=12.060000m/h.</desc>
<speed>3.350000</speed>
</trkpt>
<trkpt lat="22.200205" lon="104.388252">
<ele>141.912231</ele>
<time>2011-04-27T09:44:36Z</time>
<desc>lat.=22.200205, lon.=104.388252, Alt.=141.912231m. Speed=13.176000m/h.</desc>
<speed>3.660000</speed>
</trkpt>
<trkpt lat="22.200155" lon="104.388443">
<ele>141.005981</ele>
<time>2011-04-27T09:44:41Z</time>
<desc>lat.=22.200155, lon.=104.388443, Alt.=141.005981m. Speed=12.636000m/h.</desc>
<speed>3.510000</speed>
</trkpt>
<trkpt lat="22.200098" lon="104.388596">
<ele>140.330200</ele>
<time>2011-04-27T09:44:46Z</time>
<desc>lat.=22.200098, lon.=104.388596, Alt.=140.330200m. Speed=11.232000m/h.</desc>
<speed>3.120000</speed>
</trkpt>
<trkpt lat="22.200087" lon="104.388718">
<ele>139.111450</ele>
<time>2011-04-27T09:44:51Z</time>
<desc>lat.=22.200087, lon.=104.388718, Alt.=139.111450m. Speed=8.496000m/h.</desc>
<speed>2.360000</speed>
</trkpt>
<trkpt lat="22.200151" lon="104.388847">
<ele>137.650513</ele>
<time>2011-04-27T09:44:56Z</time>
<desc>lat.=22.200151, lon.=104.388847, Alt.=137.650513m. Speed=8.388000m/h.</desc>
<speed>2.330000</speed>
</trkpt>
<trkpt lat="22.200251" lon="104.388924">
<ele>137.638794</ele>
<time>2011-04-27T09:45:01Z</time>
<desc>lat.=22.200251, lon.=104.388924, Alt.=137.638794m. Speed=8.532000m/h.</desc>
<speed>2.370000</speed>
</trkpt>
<trkpt lat="22.200356" lon="104.388947">
<ele>137.189575</ele>
<time>2011-04-27T09:45:06Z</time>
<desc>lat.=22.200356, lon.=104.388947, Alt.=137.189575m. Speed=8.100000m/h.</desc>
<speed>2.250000</speed>
</trkpt>
<trkpt lat="22.200470" lon="104.388985">
<ele>137.341919</ele>
<time>2011-04-27T09:45:11Z</time>
<desc>lat.=22.200470, lon.=104.388985, Alt.=137.341919m. Speed=9.720000m/h.</desc>
<speed>2.700000</speed>
</trkpt>
<trkpt lat="22.200562" lon="104.389046">
<ele>137.896606</ele>
<time>2011-04-27T09:45:16Z</time>
<desc>lat.=22.200562, lon.=104.389046, Alt.=137.896606m. Speed=9.612000m/h.</desc>
<speed>2.670000</speed>
</trkpt>
<trkpt lat="22.200615" lon="104.389145">
<ele>138.923950</ele>
<time>2011-04-27T09:45:21Z</time>
<desc>lat.=22.200615, lon.=104.389145, Alt.=138.923950m. Speed=8.568000m/h.</desc>
<speed>2.380000</speed>
</trkpt>
<trkpt lat="22.200626" lon="104.389244">
<ele>140.552856</ele>
<time>2011-04-27T09:45:26Z</time>
<desc>lat.=22.200626, lon.=104.389244, Alt.=140.552856m. Speed=6.984000m/h.</desc>
<speed>1.940000</speed>
</trkpt>
<trkpt lat="22.200630" lon="104.389313">
<ele>141.560669</ele>
<time>2011-04-27T09:45:31Z</time>
<desc>lat.=22.200630, lon.=104.389313, Alt.=141.560669m. Speed=6.156000m/h.</desc>
<speed>1.710000</speed>
</trkpt>
<trkpt lat="22.200611" lon="104.389427">
<ele>142.623169</ele>
<time>2011-04-27T09:45:36Z</time>
<desc>lat.=22.200611, lon.=104.389427, Alt.=142.623169m. Speed=7.020000m/h.</desc>
<speed>1.950000</speed>
</trkpt>
<trkpt lat="22.200623" lon="104.389511">
<ele>142.630981</ele>
<time>2011-04-27T09:45:41Z</time>
<desc>lat.=22.200623, lon.=104.389511, Alt.=142.630981m. Speed=4.464000m/h.</desc>
<speed>1.240000</speed>
</trkpt>
<trkpt lat="22.200600" lon="104.389618">
<ele>143.396606</ele>
<time>2011-04-27T09:45:46Z</time>
<desc>lat.=22.200600, lon.=104.389618, Alt.=143.396606m. Speed=5.940000m/h.</desc>
<speed>1.650000</speed>
</trkpt>
<trkpt lat="22.200605" lon="104.389717">
<ele>145.638794</ele>
<time>2011-04-27T09:45:51Z</time>
<desc>lat.=22.200605, lon.=104.389717, Alt.=145.638794m. Speed=5.760000m/h.</desc>
<speed>1.600000</speed>
</trkpt>
<trkpt lat="22.200636" lon="104.389839">
<ele>149.068481</ele>
<time>2011-04-27T09:45:56Z</time>
<desc>lat.=22.200636, lon.=104.389839, Alt.=149.068481m. Speed=6.228000m/h.</desc>
<speed>1.730000</speed>
</trkpt>
<trkpt lat="22.200657" lon="104.389915">
<ele>150.095825</ele>
<time>2011-04-27T09:46:01Z</time>
<desc>lat.=22.200657, lon.=104.389915, Alt.=150.095825m. Speed=5.256000m/h.</desc>
<speed>1.460000</speed>
</trkpt>
<trkpt lat="22.200674" lon="104.390007">
<ele>152.908325</ele>
<time>2011-04-27T09:46:06Z</time>
<desc>lat.=22.200674, lon.=104.390007, Alt.=152.908325m. Speed=6.408000m/h.</desc>
<speed>1.780000</speed>
</trkpt>
<trkpt lat="22.200665" lon="104.390091">
<ele>157.033325</ele>
<time>2011-04-27T09:46:11Z</time>
<desc>lat.=22.200665, lon.=104.390091, Alt.=157.033325m. Speed=6.192000m/h.</desc>
<speed>1.720000</speed>
</trkpt>
<trkpt lat="22.200617" lon="104.390190">
<ele>158.189575</ele>
<time>2011-04-27T09:46:16Z</time>
<desc>lat.=22.200617, lon.=104.390190, Alt.=158.189575m. Speed=7.920000m/h.</desc>
<speed>2.200000</speed>
</trkpt>
<trkpt lat="22.200556" lon="104.390259">
<ele>161.318481</ele>
<time>2011-04-27T09:46:21Z</time>
<desc>lat.=22.200556, lon.=104.390259, Alt.=161.318481m. Speed=5.724000m/h.</desc>
<speed>1.590000</speed>
</trkpt>
<trkpt lat="22.200497" lon="104.390320">
<ele>161.349731</ele>
<time>2011-04-27T09:46:26Z</time>
<desc>lat.=22.200497, lon.=104.390320, Alt.=161.349731m. Speed=7.236000m/h.</desc>
<speed>2.010000</speed>
</trkpt>
<trkpt lat="22.200420" lon="104.390358">
<ele>161.888794</ele>
<time>2011-04-27T09:46:31Z</time>
<desc>lat.=22.200420, lon.=104.390358, Alt.=161.888794m. Speed=6.264000m/h.</desc>
<speed>1.740000</speed>
</trkpt>
<trkpt lat="22.200352" lon="104.390411">
<ele>162.123169</ele>
<time>2011-04-27T09:46:36Z</time>
<desc>lat.=22.200352, lon.=104.390411, Alt.=162.123169m. Speed=5.652000m/h.</desc>
<speed>1.570000</speed>
</trkpt>
<trkpt lat="22.200302" lon="104.390450">
<ele>162.560669</ele>
<time>2011-04-27T09:46:41Z</time>
<desc>lat.=22.200302, lon.=104.390450, Alt.=162.560669m. Speed=5.040000m/h.</desc>
<speed>1.400000</speed>
</trkpt>
<trkpt lat="22.200228" lon="104.390480">
<ele>163.080200</ele>
<time>2011-04-27T09:46:46Z</time>
<desc>lat.=22.200228, lon.=104.390480, Alt.=163.080200m. Speed=6.876000m/h.</desc>
<speed>1.910000</speed>
</trkpt>
<trkpt lat="22.200142" lon="104.390518">
<ele>164.146606</ele>
<time>2011-04-27T09:46:51Z</time>
<desc>lat.=22.200142, lon.=104.390518, Alt.=164.146606m. Speed=6.192000m/h.</desc>
<speed>1.720000</speed>
</trkpt>
<trkpt lat="22.200045" lon="104.390518">
<ele>165.404419</ele>
<time>2011-04-27T09:46:56Z</time>
<desc>lat.=22.200045, lon.=104.390518, Alt.=165.404419m. Speed=6.480000m/h.</desc>
<speed>1.800000</speed>
</trkpt>
<trkpt lat="22.199942" lon="104.390533">
<ele>166.670044</ele>
<time>2011-04-27T09:47:01Z</time>
<desc>lat.=22.199942, lon.=104.390533, Alt.=166.670044m. Speed=7.344000m/h.</desc>
<speed>2.040000</speed>
</trkpt>
<trkpt lat="22.199858" lon="104.390587">
<ele>167.759888</ele>
<time>2011-04-27T09:47:06Z</time>
<desc>lat.=22.199858, lon.=104.390587, Alt.=167.759888m. Speed=5.652000m/h.</desc>
<speed>1.570000</speed>
</trkpt>
<trkpt lat="22.199793" lon="104.390610">
<ele>168.455200</ele>
<time>2011-04-27T09:47:11Z</time>
<desc>lat.=22.199793, lon.=104.390610, Alt.=168.455200m. Speed=4.932000m/h.</desc>
<speed>1.370000</speed>
</trkpt>
<trkpt lat="22.199707" lon="104.390648">
<ele>169.420044</ele>
<time>2011-04-27T09:47:16Z</time>
<desc>lat.=22.199707, lon.=104.390648, Alt.=169.420044m. Speed=6.660000m/h.</desc>
<speed>1.850000</speed>
</trkpt>
<trkpt lat="22.199625" lon="104.390709">
<ele>169.838013</ele>
<time>2011-04-27T09:47:21Z</time>
<desc>lat.=22.199625, lon.=104.390709, Alt.=169.838013m. Speed=5.760000m/h.</desc>
<speed>1.600000</speed>
</trkpt>
<trkpt lat="22.199547" lon="104.390793">
<ele>171.162231</ele>
<time>2011-04-27T09:47:26Z</time>
<desc>lat.=22.199547, lon.=104.390793, Alt.=171.162231m. Speed=6.876000m/h.</desc>
<speed>1.910000</speed>
</trkpt>
<trkpt lat="22.199465" lon="104.390839">
<ele>172.134888</ele>
<time>2011-04-27T09:47:31Z</time>
<desc>lat.=22.199465, lon.=104.390839, Alt.=172.134888m. Speed=6.228000m/h.</desc>
<speed>1.730000</speed>
</trkpt>
<trkpt lat="22.199381" lon="104.390900">
<ele>173.670044</ele>
<time>2011-04-27T09:47:36Z</time>
<desc>lat.=22.199381, lon.=104.390900, Alt.=173.670044m. Speed=6.912000m/h.</desc>
<speed>1.920000</speed>
</trkpt>
<trkpt lat="22.199308" lon="104.390984">
<ele>174.525513</ele>
<time>2011-04-27T09:47:41Z</time>
<desc>lat.=22.199308, lon.=104.390984, Alt.=174.525513m. Speed=6.624000m/h.</desc>
<speed>1.840000</speed>
</trkpt>
<trkpt lat="22.199223" lon="104.391014">
<ele>174.923950</ele>
<time>2011-04-27T09:47:46Z</time>
<desc>lat.=22.199223, lon.=104.391014, Alt.=174.923950m. Speed=6.768000m/h.</desc>
<speed>1.880000</speed>
</trkpt>
<trkpt lat="22.199152" lon="104.391060">
<ele>175.838013</ele>
<time>2011-04-27T09:47:51Z</time>
<desc>lat.=22.199152, lon.=104.391060, Alt.=175.838013m. Speed=5.652000m/h.</desc>
<speed>1.570000</speed>
</trkpt>
<trkpt lat="22.199064" lon="104.391098">
<ele>175.795044</ele>
<time>2011-04-27T09:47:56Z</time>
<desc>lat.=22.199064, lon.=104.391098, Alt.=175.795044m. Speed=7.920000m/h.</desc>
<speed>2.200000</speed>
</trkpt>
<trkpt lat="22.198999" lon="104.391159">
<ele>177.345825</ele>
<time>2011-04-27T09:48:01Z</time>
<desc>lat.=22.198999, lon.=104.391159, Alt.=177.345825m. Speed=5.796000m/h.</desc>
<speed>1.610000</speed>
</trkpt>
<trkpt lat="22.198919" lon="104.391167">
<ele>179.595825</ele>
<time>2011-04-27T09:48:06Z</time>
<desc>lat.=22.198919, lon.=104.391167, Alt.=179.595825m. Speed=8.532000m/h.</desc>
<speed>2.370000</speed>
</trkpt>
<trkpt lat="22.198828" lon="104.391190">
<ele>179.736450</ele>
<time>2011-04-27T09:48:11Z</time>
<desc>lat.=22.198828, lon.=104.391190, Alt.=179.736450m. Speed=6.876000m/h.</desc>
<speed>1.910000</speed>
</trkpt>
<trkpt lat="22.198738" lon="104.391220">
<ele>180.115356</ele>
<time>2011-04-27T09:48:16Z</time>
<desc>lat.=22.198738, lon.=104.391220, Alt.=180.115356m. Speed=5.796000m/h.</desc>
<speed>1.610000</speed>
</trkpt>
<trkpt lat="22.198652" lon="104.391235">
<ele>179.463013</ele>
<time>2011-04-27T09:48:21Z</time>
<desc>lat.=22.198652, lon.=104.391235, Alt.=179.463013m. Speed=7.272000m/h.</desc>
<speed>2.020000</speed>
</trkpt>
<trkpt lat="22.198563" lon="104.391258">
<ele>179.873169</ele>
<time>2011-04-27T09:48:26Z</time>
<desc>lat.=22.198563, lon.=104.391258, Alt.=179.873169m. Speed=6.948000m/h.</desc>
<speed>1.930000</speed>
</trkpt>
<trkpt lat="22.198484" lon="104.391273">
<ele>180.623169</ele>
<time>2011-04-27T09:48:31Z</time>
<desc>lat.=22.198484, lon.=104.391273, Alt.=180.623169m. Speed=6.012000m/h.</desc>
<speed>1.670000</speed>
</trkpt>
<trkpt lat="22.198421" lon="104.391312">
<ele>180.900513</ele>
<time>2011-04-27T09:48:36Z</time>
<desc>lat.=22.198421, lon.=104.391312, Alt.=180.900513m. Speed=5.400000m/h.</desc>
<speed>1.500000</speed>
</trkpt>
<trkpt lat="22.198347" lon="104.391365">
<ele>181.279419</ele>
<time>2011-04-27T09:48:41Z</time>
<desc>lat.=22.198347, lon.=104.391365, Alt.=181.279419m. Speed=6.732000m/h.</desc>
<speed>1.870000</speed>
</trkpt>
<trkpt lat="22.198256" lon="104.391411">
<ele>182.267700</ele>
<time>2011-04-27T09:48:46Z</time>
<desc>lat.=22.198256, lon.=104.391411, Alt.=182.267700m. Speed=6.372000m/h.</desc>
<speed>1.770000</speed>
</trkpt>
<trkpt lat="22.198154" lon="104.391434">
<ele>183.451294</ele>
<time>2011-04-27T09:48:51Z</time>
<desc>lat.=22.198154, lon.=104.391434, Alt.=183.451294m. Speed=7.956000m/h.</desc>
<speed>2.210000</speed>
</trkpt>
<trkpt lat="22.198067" lon="104.391495">
<ele>184.994263</ele>
<time>2011-04-27T09:48:56Z</time>
<desc>lat.=22.198067, lon.=104.391495, Alt.=184.994263m. Speed=4.860000m/h.</desc>
<speed>1.350000</speed>
</trkpt>
<trkpt lat="22.198021" lon="104.391563">
<ele>186.326294</ele>
<time>2011-04-27T09:49:01Z</time>
<desc>lat.=22.198021, lon.=104.391563, Alt.=186.326294m. Speed=3.564000m/h.</desc>
<speed>0.990000</speed>
</trkpt>
<trkpt lat="22.198006" lon="104.391586">
<ele>186.095825</ele>
<time>2011-04-27T09:49:06Z</time>
<desc>lat.=22.198006, lon.=104.391586, Alt.=186.095825m. Speed=0.144000m/h.</desc>
<speed>0.040000</speed>
</trkpt>
<trkpt lat="22.198006" lon="104.391579">
<ele>185.939575</ele>
<time>2011-04-27T09:49:11Z</time>
<desc>lat.=22.198006, lon.=104.391579, Alt.=185.939575m. Speed=0.000000m/h.</desc>
<speed>0.000000</speed>
</trkpt>
<trkpt lat="22.198006" lon="104.391579">
<ele>185.982544</ele>
<time>2011-04-27T09:49:16Z</time>
<desc>lat.=22.198006, lon.=104.391579, Alt.=185.982544m. Speed=0.036000m/h.</desc>
<speed>0.010000</speed>
</trkpt>
<trkpt lat="22.198006" lon="104.391579">
<ele>186.130981</ele>
<time>2011-04-27T09:49:21Z</time>
<desc>lat.=22.198006, lon.=104.391579, Alt.=186.130981m. Speed=0.036000m/h.</desc>
<speed>0.010000</speed>
</trkpt>
<trkpt lat="22.198004" lon="104.391579">
<ele>186.142700</ele>
<time>2011-04-27T09:49:26Z</time>
<desc>lat.=22.198004, lon.=104.391579, Alt.=186.142700m. Speed=0.288000m/h.</desc>
<speed>0.080000</speed>
</trkpt>
<trkpt lat="22.198002" lon="104.391579">
<ele>186.130981</ele>
<time>2011-04-27T09:49:31Z</time>
<desc>lat.=22.198002, lon.=104.391579, Alt.=186.130981m. Speed=0.324000m/h.</desc>
<speed>0.090000</speed>
</trkpt>
<trkpt lat="22.198000" lon="104.391579">
<ele>186.130981</ele>
<time>2011-04-27T09:49:36Z</time>
<desc>lat.=22.198000, lon.=104.391579, Alt.=186.130981m. Speed=0.684000m/h.</desc>
<speed>0.190000</speed>
</trkpt>
<trkpt lat="22.197998" lon="104.391609">
<ele>186.447388</ele>
<time>2011-04-27T09:49:41Z</time>
<desc>lat.=22.197998, lon.=104.391609, Alt.=186.447388m. Speed=1.476000m/h.</desc>
<speed>0.410000</speed>
</trkpt>
<trkpt lat="22.198004" lon="104.391632">
<ele>186.716919</ele>
<time>2011-04-27T09:49:46Z</time>
<desc>lat.=22.198004, lon.=104.391632, Alt.=186.716919m. Speed=0.972000m/h.</desc>
<speed>0.270000</speed>
</trkpt>
<trkpt lat="22.198015" lon="104.391647">
<ele>186.716919</ele>
<time>2011-04-27T09:49:51Z</time>
<desc>lat.=22.198015, lon.=104.391647, Alt.=186.716919m. Speed=0.324000m/h.</desc>
<speed>0.090000</speed>
</trkpt>
<trkpt lat="22.198017" lon="104.391640">
<ele>186.713013</ele>
<time>2011-04-27T09:49:56Z</time>
<desc>lat.=22.198017, lon.=104.391640, Alt.=186.713013m. Speed=0.144000m/h.</desc>
<speed>0.040000</speed>
</trkpt>
<trkpt lat="22.198019" lon="104.391640">
<ele>186.705200</ele>
<time>2011-04-27T09:50:01Z</time>
<desc>lat.=22.198019, lon.=104.391640, Alt.=186.705200m. Speed=0.540000m/h.</desc>
<speed>0.150000</speed>
</trkpt>
<trkpt lat="22.198019" lon="104.391609">
<ele>186.822388</ele>
<time>2011-04-27T09:50:06Z</time>
<desc>lat.=22.198019, lon.=104.391609, Alt.=186.822388m. Speed=1.332000m/h.</desc>
<speed>0.370000</speed>
</trkpt>
<trkpt lat="22.198036" lon="104.391594">
<ele>186.963013</ele>
<time>2011-04-27T09:50:11Z</time>
<desc>lat.=22.198036, lon.=104.391594, Alt.=186.963013m. Speed=1.116000m/h.</desc>
<speed>0.310000</speed>
</trkpt>
<trkpt lat="22.198048" lon="104.391586">
<ele>186.912231</ele>
<time>2011-04-27T09:50:16Z</time>
<desc>lat.=22.198048, lon.=104.391586, Alt.=186.912231m. Speed=1.044000m/h.</desc>
<speed>0.290000</speed>
</trkpt>
<trkpt lat="22.198048" lon="104.391571">
<ele>186.670044</ele>
<time>2011-04-27T09:50:21Z</time>
<desc>lat.=22.198048, lon.=104.391571, Alt.=186.670044m. Speed=0.252000m/h.</desc>
<speed>0.070000</speed>
</trkpt>
<trkpt lat="22.198051" lon="104.391571">
<ele>186.658325</ele>
<time>2011-04-27T09:50:26Z</time>
<desc>lat.=22.198051, lon.=104.391571, Alt.=186.658325m. Speed=0.432000m/h.</desc>
<speed>0.120000</speed>
</trkpt>
<trkpt lat="22.198051" lon="104.391571">
<ele>186.638794</ele>
<time>2011-04-27T09:50:31Z</time>
<desc>lat.=22.198051, lon.=104.391571, Alt.=186.638794m. Speed=0.144000m/h.</desc>
<speed>0.040000</speed>
</trkpt>
<trkpt lat="22.198051" lon="104.391571">
<ele>186.615356</ele>
<time>2011-04-27T09:50:36Z</time>
<desc>lat.=22.198051, lon.=104.391571, Alt.=186.615356m. Speed=0.000000m/h.</desc>
<speed>0.000000</speed>
</trkpt>
<trkpt lat="22.198050" lon="104.391571">
<ele>186.584106</ele>
<time>2011-04-27T09:50:41Z</time>
<desc>lat.=22.198050, lon.=104.391571, Alt.=186.584106m. Speed=0.216000m/h.</desc>
<speed>0.060000</speed>
</trkpt>
<trkpt lat="22.198048" lon="104.391571">
<ele>186.572388</ele>
<time>2011-04-27T09:50:46Z</time>
<desc>lat.=22.198048, lon.=104.391571, Alt.=186.572388m. Speed=0.792000m/h.</desc>
<speed>0.220000</speed>
</trkpt>
<trkpt lat="22.198048" lon="104.391563">
<ele>186.580200</ele>
<time>2011-04-27T09:50:51Z</time>
<desc>lat.=22.198048, lon.=104.391563, Alt.=186.580200m. Speed=0.216000m/h.</desc>
<speed>0.060000</speed>
</trkpt>
<trkpt lat="22.198046" lon="104.391563">
<ele>186.603638</ele>
<time>2011-04-27T09:50:56Z</time>
<desc>lat.=22.198046, lon.=104.391563, Alt.=186.603638m. Speed=0.324000m/h.</desc>
<speed>0.090000</speed>
</trkpt>
<trkpt lat="22.198046" lon="104.391563">
<ele>186.736450</ele>
<time>2011-04-27T09:51:01Z</time>
<desc>lat.=22.198046, lon.=104.391563, Alt.=186.736450m. Speed=0.180000m/h.</desc>
<speed>0.050000</speed>
</trkpt>
<trkpt lat="22.198046" lon="104.391556">
<ele>186.810669</ele>
<time>2011-04-27T09:51:06Z</time>
<desc>lat.=22.198046, lon.=104.391556, Alt.=186.810669m. Speed=0.252000m/h.</desc>
<speed>0.070000</speed>
</trkpt>
<trkpt lat="22.198044" lon="104.391563">
<ele>186.877075</ele>
<time>2011-04-27T09:51:11Z</time>
<desc>lat.=22.198044, lon.=104.391563, Alt.=186.877075m. Speed=0.072000m/h.</desc>
<speed>0.020000</speed>
</trkpt>
<trkpt lat="22.198044" lon="104.391563">
<ele>186.830200</ele>
<time>2011-04-27T09:51:16Z</time>
<desc>lat.=22.198044, lon.=104.391563, Alt.=186.830200m. Speed=0.180000m/h.</desc>
<speed>0.050000</speed>
</trkpt>
<trkpt lat="22.198044" lon="104.391563">
<ele>186.755981</ele>
<time>2011-04-27T09:51:21Z</time>
<desc>lat.=22.198044, lon.=104.391563, Alt.=186.755981m. Speed=0.072000m/h.</desc>
<speed>0.020000</speed>
</trkpt>
<trkpt lat="22.198044" lon="104.391563">
<ele>186.670044</ele>
<time>2011-04-27T09:51:26Z</time>
<desc>lat.=22.198044, lon.=104.391563, Alt.=186.670044m. Speed=0.072000m/h.</desc>
<speed>0.020000</speed>
</trkpt>
<trkpt lat="22.198044" lon="104.391563">
<ele>186.599731</ele>
<time>2011-04-27T09:51:31Z</time>
<desc>lat.=22.198044, lon.=104.391563, Alt.=186.599731m. Speed=0.072000m/h.</desc>
<speed>0.020000</speed>
</trkpt>
<trkpt lat="22.198044" lon="104.391563">
<ele>186.537231</ele>
<time>2011-04-27T09:51:36Z</time>
<desc>lat.=22.198044, lon.=104.391563, Alt.=186.537231m. Speed=0.072000m/h.</desc>
<speed>0.020000</speed>
</trkpt>
<trkpt lat="22.198044" lon="104.391563">
<ele>186.533325</ele>
<time>2011-04-27T09:51:41Z</time>
<desc>lat.=22.198044, lon.=104.391563, Alt.=186.533325m. Speed=0.000000m/h.</desc>
<speed>0.000000</speed>
</trkpt>
<trkpt lat="22.198044" lon="104.391563">
<ele>186.560669</ele>
<time>2011-04-27T09:51:46Z</time>
<desc>lat.=22.198044, lon.=104.391563, Alt.=186.560669m. Speed=0.072000m/h.</desc>
<speed>0.020000</speed>
</trkpt>
<trkpt lat="22.198044" lon="104.391563">
<ele>186.513794</ele>
<time>2011-04-27T09:51:51Z</time>
<desc>lat.=22.198044, lon.=104.391563, Alt.=186.513794m. Speed=0.072000m/h.</desc>
<speed>0.020000</speed>
</trkpt>
<trkpt lat="22.198044" lon="104.391563">
<ele>186.482544</ele>
<time>2011-04-27T09:51:56Z</time>
<desc>lat.=22.198044, lon.=104.391563, Alt.=186.482544m. Speed=0.000000m/h.</desc>
<speed>0.000000</speed>
</trkpt>
<trkpt lat="22.198044" lon="104.391563">
<ele>186.451294</ele>
<time>2011-04-27T09:52:01Z</time>
<desc>lat.=22.198044, lon.=104.391563, Alt.=186.451294m. Speed=0.072000m/h.</desc>
<speed>0.020000</speed>
</trkpt>
<trkpt lat="22.198044" lon="104.391563">
<ele>186.443481</ele>
<time>2011-04-27T09:52:06Z</time>
<desc>lat.=22.198044, lon.=104.391563, Alt.=186.443481m. Speed=0.108000m/h.</desc>
<speed>0.030000</speed>
</trkpt>
<trkpt lat="22.198044" lon="104.391563">
<ele>186.427856</ele>
<time>2011-04-27T09:52:11Z</time>
<desc>lat.=22.198044, lon.=104.391563, Alt.=186.427856m. Speed=0.072000m/h.</desc>
<speed>0.020000</speed>
</trkpt>
<trkpt lat="22.198044" lon="104.391563">
<ele>186.463013</ele>
<time>2011-04-27T09:52:16Z</time>
<desc>lat.=22.198044, lon.=104.391563, Alt.=186.463013m. Speed=0.072000m/h.</desc>
<speed>0.020000</speed>
</trkpt>
<trkpt lat="22.198042" lon="104.391563">
<ele>186.478638</ele>
<time>2011-04-27T09:52:21Z</time>
<desc>lat.=22.198042, lon.=104.391563, Alt.=186.478638m. Speed=0.000000m/h.</desc>
<speed>0.000000</speed>
</trkpt>
<trkpt lat="22.198042" lon="104.391563">
<ele>186.455200</ele>
<time>2011-04-27T09:52:26Z</time>
<desc>lat.=22.198042, lon.=104.391563, Alt.=186.455200m. Speed=0.072000m/h.</desc>
<speed>0.020000</speed>
</trkpt>
<trkpt lat="22.198042" lon="104.391563">
<ele>186.470825</ele>
<time>2011-04-27T09:52:31Z</time>
<desc>lat.=22.198042, lon.=104.391563, Alt.=186.470825m. Speed=0.000000m/h.</desc>
<speed>0.000000</speed>
</trkpt>
<trkpt lat="22.198042" lon="104.391563">
<ele>186.400513</ele>
<time>2011-04-27T09:52:36Z</time>
<desc>lat.=22.198042, lon.=104.391563, Alt.=186.400513m. Speed=0.216000m/h.</desc>
<speed>0.060000</speed>
</trkpt>
<trkpt lat="22.198040" lon="104.391563">
<ele>186.283325</ele>
<time>2011-04-27T09:52:41Z</time>
<desc>lat.=22.198040, lon.=104.391563, Alt.=186.283325m. Speed=0.000000m/h.</desc>
<speed>0.000000</speed>
</trkpt>
<trkpt lat="22.198040" lon="104.391563">
<ele>186.248169</ele>
<time>2011-04-27T09:52:46Z</time>
<desc>lat.=22.198040, lon.=104.391563, Alt.=186.248169m. Speed=0.000000m/h.</desc>
<speed>0.000000</speed>
</trkpt>
<trkpt lat="22.198040" lon="104.391563">
<ele>186.252075</ele>
<time>2011-04-27T09:52:51Z</time>
<desc>lat.=22.198040, lon.=104.391563, Alt.=186.252075m. Speed=0.072000m/h.</desc>
<speed>0.020000</speed>
</trkpt>
<trkpt lat="22.198040" lon="104.391563">
<ele>186.162231</ele>
<time>2011-04-27T09:52:56Z</time>
<desc>lat.=22.198040, lon.=104.391563, Alt.=186.162231m. Speed=0.000000m/h.</desc>
<speed>0.000000</speed>
</trkpt>
<trkpt lat="22.198040" lon="104.391563">
<ele>186.123169</ele>
<time>2011-04-27T09:53:01Z</time>
<desc>lat.=22.198040, lon.=104.391563, Alt.=186.123169m. Speed=0.036000m/h.</desc>
<speed>0.010000</speed>
</trkpt>
<trkpt lat="22.198040" lon="104.391563">
<ele>186.193481</ele>
<time>2011-04-27T09:53:06Z</time>
<desc>lat.=22.198040, lon.=104.391563, Alt.=186.193481m. Speed=0.036000m/h.</desc>
<speed>0.010000</speed>
</trkpt>
<trkpt lat="22.198042" lon="104.391563">
<ele>186.271606</ele>
<time>2011-04-27T09:53:11Z</time>
<desc>lat.=22.198042, lon.=104.391563, Alt.=186.271606m. Speed=0.324000m/h.</desc>
<speed>0.090000</speed>
</trkpt>
<trkpt lat="22.198044" lon="104.391563">
<ele>186.341919</ele>
<time>2011-04-27T09:53:16Z</time>
<desc>lat.=22.198044, lon.=104.391563, Alt.=186.341919m. Speed=0.144000m/h.</desc>
<speed>0.040000</speed>
</trkpt>
<trkpt lat="22.198044" lon="104.391563">
<ele>186.380981</ele>
<time>2011-04-27T09:53:21Z</time>
<desc>lat.=22.198044, lon.=104.391563, Alt.=186.380981m. Speed=0.108000m/h.</desc>
<speed>0.030000</speed>
</trkpt>
<trkpt lat="22.198044" lon="104.391563">
<ele>186.478638</ele>
<time>2011-04-27T09:53:26Z</time>
<desc>lat.=22.198044, lon.=104.391563, Alt.=186.478638m. Speed=0.108000m/h.</desc>
<speed>0.030000</speed>
</trkpt>
<trkpt lat="22.198046" lon="104.391563">
<ele>186.498169</ele>
<time>2011-04-27T09:53:31Z</time>
<desc>lat.=22.198046, lon.=104.391563, Alt.=186.498169m. Speed=0.072000m/h.</desc>
<speed>0.020000</speed>
</trkpt>
<trkpt lat="22.198046" lon="104.391563">
<ele>186.494263</ele>
<time>2011-04-27T09:53:36Z</time>
<desc>lat.=22.198046, lon.=104.391563, Alt.=186.494263m. Speed=0.000000m/h.</desc>
<speed>0.000000</speed>
</trkpt>
<trkpt lat="22.198044" lon="104.391563">
<ele>186.470825</ele>
<time>2011-04-27T09:53:41Z</time>
<desc>lat.=22.198044, lon.=104.391563, Alt.=186.470825m. Speed=0.180000m/h.</desc>
<speed>0.050000</speed>
</trkpt>
<trkpt lat="22.198044" lon="104.391563">
<ele>186.431763</ele>
<time>2011-04-27T09:53:46Z</time>
<desc>lat.=22.198044, lon.=104.391563, Alt.=186.431763m. Speed=0.072000m/h.</desc>
<speed>0.020000</speed>
</trkpt>
<trkpt lat="22.198046" lon="104.391563">
<ele>186.439575</ele>
<time>2011-04-27T09:53:51Z</time>
<desc>lat.=22.198046, lon.=104.391563, Alt.=186.439575m. Speed=0.108000m/h.</desc>
<speed>0.030000</speed>
</trkpt>
<trkpt lat="22.198048" lon="104.391563">
<ele>186.564575</ele>
<time>2011-04-27T09:53:56Z</time>
<desc>lat.=22.198048, lon.=104.391563, Alt.=186.564575m. Speed=0.288000m/h.</desc>
<speed>0.080000</speed>
</trkpt>
<trkpt lat="22.198050" lon="104.391563">
<ele>186.724731</ele>
<time>2011-04-27T09:54:01Z</time>
<desc>lat.=22.198050, lon.=104.391563, Alt.=186.724731m. Speed=0.144000m/h.</desc>
<speed>0.040000</speed>
</trkpt>
<trkpt lat="22.198051" lon="104.391563">
<ele>186.763794</ele>
<time>2011-04-27T09:54:06Z</time>
<desc>lat.=22.198051, lon.=104.391563, Alt.=186.763794m. Speed=0.180000m/h.</desc>
<speed>0.050000</speed>
</trkpt>
<trkpt lat="22.198050" lon="104.391563">
<ele>186.705200</ele>
<time>2011-04-27T09:54:11Z</time>
<desc>lat.=22.198050, lon.=104.391563, Alt.=186.705200m. Speed=0.072000m/h.</desc>
<speed>0.020000</speed>
</trkpt>
<trkpt lat="22.198050" lon="104.391563">
<ele>186.615356</ele>
<time>2011-04-27T09:54:16Z</time>
<desc>lat.=22.198050, lon.=104.391563, Alt.=186.615356m. Speed=0.108000m/h.</desc>
<speed>0.030000</speed>
</trkpt>
<trkpt lat="22.198050" lon="104.391563">
<ele>186.556763</ele>
<time>2011-04-27T09:54:21Z</time>
<desc>lat.=22.198050, lon.=104.391563, Alt.=186.556763m. Speed=0.108000m/h.</desc>
<speed>0.030000</speed>
</trkpt>
<trkpt lat="22.198050" lon="104.391563">
<ele>186.529419</ele>
<time>2011-04-27T09:54:26Z</time>
<desc>lat.=22.198050, lon.=104.391563, Alt.=186.529419m. Speed=0.108000m/h.</desc>
<speed>0.030000</speed>
</trkpt>
<trkpt lat="22.198048" lon="104.391563">
<ele>186.521606</ele>
<time>2011-04-27T09:54:31Z</time>
<desc>lat.=22.198048, lon.=104.391563, Alt.=186.521606m. Speed=0.180000m/h.</desc>
<speed>0.050000</speed>
</trkpt>
<trkpt lat="22.198050" lon="104.391563">
<ele>186.552856</ele>
<time>2011-04-27T09:54:36Z</time>
<desc>lat.=22.198050, lon.=104.391563, Alt.=186.552856m. Speed=0.324000m/h.</desc>
<speed>0.090000</speed>
</trkpt>
<trkpt lat="22.198067" lon="104.391602">
<ele>186.556763</ele>
<time>2011-04-27T09:54:41Z</time>
<desc>lat.=22.198067, lon.=104.391602, Alt.=186.556763m. Speed=6.372000m/h.</desc>
<speed>1.770000</speed>
</trkpt>
<trkpt lat="22.198122" lon="104.391670">
<ele>186.423950</ele>
<time>2011-04-27T09:54:46Z</time>
<desc>lat.=22.198122, lon.=104.391670, Alt.=186.423950m. Speed=6.516000m/h.</desc>
<speed>1.810000</speed>
</trkpt>
<trkpt lat="22.198215" lon="104.391747">
<ele>187.216919</ele>
<time>2011-04-27T09:54:51Z</time>
<desc>lat.=22.198215, lon.=104.391747, Alt.=187.216919m. Speed=5.724000m/h.</desc>
<speed>1.590000</speed>
</trkpt>
<trkpt lat="22.198292" lon="104.391747">
<ele>187.470825</ele>
<time>2011-04-27T09:54:56Z</time>
<desc>lat.=22.198292, lon.=104.391747, Alt.=187.470825m. Speed=5.256000m/h.</desc>
<speed>1.460000</speed>
</trkpt>
<trkpt lat="22.198345" lon="104.391747">
<ele>188.931763</ele>
<time>2011-04-27T09:55:01Z</time>
<desc>lat.=22.198345, lon.=104.391747, Alt.=188.931763m. Speed=4.104000m/h.</desc>
<speed>1.140000</speed>
</trkpt>
<trkpt lat="22.198414" lon="104.391754">
<ele>190.091919</ele>
<time>2011-04-27T09:55:06Z</time>
<desc>lat.=22.198414, lon.=104.391754, Alt.=190.091919m. Speed=3.852000m/h.</desc>
<speed>1.070000</speed>
</trkpt>
<trkpt lat="22.198454" lon="104.391731">
<ele>191.088013</ele>
<time>2011-04-27T09:55:11Z</time>
<desc>lat.=22.198454, lon.=104.391731, Alt.=191.088013m. Speed=3.492000m/h.</desc>
<speed>0.970000</speed>
</trkpt>
<trkpt lat="22.198498" lon="104.391739">
<ele>192.404419</ele>
<time>2011-04-27T09:55:16Z</time>
<desc>lat.=22.198498, lon.=104.391739, Alt.=192.404419m. Speed=4.500000m/h.</desc>
<speed>1.250000</speed>
</trkpt>
<trkpt lat="22.198559" lon="104.391724">
<ele>193.681763</ele>
<time>2011-04-27T09:55:21Z</time>
<desc>lat.=22.198559, lon.=104.391724, Alt.=193.681763m. Speed=5.904000m/h.</desc>
<speed>1.640000</speed>
</trkpt>
<trkpt lat="22.198629" lon="104.391716">
<ele>195.408325</ele>
<time>2011-04-27T09:55:26Z</time>
<desc>lat.=22.198629, lon.=104.391716, Alt.=195.408325m. Speed=6.516000m/h.</desc>
<speed>1.810000</speed>
</trkpt>
<trkpt lat="22.198708" lon="104.391739">
<ele>196.111450</ele>
<time>2011-04-27T09:55:31Z</time>
<desc>lat.=22.198708, lon.=104.391739, Alt.=196.111450m. Speed=5.256000m/h.</desc>
<speed>1.460000</speed>
</trkpt>
<trkpt lat="22.198784" lon="104.391762">
<ele>197.455200</ele>
<time>2011-04-27T09:55:36Z</time>
<desc>lat.=22.198784, lon.=104.391762, Alt.=197.455200m. Speed=5.724000m/h.</desc>
<speed>1.590000</speed>
</trkpt>
<trkpt lat="22.198851" lon="104.391739">
<ele>199.412231</ele>
<time>2011-04-27T09:55:41Z</time>
<desc>lat.=22.198851, lon.=104.391739, Alt.=199.412231m. Speed=4.536000m/h.</desc>
<speed>1.260000</speed>
</trkpt>
<trkpt lat="22.198944" lon="104.391731">
<ele>199.810669</ele>
<time>2011-04-27T09:55:46Z</time>
<desc>lat.=22.198944, lon.=104.391731, Alt.=199.810669m. Speed=6.228000m/h.</desc>
<speed>1.730000</speed>
</trkpt>
<trkpt lat="22.199026" lon="104.391731">
<ele>199.115356</ele>
<time>2011-04-27T09:55:51Z</time>
<desc>lat.=22.199026, lon.=104.391731, Alt.=199.115356m. Speed=6.984000m/h.</desc>
<speed>1.940000</speed>
</trkpt>
<trkpt lat="22.199102" lon="104.391747">
<ele>197.709106</ele>
<time>2011-04-27T09:55:56Z</time>
<desc>lat.=22.199102, lon.=104.391747, Alt.=197.709106m. Speed=6.876000m/h.</desc>
<speed>1.910000</speed>
</trkpt>
<trkpt lat="22.199184" lon="104.391754">
<ele>198.603638</ele>
<time>2011-04-27T09:56:01Z</time>
<desc>lat.=22.199184, lon.=104.391754, Alt.=198.603638m. Speed=7.056000m/h.</desc>
<speed>1.960000</speed>
</trkpt>
<trkpt lat="22.199268" lon="104.391747">
<ele>198.755981</ele>
<time>2011-04-27T09:56:06Z</time>
<desc>lat.=22.199268, lon.=104.391747, Alt.=198.755981m. Speed=7.236000m/h.</desc>
<speed>2.010000</speed>
</trkpt>
<trkpt lat="22.199348" lon="104.391739">
<ele>198.537231</ele>
<time>2011-04-27T09:56:11Z</time>
<desc>lat.=22.199348, lon.=104.391739, Alt.=198.537231m. Speed=7.020000m/h.</desc>
<speed>1.950000</speed>
</trkpt>
<trkpt lat="22.199434" lon="104.391716">
<ele>198.728638</ele>
<time>2011-04-27T09:56:16Z</time>
<desc>lat.=22.199434, lon.=104.391716, Alt.=198.728638m. Speed=7.128000m/h.</desc>
<speed>1.980000</speed>
</trkpt>
<trkpt lat="22.199511" lon="104.391670">
<ele>199.912231</ele>
<time>2011-04-27T09:56:21Z</time>
<desc>lat.=22.199511, lon.=104.391670, Alt.=199.912231m. Speed=7.452000m/h.</desc>
<speed>2.070000</speed>
</trkpt>
<trkpt lat="22.199594" lon="104.391640">
<ele>200.627075</ele>
<time>2011-04-27T09:56:26Z</time>
<desc>lat.=22.199594, lon.=104.391640, Alt.=200.627075m. Speed=6.552000m/h.</desc>
<speed>1.820000</speed>
</trkpt>
<trkpt lat="22.199677" lon="104.391609">
<ele>201.713013</ele>
<time>2011-04-27T09:56:31Z</time>
<desc>lat.=22.199677, lon.=104.391609, Alt.=201.713013m. Speed=6.804000m/h.</desc>
<speed>1.890000</speed>
</trkpt>
<trkpt lat="22.199753" lon="104.391594">
<ele>201.787231</ele>
<time>2011-04-27T09:56:36Z</time>
<desc>lat.=22.199753, lon.=104.391594, Alt.=201.787231m. Speed=6.228000m/h.</desc>
<speed>1.730000</speed>
</trkpt>
<trkpt lat="22.199821" lon="104.391586">
<ele>202.349731</ele>
<time>2011-04-27T09:56:41Z</time>
<desc>lat.=22.199821, lon.=104.391586, Alt.=202.349731m. Speed=5.580000m/h.</desc>
<speed>1.550000</speed>
</trkpt>
<trkpt lat="22.199875" lon="104.391655">
<ele>204.630981</ele>
<time>2011-04-27T09:56:46Z</time>
<desc>lat.=22.199875, lon.=104.391655, Alt.=204.630981m. Speed=5.724000m/h.</desc>
<speed>1.590000</speed>
</trkpt>
<trkpt lat="22.199924" lon="104.391731">
<ele>204.088013</ele>
<time>2011-04-27T09:56:51Z</time>
<desc>lat.=22.199924, lon.=104.391731, Alt.=204.088013m. Speed=6.048000m/h.</desc>
<speed>1.680000</speed>
</trkpt>
<trkpt lat="22.199940" lon="104.391815">
<ele>203.752075</ele>
<time>2011-04-27T09:56:56Z</time>
<desc>lat.=22.199940, lon.=104.391815, Alt.=203.752075m. Speed=6.336000m/h.</desc>
<speed>1.760000</speed>
</trkpt>
<trkpt lat="22.199923" lon="104.391876">
<ele>204.955200</ele>
<time>2011-04-27T09:57:01Z</time>
<desc>lat.=22.199923, lon.=104.391876, Alt.=204.955200m. Speed=6.588000m/h.</desc>
<speed>1.830000</speed>
</trkpt>
<trkpt lat="22.199890" lon="104.391968">
<ele>204.877075</ele>
<time>2011-04-27T09:57:06Z</time>
<desc>lat.=22.199890, lon.=104.391968, Alt.=204.877075m. Speed=5.076000m/h.</desc>
<speed>1.410000</speed>
</trkpt>
<trkpt lat="22.199865" lon="104.392067">
<ele>203.814575</ele>
<time>2011-04-27T09:57:11Z</time>
<desc>lat.=22.199865, lon.=104.392067, Alt.=203.814575m. Speed=6.480000m/h.</desc>
<speed>1.800000</speed>
</trkpt>
<trkpt lat="22.199827" lon="104.392151">
<ele>204.552856</ele>
<time>2011-04-27T09:57:16Z</time>
<desc>lat.=22.199827, lon.=104.392151, Alt.=204.552856m. Speed=5.184000m/h.</desc>
<speed>1.440000</speed>
</trkpt>
<trkpt lat="22.199787" lon="104.392235">
<ele>203.099731</ele>
<time>2011-04-27T09:57:21Z</time>
<desc>lat.=22.199787, lon.=104.392235, Alt.=203.099731m. Speed=1.080000m/h.</desc>
<speed>0.300000</speed>
</trkpt>
<trkpt lat="22.199768" lon="104.392334">
<ele>203.408325</ele>
<time>2011-04-27T09:57:26Z</time>
<desc>lat.=22.199768, lon.=104.392334, Alt.=203.408325m. Speed=6.912000m/h.</desc>
<speed>1.920000</speed>
</trkpt>
<trkpt lat="22.199755" lon="104.392418">
<ele>203.595825</ele>
<time>2011-04-27T09:57:31Z</time>
<desc>lat.=22.199755, lon.=104.392418, Alt.=203.595825m. Speed=5.868000m/h.</desc>
<speed>1.630000</speed>
</trkpt>
<trkpt lat="22.199724" lon="104.392502">
<ele>204.349731</ele>
<time>2011-04-27T09:57:36Z</time>
<desc>lat.=22.199724, lon.=104.392502, Alt.=204.349731m. Speed=6.192000m/h.</desc>
<speed>1.720000</speed>
</trkpt>
<trkpt lat="22.199728" lon="104.392609">
<ele>205.009888</ele>
<time>2011-04-27T09:57:41Z</time>
<desc>lat.=22.199728, lon.=104.392609, Alt.=205.009888m. Speed=6.768000m/h.</desc>
<speed>1.880000</speed>
</trkpt>
<trkpt lat="22.199797" lon="104.392708">
<ele>206.787231</ele>
<time>2011-04-27T09:57:46Z</time>
<desc>lat.=22.199797, lon.=104.392708, Alt.=206.787231m. Speed=6.336000m/h.</desc>
<speed>1.760000</speed>
</trkpt>
<trkpt lat="22.199873" lon="104.392754">
<ele>205.978638</ele>
<time>2011-04-27T09:57:51Z</time>
<desc>lat.=22.199873, lon.=104.392754, Alt.=205.978638m. Speed=6.696000m/h.</desc>
<speed>1.860000</speed>
</trkpt>
<trkpt lat="22.199930" lon="104.392769">
<ele>206.185669</ele>
<time>2011-04-27T09:57:56Z</time>
<desc>lat.=22.199930, lon.=104.392769, Alt.=206.185669m. Speed=5.508000m/h.</desc>
<speed>1.530000</speed>
</trkpt>
<trkpt lat="22.200018" lon="104.392784">
<ele>206.377075</ele>
<time>2011-04-27T09:58:01Z</time>
<desc>lat.=22.200018, lon.=104.392784, Alt.=206.377075m. Speed=7.416000m/h.</desc>
<speed>2.060000</speed>
</trkpt>
<trkpt lat="22.200106" lon="104.392769">
<ele>207.865356</ele>
<time>2011-04-27T09:58:06Z</time>
<desc>lat.=22.200106, lon.=104.392769, Alt.=207.865356m. Speed=6.300000m/h.</desc>
<speed>1.750000</speed>
</trkpt>
<trkpt lat="22.200180" lon="104.392769">
<ele>207.904419</ele>
<time>2011-04-27T09:58:11Z</time>
<desc>lat.=22.200180, lon.=104.392769, Alt.=207.904419m. Speed=5.904000m/h.</desc>
<speed>1.640000</speed>
</trkpt>
<trkpt lat="22.200222" lon="104.392784">
<ele>207.314575</ele>
<time>2011-04-27T09:58:16Z</time>
<desc>lat.=22.200222, lon.=104.392784, Alt.=207.314575m. Speed=0.144000m/h.</desc>
<speed>0.040000</speed>
</trkpt>
<trkpt lat="22.200228" lon="104.392792">
<ele>206.455200</ele>
<time>2011-04-27T09:58:21Z</time>
<desc>lat.=22.200228, lon.=104.392792, Alt.=206.455200m. Speed=0.072000m/h.</desc>
<speed>0.020000</speed>
</trkpt>
<trkpt lat="22.200228" lon="104.392792">
<ele>206.365356</ele>
<time>2011-04-27T09:58:26Z</time>
<desc>lat.=22.200228, lon.=104.392792, Alt.=206.365356m. Speed=0.036000m/h.</desc>
<speed>0.010000</speed>
</trkpt>
<trkpt lat="22.200228" lon="104.392792">
<ele>206.322388</ele>
<time>2011-04-27T09:58:31Z</time>
<desc>lat.=22.200228, lon.=104.392792, Alt.=206.322388m. Speed=0.000000m/h.</desc>
<speed>0.000000</speed>
</trkpt>
<trkpt lat="22.200228" lon="104.392792">
<ele>206.298950</ele>
<time>2011-04-27T09:58:36Z</time>
<desc>lat.=22.200228, lon.=104.392792, Alt.=206.298950m. Speed=0.000000m/h.</desc>
<speed>0.000000</speed>
</trkpt>
<trkpt lat="22.200228" lon="104.392792">
<ele>206.287231</ele>
<time>2011-04-27T09:58:41Z</time>
<desc>lat.=22.200228, lon.=104.392792, Alt.=206.287231m. Speed=0.000000m/h.</desc>
<speed>0.000000</speed>
</trkpt>
<trkpt lat="22.200228" lon="104.392792">
<ele>206.283325</ele>
<time>2011-04-27T09:58:46Z</time>
<desc>lat.=22.200228, lon.=104.392792, Alt.=206.283325m. Speed=0.000000m/h.</desc>
<speed>0.000000</speed>
</trkpt>
<trkpt lat="22.200228" lon="104.392792">
<ele>206.275513</ele>
<time>2011-04-27T09:58:51Z</time>
<desc>lat.=22.200228, lon.=104.392792, Alt.=206.275513m. Speed=0.000000m/h.</desc>
<speed>0.000000</speed>
</trkpt>
<trkpt lat="22.200228" lon="104.392792">
<ele>206.271606</ele>
<time>2011-04-27T09:58:56Z</time>
<desc>lat.=22.200228, lon.=104.392792, Alt.=206.271606m. Speed=0.036000m/h.</desc>
<speed>0.010000</speed>
</trkpt>
<trkpt lat="22.200228" lon="104.392792">
<ele>206.267700</ele>
<time>2011-04-27T09:59:01Z</time>
<desc>lat.=22.200228, lon.=104.392792, Alt.=206.267700m. Speed=0.000000m/h.</desc>
<speed>0.000000</speed>
</trkpt>
<trkpt lat="22.200228" lon="104.392792">
<ele>206.259888</ele>
<time>2011-04-27T09:59:06Z</time>
<desc>lat.=22.200228, lon.=104.392792, Alt.=206.259888m. Speed=0.000000m/h.</desc>
<speed>0.000000</speed>
</trkpt>
<trkpt lat="22.200228" lon="104.392792">
<ele>206.255981</ele>
<time>2011-04-27T09:59:11Z</time>
<desc>lat.=22.200228, lon.=104.392792, Alt.=206.255981m. Speed=0.000000m/h.</desc>
<speed>0.000000</speed>
</trkpt>
<trkpt lat="22.200228" lon="104.392792">
<ele>206.224731</ele>
<time>2011-04-27T09:59:16Z</time>
<desc>lat.=22.200228, lon.=104.392792, Alt.=206.224731m. Speed=0.036000m/h.</desc>
<speed>0.010000</speed>
</trkpt>
<trkpt lat="22.200228" lon="104.392792">
<ele>206.205200</ele>
<time>2011-04-27T09:59:21Z</time>
<desc>lat.=22.200228, lon.=104.392792, Alt.=206.205200m. Speed=0.000000m/h.</desc>
<speed>0.000000</speed>
</trkpt>
<trkpt lat="22.200230" lon="104.392799">
<ele>206.216919</ele>
<time>2011-04-27T09:59:26Z</time>
<desc>lat.=22.200230, lon.=104.392799, Alt.=206.216919m. Speed=0.504000m/h.</desc>
<speed>0.140000</speed>
</trkpt>
<trkpt lat="22.200241" lon="104.392807">
<ele>206.244263</ele>
<time>2011-04-27T09:59:31Z</time>
<desc>lat.=22.200241, lon.=104.392807, Alt.=206.244263m. Speed=3.024000m/h.</desc>
<speed>0.840000</speed>
</trkpt>
<trkpt lat="22.200315" lon="104.392868">
<ele>206.236450</ele>
<time>2011-04-27T09:59:36Z</time>
<desc>lat.=22.200315, lon.=104.392868, Alt.=206.236450m. Speed=7.128000m/h.</desc>
<speed>1.980000</speed>
</trkpt>
<trkpt lat="22.200399" lon="104.392937">
<ele>206.361450</ele>
<time>2011-04-27T09:59:41Z</time>
<desc>lat.=22.200399, lon.=104.392937, Alt.=206.361450m. Speed=7.164000m/h.</desc>
<speed>1.990000</speed>
</trkpt>
<trkpt lat="22.200474" lon="104.392998">
<ele>206.888794</ele>
<time>2011-04-27T09:59:46Z</time>
<desc>lat.=22.200474, lon.=104.392998, Alt.=206.888794m. Speed=7.272000m/h.</desc>
<speed>2.020000</speed>
</trkpt>
<trkpt lat="22.200552" lon="104.393051">
<ele>207.599731</ele>
<time>2011-04-27T09:59:51Z</time>
<desc>lat.=22.200552, lon.=104.393051, Alt.=207.599731m. Speed=7.632000m/h.</desc>
<speed>2.120000</speed>
</trkpt>
<trkpt lat="22.200649" lon="104.393105">
<ele>208.224731</ele>
<time>2011-04-27T09:59:56Z</time>
<desc>lat.=22.200649, lon.=104.393105, Alt.=208.224731m. Speed=6.336000m/h.</desc>
<speed>1.760000</speed>
</trkpt>
<trkpt lat="22.200720" lon="104.393143">
<ele>208.017700</ele>
<time>2011-04-27T10:00:01Z</time>
<desc>lat.=22.200720, lon.=104.393143, Alt.=208.017700m. Speed=6.840000m/h.</desc>
<speed>1.900000</speed>
</trkpt>
<trkpt lat="22.200773" lon="104.393211">
<ele>207.658325</ele>
<time>2011-04-27T10:00:06Z</time>
<desc>lat.=22.200773, lon.=104.393211, Alt.=207.658325m. Speed=6.192000m/h.</desc>
<speed>1.720000</speed>
</trkpt>
<trkpt lat="22.200861" lon="104.393257">
<ele>207.240356</ele>
<time>2011-04-27T10:00:11Z</time>
<desc>lat.=22.200861, lon.=104.393257, Alt.=207.240356m. Speed=6.696000m/h.</desc>
<speed>1.860000</speed>
</trkpt>
<trkpt lat="22.200943" lon="104.393295">
<ele>207.416138</ele>
<time>2011-04-27T10:00:16Z</time>
<desc>lat.=22.200943, lon.=104.393295, Alt.=207.416138m. Speed=6.192000m/h.</desc>
<speed>1.720000</speed>
</trkpt>
<trkpt lat="22.201025" lon="104.393364">
<ele>207.240356</ele>
<time>2011-04-27T10:00:21Z</time>
<desc>lat.=22.201025, lon.=104.393364, Alt.=207.240356m. Speed=7.056000m/h.</desc>
<speed>1.960000</speed>
</trkpt>
<trkpt lat="22.201099" lon="104.393433">
<ele>206.857544</ele>
<time>2011-04-27T10:00:26Z</time>
<desc>lat.=22.201099, lon.=104.393433, Alt.=206.857544m. Speed=7.812000m/h.</desc>
<speed>2.170000</speed>
</trkpt>
<trkpt lat="22.201174" lon="104.393509">
<ele>206.884888</ele>
<time>2011-04-27T10:00:31Z</time>
<desc>lat.=22.201174, lon.=104.393509, Alt.=206.884888m. Speed=7.164000m/h.</desc>
<speed>1.990000</speed>
</trkpt>
<trkpt lat="22.201242" lon="104.393578">
<ele>206.923950</ele>
<time>2011-04-27T10:00:36Z</time>
<desc>lat.=22.201242, lon.=104.393578, Alt.=206.923950m. Speed=7.416000m/h.</desc>
<speed>2.060000</speed>
</trkpt>
<trkpt lat="22.201334" lon="104.393684">
<ele>206.252075</ele>
<time>2011-04-27T10:00:41Z</time>
<desc>lat.=22.201334, lon.=104.393684, Alt.=206.252075m. Speed=6.444000m/h.</desc>
<speed>1.790000</speed>
</trkpt>
<trkpt lat="22.201391" lon="104.393753">
<ele>206.588013</ele>
<time>2011-04-27T10:00:46Z</time>
<desc>lat.=22.201391, lon.=104.393753, Alt.=206.588013m. Speed=7.776000m/h.</desc>
<speed>2.160000</speed>
</trkpt>
<trkpt lat="22.201429" lon="104.393829">
<ele>207.810669</ele>
<time>2011-04-27T10:00:51Z</time>
<desc>lat.=22.201429, lon.=104.393829, Alt.=207.810669m. Speed=7.992000m/h.</desc>
<speed>2.220000</speed>
</trkpt>
<trkpt lat="22.201490" lon="104.393913">
<ele>209.716919</ele>
<time>2011-04-27T10:00:56Z</time>
<desc>lat.=22.201490, lon.=104.393913, Alt.=209.716919m. Speed=6.876000m/h.</desc>
<speed>1.910000</speed>
</trkpt>
<trkpt lat="22.201578" lon="104.394043">
<ele>210.451294</ele>
<time>2011-04-27T10:01:01Z</time>
<desc>lat.=22.201578, lon.=104.394043, Alt.=210.451294m. Speed=9.036000m/h.</desc>
<speed>2.510000</speed>
</trkpt>
<trkpt lat="22.201670" lon="104.394142">
<ele>212.193481</ele>
<time>2011-04-27T10:01:06Z</time>
<desc>lat.=22.201670, lon.=104.394142, Alt.=212.193481m. Speed=9.432000m/h.</desc>
<speed>2.620000</speed>
</trkpt>
<trkpt lat="22.201752" lon="104.394234">
<ele>213.318481</ele>
<time>2011-04-27T10:01:11Z</time>
<desc>lat.=22.201752, lon.=104.394234, Alt.=213.318481m. Speed=8.316000m/h.</desc>
<speed>2.310000</speed>
</trkpt>
<trkpt lat="22.201811" lon="104.394318">
<ele>214.748169</ele>
<time>2011-04-27T10:01:16Z</time>
<desc>lat.=22.201811, lon.=104.394318, Alt.=214.748169m. Speed=8.100000m/h.</desc>
<speed>2.250000</speed>
</trkpt>
<trkpt lat="22.201841" lon="104.394409">
<ele>215.974731</ele>
<time>2011-04-27T10:01:21Z</time>
<desc>lat.=22.201841, lon.=104.394409, Alt.=215.974731m. Speed=5.940000m/h.</desc>
<speed>1.650000</speed>
</trkpt>
<trkpt lat="22.201880" lon="104.394493">
<ele>216.607544</ele>
<time>2011-04-27T10:01:26Z</time>
<desc>lat.=22.201880, lon.=104.394493, Alt.=216.607544m. Speed=5.364000m/h.</desc>
<speed>1.490000</speed>
</trkpt>
<trkpt lat="22.201918" lon="104.394554">
<ele>217.697388</ele>
<time>2011-04-27T10:01:31Z</time>
<desc>lat.=22.201918, lon.=104.394554, Alt.=217.697388m. Speed=5.688000m/h.</desc>
<speed>1.580000</speed>
</trkpt>
<trkpt lat="22.201979" lon="104.394592">
<ele>218.838013</ele>
<time>2011-04-27T10:01:36Z</time>
<desc>lat.=22.201979, lon.=104.394592, Alt.=218.838013m. Speed=6.084000m/h.</desc>
<speed>1.690000</speed>
</trkpt>
<trkpt lat="22.202068" lon="104.394691">
<ele>222.388794</ele>
<time>2011-04-27T10:01:41Z</time>
<desc>lat.=22.202068, lon.=104.394691, Alt.=222.388794m. Speed=6.696000m/h.</desc>
<speed>1.860000</speed>
</trkpt>
<trkpt lat="22.202133" lon="104.394722">
<ele>223.064575</ele>
<time>2011-04-27T10:01:46Z</time>
<desc>lat.=22.202133, lon.=104.394722, Alt.=223.064575m. Speed=6.444000m/h.</desc>
<speed>1.790000</speed>
</trkpt>
<trkpt lat="22.202194" lon="104.394753">
<ele>223.166138</ele>
<time>2011-04-27T10:01:51Z</time>
<desc>lat.=22.202194, lon.=104.394753, Alt.=223.166138m. Speed=6.120000m/h.</desc>
<speed>1.700000</speed>
</trkpt>
<trkpt lat="22.202255" lon="104.394783">
<ele>223.365356</ele>
<time>2011-04-27T10:01:56Z</time>
<desc>lat.=22.202255, lon.=104.394783, Alt.=223.365356m. Speed=4.680000m/h.</desc>
<speed>1.300000</speed>
</trkpt>
<trkpt lat="22.202307" lon="104.394821">
<ele>225.412231</ele>
<time>2011-04-27T10:02:01Z</time>
<desc>lat.=22.202307, lon.=104.394821, Alt.=225.412231m. Speed=4.104000m/h.</desc>
<speed>1.140000</speed>
</trkpt>
<trkpt lat="22.202358" lon="104.394852">
<ele>226.560669</ele>
<time>2011-04-27T10:02:06Z</time>
<desc>lat.=22.202358, lon.=104.394852, Alt.=226.560669m. Speed=3.744000m/h.</desc>
<speed>1.040000</speed>
</trkpt>
<trkpt lat="22.202393" lon="104.394882">
<ele>226.755981</ele>
<time>2011-04-27T10:02:11Z</time>
<desc>lat.=22.202393, lon.=104.394882, Alt.=226.755981m. Speed=3.312000m/h.</desc>
<speed>0.920000</speed>
</trkpt>
<trkpt lat="22.202440" lon="104.394936">
<ele>227.861450</ele>
<time>2011-04-27T10:02:16Z</time>
<desc>lat.=22.202440, lon.=104.394936, Alt.=227.861450m. Speed=4.500000m/h.</desc>
<speed>1.250000</speed>
</trkpt>
<trkpt lat="22.202469" lon="104.394997">
<ele>227.916138</ele>
<time>2011-04-27T10:02:21Z</time>
<desc>lat.=22.202469, lon.=104.394997, Alt.=227.916138m. Speed=4.356000m/h.</desc>
<speed>1.210000</speed>
</trkpt>
<trkpt lat="22.202490" lon="104.395073">
<ele>227.560669</ele>
<time>2011-04-27T10:02:26Z</time>
<desc>lat.=22.202490, lon.=104.395073, Alt.=227.560669m. Speed=4.320000m/h.</desc>
<speed>1.200000</speed>
</trkpt>
<trkpt lat="22.202509" lon="104.395126">
<ele>227.525513</ele>
<time>2011-04-27T10:02:31Z</time>
<desc>lat.=22.202509, lon.=104.395126, Alt.=227.525513m. Speed=2.952000m/h.</desc>
<speed>0.820000</speed>
</trkpt>
<trkpt lat="22.202522" lon="104.395172">
<ele>228.017700</ele>
<time>2011-04-27T10:02:36Z</time>
<desc>lat.=22.202522, lon.=104.395172, Alt.=228.017700m. Speed=3.492000m/h.</desc>
<speed>0.970000</speed>
</trkpt>
<trkpt lat="22.202541" lon="104.395241">
<ele>227.287231</ele>
<time>2011-04-27T10:02:41Z</time>
<desc>lat.=22.202541, lon.=104.395241, Alt.=227.287231m. Speed=5.328000m/h.</desc>
<speed>1.480000</speed>
</trkpt>
<trkpt lat="22.202555" lon="104.395287">
<ele>228.091919</ele>
<time>2011-04-27T10:02:46Z</time>
<desc>lat.=22.202555, lon.=104.395287, Alt.=228.091919m. Speed=4.536000m/h.</desc>
<speed>1.260000</speed>
</trkpt>
<trkpt lat="22.202560" lon="104.395332">
<ele>229.099731</ele>
<time>2011-04-27T10:02:51Z</time>
<desc>lat.=22.202560, lon.=104.395332, Alt.=229.099731m. Speed=5.148000m/h.</desc>
<speed>1.430000</speed>
</trkpt>
<trkpt lat="22.202566" lon="104.395386">
<ele>230.798950</ele>
<time>2011-04-27T10:02:56Z</time>
<desc>lat.=22.202566, lon.=104.395386, Alt.=230.798950m. Speed=3.672000m/h.</desc>
<speed>1.020000</speed>
</trkpt>
<trkpt lat="22.202620" lon="104.395462">
<ele>231.443481</ele>
<time>2011-04-27T10:03:01Z</time>
<desc>lat.=22.202620, lon.=104.395462, Alt.=231.443481m. Speed=8.892000m/h.</desc>
<speed>2.470000</speed>
</trkpt>
<trkpt lat="22.202688" lon="104.395546">
<ele>232.423950</ele>
<time>2011-04-27T10:03:06Z</time>
<desc>lat.=22.202688, lon.=104.395546, Alt.=232.423950m. Speed=6.300000m/h.</desc>
<speed>1.750000</speed>
</trkpt>
<trkpt lat="22.202738" lon="104.395622">
<ele>232.513794</ele>
<time>2011-04-27T10:03:11Z</time>
<desc>lat.=22.202738, lon.=104.395622, Alt.=232.513794m. Speed=6.696000m/h.</desc>
<speed>1.860000</speed>
</trkpt>
<trkpt lat="22.202799" lon="104.395691">
<ele>234.064575</ele>
<time>2011-04-27T10:03:16Z</time>
<desc>lat.=22.202799, lon.=104.395691, Alt.=234.064575m. Speed=6.372000m/h.</desc>
<speed>1.770000</speed>
</trkpt>
<trkpt lat="22.202854" lon="104.395767">
<ele>235.697388</ele>
<time>2011-04-27T10:03:21Z</time>
<desc>lat.=22.202854, lon.=104.395767, Alt.=235.697388m. Speed=5.472000m/h.</desc>
<speed>1.520000</speed>
</trkpt>
<trkpt lat="22.202911" lon="104.395836">
<ele>236.560669</ele>
<time>2011-04-27T10:03:26Z</time>
<desc>lat.=22.202911, lon.=104.395836, Alt.=236.560669m. Speed=6.516000m/h.</desc>
<speed>1.810000</speed>
</trkpt>
<trkpt lat="22.202946" lon="104.395920">
<ele>237.920044</ele>
<time>2011-04-27T10:03:31Z</time>
<desc>lat.=22.202946, lon.=104.395920, Alt.=237.920044m. Speed=6.336000m/h.</desc>
<speed>1.760000</speed>
</trkpt>
<trkpt lat="22.203020" lon="104.396004">
<ele>239.818481</ele>
<time>2011-04-27T10:03:36Z</time>
<desc>lat.=22.203020, lon.=104.396004, Alt.=239.818481m. Speed=6.012000m/h.</desc>
<speed>1.670000</speed>
</trkpt>
<trkpt lat="22.203081" lon="104.396080">
<ele>242.013794</ele>
<time>2011-04-27T10:03:41Z</time>
<desc>lat.=22.203081, lon.=104.396080, Alt.=242.013794m. Speed=5.904000m/h.</desc>
<speed>1.640000</speed>
</trkpt>
<trkpt lat="22.203119" lon="104.396164">
<ele>243.650513</ele>
<time>2011-04-27T10:03:46Z</time>
<desc>lat.=22.203119, lon.=104.396164, Alt.=243.650513m. Speed=5.472000m/h.</desc>
<speed>1.520000</speed>
</trkpt>
<trkpt lat="22.203157" lon="104.396240">
<ele>244.603638</ele>
<time>2011-04-27T10:03:51Z</time>
<desc>lat.=22.203157, lon.=104.396240, Alt.=244.603638m. Speed=7.704000m/h.</desc>
<speed>2.140000</speed>
</trkpt>
<trkpt lat="22.203173" lon="104.396324">
<ele>246.365356</ele>
<time>2011-04-27T10:03:56Z</time>
<desc>lat.=22.203173, lon.=104.396324, Alt.=246.365356m. Speed=6.912000m/h.</desc>
<speed>1.920000</speed>
</trkpt>
<trkpt lat="22.203192" lon="104.396439">
<ele>247.638794</ele>
<time>2011-04-27T10:04:01Z</time>
<desc>lat.=22.203192, lon.=104.396439, Alt.=247.638794m. Speed=7.056000m/h.</desc>
<speed>1.960000</speed>
</trkpt>
<trkpt lat="22.203222" lon="104.396523">
<ele>247.267700</ele>
<time>2011-04-27T10:04:06Z</time>
<desc>lat.=22.203222, lon.=104.396523, Alt.=247.267700m. Speed=5.832000m/h.</desc>
<speed>1.620000</speed>
</trkpt>
<trkpt lat="22.203226" lon="104.396599">
<ele>248.771606</ele>
<time>2011-04-27T10:04:11Z</time>
<desc>lat.=22.203226, lon.=104.396599, Alt.=248.771606m. Speed=5.004000m/h.</desc>
<speed>1.390000</speed>
</trkpt>
<trkpt lat="22.203230" lon="104.396698">
<ele>249.377075</ele>
<time>2011-04-27T10:04:16Z</time>
<desc>lat.=22.203230, lon.=104.396698, Alt.=249.377075m. Speed=6.768000m/h.</desc>
<speed>1.880000</speed>
</trkpt>
<trkpt lat="22.203238" lon="104.396790">
<ele>249.584106</ele>
<time>2011-04-27T10:04:21Z</time>
<desc>lat.=22.203238, lon.=104.396790, Alt.=249.584106m. Speed=6.336000m/h.</desc>
<speed>1.760000</speed>
</trkpt>
<trkpt lat="22.203245" lon="104.396889">
<ele>250.545044</ele>
<time>2011-04-27T10:04:26Z</time>
<desc>lat.=22.203245, lon.=104.396889, Alt.=250.545044m. Speed=6.984000m/h.</desc>
<speed>1.940000</speed>
</trkpt>
<trkpt lat="22.203249" lon="104.396980">
<ele>250.564575</ele>
<time>2011-04-27T10:04:31Z</time>
<desc>lat.=22.203249, lon.=104.396980, Alt.=250.564575m. Speed=7.812000m/h.</desc>
<speed>2.170000</speed>
</trkpt>
<trkpt lat="22.203255" lon="104.397087">
<ele>251.767700</ele>
<time>2011-04-27T10:04:36Z</time>
<desc>lat.=22.203255, lon.=104.397087, Alt.=251.767700m. Speed=7.128000m/h.</desc>
<speed>1.980000</speed>
</trkpt>
<trkpt lat="22.203291" lon="104.397171">
<ele>253.283325</ele>
<time>2011-04-27T10:04:41Z</time>
<desc>lat.=22.203291, lon.=104.397171, Alt.=253.283325m. Speed=5.904000m/h.</desc>
<speed>1.640000</speed>
</trkpt>
<trkpt lat="22.203362" lon="104.397255">
<ele>254.205200</ele>
<time>2011-04-27T10:04:46Z</time>
<desc>lat.=22.203362, lon.=104.397255, Alt.=254.205200m. Speed=6.264000m/h.</desc>
<speed>1.740000</speed>
</trkpt>
<trkpt lat="22.203415" lon="104.397324">
<ele>255.173950</ele>
<time>2011-04-27T10:04:51Z</time>
<desc>lat.=22.203415, lon.=104.397324, Alt.=255.173950m. Speed=6.228000m/h.</desc>
<speed>1.730000</speed>
</trkpt>
<trkpt lat="22.203484" lon="104.397377">
<ele>255.420044</ele>
<time>2011-04-27T10:04:56Z</time>
<desc>lat.=22.203484, lon.=104.397377, Alt.=255.420044m. Speed=5.940000m/h.</desc>
<speed>1.650000</speed>
</trkpt>
<trkpt lat="22.203543" lon="104.397446">
<ele>256.676025</ele>
<time>2011-04-27T10:05:01Z</time>
<desc>lat.=22.203543, lon.=104.397446, Alt.=256.676025m. Speed=7.524000m/h.</desc>
<speed>2.090000</speed>
</trkpt>
<trkpt lat="22.203609" lon="104.397514">
<ele>257.894775</ele>
<time>2011-04-27T10:05:06Z</time>
<desc>lat.=22.203609, lon.=104.397514, Alt.=257.894775m. Speed=6.804000m/h.</desc>
<speed>1.890000</speed>
</trkpt>
<trkpt lat="22.203678" lon="104.397591">
<ele>258.433838</ele>
<time>2011-04-27T10:05:11Z</time>
<desc>lat.=22.203678, lon.=104.397591, Alt.=258.433838m. Speed=6.876000m/h.</desc>
<speed>1.910000</speed>
</trkpt>
<trkpt lat="22.203735" lon="104.397636">
<ele>259.176025</ele>
<time>2011-04-27T10:05:16Z</time>
<desc>lat.=22.203735, lon.=104.397636, Alt.=259.176025m. Speed=5.832000m/h.</desc>
<speed>1.620000</speed>
</trkpt>
<trkpt lat="22.203781" lon="104.397690">
<ele>260.480713</ele>
<time>2011-04-27T10:05:21Z</time>
<desc>lat.=22.203781, lon.=104.397690, Alt.=260.480713m. Speed=6.408000m/h.</desc>
<speed>1.780000</speed>
</trkpt>
<trkpt lat="22.203838" lon="104.397774">
<ele>261.793213</ele>
<time>2011-04-27T10:05:26Z</time>
<desc>lat.=22.203838, lon.=104.397774, Alt.=261.793213m. Speed=6.768000m/h.</desc>
<speed>1.880000</speed>
</trkpt>
<trkpt lat="22.203861" lon="104.397858">
<ele>263.418213</ele>
<time>2011-04-27T10:05:31Z</time>
<desc>lat.=22.203861, lon.=104.397858, Alt.=263.418213m. Speed=8.748000m/h.</desc>
<speed>2.430000</speed>
</trkpt>
<trkpt lat="22.203901" lon="104.397942">
<ele>264.129150</ele>
<time>2011-04-27T10:05:36Z</time>
<desc>lat.=22.203901, lon.=104.397942, Alt.=264.129150m. Speed=6.552000m/h.</desc>
<speed>1.820000</speed>
</trkpt>
<trkpt lat="22.203949" lon="104.398026">
<ele>265.176025</ele>
<time>2011-04-27T10:05:41Z</time>
<desc>lat.=22.203949, lon.=104.398026, Alt.=265.176025m. Speed=6.264000m/h.</desc>
<speed>1.740000</speed>
</trkpt>
<trkpt lat="22.203987" lon="104.398102">
<ele>264.996338</ele>
<time>2011-04-27T10:05:46Z</time>
<desc>lat.=22.203987, lon.=104.398102, Alt.=264.996338m. Speed=7.380000m/h.</desc>
<speed>2.050000</speed>
</trkpt>
<trkpt lat="22.204023" lon="104.398178">
<ele>265.769775</ele>
<time>2011-04-27T10:05:51Z</time>
<desc>lat.=22.204023, lon.=104.398178, Alt.=265.769775m. Speed=4.824000m/h.</desc>
<speed>1.340000</speed>
</trkpt>
<trkpt lat="22.204041" lon="104.398262">
<ele>266.426025</ele>
<time>2011-04-27T10:05:56Z</time>
<desc>lat.=22.204041, lon.=104.398262, Alt.=266.426025m. Speed=4.428000m/h.</desc>
<speed>1.230000</speed>
</trkpt>
<trkpt lat="22.204063" lon="104.398323">
<ele>266.488525</ele>
<time>2011-04-27T10:06:01Z</time>
<desc>lat.=22.204063, lon.=104.398323, Alt.=266.488525m. Speed=5.868000m/h.</desc>
<speed>1.630000</speed>
</trkpt>
<trkpt lat="22.204134" lon="104.398392">
<ele>267.441650</ele>
<time>2011-04-27T10:06:06Z</time>
<desc>lat.=22.204134, lon.=104.398392, Alt.=267.441650m. Speed=6.660000m/h.</desc>
<speed>1.850000</speed>
</trkpt>
<trkpt lat="22.204121" lon="104.398499">
<ele>267.926025</ele>
<time>2011-04-27T10:06:11Z</time>
<desc>lat.=22.204121, lon.=104.398499, Alt.=267.926025m. Speed=6.192000m/h.</desc>
<speed>1.720000</speed>
</trkpt>
<trkpt lat="22.204124" lon="104.398575">
<ele>267.801025</ele>
<time>2011-04-27T10:06:16Z</time>
<desc>lat.=22.204124, lon.=104.398575, Alt.=267.801025m. Speed=4.824000m/h.</desc>
<speed>1.340000</speed>
</trkpt>
<trkpt lat="22.204130" lon="104.398682">
<ele>267.855713</ele>
<time>2011-04-27T10:06:21Z</time>
<desc>lat.=22.204130, lon.=104.398682, Alt.=267.855713m. Speed=5.796000m/h.</desc>
<speed>1.610000</speed>
</trkpt>
<trkpt lat="22.204138" lon="104.398781">
<ele>268.691650</ele>
<time>2011-04-27T10:06:26Z</time>
<desc>lat.=22.204138, lon.=104.398781, Alt.=268.691650m. Speed=5.760000m/h.</desc>
<speed>1.600000</speed>
</trkpt>
<trkpt lat="22.204174" lon="104.398834">
<ele>268.980713</ele>
<time>2011-04-27T10:06:31Z</time>
<desc>lat.=22.204174, lon.=104.398834, Alt.=268.980713m. Speed=4.284000m/h.</desc>
<speed>1.190000</speed>
</trkpt>
<trkpt lat="22.204264" lon="104.398903">
<ele>270.590088</ele>
<time>2011-04-27T10:06:36Z</time>
<desc>lat.=22.204264, lon.=104.398903, Alt.=270.590088m. Speed=4.608000m/h.</desc>
<speed>1.280000</speed>
</trkpt>
<trkpt lat="22.204344" lon="104.398994">
<ele>273.558838</ele>
<time>2011-04-27T10:06:41Z</time>
<desc>lat.=22.204344, lon.=104.398994, Alt.=273.558838m. Speed=6.120000m/h.</desc>
<speed>1.700000</speed>
</trkpt>
<trkpt lat="22.204409" lon="104.399033">
<ele>274.332275</ele>
<time>2011-04-27T10:06:46Z</time>
<desc>lat.=22.204409, lon.=104.399033, Alt.=274.332275m. Speed=6.228000m/h.</desc>
<speed>1.730000</speed>
</trkpt>
<trkpt lat="22.204458" lon="104.399071">
<ele>275.090088</ele>
<time>2011-04-27T10:06:51Z</time>
<desc>lat.=22.204458, lon.=104.399071, Alt.=275.090088m. Speed=4.716000m/h.</desc>
<speed>1.310000</speed>
</trkpt>
<trkpt lat="22.204519" lon="104.399101">
<ele>275.105713</ele>
<time>2011-04-27T10:06:56Z</time>
<desc>lat.=22.204519, lon.=104.399101, Alt.=275.105713m. Speed=4.752000m/h.</desc>
<speed>1.320000</speed>
</trkpt>
<trkpt lat="22.204584" lon="104.399117">
<ele>275.394775</ele>
<time>2011-04-27T10:07:01Z</time>
<desc>lat.=22.204584, lon.=104.399117, Alt.=275.394775m. Speed=4.824000m/h.</desc>
<speed>1.340000</speed>
</trkpt>
<trkpt lat="22.204649" lon="104.399162">
<ele>275.605713</ele>
<time>2011-04-27T10:07:06Z</time>
<desc>lat.=22.204649, lon.=104.399162, Alt.=275.605713m. Speed=7.452000m/h.</desc>
<speed>2.070000</speed>
</trkpt>
<trkpt lat="22.204760" lon="104.399200">
<ele>279.629150</ele>
<time>2011-04-27T10:07:11Z</time>
<desc>lat.=22.204760, lon.=104.399200, Alt.=279.629150m. Speed=5.544000m/h.</desc>
<speed>1.540000</speed>
</trkpt>
<trkpt lat="22.204796" lon="104.399277">
<ele>282.426025</ele>
<time>2011-04-27T10:07:16Z</time>
<desc>lat.=22.204796, lon.=104.399277, Alt.=282.426025m. Speed=5.904000m/h.</desc>
<speed>1.640000</speed>
</trkpt>
<trkpt lat="22.204813" lon="104.399368">
<ele>283.199463</ele>
<time>2011-04-27T10:07:21Z</time>
<desc>lat.=22.204813, lon.=104.399368, Alt.=283.199463m. Speed=6.660000m/h.</desc>
<speed>1.850000</speed>
</trkpt>
<trkpt lat="22.204809" lon="104.399452">
<ele>282.332275</ele>
<time>2011-04-27T10:07:26Z</time>
<desc>lat.=22.204809, lon.=104.399452, Alt.=282.332275m. Speed=5.868000m/h.</desc>
<speed>1.630000</speed>
</trkpt>
<trkpt lat="22.204805" lon="104.399536">
<ele>283.558838</ele>
<time>2011-04-27T10:07:31Z</time>
<desc>lat.=22.204805, lon.=104.399536, Alt.=283.558838m. Speed=7.092000m/h.</desc>
<speed>1.970000</speed>
</trkpt>
<trkpt lat="22.204798" lon="104.399635">
<ele>284.871338</ele>
<time>2011-04-27T10:07:36Z</time>
<desc>lat.=22.204798, lon.=104.399635, Alt.=284.871338m. Speed=5.904000m/h.</desc>
<speed>1.640000</speed>
</trkpt>
<trkpt lat="22.204802" lon="104.399734">
<ele>283.746338</ele>
<time>2011-04-27T10:07:41Z</time>
<desc>lat.=22.204802, lon.=104.399734, Alt.=283.746338m. Speed=7.596000m/h.</desc>
<speed>2.110000</speed>
</trkpt>
<trkpt lat="22.204817" lon="104.399811">
<ele>283.566650</ele>
<time>2011-04-27T10:07:46Z</time>
<desc>lat.=22.204817, lon.=104.399811, Alt.=283.566650m. Speed=6.660000m/h.</desc>
<speed>1.850000</speed>
</trkpt>
<trkpt lat="22.204836" lon="104.399902">
<ele>283.644775</ele>
<time>2011-04-27T10:07:51Z</time>
<desc>lat.=22.204836, lon.=104.399902, Alt.=283.644775m. Speed=7.272000m/h.</desc>
<speed>2.020000</speed>
</trkpt>
<trkpt lat="22.204866" lon="104.399971">
<ele>283.941650</ele>
<time>2011-04-27T10:07:56Z</time>
<desc>lat.=22.204866, lon.=104.399971, Alt.=283.941650m. Speed=4.428000m/h.</desc>
<speed>1.230000</speed>
</trkpt>
<trkpt lat="22.204872" lon="104.400063">
<ele>285.074463</ele>
<time>2011-04-27T10:08:01Z</time>
<desc>lat.=22.204872, lon.=104.400063, Alt.=285.074463m. Speed=6.264000m/h.</desc>
<speed>1.740000</speed>
</trkpt>
<trkpt lat="22.204878" lon="104.400162">
<ele>283.113525</ele>
<time>2011-04-27T10:08:06Z</time>
<desc>lat.=22.204878, lon.=104.400162, Alt.=283.113525m. Speed=5.508000m/h.</desc>
<speed>1.530000</speed>
</trkpt>
<trkpt lat="22.204887" lon="104.400253">
<ele>280.699463</ele>
<time>2011-04-27T10:08:11Z</time>
<desc>lat.=22.204887, lon.=104.400253, Alt.=280.699463m. Speed=6.480000m/h.</desc>
<speed>1.800000</speed>
</trkpt>
<trkpt lat="22.204889" lon="104.400345">
<ele>280.301025</ele>
<time>2011-04-27T10:08:16Z</time>
<desc>lat.=22.204889, lon.=104.400345, Alt.=280.301025m. Speed=6.912000m/h.</desc>
<speed>1.920000</speed>
</trkpt>
<trkpt lat="22.204876" lon="104.400452">
<ele>280.168213</ele>
<time>2011-04-27T10:08:21Z</time>
<desc>lat.=22.204876, lon.=104.400452, Alt.=280.168213m. Speed=7.596000m/h.</desc>
<speed>2.110000</speed>
</trkpt>
<trkpt lat="22.204859" lon="104.400558">
<ele>279.668213</ele>
<time>2011-04-27T10:08:26Z</time>
<desc>lat.=22.204859, lon.=104.400558, Alt.=279.668213m. Speed=7.812000m/h.</desc>
<speed>2.170000</speed>
</trkpt>
<trkpt lat="22.204851" lon="104.400658">
<ele>279.636963</ele>
<time>2011-04-27T10:08:31Z</time>
<desc>lat.=22.204851, lon.=104.400658, Alt.=279.636963m. Speed=4.716000m/h.</desc>
<speed>1.310000</speed>
</trkpt>
<trkpt lat="22.204868" lon="104.400719">
<ele>278.168213</ele>
<time>2011-04-27T10:08:36Z</time>
<desc>lat.=22.204868, lon.=104.400719, Alt.=278.168213m. Speed=2.160000m/h.</desc>
<speed>0.600000</speed>
</trkpt>
<trkpt lat="22.204855" lon="104.400734">
<ele>277.254150</ele>
<time>2011-04-27T10:08:41Z</time>
<desc>lat.=22.204855, lon.=104.400734, Alt.=277.254150m. Speed=0.792000m/h.</desc>
<speed>0.220000</speed>
</trkpt>
<trkpt lat="22.204853" lon="104.400734">
<ele>277.176025</ele>
<time>2011-04-27T10:08:46Z</time>
<desc>lat.=22.204853, lon.=104.400734, Alt.=277.176025m. Speed=0.360000m/h.</desc>
<speed>0.100000</speed>
</trkpt>
<trkpt lat="22.204855" lon="104.400734">
<ele>277.183838</ele>
<time>2011-04-27T10:08:51Z</time>
<desc>lat.=22.204855, lon.=104.400734, Alt.=277.183838m. Speed=0.108000m/h.</desc>
<speed>0.030000</speed>
</trkpt>
<trkpt lat="22.204855" lon="104.400734">
<ele>277.160400</ele>
<time>2011-04-27T10:08:56Z</time>
<desc>lat.=22.204855, lon.=104.400734, Alt.=277.160400m. Speed=0.000000m/h.</desc>
<speed>0.000000</speed>
</trkpt>
<trkpt lat="22.204855" lon="104.400742">
<ele>277.168213</ele>
<time>2011-04-27T10:09:01Z</time>
<desc>lat.=22.204855, lon.=104.400742, Alt.=277.168213m. Speed=0.036000m/h.</desc>
<speed>0.010000</speed>
</trkpt>
<trkpt lat="22.204857" lon="104.400742">
<ele>277.121338</ele>
<time>2011-04-27T10:09:06Z</time>
<desc>lat.=22.204857, lon.=104.400742, Alt.=277.121338m. Speed=0.000000m/h.</desc>
<speed>0.000000</speed>
</trkpt>
<trkpt lat="22.204857" lon="104.400742">
<ele>277.113525</ele>
<time>2011-04-27T10:09:11Z</time>
<desc>lat.=22.204857, lon.=104.400742, Alt.=277.113525m. Speed=0.036000m/h.</desc>
<speed>0.010000</speed>
</trkpt>
<trkpt lat="22.204857" lon="104.400742">
<ele>277.090088</ele>
<time>2011-04-27T10:09:16Z</time>
<desc>lat.=22.204857, lon.=104.400742, Alt.=277.090088m. Speed=0.036000m/h.</desc>
<speed>0.010000</speed>
</trkpt>
<trkpt lat="22.204857" lon="104.400742">
<ele>277.074463</ele>
<time>2011-04-27T10:09:21Z</time>
<desc>lat.=22.204857, lon.=104.400742, Alt.=277.074463m. Speed=0.036000m/h.</desc>
<speed>0.010000</speed>
</trkpt>
<trkpt lat="22.204857" lon="104.400742">
<ele>277.035400</ele>
<time>2011-04-27T10:09:26Z</time>
<desc>lat.=22.204857, lon.=104.400742, Alt.=277.035400m. Speed=0.036000m/h.</desc>
<speed>0.010000</speed>
</trkpt>
<trkpt lat="22.204857" lon="104.400742">
<ele>277.035400</ele>
<time>2011-04-27T10:09:31Z</time>
<desc>lat.=22.204857, lon.=104.400742, Alt.=277.035400m. Speed=0.000000m/h.</desc>
<speed>0.000000</speed>
</trkpt>
<trkpt lat="22.204857" lon="104.400742">
<ele>277.058838</ele>
<time>2011-04-27T10:09:36Z</time>
<desc>lat.=22.204857, lon.=104.400742, Alt.=277.058838m. Speed=0.036000m/h.</desc>
<speed>0.010000</speed>
</trkpt>
<trkpt lat="22.204857" lon="104.400742">
<ele>277.082275</ele>
<time>2011-04-27T10:09:41Z</time>
<desc>lat.=22.204857, lon.=104.400742, Alt.=277.082275m. Speed=0.000000m/h.</desc>
<speed>0.000000</speed>
</trkpt>
<trkpt lat="22.204857" lon="104.400742">
<ele>277.090088</ele>
<time>2011-04-27T10:09:46Z</time>
<desc>lat.=22.204857, lon.=104.400742, Alt.=277.090088m. Speed=0.036000m/h.</desc>
<speed>0.010000</speed>
</trkpt>
<trkpt lat="22.204857" lon="104.400742">
<ele>277.121338</ele>
<time>2011-04-27T10:09:51Z</time>
<desc>lat.=22.204857, lon.=104.400742, Alt.=277.121338m. Speed=0.036000m/h.</desc>
<speed>0.010000</speed>
</trkpt>
<trkpt lat="22.204857" lon="104.400742">
<ele>277.168213</ele>
<time>2011-04-27T10:09:56Z</time>
<desc>lat.=22.204857, lon.=104.400742, Alt.=277.168213m. Speed=0.000000m/h.</desc>
<speed>0.000000</speed>
</trkpt>
<trkpt lat="22.204859" lon="104.400742">
<ele>277.183838</ele>
<time>2011-04-27T10:10:01Z</time>
<desc>lat.=22.204859, lon.=104.400742, Alt.=277.183838m. Speed=0.036000m/h.</desc>
<speed>0.010000</speed>
</trkpt>
<trkpt lat="22.204859" lon="104.400742">
<ele>277.191650</ele>
<time>2011-04-27T10:10:06Z</time>
<desc>lat.=22.204859, lon.=104.400742, Alt.=277.191650m. Speed=0.036000m/h.</desc>
<speed>0.010000</speed>
</trkpt>
<trkpt lat="22.204859" lon="104.400742">
<ele>277.222900</ele>
<time>2011-04-27T10:10:11Z</time>
<desc>lat.=22.204859, lon.=104.400742, Alt.=277.222900m. Speed=0.000000m/h.</desc>
<speed>0.000000</speed>
</trkpt>
<trkpt lat="22.204859" lon="104.400742">
<ele>277.301025</ele>
<time>2011-04-27T10:10:16Z</time>
<desc>lat.=22.204859, lon.=104.400742, Alt.=277.301025m. Speed=0.036000m/h.</desc>
<speed>0.010000</speed>
</trkpt>
<trkpt lat="22.204859" lon="104.400742">
<ele>277.347900</ele>
<time>2011-04-27T10:10:21Z</time>
<desc>lat.=22.204859, lon.=104.400742, Alt.=277.347900m. Speed=0.000000m/h.</desc>
<speed>0.000000</speed>
</trkpt>
<trkpt lat="22.204859" lon="104.400742">
<ele>277.347900</ele>
<time>2011-04-27T10:10:26Z</time>
<desc>lat.=22.204859, lon.=104.400742, Alt.=277.347900m. Speed=0.036000m/h.</desc>
<speed>0.010000</speed>
</trkpt>
<trkpt lat="22.204859" lon="104.400742">
<ele>277.324463</ele>
<time>2011-04-27T10:10:31Z</time>
<desc>lat.=22.204859, lon.=104.400742, Alt.=277.324463m. Speed=0.000000m/h.</desc>
<speed>0.000000</speed>
</trkpt>
<trkpt lat="22.204859" lon="104.400742">
<ele>277.269775</ele>
<time>2011-04-27T10:10:36Z</time>
<desc>lat.=22.204859, lon.=104.400742, Alt.=277.269775m. Speed=0.000000m/h.</desc>
<speed>0.000000</speed>
</trkpt>
<trkpt lat="22.204859" lon="104.400742">
<ele>277.269775</ele>
<time>2011-04-27T10:10:41Z</time>
<desc>lat.=22.204859, lon.=104.400742, Alt.=277.269775m. Speed=0.036000m/h.</desc>
<speed>0.010000</speed>
</trkpt>
<trkpt lat="22.204859" lon="104.400742">
<ele>277.277588</ele>
<time>2011-04-27T10:10:46Z</time>
<desc>lat.=22.204859, lon.=104.400742, Alt.=277.277588m. Speed=0.036000m/h.</desc>
<speed>0.010000</speed>
</trkpt>
<trkpt lat="22.204859" lon="104.400742">
<ele>277.269775</ele>
<time>2011-04-27T10:10:51Z</time>
<desc>lat.=22.204859, lon.=104.400742, Alt.=277.269775m. Speed=0.000000m/h.</desc>
<speed>0.000000</speed>
</trkpt>
<trkpt lat="22.204859" lon="104.400742">
<ele>277.269775</ele>
<time>2011-04-27T10:10:56Z</time>
<desc>lat.=22.204859, lon.=104.400742, Alt.=277.269775m. Speed=0.000000m/h.</desc>
<speed>0.000000</speed>
</trkpt>
<trkpt lat="22.204859" lon="104.400742">
<ele>277.285400</ele>
<time>2011-04-27T10:11:01Z</time>
<desc>lat.=22.204859, lon.=104.400742, Alt.=277.285400m. Speed=0.108000m/h.</desc>
<speed>0.030000</speed>
</trkpt>
<trkpt lat="22.204859" lon="104.400742">
<ele>277.363525</ele>
<time>2011-04-27T10:11:06Z</time>
<desc>lat.=22.204859, lon.=104.400742, Alt.=277.363525m. Speed=0.000000m/h.</desc>
<speed>0.000000</speed>
</trkpt>
<trkpt lat="22.204859" lon="104.400742">
<ele>277.410400</ele>
<time>2011-04-27T10:11:11Z</time>
<desc>lat.=22.204859, lon.=104.400742, Alt.=277.410400m. Speed=0.000000m/h.</desc>
<speed>0.000000</speed>
</trkpt>
<trkpt lat="22.204859" lon="104.400742">
<ele>277.457275</ele>
<time>2011-04-27T10:11:16Z</time>
<desc>lat.=22.204859, lon.=104.400742, Alt.=277.457275m. Speed=0.000000m/h.</desc>
<speed>0.000000</speed>
</trkpt>
<trkpt lat="22.204859" lon="104.400742">
<ele>277.480713</ele>
<time>2011-04-27T10:11:21Z</time>
<desc>lat.=22.204859, lon.=104.400742, Alt.=277.480713m. Speed=0.036000m/h.</desc>
<speed>0.010000</speed>
</trkpt>
<trkpt lat="22.204859" lon="104.400742">
<ele>277.504150</ele>
<time>2011-04-27T10:11:26Z</time>
<desc>lat.=22.204859, lon.=104.400742, Alt.=277.504150m. Speed=0.000000m/h.</desc>
<speed>0.000000</speed>
</trkpt>
<trkpt lat="22.204859" lon="104.400742">
<ele>277.511963</ele>
<time>2011-04-27T10:11:31Z</time>
<desc>lat.=22.204859, lon.=104.400742, Alt.=277.511963m. Speed=0.000000m/h.</desc>
<speed>0.000000</speed>
</trkpt>
<trkpt lat="22.204859" lon="104.400742">
<ele>277.519775</ele>
<time>2011-04-27T10:11:36Z</time>
<desc>lat.=22.204859, lon.=104.400742, Alt.=277.519775m. Speed=0.036000m/h.</desc>
<speed>0.010000</speed>
</trkpt>
<trkpt lat="22.204859" lon="104.400742">
<ele>277.527588</ele>
<time>2011-04-27T10:11:41Z</time>
<desc>lat.=22.204859, lon.=104.400742, Alt.=277.527588m. Speed=0.000000m/h.</desc>
<speed>0.000000</speed>
</trkpt>
<trkpt lat="22.204859" lon="104.400742">
<ele>277.551025</ele>
<time>2011-04-27T10:11:46Z</time>
<desc>lat.=22.204859, lon.=104.400742, Alt.=277.551025m. Speed=0.036000m/h.</desc>
<speed>0.010000</speed>
</trkpt>
<trkpt lat="22.204859" lon="104.400742">
<ele>277.590088</ele>
<time>2011-04-27T10:11:51Z</time>
<desc>lat.=22.204859, lon.=104.400742, Alt.=277.590088m. Speed=0.180000m/h.</desc>
<speed>0.050000</speed>
</trkpt>
<trkpt lat="22.204861" lon="104.400742">
<ele>277.644775</ele>
<time>2011-04-27T10:11:56Z</time>
<desc>lat.=22.204861, lon.=104.400742, Alt.=277.644775m. Speed=0.072000m/h.</desc>
<speed>0.020000</speed>
</trkpt>
<trkpt lat="22.204859" lon="104.400742">
<ele>277.785400</ele>
<time>2011-04-27T10:12:01Z</time>
<desc>lat.=22.204859, lon.=104.400742, Alt.=277.785400m. Speed=0.396000m/h.</desc>
<speed>0.110000</speed>
</trkpt>
<trkpt lat="22.204859" lon="104.400742">
<ele>277.793213</ele>
<time>2011-04-27T10:12:06Z</time>
<desc>lat.=22.204859, lon.=104.400742, Alt.=277.793213m. Speed=0.000000m/h.</desc>
<speed>0.000000</speed>
</trkpt>
<trkpt lat="22.204859" lon="104.400742">
<ele>277.816650</ele>
<time>2011-04-27T10:12:11Z</time>
<desc>lat.=22.204859, lon.=104.400742, Alt.=277.816650m. Speed=0.000000m/h.</desc>
<speed>0.000000</speed>
</trkpt>
<trkpt lat="22.204859" lon="104.400742">
<ele>277.926025</ele>
<time>2011-04-27T10:12:16Z</time>
<desc>lat.=22.204859, lon.=104.400742, Alt.=277.926025m. Speed=0.000000m/h.</desc>
<speed>0.000000</speed>
</trkpt>
<trkpt lat="22.204859" lon="104.400742">
<ele>277.910400</ele>
<time>2011-04-27T10:12:21Z</time>
<desc>lat.=22.204859, lon.=104.400742, Alt.=277.910400m. Speed=0.000000m/h.</desc>
<speed>0.000000</speed>
</trkpt>
<trkpt lat="22.204859" lon="104.400742">
<ele>277.902588</ele>
<time>2011-04-27T10:12:26Z</time>
<desc>lat.=22.204859, lon.=104.400742, Alt.=277.902588m. Speed=0.072000m/h.</desc>
<speed>0.020000</speed>
</trkpt>
<trkpt lat="22.204859" lon="104.400742">
<ele>277.894775</ele>
<time>2011-04-27T10:12:31Z</time>
<desc>lat.=22.204859, lon.=104.400742, Alt.=277.894775m. Speed=0.000000m/h.</desc>
<speed>0.000000</speed>
</trkpt>
<trkpt lat="22.204859" lon="104.400742">
<ele>277.894775</ele>
<time>2011-04-27T10:12:36Z</time>
<desc>lat.=22.204859, lon.=104.400742, Alt.=277.894775m. Speed=0.072000m/h.</desc>
<speed>0.020000</speed>
</trkpt>
<trkpt lat="22.204859" lon="104.400742">
<ele>277.871338</ele>
<time>2011-04-27T10:12:41Z</time>
<desc>lat.=22.204859, lon.=104.400742, Alt.=277.871338m. Speed=0.036000m/h.</desc>
<speed>0.010000</speed>
</trkpt>
<trkpt lat="22.204859" lon="104.400742">
<ele>277.840088</ele>
<time>2011-04-27T10:12:46Z</time>
<desc>lat.=22.204859, lon.=104.400742, Alt.=277.840088m. Speed=0.000000m/h.</desc>
<speed>0.000000</speed>
</trkpt>
<trkpt lat="22.204859" lon="104.400742">
<ele>277.816650</ele>
<time>2011-04-27T10:12:51Z</time>
<desc>lat.=22.204859, lon.=104.400742, Alt.=277.816650m. Speed=0.036000m/h.</desc>
<speed>0.010000</speed>
</trkpt>
<trkpt lat="22.204859" lon="104.400742">
<ele>277.793213</ele>
<time>2011-04-27T10:12:56Z</time>
<desc>lat.=22.204859, lon.=104.400742, Alt.=277.793213m. Speed=0.000000m/h.</desc>
<speed>0.000000</speed>
</trkpt>
<trkpt lat="22.204859" lon="104.400742">
<ele>277.746338</ele>
<time>2011-04-27T10:13:01Z</time>
<desc>lat.=22.204859, lon.=104.400742, Alt.=277.746338m. Speed=0.036000m/h.</desc>
<speed>0.010000</speed>
</trkpt>
<trkpt lat="22.204859" lon="104.400742">
<ele>277.715088</ele>
<time>2011-04-27T10:13:06Z</time>
<desc>lat.=22.204859, lon.=104.400742, Alt.=277.715088m. Speed=0.000000m/h.</desc>
<speed>0.000000</speed>
</trkpt>
<trkpt lat="22.204859" lon="104.400742">
<ele>277.699463</ele>
<time>2011-04-27T10:13:11Z</time>
<desc>lat.=22.204859, lon.=104.400742, Alt.=277.699463m. Speed=0.000000m/h.</desc>
<speed>0.000000</speed>
</trkpt>
<trkpt lat="22.204859" lon="104.400742">
<ele>277.683838</ele>
<time>2011-04-27T10:13:16Z</time>
<desc>lat.=22.204859, lon.=104.400742, Alt.=277.683838m. Speed=0.000000m/h.</desc>
<speed>0.000000</speed>
</trkpt>
<trkpt lat="22.204859" lon="104.400742">
<ele>277.652588</ele>
<time>2011-04-27T10:13:21Z</time>
<desc>lat.=22.204859, lon.=104.400742, Alt.=277.652588m. Speed=0.036000m/h.</desc>
<speed>0.010000</speed>
</trkpt>
<trkpt lat="22.204859" lon="104.400742">
<ele>277.644775</ele>
<time>2011-04-27T10:13:26Z</time>
<desc>lat.=22.204859, lon.=104.400742, Alt.=277.644775m. Speed=0.036000m/h.</desc>
<speed>0.010000</speed>
</trkpt>
<trkpt lat="22.204859" lon="104.400742">
<ele>277.613525</ele>
<time>2011-04-27T10:13:31Z</time>
<desc>lat.=22.204859, lon.=104.400742, Alt.=277.613525m. Speed=0.036000m/h.</desc>
<speed>0.010000</speed>
</trkpt>
<trkpt lat="22.204859" lon="104.400742">
<ele>277.597900</ele>
<time>2011-04-27T10:13:36Z</time>
<desc>lat.=22.204859, lon.=104.400742, Alt.=277.597900m. Speed=0.036000m/h.</desc>
<speed>0.010000</speed>
</trkpt>
<trkpt lat="22.204859" lon="104.400742">
<ele>277.566650</ele>
<time>2011-04-27T10:13:41Z</time>
<desc>lat.=22.204859, lon.=104.400742, Alt.=277.566650m. Speed=0.000000m/h.</desc>
<speed>0.000000</speed>
</trkpt>
<trkpt lat="22.204859" lon="104.400742">
<ele>277.543213</ele>
<time>2011-04-27T10:13:46Z</time>
<desc>lat.=22.204859, lon.=104.400742, Alt.=277.543213m. Speed=0.036000m/h.</desc>
<speed>0.010000</speed>
</trkpt>
<trkpt lat="22.204859" lon="104.400742">
<ele>277.527588</ele>
<time>2011-04-27T10:13:51Z</time>
<desc>lat.=22.204859, lon.=104.400742, Alt.=277.527588m. Speed=0.000000m/h.</desc>
<speed>0.000000</speed>
</trkpt>
<trkpt lat="22.204859" lon="104.400742">
<ele>277.519775</ele>
<time>2011-04-27T10:13:56Z</time>
<desc>lat.=22.204859, lon.=104.400742, Alt.=277.519775m. Speed=0.072000m/h.</desc>
<speed>0.020000</speed>
</trkpt>
<trkpt lat="22.204859" lon="104.400742">
<ele>277.543213</ele>
<time>2011-04-27T10:14:01Z</time>
<desc>lat.=22.204859, lon.=104.400742, Alt.=277.543213m. Speed=0.036000m/h.</desc>
<speed>0.010000</speed>
</trkpt>
<trkpt lat="22.204859" lon="104.400742">
<ele>277.535400</ele>
<time>2011-04-27T10:14:06Z</time>
<desc>lat.=22.204859, lon.=104.400742, Alt.=277.535400m. Speed=0.072000m/h.</desc>
<speed>0.020000</speed>
</trkpt>
<trkpt lat="22.204859" lon="104.400742">
<ele>277.527588</ele>
<time>2011-04-27T10:14:11Z</time>
<desc>lat.=22.204859, lon.=104.400742, Alt.=277.527588m. Speed=0.036000m/h.</desc>
<speed>0.010000</speed>
</trkpt>
<trkpt lat="22.204859" lon="104.400742">
<ele>277.504150</ele>
<time>2011-04-27T10:14:16Z</time>
<desc>lat.=22.204859, lon.=104.400742, Alt.=277.504150m. Speed=0.108000m/h.</desc>
<speed>0.030000</speed>
</trkpt>
<trkpt lat="22.204861" lon="104.400742">
<ele>277.472900</ele>
<time>2011-04-27T10:14:21Z</time>
<desc>lat.=22.204861, lon.=104.400742, Alt.=277.472900m. Speed=0.180000m/h.</desc>
<speed>0.050000</speed>
</trkpt>
<trkpt lat="22.204863" lon="104.400742">
<ele>277.433838</ele>
<time>2011-04-27T10:14:26Z</time>
<desc>lat.=22.204863, lon.=104.400742, Alt.=277.433838m. Speed=0.144000m/h.</desc>
<speed>0.040000</speed>
</trkpt>
<trkpt lat="22.204863" lon="104.400742">
<ele>277.394775</ele>
<time>2011-04-27T10:14:31Z</time>
<desc>lat.=22.204863, lon.=104.400742, Alt.=277.394775m. Speed=0.108000m/h.</desc>
<speed>0.030000</speed>
</trkpt>
<trkpt lat="22.204861" lon="104.400749">
<ele>277.340088</ele>
<time>2011-04-27T10:14:36Z</time>
<desc>lat.=22.204861, lon.=104.400749, Alt.=277.340088m. Speed=0.252000m/h.</desc>
<speed>0.070000</speed>
</trkpt>
<trkpt lat="22.204861" lon="104.400749">
<ele>277.347900</ele>
<time>2011-04-27T10:14:41Z</time>
<desc>lat.=22.204861, lon.=104.400749, Alt.=277.347900m. Speed=0.000000m/h.</desc>
<speed>0.000000</speed>
</trkpt>
<trkpt lat="22.204861" lon="104.400749">
<ele>277.402588</ele>
<time>2011-04-27T10:14:46Z</time>
<desc>lat.=22.204861, lon.=104.400749, Alt.=277.402588m. Speed=0.108000m/h.</desc>
<speed>0.030000</speed>
</trkpt>
<trkpt lat="22.204861" lon="104.400749">
<ele>277.394775</ele>
<time>2011-04-27T10:14:51Z</time>
<desc>lat.=22.204861, lon.=104.400749, Alt.=277.394775m. Speed=0.036000m/h.</desc>
<speed>0.010000</speed>
</trkpt>
<trkpt lat="22.204861" lon="104.400749">
<ele>277.394775</ele>
<time>2011-04-27T10:14:56Z</time>
<desc>lat.=22.204861, lon.=104.400749, Alt.=277.394775m. Speed=0.036000m/h.</desc>
<speed>0.010000</speed>
</trkpt>
<trkpt lat="22.204861" lon="104.400749">
<ele>277.426025</ele>
<time>2011-04-27T10:15:01Z</time>
<desc>lat.=22.204861, lon.=104.400749, Alt.=277.426025m. Speed=0.036000m/h.</desc>
<speed>0.010000</speed>
</trkpt>
<trkpt lat="22.204861" lon="104.400749">
<ele>277.457275</ele>
<time>2011-04-27T10:15:06Z</time>
<desc>lat.=22.204861, lon.=104.400749, Alt.=277.457275m. Speed=0.072000m/h.</desc>
<speed>0.020000</speed>
</trkpt>
<trkpt lat="22.204861" lon="104.400749">
<ele>277.496338</ele>
<time>2011-04-27T10:15:11Z</time>
<desc>lat.=22.204861, lon.=104.400749, Alt.=277.496338m. Speed=0.000000m/h.</desc>
<speed>0.000000</speed>
</trkpt>
<trkpt lat="22.204861" lon="104.400749">
<ele>277.519775</ele>
<time>2011-04-27T10:15:16Z</time>
<desc>lat.=22.204861, lon.=104.400749, Alt.=277.519775m. Speed=0.000000m/h.</desc>
<speed>0.000000</speed>
</trkpt>
<trkpt lat="22.204861" lon="104.400749">
<ele>277.543213</ele>
<time>2011-04-27T10:15:21Z</time>
<desc>lat.=22.204861, lon.=104.400749, Alt.=277.543213m. Speed=0.000000m/h.</desc>
<speed>0.000000</speed>
</trkpt>
<trkpt lat="22.204861" lon="104.400749">
<ele>277.543213</ele>
<time>2011-04-27T10:15:26Z</time>
<desc>lat.=22.204861, lon.=104.400749, Alt.=277.543213m. Speed=0.072000m/h.</desc>
<speed>0.020000</speed>
</trkpt>
<trkpt lat="22.204859" lon="104.400749">
<ele>277.535400</ele>
<time>2011-04-27T10:15:31Z</time>
<desc>lat.=22.204859, lon.=104.400749, Alt.=277.535400m. Speed=0.036000m/h.</desc>
<speed>0.010000</speed>
</trkpt>
<trkpt lat="22.204859" lon="104.400749">
<ele>277.535400</ele>
<time>2011-04-27T10:15:36Z</time>
<desc>lat.=22.204859, lon.=104.400749, Alt.=277.535400m. Speed=0.072000m/h.</desc>
<speed>0.020000</speed>
</trkpt>
<trkpt lat="22.204859" lon="104.400749">
<ele>277.543213</ele>
<time>2011-04-27T10:15:41Z</time>
<desc>lat.=22.204859, lon.=104.400749, Alt.=277.543213m. Speed=0.036000m/h.</desc>
<speed>0.010000</speed>
</trkpt>
<trkpt lat="22.204857" lon="104.400749">
<ele>277.566650</ele>
<time>2011-04-27T10:15:46Z</time>
<desc>lat.=22.204857, lon.=104.400749, Alt.=277.566650m. Speed=0.072000m/h.</desc>
<speed>0.020000</speed>
</trkpt>
<trkpt lat="22.204857" lon="104.400742">
<ele>277.605713</ele>
<time>2011-04-27T10:15:51Z</time>
<desc>lat.=22.204857, lon.=104.400742, Alt.=277.605713m. Speed=0.180000m/h.</desc>
<speed>0.050000</speed>
</trkpt>
<trkpt lat="22.204857" lon="104.400742">
<ele>277.636963</ele>
<time>2011-04-27T10:15:56Z</time>
<desc>lat.=22.204857, lon.=104.400742, Alt.=277.636963m. Speed=0.108000m/h.</desc>
<speed>0.030000</speed>
</trkpt>
<trkpt lat="22.204857" lon="104.400742">
<ele>277.652588</ele>
<time>2011-04-27T10:16:01Z</time>
<desc>lat.=22.204857, lon.=104.400742, Alt.=277.652588m. Speed=0.144000m/h.</desc>
<speed>0.040000</speed>
</trkpt>
<trkpt lat="22.204857" lon="104.400742">
<ele>277.652588</ele>
<time>2011-04-27T10:16:06Z</time>
<desc>lat.=22.204857, lon.=104.400742, Alt.=277.652588m. Speed=0.252000m/h.</desc>
<speed>0.070000</speed>
</trkpt>
<trkpt lat="22.204865" lon="104.400764">
<ele>277.902588</ele>
<time>2011-04-27T10:16:11Z</time>
<desc>lat.=22.204865, lon.=104.400764, Alt.=277.902588m. Speed=1.260000m/h.</desc>
<speed>0.350000</speed>
</trkpt>
<trkpt lat="22.204878" lon="104.400803">
<ele>278.254150</ele>
<time>2011-04-27T10:16:16Z</time>
<desc>lat.=22.204878, lon.=104.400803, Alt.=278.254150m. Speed=2.844000m/h.</desc>
<speed>0.790000</speed>
</trkpt>
<trkpt lat="22.204882" lon="104.400818">
<ele>278.629150</ele>
<time>2011-04-27T10:16:21Z</time>
<desc>lat.=22.204882, lon.=104.400818, Alt.=278.629150m. Speed=0.108000m/h.</desc>
<speed>0.030000</speed>
</trkpt>
<trkpt lat="22.204882" lon="104.400818">
<ele>278.683838</ele>
<time>2011-04-27T10:16:26Z</time>
<desc>lat.=22.204882, lon.=104.400818, Alt.=278.683838m. Speed=0.144000m/h.</desc>
<speed>0.040000</speed>
</trkpt>
<trkpt lat="22.204884" lon="104.400818">
<ele>278.707275</ele>
<time>2011-04-27T10:16:31Z</time>
<desc>lat.=22.204884, lon.=104.400818, Alt.=278.707275m. Speed=0.072000m/h.</desc>
<speed>0.020000</speed>
</trkpt>
<trkpt lat="22.204885" lon="104.400818">
<ele>278.754150</ele>
<time>2011-04-27T10:16:36Z</time>
<desc>lat.=22.204885, lon.=104.400818, Alt.=278.754150m. Speed=0.180000m/h.</desc>
<speed>0.050000</speed>
</trkpt>
<trkpt lat="22.204885" lon="104.400818">
<ele>278.785400</ele>
<time>2011-04-27T10:16:41Z</time>
<desc>lat.=22.204885, lon.=104.400818, Alt.=278.785400m. Speed=0.072000m/h.</desc>
<speed>0.020000</speed>
</trkpt>
<trkpt lat="22.204884" lon="104.400818">
<ele>278.754150</ele>
<time>2011-04-27T10:16:46Z</time>
<desc>lat.=22.204884, lon.=104.400818, Alt.=278.754150m. Speed=0.072000m/h.</desc>
<speed>0.020000</speed>
</trkpt>
<trkpt lat="22.204885" lon="104.400818">
<ele>278.769775</ele>
<time>2011-04-27T10:16:51Z</time>
<desc>lat.=22.204885, lon.=104.400818, Alt.=278.769775m. Speed=0.036000m/h.</desc>
<speed>0.010000</speed>
</trkpt>
<trkpt lat="22.204885" lon="104.400818">
<ele>278.722900</ele>
<time>2011-04-27T10:16:56Z</time>
<desc>lat.=22.204885, lon.=104.400818, Alt.=278.722900m. Speed=0.000000m/h.</desc>
<speed>0.000000</speed>
</trkpt>
<trkpt lat="22.204885" lon="104.400818">
<ele>278.699463</ele>
<time>2011-04-27T10:17:01Z</time>
<desc>lat.=22.204885, lon.=104.400818, Alt.=278.699463m. Speed=0.108000m/h.</desc>
<speed>0.030000</speed>
</trkpt>
<trkpt lat="22.204885" lon="104.400818">
<ele>278.652588</ele>
<time>2011-04-27T10:17:06Z</time>
<desc>lat.=22.204885, lon.=104.400818, Alt.=278.652588m. Speed=0.036000m/h.</desc>
<speed>0.010000</speed>
</trkpt>
<trkpt lat="22.204885" lon="104.400818">
<ele>278.652588</ele>
<time>2011-04-27T10:17:11Z</time>
<desc>lat.=22.204885, lon.=104.400818, Alt.=278.652588m. Speed=0.072000m/h.</desc>
<speed>0.020000</speed>
</trkpt>
<trkpt lat="22.204884" lon="104.400818">
<ele>278.676025</ele>
<time>2011-04-27T10:17:16Z</time>
<desc>lat.=22.204884, lon.=104.400818, Alt.=278.676025m. Speed=0.000000m/h.</desc>
<speed>0.000000</speed>
</trkpt>
<trkpt lat="22.204884" lon="104.400818">
<ele>278.629150</ele>
<time>2011-04-27T10:17:21Z</time>
<desc>lat.=22.204884, lon.=104.400818, Alt.=278.629150m. Speed=0.072000m/h.</desc>
<speed>0.020000</speed>
</trkpt>
<trkpt lat="22.204884" lon="104.400818">
<ele>278.605713</ele>
<time>2011-04-27T10:17:26Z</time>
<desc>lat.=22.204884, lon.=104.400818, Alt.=278.605713m. Speed=0.144000m/h.</desc>
<speed>0.040000</speed>
</trkpt>
<trkpt lat="22.204884" lon="104.400818">
<ele>278.613525</ele>
<time>2011-04-27T10:17:31Z</time>
<desc>lat.=22.204884, lon.=104.400818, Alt.=278.613525m. Speed=0.396000m/h.</desc>
<speed>0.110000</speed>
</trkpt>
<trkpt lat="22.204882" lon="104.400818">
<ele>278.621338</ele>
<time>2011-04-27T10:17:36Z</time>
<desc>lat.=22.204882, lon.=104.400818, Alt.=278.621338m. Speed=0.108000m/h.</desc>
<speed>0.030000</speed>
</trkpt>
<trkpt lat="22.204882" lon="104.400818">
<ele>278.629150</ele>
<time>2011-04-27T10:17:41Z</time>
<desc>lat.=22.204882, lon.=104.400818, Alt.=278.629150m. Speed=0.144000m/h.</desc>
<speed>0.040000</speed>
</trkpt>
<trkpt lat="22.204884" lon="104.400818">
<ele>278.652588</ele>
<time>2011-04-27T10:17:46Z</time>
<desc>lat.=22.204884, lon.=104.400818, Alt.=278.652588m. Speed=0.216000m/h.</desc>
<speed>0.060000</speed>
</trkpt>
<trkpt lat="22.204885" lon="104.400818">
<ele>278.676025</ele>
<time>2011-04-27T10:17:51Z</time>
<desc>lat.=22.204885, lon.=104.400818, Alt.=278.676025m. Speed=0.180000m/h.</desc>
<speed>0.050000</speed>
</trkpt>
<trkpt lat="22.204885" lon="104.400818">
<ele>278.691650</ele>
<time>2011-04-27T10:17:56Z</time>
<desc>lat.=22.204885, lon.=104.400818, Alt.=278.691650m. Speed=0.180000m/h.</desc>
<speed>0.050000</speed>
</trkpt>
<trkpt lat="22.204885" lon="104.400818">
<ele>278.699463</ele>
<time>2011-04-27T10:18:01Z</time>
<desc>lat.=22.204885, lon.=104.400818, Alt.=278.699463m. Speed=0.180000m/h.</desc>
<speed>0.050000</speed>
</trkpt>
<trkpt lat="22.204884" lon="104.400818">
<ele>278.699463</ele>
<time>2011-04-27T10:18:06Z</time>
<desc>lat.=22.204884, lon.=104.400818, Alt.=278.699463m. Speed=0.072000m/h.</desc>
<speed>0.020000</speed>
</trkpt>
<trkpt lat="22.204882" lon="104.400818">
<ele>278.676025</ele>
<time>2011-04-27T10:18:11Z</time>
<desc>lat.=22.204882, lon.=104.400818, Alt.=278.676025m. Speed=0.072000m/h.</desc>
<speed>0.020000</speed>
</trkpt>
<trkpt lat="22.204884" lon="104.400818">
<ele>278.668213</ele>
<time>2011-04-27T10:18:16Z</time>
<desc>lat.=22.204884, lon.=104.400818, Alt.=278.668213m. Speed=0.072000m/h.</desc>
<speed>0.020000</speed>
</trkpt>
<trkpt lat="22.204884" lon="104.400818">
<ele>278.683838</ele>
<time>2011-04-27T10:18:21Z</time>
<desc>lat.=22.204884, lon.=104.400818, Alt.=278.683838m. Speed=0.000000m/h.</desc>
<speed>0.000000</speed>
</trkpt>
<trkpt lat="22.204884" lon="104.400818">
<ele>278.660400</ele>
<time>2011-04-27T10:18:26Z</time>
<desc>lat.=22.204884, lon.=104.400818, Alt.=278.660400m. Speed=0.252000m/h.</desc>
<speed>0.070000</speed>
</trkpt>
<trkpt lat="22.204884" lon="104.400818">
<ele>278.629150</ele>
<time>2011-04-27T10:18:31Z</time>
<desc>lat.=22.204884, lon.=104.400818, Alt.=278.629150m. Speed=0.072000m/h.</desc>
<speed>0.020000</speed>
</trkpt>
<trkpt lat="22.204884" lon="104.400818">
<ele>278.582275</ele>
<time>2011-04-27T10:18:36Z</time>
<desc>lat.=22.204884, lon.=104.400818, Alt.=278.582275m. Speed=0.072000m/h.</desc>
<speed>0.020000</speed>
</trkpt>
<trkpt lat="22.204884" lon="104.400818">
<ele>278.566650</ele>
<time>2011-04-27T10:18:41Z</time>
<desc>lat.=22.204884, lon.=104.400818, Alt.=278.566650m. Speed=0.216000m/h.</desc>
<speed>0.060000</speed>
</trkpt>
<trkpt lat="22.204885" lon="104.400818">
<ele>278.566650</ele>
<time>2011-04-27T10:18:46Z</time>
<desc>lat.=22.204885, lon.=104.400818, Alt.=278.566650m. Speed=0.180000m/h.</desc>
<speed>0.050000</speed>
</trkpt>
<trkpt lat="22.204885" lon="104.400826">
<ele>278.582275</ele>
<time>2011-04-27T10:18:51Z</time>
<desc>lat.=22.204885, lon.=104.400826, Alt.=278.582275m. Speed=0.108000m/h.</desc>
<speed>0.030000</speed>
</trkpt>
<trkpt lat="22.204884" lon="104.400818">
<ele>278.582275</ele>
<time>2011-04-27T10:18:56Z</time>
<desc>lat.=22.204884, lon.=104.400818, Alt.=278.582275m. Speed=0.216000m/h.</desc>
<speed>0.060000</speed>
</trkpt>
<trkpt lat="22.204882" lon="104.400826">
<ele>278.558838</ele>
<time>2011-04-27T10:19:01Z</time>
<desc>lat.=22.204882, lon.=104.400826, Alt.=278.558838m. Speed=0.036000m/h.</desc>
<speed>0.010000</speed>
</trkpt>
<trkpt lat="22.204882" lon="104.400826">
<ele>278.543213</ele>
<time>2011-04-27T10:19:06Z</time>
<desc>lat.=22.204882, lon.=104.400826, Alt.=278.543213m. Speed=0.036000m/h.</desc>
<speed>0.010000</speed>
</trkpt>
<trkpt lat="22.204878" lon="104.400826">
<ele>278.519775</ele>
<time>2011-04-27T10:19:11Z</time>
<desc>lat.=22.204878, lon.=104.400826, Alt.=278.519775m. Speed=0.792000m/h.</desc>
<speed>0.220000</speed>
</trkpt>
<trkpt lat="22.204874" lon="104.400818">
<ele>278.504150</ele>
<time>2011-04-27T10:19:16Z</time>
<desc>lat.=22.204874, lon.=104.400818, Alt.=278.504150m. Speed=0.252000m/h.</desc>
<speed>0.070000</speed>
</trkpt>
<trkpt lat="22.204868" lon="104.400818">
<ele>278.457275</ele>
<time>2011-04-27T10:19:21Z</time>
<desc>lat.=22.204868, lon.=104.400818, Alt.=278.457275m. Speed=0.144000m/h.</desc>
<speed>0.040000</speed>
</trkpt>
<trkpt lat="22.204870" lon="104.400818">
<ele>278.402588</ele>
<time>2011-04-27T10:19:26Z</time>
<desc>lat.=22.204870, lon.=104.400818, Alt.=278.402588m. Speed=0.108000m/h.</desc>
<speed>0.030000</speed>
</trkpt>
<trkpt lat="22.204868" lon="104.400818">
<ele>278.402588</ele>
<time>2011-04-27T10:19:31Z</time>
<desc>lat.=22.204868, lon.=104.400818, Alt.=278.402588m. Speed=0.108000m/h.</desc>
<speed>0.030000</speed>
</trkpt>
<trkpt lat="22.204868" lon="104.400818">
<ele>278.402588</ele>
<time>2011-04-27T10:19:36Z</time>
<desc>lat.=22.204868, lon.=104.400818, Alt.=278.402588m. Speed=0.000000m/h.</desc>
<speed>0.000000</speed>
</trkpt>
<trkpt lat="22.204868" lon="104.400818">
<ele>278.394775</ele>
<time>2011-04-27T10:19:41Z</time>
<desc>lat.=22.204868, lon.=104.400818, Alt.=278.394775m. Speed=0.000000m/h.</desc>
<speed>0.000000</speed>
</trkpt>
<trkpt lat="22.204868" lon="104.400818">
<ele>278.340088</ele>
<time>2011-04-27T10:19:46Z</time>
<desc>lat.=22.204868, lon.=104.400818, Alt.=278.340088m. Speed=0.036000m/h.</desc>
<speed>0.010000</speed>
</trkpt>
<trkpt lat="22.204868" lon="104.400818">
<ele>278.308838</ele>
<time>2011-04-27T10:19:51Z</time>
<desc>lat.=22.204868, lon.=104.400818, Alt.=278.308838m. Speed=0.072000m/h.</desc>
<speed>0.020000</speed>
</trkpt>
<trkpt lat="22.204870" lon="104.400818">
<ele>278.285400</ele>
<time>2011-04-27T10:19:56Z</time>
<desc>lat.=22.204870, lon.=104.400818, Alt.=278.285400m. Speed=0.288000m/h.</desc>
<speed>0.080000</speed>
</trkpt>
<trkpt lat="22.204870" lon="104.400818">
<ele>278.308838</ele>
<time>2011-04-27T10:20:01Z</time>
<desc>lat.=22.204870, lon.=104.400818, Alt.=278.308838m. Speed=0.036000m/h.</desc>
<speed>0.010000</speed>
</trkpt>
<trkpt lat="22.204870" lon="104.400818">
<ele>278.347900</ele>
<time>2011-04-27T10:20:06Z</time>
<desc>lat.=22.204870, lon.=104.400818, Alt.=278.347900m. Speed=0.108000m/h.</desc>
<speed>0.030000</speed>
</trkpt>
<trkpt lat="22.204868" lon="104.400818">
<ele>278.332275</ele>
<time>2011-04-27T10:20:11Z</time>
<desc>lat.=22.204868, lon.=104.400818, Alt.=278.332275m. Speed=0.036000m/h.</desc>
<speed>0.010000</speed>
</trkpt>
<trkpt lat="22.204870" lon="104.400818">
<ele>278.332275</ele>
<time>2011-04-27T10:20:16Z</time>
<desc>lat.=22.204870, lon.=104.400818, Alt.=278.332275m. Speed=0.036000m/h.</desc>
<speed>0.010000</speed>
</trkpt>
<trkpt lat="22.204868" lon="104.400818">
<ele>278.316650</ele>
<time>2011-04-27T10:20:21Z</time>
<desc>lat.=22.204868, lon.=104.400818, Alt.=278.316650m. Speed=0.216000m/h.</desc>
<speed>0.060000</speed>
</trkpt>
<trkpt lat="22.204866" lon="104.400818">
<ele>278.293213</ele>
<time>2011-04-27T10:20:26Z</time>
<desc>lat.=22.204866, lon.=104.400818, Alt.=278.293213m. Speed=0.396000m/h.</desc>
<speed>0.110000</speed>
</trkpt>
<trkpt lat="22.204865" lon="104.400818">
<ele>278.269775</ele>
<time>2011-04-27T10:20:31Z</time>
<desc>lat.=22.204865, lon.=104.400818, Alt.=278.269775m. Speed=0.288000m/h.</desc>
<speed>0.080000</speed>
</trkpt>
<trkpt lat="22.204863" lon="104.400818">
<ele>278.246338</ele>
<time>2011-04-27T10:20:36Z</time>
<desc>lat.=22.204863, lon.=104.400818, Alt.=278.246338m. Speed=0.252000m/h.</desc>
<speed>0.070000</speed>
</trkpt>
<trkpt lat="22.204861" lon="104.400818">
<ele>278.261963</ele>
<time>2011-04-27T10:20:41Z</time>
<desc>lat.=22.204861, lon.=104.400818, Alt.=278.261963m. Speed=0.072000m/h.</desc>
<speed>0.020000</speed>
</trkpt>
<trkpt lat="22.204861" lon="104.400818">
<ele>278.254150</ele>
<time>2011-04-27T10:20:46Z</time>
<desc>lat.=22.204861, lon.=104.400818, Alt.=278.254150m. Speed=0.216000m/h.</desc>
<speed>0.060000</speed>
</trkpt>
<trkpt lat="22.204865" lon="104.400818">
<ele>278.254150</ele>
<time>2011-04-27T10:20:51Z</time>
<desc>lat.=22.204865, lon.=104.400818, Alt.=278.254150m. Speed=0.036000m/h.</desc>
<speed>0.010000</speed>
</trkpt>
<trkpt lat="22.204876" lon="104.400818">
<ele>278.183838</ele>
<time>2011-04-27T10:20:56Z</time>
<desc>lat.=22.204876, lon.=104.400818, Alt.=278.183838m. Speed=2.628000m/h.</desc>
<speed>0.730000</speed>
</trkpt>
<trkpt lat="22.204914" lon="104.400841">
<ele>277.480713</ele>
<time>2011-04-27T10:21:01Z</time>
<desc>lat.=22.204914, lon.=104.400841, Alt.=277.480713m. Speed=2.520000m/h.</desc>
<speed>0.700000</speed>
</trkpt>
<trkpt lat="22.204924" lon="104.400833">
<ele>278.504150</ele>
<time>2011-04-27T10:21:06Z</time>
<desc>lat.=22.204924, lon.=104.400833, Alt.=278.504150m. Speed=0.252000m/h.</desc>
<speed>0.070000</speed>
</trkpt>
<trkpt lat="22.204931" lon="104.400826">
<ele>278.902588</ele>
<time>2011-04-27T10:21:11Z</time>
<desc>lat.=22.204931, lon.=104.400826, Alt.=278.902588m. Speed=0.180000m/h.</desc>
<speed>0.050000</speed>
</trkpt>
<trkpt lat="22.204941" lon="104.400833">
<ele>279.043213</ele>
<time>2011-04-27T10:21:16Z</time>
<desc>lat.=22.204941, lon.=104.400833, Alt.=279.043213m. Speed=1.368000m/h.</desc>
<speed>0.380000</speed>
</trkpt>
<trkpt lat="22.205019" lon="104.400887">
<ele>279.402588</ele>
<time>2011-04-27T10:21:21Z</time>
<desc>lat.=22.205019, lon.=104.400887, Alt.=279.402588m. Speed=7.776000m/h.</desc>
<speed>2.160000</speed>
</trkpt>
<trkpt lat="22.205099" lon="104.400978">
<ele>279.933838</ele>
<time>2011-04-27T10:21:26Z</time>
<desc>lat.=22.205099, lon.=104.400978, Alt.=279.933838m. Speed=8.748000m/h.</desc>
<speed>2.430000</speed>
</trkpt>
<trkpt lat="22.205221" lon="104.401085">
<ele>280.551025</ele>
<time>2011-04-27T10:21:31Z</time>
<desc>lat.=22.205221, lon.=104.401085, Alt.=280.551025m. Speed=9.756000m/h.</desc>
<speed>2.710000</speed>
</trkpt>
<trkpt lat="22.205330" lon="104.401184">
<ele>282.043213</ele>
<time>2011-04-27T10:21:36Z</time>
<desc>lat.=22.205330, lon.=104.401184, Alt.=282.043213m. Speed=11.052000m/h.</desc>
<speed>3.070000</speed>
</trkpt>
<trkpt lat="22.205450" lon="104.401253">
<ele>284.340088</ele>
<time>2011-04-27T10:21:41Z</time>
<desc>lat.=22.205450, lon.=104.401253, Alt.=284.340088m. Speed=9.360000m/h.</desc>
<speed>2.600000</speed>
</trkpt>
<trkpt lat="22.205564" lon="104.401321">
<ele>285.957275</ele>
<time>2011-04-27T10:21:46Z</time>
<desc>lat.=22.205564, lon.=104.401321, Alt.=285.957275m. Speed=9.936000m/h.</desc>
<speed>2.760000</speed>
</trkpt>
<trkpt lat="22.205616" lon="104.401451">
<ele>284.136963</ele>
<time>2011-04-27T10:21:51Z</time>
<desc>lat.=22.205616, lon.=104.401451, Alt.=284.136963m. Speed=7.524000m/h.</desc>
<speed>2.090000</speed>
</trkpt>
<trkpt lat="22.205622" lon="104.401550">
<ele>285.996338</ele>
<time>2011-04-27T10:21:56Z</time>
<desc>lat.=22.205622, lon.=104.401550, Alt.=285.996338m. Speed=7.056000m/h.</desc>
<speed>1.960000</speed>
</trkpt>
<trkpt lat="22.205568" lon="104.401634">
<ele>288.824463</ele>
<time>2011-04-27T10:22:01Z</time>
<desc>lat.=22.205568, lon.=104.401634, Alt.=288.824463m. Speed=8.172000m/h.</desc>
<speed>2.270000</speed>
</trkpt>
<trkpt lat="22.205500" lon="104.401718">
<ele>289.386963</ele>
<time>2011-04-27T10:22:06Z</time>
<desc>lat.=22.205500, lon.=104.401718, Alt.=289.386963m. Speed=7.956000m/h.</desc>
<speed>2.210000</speed>
</trkpt>
<trkpt lat="22.205444" lon="104.401855">
<ele>288.605713</ele>
<time>2011-04-27T10:22:11Z</time>
<desc>lat.=22.205444, lon.=104.401855, Alt.=288.605713m. Speed=8.028000m/h.</desc>
<speed>2.230000</speed>
</trkpt>
<trkpt lat="22.205437" lon="104.402016">
<ele>289.816650</ele>
<time>2011-04-27T10:22:16Z</time>
<desc>lat.=22.205437, lon.=104.402016, Alt.=289.816650m. Speed=10.296000m/h.</desc>
<speed>2.860000</speed>
</trkpt>
<trkpt lat="22.205446" lon="104.402168">
<ele>290.230713</ele>
<time>2011-04-27T10:22:21Z</time>
<desc>lat.=22.205446, lon.=104.402168, Alt.=290.230713m. Speed=11.232000m/h.</desc>
<speed>3.120000</speed>
</trkpt>
<trkpt lat="22.205378" lon="104.402306">
<ele>290.965088</ele>
<time>2011-04-27T10:22:26Z</time>
<desc>lat.=22.205378, lon.=104.402306, Alt.=290.965088m. Speed=11.592000m/h.</desc>
<speed>3.220000</speed>
</trkpt>
<trkpt lat="22.205267" lon="104.402412">
<ele>293.410400</ele>
<time>2011-04-27T10:22:31Z</time>
<desc>lat.=22.205267, lon.=104.402412, Alt.=293.410400m. Speed=12.672000m/h.</desc>
<speed>3.520000</speed>
</trkpt>
<trkpt lat="22.205116" lon="104.402550">
<ele>294.410400</ele>
<time>2011-04-27T10:22:36Z</time>
<desc>lat.=22.205116, lon.=104.402550, Alt.=294.410400m. Speed=14.688000m/h.</desc>
<speed>4.080000</speed>
</trkpt>
<trkpt lat="22.204983" lon="104.402710">
<ele>291.293213</ele>
<time>2011-04-27T10:22:41Z</time>
<desc>lat.=22.204983, lon.=104.402710, Alt.=291.293213m. Speed=16.128000m/h.</desc>
<speed>4.480000</speed>
</trkpt>
<trkpt lat="22.204884" lon="104.402885">
<ele>288.683838</ele>
<time>2011-04-27T10:22:46Z</time>
<desc>lat.=22.204884, lon.=104.402885, Alt.=288.683838m. Speed=13.824000m/h.</desc>
<speed>3.840000</speed>
</trkpt>
<trkpt lat="22.204859" lon="104.403076">
<ele>290.043213</ele>
<time>2011-04-27T10:22:51Z</time>
<desc>lat.=22.204859, lon.=104.403076, Alt.=290.043213m. Speed=12.312000m/h.</desc>
<speed>3.420000</speed>
</trkpt>
<trkpt lat="22.204851" lon="104.403267">
<ele>288.347900</ele>
<time>2011-04-27T10:22:56Z</time>
<desc>lat.=22.204851, lon.=104.403267, Alt.=288.347900m. Speed=13.752000m/h.</desc>
<speed>3.820000</speed>
</trkpt>
<trkpt lat="22.204838" lon="104.403473">
<ele>286.347900</ele>
<time>2011-04-27T10:23:01Z</time>
<desc>lat.=22.204838, lon.=104.403473, Alt.=286.347900m. Speed=14.616000m/h.</desc>
<speed>4.060000</speed>
</trkpt>
<trkpt lat="22.204807" lon="104.403709">
<ele>282.933838</ele>
<time>2011-04-27T10:23:06Z</time>
<desc>lat.=22.204807, lon.=104.403709, Alt.=282.933838m. Speed=16.920000m/h.</desc>
<speed>4.700000</speed>
</trkpt>
<trkpt lat="22.204821" lon="104.403938">
<ele>283.660400</ele>
<time>2011-04-27T10:23:11Z</time>
<desc>lat.=22.204821, lon.=104.403938, Alt.=283.660400m. Speed=15.624000m/h.</desc>
<speed>4.340000</speed>
</trkpt>
<trkpt lat="22.204971" lon="104.404015">
<ele>282.410400</ele>
<time>2011-04-27T10:23:16Z</time>
<desc>lat.=22.204971, lon.=104.404015, Alt.=282.410400m. Speed=12.744000m/h.</desc>
<speed>3.540000</speed>
</trkpt>
<trkpt lat="22.205103" lon="104.403976">
<ele>283.293213</ele>
<time>2011-04-27T10:23:21Z</time>
<desc>lat.=22.205103, lon.=104.403976, Alt.=283.293213m. Speed=9.072000m/h.</desc>
<speed>2.520000</speed>
</trkpt>
<trkpt lat="22.205221" lon="104.403923">
<ele>286.644775</ele>
<time>2011-04-27T10:23:26Z</time>
<desc>lat.=22.205221, lon.=104.403923, Alt.=286.644775m. Speed=7.488000m/h.</desc>
<speed>2.080000</speed>
</trkpt>
<trkpt lat="22.205301" lon="104.403908">
<ele>288.316650</ele>
<time>2011-04-27T10:23:31Z</time>
<desc>lat.=22.205301, lon.=104.403908, Alt.=288.316650m. Speed=6.408000m/h.</desc>
<speed>1.780000</speed>
</trkpt>
<trkpt lat="22.205402" lon="104.403900">
<ele>287.722900</ele>
<time>2011-04-27T10:23:36Z</time>
<desc>lat.=22.205402, lon.=104.403900, Alt.=287.722900m. Speed=7.884000m/h.</desc>
<speed>2.190000</speed>
</trkpt>
<trkpt lat="22.205479" lon="104.403931">
<ele>287.644775</ele>
<time>2011-04-27T10:23:41Z</time>
<desc>lat.=22.205479, lon.=104.403931, Alt.=287.644775m. Speed=6.444000m/h.</desc>
<speed>1.790000</speed>
</trkpt>
<trkpt lat="22.205561" lon="104.403969">
<ele>288.785400</ele>
<time>2011-04-27T10:23:46Z</time>
<desc>lat.=22.205561, lon.=104.403969, Alt.=288.785400m. Speed=5.472000m/h.</desc>
<speed>1.520000</speed>
</trkpt>
<trkpt lat="22.205618" lon="104.403999">
<ele>288.886963</ele>
<time>2011-04-27T10:23:51Z</time>
<desc>lat.=22.205618, lon.=104.403999, Alt.=288.886963m. Speed=7.344000m/h.</desc>
<speed>2.040000</speed>
</trkpt>
<trkpt lat="22.205692" lon="104.404060">
<ele>288.902588</ele>
<time>2011-04-27T10:23:56Z</time>
<desc>lat.=22.205692, lon.=104.404060, Alt.=288.902588m. Speed=6.624000m/h.</desc>
<speed>1.840000</speed>
</trkpt>
<trkpt lat="22.205736" lon="104.404129">
<ele>288.855713</ele>
<time>2011-04-27T10:24:01Z</time>
<desc>lat.=22.205736, lon.=104.404129, Alt.=288.855713m. Speed=6.084000m/h.</desc>
<speed>1.690000</speed>
</trkpt>
<trkpt lat="22.205791" lon="104.404228">
<ele>290.082275</ele>
<time>2011-04-27T10:24:06Z</time>
<desc>lat.=22.205791, lon.=104.404228, Alt.=290.082275m. Speed=8.460000m/h.</desc>
<speed>2.350000</speed>
</trkpt>
<trkpt lat="22.205826" lon="104.404335">
<ele>290.551025</ele>
<time>2011-04-27T10:24:11Z</time>
<desc>lat.=22.205826, lon.=104.404335, Alt.=290.551025m. Speed=8.244000m/h.</desc>
<speed>2.290000</speed>
</trkpt>
<trkpt lat="22.205843" lon="104.404472">
<ele>292.152588</ele>
<time>2011-04-27T10:24:16Z</time>
<desc>lat.=22.205843, lon.=104.404472, Alt.=292.152588m. Speed=8.460000m/h.</desc>
<speed>2.350000</speed>
</trkpt>
<trkpt lat="22.205832" lon="104.404594">
<ele>293.511963</ele>
<time>2011-04-27T10:24:21Z</time>
<desc>lat.=22.205832, lon.=104.404594, Alt.=293.511963m. Speed=9.612000m/h.</desc>
<speed>2.670000</speed>
</trkpt>
<trkpt lat="22.205822" lon="104.404716">
<ele>292.660400</ele>
<time>2011-04-27T10:24:26Z</time>
<desc>lat.=22.205822, lon.=104.404716, Alt.=292.660400m. Speed=10.116000m/h.</desc>
<speed>2.810000</speed>
</trkpt>
<trkpt lat="22.205809" lon="104.404846">
<ele>292.183838</ele>
<time>2011-04-27T10:24:31Z</time>
<desc>lat.=22.205809, lon.=104.404846, Alt.=292.183838m. Speed=10.152000m/h.</desc>
<speed>2.820000</speed>
</trkpt>
<trkpt lat="22.205805" lon="104.404976">
<ele>294.043213</ele>
<time>2011-04-27T10:24:36Z</time>
<desc>lat.=22.205805, lon.=104.404976, Alt.=294.043213m. Speed=9.360000m/h.</desc>
<speed>2.600000</speed>
</trkpt>
<trkpt lat="22.205824" lon="104.405098">
<ele>295.894775</ele>
<time>2011-04-27T10:24:41Z</time>
<desc>lat.=22.205824, lon.=104.405098, Alt.=295.894775m. Speed=10.512000m/h.</desc>
<speed>2.920000</speed>
</trkpt>
<trkpt lat="22.205906" lon="104.405167">
<ele>296.558838</ele>
<time>2011-04-27T10:24:46Z</time>
<desc>lat.=22.205906, lon.=104.405167, Alt.=296.558838m. Speed=6.480000m/h.</desc>
<speed>1.800000</speed>
</trkpt>
<trkpt lat="22.205996" lon="104.405212">
<ele>297.011963</ele>
<time>2011-04-27T10:24:51Z</time>
<desc>lat.=22.205996, lon.=104.405212, Alt.=297.011963m. Speed=7.236000m/h.</desc>
<speed>2.010000</speed>
</trkpt>
<trkpt lat="22.206047" lon="104.405251">
<ele>297.261963</ele>
<time>2011-04-27T10:24:56Z</time>
<desc>lat.=22.206047, lon.=104.405251, Alt.=297.261963m. Speed=4.104000m/h.</desc>
<speed>1.140000</speed>
</trkpt>
<trkpt lat="22.206120" lon="104.405304">
<ele>297.269775</ele>
<time>2011-04-27T10:25:01Z</time>
<desc>lat.=22.206120, lon.=104.405304, Alt.=297.269775m. Speed=5.652000m/h.</desc>
<speed>1.570000</speed>
</trkpt>
<trkpt lat="22.206188" lon="104.405373">
<ele>298.019775</ele>
<time>2011-04-27T10:25:06Z</time>
<desc>lat.=22.206188, lon.=104.405373, Alt.=298.019775m. Speed=6.156000m/h.</desc>
<speed>1.710000</speed>
</trkpt>
<trkpt lat="22.206228" lon="104.405457">
<ele>299.308838</ele>
<time>2011-04-27T10:25:11Z</time>
<desc>lat.=22.206228, lon.=104.405457, Alt.=299.308838m. Speed=5.364000m/h.</desc>
<speed>1.490000</speed>
</trkpt>
<trkpt lat="22.206242" lon="104.405556">
<ele>299.972900</ele>
<time>2011-04-27T10:25:16Z</time>
<desc>lat.=22.206242, lon.=104.405556, Alt.=299.972900m. Speed=6.048000m/h.</desc>
<speed>1.680000</speed>
</trkpt>
<trkpt lat="22.206240" lon="104.405632">
<ele>299.543213</ele>
<time>2011-04-27T10:25:21Z</time>
<desc>lat.=22.206240, lon.=104.405632, Alt.=299.543213m. Speed=5.076000m/h.</desc>
<speed>1.410000</speed>
</trkpt>
<trkpt lat="22.206249" lon="104.405724">
<ele>299.715088</ele>
<time>2011-04-27T10:25:26Z</time>
<desc>lat.=22.206249, lon.=104.405724, Alt.=299.715088m. Speed=5.796000m/h.</desc>
<speed>1.610000</speed>
</trkpt>
<trkpt lat="22.206259" lon="104.405830">
<ele>299.144775</ele>
<time>2011-04-27T10:25:31Z</time>
<desc>lat.=22.206259, lon.=104.405830, Alt.=299.144775m. Speed=5.544000m/h.</desc>
<speed>1.540000</speed>
</trkpt>
<trkpt lat="22.206255" lon="104.405899">
<ele>298.441650</ele>
<time>2011-04-27T10:25:36Z</time>
<desc>lat.=22.206255, lon.=104.405899, Alt.=298.441650m. Speed=5.472000m/h.</desc>
<speed>1.520000</speed>
</trkpt>
<trkpt lat="22.206261" lon="104.405968">
<ele>298.582275</ele>
<time>2011-04-27T10:25:41Z</time>
<desc>lat.=22.206261, lon.=104.405968, Alt.=298.582275m. Speed=4.500000m/h.</desc>
<speed>1.250000</speed>
</trkpt>
<trkpt lat="22.206278" lon="104.406036">
<ele>299.285400</ele>
<time>2011-04-27T10:25:46Z</time>
<desc>lat.=22.206278, lon.=104.406036, Alt.=299.285400m. Speed=5.328000m/h.</desc>
<speed>1.480000</speed>
</trkpt>
<trkpt lat="22.206274" lon="104.406097">
<ele>300.090088</ele>
<time>2011-04-27T10:25:51Z</time>
<desc>lat.=22.206274, lon.=104.406097, Alt.=300.090088m. Speed=4.572000m/h.</desc>
<speed>1.270000</speed>
</trkpt>
<trkpt lat="22.206301" lon="104.406151">
<ele>300.754150</ele>
<time>2011-04-27T10:25:56Z</time>
<desc>lat.=22.206301, lon.=104.406151, Alt.=300.754150m. Speed=4.356000m/h.</desc>
<speed>1.210000</speed>
</trkpt>
<trkpt lat="22.206335" lon="104.406212">
<ele>302.910400</ele>
<time>2011-04-27T10:26:01Z</time>
<desc>lat.=22.206335, lon.=104.406212, Alt.=302.910400m. Speed=4.860000m/h.</desc>
<speed>1.350000</speed>
</trkpt>
<trkpt lat="22.206385" lon="104.406242">
<ele>303.082275</ele>
<time>2011-04-27T10:26:06Z</time>
<desc>lat.=22.206385, lon.=104.406242, Alt.=303.082275m. Speed=3.816000m/h.</desc>
<speed>1.060000</speed>
</trkpt>
<trkpt lat="22.206434" lon="104.406265">
<ele>303.027588</ele>
<time>2011-04-27T10:26:11Z</time>
<desc>lat.=22.206434, lon.=104.406265, Alt.=303.027588m. Speed=5.760000m/h.</desc>
<speed>1.600000</speed>
</trkpt>
<trkpt lat="22.206497" lon="104.406288">
<ele>304.488525</ele>
<time>2011-04-27T10:26:16Z</time>
<desc>lat.=22.206497, lon.=104.406288, Alt.=304.488525m. Speed=5.004000m/h.</desc>
<speed>1.390000</speed>
</trkpt>
<trkpt lat="22.206554" lon="104.406288">
<ele>303.543213</ele>
<time>2011-04-27T10:26:21Z</time>
<desc>lat.=22.206554, lon.=104.406288, Alt.=303.543213m. Speed=3.888000m/h.</desc>
<speed>1.080000</speed>
</trkpt>
<trkpt lat="22.206619" lon="104.406319">
<ele>303.902588</ele>
<time>2011-04-27T10:26:26Z</time>
<desc>lat.=22.206619, lon.=104.406319, Alt.=303.902588m. Speed=4.500000m/h.</desc>
<speed>1.250000</speed>
</trkpt>
<trkpt lat="22.206703" lon="104.406326">
<ele>305.371338</ele>
<time>2011-04-27T10:26:31Z</time>
<desc>lat.=22.206703, lon.=104.406326, Alt.=305.371338m. Speed=6.012000m/h.</desc>
<speed>1.670000</speed>
</trkpt>
<trkpt lat="22.206789" lon="104.406349">
<ele>306.965088</ele>
<time>2011-04-27T10:26:36Z</time>
<desc>lat.=22.206789, lon.=104.406349, Alt.=306.965088m. Speed=7.416000m/h.</desc>
<speed>2.060000</speed>
</trkpt>
<trkpt lat="22.206879" lon="104.406342">
<ele>308.121338</ele>
<time>2011-04-27T10:26:41Z</time>
<desc>lat.=22.206879, lon.=104.406342, Alt.=308.121338m. Speed=6.876000m/h.</desc>
<speed>1.910000</speed>
</trkpt>
<trkpt lat="22.206970" lon="104.406349">
<ele>306.379150</ele>
<time>2011-04-27T10:26:46Z</time>
<desc>lat.=22.206970, lon.=104.406349, Alt.=306.379150m. Speed=6.876000m/h.</desc>
<speed>1.910000</speed>
</trkpt>
<trkpt lat="22.207060" lon="104.406395">
<ele>306.004150</ele>
<time>2011-04-27T10:26:51Z</time>
<desc>lat.=22.207060, lon.=104.406395, Alt.=306.004150m. Speed=6.444000m/h.</desc>
<speed>1.790000</speed>
</trkpt>
<trkpt lat="22.207157" lon="104.406433">
<ele>304.176025</ele>
<time>2011-04-27T10:26:56Z</time>
<desc>lat.=22.207157, lon.=104.406433, Alt.=304.176025m. Speed=6.840000m/h.</desc>
<speed>1.900000</speed>
</trkpt>
<trkpt lat="22.207239" lon="104.406448">
<ele>303.761963</ele>
<time>2011-04-27T10:27:01Z</time>
<desc>lat.=22.207239, lon.=104.406448, Alt.=303.761963m. Speed=5.904000m/h.</desc>
<speed>1.640000</speed>
</trkpt>
<trkpt lat="22.207338" lon="104.406448">
<ele>305.277588</ele>
<time>2011-04-27T10:27:06Z</time>
<desc>lat.=22.207338, lon.=104.406448, Alt.=305.277588m. Speed=7.236000m/h.</desc>
<speed>2.010000</speed>
</trkpt>
<trkpt lat="22.207420" lon="104.406464">
<ele>302.715088</ele>
<time>2011-04-27T10:27:11Z</time>
<desc>lat.=22.207420, lon.=104.406464, Alt.=302.715088m. Speed=7.308000m/h.</desc>
<speed>2.030000</speed>
</trkpt>
<trkpt lat="22.207499" lon="104.406494">
<ele>305.972900</ele>
<time>2011-04-27T10:27:16Z</time>
<desc>lat.=22.207499, lon.=104.406494, Alt.=305.972900m. Speed=7.416000m/h.</desc>
<speed>2.060000</speed>
</trkpt>
<trkpt lat="22.207579" lon="104.406509">
<ele>311.176025</ele>
<time>2011-04-27T10:27:21Z</time>
<desc>lat.=22.207579, lon.=104.406509, Alt.=311.176025m. Speed=3.960000m/h.</desc>
<speed>1.100000</speed>
</trkpt>
<trkpt lat="22.207636" lon="104.406548">
<ele>316.121338</ele>
<time>2011-04-27T10:27:26Z</time>
<desc>lat.=22.207636, lon.=104.406548, Alt.=316.121338m. Speed=6.192000m/h.</desc>
<speed>1.720000</speed>
</trkpt>
<trkpt lat="22.207678" lon="104.406631">
<ele>317.926025</ele>
<time>2011-04-27T10:27:31Z</time>
<desc>lat.=22.207678, lon.=104.406631, Alt.=317.926025m. Speed=6.624000m/h.</desc>
<speed>1.840000</speed>
</trkpt>
<trkpt lat="22.207708" lon="104.406708">
<ele>321.136963</ele>
<time>2011-04-27T10:27:36Z</time>
<desc>lat.=22.207708, lon.=104.406708, Alt.=321.136963m. Speed=6.156000m/h.</desc>
<speed>1.710000</speed>
</trkpt>
<trkpt lat="22.207747" lon="104.406776">
<ele>322.652588</ele>
<time>2011-04-27T10:27:41Z</time>
<desc>lat.=22.207747, lon.=104.406776, Alt.=322.652588m. Speed=6.408000m/h.</desc>
<speed>1.780000</speed>
</trkpt>
<trkpt lat="22.207787" lon="104.406883">
<ele>324.543213</ele>
<time>2011-04-27T10:27:46Z</time>
<desc>lat.=22.207787, lon.=104.406883, Alt.=324.543213m. Speed=5.904000m/h.</desc>
<speed>1.640000</speed>
</trkpt>
<trkpt lat="22.207817" lon="104.406952">
<ele>325.855713</ele>
<time>2011-04-27T10:27:51Z</time>
<desc>lat.=22.207817, lon.=104.406952, Alt.=325.855713m. Speed=7.452000m/h.</desc>
<speed>2.070000</speed>
</trkpt>
<trkpt lat="22.207878" lon="104.407043">
<ele>325.465088</ele>
<time>2011-04-27T10:27:56Z</time>
<desc>lat.=22.207878, lon.=104.407043, Alt.=325.465088m. Speed=5.544000m/h.</desc>
<speed>1.540000</speed>
</trkpt>
<trkpt lat="22.207918" lon="104.407120">
<ele>325.769775</ele>
<time>2011-04-27T10:28:01Z</time>
<desc>lat.=22.207918, lon.=104.407120, Alt.=325.769775m. Speed=6.480000m/h.</desc>
<speed>1.800000</speed>
</trkpt>
<trkpt lat="22.207973" lon="104.407196">
<ele>325.246338</ele>
<time>2011-04-27T10:28:06Z</time>
<desc>lat.=22.207973, lon.=104.407196, Alt.=325.246338m. Speed=6.804000m/h.</desc>
<speed>1.890000</speed>
</trkpt>
<trkpt lat="22.208008" lon="104.407280">
<ele>325.347900</ele>
<time>2011-04-27T10:28:11Z</time>
<desc>lat.=22.208008, lon.=104.407280, Alt.=325.347900m. Speed=6.516000m/h.</desc>
<speed>1.810000</speed>
</trkpt>
<trkpt lat="22.208023" lon="104.407379">
<ele>325.527588</ele>
<time>2011-04-27T10:28:16Z</time>
<desc>lat.=22.208023, lon.=104.407379, Alt.=325.527588m. Speed=6.804000m/h.</desc>
<speed>1.890000</speed>
</trkpt>
<trkpt lat="22.208019" lon="104.407486">
<ele>326.676025</ele>
<time>2011-04-27T10:28:21Z</time>
<desc>lat.=22.208019, lon.=104.407486, Alt.=326.676025m. Speed=6.984000m/h.</desc>
<speed>1.940000</speed>
</trkpt>
<trkpt lat="22.208025" lon="104.407608">
<ele>327.761963</ele>
<time>2011-04-27T10:28:26Z</time>
<desc>lat.=22.208025, lon.=104.407608, Alt.=327.761963m. Speed=7.632000m/h.</desc>
<speed>2.120000</speed>
</trkpt>
<trkpt lat="22.208027" lon="104.407707">
<ele>328.582275</ele>
<time>2011-04-27T10:28:31Z</time>
<desc>lat.=22.208027, lon.=104.407707, Alt.=328.582275m. Speed=6.480000m/h.</desc>
<speed>1.800000</speed>
</trkpt>
<trkpt lat="22.208027" lon="104.407784">
<ele>329.121338</ele>
<time>2011-04-27T10:28:36Z</time>
<desc>lat.=22.208027, lon.=104.407784, Alt.=329.121338m. Speed=7.920000m/h.</desc>
<speed>2.200000</speed>
</trkpt>
<trkpt lat="22.208033" lon="104.407852">
<ele>331.261963</ele>
<time>2011-04-27T10:28:41Z</time>
<desc>lat.=22.208033, lon.=104.407852, Alt.=331.261963m. Speed=4.572000m/h.</desc>
<speed>1.270000</speed>
</trkpt>
<trkpt lat="22.208071" lon="104.407921">
<ele>332.855713</ele>
<time>2011-04-27T10:28:46Z</time>
<desc>lat.=22.208071, lon.=104.407921, Alt.=332.855713m. Speed=7.164000m/h.</desc>
<speed>1.990000</speed>
</trkpt>
<trkpt lat="22.208099" lon="104.407997">
<ele>333.402588</ele>
<time>2011-04-27T10:28:51Z</time>
<desc>lat.=22.208099, lon.=104.407997, Alt.=333.402588m. Speed=5.400000m/h.</desc>
<speed>1.500000</speed>
</trkpt>
<trkpt lat="22.208124" lon="104.408073">
<ele>334.254150</ele>
<time>2011-04-27T10:28:56Z</time>
<desc>lat.=22.208124, lon.=104.408073, Alt.=334.254150m. Speed=6.084000m/h.</desc>
<speed>1.690000</speed>
</trkpt>
<trkpt lat="22.208160" lon="104.408142">
<ele>334.957275</ele>
<time>2011-04-27T10:29:01Z</time>
<desc>lat.=22.208160, lon.=104.408142, Alt.=334.957275m. Speed=5.724000m/h.</desc>
<speed>1.590000</speed>
</trkpt>
<trkpt lat="22.208204" lon="104.408226">
<ele>334.496338</ele>
<time>2011-04-27T10:29:06Z</time>
<desc>lat.=22.208204, lon.=104.408226, Alt.=334.496338m. Speed=6.840000m/h.</desc>
<speed>1.900000</speed>
</trkpt>
<trkpt lat="22.208256" lon="104.408287">
<ele>336.199463</ele>
<time>2011-04-27T10:29:11Z</time>
<desc>lat.=22.208256, lon.=104.408287, Alt.=336.199463m. Speed=4.392000m/h.</desc>
<speed>1.220000</speed>
</trkpt>
<trkpt lat="22.208305" lon="104.408356">
<ele>337.613525</ele>
<time>2011-04-27T10:29:16Z</time>
<desc>lat.=22.208305, lon.=104.408356, Alt.=337.613525m. Speed=5.400000m/h.</desc>
<speed>1.500000</speed>
</trkpt>
<trkpt lat="22.208361" lon="104.408440">
<ele>340.433838</ele>
<time>2011-04-27T10:29:21Z</time>
<desc>lat.=22.208361, lon.=104.408440, Alt.=340.433838m. Speed=3.924000m/h.</desc>
<speed>1.090000</speed>
</trkpt>
<trkpt lat="22.208382" lon="104.408501">
<ele>342.371338</ele>
<time>2011-04-27T10:29:26Z</time>
<desc>lat.=22.208382, lon.=104.408501, Alt.=342.371338m. Speed=3.420000m/h.</desc>
<speed>0.950000</speed>
</trkpt>
<trkpt lat="22.208405" lon="104.408546">
<ele>343.847900</ele>
<time>2011-04-27T10:29:31Z</time>
<desc>lat.=22.208405, lon.=104.408546, Alt.=343.847900m. Speed=4.140000m/h.</desc>
<speed>1.150000</speed>
</trkpt>
<trkpt lat="22.208448" lon="104.408615">
<ele>345.254150</ele>
<time>2011-04-27T10:29:36Z</time>
<desc>lat.=22.208448, lon.=104.408615, Alt.=345.254150m. Speed=4.464000m/h.</desc>
<speed>1.240000</speed>
</trkpt>
<trkpt lat="22.208473" lon="104.408684">
<ele>348.715088</ele>
<time>2011-04-27T10:29:41Z</time>
<desc>lat.=22.208473, lon.=104.408684, Alt.=348.715088m. Speed=5.400000m/h.</desc>
<speed>1.500000</speed>
</trkpt>
<trkpt lat="22.208506" lon="104.408760">
<ele>350.347900</ele>
<time>2011-04-27T10:29:46Z</time>
<desc>lat.=22.208506, lon.=104.408760, Alt.=350.347900m. Speed=1.368000m/h.</desc>
<speed>0.380000</speed>
</trkpt>
<trkpt lat="22.208506" lon="104.408768">
<ele>349.886963</ele>
<time>2011-04-27T10:29:51Z</time>
<desc>lat.=22.208506, lon.=104.408768, Alt.=349.886963m. Speed=0.180000m/h.</desc>
<speed>0.050000</speed>
</trkpt>
<trkpt lat="22.208506" lon="104.408775">
<ele>349.504150</ele>
<time>2011-04-27T10:29:56Z</time>
<desc>lat.=22.208506, lon.=104.408775, Alt.=349.504150m. Speed=1.980000m/h.</desc>
<speed>0.550000</speed>
</trkpt>
<trkpt lat="22.208521" lon="104.408791">
<ele>348.816650</ele>
<time>2011-04-27T10:30:01Z</time>
<desc>lat.=22.208521, lon.=104.408791, Alt.=348.816650m. Speed=1.512000m/h.</desc>
<speed>0.420000</speed>
</trkpt>
<trkpt lat="22.208513" lon="104.408821">
<ele>347.519775</ele>
<time>2011-04-27T10:30:06Z</time>
<desc>lat.=22.208513, lon.=104.408821, Alt.=347.519775m. Speed=1.908000m/h.</desc>
<speed>0.530000</speed>
</trkpt>
<trkpt lat="22.208515" lon="104.408852">
<ele>347.402588</ele>
<time>2011-04-27T10:30:11Z</time>
<desc>lat.=22.208515, lon.=104.408852, Alt.=347.402588m. Speed=3.780000m/h.</desc>
<speed>1.050000</speed>
</trkpt>
<trkpt lat="22.208513" lon="104.408920">
<ele>347.246338</ele>
<time>2011-04-27T10:30:16Z</time>
<desc>lat.=22.208513, lon.=104.408920, Alt.=347.246338m. Speed=5.940000m/h.</desc>
<speed>1.650000</speed>
</trkpt>
<trkpt lat="22.208492" lon="104.408989">
<ele>347.277588</ele>
<time>2011-04-27T10:30:21Z</time>
<desc>lat.=22.208492, lon.=104.408989, Alt.=347.277588m. Speed=4.860000m/h.</desc>
<speed>1.350000</speed>
</trkpt>
<trkpt lat="22.208469" lon="104.409058">
<ele>348.121338</ele>
<time>2011-04-27T10:30:26Z</time>
<desc>lat.=22.208469, lon.=104.409058, Alt.=348.121338m. Speed=5.508000m/h.</desc>
<speed>1.530000</speed>
</trkpt>
<trkpt lat="22.208448" lon="104.409142">
<ele>348.574463</ele>
<time>2011-04-27T10:30:31Z</time>
<desc>lat.=22.208448, lon.=104.409142, Alt.=348.574463m. Speed=5.796000m/h.</desc>
<speed>1.610000</speed>
</trkpt>
<trkpt lat="22.208418" lon="104.409218">
<ele>349.386963</ele>
<time>2011-04-27T10:30:36Z</time>
<desc>lat.=22.208418, lon.=104.409218, Alt.=349.386963m. Speed=7.020000m/h.</desc>
<speed>1.950000</speed>
</trkpt>
<trkpt lat="22.208399" lon="104.409302">
<ele>350.090088</ele>
<time>2011-04-27T10:30:41Z</time>
<desc>lat.=22.208399, lon.=104.409302, Alt.=350.090088m. Speed=5.400000m/h.</desc>
<speed>1.500000</speed>
</trkpt>
<trkpt lat="22.208384" lon="104.409378">
<ele>351.293213</ele>
<time>2011-04-27T10:30:46Z</time>
<desc>lat.=22.208384, lon.=104.409378, Alt.=351.293213m. Speed=6.048000m/h.</desc>
<speed>1.680000</speed>
</trkpt>
<trkpt lat="22.208363" lon="104.409462">
<ele>352.347900</ele>
<time>2011-04-27T10:30:51Z</time>
<desc>lat.=22.208363, lon.=104.409462, Alt.=352.347900m. Speed=5.544000m/h.</desc>
<speed>1.540000</speed>
</trkpt>
<trkpt lat="22.208351" lon="104.409546">
<ele>352.636963</ele>
<time>2011-04-27T10:30:56Z</time>
<desc>lat.=22.208351, lon.=104.409546, Alt.=352.636963m. Speed=5.112000m/h.</desc>
<speed>1.420000</speed>
</trkpt>
<trkpt lat="22.208338" lon="104.409599">
<ele>353.426025</ele>
<time>2011-04-27T10:31:01Z</time>
<desc>lat.=22.208338, lon.=104.409599, Alt.=353.426025m. Speed=5.112000m/h.</desc>
<speed>1.420000</speed>
</trkpt>
<trkpt lat="22.208324" lon="104.409706">
<ele>353.910400</ele>
<time>2011-04-27T10:31:06Z</time>
<desc>lat.=22.208324, lon.=104.409706, Alt.=353.910400m. Speed=5.220000m/h.</desc>
<speed>1.450000</speed>
</trkpt>
<trkpt lat="22.208332" lon="104.409782">
<ele>354.722900</ele>
<time>2011-04-27T10:31:11Z</time>
<desc>lat.=22.208332, lon.=104.409782, Alt.=354.722900m. Speed=5.616000m/h.</desc>
<speed>1.560000</speed>
</trkpt>
<trkpt lat="22.208319" lon="104.409836">
<ele>355.379150</ele>
<time>2011-04-27T10:31:16Z</time>
<desc>lat.=22.208319, lon.=104.409836, Alt.=355.379150m. Speed=6.084000m/h.</desc>
<speed>1.690000</speed>
</trkpt>
<trkpt lat="22.208277" lon="104.409897">
<ele>356.332275</ele>
<time>2011-04-27T10:31:21Z</time>
<desc>lat.=22.208277, lon.=104.409897, Alt.=356.332275m. Speed=4.680000m/h.</desc>
<speed>1.300000</speed>
</trkpt>
<trkpt lat="22.208227" lon="104.409950">
<ele>356.660400</ele>
<time>2011-04-27T10:31:26Z</time>
<desc>lat.=22.208227, lon.=104.409950, Alt.=356.660400m. Speed=5.976000m/h.</desc>
<speed>1.660000</speed>
</trkpt>
<trkpt lat="22.208166" lon="104.410019">
<ele>358.426025</ele>
<time>2011-04-27T10:31:31Z</time>
<desc>lat.=22.208166, lon.=104.410019, Alt.=358.426025m. Speed=6.372000m/h.</desc>
<speed>1.770000</speed>
</trkpt>
<trkpt lat="22.208097" lon="104.410065">
<ele>359.394775</ele>
<time>2011-04-27T10:31:36Z</time>
<desc>lat.=22.208097, lon.=104.410065, Alt.=359.394775m. Speed=6.228000m/h.</desc>
<speed>1.730000</speed>
</trkpt>
<trkpt lat="22.208023" lon="104.410118">
<ele>360.683838</ele>
<time>2011-04-27T10:31:41Z</time>
<desc>lat.=22.208023, lon.=104.410118, Alt.=360.683838m. Speed=4.428000m/h.</desc>
<speed>1.230000</speed>
</trkpt>
<trkpt lat="22.207966" lon="104.410194">
<ele>362.316650</ele>
<time>2011-04-27T10:31:46Z</time>
<desc>lat.=22.207966, lon.=104.410194, Alt.=362.316650m. Speed=6.624000m/h.</desc>
<speed>1.840000</speed>
</trkpt>
<trkpt lat="22.207922" lon="104.410255">
<ele>365.176025</ele>
<time>2011-04-27T10:31:51Z</time>
<desc>lat.=22.207922, lon.=104.410255, Alt.=365.176025m. Speed=4.464000m/h.</desc>
<speed>1.240000</speed>
</trkpt>
<trkpt lat="22.207893" lon="104.410301">
<ele>368.535400</ele>
<time>2011-04-27T10:31:56Z</time>
<desc>lat.=22.207893, lon.=104.410301, Alt.=368.535400m. Speed=3.888000m/h.</desc>
<speed>1.080000</speed>
</trkpt>
<trkpt lat="22.207895" lon="104.410378">
<ele>371.113525</ele>
<time>2011-04-27T10:32:01Z</time>
<desc>lat.=22.207895, lon.=104.410378, Alt.=371.113525m. Speed=4.032000m/h.</desc>
<speed>1.120000</speed>
</trkpt>
<trkpt lat="22.207874" lon="104.410439">
<ele>373.183838</ele>
<time>2011-04-27T10:32:06Z</time>
<desc>lat.=22.207874, lon.=104.410439, Alt.=373.183838m. Speed=2.736000m/h.</desc>
<speed>0.760000</speed>
</trkpt>
<trkpt lat="22.207844" lon="104.410522">
<ele>375.058838</ele>
<time>2011-04-27T10:32:11Z</time>
<desc>lat.=22.207844, lon.=104.410522, Alt.=375.058838m. Speed=5.940000m/h.</desc>
<speed>1.650000</speed>
</trkpt>
<trkpt lat="22.207838" lon="104.410637">
<ele>377.113525</ele>
<time>2011-04-27T10:32:16Z</time>
<desc>lat.=22.207838, lon.=104.410637, Alt.=377.113525m. Speed=6.732000m/h.</desc>
<speed>1.870000</speed>
</trkpt>
<trkpt lat="22.207832" lon="104.410721">
<ele>378.324463</ele>
<time>2011-04-27T10:32:21Z</time>
<desc>lat.=22.207832, lon.=104.410721, Alt.=378.324463m. Speed=5.544000m/h.</desc>
<speed>1.540000</speed>
</trkpt>
<trkpt lat="22.207823" lon="104.410797">
<ele>380.222900</ele>
<time>2011-04-27T10:32:26Z</time>
<desc>lat.=22.207823, lon.=104.410797, Alt.=380.222900m. Speed=5.292000m/h.</desc>
<speed>1.470000</speed>
</trkpt>
<trkpt lat="22.207817" lon="104.410904">
<ele>383.722900</ele>
<time>2011-04-27T10:32:31Z</time>
<desc>lat.=22.207817, lon.=104.410904, Alt.=383.722900m. Speed=5.940000m/h.</desc>
<speed>1.650000</speed>
</trkpt>
<trkpt lat="22.207804" lon="104.410973">
<ele>385.652588</ele>
<time>2011-04-27T10:32:36Z</time>
<desc>lat.=22.207804, lon.=104.410973, Alt.=385.652588m. Speed=5.688000m/h.</desc>
<speed>1.580000</speed>
</trkpt>
<trkpt lat="22.207796" lon="104.411049">
<ele>387.769775</ele>
<time>2011-04-27T10:32:41Z</time>
<desc>lat.=22.207796, lon.=104.411049, Alt.=387.769775m. Speed=4.644000m/h.</desc>
<speed>1.290000</speed>
</trkpt>
<trkpt lat="22.207787" lon="104.411095">
<ele>389.379150</ele>
<time>2011-04-27T10:32:46Z</time>
<desc>lat.=22.207787, lon.=104.411095, Alt.=389.379150m. Speed=4.500000m/h.</desc>
<speed>1.250000</speed>
</trkpt>
<trkpt lat="22.207827" lon="104.411118">
<ele>391.277588</ele>
<time>2011-04-27T10:32:51Z</time>
<desc>lat.=22.207827, lon.=104.411118, Alt.=391.277588m. Speed=0.756000m/h.</desc>
<speed>0.210000</speed>
</trkpt>
<trkpt lat="22.207811" lon="104.411110">
<ele>391.449463</ele>
<time>2011-04-27T10:32:56Z</time>
<desc>lat.=22.207811, lon.=104.411110, Alt.=391.449463m. Speed=0.756000m/h.</desc>
<speed>0.210000</speed>
</trkpt>
<trkpt lat="22.207809" lon="104.411110">
<ele>391.519775</ele>
<time>2011-04-27T10:33:01Z</time>
<desc>lat.=22.207809, lon.=104.411110, Alt.=391.519775m. Speed=0.000000m/h.</desc>
<speed>0.000000</speed>
</trkpt>
<trkpt lat="22.207809" lon="104.411110">
<ele>391.386963</ele>
<time>2011-04-27T10:33:06Z</time>
<desc>lat.=22.207809, lon.=104.411110, Alt.=391.386963m. Speed=0.072000m/h.</desc>
<speed>0.020000</speed>
</trkpt>
<trkpt lat="22.207808" lon="104.411110">
<ele>391.238525</ele>
<time>2011-04-27T10:33:11Z</time>
<desc>lat.=22.207808, lon.=104.411110, Alt.=391.238525m. Speed=0.144000m/h.</desc>
<speed>0.040000</speed>
</trkpt>
<trkpt lat="22.207808" lon="104.411110">
<ele>391.207275</ele>
<time>2011-04-27T10:33:16Z</time>
<desc>lat.=22.207808, lon.=104.411110, Alt.=391.207275m. Speed=0.000000m/h.</desc>
<speed>0.000000</speed>
</trkpt>
<trkpt lat="22.207808" lon="104.411110">
<ele>391.199463</ele>
<time>2011-04-27T10:33:21Z</time>
<desc>lat.=22.207808, lon.=104.411110, Alt.=391.199463m. Speed=0.000000m/h.</desc>
<speed>0.000000</speed>
</trkpt>
<trkpt lat="22.207808" lon="104.411110">
<ele>391.176025</ele>
<time>2011-04-27T10:33:26Z</time>
<desc>lat.=22.207808, lon.=104.411110, Alt.=391.176025m. Speed=0.072000m/h.</desc>
<speed>0.020000</speed>
</trkpt>
<trkpt lat="22.207806" lon="104.411110">
<ele>391.176025</ele>
<time>2011-04-27T10:33:31Z</time>
<desc>lat.=22.207806, lon.=104.411110, Alt.=391.176025m. Speed=0.108000m/h.</desc>
<speed>0.030000</speed>
</trkpt>
<trkpt lat="22.207806" lon="104.411110">
<ele>391.183838</ele>
<time>2011-04-27T10:33:36Z</time>
<desc>lat.=22.207806, lon.=104.411110, Alt.=391.183838m. Speed=0.036000m/h.</desc>
<speed>0.010000</speed>
</trkpt>
<trkpt lat="22.207806" lon="104.411110">
<ele>391.183838</ele>
<time>2011-04-27T10:33:41Z</time>
<desc>lat.=22.207806, lon.=104.411110, Alt.=391.183838m. Speed=0.000000m/h.</desc>
<speed>0.000000</speed>
</trkpt>
<trkpt lat="22.207804" lon="104.411110">
<ele>391.183838</ele>
<time>2011-04-27T10:33:46Z</time>
<desc>lat.=22.207804, lon.=104.411110, Alt.=391.183838m. Speed=0.036000m/h.</desc>
<speed>0.010000</speed>
</trkpt>
<trkpt lat="22.207804" lon="104.411110">
<ele>391.168213</ele>
<time>2011-04-27T10:33:51Z</time>
<desc>lat.=22.207804, lon.=104.411110, Alt.=391.168213m. Speed=0.036000m/h.</desc>
<speed>0.010000</speed>
</trkpt>
<trkpt lat="22.207804" lon="104.411110">
<ele>391.121338</ele>
<time>2011-04-27T10:33:56Z</time>
<desc>lat.=22.207804, lon.=104.411110, Alt.=391.121338m. Speed=0.036000m/h.</desc>
<speed>0.010000</speed>
</trkpt>
<trkpt lat="22.207804" lon="104.411110">
<ele>391.090088</ele>
<time>2011-04-27T10:34:01Z</time>
<desc>lat.=22.207804, lon.=104.411110, Alt.=391.090088m. Speed=0.072000m/h.</desc>
<speed>0.020000</speed>
</trkpt>
<trkpt lat="22.207804" lon="104.411110">
<ele>391.074463</ele>
<time>2011-04-27T10:34:06Z</time>
<desc>lat.=22.207804, lon.=104.411110, Alt.=391.074463m. Speed=0.108000m/h.</desc>
<speed>0.030000</speed>
</trkpt>
<trkpt lat="22.207808" lon="104.411118">
<ele>391.051025</ele>
<time>2011-04-27T10:34:11Z</time>
<desc>lat.=22.207808, lon.=104.411118, Alt.=391.051025m. Speed=2.052000m/h.</desc>
<speed>0.570000</speed>
</trkpt>
<trkpt lat="22.207888" lon="104.411133">
<ele>390.121338</ele>
<time>2011-04-27T10:34:16Z</time>
<desc>lat.=22.207888, lon.=104.411133, Alt.=390.121338m. Speed=5.508000m/h.</desc>
<speed>1.530000</speed>
</trkpt>
<trkpt lat="22.207962" lon="104.411133">
<ele>388.941650</ele>
<time>2011-04-27T10:34:21Z</time>
<desc>lat.=22.207962, lon.=104.411133, Alt.=388.941650m. Speed=4.860000m/h.</desc>
<speed>1.350000</speed>
</trkpt>
<trkpt lat="22.208038" lon="104.411087">
<ele>387.426025</ele>
<time>2011-04-27T10:34:26Z</time>
<desc>lat.=22.208038, lon.=104.411087, Alt.=387.426025m. Speed=5.544000m/h.</desc>
<speed>1.540000</speed>
</trkpt>
<trkpt lat="22.208103" lon="104.411041">
<ele>385.840088</ele>
<time>2011-04-27T10:34:31Z</time>
<desc>lat.=22.208103, lon.=104.411041, Alt.=385.840088m. Speed=4.320000m/h.</desc>
<speed>1.200000</speed>
</trkpt>
<trkpt lat="22.208160" lon="104.410995">
<ele>384.051025</ele>
<time>2011-04-27T10:34:36Z</time>
<desc>lat.=22.208160, lon.=104.410995, Alt.=384.051025m. Speed=3.456000m/h.</desc>
<speed>0.960000</speed>
</trkpt>
<trkpt lat="22.208220" lon="104.410950">
<ele>382.769775</ele>
<time>2011-04-27T10:34:41Z</time>
<desc>lat.=22.208220, lon.=104.410950, Alt.=382.769775m. Speed=4.572000m/h.</desc>
<speed>1.270000</speed>
</trkpt>
<trkpt lat="22.208279" lon="104.410927">
<ele>381.808838</ele>
<time>2011-04-27T10:34:46Z</time>
<desc>lat.=22.208279, lon.=104.410927, Alt.=381.808838m. Speed=4.536000m/h.</desc>
<speed>1.260000</speed>
</trkpt>
<trkpt lat="22.208334" lon="104.410889">
<ele>380.105713</ele>
<time>2011-04-27T10:34:51Z</time>
<desc>lat.=22.208334, lon.=104.410889, Alt.=380.105713m. Speed=4.536000m/h.</desc>
<speed>1.260000</speed>
</trkpt>
<trkpt lat="22.208401" lon="104.410851">
<ele>379.379150</ele>
<time>2011-04-27T10:34:56Z</time>
<desc>lat.=22.208401, lon.=104.410851, Alt.=379.379150m. Speed=5.040000m/h.</desc>
<speed>1.400000</speed>
</trkpt>
<trkpt lat="22.208467" lon="104.410820">
<ele>377.871338</ele>
<time>2011-04-27T10:35:01Z</time>
<desc>lat.=22.208467, lon.=104.410820, Alt.=377.871338m. Speed=5.076000m/h.</desc>
<speed>1.410000</speed>
</trkpt>
<trkpt lat="22.208538" lon="104.410797">
<ele>377.066650</ele>
<time>2011-04-27T10:35:06Z</time>
<desc>lat.=22.208538, lon.=104.410797, Alt.=377.066650m. Speed=6.264000m/h.</desc>
<speed>1.740000</speed>
</trkpt>
<trkpt lat="22.208607" lon="104.410782">
<ele>376.355713</ele>
<time>2011-04-27T10:35:11Z</time>
<desc>lat.=22.208607, lon.=104.410782, Alt.=376.355713m. Speed=4.932000m/h.</desc>
<speed>1.370000</speed>
</trkpt>
<trkpt lat="22.208670" lon="104.410744">
<ele>373.605713</ele>
<time>2011-04-27T10:35:16Z</time>
<desc>lat.=22.208670, lon.=104.410744, Alt.=373.605713m. Speed=6.012000m/h.</desc>
<speed>1.670000</speed>
</trkpt>
<trkpt lat="22.208736" lon="104.410721">
<ele>373.449463</ele>
<time>2011-04-27T10:35:21Z</time>
<desc>lat.=22.208736, lon.=104.410721, Alt.=373.449463m. Speed=6.732000m/h.</desc>
<speed>1.870000</speed>
</trkpt>
<trkpt lat="22.208801" lon="104.410683">
<ele>373.066650</ele>
<time>2011-04-27T10:35:26Z</time>
<desc>lat.=22.208801, lon.=104.410683, Alt.=373.066650m. Speed=6.480000m/h.</desc>
<speed>1.800000</speed>
</trkpt>
<trkpt lat="22.208874" lon="104.410660">
<ele>372.660400</ele>
<time>2011-04-27T10:35:31Z</time>
<desc>lat.=22.208874, lon.=104.410660, Alt.=372.660400m. Speed=5.940000m/h.</desc>
<speed>1.650000</speed>
</trkpt>
<trkpt lat="22.208952" lon="104.410614">
<ele>372.277588</ele>
<time>2011-04-27T10:35:36Z</time>
<desc>lat.=22.208952, lon.=104.410614, Alt.=372.277588m. Speed=6.696000m/h.</desc>
<speed>1.860000</speed>
</trkpt>
<trkpt lat="22.209045" lon="104.410591">
<ele>372.051025</ele>
<time>2011-04-27T10:35:41Z</time>
<desc>lat.=22.209045, lon.=104.410591, Alt.=372.051025m. Speed=6.408000m/h.</desc>
<speed>1.780000</speed>
</trkpt>
<trkpt lat="22.209120" lon="104.410568">
<ele>372.840088</ele>
<time>2011-04-27T10:35:46Z</time>
<desc>lat.=22.209120, lon.=104.410568, Alt.=372.840088m. Speed=5.580000m/h.</desc>
<speed>1.550000</speed>
</trkpt>
<trkpt lat="22.209179" lon="104.410545">
<ele>379.027588</ele>
<time>2011-04-27T10:35:51Z</time>
<desc>lat.=22.209179, lon.=104.410545, Alt.=379.027588m. Speed=5.868000m/h.</desc>
<speed>1.630000</speed>
</trkpt>
<trkpt lat="22.209244" lon="104.410576">
<ele>381.457275</ele>
<time>2011-04-27T10:35:56Z</time>
<desc>lat.=22.209244, lon.=104.410576, Alt.=381.457275m. Speed=6.012000m/h.</desc>
<speed>1.670000</speed>
</trkpt>
<trkpt lat="22.209293" lon="104.410622">
<ele>385.535400</ele>
<time>2011-04-27T10:36:01Z</time>
<desc>lat.=22.209293, lon.=104.410622, Alt.=385.535400m. Speed=5.796000m/h.</desc>
<speed>1.610000</speed>
</trkpt>
<trkpt lat="22.209360" lon="104.410667">
<ele>386.886963</ele>
<time>2011-04-27T10:36:06Z</time>
<desc>lat.=22.209360, lon.=104.410667, Alt.=386.886963m. Speed=4.212000m/h.</desc>
<speed>1.170000</speed>
</trkpt>
<trkpt lat="22.209414" lon="104.410713">
<ele>388.636963</ele>
<time>2011-04-27T10:36:11Z</time>
<desc>lat.=22.209414, lon.=104.410713, Alt.=388.636963m. Speed=1.980000m/h.</desc>
<speed>0.550000</speed>
</trkpt>
<trkpt lat="22.209427" lon="104.410728">
<ele>389.199463</ele>
<time>2011-04-27T10:36:16Z</time>
<desc>lat.=22.209427, lon.=104.410728, Alt.=389.199463m. Speed=0.576000m/h.</desc>
<speed>0.160000</speed>
</trkpt>
<trkpt lat="22.209427" lon="104.410728">
<ele>389.363525</ele>
<time>2011-04-27T10:36:21Z</time>
<desc>lat.=22.209427, lon.=104.410728, Alt.=389.363525m. Speed=0.216000m/h.</desc>
<speed>0.060000</speed>
</trkpt>
<trkpt lat="22.209448" lon="104.410713">
<ele>390.316650</ele>
<time>2011-04-27T10:36:26Z</time>
<desc>lat.=22.209448, lon.=104.410713, Alt.=390.316650m. Speed=3.492000m/h.</desc>
<speed>0.970000</speed>
</trkpt>
<trkpt lat="22.209528" lon="104.410736">
<ele>392.113525</ele>
<time>2011-04-27T10:36:31Z</time>
<desc>lat.=22.209528, lon.=104.410736, Alt.=392.113525m. Speed=6.984000m/h.</desc>
<speed>1.940000</speed>
</trkpt>
<trkpt lat="22.209631" lon="104.410759">
<ele>394.746338</ele>
<time>2011-04-27T10:36:36Z</time>
<desc>lat.=22.209631, lon.=104.410759, Alt.=394.746338m. Speed=8.172000m/h.</desc>
<speed>2.270000</speed>
</trkpt>
<trkpt lat="22.209711" lon="104.410789">
<ele>399.238525</ele>
<time>2011-04-27T10:36:41Z</time>
<desc>lat.=22.209711, lon.=104.410789, Alt.=399.238525m. Speed=6.048000m/h.</desc>
<speed>1.680000</speed>
</trkpt>
<trkpt lat="22.209782" lon="104.410828">
<ele>400.832275</ele>
<time>2011-04-27T10:36:46Z</time>
<desc>lat.=22.209782, lon.=104.410828, Alt.=400.832275m. Speed=6.516000m/h.</desc>
<speed>1.810000</speed>
</trkpt>
<trkpt lat="22.209848" lon="104.410904">
<ele>402.472900</ele>
<time>2011-04-27T10:36:51Z</time>
<desc>lat.=22.209848, lon.=104.410904, Alt.=402.472900m. Speed=7.236000m/h.</desc>
<speed>2.010000</speed>
</trkpt>
<trkpt lat="22.209908" lon="104.410973">
<ele>403.816650</ele>
<time>2011-04-27T10:36:56Z</time>
<desc>lat.=22.209908, lon.=104.410973, Alt.=403.816650m. Speed=7.560000m/h.</desc>
<speed>2.100000</speed>
</trkpt>
<trkpt lat="22.209970" lon="104.411049">
<ele>403.238525</ele>
<time>2011-04-27T10:37:01Z</time>
<desc>lat.=22.209970, lon.=104.411049, Alt.=403.238525m. Speed=7.236000m/h.</desc>
<speed>2.010000</speed>
</trkpt>
<trkpt lat="22.209991" lon="104.411140">
<ele>400.980713</ele>
<time>2011-04-27T10:37:06Z</time>
<desc>lat.=22.209991, lon.=104.411140, Alt.=400.980713m. Speed=7.056000m/h.</desc>
<speed>1.960000</speed>
</trkpt>
<trkpt lat="22.209974" lon="104.411232">
<ele>399.754150</ele>
<time>2011-04-27T10:37:11Z</time>
<desc>lat.=22.209974, lon.=104.411232, Alt.=399.754150m. Speed=7.920000m/h.</desc>
<speed>2.200000</speed>
</trkpt>
<trkpt lat="22.209927" lon="104.411324">
<ele>401.597900</ele>
<time>2011-04-27T10:37:16Z</time>
<desc>lat.=22.209927, lon.=104.411324, Alt.=401.597900m. Speed=6.696000m/h.</desc>
<speed>1.860000</speed>
</trkpt>
<trkpt lat="22.209875" lon="104.411392">
<ele>401.543213</ele>
<time>2011-04-27T10:37:21Z</time>
<desc>lat.=22.209875, lon.=104.411392, Alt.=401.543213m. Speed=6.192000m/h.</desc>
<speed>1.720000</speed>
</trkpt>
<trkpt lat="22.209827" lon="104.411491">
<ele>401.754150</ele>
<time>2011-04-27T10:37:26Z</time>
<desc>lat.=22.209827, lon.=104.411491, Alt.=401.754150m. Speed=6.948000m/h.</desc>
<speed>1.930000</speed>
</trkpt>
<trkpt lat="22.209787" lon="104.411575">
<ele>401.785400</ele>
<time>2011-04-27T10:37:31Z</time>
<desc>lat.=22.209787, lon.=104.411575, Alt.=401.785400m. Speed=6.444000m/h.</desc>
<speed>1.790000</speed>
</trkpt>
<trkpt lat="22.209745" lon="104.411659">
<ele>401.730713</ele>
<time>2011-04-27T10:37:36Z</time>
<desc>lat.=22.209745, lon.=104.411659, Alt.=401.730713m. Speed=6.984000m/h.</desc>
<speed>1.940000</speed>
</trkpt>
<trkpt lat="22.209713" lon="104.411736">
<ele>401.785400</ele>
<time>2011-04-27T10:37:41Z</time>
<desc>lat.=22.209713, lon.=104.411736, Alt.=401.785400m. Speed=6.372000m/h.</desc>
<speed>1.770000</speed>
</trkpt>
<trkpt lat="22.209694" lon="104.411819">
<ele>402.746338</ele>
<time>2011-04-27T10:37:46Z</time>
<desc>lat.=22.209694, lon.=104.411819, Alt.=402.746338m. Speed=4.752000m/h.</desc>
<speed>1.320000</speed>
</trkpt>
<trkpt lat="22.209696" lon="104.411919">
<ele>403.129150</ele>
<time>2011-04-27T10:37:51Z</time>
<desc>lat.=22.209696, lon.=104.411919, Alt.=403.129150m. Speed=7.092000m/h.</desc>
<speed>1.970000</speed>
</trkpt>
<trkpt lat="22.209751" lon="104.411995">
<ele>403.980713</ele>
<time>2011-04-27T10:37:56Z</time>
<desc>lat.=22.209751, lon.=104.411995, Alt.=403.980713m. Speed=7.632000m/h.</desc>
<speed>2.120000</speed>
</trkpt>
<trkpt lat="22.209835" lon="104.412018">
<ele>404.363525</ele>
<time>2011-04-27T10:38:01Z</time>
<desc>lat.=22.209835, lon.=104.412018, Alt.=404.363525m. Speed=5.724000m/h.</desc>
<speed>1.590000</speed>
</trkpt>
<trkpt lat="22.209909" lon="104.412041">
<ele>405.105713</ele>
<time>2011-04-27T10:38:06Z</time>
<desc>lat.=22.209909, lon.=104.412041, Alt.=405.105713m. Speed=5.904000m/h.</desc>
<speed>1.640000</speed>
</trkpt>
<trkpt lat="22.209982" lon="104.412079">
<ele>406.254150</ele>
<time>2011-04-27T10:38:11Z</time>
<desc>lat.=22.209982, lon.=104.412079, Alt.=406.254150m. Speed=5.040000m/h.</desc>
<speed>1.400000</speed>
</trkpt>
<trkpt lat="22.210045" lon="104.412140">
<ele>407.136963</ele>
<time>2011-04-27T10:38:16Z</time>
<desc>lat.=22.210045, lon.=104.412140, Alt.=407.136963m. Speed=6.408000m/h.</desc>
<speed>1.780000</speed>
</trkpt>
<trkpt lat="22.210073" lon="104.412224">
<ele>407.652588</ele>
<time>2011-04-27T10:38:21Z</time>
<desc>lat.=22.210073, lon.=104.412224, Alt.=407.652588m. Speed=5.508000m/h.</desc>
<speed>1.530000</speed>
</trkpt>
<trkpt lat="22.210087" lon="104.412308">
<ele>409.222900</ele>
<time>2011-04-27T10:38:26Z</time>
<desc>lat.=22.210087, lon.=104.412308, Alt.=409.222900m. Speed=6.732000m/h.</desc>
<speed>1.870000</speed>
</trkpt>
<trkpt lat="22.210075" lon="104.412399">
<ele>409.699463</ele>
<time>2011-04-27T10:38:31Z</time>
<desc>lat.=22.210075, lon.=104.412399, Alt.=409.699463m. Speed=5.724000m/h.</desc>
<speed>1.590000</speed>
</trkpt>
<trkpt lat="22.210052" lon="104.412491">
<ele>410.386963</ele>
<time>2011-04-27T10:38:36Z</time>
<desc>lat.=22.210052, lon.=104.412491, Alt.=410.386963m. Speed=5.724000m/h.</desc>
<speed>1.590000</speed>
</trkpt>
<trkpt lat="22.209993" lon="104.412514">
<ele>411.051025</ele>
<time>2011-04-27T10:38:41Z</time>
<desc>lat.=22.209993, lon.=104.412514, Alt.=411.051025m. Speed=5.292000m/h.</desc>
<speed>1.470000</speed>
</trkpt>
<trkpt lat="22.209919" lon="104.412567">
<ele>412.816650</ele>
<time>2011-04-27T10:38:46Z</time>
<desc>lat.=22.209919, lon.=104.412567, Alt.=412.816650m. Speed=7.092000m/h.</desc>
<speed>1.970000</speed>
</trkpt>
<trkpt lat="22.209885" lon="104.412575">
<ele>412.832275</ele>
<time>2011-04-27T10:38:51Z</time>
<desc>lat.=22.209885, lon.=104.412575, Alt.=412.832275m. Speed=2.520000m/h.</desc>
<speed>0.700000</speed>
</trkpt>
<trkpt lat="22.209791" lon="104.412621">
<ele>414.144775</ele>
<time>2011-04-27T10:38:56Z</time>
<desc>lat.=22.209791, lon.=104.412621, Alt.=414.144775m. Speed=6.372000m/h.</desc>
<speed>1.770000</speed>
</trkpt>
<trkpt lat="22.209711" lon="104.412682">
<ele>415.660400</ele>
<time>2011-04-27T10:39:01Z</time>
<desc>lat.=22.209711, lon.=104.412682, Alt.=415.660400m. Speed=3.384000m/h.</desc>
<speed>0.940000</speed>
</trkpt>
<trkpt lat="22.209700" lon="104.412704">
<ele>415.965088</ele>
<time>2011-04-27T10:39:06Z</time>
<desc>lat.=22.209700, lon.=104.412704, Alt.=415.965088m. Speed=0.180000m/h.</desc>
<speed>0.050000</speed>
</trkpt>
<trkpt lat="22.209700" lon="104.412697">
<ele>416.011963</ele>
<time>2011-04-27T10:39:11Z</time>
<desc>lat.=22.209700, lon.=104.412697, Alt.=416.011963m. Speed=0.144000m/h.</desc>
<speed>0.040000</speed>
</trkpt>
<trkpt lat="22.209700" lon="104.412697">
<ele>416.019775</ele>
<time>2011-04-27T10:39:16Z</time>
<desc>lat.=22.209700, lon.=104.412697, Alt.=416.019775m. Speed=0.504000m/h.</desc>
<speed>0.140000</speed>
</trkpt>
<trkpt lat="22.209698" lon="104.412704">
<ele>416.004150</ele>
<time>2011-04-27T10:39:21Z</time>
<desc>lat.=22.209698, lon.=104.412704, Alt.=416.004150m. Speed=0.072000m/h.</desc>
<speed>0.020000</speed>
</trkpt>
<trkpt lat="22.209698" lon="104.412704">
<ele>415.972900</ele>
<time>2011-04-27T10:39:26Z</time>
<desc>lat.=22.209698, lon.=104.412704, Alt.=415.972900m. Speed=0.036000m/h.</desc>
<speed>0.010000</speed>
</trkpt>
<trkpt lat="22.209698" lon="104.412704">
<ele>415.918213</ele>
<time>2011-04-27T10:39:31Z</time>
<desc>lat.=22.209698, lon.=104.412704, Alt.=415.918213m. Speed=0.036000m/h.</desc>
<speed>0.010000</speed>
</trkpt>
<trkpt lat="22.209698" lon="104.412704">
<ele>415.894775</ele>
<time>2011-04-27T10:39:36Z</time>
<desc>lat.=22.209698, lon.=104.412704, Alt.=415.894775m. Speed=0.072000m/h.</desc>
<speed>0.020000</speed>
</trkpt>
<trkpt lat="22.209698" lon="104.412704">
<ele>415.886963</ele>
<time>2011-04-27T10:39:41Z</time>
<desc>lat.=22.209698, lon.=104.412704, Alt.=415.886963m. Speed=0.036000m/h.</desc>
<speed>0.010000</speed>
</trkpt>
<trkpt lat="22.209698" lon="104.412704">
<ele>415.871338</ele>
<time>2011-04-27T10:39:46Z</time>
<desc>lat.=22.209698, lon.=104.412704, Alt.=415.871338m. Speed=0.000000m/h.</desc>
<speed>0.000000</speed>
</trkpt>
<trkpt lat="22.209698" lon="104.412704">
<ele>415.886963</ele>
<time>2011-04-27T10:39:51Z</time>
<desc>lat.=22.209698, lon.=104.412704, Alt.=415.886963m. Speed=0.000000m/h.</desc>
<speed>0.000000</speed>
</trkpt>
<trkpt lat="22.209696" lon="104.412704">
<ele>415.847900</ele>
<time>2011-04-27T10:39:56Z</time>
<desc>lat.=22.209696, lon.=104.412704, Alt.=415.847900m. Speed=0.216000m/h.</desc>
<speed>0.060000</speed>
</trkpt>
<trkpt lat="22.209698" lon="104.412704">
<ele>415.801025</ele>
<time>2011-04-27T10:40:01Z</time>
<desc>lat.=22.209698, lon.=104.412704, Alt.=415.801025m. Speed=0.000000m/h.</desc>
<speed>0.000000</speed>
</trkpt>
<trkpt lat="22.209694" lon="104.412704">
<ele>415.816650</ele>
<time>2011-04-27T10:40:06Z</time>
<desc>lat.=22.209694, lon.=104.412704, Alt.=415.816650m. Speed=3.348000m/h.</desc>
<speed>0.930000</speed>
</trkpt>
<trkpt lat="22.209675" lon="104.412811">
<ele>416.590088</ele>
<time>2011-04-27T10:40:11Z</time>
<desc>lat.=22.209675, lon.=104.412811, Alt.=416.590088m. Speed=4.320000m/h.</desc>
<speed>1.200000</speed>
</trkpt>
<trkpt lat="22.209719" lon="104.412872">
<ele>417.183838</ele>
<time>2011-04-27T10:40:16Z</time>
<desc>lat.=22.209719, lon.=104.412872, Alt.=417.183838m. Speed=5.796000m/h.</desc>
<speed>1.610000</speed>
</trkpt>
<trkpt lat="22.209795" lon="104.412918">
<ele>417.433838</ele>
<time>2011-04-27T10:40:21Z</time>
<desc>lat.=22.209795, lon.=104.412918, Alt.=417.433838m. Speed=4.932000m/h.</desc>
<speed>1.370000</speed>
</trkpt>
<trkpt lat="22.209858" lon="104.412971">
<ele>417.918213</ele>
<time>2011-04-27T10:40:26Z</time>
<desc>lat.=22.209858, lon.=104.412971, Alt.=417.918213m. Speed=5.400000m/h.</desc>
<speed>1.500000</speed>
</trkpt>
<trkpt lat="22.209929" lon="104.413025">
<ele>418.621338</ele>
<time>2011-04-27T10:40:31Z</time>
<desc>lat.=22.209929, lon.=104.413025, Alt.=418.621338m. Speed=5.040000m/h.</desc>
<speed>1.400000</speed>
</trkpt>
<trkpt lat="22.209991" lon="104.413086">
<ele>419.449463</ele>
<time>2011-04-27T10:40:36Z</time>
<desc>lat.=22.209991, lon.=104.413086, Alt.=419.449463m. Speed=6.840000m/h.</desc>
<speed>1.900000</speed>
</trkpt>
<trkpt lat="22.210066" lon="104.413155">
<ele>420.543213</ele>
<time>2011-04-27T10:40:41Z</time>
<desc>lat.=22.210066, lon.=104.413155, Alt.=420.543213m. Speed=6.336000m/h.</desc>
<speed>1.760000</speed>
</trkpt>
<trkpt lat="22.210110" lon="104.413223">
<ele>422.090088</ele>
<time>2011-04-27T10:40:46Z</time>
<desc>lat.=22.210110, lon.=104.413223, Alt.=422.090088m. Speed=7.092000m/h.</desc>
<speed>1.970000</speed>
</trkpt>
<trkpt lat="22.210148" lon="104.413292">
<ele>423.660400</ele>
<time>2011-04-27T10:40:51Z</time>
<desc>lat.=22.210148, lon.=104.413292, Alt.=423.660400m. Speed=5.904000m/h.</desc>
<speed>1.640000</speed>
</trkpt>
<trkpt lat="22.210178" lon="104.413353">
<ele>424.926025</ele>
<time>2011-04-27T10:40:56Z</time>
<desc>lat.=22.210178, lon.=104.413353, Alt.=424.926025m. Speed=4.788000m/h.</desc>
<speed>1.330000</speed>
</trkpt>
<trkpt lat="22.210199" lon="104.413422">
<ele>427.840088</ele>
<time>2011-04-27T10:41:01Z</time>
<desc>lat.=22.210199, lon.=104.413422, Alt.=427.840088m. Speed=4.140000m/h.</desc>
<speed>1.150000</speed>
</trkpt>
<trkpt lat="22.210211" lon="104.413498">
<ele>429.629150</ele>
<time>2011-04-27T10:41:06Z</time>
<desc>lat.=22.210211, lon.=104.413498, Alt.=429.629150m. Speed=5.652000m/h.</desc>
<speed>1.570000</speed>
</trkpt>
<trkpt lat="22.210222" lon="104.413574">
<ele>430.504150</ele>
<time>2011-04-27T10:41:11Z</time>
<desc>lat.=22.210222, lon.=104.413574, Alt.=430.504150m. Speed=5.184000m/h.</desc>
<speed>1.440000</speed>
</trkpt>
<trkpt lat="22.210218" lon="104.413658">
<ele>430.519775</ele>
<time>2011-04-27T10:41:16Z</time>
<desc>lat.=22.210218, lon.=104.413658, Alt.=430.519775m. Speed=2.376000m/h.</desc>
<speed>0.660000</speed>
</trkpt>
<trkpt lat="22.210190" lon="104.413719">
<ele>431.066650</ele>
<time>2011-04-27T10:41:21Z</time>
<desc>lat.=22.210190, lon.=104.413719, Alt.=431.066650m. Speed=4.032000m/h.</desc>
<speed>1.120000</speed>
</trkpt>
<trkpt lat="22.210169" lon="104.413803">
<ele>432.504150</ele>
<time>2011-04-27T10:41:26Z</time>
<desc>lat.=22.210169, lon.=104.413803, Alt.=432.504150m. Speed=5.760000m/h.</desc>
<speed>1.600000</speed>
</trkpt>
<trkpt lat="22.210152" lon="104.413887">
<ele>432.926025</ele>
<time>2011-04-27T10:41:31Z</time>
<desc>lat.=22.210152, lon.=104.413887, Alt.=432.926025m. Speed=5.544000m/h.</desc>
<speed>1.540000</speed>
</trkpt>
<trkpt lat="22.210161" lon="104.413971">
<ele>433.941650</ele>
<time>2011-04-27T10:41:36Z</time>
<desc>lat.=22.210161, lon.=104.413971, Alt.=433.941650m. Speed=7.812000m/h.</desc>
<speed>2.170000</speed>
</trkpt>
<trkpt lat="22.210236" lon="104.414009">
<ele>435.644775</ele>
<time>2011-04-27T10:41:41Z</time>
<desc>lat.=22.210236, lon.=104.414009, Alt.=435.644775m. Speed=5.256000m/h.</desc>
<speed>1.460000</speed>
</trkpt>
<trkpt lat="22.210316" lon="104.414017">
<ele>438.285400</ele>
<time>2011-04-27T10:41:46Z</time>
<desc>lat.=22.210316, lon.=104.414017, Alt.=438.285400m. Speed=6.192000m/h.</desc>
<speed>1.720000</speed>
</trkpt>
<trkpt lat="22.210405" lon="104.414017">
<ele>440.730713</ele>
<time>2011-04-27T10:41:51Z</time>
<desc>lat.=22.210405, lon.=104.414017, Alt.=440.730713m. Speed=5.832000m/h.</desc>
<speed>1.620000</speed>
</trkpt>
<trkpt lat="22.210501" lon="104.413986">
<ele>441.324463</ele>
<time>2011-04-27T10:41:56Z</time>
<desc>lat.=22.210501, lon.=104.413986, Alt.=441.324463m. Speed=6.984000m/h.</desc>
<speed>1.940000</speed>
</trkpt>
<trkpt lat="22.210594" lon="104.413963">
<ele>441.488525</ele>
<time>2011-04-27T10:42:01Z</time>
<desc>lat.=22.210594, lon.=104.413963, Alt.=441.488525m. Speed=5.436000m/h.</desc>
<speed>1.510000</speed>
</trkpt>
<trkpt lat="22.210661" lon="104.413948">
<ele>443.683838</ele>
<time>2011-04-27T10:42:06Z</time>
<desc>lat.=22.210661, lon.=104.413948, Alt.=443.683838m. Speed=6.372000m/h.</desc>
<speed>1.770000</speed>
</trkpt>
<trkpt lat="22.210730" lon="104.413895">
<ele>445.308838</ele>
<time>2011-04-27T10:42:11Z</time>
<desc>lat.=22.210730, lon.=104.413895, Alt.=445.308838m. Speed=6.480000m/h.</desc>
<speed>1.800000</speed>
</trkpt>
<trkpt lat="22.210789" lon="104.413872">
<ele>446.465088</ele>
<time>2011-04-27T10:42:16Z</time>
<desc>lat.=22.210789, lon.=104.413872, Alt.=446.465088m. Speed=6.552000m/h.</desc>
<speed>1.820000</speed>
</trkpt>
<trkpt lat="22.210871" lon="104.413818">
<ele>447.191650</ele>
<time>2011-04-27T10:42:21Z</time>
<desc>lat.=22.210871, lon.=104.413818, Alt.=447.191650m. Speed=6.660000m/h.</desc>
<speed>1.850000</speed>
</trkpt>
<trkpt lat="22.210945" lon="104.413773">
<ele>447.847900</ele>
<time>2011-04-27T10:42:26Z</time>
<desc>lat.=22.210945, lon.=104.413773, Alt.=447.847900m. Speed=7.812000m/h.</desc>
<speed>2.170000</speed>
</trkpt>
<trkpt lat="22.211023" lon="104.413734">
<ele>448.933838</ele>
<time>2011-04-27T10:42:31Z</time>
<desc>lat.=22.211023, lon.=104.413734, Alt.=448.933838m. Speed=5.508000m/h.</desc>
<speed>1.530000</speed>
</trkpt>
<trkpt lat="22.211035" lon="104.413689">
<ele>448.808838</ele>
<time>2011-04-27T10:42:36Z</time>
<desc>lat.=22.211035, lon.=104.413689, Alt.=448.808838m. Speed=0.252000m/h.</desc>
<speed>0.070000</speed>
</trkpt>
<trkpt lat="22.211042" lon="104.413681">
<ele>448.574463</ele>
<time>2011-04-27T10:42:41Z</time>
<desc>lat.=22.211042, lon.=104.413681, Alt.=448.574463m. Speed=0.036000m/h.</desc>
<speed>0.010000</speed>
</trkpt>
<trkpt lat="22.211042" lon="104.413681">
<ele>448.433838</ele>
<time>2011-04-27T10:42:46Z</time>
<desc>lat.=22.211042, lon.=104.413681, Alt.=448.433838m. Speed=0.144000m/h.</desc>
<speed>0.040000</speed>
</trkpt>
<trkpt lat="22.211048" lon="104.413681">
<ele>448.347900</ele>
<time>2011-04-27T10:42:51Z</time>
<desc>lat.=22.211048, lon.=104.413681, Alt.=448.347900m. Speed=2.016000m/h.</desc>
<speed>0.560000</speed>
</trkpt>
<trkpt lat="22.211102" lon="104.413696">
<ele>448.176025</ele>
<time>2011-04-27T10:42:56Z</time>
<desc>lat.=22.211102, lon.=104.413696, Alt.=448.176025m. Speed=4.860000m/h.</desc>
<speed>1.350000</speed>
</trkpt>
<trkpt lat="22.211185" lon="104.413704">
<ele>448.355713</ele>
<time>2011-04-27T10:43:01Z</time>
<desc>lat.=22.211185, lon.=104.413704, Alt.=448.355713m. Speed=6.516000m/h.</desc>
<speed>1.810000</speed>
</trkpt>
<trkpt lat="22.211269" lon="104.413727">
<ele>448.918213</ele>
<time>2011-04-27T10:43:06Z</time>
<desc>lat.=22.211269, lon.=104.413727, Alt.=448.918213m. Speed=6.120000m/h.</desc>
<speed>1.700000</speed>
</trkpt>
<trkpt lat="22.211313" lon="104.413795">
<ele>448.066650</ele>
<time>2011-04-27T10:43:11Z</time>
<desc>lat.=22.211313, lon.=104.413795, Alt.=448.066650m. Speed=5.652000m/h.</desc>
<speed>1.570000</speed>
</trkpt>
<trkpt lat="22.211355" lon="104.413849">
<ele>447.824463</ele>
<time>2011-04-27T10:43:16Z</time>
<desc>lat.=22.211355, lon.=104.413849, Alt.=447.824463m. Speed=5.400000m/h.</desc>
<speed>1.500000</speed>
</trkpt>
<trkpt lat="22.211380" lon="104.413933">
<ele>448.418213</ele>
<time>2011-04-27T10:43:21Z</time>
<desc>lat.=22.211380, lon.=104.413933, Alt.=448.418213m. Speed=5.688000m/h.</desc>
<speed>1.580000</speed>
</trkpt>
<trkpt lat="22.211403" lon="104.414032">
<ele>448.535400</ele>
<time>2011-04-27T10:43:26Z</time>
<desc>lat.=22.211403, lon.=104.414032, Alt.=448.535400m. Speed=7.128000m/h.</desc>
<speed>1.980000</speed>
</trkpt>
<trkpt lat="22.211433" lon="104.414108">
<ele>448.933838</ele>
<time>2011-04-27T10:43:31Z</time>
<desc>lat.=22.211433, lon.=104.414108, Alt.=448.933838m. Speed=4.788000m/h.</desc>
<speed>1.330000</speed>
</trkpt>
<trkpt lat="22.211466" lon="104.414185">
<ele>449.660400</ele>
<time>2011-04-27T10:43:36Z</time>
<desc>lat.=22.211466, lon.=104.414185, Alt.=449.660400m. Speed=6.048000m/h.</desc>
<speed>1.680000</speed>
</trkpt>
<trkpt lat="22.211489" lon="104.414268">
<ele>450.230713</ele>
<time>2011-04-27T10:43:41Z</time>
<desc>lat.=22.211489, lon.=104.414268, Alt.=450.230713m. Speed=5.796000m/h.</desc>
<speed>1.610000</speed>
</trkpt>
<trkpt lat="22.211540" lon="104.414352">
<ele>451.371338</ele>
<time>2011-04-27T10:43:46Z</time>
<desc>lat.=22.211540, lon.=104.414352, Alt.=451.371338m. Speed=6.336000m/h.</desc>
<speed>1.760000</speed>
</trkpt>
<trkpt lat="22.211597" lon="104.414436">
<ele>452.019775</ele>
<time>2011-04-27T10:43:51Z</time>
<desc>lat.=22.211597, lon.=104.414436, Alt.=452.019775m. Speed=8.280000m/h.</desc>
<speed>2.300000</speed>
</trkpt>
<trkpt lat="22.211647" lon="104.414513">
<ele>452.738525</ele>
<time>2011-04-27T10:43:56Z</time>
<desc>lat.=22.211647, lon.=104.414513, Alt.=452.738525m. Speed=8.424000m/h.</desc>
<speed>2.340000</speed>
</trkpt>
<trkpt lat="22.211718" lon="104.414581">
<ele>453.121338</ele>
<time>2011-04-27T10:44:01Z</time>
<desc>lat.=22.211718, lon.=104.414581, Alt.=453.121338m. Speed=6.984000m/h.</desc>
<speed>1.940000</speed>
</trkpt>
<trkpt lat="22.211798" lon="104.414627">
<ele>453.715088</ele>
<time>2011-04-27T10:44:06Z</time>
<desc>lat.=22.211798, lon.=104.414627, Alt.=453.715088m. Speed=7.308000m/h.</desc>
<speed>2.030000</speed>
</trkpt>
<trkpt lat="22.211878" lon="104.414665">
<ele>454.480713</ele>
<time>2011-04-27T10:44:11Z</time>
<desc>lat.=22.211878, lon.=104.414665, Alt.=454.480713m. Speed=7.020000m/h.</desc>
<speed>1.950000</speed>
</trkpt>
<trkpt lat="22.211966" lon="104.414711">
<ele>455.316650</ele>
<time>2011-04-27T10:44:16Z</time>
<desc>lat.=22.211966, lon.=104.414711, Alt.=455.316650m. Speed=8.604000m/h.</desc>
<speed>2.390000</speed>
</trkpt>
<trkpt lat="22.212048" lon="104.414764">
<ele>456.386963</ele>
<time>2011-04-27T10:44:21Z</time>
<desc>lat.=22.212048, lon.=104.414764, Alt.=456.386963m. Speed=7.956000m/h.</desc>
<speed>2.210000</speed>
</trkpt>
<trkpt lat="22.212135" lon="104.414856">
<ele>457.613525</ele>
<time>2011-04-27T10:44:26Z</time>
<desc>lat.=22.212135, lon.=104.414856, Alt.=457.613525m. Speed=9.576000m/h.</desc>
<speed>2.660000</speed>
</trkpt>
<trkpt lat="22.212206" lon="104.414932">
<ele>458.660400</ele>
<time>2011-04-27T10:44:31Z</time>
<desc>lat.=22.212206, lon.=104.414932, Alt.=458.660400m. Speed=9.252000m/h.</desc>
<speed>2.570000</speed>
</trkpt>
<trkpt lat="22.212273" lon="104.415039">
<ele>459.785400</ele>
<time>2011-04-27T10:44:36Z</time>
<desc>lat.=22.212273, lon.=104.415039, Alt.=459.785400m. Speed=8.028000m/h.</desc>
<speed>2.230000</speed>
</trkpt>
<trkpt lat="22.212315" lon="104.415123">
<ele>460.957275</ele>
<time>2011-04-27T10:44:41Z</time>
<desc>lat.=22.212315, lon.=104.415123, Alt.=460.957275m. Speed=6.912000m/h.</desc>
<speed>1.920000</speed>
</trkpt>
<trkpt lat="22.212347" lon="104.415184">
<ele>461.691650</ele>
<time>2011-04-27T10:44:46Z</time>
<desc>lat.=22.212347, lon.=104.415184, Alt.=461.691650m. Speed=3.132000m/h.</desc>
<speed>0.870000</speed>
</trkpt>
<trkpt lat="22.212353" lon="104.415176">
<ele>462.527588</ele>
<time>2011-04-27T10:44:51Z</time>
<desc>lat.=22.212353, lon.=104.415176, Alt.=462.527588m. Speed=1.620000m/h.</desc>
<speed>0.450000</speed>
</trkpt>
<trkpt lat="22.212368" lon="104.415253">
<ele>463.308838</ele>
<time>2011-04-27T10:44:56Z</time>
<desc>lat.=22.212368, lon.=104.415253, Alt.=463.308838m. Speed=8.640000m/h.</desc>
<speed>2.400000</speed>
</trkpt>
<trkpt lat="22.212381" lon="104.415344">
<ele>463.832275</ele>
<time>2011-04-27T10:45:01Z</time>
<desc>lat.=22.212381, lon.=104.415344, Alt.=463.832275m. Speed=7.164000m/h.</desc>
<speed>1.990000</speed>
</trkpt>
<trkpt lat="22.212378" lon="104.415474">
<ele>463.004150</ele>
<time>2011-04-27T10:45:06Z</time>
<desc>lat.=22.212378, lon.=104.415474, Alt.=463.004150m. Speed=6.156000m/h.</desc>
<speed>1.710000</speed>
</trkpt>
<trkpt lat="22.212383" lon="104.415543">
<ele>462.965088</ele>
<time>2011-04-27T10:45:11Z</time>
<desc>lat.=22.212383, lon.=104.415543, Alt.=462.965088m. Speed=3.852000m/h.</desc>
<speed>1.070000</speed>
</trkpt>
<trkpt lat="22.212383" lon="104.415550">
<ele>461.340088</ele>
<time>2011-04-27T10:45:16Z</time>
<desc>lat.=22.212383, lon.=104.415550, Alt.=461.340088m. Speed=0.180000m/h.</desc>
<speed>0.050000</speed>
</trkpt>
<trkpt lat="22.212379" lon="104.415550">
<ele>460.949463</ele>
<time>2011-04-27T10:45:21Z</time>
<desc>lat.=22.212379, lon.=104.415550, Alt.=460.949463m. Speed=0.756000m/h.</desc>
<speed>0.210000</speed>
</trkpt>
<trkpt lat="22.212376" lon="104.415543">
<ele>460.980713</ele>
<time>2011-04-27T10:45:26Z</time>
<desc>lat.=22.212376, lon.=104.415543, Alt.=460.980713m. Speed=1.260000m/h.</desc>
<speed>0.350000</speed>
</trkpt>
<trkpt lat="22.212374" lon="104.415535">
<ele>461.605713</ele>
<time>2011-04-27T10:45:31Z</time>
<desc>lat.=22.212374, lon.=104.415535, Alt.=461.605713m. Speed=0.000000m/h.</desc>
<speed>0.000000</speed>
</trkpt>
<trkpt lat="22.212374" lon="104.415535">
<ele>461.629150</ele>
<time>2011-04-27T10:45:36Z</time>
<desc>lat.=22.212374, lon.=104.415535, Alt.=461.629150m. Speed=0.072000m/h.</desc>
<speed>0.020000</speed>
</trkpt>
<trkpt lat="22.212376" lon="104.415535">
<ele>461.621338</ele>
<time>2011-04-27T10:45:41Z</time>
<desc>lat.=22.212376, lon.=104.415535, Alt.=461.621338m. Speed=0.648000m/h.</desc>
<speed>0.180000</speed>
</trkpt>
<trkpt lat="22.212376" lon="104.415535">
<ele>461.636963</ele>
<time>2011-04-27T10:45:46Z</time>
<desc>lat.=22.212376, lon.=104.415535, Alt.=461.636963m. Speed=0.180000m/h.</desc>
<speed>0.050000</speed>
</trkpt>
<trkpt lat="22.212372" lon="104.415535">
<ele>461.699463</ele>
<time>2011-04-27T10:45:51Z</time>
<desc>lat.=22.212372, lon.=104.415535, Alt.=461.699463m. Speed=0.000000m/h.</desc>
<speed>0.000000</speed>
</trkpt>
<trkpt lat="22.212372" lon="104.415535">
<ele>461.629150</ele>
<time>2011-04-27T10:45:56Z</time>
<desc>lat.=22.212372, lon.=104.415535, Alt.=461.629150m. Speed=0.000000m/h.</desc>
<speed>0.000000</speed>
</trkpt>
<trkpt lat="22.212372" lon="104.415535">
<ele>461.504150</ele>
<time>2011-04-27T10:46:01Z</time>
<desc>lat.=22.212372, lon.=104.415535, Alt.=461.504150m. Speed=0.000000m/h.</desc>
<speed>0.000000</speed>
</trkpt>
<trkpt lat="22.212372" lon="104.415535">
<ele>461.496338</ele>
<time>2011-04-27T10:46:06Z</time>
<desc>lat.=22.212372, lon.=104.415535, Alt.=461.496338m. Speed=0.036000m/h.</desc>
<speed>0.010000</speed>
</trkpt>
<trkpt lat="22.212372" lon="104.415535">
<ele>461.496338</ele>
<time>2011-04-27T10:46:11Z</time>
<desc>lat.=22.212372, lon.=104.415535, Alt.=461.496338m. Speed=0.036000m/h.</desc>
<speed>0.010000</speed>
</trkpt>
<trkpt lat="22.212372" lon="104.415535">
<ele>461.511963</ele>
<time>2011-04-27T10:46:16Z</time>
<desc>lat.=22.212372, lon.=104.415535, Alt.=461.511963m. Speed=0.000000m/h.</desc>
<speed>0.000000</speed>
</trkpt>
<trkpt lat="22.212374" lon="104.415535">
<ele>461.535400</ele>
<time>2011-04-27T10:46:21Z</time>
<desc>lat.=22.212374, lon.=104.415535, Alt.=461.535400m. Speed=0.072000m/h.</desc>
<speed>0.020000</speed>
</trkpt>
<trkpt lat="22.212374" lon="104.415535">
<ele>461.519775</ele>
<time>2011-04-27T10:46:26Z</time>
<desc>lat.=22.212374, lon.=104.415535, Alt.=461.519775m. Speed=0.000000m/h.</desc>
<speed>0.000000</speed>
</trkpt>
<trkpt lat="22.212374" lon="104.415535">
<ele>461.504150</ele>
<time>2011-04-27T10:46:31Z</time>
<desc>lat.=22.212374, lon.=104.415535, Alt.=461.504150m. Speed=0.036000m/h.</desc>
<speed>0.010000</speed>
</trkpt>
<trkpt lat="22.212374" lon="104.415535">
<ele>461.504150</ele>
<time>2011-04-27T10:46:36Z</time>
<desc>lat.=22.212374, lon.=104.415535, Alt.=461.504150m. Speed=0.000000m/h.</desc>
<speed>0.000000</speed>
</trkpt>
<trkpt lat="22.212374" lon="104.415535">
<ele>461.488525</ele>
<time>2011-04-27T10:46:41Z</time>
<desc>lat.=22.212374, lon.=104.415535, Alt.=461.488525m. Speed=0.036000m/h.</desc>
<speed>0.010000</speed>
</trkpt>
<trkpt lat="22.212374" lon="104.415535">
<ele>461.496338</ele>
<time>2011-04-27T10:46:46Z</time>
<desc>lat.=22.212374, lon.=104.415535, Alt.=461.496338m. Speed=0.000000m/h.</desc>
<speed>0.000000</speed>
</trkpt>
<trkpt lat="22.212374" lon="104.415535">
<ele>461.496338</ele>
<time>2011-04-27T10:46:51Z</time>
<desc>lat.=22.212374, lon.=104.415535, Alt.=461.496338m. Speed=0.000000m/h.</desc>
<speed>0.000000</speed>
</trkpt>
<trkpt lat="22.212374" lon="104.415535">
<ele>461.504150</ele>
<time>2011-04-27T10:46:56Z</time>
<desc>lat.=22.212374, lon.=104.415535, Alt.=461.504150m. Speed=0.036000m/h.</desc>
<speed>0.010000</speed>
</trkpt>
<trkpt lat="22.212374" lon="104.415535">
<ele>461.504150</ele>
<time>2011-04-27T10:47:01Z</time>
<desc>lat.=22.212374, lon.=104.415535, Alt.=461.504150m. Speed=0.000000m/h.</desc>
<speed>0.000000</speed>
</trkpt>
<trkpt lat="22.212374" lon="104.415535">
<ele>461.504150</ele>
<time>2011-04-27T10:47:06Z</time>
<desc>lat.=22.212374, lon.=104.415535, Alt.=461.504150m. Speed=0.000000m/h.</desc>
<speed>0.000000</speed>
</trkpt>
<trkpt lat="22.212374" lon="104.415535">
<ele>461.496338</ele>
<time>2011-04-27T10:47:11Z</time>
<desc>lat.=22.212374, lon.=104.415535, Alt.=461.496338m. Speed=0.000000m/h.</desc>
<speed>0.000000</speed>
</trkpt>
<trkpt lat="22.212374" lon="104.415543">
<ele>461.488525</ele>
<time>2011-04-27T10:47:16Z</time>
<desc>lat.=22.212374, lon.=104.415543, Alt.=461.488525m. Speed=0.036000m/h.</desc>
<speed>0.010000</speed>
</trkpt>
<trkpt lat="22.212374" lon="104.415535">
<ele>461.488525</ele>
<time>2011-04-27T10:47:21Z</time>
<desc>lat.=22.212374, lon.=104.415535, Alt.=461.488525m. Speed=0.036000m/h.</desc>
<speed>0.010000</speed>
</trkpt>
<trkpt lat="22.212374" lon="104.415535">
<ele>461.480713</ele>
<time>2011-04-27T10:47:26Z</time>
<desc>lat.=22.212374, lon.=104.415535, Alt.=461.480713m. Speed=0.000000m/h.</desc>
<speed>0.000000</speed>
</trkpt>
<trkpt lat="22.212374" lon="104.415535">
<ele>461.465088</ele>
<time>2011-04-27T10:47:31Z</time>
<desc>lat.=22.212374, lon.=104.415535, Alt.=461.465088m. Speed=0.036000m/h.</desc>
<speed>0.010000</speed>
</trkpt>
<trkpt lat="22.212374" lon="104.415535">
<ele>461.465088</ele>
<time>2011-04-27T10:47:36Z</time>
<desc>lat.=22.212374, lon.=104.415535, Alt.=461.465088m. Speed=0.036000m/h.</desc>
<speed>0.010000</speed>
</trkpt>
<trkpt lat="22.212374" lon="104.415535">
<ele>461.457275</ele>
<time>2011-04-27T10:47:41Z</time>
<desc>lat.=22.212374, lon.=104.415535, Alt.=461.457275m. Speed=0.036000m/h.</desc>
<speed>0.010000</speed>
</trkpt>
<trkpt lat="22.212376" lon="104.415535">
<ele>461.472900</ele>
<time>2011-04-27T10:47:46Z</time>
<desc>lat.=22.212376, lon.=104.415535, Alt.=461.472900m. Speed=0.036000m/h.</desc>
<speed>0.010000</speed>
</trkpt>
<trkpt lat="22.212376" lon="104.415535">
<ele>461.496338</ele>
<time>2011-04-27T10:47:51Z</time>
<desc>lat.=22.212376, lon.=104.415535, Alt.=461.496338m. Speed=0.000000m/h.</desc>
<speed>0.000000</speed>
</trkpt>
<trkpt lat="22.212376" lon="104.415535">
<ele>461.511963</ele>
<time>2011-04-27T10:47:56Z</time>
<desc>lat.=22.212376, lon.=104.415535, Alt.=461.511963m. Speed=0.000000m/h.</desc>
<speed>0.000000</speed>
</trkpt>
<trkpt lat="22.212376" lon="104.415535">
<ele>461.511963</ele>
<time>2011-04-27T10:48:01Z</time>
<desc>lat.=22.212376, lon.=104.415535, Alt.=461.511963m. Speed=0.036000m/h.</desc>
<speed>0.010000</speed>
</trkpt>
<trkpt lat="22.212376" lon="104.415535">
<ele>461.511963</ele>
<time>2011-04-27T10:48:06Z</time>
<desc>lat.=22.212376, lon.=104.415535, Alt.=461.511963m. Speed=0.036000m/h.</desc>
<speed>0.010000</speed>
</trkpt>
<trkpt lat="22.212376" lon="104.415535">
<ele>461.504150</ele>
<time>2011-04-27T10:48:11Z</time>
<desc>lat.=22.212376, lon.=104.415535, Alt.=461.504150m. Speed=0.036000m/h.</desc>
<speed>0.010000</speed>
</trkpt>
<trkpt lat="22.212376" lon="104.415535">
<ele>461.504150</ele>
<time>2011-04-27T10:48:16Z</time>
<desc>lat.=22.212376, lon.=104.415535, Alt.=461.504150m. Speed=0.000000m/h.</desc>
<speed>0.000000</speed>
</trkpt>
<trkpt lat="22.212376" lon="104.415535">
<ele>461.504150</ele>
<time>2011-04-27T10:48:21Z</time>
<desc>lat.=22.212376, lon.=104.415535, Alt.=461.504150m. Speed=0.000000m/h.</desc>
<speed>0.000000</speed>
</trkpt>
<trkpt lat="22.212376" lon="104.415535">
<ele>461.496338</ele>
<time>2011-04-27T10:48:26Z</time>
<desc>lat.=22.212376, lon.=104.415535, Alt.=461.496338m. Speed=0.036000m/h.</desc>
<speed>0.010000</speed>
</trkpt>
<trkpt lat="22.212376" lon="104.415535">
<ele>461.472900</ele>
<time>2011-04-27T10:48:31Z</time>
<desc>lat.=22.212376, lon.=104.415535, Alt.=461.472900m. Speed=0.000000m/h.</desc>
<speed>0.000000</speed>
</trkpt>
<trkpt lat="22.212376" lon="104.415535">
<ele>461.480713</ele>
<time>2011-04-27T10:48:36Z</time>
<desc>lat.=22.212376, lon.=104.415535, Alt.=461.480713m. Speed=0.036000m/h.</desc>
<speed>0.010000</speed>
</trkpt>
<trkpt lat="22.212376" lon="104.415535">
<ele>461.496338</ele>
<time>2011-04-27T10:48:41Z</time>
<desc>lat.=22.212376, lon.=104.415535, Alt.=461.496338m. Speed=0.000000m/h.</desc>
<speed>0.000000</speed>
</trkpt>
<trkpt lat="22.212376" lon="104.415535">
<ele>461.511963</ele>
<time>2011-04-27T10:48:46Z</time>
<desc>lat.=22.212376, lon.=104.415535, Alt.=461.511963m. Speed=0.000000m/h.</desc>
<speed>0.000000</speed>
</trkpt>
<trkpt lat="22.212378" lon="104.415535">
<ele>461.511963</ele>
<time>2011-04-27T10:48:51Z</time>
<desc>lat.=22.212378, lon.=104.415535, Alt.=461.511963m. Speed=0.180000m/h.</desc>
<speed>0.050000</speed>
</trkpt>
<trkpt lat="22.212378" lon="104.415535">
<ele>461.527588</ele>
<time>2011-04-27T10:48:56Z</time>
<desc>lat.=22.212378, lon.=104.415535, Alt.=461.527588m. Speed=0.072000m/h.</desc>
<speed>0.020000</speed>
</trkpt>
<trkpt lat="22.212378" lon="104.415535">
<ele>461.527588</ele>
<time>2011-04-27T10:49:01Z</time>
<desc>lat.=22.212378, lon.=104.415535, Alt.=461.527588m. Speed=0.072000m/h.</desc>
<speed>0.020000</speed>
</trkpt>
<trkpt lat="22.212378" lon="104.415535">
<ele>461.558838</ele>
<time>2011-04-27T10:49:06Z</time>
<desc>lat.=22.212378, lon.=104.415535, Alt.=461.558838m. Speed=0.000000m/h.</desc>
<speed>0.000000</speed>
</trkpt>
<trkpt lat="22.212378" lon="104.415535">
<ele>461.551025</ele>
<time>2011-04-27T10:49:11Z</time>
<desc>lat.=22.212378, lon.=104.415535, Alt.=461.551025m. Speed=0.036000m/h.</desc>
<speed>0.010000</speed>
</trkpt>
<trkpt lat="22.212378" lon="104.415535">
<ele>461.551025</ele>
<time>2011-04-27T10:49:16Z</time>
<desc>lat.=22.212378, lon.=104.415535, Alt.=461.551025m. Speed=0.000000m/h.</desc>
<speed>0.000000</speed>
</trkpt>
<trkpt lat="22.212379" lon="104.415535">
<ele>461.543213</ele>
<time>2011-04-27T10:49:21Z</time>
<desc>lat.=22.212379, lon.=104.415535, Alt.=461.543213m. Speed=0.000000m/h.</desc>
<speed>0.000000</speed>
</trkpt>
<trkpt lat="22.212379" lon="104.415535">
<ele>461.535400</ele>
<time>2011-04-27T10:49:26Z</time>
<desc>lat.=22.212379, lon.=104.415535, Alt.=461.535400m. Speed=0.000000m/h.</desc>
<speed>0.000000</speed>
</trkpt>
<trkpt lat="22.212378" lon="104.415535">
<ele>461.519775</ele>
<time>2011-04-27T10:49:31Z</time>
<desc>lat.=22.212378, lon.=104.415535, Alt.=461.519775m. Speed=0.000000m/h.</desc>
<speed>0.000000</speed>
</trkpt>
<trkpt lat="22.212378" lon="104.415535">
<ele>461.527588</ele>
<time>2011-04-27T10:49:36Z</time>
<desc>lat.=22.212378, lon.=104.415535, Alt.=461.527588m. Speed=0.036000m/h.</desc>
<speed>0.010000</speed>
</trkpt>
<trkpt lat="22.212378" lon="104.415535">
<ele>461.527588</ele>
<time>2011-04-27T10:49:41Z</time>
<desc>lat.=22.212378, lon.=104.415535, Alt.=461.527588m. Speed=0.000000m/h.</desc>
<speed>0.000000</speed>
</trkpt>
<trkpt lat="22.212378" lon="104.415535">
<ele>461.535400</ele>
<time>2011-04-27T10:49:46Z</time>
<desc>lat.=22.212378, lon.=104.415535, Alt.=461.535400m. Speed=0.036000m/h.</desc>
<speed>0.010000</speed>
</trkpt>
<trkpt lat="22.212378" lon="104.415535">
<ele>461.527588</ele>
<time>2011-04-27T10:49:51Z</time>
<desc>lat.=22.212378, lon.=104.415535, Alt.=461.527588m. Speed=0.000000m/h.</desc>
<speed>0.000000</speed>
</trkpt>
<trkpt lat="22.212378" lon="104.415535">
<ele>461.543213</ele>
<time>2011-04-27T10:49:56Z</time>
<desc>lat.=22.212378, lon.=104.415535, Alt.=461.543213m. Speed=0.036000m/h.</desc>
<speed>0.010000</speed>
</trkpt>
<trkpt lat="22.212378" lon="104.415535">
<ele>461.566650</ele>
<time>2011-04-27T10:50:01Z</time>
<desc>lat.=22.212378, lon.=104.415535, Alt.=461.566650m. Speed=0.036000m/h.</desc>
<speed>0.010000</speed>
</trkpt>
<trkpt lat="22.212378" lon="104.415535">
<ele>461.582275</ele>
<time>2011-04-27T10:50:06Z</time>
<desc>lat.=22.212378, lon.=104.415535, Alt.=461.582275m. Speed=0.108000m/h.</desc>
<speed>0.030000</speed>
</trkpt>
<trkpt lat="22.212378" lon="104.415535">
<ele>461.597900</ele>
<time>2011-04-27T10:50:11Z</time>
<desc>lat.=22.212378, lon.=104.415535, Alt.=461.597900m. Speed=0.180000m/h.</desc>
<speed>0.050000</speed>
</trkpt>
<trkpt lat="22.212376" lon="104.415535">
<ele>461.605713</ele>
<time>2011-04-27T10:50:16Z</time>
<desc>lat.=22.212376, lon.=104.415535, Alt.=461.605713m. Speed=0.000000m/h.</desc>
<speed>0.000000</speed>
</trkpt>
<trkpt lat="22.212376" lon="104.415535">
<ele>461.629150</ele>
<time>2011-04-27T10:50:21Z</time>
<desc>lat.=22.212376, lon.=104.415535, Alt.=461.629150m. Speed=0.072000m/h.</desc>
<speed>0.020000</speed>
</trkpt>
<trkpt lat="22.212376" lon="104.415535">
<ele>461.652588</ele>
<time>2011-04-27T10:50:26Z</time>
<desc>lat.=22.212376, lon.=104.415535, Alt.=461.652588m. Speed=0.072000m/h.</desc>
<speed>0.020000</speed>
</trkpt>
<trkpt lat="22.212376" lon="104.415535">
<ele>461.668213</ele>
<time>2011-04-27T10:50:31Z</time>
<desc>lat.=22.212376, lon.=104.415535, Alt.=461.668213m. Speed=0.108000m/h.</desc>
<speed>0.030000</speed>
</trkpt>
<trkpt lat="22.212393" lon="104.415535">
<ele>461.988525</ele>
<time>2011-04-27T10:50:36Z</time>
<desc>lat.=22.212393, lon.=104.415535, Alt.=461.988525m. Speed=1.152000m/h.</desc>
<speed>0.320000</speed>
</trkpt>
<trkpt lat="22.212400" lon="104.415527">
<ele>461.808838</ele>
<time>2011-04-27T10:50:41Z</time>
<desc>lat.=22.212400, lon.=104.415527, Alt.=461.808838m. Speed=0.576000m/h.</desc>
<speed>0.160000</speed>
</trkpt>
<trkpt lat="22.212423" lon="104.415497">
<ele>461.058838</ele>
<time>2011-04-27T10:50:46Z</time>
<desc>lat.=22.212423, lon.=104.415497, Alt.=461.058838m. Speed=5.472000m/h.</desc>
<speed>1.520000</speed>
</trkpt>
<trkpt lat="22.212414" lon="104.415428">
<ele>461.136963</ele>
<time>2011-04-27T10:50:51Z</time>
<desc>lat.=22.212414, lon.=104.415428, Alt.=461.136963m. Speed=5.544000m/h.</desc>
<speed>1.540000</speed>
</trkpt>
<trkpt lat="22.212397" lon="104.415352">
<ele>461.301025</ele>
<time>2011-04-27T10:50:56Z</time>
<desc>lat.=22.212397, lon.=104.415352, Alt.=461.301025m. Speed=4.536000m/h.</desc>
<speed>1.260000</speed>
</trkpt>
<trkpt lat="22.212389" lon="104.415291">
<ele>461.933838</ele>
<time>2011-04-27T10:51:01Z</time>
<desc>lat.=22.212389, lon.=104.415291, Alt.=461.933838m. Speed=4.464000m/h.</desc>
<speed>1.240000</speed>
</trkpt>
<trkpt lat="22.212383" lon="104.415237">
<ele>462.074463</ele>
<time>2011-04-27T10:51:06Z</time>
<desc>lat.=22.212383, lon.=104.415237, Alt.=462.074463m. Speed=4.716000m/h.</desc>
<speed>1.310000</speed>
</trkpt>
<trkpt lat="22.212414" lon="104.415207">
<ele>462.051025</ele>
<time>2011-04-27T10:51:11Z</time>
<desc>lat.=22.212414, lon.=104.415207, Alt.=462.051025m. Speed=2.124000m/h.</desc>
<speed>0.590000</speed>
</trkpt>
<trkpt lat="22.212433" lon="104.415230">
<ele>463.433838</ele>
<time>2011-04-27T10:51:16Z</time>
<desc>lat.=22.212433, lon.=104.415230, Alt.=463.433838m. Speed=2.916000m/h.</desc>
<speed>0.810000</speed>
</trkpt>
<trkpt lat="22.212448" lon="104.415260">
<ele>463.769775</ele>
<time>2011-04-27T10:51:21Z</time>
<desc>lat.=22.212448, lon.=104.415260, Alt.=463.769775m. Speed=1.908000m/h.</desc>
<speed>0.530000</speed>
</trkpt>
<trkpt lat="22.212439" lon="104.415268">
<ele>464.480713</ele>
<time>2011-04-27T10:51:26Z</time>
<desc>lat.=22.212439, lon.=104.415268, Alt.=464.480713m. Speed=0.360000m/h.</desc>
<speed>0.100000</speed>
</trkpt>
<trkpt lat="22.212437" lon="104.415268">
<ele>464.551025</ele>
<time>2011-04-27T10:51:31Z</time>
<desc>lat.=22.212437, lon.=104.415268, Alt.=464.551025m. Speed=0.180000m/h.</desc>
<speed>0.050000</speed>
</trkpt>
<trkpt lat="22.212435" lon="104.415268">
<ele>464.683838</ele>
<time>2011-04-27T10:51:36Z</time>
<desc>lat.=22.212435, lon.=104.415268, Alt.=464.683838m. Speed=0.072000m/h.</desc>
<speed>0.020000</speed>
</trkpt>
<trkpt lat="22.212435" lon="104.415260">
<ele>464.738525</ele>
<time>2011-04-27T10:51:41Z</time>
<desc>lat.=22.212435, lon.=104.415260, Alt.=464.738525m. Speed=0.072000m/h.</desc>
<speed>0.020000</speed>
</trkpt>
<trkpt lat="22.212435" lon="104.415260">
<ele>464.730713</ele>
<time>2011-04-27T10:51:46Z</time>
<desc>lat.=22.212435, lon.=104.415260, Alt.=464.730713m. Speed=0.036000m/h.</desc>
<speed>0.010000</speed>
</trkpt>
<trkpt lat="22.212435" lon="104.415260">
<ele>464.722900</ele>
<time>2011-04-27T10:51:51Z</time>
<desc>lat.=22.212435, lon.=104.415260, Alt.=464.722900m. Speed=0.000000m/h.</desc>
<speed>0.000000</speed>
</trkpt>
<trkpt lat="22.212435" lon="104.415260">
<ele>464.730713</ele>
<time>2011-04-27T10:51:56Z</time>
<desc>lat.=22.212435, lon.=104.415260, Alt.=464.730713m. Speed=0.036000m/h.</desc>
<speed>0.010000</speed>
</trkpt>
<trkpt lat="22.212435" lon="104.415260">
<ele>464.730713</ele>
<time>2011-04-27T10:52:01Z</time>
<desc>lat.=22.212435, lon.=104.415260, Alt.=464.730713m. Speed=0.036000m/h.</desc>
<speed>0.010000</speed>
</trkpt>
<trkpt lat="22.212435" lon="104.415260">
<ele>464.738525</ele>
<time>2011-04-27T10:52:06Z</time>
<desc>lat.=22.212435, lon.=104.415260, Alt.=464.738525m. Speed=0.036000m/h.</desc>
<speed>0.010000</speed>
</trkpt>
<trkpt lat="22.212435" lon="104.415260">
<ele>464.738525</ele>
<time>2011-04-27T10:52:11Z</time>
<desc>lat.=22.212435, lon.=104.415260, Alt.=464.738525m. Speed=0.000000m/h.</desc>
<speed>0.000000</speed>
</trkpt>
<trkpt lat="22.212435" lon="104.415260">
<ele>464.738525</ele>
<time>2011-04-27T10:52:16Z</time>
<desc>lat.=22.212435, lon.=104.415260, Alt.=464.738525m. Speed=0.000000m/h.</desc>
<speed>0.000000</speed>
</trkpt>
<trkpt lat="22.212433" lon="104.415260">
<ele>464.738525</ele>
<time>2011-04-27T10:52:21Z</time>
<desc>lat.=22.212433, lon.=104.415260, Alt.=464.738525m. Speed=0.036000m/h.</desc>
<speed>0.010000</speed>
</trkpt>
<trkpt lat="22.212433" lon="104.415268">
<ele>464.730713</ele>
<time>2011-04-27T10:52:26Z</time>
<desc>lat.=22.212433, lon.=104.415268, Alt.=464.730713m. Speed=0.180000m/h.</desc>
<speed>0.050000</speed>
</trkpt>
<trkpt lat="22.212429" lon="104.415268">
<ele>464.722900</ele>
<time>2011-04-27T10:52:31Z</time>
<desc>lat.=22.212429, lon.=104.415268, Alt.=464.722900m. Speed=0.504000m/h.</desc>
<speed>0.140000</speed>
</trkpt>
<trkpt lat="22.212425" lon="104.415268">
<ele>464.676025</ele>
<time>2011-04-27T10:52:36Z</time>
<desc>lat.=22.212425, lon.=104.415268, Alt.=464.676025m. Speed=0.324000m/h.</desc>
<speed>0.090000</speed>
</trkpt>
<trkpt lat="22.212421" lon="104.415268">
<ele>464.574463</ele>
<time>2011-04-27T10:52:41Z</time>
<desc>lat.=22.212421, lon.=104.415268, Alt.=464.574463m. Speed=0.180000m/h.</desc>
<speed>0.050000</speed>
</trkpt>
<trkpt lat="22.212420" lon="104.415268">
<ele>464.433838</ele>
<time>2011-04-27T10:52:46Z</time>
<desc>lat.=22.212420, lon.=104.415268, Alt.=464.433838m. Speed=0.108000m/h.</desc>
<speed>0.030000</speed>
</trkpt>
<trkpt lat="22.212420" lon="104.415276">
<ele>464.269775</ele>
<time>2011-04-27T10:52:51Z</time>
<desc>lat.=22.212420, lon.=104.415276, Alt.=464.269775m. Speed=0.000000m/h.</desc>
<speed>0.000000</speed>
</trkpt>
<trkpt lat="22.212420" lon="104.415268">
<ele>464.261963</ele>
<time>2011-04-27T10:52:56Z</time>
<desc>lat.=22.212420, lon.=104.415268, Alt.=464.261963m. Speed=0.036000m/h.</desc>
<speed>0.010000</speed>
</trkpt>
<trkpt lat="22.212420" lon="104.415268">
<ele>464.285400</ele>
<time>2011-04-27T10:53:01Z</time>
<desc>lat.=22.212420, lon.=104.415268, Alt.=464.285400m. Speed=0.108000m/h.</desc>
<speed>0.030000</speed>
</trkpt>
<trkpt lat="22.212420" lon="104.415268">
<ele>464.301025</ele>
<time>2011-04-27T10:53:06Z</time>
<desc>lat.=22.212420, lon.=104.415268, Alt.=464.301025m. Speed=0.108000m/h.</desc>
<speed>0.030000</speed>
</trkpt>
<trkpt lat="22.212420" lon="104.415268">
<ele>464.308838</ele>
<time>2011-04-27T10:53:11Z</time>
<desc>lat.=22.212420, lon.=104.415268, Alt.=464.308838m. Speed=0.000000m/h.</desc>
<speed>0.000000</speed>
</trkpt>
<trkpt lat="22.212420" lon="104.415268">
<ele>464.316650</ele>
<time>2011-04-27T10:53:16Z</time>
<desc>lat.=22.212420, lon.=104.415268, Alt.=464.316650m. Speed=0.036000m/h.</desc>
<speed>0.010000</speed>
</trkpt>
<trkpt lat="22.212420" lon="104.415268">
<ele>464.316650</ele>
<time>2011-04-27T10:53:21Z</time>
<desc>lat.=22.212420, lon.=104.415268, Alt.=464.316650m. Speed=0.000000m/h.</desc>
<speed>0.000000</speed>
</trkpt>
<trkpt lat="22.212420" lon="104.415268">
<ele>464.293213</ele>
<time>2011-04-27T10:53:26Z</time>
<desc>lat.=22.212420, lon.=104.415268, Alt.=464.293213m. Speed=0.000000m/h.</desc>
<speed>0.000000</speed>
</trkpt>
<trkpt lat="22.212420" lon="104.415268">
<ele>464.269775</ele>
<time>2011-04-27T10:53:31Z</time>
<desc>lat.=22.212420, lon.=104.415268, Alt.=464.269775m. Speed=0.036000m/h.</desc>
<speed>0.010000</speed>
</trkpt>
<trkpt lat="22.212420" lon="104.415276">
<ele>464.230713</ele>
<time>2011-04-27T10:53:36Z</time>
<desc>lat.=22.212420, lon.=104.415276, Alt.=464.230713m. Speed=0.108000m/h.</desc>
<speed>0.030000</speed>
</trkpt>
<trkpt lat="22.212420" lon="104.415276">
<ele>464.207275</ele>
<time>2011-04-27T10:53:41Z</time>
<desc>lat.=22.212420, lon.=104.415276, Alt.=464.207275m. Speed=0.036000m/h.</desc>
<speed>0.010000</speed>
</trkpt>
<trkpt lat="22.212420" lon="104.415276">
<ele>464.191650</ele>
<time>2011-04-27T10:53:46Z</time>
<desc>lat.=22.212420, lon.=104.415276, Alt.=464.191650m. Speed=0.072000m/h.</desc>
<speed>0.020000</speed>
</trkpt>
<trkpt lat="22.212420" lon="104.415276">
<ele>464.183838</ele>
<time>2011-04-27T10:53:51Z</time>
<desc>lat.=22.212420, lon.=104.415276, Alt.=464.183838m. Speed=0.036000m/h.</desc>
<speed>0.010000</speed>
</trkpt>
<trkpt lat="22.212420" lon="104.415276">
<ele>464.168213</ele>
<time>2011-04-27T10:53:56Z</time>
<desc>lat.=22.212420, lon.=104.415276, Alt.=464.168213m. Speed=0.036000m/h.</desc>
<speed>0.010000</speed>
</trkpt>
<trkpt lat="22.212420" lon="104.415276">
<ele>464.136963</ele>
<time>2011-04-27T10:54:01Z</time>
<desc>lat.=22.212420, lon.=104.415276, Alt.=464.136963m. Speed=0.036000m/h.</desc>
<speed>0.010000</speed>
</trkpt>
<trkpt lat="22.212420" lon="104.415276">
<ele>464.097900</ele>
<time>2011-04-27T10:54:06Z</time>
<desc>lat.=22.212420, lon.=104.415276, Alt.=464.097900m. Speed=0.144000m/h.</desc>
<speed>0.040000</speed>
</trkpt>
<trkpt lat="22.212420" lon="104.415276">
<ele>464.058838</ele>
<time>2011-04-27T10:54:11Z</time>
<desc>lat.=22.212420, lon.=104.415276, Alt.=464.058838m. Speed=0.000000m/h.</desc>
<speed>0.000000</speed>
</trkpt>
<trkpt lat="22.212420" lon="104.415276">
<ele>464.019775</ele>
<time>2011-04-27T10:54:16Z</time>
<desc>lat.=22.212420, lon.=104.415276, Alt.=464.019775m. Speed=0.072000m/h.</desc>
<speed>0.020000</speed>
</trkpt>
<trkpt lat="22.212418" lon="104.415276">
<ele>464.027588</ele>
<time>2011-04-27T10:54:21Z</time>
<desc>lat.=22.212418, lon.=104.415276, Alt.=464.027588m. Speed=0.180000m/h.</desc>
<speed>0.050000</speed>
</trkpt>
<trkpt lat="22.212418" lon="104.415276">
<ele>464.011963</ele>
<time>2011-04-27T10:54:26Z</time>
<desc>lat.=22.212418, lon.=104.415276, Alt.=464.011963m. Speed=0.000000m/h.</desc>
<speed>0.000000</speed>
</trkpt>
<trkpt lat="22.212416" lon="104.415276">
<ele>464.011963</ele>
<time>2011-04-27T10:54:31Z</time>
<desc>lat.=22.212416, lon.=104.415276, Alt.=464.011963m. Speed=0.000000m/h.</desc>
<speed>0.000000</speed>
</trkpt>
<trkpt lat="22.212416" lon="104.415276">
<ele>464.011963</ele>
<time>2011-04-27T10:54:36Z</time>
<desc>lat.=22.212416, lon.=104.415276, Alt.=464.011963m. Speed=0.036000m/h.</desc>
<speed>0.010000</speed>
</trkpt>
<trkpt lat="22.212416" lon="104.415276">
<ele>464.043213</ele>
<time>2011-04-27T10:54:41Z</time>
<desc>lat.=22.212416, lon.=104.415276, Alt.=464.043213m. Speed=0.036000m/h.</desc>
<speed>0.010000</speed>
</trkpt>
<trkpt lat="22.212416" lon="104.415276">
<ele>464.043213</ele>
<time>2011-04-27T10:54:46Z</time>
<desc>lat.=22.212416, lon.=104.415276, Alt.=464.043213m. Speed=0.036000m/h.</desc>
<speed>0.010000</speed>
</trkpt>
<trkpt lat="22.212416" lon="104.415276">
<ele>464.051025</ele>
<time>2011-04-27T10:54:51Z</time>
<desc>lat.=22.212416, lon.=104.415276, Alt.=464.051025m. Speed=0.036000m/h.</desc>
<speed>0.010000</speed>
</trkpt>
<trkpt lat="22.212416" lon="104.415276">
<ele>464.066650</ele>
<time>2011-04-27T10:54:56Z</time>
<desc>lat.=22.212416, lon.=104.415276, Alt.=464.066650m. Speed=0.036000m/h.</desc>
<speed>0.010000</speed>
</trkpt>
<trkpt lat="22.212416" lon="104.415276">
<ele>464.035400</ele>
<time>2011-04-27T10:55:01Z</time>
<desc>lat.=22.212416, lon.=104.415276, Alt.=464.035400m. Speed=0.000000m/h.</desc>
<speed>0.000000</speed>
</trkpt>
<trkpt lat="22.212416" lon="104.415276">
<ele>464.027588</ele>
<time>2011-04-27T10:55:06Z</time>
<desc>lat.=22.212416, lon.=104.415276, Alt.=464.027588m. Speed=0.000000m/h.</desc>
<speed>0.000000</speed>
</trkpt>
<trkpt lat="22.212416" lon="104.415276">
<ele>464.051025</ele>
<time>2011-04-27T10:55:11Z</time>
<desc>lat.=22.212416, lon.=104.415276, Alt.=464.051025m. Speed=0.000000m/h.</desc>
<speed>0.000000</speed>
</trkpt>
<trkpt lat="22.212416" lon="104.415276">
<ele>464.074463</ele>
<time>2011-04-27T10:55:16Z</time>
<desc>lat.=22.212416, lon.=104.415276, Alt.=464.074463m. Speed=0.000000m/h.</desc>
<speed>0.000000</speed>
</trkpt>
<trkpt lat="22.212416" lon="104.415276">
<ele>464.090088</ele>
<time>2011-04-27T10:55:21Z</time>
<desc>lat.=22.212416, lon.=104.415276, Alt.=464.090088m. Speed=0.000000m/h.</desc>
<speed>0.000000</speed>
</trkpt>
<trkpt lat="22.212416" lon="104.415276">
<ele>464.105713</ele>
<time>2011-04-27T10:55:26Z</time>
<desc>lat.=22.212416, lon.=104.415276, Alt.=464.105713m. Speed=0.000000m/h.</desc>
<speed>0.000000</speed>
</trkpt>
<trkpt lat="22.212416" lon="104.415276">
<ele>464.113525</ele>
<time>2011-04-27T10:55:31Z</time>
<desc>lat.=22.212416, lon.=104.415276, Alt.=464.113525m. Speed=0.000000m/h.</desc>
<speed>0.000000</speed>
</trkpt>
<trkpt lat="22.212416" lon="104.415276">
<ele>464.129150</ele>
<time>2011-04-27T10:55:36Z</time>
<desc>lat.=22.212416, lon.=104.415276, Alt.=464.129150m. Speed=0.000000m/h.</desc>
<speed>0.000000</speed>
</trkpt>
<trkpt lat="22.212416" lon="104.415276">
<ele>464.129150</ele>
<time>2011-04-27T10:55:41Z</time>
<desc>lat.=22.212416, lon.=104.415276, Alt.=464.129150m. Speed=0.000000m/h.</desc>
<speed>0.000000</speed>
</trkpt>
<trkpt lat="22.212416" lon="104.415276">
<ele>464.129150</ele>
<time>2011-04-27T10:55:46Z</time>
<desc>lat.=22.212416, lon.=104.415276, Alt.=464.129150m. Speed=0.000000m/h.</desc>
<speed>0.000000</speed>
</trkpt>
<trkpt lat="22.212416" lon="104.415276">
<ele>464.129150</ele>
<time>2011-04-27T10:55:51Z</time>
<desc>lat.=22.212416, lon.=104.415276, Alt.=464.129150m. Speed=0.000000m/h.</desc>
<speed>0.000000</speed>
</trkpt>
<trkpt lat="22.212416" lon="104.415276">
<ele>464.144775</ele>
<time>2011-04-27T10:55:56Z</time>
<desc>lat.=22.212416, lon.=104.415276, Alt.=464.144775m. Speed=0.000000m/h.</desc>
<speed>0.000000</speed>
</trkpt>
<trkpt lat="22.212416" lon="104.415276">
<ele>464.152588</ele>
<time>2011-04-27T10:56:01Z</time>
<desc>lat.=22.212416, lon.=104.415276, Alt.=464.152588m. Speed=0.000000m/h.</desc>
<speed>0.000000</speed>
</trkpt>
<trkpt lat="22.212416" lon="104.415276">
<ele>464.160400</ele>
<time>2011-04-27T10:56:06Z</time>
<desc>lat.=22.212416, lon.=104.415276, Alt.=464.160400m. Speed=0.036000m/h.</desc>
<speed>0.010000</speed>
</trkpt>
<trkpt lat="22.212416" lon="104.415276">
<ele>464.160400</ele>
<time>2011-04-27T10:56:11Z</time>
<desc>lat.=22.212416, lon.=104.415276, Alt.=464.160400m. Speed=0.000000m/h.</desc>
<speed>0.000000</speed>
</trkpt>
<trkpt lat="22.212416" lon="104.415276">
<ele>464.160400</ele>
<time>2011-04-27T10:56:16Z</time>
<desc>lat.=22.212416, lon.=104.415276, Alt.=464.160400m. Speed=0.000000m/h.</desc>
<speed>0.000000</speed>
</trkpt>
<trkpt lat="22.212416" lon="104.415276">
<ele>464.160400</ele>
<time>2011-04-27T10:56:21Z</time>
<desc>lat.=22.212416, lon.=104.415276, Alt.=464.160400m. Speed=0.000000m/h.</desc>
<speed>0.000000</speed>
</trkpt>
<trkpt lat="22.212416" lon="104.415276">
<ele>464.176025</ele>
<time>2011-04-27T10:56:26Z</time>
<desc>lat.=22.212416, lon.=104.415276, Alt.=464.176025m. Speed=0.036000m/h.</desc>
<speed>0.010000</speed>
</trkpt>
<trkpt lat="22.212416" lon="104.415276">
<ele>464.176025</ele>
<time>2011-04-27T10:56:31Z</time>
<desc>lat.=22.212416, lon.=104.415276, Alt.=464.176025m. Speed=0.036000m/h.</desc>
<speed>0.010000</speed>
</trkpt>
<trkpt lat="22.212416" lon="104.415276">
<ele>464.199463</ele>
<time>2011-04-27T10:56:36Z</time>
<desc>lat.=22.212416, lon.=104.415276, Alt.=464.199463m. Speed=0.036000m/h.</desc>
<speed>0.010000</speed>
</trkpt>
<trkpt lat="22.212416" lon="104.415276">
<ele>464.215088</ele>
<time>2011-04-27T10:56:41Z</time>
<desc>lat.=22.212416, lon.=104.415276, Alt.=464.215088m. Speed=0.036000m/h.</desc>
<speed>0.010000</speed>
</trkpt>
<trkpt lat="22.212416" lon="104.415268">
<ele>464.246338</ele>
<time>2011-04-27T10:56:46Z</time>
<desc>lat.=22.212416, lon.=104.415268, Alt.=464.246338m. Speed=0.000000m/h.</desc>
<speed>0.000000</speed>
</trkpt>
<trkpt lat="22.212416" lon="104.415268">
<ele>464.285400</ele>
<time>2011-04-27T10:56:51Z</time>
<desc>lat.=22.212416, lon.=104.415268, Alt.=464.285400m. Speed=0.000000m/h.</desc>
<speed>0.000000</speed>
</trkpt>
<trkpt lat="22.212416" lon="104.415268">
<ele>464.324463</ele>
<time>2011-04-27T10:56:56Z</time>
<desc>lat.=22.212416, lon.=104.415268, Alt.=464.324463m. Speed=0.000000m/h.</desc>
<speed>0.000000</speed>
</trkpt>
<trkpt lat="22.212416" lon="104.415268">
<ele>464.347900</ele>
<time>2011-04-27T10:57:01Z</time>
<desc>lat.=22.212416, lon.=104.415268, Alt.=464.347900m. Speed=0.000000m/h.</desc>
<speed>0.000000</speed>
</trkpt>
<trkpt lat="22.212416" lon="104.415268">
<ele>464.371338</ele>
<time>2011-04-27T10:57:06Z</time>
<desc>lat.=22.212416, lon.=104.415268, Alt.=464.371338m. Speed=0.000000m/h.</desc>
<speed>0.000000</speed>
</trkpt>
<trkpt lat="22.212416" lon="104.415268">
<ele>464.379150</ele>
<time>2011-04-27T10:57:11Z</time>
<desc>lat.=22.212416, lon.=104.415268, Alt.=464.379150m. Speed=0.000000m/h.</desc>
<speed>0.000000</speed>
</trkpt>
<trkpt lat="22.212416" lon="104.415268">
<ele>464.394775</ele>
<time>2011-04-27T10:57:16Z</time>
<desc>lat.=22.212416, lon.=104.415268, Alt.=464.394775m. Speed=0.000000m/h.</desc>
<speed>0.000000</speed>
</trkpt>
<trkpt lat="22.212416" lon="104.415268">
<ele>464.402588</ele>
<time>2011-04-27T10:57:21Z</time>
<desc>lat.=22.212416, lon.=104.415268, Alt.=464.402588m. Speed=0.000000m/h.</desc>
<speed>0.000000</speed>
</trkpt>
<trkpt lat="22.212416" lon="104.415268">
<ele>464.402588</ele>
<time>2011-04-27T10:57:26Z</time>
<desc>lat.=22.212416, lon.=104.415268, Alt.=464.402588m. Speed=0.000000m/h.</desc>
<speed>0.000000</speed>
</trkpt>
<trkpt lat="22.212416" lon="104.415268">
<ele>464.410400</ele>
<time>2011-04-27T10:57:31Z</time>
<desc>lat.=22.212416, lon.=104.415268, Alt.=464.410400m. Speed=0.000000m/h.</desc>
<speed>0.000000</speed>
</trkpt>
<trkpt lat="22.212416" lon="104.415268">
<ele>464.418213</ele>
<time>2011-04-27T10:57:36Z</time>
<desc>lat.=22.212416, lon.=104.415268, Alt.=464.418213m. Speed=0.000000m/h.</desc>
<speed>0.000000</speed>
</trkpt>
<trkpt lat="22.212416" lon="104.415268">
<ele>464.426025</ele>
<time>2011-04-27T10:57:41Z</time>
<desc>lat.=22.212416, lon.=104.415268, Alt.=464.426025m. Speed=0.000000m/h.</desc>
<speed>0.000000</speed>
</trkpt>
<trkpt lat="22.212416" lon="104.415268">
<ele>464.433838</ele>
<time>2011-04-27T10:57:46Z</time>
<desc>lat.=22.212416, lon.=104.415268, Alt.=464.433838m. Speed=0.000000m/h.</desc>
<speed>0.000000</speed>
</trkpt>
<trkpt lat="22.212416" lon="104.415268">
<ele>464.449463</ele>
<time>2011-04-27T10:57:51Z</time>
<desc>lat.=22.212416, lon.=104.415268, Alt.=464.449463m. Speed=0.000000m/h.</desc>
<speed>0.000000</speed>
</trkpt>
<trkpt lat="22.212416" lon="104.415268">
<ele>464.472900</ele>
<time>2011-04-27T10:57:56Z</time>
<desc>lat.=22.212416, lon.=104.415268, Alt.=464.472900m. Speed=0.000000m/h.</desc>
<speed>0.000000</speed>
</trkpt>
<trkpt lat="22.212416" lon="104.415268">
<ele>464.488525</ele>
<time>2011-04-27T10:58:01Z</time>
<desc>lat.=22.212416, lon.=104.415268, Alt.=464.488525m. Speed=0.000000m/h.</desc>
<speed>0.000000</speed>
</trkpt>
<trkpt lat="22.212414" lon="104.415268">
<ele>464.504150</ele>
<time>2011-04-27T10:58:06Z</time>
<desc>lat.=22.212414, lon.=104.415268, Alt.=464.504150m. Speed=0.000000m/h.</desc>
<speed>0.000000</speed>
</trkpt>
<trkpt lat="22.212416" lon="104.415268">
<ele>464.511963</ele>
<time>2011-04-27T10:58:11Z</time>
<desc>lat.=22.212416, lon.=104.415268, Alt.=464.511963m. Speed=0.000000m/h.</desc>
<speed>0.000000</speed>
</trkpt>
<trkpt lat="22.212416" lon="104.415268">
<ele>464.519775</ele>
<time>2011-04-27T10:58:16Z</time>
<desc>lat.=22.212416, lon.=104.415268, Alt.=464.519775m. Speed=0.000000m/h.</desc>
<speed>0.000000</speed>
</trkpt>
<trkpt lat="22.212416" lon="104.415268">
<ele>464.511963</ele>
<time>2011-04-27T10:58:21Z</time>
<desc>lat.=22.212416, lon.=104.415268, Alt.=464.511963m. Speed=0.000000m/h.</desc>
<speed>0.000000</speed>
</trkpt>
<trkpt lat="22.212416" lon="104.415268">
<ele>464.496338</ele>
<time>2011-04-27T10:58:26Z</time>
<desc>lat.=22.212416, lon.=104.415268, Alt.=464.496338m. Speed=0.000000m/h.</desc>
<speed>0.000000</speed>
</trkpt>
<trkpt lat="22.212414" lon="104.415268">
<ele>464.496338</ele>
<time>2011-04-27T10:58:31Z</time>
<desc>lat.=22.212414, lon.=104.415268, Alt.=464.496338m. Speed=0.000000m/h.</desc>
<speed>0.000000</speed>
</trkpt>
<trkpt lat="22.212414" lon="104.415268">
<ele>464.488525</ele>
<time>2011-04-27T10:58:36Z</time>
<desc>lat.=22.212414, lon.=104.415268, Alt.=464.488525m. Speed=0.000000m/h.</desc>
<speed>0.000000</speed>
</trkpt>
<trkpt lat="22.212414" lon="104.415268">
<ele>464.488525</ele>
<time>2011-04-27T10:58:41Z</time>
<desc>lat.=22.212414, lon.=104.415268, Alt.=464.488525m. Speed=0.000000m/h.</desc>
<speed>0.000000</speed>
</trkpt>
<trkpt lat="22.212414" lon="104.415268">
<ele>464.488525</ele>
<time>2011-04-27T10:58:46Z</time>
<desc>lat.=22.212414, lon.=104.415268, Alt.=464.488525m. Speed=0.000000m/h.</desc>
<speed>0.000000</speed>
</trkpt>
<trkpt lat="22.212414" lon="104.415268">
<ele>464.488525</ele>
<time>2011-04-27T10:58:51Z</time>
<desc>lat.=22.212414, lon.=104.415268, Alt.=464.488525m. Speed=0.000000m/h.</desc>
<speed>0.000000</speed>
</trkpt>
<trkpt lat="22.212416" lon="104.415268">
<ele>464.480713</ele>
<time>2011-04-27T10:58:56Z</time>
<desc>lat.=22.212416, lon.=104.415268, Alt.=464.480713m. Speed=0.000000m/h.</desc>
<speed>0.000000</speed>
</trkpt>
<trkpt lat="22.212416" lon="104.415268">
<ele>464.465088</ele>
<time>2011-04-27T10:59:01Z</time>
<desc>lat.=22.212416, lon.=104.415268, Alt.=464.465088m. Speed=0.000000m/h.</desc>
<speed>0.000000</speed>
</trkpt>
<trkpt lat="22.212416" lon="104.415268">
<ele>464.449463</ele>
<time>2011-04-27T10:59:06Z</time>
<desc>lat.=22.212416, lon.=104.415268, Alt.=464.449463m. Speed=0.000000m/h.</desc>
<speed>0.000000</speed>
</trkpt>
<trkpt lat="22.212416" lon="104.415268">
<ele>464.433838</ele>
<time>2011-04-27T10:59:11Z</time>
<desc>lat.=22.212416, lon.=104.415268, Alt.=464.433838m. Speed=0.000000m/h.</desc>
<speed>0.000000</speed>
</trkpt>
<trkpt lat="22.212416" lon="104.415268">
<ele>464.418213</ele>
<time>2011-04-27T10:59:16Z</time>
<desc>lat.=22.212416, lon.=104.415268, Alt.=464.418213m. Speed=0.000000m/h.</desc>
<speed>0.000000</speed>
</trkpt>
<trkpt lat="22.212416" lon="104.415268">
<ele>464.410400</ele>
<time>2011-04-27T10:59:21Z</time>
<desc>lat.=22.212416, lon.=104.415268, Alt.=464.410400m. Speed=0.000000m/h.</desc>
<speed>0.000000</speed>
</trkpt>
<trkpt lat="22.212416" lon="104.415268">
<ele>464.410400</ele>
<time>2011-04-27T10:59:26Z</time>
<desc>lat.=22.212416, lon.=104.415268, Alt.=464.410400m. Speed=0.000000m/h.</desc>
<speed>0.000000</speed>
</trkpt>
<trkpt lat="22.212414" lon="104.415268">
<ele>464.426025</ele>
<time>2011-04-27T10:59:31Z</time>
<desc>lat.=22.212414, lon.=104.415268, Alt.=464.426025m. Speed=0.000000m/h.</desc>
<speed>0.000000</speed>
</trkpt>
<trkpt lat="22.212414" lon="104.415268">
<ele>464.441650</ele>
<time>2011-04-27T10:59:36Z</time>
<desc>lat.=22.212414, lon.=104.415268, Alt.=464.441650m. Speed=0.000000m/h.</desc>
<speed>0.000000</speed>
</trkpt>
<trkpt lat="22.212414" lon="104.415268">
<ele>464.441650</ele>
<time>2011-04-27T10:59:41Z</time>
<desc>lat.=22.212414, lon.=104.415268, Alt.=464.441650m. Speed=0.000000m/h.</desc>
<speed>0.000000</speed>
</trkpt>
<trkpt lat="22.212414" lon="104.415268">
<ele>464.449463</ele>
<time>2011-04-27T10:59:46Z</time>
<desc>lat.=22.212414, lon.=104.415268, Alt.=464.449463m. Speed=0.036000m/h.</desc>
<speed>0.010000</speed>
</trkpt>
<trkpt lat="22.212414" lon="104.415268">
<ele>464.472900</ele>
<time>2011-04-27T10:59:51Z</time>
<desc>lat.=22.212414, lon.=104.415268, Alt.=464.472900m. Speed=0.000000m/h.</desc>
<speed>0.000000</speed>
</trkpt>
<trkpt lat="22.212414" lon="104.415268">
<ele>464.480713</ele>
<time>2011-04-27T10:59:56Z</time>
<desc>lat.=22.212414, lon.=104.415268, Alt.=464.480713m. Speed=0.000000m/h.</desc>
<speed>0.000000</speed>
</trkpt>
<trkpt lat="22.212414" lon="104.415268">
<ele>464.480713</ele>
<time>2011-04-27T11:00:01Z</time>
<desc>lat.=22.212414, lon.=104.415268, Alt.=464.480713m. Speed=0.036000m/h.</desc>
<speed>0.010000</speed>
</trkpt>
<trkpt lat="22.212414" lon="104.415268">
<ele>464.480713</ele>
<time>2011-04-27T11:00:06Z</time>
<desc>lat.=22.212414, lon.=104.415268, Alt.=464.480713m. Speed=0.072000m/h.</desc>
<speed>0.020000</speed>
</trkpt>
<trkpt lat="22.212414" lon="104.415268">
<ele>464.472900</ele>
<time>2011-04-27T11:00:11Z</time>
<desc>lat.=22.212414, lon.=104.415268, Alt.=464.472900m. Speed=0.036000m/h.</desc>
<speed>0.010000</speed>
</trkpt>
<trkpt lat="22.212414" lon="104.415268">
<ele>464.472900</ele>
<time>2011-04-27T11:00:16Z</time>
<desc>lat.=22.212414, lon.=104.415268, Alt.=464.472900m. Speed=0.036000m/h.</desc>
<speed>0.010000</speed>
</trkpt>
<trkpt lat="22.212414" lon="104.415268">
<ele>464.465088</ele>
<time>2011-04-27T11:00:21Z</time>
<desc>lat.=22.212414, lon.=104.415268, Alt.=464.465088m. Speed=0.000000m/h.</desc>
<speed>0.000000</speed>
</trkpt>
<trkpt lat="22.212414" lon="104.415268">
<ele>464.465088</ele>
<time>2011-04-27T11:00:26Z</time>
<desc>lat.=22.212414, lon.=104.415268, Alt.=464.465088m. Speed=0.000000m/h.</desc>
<speed>0.000000</speed>
</trkpt>
<trkpt lat="22.212414" lon="104.415268">
<ele>464.457275</ele>
<time>2011-04-27T11:00:31Z</time>
<desc>lat.=22.212414, lon.=104.415268, Alt.=464.457275m. Speed=0.036000m/h.</desc>
<speed>0.010000</speed>
</trkpt>
<trkpt lat="22.212414" lon="104.415268">
<ele>464.449463</ele>
<time>2011-04-27T11:00:36Z</time>
<desc>lat.=22.212414, lon.=104.415268, Alt.=464.449463m. Speed=0.036000m/h.</desc>
<speed>0.010000</speed>
</trkpt>
<trkpt lat="22.212414" lon="104.415268">
<ele>464.441650</ele>
<time>2011-04-27T11:00:41Z</time>
<desc>lat.=22.212414, lon.=104.415268, Alt.=464.441650m. Speed=0.000000m/h.</desc>
<speed>0.000000</speed>
</trkpt>
<trkpt lat="22.212414" lon="104.415268">
<ele>464.426025</ele>
<time>2011-04-27T11:00:46Z</time>
<desc>lat.=22.212414, lon.=104.415268, Alt.=464.426025m. Speed=0.036000m/h.</desc>
<speed>0.010000</speed>
</trkpt>
<trkpt lat="22.212414" lon="104.415268">
<ele>464.410400</ele>
<time>2011-04-27T11:00:51Z</time>
<desc>lat.=22.212414, lon.=104.415268, Alt.=464.410400m. Speed=0.000000m/h.</desc>
<speed>0.000000</speed>
</trkpt>
<trkpt lat="22.212414" lon="104.415268">
<ele>464.402588</ele>
<time>2011-04-27T11:00:56Z</time>
<desc>lat.=22.212414, lon.=104.415268, Alt.=464.402588m. Speed=0.036000m/h.</desc>
<speed>0.010000</speed>
</trkpt>
<trkpt lat="22.212414" lon="104.415268">
<ele>464.394775</ele>
<time>2011-04-27T11:01:01Z</time>
<desc>lat.=22.212414, lon.=104.415268, Alt.=464.394775m. Speed=0.036000m/h.</desc>
<speed>0.010000</speed>
</trkpt>
<trkpt lat="22.212414" lon="104.415268">
<ele>464.394775</ele>
<time>2011-04-27T11:01:06Z</time>
<desc>lat.=22.212414, lon.=104.415268, Alt.=464.394775m. Speed=0.000000m/h.</desc>
<speed>0.000000</speed>
</trkpt>
<trkpt lat="22.212414" lon="104.415268">
<ele>464.402588</ele>
<time>2011-04-27T11:01:11Z</time>
<desc>lat.=22.212414, lon.=104.415268, Alt.=464.402588m. Speed=0.108000m/h.</desc>
<speed>0.030000</speed>
</trkpt>
<trkpt lat="22.212414" lon="104.415268">
<ele>464.426025</ele>
<time>2011-04-27T11:01:16Z</time>
<desc>lat.=22.212414, lon.=104.415268, Alt.=464.426025m. Speed=0.072000m/h.</desc>
<speed>0.020000</speed>
</trkpt>
<trkpt lat="22.212414" lon="104.415268">
<ele>464.433838</ele>
<time>2011-04-27T11:01:21Z</time>
<desc>lat.=22.212414, lon.=104.415268, Alt.=464.433838m. Speed=0.000000m/h.</desc>
<speed>0.000000</speed>
</trkpt>
<trkpt lat="22.212414" lon="104.415268">
<ele>464.433838</ele>
<time>2011-04-27T11:01:26Z</time>
<desc>lat.=22.212414, lon.=104.415268, Alt.=464.433838m. Speed=0.036000m/h.</desc>
<speed>0.010000</speed>
</trkpt>
<trkpt lat="22.212412" lon="104.415268">
<ele>464.480713</ele>
<time>2011-04-27T11:01:31Z</time>
<desc>lat.=22.212412, lon.=104.415268, Alt.=464.480713m. Speed=0.000000m/h.</desc>
<speed>0.000000</speed>
</trkpt>
<trkpt lat="22.212412" lon="104.415268">
<ele>464.535400</ele>
<time>2011-04-27T11:01:36Z</time>
<desc>lat.=22.212412, lon.=104.415268, Alt.=464.535400m. Speed=0.036000m/h.</desc>
<speed>0.010000</speed>
</trkpt>
<trkpt lat="22.212412" lon="104.415268">
<ele>464.582275</ele>
<time>2011-04-27T11:01:41Z</time>
<desc>lat.=22.212412, lon.=104.415268, Alt.=464.582275m. Speed=0.072000m/h.</desc>
<speed>0.020000</speed>
</trkpt>
<trkpt lat="22.212412" lon="104.415268">
<ele>464.613525</ele>
<time>2011-04-27T11:01:46Z</time>
<desc>lat.=22.212412, lon.=104.415268, Alt.=464.613525m. Speed=0.000000m/h.</desc>
<speed>0.000000</speed>
</trkpt>
<trkpt lat="22.212412" lon="104.415268">
<ele>464.644775</ele>
<time>2011-04-27T11:01:51Z</time>
<desc>lat.=22.212412, lon.=104.415268, Alt.=464.644775m. Speed=0.036000m/h.</desc>
<speed>0.010000</speed>
</trkpt>
<trkpt lat="22.212412" lon="104.415268">
<ele>464.668213</ele>
<time>2011-04-27T11:01:56Z</time>
<desc>lat.=22.212412, lon.=104.415268, Alt.=464.668213m. Speed=0.000000m/h.</desc>
<speed>0.000000</speed>
</trkpt>
<trkpt lat="22.212412" lon="104.415268">
<ele>464.683838</ele>
<time>2011-04-27T11:02:01Z</time>
<desc>lat.=22.212412, lon.=104.415268, Alt.=464.683838m. Speed=0.036000m/h.</desc>
<speed>0.010000</speed>
</trkpt>
<trkpt lat="22.212412" lon="104.415268">
<ele>464.699463</ele>
<time>2011-04-27T11:02:06Z</time>
<desc>lat.=22.212412, lon.=104.415268, Alt.=464.699463m. Speed=0.000000m/h.</desc>
<speed>0.000000</speed>
</trkpt>
<trkpt lat="22.212412" lon="104.415268">
<ele>464.715088</ele>
<time>2011-04-27T11:02:11Z</time>
<desc>lat.=22.212412, lon.=104.415268, Alt.=464.715088m. Speed=0.000000m/h.</desc>
<speed>0.000000</speed>
</trkpt>
<trkpt lat="22.212412" lon="104.415268">
<ele>464.738525</ele>
<time>2011-04-27T11:02:16Z</time>
<desc>lat.=22.212412, lon.=104.415268, Alt.=464.738525m. Speed=0.072000m/h.</desc>
<speed>0.020000</speed>
</trkpt>
<trkpt lat="22.212412" lon="104.415268">
<ele>464.730713</ele>
<time>2011-04-27T11:02:21Z</time>
<desc>lat.=22.212412, lon.=104.415268, Alt.=464.730713m. Speed=0.036000m/h.</desc>
<speed>0.010000</speed>
</trkpt>
<trkpt lat="22.212412" lon="104.415268">
<ele>464.691650</ele>
<time>2011-04-27T11:02:26Z</time>
<desc>lat.=22.212412, lon.=104.415268, Alt.=464.691650m. Speed=0.108000m/h.</desc>
<speed>0.030000</speed>
</trkpt>
<trkpt lat="22.212412" lon="104.415268">
<ele>464.613525</ele>
<time>2011-04-27T11:02:31Z</time>
<desc>lat.=22.212412, lon.=104.415268, Alt.=464.613525m. Speed=0.000000m/h.</desc>
<speed>0.000000</speed>
</trkpt>
<trkpt lat="22.212414" lon="104.415268">
<ele>464.472900</ele>
<time>2011-04-27T11:02:36Z</time>
<desc>lat.=22.212414, lon.=104.415268, Alt.=464.472900m. Speed=0.108000m/h.</desc>
<speed>0.030000</speed>
</trkpt>
<trkpt lat="22.212414" lon="104.415268">
<ele>464.371338</ele>
<time>2011-04-27T11:02:41Z</time>
<desc>lat.=22.212414, lon.=104.415268, Alt.=464.371338m. Speed=0.108000m/h.</desc>
<speed>0.030000</speed>
</trkpt>
<trkpt lat="22.212416" lon="104.415268">
<ele>464.332275</ele>
<time>2011-04-27T11:02:46Z</time>
<desc>lat.=22.212416, lon.=104.415268, Alt.=464.332275m. Speed=0.036000m/h.</desc>
<speed>0.010000</speed>
</trkpt>
<trkpt lat="22.212416" lon="104.415268">
<ele>464.293213</ele>
<time>2011-04-27T11:02:51Z</time>
<desc>lat.=22.212416, lon.=104.415268, Alt.=464.293213m. Speed=0.036000m/h.</desc>
<speed>0.010000</speed>
</trkpt>
<trkpt lat="22.212414" lon="104.415268">
<ele>464.285400</ele>
<time>2011-04-27T11:02:56Z</time>
<desc>lat.=22.212414, lon.=104.415268, Alt.=464.285400m. Speed=0.072000m/h.</desc>
<speed>0.020000</speed>
</trkpt>
<trkpt lat="22.212414" lon="104.415268">
<ele>464.238525</ele>
<time>2011-04-27T11:03:01Z</time>
<desc>lat.=22.212414, lon.=104.415268, Alt.=464.238525m. Speed=0.072000m/h.</desc>
<speed>0.020000</speed>
</trkpt>
<trkpt lat="22.212414" lon="104.415268">
<ele>464.191650</ele>
<time>2011-04-27T11:03:06Z</time>
<desc>lat.=22.212414, lon.=104.415268, Alt.=464.191650m. Speed=0.072000m/h.</desc>
<speed>0.020000</speed>
</trkpt>
<trkpt lat="22.212414" lon="104.415268">
<ele>464.136963</ele>
<time>2011-04-27T11:03:11Z</time>
<desc>lat.=22.212414, lon.=104.415268, Alt.=464.136963m. Speed=0.036000m/h.</desc>
<speed>0.010000</speed>
</trkpt>
<trkpt lat="22.212414" lon="104.415268">
<ele>464.090088</ele>
<time>2011-04-27T11:03:16Z</time>
<desc>lat.=22.212414, lon.=104.415268, Alt.=464.090088m. Speed=0.108000m/h.</desc>
<speed>0.030000</speed>
</trkpt>
<trkpt lat="22.212414" lon="104.415268">
<ele>464.051025</ele>
<time>2011-04-27T11:03:21Z</time>
<desc>lat.=22.212414, lon.=104.415268, Alt.=464.051025m. Speed=0.000000m/h.</desc>
<speed>0.000000</speed>
</trkpt>
<trkpt lat="22.212414" lon="104.415268">
<ele>464.027588</ele>
<time>2011-04-27T11:03:26Z</time>
<desc>lat.=22.212414, lon.=104.415268, Alt.=464.027588m. Speed=0.000000m/h.</desc>
<speed>0.000000</speed>
</trkpt>
<trkpt lat="22.212414" lon="104.415260">
<ele>463.996338</ele>
<time>2011-04-27T11:03:31Z</time>
<desc>lat.=22.212414, lon.=104.415260, Alt.=463.996338m. Speed=0.108000m/h.</desc>
<speed>0.030000</speed>
</trkpt>
<trkpt lat="22.212414" lon="104.415260">
<ele>463.980713</ele>
<time>2011-04-27T11:03:36Z</time>
<desc>lat.=22.212414, lon.=104.415260, Alt.=463.980713m. Speed=0.072000m/h.</desc>
<speed>0.020000</speed>
</trkpt>
<trkpt lat="22.212412" lon="104.415260">
<ele>463.957275</ele>
<time>2011-04-27T11:03:41Z</time>
<desc>lat.=22.212412, lon.=104.415260, Alt.=463.957275m. Speed=0.072000m/h.</desc>
<speed>0.020000</speed>
</trkpt>
<trkpt lat="22.212412" lon="104.415260">
<ele>463.957275</ele>
<time>2011-04-27T11:03:46Z</time>
<desc>lat.=22.212412, lon.=104.415260, Alt.=463.957275m. Speed=0.036000m/h.</desc>
<speed>0.010000</speed>
</trkpt>
<trkpt lat="22.212412" lon="104.415260">
<ele>463.972900</ele>
<time>2011-04-27T11:03:51Z</time>
<desc>lat.=22.212412, lon.=104.415260, Alt.=463.972900m. Speed=0.000000m/h.</desc>
<speed>0.000000</speed>
</trkpt>
<trkpt lat="22.212412" lon="104.415260">
<ele>463.988525</ele>
<time>2011-04-27T11:03:56Z</time>
<desc>lat.=22.212412, lon.=104.415260, Alt.=463.988525m. Speed=0.036000m/h.</desc>
<speed>0.010000</speed>
</trkpt>
<trkpt lat="22.212412" lon="104.415260">
<ele>463.972900</ele>
<time>2011-04-27T11:04:01Z</time>
<desc>lat.=22.212412, lon.=104.415260, Alt.=463.972900m. Speed=0.108000m/h.</desc>
<speed>0.030000</speed>
</trkpt>
<trkpt lat="22.212414" lon="104.415260">
<ele>463.941650</ele>
<time>2011-04-27T11:04:06Z</time>
<desc>lat.=22.212414, lon.=104.415260, Alt.=463.941650m. Speed=0.072000m/h.</desc>
<speed>0.020000</speed>
</trkpt>
<trkpt lat="22.212414" lon="104.415260">
<ele>463.933838</ele>
<time>2011-04-27T11:04:11Z</time>
<desc>lat.=22.212414, lon.=104.415260, Alt.=463.933838m. Speed=0.000000m/h.</desc>
<speed>0.000000</speed>
</trkpt>
<trkpt lat="22.212414" lon="104.415260">
<ele>463.918213</ele>
<time>2011-04-27T11:04:16Z</time>
<desc>lat.=22.212414, lon.=104.415260, Alt.=463.918213m. Speed=0.072000m/h.</desc>
<speed>0.020000</speed>
</trkpt>
<trkpt lat="22.212414" lon="104.415260">
<ele>463.886963</ele>
<time>2011-04-27T11:04:21Z</time>
<desc>lat.=22.212414, lon.=104.415260, Alt.=463.886963m. Speed=0.000000m/h.</desc>
<speed>0.000000</speed>
</trkpt>
<trkpt lat="22.212414" lon="104.415260">
<ele>463.855713</ele>
<time>2011-04-27T11:04:26Z</time>
<desc>lat.=22.212414, lon.=104.415260, Alt.=463.855713m. Speed=0.036000m/h.</desc>
<speed>0.010000</speed>
</trkpt>
<trkpt lat="22.212414" lon="104.415260">
<ele>463.816650</ele>
<time>2011-04-27T11:04:31Z</time>
<desc>lat.=22.212414, lon.=104.415260, Alt.=463.816650m. Speed=0.000000m/h.</desc>
<speed>0.000000</speed>
</trkpt>
<trkpt lat="22.212414" lon="104.415260">
<ele>463.801025</ele>
<time>2011-04-27T11:04:36Z</time>
<desc>lat.=22.212414, lon.=104.415260, Alt.=463.801025m. Speed=0.072000m/h.</desc>
<speed>0.020000</speed>
</trkpt>
<trkpt lat="22.212414" lon="104.415260">
<ele>463.793213</ele>
<time>2011-04-27T11:04:41Z</time>
<desc>lat.=22.212414, lon.=104.415260, Alt.=463.793213m. Speed=0.000000m/h.</desc>
<speed>0.000000</speed>
</trkpt>
<trkpt lat="22.212414" lon="104.415260">
<ele>463.785400</ele>
<time>2011-04-27T11:04:46Z</time>
<desc>lat.=22.212414, lon.=104.415260, Alt.=463.785400m. Speed=0.072000m/h.</desc>
<speed>0.020000</speed>
</trkpt>
<trkpt lat="22.212414" lon="104.415260">
<ele>463.769775</ele>
<time>2011-04-27T11:04:51Z</time>
<desc>lat.=22.212414, lon.=104.415260, Alt.=463.769775m. Speed=0.000000m/h.</desc>
<speed>0.000000</speed>
</trkpt>
<trkpt lat="22.212414" lon="104.415260">
<ele>463.754150</ele>
<time>2011-04-27T11:04:56Z</time>
<desc>lat.=22.212414, lon.=104.415260, Alt.=463.754150m. Speed=0.036000m/h.</desc>
<speed>0.010000</speed>
</trkpt>
<trkpt lat="22.212416" lon="104.415260">
<ele>463.754150</ele>
<time>2011-04-27T11:05:01Z</time>
<desc>lat.=22.212416, lon.=104.415260, Alt.=463.754150m. Speed=0.036000m/h.</desc>
<speed>0.010000</speed>
</trkpt>
<trkpt lat="22.212416" lon="104.415260">
<ele>463.754150</ele>
<time>2011-04-27T11:05:06Z</time>
<desc>lat.=22.212416, lon.=104.415260, Alt.=463.754150m. Speed=0.072000m/h.</desc>
<speed>0.020000</speed>
</trkpt>
<trkpt lat="22.212416" lon="104.415260">
<ele>463.793213</ele>
<time>2011-04-27T11:05:11Z</time>
<desc>lat.=22.212416, lon.=104.415260, Alt.=463.793213m. Speed=0.144000m/h.</desc>
<speed>0.040000</speed>
</trkpt>
<trkpt lat="22.212416" lon="104.415260">
<ele>463.793213</ele>
<time>2011-04-27T11:05:16Z</time>
<desc>lat.=22.212416, lon.=104.415260, Alt.=463.793213m. Speed=0.000000m/h.</desc>
<speed>0.000000</speed>
</trkpt>
<trkpt lat="22.212416" lon="104.415260">
<ele>463.746338</ele>
<time>2011-04-27T11:05:21Z</time>
<desc>lat.=22.212416, lon.=104.415260, Alt.=463.746338m. Speed=0.072000m/h.</desc>
<speed>0.020000</speed>
</trkpt>
<trkpt lat="22.212418" lon="104.415260">
<ele>463.707275</ele>
<time>2011-04-27T11:05:26Z</time>
<desc>lat.=22.212418, lon.=104.415260, Alt.=463.707275m. Speed=0.108000m/h.</desc>
<speed>0.030000</speed>
</trkpt>
<trkpt lat="22.212418" lon="104.415260">
<ele>463.660400</ele>
<time>2011-04-27T11:05:31Z</time>
<desc>lat.=22.212418, lon.=104.415260, Alt.=463.660400m. Speed=0.108000m/h.</desc>
<speed>0.030000</speed>
</trkpt>
<trkpt lat="22.212418" lon="104.415260">
<ele>463.590088</ele>
<time>2011-04-27T11:05:36Z</time>
<desc>lat.=22.212418, lon.=104.415260, Alt.=463.590088m. Speed=0.072000m/h.</desc>
<speed>0.020000</speed>
</trkpt>
<trkpt lat="22.212418" lon="104.415260">
<ele>463.504150</ele>
<time>2011-04-27T11:05:41Z</time>
<desc>lat.=22.212418, lon.=104.415260, Alt.=463.504150m. Speed=0.036000m/h.</desc>
<speed>0.010000</speed>
</trkpt>
<trkpt lat="22.212418" lon="104.415260">
<ele>463.465088</ele>
<time>2011-04-27T11:05:46Z</time>
<desc>lat.=22.212418, lon.=104.415260, Alt.=463.465088m. Speed=0.144000m/h.</desc>
<speed>0.040000</speed>
</trkpt>
<trkpt lat="22.212418" lon="104.415260">
<ele>463.426025</ele>
<time>2011-04-27T11:05:51Z</time>
<desc>lat.=22.212418, lon.=104.415260, Alt.=463.426025m. Speed=0.072000m/h.</desc>
<speed>0.020000</speed>
</trkpt>
<trkpt lat="22.212418" lon="104.415260">
<ele>463.418213</ele>
<time>2011-04-27T11:05:56Z</time>
<desc>lat.=22.212418, lon.=104.415260, Alt.=463.418213m. Speed=0.036000m/h.</desc>
<speed>0.010000</speed>
</trkpt>
<trkpt lat="22.212418" lon="104.415260">
<ele>463.386963</ele>
<time>2011-04-27T11:06:01Z</time>
<desc>lat.=22.212418, lon.=104.415260, Alt.=463.386963m. Speed=0.036000m/h.</desc>
<speed>0.010000</speed>
</trkpt>
<trkpt lat="22.212418" lon="104.415260">
<ele>463.371338</ele>
<time>2011-04-27T11:06:06Z</time>
<desc>lat.=22.212418, lon.=104.415260, Alt.=463.371338m. Speed=0.000000m/h.</desc>
<speed>0.000000</speed>
</trkpt>
<trkpt lat="22.212418" lon="104.415260">
<ele>463.340088</ele>
<time>2011-04-27T11:06:11Z</time>
<desc>lat.=22.212418, lon.=104.415260, Alt.=463.340088m. Speed=0.000000m/h.</desc>
<speed>0.000000</speed>
</trkpt>
<trkpt lat="22.212418" lon="104.415260">
<ele>463.340088</ele>
<time>2011-04-27T11:06:16Z</time>
<desc>lat.=22.212418, lon.=104.415260, Alt.=463.340088m. Speed=0.108000m/h.</desc>
<speed>0.030000</speed>
</trkpt>
<trkpt lat="22.212418" lon="104.415260">
<ele>463.379150</ele>
<time>2011-04-27T11:06:21Z</time>
<desc>lat.=22.212418, lon.=104.415260, Alt.=463.379150m. Speed=0.072000m/h.</desc>
<speed>0.020000</speed>
</trkpt>
<trkpt lat="22.212418" lon="104.415260">
<ele>463.449463</ele>
<time>2011-04-27T11:06:26Z</time>
<desc>lat.=22.212418, lon.=104.415260, Alt.=463.449463m. Speed=0.072000m/h.</desc>
<speed>0.020000</speed>
</trkpt>
<trkpt lat="22.212418" lon="104.415260">
<ele>463.504150</ele>
<time>2011-04-27T11:06:31Z</time>
<desc>lat.=22.212418, lon.=104.415260, Alt.=463.504150m. Speed=0.108000m/h.</desc>
<speed>0.030000</speed>
</trkpt>
<trkpt lat="22.212418" lon="104.415260">
<ele>463.543213</ele>
<time>2011-04-27T11:06:36Z</time>
<desc>lat.=22.212418, lon.=104.415260, Alt.=463.543213m. Speed=0.000000m/h.</desc>
<speed>0.000000</speed>
</trkpt>
<trkpt lat="22.212418" lon="104.415260">
<ele>463.590088</ele>
<time>2011-04-27T11:06:41Z</time>
<desc>lat.=22.212418, lon.=104.415260, Alt.=463.590088m. Speed=0.036000m/h.</desc>
<speed>0.010000</speed>
</trkpt>
<trkpt lat="22.212418" lon="104.415260">
<ele>463.629150</ele>
<time>2011-04-27T11:06:46Z</time>
<desc>lat.=22.212418, lon.=104.415260, Alt.=463.629150m. Speed=0.000000m/h.</desc>
<speed>0.000000</speed>
</trkpt>
<trkpt lat="22.212418" lon="104.415260">
<ele>463.652588</ele>
<time>2011-04-27T11:06:51Z</time>
<desc>lat.=22.212418, lon.=104.415260, Alt.=463.652588m. Speed=0.180000m/h.</desc>
<speed>0.050000</speed>
</trkpt>
<trkpt lat="22.212418" lon="104.415260">
<ele>463.644775</ele>
<time>2011-04-27T11:06:56Z</time>
<desc>lat.=22.212418, lon.=104.415260, Alt.=463.644775m. Speed=0.108000m/h.</desc>
<speed>0.030000</speed>
</trkpt>
<trkpt lat="22.212416" lon="104.415260">
<ele>463.636963</ele>
<time>2011-04-27T11:07:01Z</time>
<desc>lat.=22.212416, lon.=104.415260, Alt.=463.636963m. Speed=0.144000m/h.</desc>
<speed>0.040000</speed>
</trkpt>
<trkpt lat="22.212416" lon="104.415260">
<ele>463.691650</ele>
<time>2011-04-27T11:07:06Z</time>
<desc>lat.=22.212416, lon.=104.415260, Alt.=463.691650m. Speed=0.108000m/h.</desc>
<speed>0.030000</speed>
</trkpt>
<trkpt lat="22.212414" lon="104.415260">
<ele>463.738525</ele>
<time>2011-04-27T11:07:11Z</time>
<desc>lat.=22.212414, lon.=104.415260, Alt.=463.738525m. Speed=0.036000m/h.</desc>
<speed>0.010000</speed>
</trkpt>
<trkpt lat="22.212414" lon="104.415260">
<ele>463.777588</ele>
<time>2011-04-27T11:07:16Z</time>
<desc>lat.=22.212414, lon.=104.415260, Alt.=463.777588m. Speed=0.072000m/h.</desc>
<speed>0.020000</speed>
</trkpt>
<trkpt lat="22.212414" lon="104.415260">
<ele>463.824463</ele>
<time>2011-04-27T11:07:21Z</time>
<desc>lat.=22.212414, lon.=104.415260, Alt.=463.824463m. Speed=0.072000m/h.</desc>
<speed>0.020000</speed>
</trkpt>
<trkpt lat="22.212414" lon="104.415260">
<ele>463.855713</ele>
<time>2011-04-27T11:07:26Z</time>
<desc>lat.=22.212414, lon.=104.415260, Alt.=463.855713m. Speed=0.108000m/h.</desc>
<speed>0.030000</speed>
</trkpt>
<trkpt lat="22.212414" lon="104.415260">
<ele>463.910400</ele>
<time>2011-04-27T11:07:31Z</time>
<desc>lat.=22.212414, lon.=104.415260, Alt.=463.910400m. Speed=0.072000m/h.</desc>
<speed>0.020000</speed>
</trkpt>
<trkpt lat="22.212414" lon="104.415253">
<ele>463.918213</ele>
<time>2011-04-27T11:07:36Z</time>
<desc>lat.=22.212414, lon.=104.415253, Alt.=463.918213m. Speed=0.108000m/h.</desc>
<speed>0.030000</speed>
</trkpt>
<trkpt lat="22.212412" lon="104.415253">
<ele>463.902588</ele>
<time>2011-04-27T11:07:41Z</time>
<desc>lat.=22.212412, lon.=104.415253, Alt.=463.902588m. Speed=0.072000m/h.</desc>
<speed>0.020000</speed>
</trkpt>
<trkpt lat="22.212412" lon="104.415253">
<ele>463.886963</ele>
<time>2011-04-27T11:07:46Z</time>
<desc>lat.=22.212412, lon.=104.415253, Alt.=463.886963m. Speed=0.108000m/h.</desc>
<speed>0.030000</speed>
</trkpt>
<trkpt lat="22.212412" lon="104.415253">
<ele>463.910400</ele>
<time>2011-04-27T11:07:51Z</time>
<desc>lat.=22.212412, lon.=104.415253, Alt.=463.910400m. Speed=0.000000m/h.</desc>
<speed>0.000000</speed>
</trkpt>
<trkpt lat="22.212412" lon="104.415253">
<ele>463.941650</ele>
<time>2011-04-27T11:07:56Z</time>
<desc>lat.=22.212412, lon.=104.415253, Alt.=463.941650m. Speed=0.108000m/h.</desc>
<speed>0.030000</speed>
</trkpt>
<trkpt lat="22.212410" lon="104.415253">
<ele>463.972900</ele>
<time>2011-04-27T11:08:01Z</time>
<desc>lat.=22.212410, lon.=104.415253, Alt.=463.972900m. Speed=0.072000m/h.</desc>
<speed>0.020000</speed>
</trkpt>
<trkpt lat="22.212410" lon="104.415253">
<ele>464.043213</ele>
<time>2011-04-27T11:08:06Z</time>
<desc>lat.=22.212410, lon.=104.415253, Alt.=464.043213m. Speed=0.000000m/h.</desc>
<speed>0.000000</speed>
</trkpt>
<trkpt lat="22.212410" lon="104.415253">
<ele>464.074463</ele>
<time>2011-04-27T11:08:11Z</time>
<desc>lat.=22.212410, lon.=104.415253, Alt.=464.074463m. Speed=0.144000m/h.</desc>
<speed>0.040000</speed>
</trkpt>
<trkpt lat="22.212410" lon="104.415253">
<ele>464.113525</ele>
<time>2011-04-27T11:08:16Z</time>
<desc>lat.=22.212410, lon.=104.415253, Alt.=464.113525m. Speed=0.108000m/h.</desc>
<speed>0.030000</speed>
</trkpt>
<trkpt lat="22.212408" lon="104.415253">
<ele>464.168213</ele>
<time>2011-04-27T11:08:21Z</time>
<desc>lat.=22.212408, lon.=104.415253, Alt.=464.168213m. Speed=0.036000m/h.</desc>
<speed>0.010000</speed>
</trkpt>
<trkpt lat="22.212408" lon="104.415253">
<ele>464.207275</ele>
<time>2011-04-27T11:08:26Z</time>
<desc>lat.=22.212408, lon.=104.415253, Alt.=464.207275m. Speed=0.072000m/h.</desc>
<speed>0.020000</speed>
</trkpt>
<trkpt lat="22.212408" lon="104.415253">
<ele>464.261963</ele>
<time>2011-04-27T11:08:31Z</time>
<desc>lat.=22.212408, lon.=104.415253, Alt.=464.261963m. Speed=0.072000m/h.</desc>
<speed>0.020000</speed>
</trkpt>
<trkpt lat="22.212408" lon="104.415253">
<ele>464.308838</ele>
<time>2011-04-27T11:08:36Z</time>
<desc>lat.=22.212408, lon.=104.415253, Alt.=464.308838m. Speed=0.108000m/h.</desc>
<speed>0.030000</speed>
</trkpt>
<trkpt lat="22.212408" lon="104.415253">
<ele>464.355713</ele>
<time>2011-04-27T11:08:41Z</time>
<desc>lat.=22.212408, lon.=104.415253, Alt.=464.355713m. Speed=0.072000m/h.</desc>
<speed>0.020000</speed>
</trkpt>
<trkpt lat="22.212406" lon="104.415253">
<ele>464.394775</ele>
<time>2011-04-27T11:08:46Z</time>
<desc>lat.=22.212406, lon.=104.415253, Alt.=464.394775m. Speed=0.108000m/h.</desc>
<speed>0.030000</speed>
</trkpt>
<trkpt lat="22.212406" lon="104.415253">
<ele>464.402588</ele>
<time>2011-04-27T11:08:51Z</time>
<desc>lat.=22.212406, lon.=104.415253, Alt.=464.402588m. Speed=0.036000m/h.</desc>
<speed>0.010000</speed>
</trkpt>
<trkpt lat="22.212406" lon="104.415253">
<ele>464.418213</ele>
<time>2011-04-27T11:08:56Z</time>
<desc>lat.=22.212406, lon.=104.415253, Alt.=464.418213m. Speed=0.000000m/h.</desc>
<speed>0.000000</speed>
</trkpt>
<trkpt lat="22.212406" lon="104.415253">
<ele>464.426025</ele>
<time>2011-04-27T11:09:01Z</time>
<desc>lat.=22.212406, lon.=104.415253, Alt.=464.426025m. Speed=0.036000m/h.</desc>
<speed>0.010000</speed>
</trkpt>
<trkpt lat="22.212406" lon="104.415253">
<ele>464.472900</ele>
<time>2011-04-27T11:09:06Z</time>
<desc>lat.=22.212406, lon.=104.415253, Alt.=464.472900m. Speed=0.108000m/h.</desc>
<speed>0.030000</speed>
</trkpt>
<trkpt lat="22.212406" lon="104.415253">
<ele>464.511963</ele>
<time>2011-04-27T11:09:11Z</time>
<desc>lat.=22.212406, lon.=104.415253, Alt.=464.511963m. Speed=0.180000m/h.</desc>
<speed>0.050000</speed>
</trkpt>
<trkpt lat="22.212406" lon="104.415253">
<ele>464.566650</ele>
<time>2011-04-27T11:09:16Z</time>
<desc>lat.=22.212406, lon.=104.415253, Alt.=464.566650m. Speed=0.144000m/h.</desc>
<speed>0.040000</speed>
</trkpt>
<trkpt lat="22.212406" lon="104.415253">
<ele>464.621338</ele>
<time>2011-04-27T11:09:21Z</time>
<desc>lat.=22.212406, lon.=104.415253, Alt.=464.621338m. Speed=0.144000m/h.</desc>
<speed>0.040000</speed>
</trkpt>
<trkpt lat="22.212406" lon="104.415245">
<ele>464.636963</ele>
<time>2011-04-27T11:09:26Z</time>
<desc>lat.=22.212406, lon.=104.415245, Alt.=464.636963m. Speed=0.072000m/h.</desc>
<speed>0.020000</speed>
</trkpt>
<trkpt lat="22.212406" lon="104.415253">
<ele>464.644775</ele>
<time>2011-04-27T11:09:31Z</time>
<desc>lat.=22.212406, lon.=104.415253, Alt.=464.644775m. Speed=0.036000m/h.</desc>
<speed>0.010000</speed>
</trkpt>
<trkpt lat="22.212406" lon="104.415253">
<ele>464.652588</ele>
<time>2011-04-27T11:09:36Z</time>
<desc>lat.=22.212406, lon.=104.415253, Alt.=464.652588m. Speed=0.108000m/h.</desc>
<speed>0.030000</speed>
</trkpt>
<trkpt lat="22.212406" lon="104.415253">
<ele>464.660400</ele>
<time>2011-04-27T11:09:41Z</time>
<desc>lat.=22.212406, lon.=104.415253, Alt.=464.660400m. Speed=0.036000m/h.</desc>
<speed>0.010000</speed>
</trkpt>
<trkpt lat="22.212406" lon="104.415253">
<ele>464.683838</ele>
<time>2011-04-27T11:09:46Z</time>
<desc>lat.=22.212406, lon.=104.415253, Alt.=464.683838m. Speed=0.036000m/h.</desc>
<speed>0.010000</speed>
</trkpt>
<trkpt lat="22.212406" lon="104.415253">
<ele>464.699463</ele>
<time>2011-04-27T11:09:51Z</time>
<desc>lat.=22.212406, lon.=104.415253, Alt.=464.699463m. Speed=0.072000m/h.</desc>
<speed>0.020000</speed>
</trkpt>
<trkpt lat="22.212404" lon="104.415253">
<ele>464.699463</ele>
<time>2011-04-27T11:09:56Z</time>
<desc>lat.=22.212404, lon.=104.415253, Alt.=464.699463m. Speed=0.108000m/h.</desc>
<speed>0.030000</speed>
</trkpt>
<trkpt lat="22.212404" lon="104.415253">
<ele>464.691650</ele>
<time>2011-04-27T11:10:01Z</time>
<desc>lat.=22.212404, lon.=104.415253, Alt.=464.691650m. Speed=0.036000m/h.</desc>
<speed>0.010000</speed>
</trkpt>
<trkpt lat="22.212404" lon="104.415253">
<ele>464.715088</ele>
<time>2011-04-27T11:10:06Z</time>
<desc>lat.=22.212404, lon.=104.415253, Alt.=464.715088m. Speed=0.000000m/h.</desc>
<speed>0.000000</speed>
</trkpt>
<trkpt lat="22.212404" lon="104.415253">
<ele>464.730713</ele>
<time>2011-04-27T11:10:11Z</time>
<desc>lat.=22.212404, lon.=104.415253, Alt.=464.730713m. Speed=0.000000m/h.</desc>
<speed>0.000000</speed>
</trkpt>
<trkpt lat="22.212404" lon="104.415253">
<ele>464.761963</ele>
<time>2011-04-27T11:10:16Z</time>
<desc>lat.=22.212404, lon.=104.415253, Alt.=464.761963m. Speed=0.000000m/h.</desc>
<speed>0.000000</speed>
</trkpt>
<trkpt lat="22.212404" lon="104.415253">
<ele>464.769775</ele>
<time>2011-04-27T11:10:21Z</time>
<desc>lat.=22.212404, lon.=104.415253, Alt.=464.769775m. Speed=0.000000m/h.</desc>
<speed>0.000000</speed>
</trkpt>
<trkpt lat="22.212404" lon="104.415253">
<ele>464.769775</ele>
<time>2011-04-27T11:10:26Z</time>
<desc>lat.=22.212404, lon.=104.415253, Alt.=464.769775m. Speed=0.072000m/h.</desc>
<speed>0.020000</speed>
</trkpt>
<trkpt lat="22.212404" lon="104.415253">
<ele>464.769775</ele>
<time>2011-04-27T11:10:31Z</time>
<desc>lat.=22.212404, lon.=104.415253, Alt.=464.769775m. Speed=0.072000m/h.</desc>
<speed>0.020000</speed>
</trkpt>
<trkpt lat="22.212402" lon="104.415253">
<ele>464.777588</ele>
<time>2011-04-27T11:10:36Z</time>
<desc>lat.=22.212402, lon.=104.415253, Alt.=464.777588m. Speed=0.036000m/h.</desc>
<speed>0.010000</speed>
</trkpt>
<trkpt lat="22.212402" lon="104.415253">
<ele>464.777588</ele>
<time>2011-04-27T11:10:41Z</time>
<desc>lat.=22.212402, lon.=104.415253, Alt.=464.777588m. Speed=0.000000m/h.</desc>
<speed>0.000000</speed>
</trkpt>
<trkpt lat="22.212402" lon="104.415253">
<ele>464.761963</ele>
<time>2011-04-27T11:10:46Z</time>
<desc>lat.=22.212402, lon.=104.415253, Alt.=464.761963m. Speed=0.144000m/h.</desc>
<speed>0.040000</speed>
</trkpt>
<trkpt lat="22.212400" lon="104.415253">
<ele>464.730713</ele>
<time>2011-04-27T11:10:51Z</time>
<desc>lat.=22.212400, lon.=104.415253, Alt.=464.730713m. Speed=0.144000m/h.</desc>
<speed>0.040000</speed>
</trkpt>
<trkpt lat="22.212400" lon="104.415253">
<ele>464.715088</ele>
<time>2011-04-27T11:10:56Z</time>
<desc>lat.=22.212400, lon.=104.415253, Alt.=464.715088m. Speed=0.108000m/h.</desc>
<speed>0.030000</speed>
</trkpt>
<trkpt lat="22.212400" lon="104.415253">
<ele>464.730713</ele>
<time>2011-04-27T11:11:01Z</time>
<desc>lat.=22.212400, lon.=104.415253, Alt.=464.730713m. Speed=0.000000m/h.</desc>
<speed>0.000000</speed>
</trkpt>
<trkpt lat="22.212399" lon="104.415253">
<ele>464.746338</ele>
<time>2011-04-27T11:11:06Z</time>
<desc>lat.=22.212399, lon.=104.415253, Alt.=464.746338m. Speed=0.000000m/h.</desc>
<speed>0.000000</speed>
</trkpt>
<trkpt lat="22.212399" lon="104.415253">
<ele>464.730713</ele>
<time>2011-04-27T11:11:11Z</time>
<desc>lat.=22.212399, lon.=104.415253, Alt.=464.730713m. Speed=0.036000m/h.</desc>
<speed>0.010000</speed>
</trkpt>
<trkpt lat="22.212399" lon="104.415253">
<ele>464.683838</ele>
<time>2011-04-27T11:11:16Z</time>
<desc>lat.=22.212399, lon.=104.415253, Alt.=464.683838m. Speed=0.000000m/h.</desc>
<speed>0.000000</speed>
</trkpt>
<trkpt lat="22.212399" lon="104.415253">
<ele>464.613525</ele>
<time>2011-04-27T11:11:21Z</time>
<desc>lat.=22.212399, lon.=104.415253, Alt.=464.613525m. Speed=0.036000m/h.</desc>
<speed>0.010000</speed>
</trkpt>
<trkpt lat="22.212399" lon="104.415253">
<ele>464.543213</ele>
<time>2011-04-27T11:11:26Z</time>
<desc>lat.=22.212399, lon.=104.415253, Alt.=464.543213m. Speed=0.036000m/h.</desc>
<speed>0.010000</speed>
</trkpt>
<trkpt lat="22.212399" lon="104.415253">
<ele>464.504150</ele>
<time>2011-04-27T11:11:31Z</time>
<desc>lat.=22.212399, lon.=104.415253, Alt.=464.504150m. Speed=0.000000m/h.</desc>
<speed>0.000000</speed>
</trkpt>
<trkpt lat="22.212399" lon="104.415253">
<ele>464.472900</ele>
<time>2011-04-27T11:11:36Z</time>
<desc>lat.=22.212399, lon.=104.415253, Alt.=464.472900m. Speed=0.072000m/h.</desc>
<speed>0.020000</speed>
</trkpt>
<trkpt lat="22.212399" lon="104.415253">
<ele>464.472900</ele>
<time>2011-04-27T11:11:41Z</time>
<desc>lat.=22.212399, lon.=104.415253, Alt.=464.472900m. Speed=0.144000m/h.</desc>
<speed>0.040000</speed>
</trkpt>
<trkpt lat="22.212399" lon="104.415253">
<ele>464.504150</ele>
<time>2011-04-27T11:11:46Z</time>
<desc>lat.=22.212399, lon.=104.415253, Alt.=464.504150m. Speed=0.072000m/h.</desc>
<speed>0.020000</speed>
</trkpt>
<trkpt lat="22.212397" lon="104.415253">
<ele>464.535400</ele>
<time>2011-04-27T11:11:51Z</time>
<desc>lat.=22.212397, lon.=104.415253, Alt.=464.535400m. Speed=0.036000m/h.</desc>
<speed>0.010000</speed>
</trkpt>
<trkpt lat="22.212397" lon="104.415253">
<ele>464.597900</ele>
<time>2011-04-27T11:11:56Z</time>
<desc>lat.=22.212397, lon.=104.415253, Alt.=464.597900m. Speed=0.036000m/h.</desc>
<speed>0.010000</speed>
</trkpt>
<trkpt lat="22.212397" lon="104.415253">
<ele>464.597900</ele>
<time>2011-04-27T11:12:01Z</time>
<desc>lat.=22.212397, lon.=104.415253, Alt.=464.597900m. Speed=0.072000m/h.</desc>
<speed>0.020000</speed>
</trkpt>
<trkpt lat="22.212397" lon="104.415253">
<ele>464.574463</ele>
<time>2011-04-27T11:12:06Z</time>
<desc>lat.=22.212397, lon.=104.415253, Alt.=464.574463m. Speed=0.072000m/h.</desc>
<speed>0.020000</speed>
</trkpt>
<trkpt lat="22.212397" lon="104.415253">
<ele>464.558838</ele>
<time>2011-04-27T11:12:11Z</time>
<desc>lat.=22.212397, lon.=104.415253, Alt.=464.558838m. Speed=0.036000m/h.</desc>
<speed>0.010000</speed>
</trkpt>
<trkpt lat="22.212395" lon="104.415253">
<ele>464.543213</ele>
<time>2011-04-27T11:12:16Z</time>
<desc>lat.=22.212395, lon.=104.415253, Alt.=464.543213m. Speed=0.072000m/h.</desc>
<speed>0.020000</speed>
</trkpt>
<trkpt lat="22.212395" lon="104.415253">
<ele>464.535400</ele>
<time>2011-04-27T11:12:21Z</time>
<desc>lat.=22.212395, lon.=104.415253, Alt.=464.535400m. Speed=0.072000m/h.</desc>
<speed>0.020000</speed>
</trkpt>
<trkpt lat="22.212395" lon="104.415253">
<ele>464.504150</ele>
<time>2011-04-27T11:12:26Z</time>
<desc>lat.=22.212395, lon.=104.415253, Alt.=464.504150m. Speed=0.144000m/h.</desc>
<speed>0.040000</speed>
</trkpt>
<trkpt lat="22.212395" lon="104.415260">
<ele>464.488525</ele>
<time>2011-04-27T11:12:31Z</time>
<desc>lat.=22.212395, lon.=104.415260, Alt.=464.488525m. Speed=0.108000m/h.</desc>
<speed>0.030000</speed>
</trkpt>
<trkpt lat="22.212393" lon="104.415260">
<ele>464.488525</ele>
<time>2011-04-27T11:12:36Z</time>
<desc>lat.=22.212393, lon.=104.415260, Alt.=464.488525m. Speed=0.108000m/h.</desc>
<speed>0.030000</speed>
</trkpt>
<trkpt lat="22.212393" lon="104.415260">
<ele>464.480713</ele>
<time>2011-04-27T11:12:41Z</time>
<desc>lat.=22.212393, lon.=104.415260, Alt.=464.480713m. Speed=0.108000m/h.</desc>
<speed>0.030000</speed>
</trkpt>
<trkpt lat="22.212393" lon="104.415260">
<ele>464.504150</ele>
<time>2011-04-27T11:12:46Z</time>
<desc>lat.=22.212393, lon.=104.415260, Alt.=464.504150m. Speed=0.072000m/h.</desc>
<speed>0.020000</speed>
</trkpt>
<trkpt lat="22.212393" lon="104.415260">
<ele>464.488525</ele>
<time>2011-04-27T11:12:51Z</time>
<desc>lat.=22.212393, lon.=104.415260, Alt.=464.488525m. Speed=0.072000m/h.</desc>
<speed>0.020000</speed>
</trkpt>
<trkpt lat="22.212393" lon="104.415260">
<ele>464.496338</ele>
<time>2011-04-27T11:12:56Z</time>
<desc>lat.=22.212393, lon.=104.415260, Alt.=464.496338m. Speed=0.036000m/h.</desc>
<speed>0.010000</speed>
</trkpt>
<trkpt lat="22.212393" lon="104.415260">
<ele>464.488525</ele>
<time>2011-04-27T11:13:01Z</time>
<desc>lat.=22.212393, lon.=104.415260, Alt.=464.488525m. Speed=0.036000m/h.</desc>
<speed>0.010000</speed>
</trkpt>
<trkpt lat="22.212393" lon="104.415260">
<ele>464.504150</ele>
<time>2011-04-27T11:13:06Z</time>
<desc>lat.=22.212393, lon.=104.415260, Alt.=464.504150m. Speed=0.072000m/h.</desc>
<speed>0.020000</speed>
</trkpt>
<trkpt lat="22.212393" lon="104.415260">
<ele>464.504150</ele>
<time>2011-04-27T11:13:11Z</time>
<desc>lat.=22.212393, lon.=104.415260, Alt.=464.504150m. Speed=0.000000m/h.</desc>
<speed>0.000000</speed>
</trkpt>
<trkpt lat="22.212393" lon="104.415260">
<ele>464.488525</ele>
<time>2011-04-27T11:13:16Z</time>
<desc>lat.=22.212393, lon.=104.415260, Alt.=464.488525m. Speed=0.036000m/h.</desc>
<speed>0.010000</speed>
</trkpt>
<trkpt lat="22.212393" lon="104.415260">
<ele>464.457275</ele>
<time>2011-04-27T11:13:21Z</time>
<desc>lat.=22.212393, lon.=104.415260, Alt.=464.457275m. Speed=0.072000m/h.</desc>
<speed>0.020000</speed>
</trkpt>
<trkpt lat="22.212393" lon="104.415260">
<ele>464.433838</ele>
<time>2011-04-27T11:13:26Z</time>
<desc>lat.=22.212393, lon.=104.415260, Alt.=464.433838m. Speed=0.144000m/h.</desc>
<speed>0.040000</speed>
</trkpt>
<trkpt lat="22.212393" lon="104.415260">
<ele>464.410400</ele>
<time>2011-04-27T11:13:31Z</time>
<desc>lat.=22.212393, lon.=104.415260, Alt.=464.410400m. Speed=0.000000m/h.</desc>
<speed>0.000000</speed>
</trkpt>
<trkpt lat="22.212393" lon="104.415260">
<ele>464.379150</ele>
<time>2011-04-27T11:13:36Z</time>
<desc>lat.=22.212393, lon.=104.415260, Alt.=464.379150m. Speed=0.072000m/h.</desc>
<speed>0.020000</speed>
</trkpt>
<trkpt lat="22.212393" lon="104.415260">
<ele>464.355713</ele>
<time>2011-04-27T11:13:41Z</time>
<desc>lat.=22.212393, lon.=104.415260, Alt.=464.355713m. Speed=0.036000m/h.</desc>
<speed>0.010000</speed>
</trkpt>
<trkpt lat="22.212391" lon="104.415260">
<ele>464.324463</ele>
<time>2011-04-27T11:13:46Z</time>
<desc>lat.=22.212391, lon.=104.415260, Alt.=464.324463m. Speed=0.216000m/h.</desc>
<speed>0.060000</speed>
</trkpt>
<trkpt lat="22.212391" lon="104.415260">
<ele>464.301025</ele>
<time>2011-04-27T11:13:51Z</time>
<desc>lat.=22.212391, lon.=104.415260, Alt.=464.301025m. Speed=0.036000m/h.</desc>
<speed>0.010000</speed>
</trkpt>
<trkpt lat="22.212391" lon="104.415260">
<ele>464.269775</ele>
<time>2011-04-27T11:13:56Z</time>
<desc>lat.=22.212391, lon.=104.415260, Alt.=464.269775m. Speed=0.000000m/h.</desc>
<speed>0.000000</speed>
</trkpt>
<trkpt lat="22.212391" lon="104.415260">
<ele>464.222900</ele>
<time>2011-04-27T11:14:01Z</time>
<desc>lat.=22.212391, lon.=104.415260, Alt.=464.222900m. Speed=0.036000m/h.</desc>
<speed>0.010000</speed>
</trkpt>
<trkpt lat="22.212389" lon="104.415260">
<ele>464.160400</ele>
<time>2011-04-27T11:14:06Z</time>
<desc>lat.=22.212389, lon.=104.415260, Alt.=464.160400m. Speed=0.108000m/h.</desc>
<speed>0.030000</speed>
</trkpt>
<trkpt lat="22.212389" lon="104.415260">
<ele>464.113525</ele>
<time>2011-04-27T11:14:11Z</time>
<desc>lat.=22.212389, lon.=104.415260, Alt.=464.113525m. Speed=0.108000m/h.</desc>
<speed>0.030000</speed>
</trkpt>
<trkpt lat="22.212389" lon="104.415260">
<ele>464.090088</ele>
<time>2011-04-27T11:14:16Z</time>
<desc>lat.=22.212389, lon.=104.415260, Alt.=464.090088m. Speed=0.072000m/h.</desc>
<speed>0.020000</speed>
</trkpt>
<trkpt lat="22.212387" lon="104.415260">
<ele>464.066650</ele>
<time>2011-04-27T11:14:21Z</time>
<desc>lat.=22.212387, lon.=104.415260, Alt.=464.066650m. Speed=0.036000m/h.</desc>
<speed>0.010000</speed>
</trkpt>
<trkpt lat="22.212387" lon="104.415260">
<ele>464.058838</ele>
<time>2011-04-27T11:14:26Z</time>
<desc>lat.=22.212387, lon.=104.415260, Alt.=464.058838m. Speed=0.108000m/h.</desc>
<speed>0.030000</speed>
</trkpt>
<trkpt lat="22.212387" lon="104.415260">
<ele>464.090088</ele>
<time>2011-04-27T11:14:31Z</time>
<desc>lat.=22.212387, lon.=104.415260, Alt.=464.090088m. Speed=0.036000m/h.</desc>
<speed>0.010000</speed>
</trkpt>
<trkpt lat="22.212387" lon="104.415260">
<ele>464.090088</ele>
<time>2011-04-27T11:14:36Z</time>
<desc>lat.=22.212387, lon.=104.415260, Alt.=464.090088m. Speed=0.108000m/h.</desc>
<speed>0.030000</speed>
</trkpt>
<trkpt lat="22.212385" lon="104.415260">
<ele>464.058838</ele>
<time>2011-04-27T11:14:41Z</time>
<desc>lat.=22.212385, lon.=104.415260, Alt.=464.058838m. Speed=0.144000m/h.</desc>
<speed>0.040000</speed>
</trkpt>
<trkpt lat="22.212385" lon="104.415260">
<ele>464.051025</ele>
<time>2011-04-27T11:14:46Z</time>
<desc>lat.=22.212385, lon.=104.415260, Alt.=464.051025m. Speed=0.144000m/h.</desc>
<speed>0.040000</speed>
</trkpt>
<trkpt lat="22.212385" lon="104.415260">
<ele>464.051025</ele>
<time>2011-04-27T11:14:51Z</time>
<desc>lat.=22.212385, lon.=104.415260, Alt.=464.051025m. Speed=0.036000m/h.</desc>
<speed>0.010000</speed>
</trkpt>
<trkpt lat="22.212383" lon="104.415268">
<ele>464.074463</ele>
<time>2011-04-27T11:14:56Z</time>
<desc>lat.=22.212383, lon.=104.415268, Alt.=464.074463m. Speed=0.216000m/h.</desc>
<speed>0.060000</speed>
</trkpt>
<trkpt lat="22.212383" lon="104.415268">
<ele>464.113525</ele>
<time>2011-04-27T11:15:01Z</time>
<desc>lat.=22.212383, lon.=104.415268, Alt.=464.113525m. Speed=0.036000m/h.</desc>
<speed>0.010000</speed>
</trkpt>
<trkpt lat="22.212383" lon="104.415268">
<ele>464.152588</ele>
<time>2011-04-27T11:15:06Z</time>
<desc>lat.=22.212383, lon.=104.415268, Alt.=464.152588m. Speed=0.000000m/h.</desc>
<speed>0.000000</speed>
</trkpt>
<trkpt lat="22.212383" lon="104.415268">
<ele>464.168213</ele>
<time>2011-04-27T11:15:11Z</time>
<desc>lat.=22.212383, lon.=104.415268, Alt.=464.168213m. Speed=0.108000m/h.</desc>
<speed>0.030000</speed>
</trkpt>
<trkpt lat="22.212383" lon="104.415268">
<ele>464.183838</ele>
<time>2011-04-27T11:15:16Z</time>
<desc>lat.=22.212383, lon.=104.415268, Alt.=464.183838m. Speed=0.036000m/h.</desc>
<speed>0.010000</speed>
</trkpt>
<trkpt lat="22.212381" lon="104.415268">
<ele>464.176025</ele>
<time>2011-04-27T11:15:21Z</time>
<desc>lat.=22.212381, lon.=104.415268, Alt.=464.176025m. Speed=0.108000m/h.</desc>
<speed>0.030000</speed>
</trkpt>
<trkpt lat="22.212381" lon="104.415268">
<ele>464.160400</ele>
<time>2011-04-27T11:15:26Z</time>
<desc>lat.=22.212381, lon.=104.415268, Alt.=464.160400m. Speed=0.072000m/h.</desc>
<speed>0.020000</speed>
</trkpt>
<trkpt lat="22.212381" lon="104.415268">
<ele>464.152588</ele>
<time>2011-04-27T11:15:31Z</time>
<desc>lat.=22.212381, lon.=104.415268, Alt.=464.152588m. Speed=0.036000m/h.</desc>
<speed>0.010000</speed>
</trkpt>
<trkpt lat="22.212381" lon="104.415268">
<ele>464.136963</ele>
<time>2011-04-27T11:15:36Z</time>
<desc>lat.=22.212381, lon.=104.415268, Alt.=464.136963m. Speed=0.000000m/h.</desc>
<speed>0.000000</speed>
</trkpt>
<trkpt lat="22.212381" lon="104.415268">
<ele>464.113525</ele>
<time>2011-04-27T11:15:41Z</time>
<desc>lat.=22.212381, lon.=104.415268, Alt.=464.113525m. Speed=0.072000m/h.</desc>
<speed>0.020000</speed>
</trkpt>
<trkpt lat="22.212381" lon="104.415268">
<ele>464.074463</ele>
<time>2011-04-27T11:15:46Z</time>
<desc>lat.=22.212381, lon.=104.415268, Alt.=464.074463m. Speed=0.036000m/h.</desc>
<speed>0.010000</speed>
</trkpt>
<trkpt lat="22.212381" lon="104.415268">
<ele>464.058838</ele>
<time>2011-04-27T11:15:51Z</time>
<desc>lat.=22.212381, lon.=104.415268, Alt.=464.058838m. Speed=0.000000m/h.</desc>
<speed>0.000000</speed>
</trkpt>
<trkpt lat="22.212381" lon="104.415268">
<ele>464.035400</ele>
<time>2011-04-27T11:15:56Z</time>
<desc>lat.=22.212381, lon.=104.415268, Alt.=464.035400m. Speed=0.072000m/h.</desc>
<speed>0.020000</speed>
</trkpt>
<trkpt lat="22.212381" lon="104.415268">
<ele>463.988525</ele>
<time>2011-04-27T11:16:01Z</time>
<desc>lat.=22.212381, lon.=104.415268, Alt.=463.988525m. Speed=0.036000m/h.</desc>
<speed>0.010000</speed>
</trkpt>
<trkpt lat="22.212381" lon="104.415268">
<ele>463.949463</ele>
<time>2011-04-27T11:16:06Z</time>
<desc>lat.=22.212381, lon.=104.415268, Alt.=463.949463m. Speed=0.072000m/h.</desc>
<speed>0.020000</speed>
</trkpt>
<trkpt lat="22.212381" lon="104.415268">
<ele>463.902588</ele>
<time>2011-04-27T11:16:11Z</time>
<desc>lat.=22.212381, lon.=104.415268, Alt.=463.902588m. Speed=0.000000m/h.</desc>
<speed>0.000000</speed>
</trkpt>
<trkpt lat="22.212381" lon="104.415268">
<ele>463.863525</ele>
<time>2011-04-27T11:16:16Z</time>
<desc>lat.=22.212381, lon.=104.415268, Alt.=463.863525m. Speed=0.108000m/h.</desc>
<speed>0.030000</speed>
</trkpt>
<trkpt lat="22.212381" lon="104.415268">
<ele>463.847900</ele>
<time>2011-04-27T11:16:21Z</time>
<desc>lat.=22.212381, lon.=104.415268, Alt.=463.847900m. Speed=0.072000m/h.</desc>
<speed>0.020000</speed>
</trkpt>
<trkpt lat="22.212379" lon="104.415268">
<ele>463.832275</ele>
<time>2011-04-27T11:16:26Z</time>
<desc>lat.=22.212379, lon.=104.415268, Alt.=463.832275m. Speed=0.072000m/h.</desc>
<speed>0.020000</speed>
</trkpt>
<trkpt lat="22.212379" lon="104.415268">
<ele>463.785400</ele>
<time>2011-04-27T11:16:31Z</time>
<desc>lat.=22.212379, lon.=104.415268, Alt.=463.785400m. Speed=0.036000m/h.</desc>
<speed>0.010000</speed>
</trkpt>
<trkpt lat="22.212379" lon="104.415268">
<ele>463.754150</ele>
<time>2011-04-27T11:16:36Z</time>
<desc>lat.=22.212379, lon.=104.415268, Alt.=463.754150m. Speed=0.072000m/h.</desc>
<speed>0.020000</speed>
</trkpt>
<trkpt lat="22.212378" lon="104.415268">
<ele>463.668213</ele>
<time>2011-04-27T11:16:41Z</time>
<desc>lat.=22.212378, lon.=104.415268, Alt.=463.668213m. Speed=0.180000m/h.</desc>
<speed>0.050000</speed>
</trkpt>
<trkpt lat="22.212378" lon="104.415268">
<ele>463.597900</ele>
<time>2011-04-27T11:16:46Z</time>
<desc>lat.=22.212378, lon.=104.415268, Alt.=463.597900m. Speed=0.108000m/h.</desc>
<speed>0.030000</speed>
</trkpt>
<trkpt lat="22.212376" lon="104.415268">
<ele>463.535400</ele>
<time>2011-04-27T11:16:51Z</time>
<desc>lat.=22.212376, lon.=104.415268, Alt.=463.535400m. Speed=0.180000m/h.</desc>
<speed>0.050000</speed>
</trkpt>
<trkpt lat="22.212376" lon="104.415268">
<ele>463.480713</ele>
<time>2011-04-27T11:16:56Z</time>
<desc>lat.=22.212376, lon.=104.415268, Alt.=463.480713m. Speed=0.108000m/h.</desc>
<speed>0.030000</speed>
</trkpt>
<trkpt lat="22.212376" lon="104.415268">
<ele>463.465088</ele>
<time>2011-04-27T11:17:01Z</time>
<desc>lat.=22.212376, lon.=104.415268, Alt.=463.465088m. Speed=0.108000m/h.</desc>
<speed>0.030000</speed>
</trkpt>
<trkpt lat="22.212374" lon="104.415268">
<ele>463.472900</ele>
<time>2011-04-27T11:17:06Z</time>
<desc>lat.=22.212374, lon.=104.415268, Alt.=463.472900m. Speed=0.144000m/h.</desc>
<speed>0.040000</speed>
</trkpt>
<trkpt lat="22.212374" lon="104.415268">
<ele>463.418213</ele>
<time>2011-04-27T11:17:11Z</time>
<desc>lat.=22.212374, lon.=104.415268, Alt.=463.418213m. Speed=0.036000m/h.</desc>
<speed>0.010000</speed>
</trkpt>
<trkpt lat="22.212372" lon="104.415276">
<ele>463.371338</ele>
<time>2011-04-27T11:17:16Z</time>
<desc>lat.=22.212372, lon.=104.415276, Alt.=463.371338m. Speed=0.000000m/h.</desc>
<speed>0.000000</speed>
</trkpt>
<trkpt lat="22.212372" lon="104.415276">
<ele>463.316650</ele>
<time>2011-04-27T11:17:21Z</time>
<desc>lat.=22.212372, lon.=104.415276, Alt.=463.316650m. Speed=0.036000m/h.</desc>
<speed>0.010000</speed>
</trkpt>
<trkpt lat="22.212372" lon="104.415276">
<ele>463.277588</ele>
<time>2011-04-27T11:17:26Z</time>
<desc>lat.=22.212372, lon.=104.415276, Alt.=463.277588m. Speed=0.000000m/h.</desc>
<speed>0.000000</speed>
</trkpt>
<trkpt lat="22.212372" lon="104.415276">
<ele>463.238525</ele>
<time>2011-04-27T11:17:31Z</time>
<desc>lat.=22.212372, lon.=104.415276, Alt.=463.238525m. Speed=0.036000m/h.</desc>
<speed>0.010000</speed>
</trkpt>
<trkpt lat="22.212372" lon="104.415276">
<ele>463.222900</ele>
<time>2011-04-27T11:17:36Z</time>
<desc>lat.=22.212372, lon.=104.415276, Alt.=463.222900m. Speed=0.036000m/h.</desc>
<speed>0.010000</speed>
</trkpt>
<trkpt lat="22.212370" lon="104.415276">
<ele>463.199463</ele>
<time>2011-04-27T11:17:41Z</time>
<desc>lat.=22.212370, lon.=104.415276, Alt.=463.199463m. Speed=0.036000m/h.</desc>
<speed>0.010000</speed>
</trkpt>
<trkpt lat="22.212370" lon="104.415276">
<ele>463.160400</ele>
<time>2011-04-27T11:17:46Z</time>
<desc>lat.=22.212370, lon.=104.415276, Alt.=463.160400m. Speed=0.036000m/h.</desc>
<speed>0.010000</speed>
</trkpt>
<trkpt lat="22.212370" lon="104.415276">
<ele>463.168213</ele>
<time>2011-04-27T11:17:51Z</time>
<desc>lat.=22.212370, lon.=104.415276, Alt.=463.168213m. Speed=0.072000m/h.</desc>
<speed>0.020000</speed>
</trkpt>
<trkpt lat="22.212370" lon="104.415276">
<ele>463.168213</ele>
<time>2011-04-27T11:17:56Z</time>
<desc>lat.=22.212370, lon.=104.415276, Alt.=463.168213m. Speed=0.000000m/h.</desc>
<speed>0.000000</speed>
</trkpt>
<trkpt lat="22.212370" lon="104.415276">
<ele>463.168213</ele>
<time>2011-04-27T11:18:01Z</time>
<desc>lat.=22.212370, lon.=104.415276, Alt.=463.168213m. Speed=0.000000m/h.</desc>
<speed>0.000000</speed>
</trkpt>
<trkpt lat="22.212370" lon="104.415276">
<ele>463.168213</ele>
<time>2011-04-27T11:18:06Z</time>
<desc>lat.=22.212370, lon.=104.415276, Alt.=463.168213m. Speed=0.000000m/h.</desc>
<speed>0.000000</speed>
</trkpt>
<trkpt lat="22.212370" lon="104.415276">
<ele>463.176025</ele>
<time>2011-04-27T11:18:11Z</time>
<desc>lat.=22.212370, lon.=104.415276, Alt.=463.176025m. Speed=0.072000m/h.</desc>
<speed>0.020000</speed>
</trkpt>
<trkpt lat="22.212368" lon="104.415276">
<ele>463.207275</ele>
<time>2011-04-27T11:18:16Z</time>
<desc>lat.=22.212368, lon.=104.415276, Alt.=463.207275m. Speed=0.108000m/h.</desc>
<speed>0.030000</speed>
</trkpt>
<trkpt lat="22.212368" lon="104.415276">
<ele>463.183838</ele>
<time>2011-04-27T11:18:21Z</time>
<desc>lat.=22.212368, lon.=104.415276, Alt.=463.183838m. Speed=0.036000m/h.</desc>
<speed>0.010000</speed>
</trkpt>
<trkpt lat="22.212368" lon="104.415276">
<ele>463.152588</ele>
<time>2011-04-27T11:18:26Z</time>
<desc>lat.=22.212368, lon.=104.415276, Alt.=463.152588m. Speed=0.072000m/h.</desc>
<speed>0.020000</speed>
</trkpt>
<trkpt lat="22.212368" lon="104.415276">
<ele>463.082275</ele>
<time>2011-04-27T11:18:31Z</time>
<desc>lat.=22.212368, lon.=104.415276, Alt.=463.082275m. Speed=0.000000m/h.</desc>
<speed>0.000000</speed>
</trkpt>
<trkpt lat="22.212368" lon="104.415276">
<ele>463.035400</ele>
<time>2011-04-27T11:18:36Z</time>
<desc>lat.=22.212368, lon.=104.415276, Alt.=463.035400m. Speed=0.036000m/h.</desc>
<speed>0.010000</speed>
</trkpt>
<trkpt lat="22.212368" lon="104.415276">
<ele>463.011963</ele>
<time>2011-04-27T11:18:41Z</time>
<desc>lat.=22.212368, lon.=104.415276, Alt.=463.011963m. Speed=0.036000m/h.</desc>
<speed>0.010000</speed>
</trkpt>
<trkpt lat="22.212368" lon="104.415276">
<ele>462.988525</ele>
<time>2011-04-27T11:18:46Z</time>
<desc>lat.=22.212368, lon.=104.415276, Alt.=462.988525m. Speed=0.000000m/h.</desc>
<speed>0.000000</speed>
</trkpt>
<trkpt lat="22.212366" lon="104.415276">
<ele>462.972900</ele>
<time>2011-04-27T11:18:51Z</time>
<desc>lat.=22.212366, lon.=104.415276, Alt.=462.972900m. Speed=0.000000m/h.</desc>
<speed>0.000000</speed>
</trkpt>
<trkpt lat="22.212366" lon="104.415276">
<ele>462.949463</ele>
<time>2011-04-27T11:18:56Z</time>
<desc>lat.=22.212366, lon.=104.415276, Alt.=462.949463m. Speed=0.036000m/h.</desc>
<speed>0.010000</speed>
</trkpt>
<trkpt lat="22.212366" lon="104.415276">
<ele>462.965088</ele>
<time>2011-04-27T11:19:01Z</time>
<desc>lat.=22.212366, lon.=104.415276, Alt.=462.965088m. Speed=0.036000m/h.</desc>
<speed>0.010000</speed>
</trkpt>
<trkpt lat="22.212366" lon="104.415276">
<ele>462.996338</ele>
<time>2011-04-27T11:19:06Z</time>
<desc>lat.=22.212366, lon.=104.415276, Alt.=462.996338m. Speed=0.000000m/h.</desc>
<speed>0.000000</speed>
</trkpt>
<trkpt lat="22.212366" lon="104.415283">
<ele>463.011963</ele>
<time>2011-04-27T11:19:11Z</time>
<desc>lat.=22.212366, lon.=104.415283, Alt.=463.011963m. Speed=0.072000m/h.</desc>
<speed>0.020000</speed>
</trkpt>
<trkpt lat="22.212366" lon="104.415283">
<ele>463.043213</ele>
<time>2011-04-27T11:19:16Z</time>
<desc>lat.=22.212366, lon.=104.415283, Alt.=463.043213m. Speed=0.072000m/h.</desc>
<speed>0.020000</speed>
</trkpt>
<trkpt lat="22.212366" lon="104.415283">
<ele>463.043213</ele>
<time>2011-04-27T11:19:21Z</time>
<desc>lat.=22.212366, lon.=104.415283, Alt.=463.043213m. Speed=0.144000m/h.</desc>
<speed>0.040000</speed>
</trkpt>
<trkpt lat="22.212366" lon="104.415283">
<ele>463.051025</ele>
<time>2011-04-27T11:19:26Z</time>
<desc>lat.=22.212366, lon.=104.415283, Alt.=463.051025m. Speed=0.000000m/h.</desc>
<speed>0.000000</speed>
</trkpt>
<trkpt lat="22.212366" lon="104.415283">
<ele>463.043213</ele>
<time>2011-04-27T11:19:31Z</time>
<desc>lat.=22.212366, lon.=104.415283, Alt.=463.043213m. Speed=0.000000m/h.</desc>
<speed>0.000000</speed>
</trkpt>
<trkpt lat="22.212366" lon="104.415283">
<ele>463.043213</ele>
<time>2011-04-27T11:19:36Z</time>
<desc>lat.=22.212366, lon.=104.415283, Alt.=463.043213m. Speed=0.072000m/h.</desc>
<speed>0.020000</speed>
</trkpt>
<trkpt lat="22.212366" lon="104.415283">
<ele>463.027588</ele>
<time>2011-04-27T11:19:41Z</time>
<desc>lat.=22.212366, lon.=104.415283, Alt.=463.027588m. Speed=0.036000m/h.</desc>
<speed>0.010000</speed>
</trkpt>
<trkpt lat="22.212364" lon="104.415283">
<ele>463.019775</ele>
<time>2011-04-27T11:19:46Z</time>
<desc>lat.=22.212364, lon.=104.415283, Alt.=463.019775m. Speed=0.036000m/h.</desc>
<speed>0.010000</speed>
</trkpt>
<trkpt lat="22.212364" lon="104.415283">
<ele>463.004150</ele>
<time>2011-04-27T11:19:51Z</time>
<desc>lat.=22.212364, lon.=104.415283, Alt.=463.004150m. Speed=0.036000m/h.</desc>
<speed>0.010000</speed>
</trkpt>
<trkpt lat="22.212364" lon="104.415283">
<ele>463.027588</ele>
<time>2011-04-27T11:19:56Z</time>
<desc>lat.=22.212364, lon.=104.415283, Alt.=463.027588m. Speed=0.072000m/h.</desc>
<speed>0.020000</speed>
</trkpt>
<trkpt lat="22.212364" lon="104.415283">
<ele>463.035400</ele>
<time>2011-04-27T11:20:01Z</time>
<desc>lat.=22.212364, lon.=104.415283, Alt.=463.035400m. Speed=0.072000m/h.</desc>
<speed>0.020000</speed>
</trkpt>
<trkpt lat="22.212364" lon="104.415283">
<ele>463.051025</ele>
<time>2011-04-27T11:20:06Z</time>
<desc>lat.=22.212364, lon.=104.415283, Alt.=463.051025m. Speed=0.000000m/h.</desc>
<speed>0.000000</speed>
</trkpt>
<trkpt lat="22.212364" lon="104.415283">
<ele>463.043213</ele>
<time>2011-04-27T11:20:11Z</time>
<desc>lat.=22.212364, lon.=104.415283, Alt.=463.043213m. Speed=0.216000m/h.</desc>
<speed>0.060000</speed>
</trkpt>
<trkpt lat="22.212364" lon="104.415283">
<ele>463.019775</ele>
<time>2011-04-27T11:20:16Z</time>
<desc>lat.=22.212364, lon.=104.415283, Alt.=463.019775m. Speed=0.072000m/h.</desc>
<speed>0.020000</speed>
</trkpt>
<trkpt lat="22.212364" lon="104.415283">
<ele>463.035400</ele>
<time>2011-04-27T11:20:21Z</time>
<desc>lat.=22.212364, lon.=104.415283, Alt.=463.035400m. Speed=0.036000m/h.</desc>
<speed>0.010000</speed>
</trkpt>
<trkpt lat="22.212366" lon="104.415283">
<ele>462.996338</ele>
<time>2011-04-27T11:20:26Z</time>
<desc>lat.=22.212366, lon.=104.415283, Alt.=462.996338m. Speed=0.288000m/h.</desc>
<speed>0.080000</speed>
</trkpt>
<trkpt lat="22.212364" lon="104.415260">
<ele>462.386963</ele>
<time>2011-04-27T11:20:31Z</time>
<desc>lat.=22.212364, lon.=104.415260, Alt.=462.386963m. Speed=1.908000m/h.</desc>
<speed>0.530000</speed>
</trkpt>
<trkpt lat="22.212376" lon="104.415237">
<ele>460.676025</ele>
<time>2011-04-27T11:20:36Z</time>
<desc>lat.=22.212376, lon.=104.415237, Alt.=460.676025m. Speed=0.396000m/h.</desc>
<speed>0.110000</speed>
</trkpt>
<trkpt lat="22.212372" lon="104.415230">
<ele>460.551025</ele>
<time>2011-04-27T11:20:41Z</time>
<desc>lat.=22.212372, lon.=104.415230, Alt.=460.551025m. Speed=0.432000m/h.</desc>
<speed>0.120000</speed>
</trkpt>
<trkpt lat="22.212343" lon="104.415230">
<ele>460.394775</ele>
<time>2011-04-27T11:20:46Z</time>
<desc>lat.=22.212343, lon.=104.415230, Alt.=460.394775m. Speed=3.744000m/h.</desc>
<speed>1.040000</speed>
</trkpt>
<trkpt lat="22.212337" lon="104.415283">
<ele>460.152588</ele>
<time>2011-04-27T11:20:51Z</time>
<desc>lat.=22.212337, lon.=104.415283, Alt.=460.152588m. Speed=4.392000m/h.</desc>
<speed>1.220000</speed>
</trkpt>
<trkpt lat="22.212358" lon="104.415359">
<ele>458.996338</ele>
<time>2011-04-27T11:20:56Z</time>
<desc>lat.=22.212358, lon.=104.415359, Alt.=458.996338m. Speed=7.488000m/h.</desc>
<speed>2.080000</speed>
</trkpt>
<trkpt lat="22.212383" lon="104.415474">
<ele>459.261963</ele>
<time>2011-04-27T11:21:01Z</time>
<desc>lat.=22.212383, lon.=104.415474, Alt.=459.261963m. Speed=11.340000m/h.</desc>
<speed>3.150000</speed>
</trkpt>
<trkpt lat="22.212416" lon="104.415642">
<ele>459.254150</ele>
<time>2011-04-27T11:21:06Z</time>
<desc>lat.=22.212416, lon.=104.415642, Alt.=459.254150m. Speed=11.052000m/h.</desc>
<speed>3.070000</speed>
</trkpt>
<trkpt lat="22.212461" lon="104.415802">
<ele>458.121338</ele>
<time>2011-04-27T11:21:11Z</time>
<desc>lat.=22.212461, lon.=104.415802, Alt.=458.121338m. Speed=11.808000m/h.</desc>
<speed>3.280000</speed>
</trkpt>
<trkpt lat="22.212635" lon="104.415909">
<ele>456.949463</ele>
<time>2011-04-27T11:21:16Z</time>
<desc>lat.=22.212635, lon.=104.415909, Alt.=456.949463m. Speed=13.140000m/h.</desc>
<speed>3.650000</speed>
</trkpt>
<trkpt lat="22.212786" lon="104.416061">
<ele>454.668213</ele>
<time>2011-04-27T11:21:21Z</time>
<desc>lat.=22.212786, lon.=104.416061, Alt.=454.668213m. Speed=13.428000m/h.</desc>
<speed>3.730000</speed>
</trkpt>
<trkpt lat="22.212795" lon="104.416283">
<ele>453.551025</ele>
<time>2011-04-27T11:21:26Z</time>
<desc>lat.=22.212795, lon.=104.416283, Alt.=453.551025m. Speed=17.316000m/h.</desc>
<speed>4.810000</speed>
</trkpt>
<trkpt lat="22.212687" lon="104.416550">
<ele>451.449463</ele>
<time>2011-04-27T11:21:31Z</time>
<desc>lat.=22.212687, lon.=104.416550, Alt.=451.449463m. Speed=19.007999m/h.</desc>
<speed>5.280000</speed>
</trkpt>
<trkpt lat="22.212658" lon="104.416801">
<ele>451.676025</ele>
<time>2011-04-27T11:21:36Z</time>
<desc>lat.=22.212658, lon.=104.416801, Alt.=451.676025m. Speed=18.612000m/h.</desc>
<speed>5.170000</speed>
</trkpt>
<trkpt lat="22.212725" lon="104.417023">
<ele>451.191650</ele>
<time>2011-04-27T11:21:41Z</time>
<desc>lat.=22.212725, lon.=104.417023, Alt.=451.191650m. Speed=17.028000m/h.</desc>
<speed>4.730000</speed>
</trkpt>
<trkpt lat="22.212881" lon="104.417175">
<ele>450.246338</ele>
<time>2011-04-27T11:21:46Z</time>
<desc>lat.=22.212881, lon.=104.417175, Alt.=450.246338m. Speed=14.544000m/h.</desc>
<speed>4.040000</speed>
</trkpt>
<trkpt lat="22.212975" lon="104.417336">
<ele>450.090088</ele>
<time>2011-04-27T11:21:51Z</time>
<desc>lat.=22.212975, lon.=104.417336, Alt.=450.090088m. Speed=15.084000m/h.</desc>
<speed>4.190000</speed>
</trkpt>
<trkpt lat="22.212957" lon="104.417564">
<ele>449.402588</ele>
<time>2011-04-27T11:21:56Z</time>
<desc>lat.=22.212957, lon.=104.417564, Alt.=449.402588m. Speed=19.188000m/h.</desc>
<speed>5.330000</speed>
</trkpt>
<trkpt lat="22.212931" lon="104.417870">
<ele>447.394775</ele>
<time>2011-04-27T11:22:01Z</time>
<desc>lat.=22.212931, lon.=104.417870, Alt.=447.394775m. Speed=24.732000m/h.</desc>
<speed>6.870000</speed>
</trkpt>
<trkpt lat="22.212961" lon="104.418190">
<ele>445.160400</ele>
<time>2011-04-27T11:22:06Z</time>
<desc>lat.=22.212961, lon.=104.418190, Alt.=445.160400m. Speed=19.620001m/h.</desc>
<speed>5.450000</speed>
</trkpt>
<trkpt lat="22.212996" lon="104.418449">
<ele>443.738525</ele>
<time>2011-04-27T11:22:11Z</time>
<desc>lat.=22.212996, lon.=104.418449, Alt.=443.738525m. Speed=19.080000m/h.</desc>
<speed>5.300000</speed>
</trkpt>
<trkpt lat="22.213137" lon="104.418663">
<ele>440.910400</ele>
<time>2011-04-27T11:22:16Z</time>
<desc>lat.=22.213137, lon.=104.418663, Alt.=440.910400m. Speed=20.016001m/h.</desc>
<speed>5.560000</speed>
</trkpt>
<trkpt lat="22.213390" lon="104.418755">
<ele>438.207275</ele>
<time>2011-04-27T11:22:21Z</time>
<desc>lat.=22.213390, lon.=104.418755, Alt.=438.207275m. Speed=19.799999m/h.</desc>
<speed>5.500000</speed>
</trkpt>
<trkpt lat="22.213593" lon="104.418785">
<ele>435.777588</ele>
<time>2011-04-27T11:22:26Z</time>
<desc>lat.=22.213593, lon.=104.418785, Alt.=435.777588m. Speed=15.336000m/h.</desc>
<speed>4.260000</speed>
</trkpt>
<trkpt lat="22.213812" lon="104.418861">
<ele>433.121338</ele>
<time>2011-04-27T11:22:31Z</time>
<desc>lat.=22.213812, lon.=104.418861, Alt.=433.121338m. Speed=17.639999m/h.</desc>
<speed>4.900000</speed>
</trkpt>
<trkpt lat="22.214052" lon="104.419044">
<ele>431.191650</ele>
<time>2011-04-27T11:22:36Z</time>
<desc>lat.=22.214052, lon.=104.419044, Alt.=431.191650m. Speed=23.903999m/h.</desc>
<speed>6.640000</speed>
</trkpt>
<trkpt lat="22.214306" lon="104.419258">
<ele>428.183838</ele>
<time>2011-04-27T11:22:41Z</time>
<desc>lat.=22.214306, lon.=104.419258, Alt.=428.183838m. Speed=24.624001m/h.</desc>
<speed>6.840000</speed>
</trkpt>
<trkpt lat="22.214542" lon="104.419472">
<ele>424.793213</ele>
<time>2011-04-27T11:22:46Z</time>
<desc>lat.=22.214542, lon.=104.419472, Alt.=424.793213m. Speed=22.392000m/h.</desc>
<speed>6.220000</speed>
</trkpt>
<trkpt lat="22.214693" lon="104.419678">
<ele>421.363525</ele>
<time>2011-04-27T11:22:51Z</time>
<desc>lat.=22.214693, lon.=104.419678, Alt.=421.363525m. Speed=17.316000m/h.</desc>
<speed>4.810000</speed>
</trkpt>
<trkpt lat="22.214687" lon="104.419914">
<ele>419.527588</ele>
<time>2011-04-27T11:22:56Z</time>
<desc>lat.=22.214687, lon.=104.419914, Alt.=419.527588m. Speed=19.080000m/h.</desc>
<speed>5.300000</speed>
</trkpt>
<trkpt lat="22.214590" lon="104.420174">
<ele>418.660400</ele>
<time>2011-04-27T11:23:01Z</time>
<desc>lat.=22.214590, lon.=104.420174, Alt.=418.660400m. Speed=20.016001m/h.</desc>
<speed>5.560000</speed>
</trkpt>
<trkpt lat="22.214420" lon="104.420372">
<ele>416.121338</ele>
<time>2011-04-27T11:23:06Z</time>
<desc>lat.=22.214420, lon.=104.420372, Alt.=416.121338m. Speed=18.864000m/h.</desc>
<speed>5.240000</speed>
</trkpt>
<trkpt lat="22.214235" lon="104.420540">
<ele>415.496338</ele>
<time>2011-04-27T11:23:11Z</time>
<desc>lat.=22.214235, lon.=104.420540, Alt.=415.496338m. Speed=19.836000m/h.</desc>
<speed>5.510000</speed>
</trkpt>
<trkpt lat="22.214087" lon="104.420753">
<ele>414.597900</ele>
<time>2011-04-27T11:23:16Z</time>
<desc>lat.=22.214087, lon.=104.420753, Alt.=414.597900m. Speed=19.691999m/h.</desc>
<speed>5.470000</speed>
</trkpt>
<trkpt lat="22.214024" lon="104.421059">
<ele>412.519775</ele>
<time>2011-04-27T11:23:21Z</time>
<desc>lat.=22.214024, lon.=104.421059, Alt.=412.519775m. Speed=21.672001m/h.</desc>
<speed>6.020000</speed>
</trkpt>
<trkpt lat="22.214031" lon="104.421333">
<ele>409.090088</ele>
<time>2011-04-27T11:23:26Z</time>
<desc>lat.=22.214031, lon.=104.421333, Alt.=409.090088m. Speed=18.756001m/h.</desc>
<speed>5.210000</speed>
</trkpt>
<trkpt lat="22.213907" lon="104.421585">
<ele>406.152588</ele>
<time>2011-04-27T11:23:31Z</time>
<desc>lat.=22.213907, lon.=104.421585, Alt.=406.152588m. Speed=19.872000m/h.</desc>
<speed>5.520000</speed>
</trkpt>
<trkpt lat="22.213776" lon="104.421806">
<ele>403.386963</ele>
<time>2011-04-27T11:23:36Z</time>
<desc>lat.=22.213776, lon.=104.421806, Alt.=403.386963m. Speed=19.260000m/h.</desc>
<speed>5.350000</speed>
</trkpt>
<trkpt lat="22.213655" lon="104.422050">
<ele>399.949463</ele>
<time>2011-04-27T11:23:41Z</time>
<desc>lat.=22.213655, lon.=104.422050, Alt.=399.949463m. Speed=18.396000m/h.</desc>
<speed>5.110000</speed>
</trkpt>
<trkpt lat="22.213575" lon="104.422249">
<ele>397.652588</ele>
<time>2011-04-27T11:23:46Z</time>
<desc>lat.=22.213575, lon.=104.422249, Alt.=397.652588m. Speed=14.544000m/h.</desc>
<speed>4.040000</speed>
</trkpt>
<trkpt lat="22.213551" lon="104.422432">
<ele>396.949463</ele>
<time>2011-04-27T11:23:51Z</time>
<desc>lat.=22.213551, lon.=104.422432, Alt.=396.949463m. Speed=13.932000m/h.</desc>
<speed>3.870000</speed>
</trkpt>
<trkpt lat="22.213655" lon="104.422585">
<ele>393.715088</ele>
<time>2011-04-27T11:23:56Z</time>
<desc>lat.=22.213655, lon.=104.422585, Alt.=393.715088m. Speed=14.616000m/h.</desc>
<speed>4.060000</speed>
</trkpt>
<trkpt lat="22.213846" lon="104.422607">
<ele>390.957275</ele>
<time>2011-04-27T11:24:01Z</time>
<desc>lat.=22.213846, lon.=104.422607, Alt.=390.957275m. Speed=13.176000m/h.</desc>
<speed>3.660000</speed>
</trkpt>
<trkpt lat="22.214018" lon="104.422630">
<ele>388.574463</ele>
<time>2011-04-27T11:24:06Z</time>
<desc>lat.=22.214018, lon.=104.422630, Alt.=388.574463m. Speed=14.760000m/h.</desc>
<speed>4.100000</speed>
</trkpt>
<trkpt lat="22.214220" lon="104.422684">
<ele>385.261963</ele>
<time>2011-04-27T11:24:11Z</time>
<desc>lat.=22.214220, lon.=104.422684, Alt.=385.261963m. Speed=18.504000m/h.</desc>
<speed>5.140000</speed>
</trkpt>
<trkpt lat="22.214460" lon="104.422768">
<ele>381.676025</ele>
<time>2011-04-27T11:24:16Z</time>
<desc>lat.=22.214460, lon.=104.422768, Alt.=381.676025m. Speed=20.483999m/h.</desc>
<speed>5.690000</speed>
</trkpt>
<trkpt lat="22.214649" lon="104.422829">
<ele>378.472900</ele>
<time>2011-04-27T11:24:21Z</time>
<desc>lat.=22.214649, lon.=104.422829, Alt.=378.472900m. Speed=14.220000m/h.</desc>
<speed>3.950000</speed>
</trkpt>
<trkpt lat="22.214834" lon="104.422882">
<ele>376.261963</ele>
<time>2011-04-27T11:24:26Z</time>
<desc>lat.=22.214834, lon.=104.422882, Alt.=376.261963m. Speed=9.036000m/h.</desc>
<speed>2.510000</speed>
</trkpt>
<trkpt lat="22.214987" lon="104.422951">
<ele>376.144775</ele>
<time>2011-04-27T11:24:31Z</time>
<desc>lat.=22.214987, lon.=104.422951, Alt.=376.144775m. Speed=12.456000m/h.</desc>
<speed>3.460000</speed>
</trkpt>
<trkpt lat="22.215130" lon="104.422997">
<ele>377.113525</ele>
<time>2011-04-27T11:24:36Z</time>
<desc>lat.=22.215130, lon.=104.422997, Alt.=377.113525m. Speed=9.252000m/h.</desc>
<speed>2.570000</speed>
</trkpt>
<trkpt lat="22.215286" lon="104.422997">
<ele>377.363525</ele>
<time>2011-04-27T11:24:41Z</time>
<desc>lat.=22.215286, lon.=104.422997, Alt.=377.363525m. Speed=10.476000m/h.</desc>
<speed>2.910000</speed>
</trkpt>
<trkpt lat="22.215385" lon="104.423012">
<ele>379.863525</ele>
<time>2011-04-27T11:24:46Z</time>
<desc>lat.=22.215385, lon.=104.423012, Alt.=379.863525m. Speed=8.208000m/h.</desc>
<speed>2.280000</speed>
</trkpt>
<trkpt lat="22.215479" lon="104.423012">
<ele>383.105713</ele>
<time>2011-04-27T11:24:51Z</time>
<desc>lat.=22.215479, lon.=104.423012, Alt.=383.105713m. Speed=5.220000m/h.</desc>
<speed>1.450000</speed>
</trkpt>
<trkpt lat="22.215574" lon="104.423035">
<ele>386.168213</ele>
<time>2011-04-27T11:24:56Z</time>
<desc>lat.=22.215574, lon.=104.423035, Alt.=386.168213m. Speed=7.992000m/h.</desc>
<speed>2.220000</speed>
</trkpt>
<trkpt lat="22.215652" lon="104.423027">
<ele>388.488525</ele>
<time>2011-04-27T11:25:01Z</time>
<desc>lat.=22.215652, lon.=104.423027, Alt.=388.488525m. Speed=4.392000m/h.</desc>
<speed>1.220000</speed>
</trkpt>
<trkpt lat="22.215731" lon="104.423019">
<ele>389.894775</ele>
<time>2011-04-27T11:25:06Z</time>
<desc>lat.=22.215731, lon.=104.423019, Alt.=389.894775m. Speed=3.852000m/h.</desc>
<speed>1.070000</speed>
</trkpt>
<trkpt lat="22.215788" lon="104.423035">
<ele>392.371338</ele>
<time>2011-04-27T11:25:11Z</time>
<desc>lat.=22.215788, lon.=104.423035, Alt.=392.371338m. Speed=3.276000m/h.</desc>
<speed>0.910000</speed>
</trkpt>
<trkpt lat="22.215860" lon="104.423058">
<ele>394.644775</ele>
<time>2011-04-27T11:25:16Z</time>
<desc>lat.=22.215860, lon.=104.423058, Alt.=394.644775m. Speed=6.012000m/h.</desc>
<speed>1.670000</speed>
</trkpt>
<trkpt lat="22.215935" lon="104.423088">
<ele>396.926025</ele>
<time>2011-04-27T11:25:21Z</time>
<desc>lat.=22.215935, lon.=104.423088, Alt.=396.926025m. Speed=3.924000m/h.</desc>
<speed>1.090000</speed>
</trkpt>
<trkpt lat="22.216015" lon="104.423187">
<ele>398.965088</ele>
<time>2011-04-27T11:25:26Z</time>
<desc>lat.=22.216015, lon.=104.423187, Alt.=398.965088m. Speed=7.992000m/h.</desc>
<speed>2.220000</speed>
</trkpt>
<trkpt lat="22.216051" lon="104.423286">
<ele>400.191650</ele>
<time>2011-04-27T11:25:31Z</time>
<desc>lat.=22.216051, lon.=104.423286, Alt.=400.191650m. Speed=9.216000m/h.</desc>
<speed>2.560000</speed>
</trkpt>
<trkpt lat="22.216038" lon="104.423416">
<ele>402.105713</ele>
<time>2011-04-27T11:25:36Z</time>
<desc>lat.=22.216038, lon.=104.423416, Alt.=402.105713m. Speed=10.044000m/h.</desc>
<speed>2.790000</speed>
</trkpt>
<trkpt lat="22.216009" lon="104.423523">
<ele>403.683838</ele>
<time>2011-04-27T11:25:41Z</time>
<desc>lat.=22.216009, lon.=104.423523, Alt.=403.683838m. Speed=6.228000m/h.</desc>
<speed>1.730000</speed>
</trkpt>
<trkpt lat="22.215940" lon="104.423653">
<ele>404.285400</ele>
<time>2011-04-27T11:25:46Z</time>
<desc>lat.=22.215940, lon.=104.423653, Alt.=404.285400m. Speed=10.548000m/h.</desc>
<speed>2.930000</speed>
</trkpt>
<trkpt lat="22.215855" lon="104.423859">
<ele>402.347900</ele>
<time>2011-04-27T11:25:51Z</time>
<desc>lat.=22.215855, lon.=104.423859, Alt.=402.347900m. Speed=12.132000m/h.</desc>
<speed>3.370000</speed>
</trkpt>
<trkpt lat="22.215788" lon="104.423996">
<ele>402.777588</ele>
<time>2011-04-27T11:25:56Z</time>
<desc>lat.=22.215788, lon.=104.423996, Alt.=402.777588m. Speed=9.432000m/h.</desc>
<speed>2.620000</speed>
</trkpt>
<trkpt lat="22.215763" lon="104.424072">
<ele>404.340088</ele>
<time>2011-04-27T11:26:01Z</time>
<desc>lat.=22.215763, lon.=104.424072, Alt.=404.340088m. Speed=1.224000m/h.</desc>
<speed>0.340000</speed>
</trkpt>
<trkpt lat="22.215769" lon="104.424088">
<ele>405.480713</ele>
<time>2011-04-27T11:26:06Z</time>
<desc>lat.=22.215769, lon.=104.424088, Alt.=405.480713m. Speed=0.756000m/h.</desc>
<speed>0.210000</speed>
</trkpt>
<trkpt lat="22.215775" lon="104.424080">
<ele>406.449463</ele>
<time>2011-04-27T11:26:11Z</time>
<desc>lat.=22.215775, lon.=104.424080, Alt.=406.449463m. Speed=0.396000m/h.</desc>
<speed>0.110000</speed>
</trkpt>
<trkpt lat="22.215776" lon="104.424088">
<ele>406.801025</ele>
<time>2011-04-27T11:26:16Z</time>
<desc>lat.=22.215776, lon.=104.424088, Alt.=406.801025m. Speed=0.036000m/h.</desc>
<speed>0.010000</speed>
</trkpt>
<trkpt lat="22.215775" lon="104.424088">
<ele>406.933838</ele>
<time>2011-04-27T11:26:21Z</time>
<desc>lat.=22.215775, lon.=104.424088, Alt.=406.933838m. Speed=0.720000m/h.</desc>
<speed>0.200000</speed>
</trkpt>
<trkpt lat="22.215771" lon="104.424095">
<ele>407.035400</ele>
<time>2011-04-27T11:26:26Z</time>
<desc>lat.=22.215771, lon.=104.424095, Alt.=407.035400m. Speed=1.908000m/h.</desc>
<speed>0.530000</speed>
</trkpt>
<trkpt lat="22.215784" lon="104.424141">
<ele>406.152588</ele>
<time>2011-04-27T11:26:31Z</time>
<desc>lat.=22.215784, lon.=104.424141, Alt.=406.152588m. Speed=6.156000m/h.</desc>
<speed>1.710000</speed>
</trkpt>
<trkpt lat="22.215763" lon="104.424232">
<ele>405.746338</ele>
<time>2011-04-27T11:26:36Z</time>
<desc>lat.=22.215763, lon.=104.424232, Alt.=405.746338m. Speed=6.300000m/h.</desc>
<speed>1.750000</speed>
</trkpt>
<trkpt lat="22.215759" lon="104.424332">
<ele>407.207275</ele>
<time>2011-04-27T11:26:41Z</time>
<desc>lat.=22.215759, lon.=104.424332, Alt.=407.207275m. Speed=7.668000m/h.</desc>
<speed>2.130000</speed>
</trkpt>
<trkpt lat="22.215740" lon="104.424438">
<ele>407.363525</ele>
<time>2011-04-27T11:26:46Z</time>
<desc>lat.=22.215740, lon.=104.424438, Alt.=407.363525m. Speed=7.848000m/h.</desc>
<speed>2.180000</speed>
</trkpt>
<trkpt lat="22.215687" lon="104.424553">
<ele>407.316650</ele>
<time>2011-04-27T11:26:51Z</time>
<desc>lat.=22.215687, lon.=104.424553, Alt.=407.316650m. Speed=10.152000m/h.</desc>
<speed>2.820000</speed>
</trkpt>
<trkpt lat="22.215576" lon="104.424660">
<ele>406.246338</ele>
<time>2011-04-27T11:26:56Z</time>
<desc>lat.=22.215576, lon.=104.424660, Alt.=406.246338m. Speed=12.312000m/h.</desc>
<speed>3.420000</speed>
</trkpt>
<trkpt lat="22.215458" lon="104.424759">
<ele>405.754150</ele>
<time>2011-04-27T11:27:01Z</time>
<desc>lat.=22.215458, lon.=104.424759, Alt.=405.754150m. Speed=10.800000m/h.</desc>
<speed>3.000000</speed>
</trkpt>
<trkpt lat="22.215338" lon="104.424858">
<ele>404.777588</ele>
<time>2011-04-27T11:27:06Z</time>
<desc>lat.=22.215338, lon.=104.424858, Alt.=404.777588m. Speed=11.232000m/h.</desc>
<speed>3.120000</speed>
</trkpt>
<trkpt lat="22.215231" lon="104.424988">
<ele>403.527588</ele>
<time>2011-04-27T11:27:11Z</time>
<desc>lat.=22.215231, lon.=104.424988, Alt.=403.527588m. Speed=13.752000m/h.</desc>
<speed>3.820000</speed>
</trkpt>
<trkpt lat="22.215160" lon="104.425140">
<ele>402.105713</ele>
<time>2011-04-27T11:27:16Z</time>
<desc>lat.=22.215160, lon.=104.425140, Alt.=402.105713m. Speed=9.720000m/h.</desc>
<speed>2.700000</speed>
</trkpt>
<trkpt lat="22.215113" lon="104.425262">
<ele>400.340088</ele>
<time>2011-04-27T11:27:21Z</time>
<desc>lat.=22.215113, lon.=104.425262, Alt.=400.340088m. Speed=8.280000m/h.</desc>
<speed>2.300000</speed>
</trkpt>
<trkpt lat="22.215052" lon="104.425377">
<ele>400.566650</ele>
<time>2011-04-27T11:27:26Z</time>
<desc>lat.=22.215052, lon.=104.425377, Alt.=400.566650m. Speed=10.368000m/h.</desc>
<speed>2.880000</speed>
</trkpt>
<trkpt lat="22.214960" lon="104.425499">
<ele>400.746338</ele>
<time>2011-04-27T11:27:31Z</time>
<desc>lat.=22.214960, lon.=104.425499, Alt.=400.746338m. Speed=12.024000m/h.</desc>
<speed>3.340000</speed>
</trkpt>
<trkpt lat="22.214855" lon="104.425606">
<ele>399.746338</ele>
<time>2011-04-27T11:27:36Z</time>
<desc>lat.=22.214855, lon.=104.425606, Alt.=399.746338m. Speed=11.808000m/h.</desc>
<speed>3.280000</speed>
</trkpt>
<trkpt lat="22.214767" lon="104.425705">
<ele>398.621338</ele>
<time>2011-04-27T11:27:41Z</time>
<desc>lat.=22.214767, lon.=104.425705, Alt.=398.621338m. Speed=8.928000m/h.</desc>
<speed>2.480000</speed>
</trkpt>
<trkpt lat="22.214678" lon="104.425812">
<ele>399.074463</ele>
<time>2011-04-27T11:27:46Z</time>
<desc>lat.=22.214678, lon.=104.425812, Alt.=399.074463m. Speed=11.592000m/h.</desc>
<speed>3.220000</speed>
</trkpt>
<trkpt lat="22.214611" lon="104.425957">
<ele>399.441650</ele>
<time>2011-04-27T11:27:51Z</time>
<desc>lat.=22.214611, lon.=104.425957, Alt.=399.441650m. Speed=12.168000m/h.</desc>
<speed>3.380000</speed>
</trkpt>
<trkpt lat="22.214563" lon="104.426125">
<ele>399.230713</ele>
<time>2011-04-27T11:27:56Z</time>
<desc>lat.=22.214563, lon.=104.426125, Alt.=399.230713m. Speed=13.932000m/h.</desc>
<speed>3.870000</speed>
</trkpt>
<trkpt lat="22.214514" lon="104.426300">
<ele>398.793213</ele>
<time>2011-04-27T11:28:01Z</time>
<desc>lat.=22.214514, lon.=104.426300, Alt.=398.793213m. Speed=14.616000m/h.</desc>
<speed>4.060000</speed>
</trkpt>
<trkpt lat="22.214418" lon="104.426491">
<ele>398.293213</ele>
<time>2011-04-27T11:28:06Z</time>
<desc>lat.=22.214418, lon.=104.426491, Alt.=398.293213m. Speed=17.136000m/h.</desc>
<speed>4.760000</speed>
</trkpt>
<trkpt lat="22.214285" lon="104.426704">
<ele>396.433838</ele>
<time>2011-04-27T11:28:11Z</time>
<desc>lat.=22.214285, lon.=104.426704, Alt.=396.433838m. Speed=20.916000m/h.</desc>
<speed>5.810000</speed>
</trkpt>
<trkpt lat="22.214207" lon="104.426979">
<ele>395.707275</ele>
<time>2011-04-27T11:28:16Z</time>
<desc>lat.=22.214207, lon.=104.426979, Alt.=395.707275m. Speed=21.492001m/h.</desc>
<speed>5.970000</speed>
</trkpt>
<trkpt lat="22.214308" lon="104.427231">
<ele>394.301025</ele>
<time>2011-04-27T11:28:21Z</time>
<desc>lat.=22.214308, lon.=104.427231, Alt.=394.301025m. Speed=18.612000m/h.</desc>
<speed>5.170000</speed>
</trkpt>
<trkpt lat="22.214561" lon="104.427269">
<ele>393.136963</ele>
<time>2011-04-27T11:28:26Z</time>
<desc>lat.=22.214561, lon.=104.427269, Alt.=393.136963m. Speed=21.240000m/h.</desc>
<speed>5.900000</speed>
</trkpt>
<trkpt lat="22.214825" lon="104.427162">
<ele>387.699463</ele>
<time>2011-04-27T11:28:31Z</time>
<desc>lat.=22.214825, lon.=104.427162, Alt.=387.699463m. Speed=18.252001m/h.</desc>
<speed>5.070000</speed>
</trkpt>
<trkpt lat="22.214985" lon="104.426956">
<ele>385.035400</ele>
<time>2011-04-27T11:28:36Z</time>
<desc>lat.=22.214985, lon.=104.426956, Alt.=385.035400m. Speed=20.160000m/h.</desc>
<speed>5.600000</speed>
</trkpt>
<trkpt lat="22.215246" lon="104.426804">
<ele>383.121338</ele>
<time>2011-04-27T11:28:41Z</time>
<desc>lat.=22.215246, lon.=104.426804, Alt.=383.121338m. Speed=22.032000m/h.</desc>
<speed>6.120000</speed>
</trkpt>
<trkpt lat="22.215530" lon="104.426788">
<ele>382.879150</ele>
<time>2011-04-27T11:28:46Z</time>
<desc>lat.=22.215530, lon.=104.426788, Alt.=382.879150m. Speed=20.628000m/h.</desc>
<speed>5.730000</speed>
</trkpt>
<trkpt lat="22.215698" lon="104.426956">
<ele>382.629150</ele>
<time>2011-04-27T11:28:51Z</time>
<desc>lat.=22.215698, lon.=104.426956, Alt.=382.629150m. Speed=20.124001m/h.</desc>
<speed>5.590000</speed>
</trkpt>
<trkpt lat="22.215685" lon="104.427208">
<ele>381.636963</ele>
<time>2011-04-27T11:28:56Z</time>
<desc>lat.=22.215685, lon.=104.427208, Alt.=381.636963m. Speed=18.936001m/h.</desc>
<speed>5.260000</speed>
</trkpt>
<trkpt lat="22.215622" lon="104.427582">
<ele>378.769775</ele>
<time>2011-04-27T11:29:01Z</time>
<desc>lat.=22.215622, lon.=104.427582, Alt.=378.769775m. Speed=27.288000m/h.</desc>
<speed>7.580000</speed>
</trkpt>
<trkpt lat="22.215555" lon="104.427925">
<ele>375.754150</ele>
<time>2011-04-27T11:29:06Z</time>
<desc>lat.=22.215555, lon.=104.427925, Alt.=375.754150m. Speed=23.903999m/h.</desc>
<speed>6.640000</speed>
</trkpt>
<trkpt lat="22.215578" lon="104.428253">
<ele>372.215088</ele>
<time>2011-04-27T11:29:11Z</time>
<desc>lat.=22.215578, lon.=104.428253, Alt.=372.215088m. Speed=22.176001m/h.</desc>
<speed>6.160000</speed>
</trkpt>
<trkpt lat="22.215611" lon="104.428574">
<ele>373.183838</ele>
<time>2011-04-27T11:29:16Z</time>
<desc>lat.=22.215611, lon.=104.428574, Alt.=373.183838m. Speed=21.240000m/h.</desc>
<speed>5.900000</speed>
</trkpt>
<trkpt lat="22.215616" lon="104.428833">
<ele>370.043213</ele>
<time>2011-04-27T11:29:21Z</time>
<desc>lat.=22.215616, lon.=104.428833, Alt.=370.043213m. Speed=15.840000m/h.</desc>
<speed>4.400000</speed>
</trkpt>
<trkpt lat="22.215565" lon="104.429047">
<ele>368.855713</ele>
<time>2011-04-27T11:29:26Z</time>
<desc>lat.=22.215565, lon.=104.429047, Alt.=368.855713m. Speed=20.087999m/h.</desc>
<speed>5.580000</speed>
</trkpt>
<trkpt lat="22.215425" lon="104.429321">
<ele>370.129150</ele>
<time>2011-04-27T11:29:31Z</time>
<desc>lat.=22.215425, lon.=104.429321, Alt.=370.129150m. Speed=19.980000m/h.</desc>
<speed>5.550000</speed>
</trkpt>
<trkpt lat="22.215254" lon="104.429596">
<ele>371.504150</ele>
<time>2011-04-27T11:29:36Z</time>
<desc>lat.=22.215254, lon.=104.429596, Alt.=371.504150m. Speed=20.628000m/h.</desc>
<speed>5.730000</speed>
</trkpt>
<trkpt lat="22.215084" lon="104.429832">
<ele>370.105713</ele>
<time>2011-04-27T11:29:41Z</time>
<desc>lat.=22.215084, lon.=104.429832, Alt.=370.105713m. Speed=21.888000m/h.</desc>
<speed>6.080000</speed>
</trkpt>
<trkpt lat="22.214899" lon="104.430069">
<ele>369.293213</ele>
<time>2011-04-27T11:29:46Z</time>
<desc>lat.=22.214899, lon.=104.430069, Alt.=369.293213m. Speed=20.591999m/h.</desc>
<speed>5.720000</speed>
</trkpt>
<trkpt lat="22.214836" lon="104.430367">
<ele>367.472900</ele>
<time>2011-04-27T11:29:51Z</time>
<desc>lat.=22.214836, lon.=104.430367, Alt.=367.472900m. Speed=22.032000m/h.</desc>
<speed>6.120000</speed>
</trkpt>
<trkpt lat="22.214987" lon="104.430656">
<ele>363.879150</ele>
<time>2011-04-27T11:29:56Z</time>
<desc>lat.=22.214987, lon.=104.430656, Alt.=363.879150m. Speed=24.660000m/h.</desc>
<speed>6.850000</speed>
</trkpt>
<trkpt lat="22.215258" lon="104.430817">
<ele>360.551025</ele>
<time>2011-04-27T11:30:01Z</time>
<desc>lat.=22.215258, lon.=104.430817, Alt.=360.551025m. Speed=22.139999m/h.</desc>
<speed>6.150000</speed>
</trkpt>
<trkpt lat="22.215534" lon="104.430954">
<ele>357.808838</ele>
<time>2011-04-27T11:30:06Z</time>
<desc>lat.=22.215534, lon.=104.430954, Alt.=357.808838m. Speed=24.156000m/h.</desc>
<speed>6.710000</speed>
</trkpt>
<trkpt lat="22.215862" lon="104.431030">
<ele>353.535400</ele>
<time>2011-04-27T11:30:11Z</time>
<desc>lat.=22.215862, lon.=104.431030, Alt.=353.535400m. Speed=25.775999m/h.</desc>
<speed>7.160000</speed>
</trkpt>
<trkpt lat="22.216154" lon="104.431084">
<ele>349.941650</ele>
<time>2011-04-27T11:30:16Z</time>
<desc>lat.=22.216154, lon.=104.431084, Alt.=349.941650m. Speed=19.368000m/h.</desc>
<speed>5.380000</speed>
</trkpt>
<trkpt lat="22.216423" lon="104.431030">
<ele>345.676025</ele>
<time>2011-04-27T11:30:21Z</time>
<desc>lat.=22.216423, lon.=104.431030, Alt.=345.676025m. Speed=23.472000m/h.</desc>
<speed>6.520000</speed>
</trkpt>
<trkpt lat="22.216673" lon="104.430908">
<ele>342.754150</ele>
<time>2011-04-27T11:30:26Z</time>
<desc>lat.=22.216673, lon.=104.430908, Alt.=342.754150m. Speed=20.052000m/h.</desc>
<speed>5.570000</speed>
</trkpt>
<trkpt lat="22.216869" lon="104.430817">
<ele>339.691650</ele>
<time>2011-04-27T11:30:31Z</time>
<desc>lat.=22.216869, lon.=104.430817, Alt.=339.691650m. Speed=8.028000m/h.</desc>
<speed>2.230000</speed>
</trkpt>
<trkpt lat="22.216999" lon="104.430878">
<ele>337.301025</ele>
<time>2011-04-27T11:30:36Z</time>
<desc>lat.=22.216999, lon.=104.430878, Alt.=337.301025m. Speed=13.572000m/h.</desc>
<speed>3.770000</speed>
</trkpt>
<trkpt lat="22.217154" lon="104.431061">
<ele>334.754150</ele>
<time>2011-04-27T11:30:41Z</time>
<desc>lat.=22.217154, lon.=104.431061, Alt.=334.754150m. Speed=20.808001m/h.</desc>
<speed>5.780000</speed>
</trkpt>
<trkpt lat="22.217329" lon="104.431221">
<ele>331.386963</ele>
<time>2011-04-27T11:30:46Z</time>
<desc>lat.=22.217329, lon.=104.431221, Alt.=331.386963m. Speed=18.648001m/h.</desc>
<speed>5.180000</speed>
</trkpt>
<trkpt lat="22.217505" lon="104.431313">
<ele>328.754150</ele>
<time>2011-04-27T11:30:51Z</time>
<desc>lat.=22.217505, lon.=104.431313, Alt.=328.754150m. Speed=11.484000m/h.</desc>
<speed>3.190000</speed>
</trkpt>
<trkpt lat="22.217567" lon="104.431465">
<ele>326.824463</ele>
<time>2011-04-27T11:30:56Z</time>
<desc>lat.=22.217567, lon.=104.431465, Alt.=326.824463m. Speed=11.232000m/h.</desc>
<speed>3.120000</speed>
</trkpt>
<trkpt lat="22.217518" lon="104.431618">
<ele>326.551025</ele>
<time>2011-04-27T11:31:01Z</time>
<desc>lat.=22.217518, lon.=104.431618, Alt.=326.551025m. Speed=9.432000m/h.</desc>
<speed>2.620000</speed>
</trkpt>
<trkpt lat="22.217445" lon="104.431763">
<ele>324.816650</ele>
<time>2011-04-27T11:31:06Z</time>
<desc>lat.=22.217445, lon.=104.431763, Alt.=324.816650m. Speed=13.572000m/h.</desc>
<speed>3.770000</speed>
</trkpt>
<trkpt lat="22.217365" lon="104.431938">
<ele>323.613525</ele>
<time>2011-04-27T11:31:11Z</time>
<desc>lat.=22.217365, lon.=104.431938, Alt.=323.613525m. Speed=14.004000m/h.</desc>
<speed>3.890000</speed>
</trkpt>
<trkpt lat="22.217354" lon="104.432121">
<ele>322.269775</ele>
<time>2011-04-27T11:31:16Z</time>
<desc>lat.=22.217354, lon.=104.432121, Alt.=322.269775m. Speed=12.492000m/h.</desc>
<speed>3.470000</speed>
</trkpt>
<trkpt lat="22.217365" lon="104.432266">
<ele>320.277588</ele>
<time>2011-04-27T11:31:21Z</time>
<desc>lat.=22.217365, lon.=104.432266, Alt.=320.277588m. Speed=7.704000m/h.</desc>
<speed>2.140000</speed>
</trkpt>
<trkpt lat="22.217377" lon="104.432343">
<ele>319.543213</ele>
<time>2011-04-27T11:31:26Z</time>
<desc>lat.=22.217377, lon.=104.432343, Alt.=319.543213m. Speed=0.504000m/h.</desc>
<speed>0.140000</speed>
</trkpt>
<trkpt lat="22.217375" lon="104.432350">
<ele>319.933838</ele>
<time>2011-04-27T11:31:31Z</time>
<desc>lat.=22.217375, lon.=104.432350, Alt.=319.933838m. Speed=0.072000m/h.</desc>
<speed>0.020000</speed>
</trkpt>
<trkpt lat="22.217369" lon="104.432358">
<ele>319.941650</ele>
<time>2011-04-27T11:31:36Z</time>
<desc>lat.=22.217369, lon.=104.432358, Alt.=319.941650m. Speed=1.476000m/h.</desc>
<speed>0.410000</speed>
</trkpt>
<trkpt lat="22.217367" lon="104.432365">
<ele>319.941650</ele>
<time>2011-04-27T11:31:41Z</time>
<desc>lat.=22.217367, lon.=104.432365, Alt.=319.941650m. Speed=0.036000m/h.</desc>
<speed>0.010000</speed>
</trkpt>
<trkpt lat="22.217369" lon="104.432365">
<ele>319.894775</ele>
<time>2011-04-27T11:31:46Z</time>
<desc>lat.=22.217369, lon.=104.432365, Alt.=319.894775m. Speed=0.468000m/h.</desc>
<speed>0.130000</speed>
</trkpt>
<trkpt lat="22.217373" lon="104.432358">
<ele>319.863525</ele>
<time>2011-04-27T11:31:51Z</time>
<desc>lat.=22.217373, lon.=104.432358, Alt.=319.863525m. Speed=0.684000m/h.</desc>
<speed>0.190000</speed>
</trkpt>
<trkpt lat="22.217379" lon="104.432350">
<ele>319.847900</ele>
<time>2011-04-27T11:31:56Z</time>
<desc>lat.=22.217379, lon.=104.432350, Alt.=319.847900m. Speed=1.836000m/h.</desc>
<speed>0.510000</speed>
</trkpt>
<trkpt lat="22.217398" lon="104.432381">
<ele>319.824463</ele>
<time>2011-04-27T11:32:01Z</time>
<desc>lat.=22.217398, lon.=104.432381, Alt.=319.824463m. Speed=2.412000m/h.</desc>
<speed>0.670000</speed>
</trkpt>
<trkpt lat="22.217424" lon="104.432396">
<ele>319.832275</ele>
<time>2011-04-27T11:32:06Z</time>
<desc>lat.=22.217424, lon.=104.432396, Alt.=319.832275m. Speed=2.772000m/h.</desc>
<speed>0.770000</speed>
</trkpt>
<trkpt lat="22.217527" lon="104.432442">
<ele>319.090088</ele>
<time>2011-04-27T11:32:11Z</time>
<desc>lat.=22.217527, lon.=104.432442, Alt.=319.090088m. Speed=8.532000m/h.</desc>
<speed>2.370000</speed>
</trkpt>
<trkpt lat="22.217649" lon="104.432487">
<ele>318.293213</ele>
<time>2011-04-27T11:32:16Z</time>
<desc>lat.=22.217649, lon.=104.432487, Alt.=318.293213m. Speed=7.164000m/h.</desc>
<speed>1.990000</speed>
</trkpt>
<trkpt lat="22.217821" lon="104.432564">
<ele>316.394775</ele>
<time>2011-04-27T11:32:21Z</time>
<desc>lat.=22.217821, lon.=104.432564, Alt.=316.394775m. Speed=11.916000m/h.</desc>
<speed>3.310000</speed>
</trkpt>
<trkpt lat="22.217972" lon="104.432701">
<ele>313.215088</ele>
<time>2011-04-27T11:32:26Z</time>
<desc>lat.=22.217972, lon.=104.432701, Alt.=313.215088m. Speed=10.656000m/h.</desc>
<speed>2.960000</speed>
</trkpt>
<trkpt lat="22.218048" lon="104.432816">
<ele>312.121338</ele>
<time>2011-04-27T11:32:31Z</time>
<desc>lat.=22.218048, lon.=104.432816, Alt.=312.121338m. Speed=9.468000m/h.</desc>
<speed>2.630000</speed>
</trkpt>
</trkseg>
</trk>
</gpx>